<?xml version="1.0" encoding="UTF-8" standalone="no" ?>
<gpx xmlns="http://www.topografix.com/GPX/1/1" xmlns:xsi="http://www.w3.org/2001/XMLSchema-instance" xsi:schemaLocation="http://www.topografix.com/GPX/1/1 http://www.topografix.com/GPX/1/1/gpx.xsd" version="1.1" creator="VisuGPX - https://www.visugpx.com">
  <metadata>
    <name>Tour du Viso</name>
    <desc><![CDATA[5 jours autour du Viso ]]></desc>
  </metadata>
  <trk>
    <name><![CDATA[12 juil. 2022]]></name>
    <desc><![CDATA[comment ...]]></desc>
    <extensions>
      <line xmlns="http://www.topografix.com/GPX/gpx_style/0/2">
        <color>0000FF</color>
        <opacity>1</opacity>
        <width>3</width>
        <dasharray>6</dasharray>
      </line>
    </extensions>
    <trkseg>
      <trkpt lat="44.73622" lon="6.99696">
        <ele>1799</ele>
        <time>2022-07-12T07:15:21Z</time>
      </trkpt>
      <trkpt lat="44.73619" lon="6.99692">
        <ele>1799</ele>
        <time>2022-07-12T07:15:25Z</time>
      </trkpt>
      <trkpt lat="44.73615" lon="6.99693">
        <ele>1798</ele>
        <time>2022-07-12T07:15:29Z</time>
      </trkpt>
      <trkpt lat="44.73611" lon="6.99695">
        <ele>1799</ele>
        <time>2022-07-12T07:15:33Z</time>
      </trkpt>
      <trkpt lat="44.73601" lon="6.9971">
        <ele>1801</ele>
        <time>2022-07-12T07:15:57Z</time>
      </trkpt>
      <trkpt lat="44.73598" lon="6.99712">
        <ele>1800</ele>
        <time>2022-07-12T07:16:02Z</time>
      </trkpt>
      <trkpt lat="44.73594" lon="6.99712">
        <ele>1800</ele>
        <time>2022-07-12T07:17:05Z</time>
      </trkpt>
      <trkpt lat="44.73591" lon="6.99715">
        <ele>1800</ele>
        <time>2022-07-12T07:17:16Z</time>
      </trkpt>
      <trkpt lat="44.73588" lon="6.99716">
        <ele>1802</ele>
        <time>2022-07-12T07:17:21Z</time>
      </trkpt>
      <trkpt lat="44.73581" lon="6.9972">
        <ele>1804</ele>
        <time>2022-07-12T07:17:36Z</time>
      </trkpt>
      <trkpt lat="44.73579" lon="6.99716">
        <ele>1804</ele>
        <time>2022-07-12T07:17:46Z</time>
      </trkpt>
      <trkpt lat="44.73575" lon="6.99719">
        <ele>1805</ele>
        <time>2022-07-12T07:17:53Z</time>
      </trkpt>
      <trkpt lat="44.73568" lon="6.99721">
        <ele>1805</ele>
        <time>2022-07-12T07:18:25Z</time>
      </trkpt>
      <trkpt lat="44.73563" lon="6.99722">
        <ele>1807</ele>
        <time>2022-07-12T07:18:30Z</time>
      </trkpt>
      <trkpt lat="44.73559" lon="6.99722">
        <ele>1804</ele>
        <time>2022-07-12T07:18:35Z</time>
      </trkpt>
      <trkpt lat="44.7356" lon="6.99718">
        <ele>1803</ele>
        <time>2022-07-12T07:18:41Z</time>
      </trkpt>
      <trkpt lat="44.73557" lon="6.99715">
        <ele>1805</ele>
        <time>2022-07-12T07:18:51Z</time>
      </trkpt>
      <trkpt lat="44.73554" lon="6.99716">
        <ele>1807</ele>
        <time>2022-07-12T07:18:57Z</time>
      </trkpt>
      <trkpt lat="44.7355" lon="6.99718">
        <ele>1811</ele>
        <time>2022-07-12T07:19:02Z</time>
      </trkpt>
      <trkpt lat="44.73547" lon="6.99718">
        <ele>1812</ele>
        <time>2022-07-12T07:19:09Z</time>
      </trkpt>
      <trkpt lat="44.73543" lon="6.99719">
        <ele>1813</ele>
        <time>2022-07-12T07:19:14Z</time>
      </trkpt>
      <trkpt lat="44.73539" lon="6.99718">
        <ele>1814</ele>
        <time>2022-07-12T07:19:20Z</time>
      </trkpt>
      <trkpt lat="44.73536" lon="6.99723">
        <ele>1813</ele>
        <time>2022-07-12T07:19:25Z</time>
      </trkpt>
      <trkpt lat="44.73533" lon="6.99726">
        <ele>1814</ele>
        <time>2022-07-12T07:19:30Z</time>
      </trkpt>
      <trkpt lat="44.7353" lon="6.99728">
        <ele>1814</ele>
        <time>2022-07-12T07:19:35Z</time>
      </trkpt>
      <trkpt lat="44.73524" lon="6.99734">
        <ele>1817</ele>
        <time>2022-07-12T07:19:46Z</time>
      </trkpt>
      <trkpt lat="44.73521" lon="6.99738">
        <ele>1817</ele>
        <time>2022-07-12T07:19:50Z</time>
      </trkpt>
      <trkpt lat="44.73518" lon="6.99741">
        <ele>1817</ele>
        <time>2022-07-12T07:19:55Z</time>
      </trkpt>
      <trkpt lat="44.73513" lon="6.99749">
        <ele>1817</ele>
        <time>2022-07-12T07:20:05Z</time>
      </trkpt>
      <trkpt lat="44.73511" lon="6.99753">
        <ele>1817</ele>
        <time>2022-07-12T07:20:09Z</time>
      </trkpt>
      <trkpt lat="44.73508" lon="6.99755">
        <ele>1818</ele>
        <time>2022-07-12T07:20:14Z</time>
      </trkpt>
      <trkpt lat="44.73491" lon="6.99766">
        <ele>1821</ele>
        <time>2022-07-12T07:20:38Z</time>
      </trkpt>
      <trkpt lat="44.73464" lon="6.99774">
        <ele>1826</ele>
        <time>2022-07-12T07:21:13Z</time>
      </trkpt>
      <trkpt lat="44.73455" lon="6.99778">
        <ele>1827</ele>
        <time>2022-07-12T07:21:25Z</time>
      </trkpt>
      <trkpt lat="44.73428" lon="6.99776">
        <ele>1830</ele>
        <time>2022-07-12T07:22:04Z</time>
      </trkpt>
      <trkpt lat="44.73418" lon="6.99776">
        <ele>1831</ele>
        <time>2022-07-12T07:22:16Z</time>
      </trkpt>
      <trkpt lat="44.73409" lon="6.99779">
        <ele>1832</ele>
        <time>2022-07-12T07:22:28Z</time>
      </trkpt>
      <trkpt lat="44.73401" lon="6.99785">
        <ele>1833</ele>
        <time>2022-07-12T07:22:40Z</time>
      </trkpt>
      <trkpt lat="44.73393" lon="6.9979">
        <ele>1835</ele>
        <time>2022-07-12T07:22:53Z</time>
      </trkpt>
      <trkpt lat="44.73385" lon="6.99795">
        <ele>1835</ele>
        <time>2022-07-12T07:23:03Z</time>
      </trkpt>
      <trkpt lat="44.73376" lon="6.998">
        <ele>1831</ele>
        <time>2022-07-12T07:23:15Z</time>
      </trkpt>
      <trkpt lat="44.73368" lon="6.99806">
        <ele>1829</ele>
        <time>2022-07-12T07:23:24Z</time>
      </trkpt>
      <trkpt lat="44.73353" lon="6.99822">
        <ele>1829</ele>
        <time>2022-07-12T07:24:05Z</time>
      </trkpt>
      <trkpt lat="44.73346" lon="6.9983">
        <ele>1831</ele>
        <time>2022-07-12T07:24:21Z</time>
      </trkpt>
      <trkpt lat="44.73343" lon="6.99842">
        <ele>1837</ele>
        <time>2022-07-12T07:24:39Z</time>
      </trkpt>
      <trkpt lat="44.73333" lon="6.99864">
        <ele>1848</ele>
        <time>2022-07-12T07:25:12Z</time>
      </trkpt>
      <trkpt lat="44.73329" lon="6.99876">
        <ele>1856</ele>
        <time>2022-07-12T07:25:28Z</time>
      </trkpt>
      <trkpt lat="44.7332" lon="6.99881">
        <ele>1858</ele>
        <time>2022-07-12T07:25:45Z</time>
      </trkpt>
      <trkpt lat="44.73311" lon="6.99882">
        <ele>1866</ele>
        <time>2022-07-12T07:26:05Z</time>
      </trkpt>
      <trkpt lat="44.73303" lon="6.99877">
        <ele>1867</ele>
        <time>2022-07-12T07:26:20Z</time>
      </trkpt>
      <trkpt lat="44.73294" lon="6.99877">
        <ele>1870</ele>
        <time>2022-07-12T07:26:28Z</time>
      </trkpt>
      <trkpt lat="44.73284" lon="6.99875">
        <ele>1869</ele>
        <time>2022-07-12T07:26:34Z</time>
      </trkpt>
      <trkpt lat="44.73267" lon="6.99861">
        <ele>1867</ele>
        <time>2022-07-12T07:26:52Z</time>
      </trkpt>
      <trkpt lat="44.73258" lon="6.99864">
        <ele>1863</ele>
        <time>2022-07-12T07:27:08Z</time>
      </trkpt>
      <trkpt lat="44.73249" lon="6.99865">
        <ele>1864</ele>
        <time>2022-07-12T07:27:25Z</time>
      </trkpt>
      <trkpt lat="44.7324" lon="6.99865">
        <ele>1864</ele>
        <time>2022-07-12T07:27:42Z</time>
      </trkpt>
      <trkpt lat="44.73243" lon="6.99877">
        <ele>1864</ele>
        <time>2022-07-12T07:28:01Z</time>
      </trkpt>
      <trkpt lat="44.73249" lon="6.99887">
        <ele>1864</ele>
        <time>2022-07-12T07:28:25Z</time>
      </trkpt>
      <trkpt lat="44.73258" lon="6.9989">
        <ele>1866</ele>
        <time>2022-07-12T07:28:37Z</time>
      </trkpt>
      <trkpt lat="44.73255" lon="6.99902">
        <ele>1869</ele>
        <time>2022-07-12T07:29:20Z</time>
      </trkpt>
      <trkpt lat="44.73251" lon="6.99913">
        <ele>1875</ele>
        <time>2022-07-12T07:29:42Z</time>
      </trkpt>
      <trkpt lat="44.73242" lon="6.99914">
        <ele>1877</ele>
        <time>2022-07-12T07:29:56Z</time>
      </trkpt>
      <trkpt lat="44.73233" lon="6.99914">
        <ele>1884</ele>
        <time>2022-07-12T07:30:15Z</time>
      </trkpt>
      <trkpt lat="44.73224" lon="6.99911">
        <ele>1890</ele>
        <time>2022-07-12T07:30:32Z</time>
      </trkpt>
      <trkpt lat="44.73219" lon="6.99908">
        <ele>1893</ele>
        <time>2022-07-12T07:30:42Z</time>
      </trkpt>
      <trkpt lat="44.73215" lon="6.99907">
        <ele>1894</ele>
        <time>2022-07-12T07:30:48Z</time>
      </trkpt>
      <trkpt lat="44.73211" lon="6.99909">
        <ele>1893</ele>
        <time>2022-07-12T07:30:54Z</time>
      </trkpt>
      <trkpt lat="44.73208" lon="6.99908">
        <ele>1893</ele>
        <time>2022-07-12T07:30:59Z</time>
      </trkpt>
      <trkpt lat="44.73205" lon="6.99906">
        <ele>1894</ele>
        <time>2022-07-12T07:31:04Z</time>
      </trkpt>
      <trkpt lat="44.7319" lon="6.99909">
        <ele>1893</ele>
        <time>2022-07-12T07:31:24Z</time>
      </trkpt>
      <trkpt lat="44.73186" lon="6.9991">
        <ele>1893</ele>
        <time>2022-07-12T07:31:29Z</time>
      </trkpt>
      <trkpt lat="44.7318" lon="6.99915">
        <ele>1895</ele>
        <time>2022-07-12T07:31:39Z</time>
      </trkpt>
      <trkpt lat="44.73179" lon="6.9992">
        <ele>1896</ele>
        <time>2022-07-12T07:31:45Z</time>
      </trkpt>
      <trkpt lat="44.73177" lon="6.99925">
        <ele>1897</ele>
        <time>2022-07-12T07:31:51Z</time>
      </trkpt>
      <trkpt lat="44.73175" lon="6.99929">
        <ele>1898</ele>
        <time>2022-07-12T07:31:57Z</time>
      </trkpt>
      <trkpt lat="44.73172" lon="6.99925">
        <ele>1899</ele>
        <time>2022-07-12T07:32:07Z</time>
      </trkpt>
      <trkpt lat="44.73169" lon="6.99928">
        <ele>1898</ele>
        <time>2022-07-12T07:32:09Z</time>
      </trkpt>
      <trkpt lat="44.73164" lon="6.99943">
        <ele>1898</ele>
        <time>2022-07-12T07:32:20Z</time>
      </trkpt>
      <trkpt lat="44.73162" lon="6.99947">
        <ele>1898</ele>
        <time>2022-07-12T07:32:23Z</time>
      </trkpt>
      <trkpt lat="44.7314" lon="6.99968">
        <ele>1898</ele>
        <time>2022-07-12T07:32:46Z</time>
      </trkpt>
      <trkpt lat="44.73129" lon="6.99972">
        <ele>1898</ele>
        <time>2022-07-12T07:32:57Z</time>
      </trkpt>
      <trkpt lat="44.73125" lon="6.99972">
        <ele>1899</ele>
        <time>2022-07-12T07:33:01Z</time>
      </trkpt>
      <trkpt lat="44.7312" lon="6.99971">
        <ele>1899</ele>
        <time>2022-07-12T07:33:05Z</time>
      </trkpt>
      <trkpt lat="44.73116" lon="6.99973">
        <ele>1900</ele>
        <time>2022-07-12T07:33:10Z</time>
      </trkpt>
      <trkpt lat="44.73111" lon="6.99981">
        <ele>1899</ele>
        <time>2022-07-12T07:33:18Z</time>
      </trkpt>
      <trkpt lat="44.73108" lon="6.99984">
        <ele>1898</ele>
        <time>2022-07-12T07:33:21Z</time>
      </trkpt>
      <trkpt lat="44.731" lon="6.99987">
        <ele>1898</ele>
        <time>2022-07-12T07:33:28Z</time>
      </trkpt>
      <trkpt lat="44.73082" lon="7">
        <ele>1898</ele>
        <time>2022-07-12T07:33:48Z</time>
      </trkpt>
      <trkpt lat="44.73076" lon="7.00006">
        <ele>1898</ele>
        <time>2022-07-12T07:33:55Z</time>
      </trkpt>
      <trkpt lat="44.73073" lon="7.00009">
        <ele>1897</ele>
        <time>2022-07-12T07:33:59Z</time>
      </trkpt>
      <trkpt lat="44.7306" lon="7.00021">
        <ele>1898</ele>
        <time>2022-07-12T07:34:12Z</time>
      </trkpt>
      <trkpt lat="44.73055" lon="7.00029">
        <ele>1900</ele>
        <time>2022-07-12T07:34:20Z</time>
      </trkpt>
      <trkpt lat="44.73049" lon="7.00035">
        <ele>1900</ele>
        <time>2022-07-12T07:34:29Z</time>
      </trkpt>
      <trkpt lat="44.73046" lon="7.00046">
        <ele>1901</ele>
        <time>2022-07-12T07:34:38Z</time>
      </trkpt>
      <trkpt lat="44.73046" lon="7.00051">
        <ele>1900</ele>
        <time>2022-07-12T07:34:42Z</time>
      </trkpt>
      <trkpt lat="44.73044" lon="7.00062">
        <ele>1901</ele>
        <time>2022-07-12T07:34:50Z</time>
      </trkpt>
      <trkpt lat="44.73042" lon="7.00066">
        <ele>1902</ele>
        <time>2022-07-12T07:34:54Z</time>
      </trkpt>
      <trkpt lat="44.7304" lon="7.00082">
        <ele>1903</ele>
        <time>2022-07-12T07:35:08Z</time>
      </trkpt>
      <trkpt lat="44.73033" lon="7.00095">
        <ele>1904</ele>
        <time>2022-07-12T07:35:20Z</time>
      </trkpt>
      <trkpt lat="44.7303" lon="7.00098">
        <ele>1904</ele>
        <time>2022-07-12T07:35:24Z</time>
      </trkpt>
      <trkpt lat="44.73014" lon="7.0011">
        <ele>1905</ele>
        <time>2022-07-12T07:35:45Z</time>
      </trkpt>
      <trkpt lat="44.73004" lon="7.00108">
        <ele>1905</ele>
        <time>2022-07-12T07:35:52Z</time>
      </trkpt>
      <trkpt lat="44.72995" lon="7.00111">
        <ele>1905</ele>
        <time>2022-07-12T07:36:00Z</time>
      </trkpt>
      <trkpt lat="44.72987" lon="7.00117">
        <ele>1904</ele>
        <time>2022-07-12T07:36:11Z</time>
      </trkpt>
      <trkpt lat="44.7298" lon="7.00124">
        <ele>1903</ele>
        <time>2022-07-12T07:36:20Z</time>
      </trkpt>
      <trkpt lat="44.72982" lon="7.00132">
        <ele>1900</ele>
        <time>2022-07-12T07:36:46Z</time>
      </trkpt>
      <trkpt lat="44.72988" lon="7.00141">
        <ele>1898</ele>
        <time>2022-07-12T07:36:57Z</time>
      </trkpt>
      <trkpt lat="44.72994" lon="7.00152">
        <ele>1896</ele>
        <time>2022-07-12T07:37:09Z</time>
      </trkpt>
      <trkpt lat="44.73001" lon="7.00161">
        <ele>1897</ele>
        <time>2022-07-12T07:37:21Z</time>
      </trkpt>
      <trkpt lat="44.72993" lon="7.00166">
        <ele>1901</ele>
        <time>2022-07-12T07:37:40Z</time>
      </trkpt>
      <trkpt lat="44.72983" lon="7.0017">
        <ele>1901</ele>
        <time>2022-07-12T07:37:49Z</time>
      </trkpt>
      <trkpt lat="44.72973" lon="7.00172">
        <ele>1902</ele>
        <time>2022-07-12T07:37:59Z</time>
      </trkpt>
      <trkpt lat="44.72965" lon="7.00177">
        <ele>1902</ele>
        <time>2022-07-12T07:38:10Z</time>
      </trkpt>
      <trkpt lat="44.72956" lon="7.00178">
        <ele>1901</ele>
        <time>2022-07-12T07:38:20Z</time>
      </trkpt>
      <trkpt lat="44.72949" lon="7.00187">
        <ele>1900</ele>
        <time>2022-07-12T07:38:30Z</time>
      </trkpt>
      <trkpt lat="44.7294" lon="7.0019">
        <ele>1902</ele>
        <time>2022-07-12T07:38:43Z</time>
      </trkpt>
      <trkpt lat="44.72937" lon="7.00202">
        <ele>1906</ele>
        <time>2022-07-12T07:38:59Z</time>
      </trkpt>
      <trkpt lat="44.7293" lon="7.00212">
        <ele>1909</ele>
        <time>2022-07-12T07:39:14Z</time>
      </trkpt>
      <trkpt lat="44.72927" lon="7.00224">
        <ele>1911</ele>
        <time>2022-07-12T07:39:31Z</time>
      </trkpt>
      <trkpt lat="44.72934" lon="7.00231">
        <ele>1911</ele>
        <time>2022-07-12T07:39:52Z</time>
      </trkpt>
      <trkpt lat="44.72921" lon="7.0025">
        <ele>1912</ele>
        <time>2022-07-12T07:40:21Z</time>
      </trkpt>
      <trkpt lat="44.72916" lon="7.00261">
        <ele>1912</ele>
        <time>2022-07-12T07:40:32Z</time>
      </trkpt>
      <trkpt lat="44.72911" lon="7.00273">
        <ele>1913</ele>
        <time>2022-07-12T07:40:43Z</time>
      </trkpt>
      <trkpt lat="44.72907" lon="7.00284">
        <ele>1914</ele>
        <time>2022-07-12T07:40:54Z</time>
      </trkpt>
      <trkpt lat="44.72904" lon="7.00296">
        <ele>1918</ele>
        <time>2022-07-12T07:41:05Z</time>
      </trkpt>
      <trkpt lat="44.72904" lon="7.00309">
        <ele>1921</ele>
        <time>2022-07-12T07:41:17Z</time>
      </trkpt>
      <trkpt lat="44.72909" lon="7.0032">
        <ele>1927</ele>
        <time>2022-07-12T07:41:30Z</time>
      </trkpt>
      <trkpt lat="44.72913" lon="7.00332">
        <ele>1930</ele>
        <time>2022-07-12T07:41:43Z</time>
      </trkpt>
      <trkpt lat="44.72913" lon="7.00345">
        <ele>1932</ele>
        <time>2022-07-12T07:41:57Z</time>
      </trkpt>
      <trkpt lat="44.72919" lon="7.00355">
        <ele>1935</ele>
        <time>2022-07-12T07:42:14Z</time>
      </trkpt>
      <trkpt lat="44.72892" lon="7.00392">
        <ele>1935</ele>
        <time>2022-07-12T07:42:53Z</time>
      </trkpt>
      <trkpt lat="44.72873" lon="7.00422">
        <ele>1936</ele>
        <time>2022-07-12T07:43:24Z</time>
      </trkpt>
      <trkpt lat="44.72865" lon="7.00429">
        <ele>1938</ele>
        <time>2022-07-12T07:43:33Z</time>
      </trkpt>
      <trkpt lat="44.72858" lon="7.00439">
        <ele>1941</ele>
        <time>2022-07-12T07:43:43Z</time>
      </trkpt>
      <trkpt lat="44.72852" lon="7.00448">
        <ele>1942</ele>
        <time>2022-07-12T07:43:53Z</time>
      </trkpt>
      <trkpt lat="44.7283" lon="7.00474">
        <ele>1946</ele>
        <time>2022-07-12T07:44:23Z</time>
      </trkpt>
      <trkpt lat="44.72811" lon="7.00503">
        <ele>1950</ele>
        <time>2022-07-12T07:44:51Z</time>
      </trkpt>
      <trkpt lat="44.72796" lon="7.0052">
        <ele>1955</ele>
        <time>2022-07-12T07:45:11Z</time>
      </trkpt>
      <trkpt lat="44.7279" lon="7.0053">
        <ele>1957</ele>
        <time>2022-07-12T07:45:20Z</time>
      </trkpt>
      <trkpt lat="44.72775" lon="7.00546">
        <ele>1958</ele>
        <time>2022-07-12T07:45:39Z</time>
      </trkpt>
      <trkpt lat="44.72768" lon="7.00554">
        <ele>1958</ele>
        <time>2022-07-12T07:45:48Z</time>
      </trkpt>
      <trkpt lat="44.72756" lon="7.00573">
        <ele>1962</ele>
        <time>2022-07-12T07:46:09Z</time>
      </trkpt>
      <trkpt lat="44.72744" lon="7.00593">
        <ele>1965</ele>
        <time>2022-07-12T07:46:33Z</time>
      </trkpt>
      <trkpt lat="44.72737" lon="7.00601">
        <ele>1963</ele>
        <time>2022-07-12T07:46:43Z</time>
      </trkpt>
      <trkpt lat="44.72728" lon="7.00605">
        <ele>1962</ele>
        <time>2022-07-12T07:46:53Z</time>
      </trkpt>
      <trkpt lat="44.72699" lon="7.00628">
        <ele>1964</ele>
        <time>2022-07-12T07:47:25Z</time>
      </trkpt>
      <trkpt lat="44.7269" lon="7.00636">
        <ele>1965</ele>
        <time>2022-07-12T07:47:35Z</time>
      </trkpt>
      <trkpt lat="44.72682" lon="7.00638">
        <ele>1965</ele>
        <time>2022-07-12T07:47:43Z</time>
      </trkpt>
      <trkpt lat="44.72659" lon="7.00628">
        <ele>1966</ele>
        <time>2022-07-12T07:48:07Z</time>
      </trkpt>
      <trkpt lat="44.72656" lon="7.00628">
        <ele>1966</ele>
        <time>2022-07-12T07:48:10Z</time>
      </trkpt>
      <trkpt lat="44.72641" lon="7.00633">
        <ele>1968</ele>
        <time>2022-07-12T07:48:25Z</time>
      </trkpt>
      <trkpt lat="44.72634" lon="7.00636">
        <ele>1968</ele>
        <time>2022-07-12T07:48:33Z</time>
      </trkpt>
      <trkpt lat="44.72628" lon="7.00643">
        <ele>1970</ele>
        <time>2022-07-12T07:48:41Z</time>
      </trkpt>
      <trkpt lat="44.72626" lon="7.00648">
        <ele>1971</ele>
        <time>2022-07-12T07:48:45Z</time>
      </trkpt>
      <trkpt lat="44.7262" lon="7.00662">
        <ele>1972</ele>
        <time>2022-07-12T07:48:57Z</time>
      </trkpt>
      <trkpt lat="44.72612" lon="7.00687">
        <ele>1974</ele>
        <time>2022-07-12T07:49:16Z</time>
      </trkpt>
      <trkpt lat="44.72611" lon="7.00692">
        <ele>1975</ele>
        <time>2022-07-12T07:49:20Z</time>
      </trkpt>
      <trkpt lat="44.72607" lon="7.00708">
        <ele>1975</ele>
        <time>2022-07-12T07:49:32Z</time>
      </trkpt>
      <trkpt lat="44.72606" lon="7.00713">
        <ele>1975</ele>
        <time>2022-07-12T07:49:36Z</time>
      </trkpt>
      <trkpt lat="44.72603" lon="7.00718">
        <ele>1974</ele>
        <time>2022-07-12T07:49:40Z</time>
      </trkpt>
      <trkpt lat="44.726" lon="7.00722">
        <ele>1974</ele>
        <time>2022-07-12T07:49:44Z</time>
      </trkpt>
      <trkpt lat="44.72592" lon="7.00721">
        <ele>1975</ele>
        <time>2022-07-12T07:49:50Z</time>
      </trkpt>
      <trkpt lat="44.72569" lon="7.00713">
        <ele>1975</ele>
        <time>2022-07-12T07:50:11Z</time>
      </trkpt>
      <trkpt lat="44.72565" lon="7.00714">
        <ele>1975</ele>
        <time>2022-07-12T07:50:15Z</time>
      </trkpt>
      <trkpt lat="44.72543" lon="7.00727">
        <ele>1977</ele>
        <time>2022-07-12T07:50:37Z</time>
      </trkpt>
      <trkpt lat="44.72536" lon="7.00732">
        <ele>1977</ele>
        <time>2022-07-12T07:50:44Z</time>
      </trkpt>
      <trkpt lat="44.72533" lon="7.00736">
        <ele>1978</ele>
        <time>2022-07-12T07:50:47Z</time>
      </trkpt>
      <trkpt lat="44.72532" lon="7.00741">
        <ele>1978</ele>
        <time>2022-07-12T07:50:51Z</time>
      </trkpt>
      <trkpt lat="44.72529" lon="7.00743">
        <ele>1980</ele>
        <time>2022-07-12T07:50:54Z</time>
      </trkpt>
      <trkpt lat="44.72527" lon="7.00747">
        <ele>1981</ele>
        <time>2022-07-12T07:50:57Z</time>
      </trkpt>
      <trkpt lat="44.72514" lon="7.00775">
        <ele>1979</ele>
        <time>2022-07-12T07:51:28Z</time>
      </trkpt>
      <trkpt lat="44.72512" lon="7.00779">
        <ele>1980</ele>
        <time>2022-07-12T07:51:31Z</time>
      </trkpt>
      <trkpt lat="44.72508" lon="7.00781">
        <ele>1980</ele>
        <time>2022-07-12T07:51:35Z</time>
      </trkpt>
      <trkpt lat="44.72489" lon="7.00784">
        <ele>1980</ele>
        <time>2022-07-12T07:51:53Z</time>
      </trkpt>
      <trkpt lat="44.72482" lon="7.00789">
        <ele>1980</ele>
        <time>2022-07-12T07:52:00Z</time>
      </trkpt>
      <trkpt lat="44.7248" lon="7.00795">
        <ele>1981</ele>
        <time>2022-07-12T07:52:04Z</time>
      </trkpt>
      <trkpt lat="44.72478" lon="7.00801">
        <ele>1981</ele>
        <time>2022-07-12T07:52:08Z</time>
      </trkpt>
      <trkpt lat="44.72479" lon="7.00852">
        <ele>1982</ele>
        <time>2022-07-12T07:52:41Z</time>
      </trkpt>
      <trkpt lat="44.72479" lon="7.00857">
        <ele>1982</ele>
        <time>2022-07-12T07:52:44Z</time>
      </trkpt>
      <trkpt lat="44.72476" lon="7.00873">
        <ele>1982</ele>
        <time>2022-07-12T07:52:54Z</time>
      </trkpt>
      <trkpt lat="44.72474" lon="7.00878">
        <ele>1983</ele>
        <time>2022-07-12T07:52:57Z</time>
      </trkpt>
      <trkpt lat="44.72449" lon="7.00906">
        <ele>1983</ele>
        <time>2022-07-12T07:53:24Z</time>
      </trkpt>
      <trkpt lat="44.72445" lon="7.00921">
        <ele>1984</ele>
        <time>2022-07-12T07:53:33Z</time>
      </trkpt>
      <trkpt lat="44.72428" lon="7.00962">
        <ele>1987</ele>
        <time>2022-07-12T07:54:01Z</time>
      </trkpt>
      <trkpt lat="44.72408" lon="7.01008">
        <ele>1990</ele>
        <time>2022-07-12T07:54:33Z</time>
      </trkpt>
      <trkpt lat="44.72403" lon="7.01019">
        <ele>1990</ele>
        <time>2022-07-12T07:54:42Z</time>
      </trkpt>
      <trkpt lat="44.72397" lon="7.0103">
        <ele>1989</ele>
        <time>2022-07-12T07:54:51Z</time>
      </trkpt>
      <trkpt lat="44.7239" lon="7.01056">
        <ele>1988</ele>
        <time>2022-07-12T07:55:09Z</time>
      </trkpt>
      <trkpt lat="44.72383" lon="7.0108">
        <ele>1990</ele>
        <time>2022-07-12T07:55:26Z</time>
      </trkpt>
      <trkpt lat="44.72364" lon="7.01127">
        <ele>1989</ele>
        <time>2022-07-12T07:56:02Z</time>
      </trkpt>
      <trkpt lat="44.72363" lon="7.0114">
        <ele>1987</ele>
        <time>2022-07-12T07:56:33Z</time>
      </trkpt>
      <trkpt lat="44.72359" lon="7.01152">
        <ele>1984</ele>
        <time>2022-07-12T07:56:52Z</time>
      </trkpt>
      <trkpt lat="44.72353" lon="7.01162">
        <ele>1984</ele>
        <time>2022-07-12T07:57:07Z</time>
      </trkpt>
      <trkpt lat="44.72344" lon="7.01167">
        <ele>1982</ele>
        <time>2022-07-12T07:57:18Z</time>
      </trkpt>
      <trkpt lat="44.72327" lon="7.0118">
        <ele>1977</ele>
        <time>2022-07-12T07:57:37Z</time>
      </trkpt>
      <trkpt lat="44.7232" lon="7.01188">
        <ele>1977</ele>
        <time>2022-07-12T07:57:46Z</time>
      </trkpt>
      <trkpt lat="44.72312" lon="7.01196">
        <ele>1979</ele>
        <time>2022-07-12T07:58:10Z</time>
      </trkpt>
      <trkpt lat="44.72305" lon="7.01204">
        <ele>1982</ele>
        <time>2022-07-12T07:58:18Z</time>
      </trkpt>
      <trkpt lat="44.72297" lon="7.01211">
        <ele>1982</ele>
        <time>2022-07-12T07:58:27Z</time>
      </trkpt>
      <trkpt lat="44.72268" lon="7.01243">
        <ele>1982</ele>
        <time>2022-07-12T07:59:00Z</time>
      </trkpt>
      <trkpt lat="44.7226" lon="7.01251">
        <ele>1983</ele>
        <time>2022-07-12T07:59:08Z</time>
      </trkpt>
      <trkpt lat="44.72237" lon="7.01273">
        <ele>1987</ele>
        <time>2022-07-12T07:59:34Z</time>
      </trkpt>
      <trkpt lat="44.72212" lon="7.01294">
        <ele>1988</ele>
        <time>2022-07-12T08:00:01Z</time>
      </trkpt>
      <trkpt lat="44.72206" lon="7.01303">
        <ele>1989</ele>
        <time>2022-07-12T08:00:12Z</time>
      </trkpt>
      <trkpt lat="44.72169" lon="7.01317">
        <ele>1993</ele>
        <time>2022-07-12T08:00:46Z</time>
      </trkpt>
      <trkpt lat="44.72161" lon="7.01323">
        <ele>1995</ele>
        <time>2022-07-12T08:00:54Z</time>
      </trkpt>
      <trkpt lat="44.72132" lon="7.01355">
        <ele>1997</ele>
        <time>2022-07-12T08:01:28Z</time>
      </trkpt>
      <trkpt lat="44.72115" lon="7.01367">
        <ele>1997</ele>
        <time>2022-07-12T08:01:45Z</time>
      </trkpt>
      <trkpt lat="44.72107" lon="7.01374">
        <ele>1998</ele>
        <time>2022-07-12T08:01:54Z</time>
      </trkpt>
      <trkpt lat="44.72099" lon="7.01382">
        <ele>1995</ele>
        <time>2022-07-12T08:02:27Z</time>
      </trkpt>
      <trkpt lat="44.7208" lon="7.01391">
        <ele>1995</ele>
        <time>2022-07-12T08:02:41Z</time>
      </trkpt>
      <trkpt lat="44.72048" lon="7.01417">
        <ele>1995</ele>
        <time>2022-07-12T08:03:14Z</time>
      </trkpt>
      <trkpt lat="44.7204" lon="7.01426">
        <ele>1995</ele>
        <time>2022-07-12T08:03:23Z</time>
      </trkpt>
      <trkpt lat="44.72024" lon="7.01437">
        <ele>1993</ele>
        <time>2022-07-12T08:03:39Z</time>
      </trkpt>
      <trkpt lat="44.71988" lon="7.01456">
        <ele>1990</ele>
        <time>2022-07-12T08:04:12Z</time>
      </trkpt>
      <trkpt lat="44.71971" lon="7.01466">
        <ele>1990</ele>
        <time>2022-07-12T08:04:29Z</time>
      </trkpt>
      <trkpt lat="44.71947" lon="7.01486">
        <ele>1992</ele>
        <time>2022-07-12T08:04:56Z</time>
      </trkpt>
      <trkpt lat="44.7192" lon="7.01524">
        <ele>1996</ele>
        <time>2022-07-12T08:05:33Z</time>
      </trkpt>
      <trkpt lat="44.71898" lon="7.01567">
        <ele>1999</ele>
        <time>2022-07-12T08:06:10Z</time>
      </trkpt>
      <trkpt lat="44.71868" lon="7.01598">
        <ele>2001</ele>
        <time>2022-07-12T08:06:46Z</time>
      </trkpt>
      <trkpt lat="44.71844" lon="7.01616">
        <ele>2003</ele>
        <time>2022-07-12T08:07:11Z</time>
      </trkpt>
      <trkpt lat="44.71823" lon="7.01642">
        <ele>2007</ele>
        <time>2022-07-12T08:07:39Z</time>
      </trkpt>
      <trkpt lat="44.71806" lon="7.01673">
        <ele>2010</ele>
        <time>2022-07-12T08:08:08Z</time>
      </trkpt>
      <trkpt lat="44.71785" lon="7.01698">
        <ele>2012</ele>
        <time>2022-07-12T08:08:35Z</time>
      </trkpt>
      <trkpt lat="44.71761" lon="7.01718">
        <ele>2014</ele>
        <time>2022-07-12T08:09:01Z</time>
      </trkpt>
      <trkpt lat="44.71732" lon="7.01752">
        <ele>2015</ele>
        <time>2022-07-12T08:09:36Z</time>
      </trkpt>
      <trkpt lat="44.7171" lon="7.01777">
        <ele>2016</ele>
        <time>2022-07-12T08:10:03Z</time>
      </trkpt>
      <trkpt lat="44.71692" lon="7.01824">
        <ele>2012</ele>
        <time>2022-07-12T08:10:37Z</time>
      </trkpt>
      <trkpt lat="44.71685" lon="7.01849">
        <ele>2011</ele>
        <time>2022-07-12T08:10:53Z</time>
      </trkpt>
      <trkpt lat="44.7167" lon="7.01884">
        <ele>2011</ele>
        <time>2022-07-12T08:11:18Z</time>
      </trkpt>
      <trkpt lat="44.71664" lon="7.01893">
        <ele>2011</ele>
        <time>2022-07-12T08:11:26Z</time>
      </trkpt>
      <trkpt lat="44.71646" lon="7.01926">
        <ele>2010</ele>
        <time>2022-07-12T08:11:53Z</time>
      </trkpt>
      <trkpt lat="44.71621" lon="7.01966">
        <ele>2009</ele>
        <time>2022-07-12T08:12:25Z</time>
      </trkpt>
      <trkpt lat="44.71602" lon="7.01995">
        <ele>2007</ele>
        <time>2022-07-12T08:12:49Z</time>
      </trkpt>
      <trkpt lat="44.71598" lon="7.02007">
        <ele>2006</ele>
        <time>2022-07-12T08:12:57Z</time>
      </trkpt>
      <trkpt lat="44.71584" lon="7.02043">
        <ele>2006</ele>
        <time>2022-07-12T08:13:22Z</time>
      </trkpt>
      <trkpt lat="44.71578" lon="7.02053">
        <ele>2007</ele>
        <time>2022-07-12T08:13:30Z</time>
      </trkpt>
      <trkpt lat="44.71562" lon="7.02068">
        <ele>2011</ele>
        <time>2022-07-12T08:13:46Z</time>
      </trkpt>
      <trkpt lat="44.71536" lon="7.02084">
        <ele>2014</ele>
        <time>2022-07-12T08:14:17Z</time>
      </trkpt>
      <trkpt lat="44.71501" lon="7.02101">
        <ele>2014</ele>
        <time>2022-07-12T08:14:50Z</time>
      </trkpt>
      <trkpt lat="44.71486" lon="7.02117">
        <ele>2015</ele>
        <time>2022-07-12T08:15:07Z</time>
      </trkpt>
      <trkpt lat="44.7148" lon="7.02127">
        <ele>2016</ele>
        <time>2022-07-12T08:15:16Z</time>
      </trkpt>
      <trkpt lat="44.71459" lon="7.02154">
        <ele>2017</ele>
        <time>2022-07-12T08:15:41Z</time>
      </trkpt>
      <trkpt lat="44.71452" lon="7.02162">
        <ele>2016</ele>
        <time>2022-07-12T08:15:49Z</time>
      </trkpt>
      <trkpt lat="44.71418" lon="7.02186">
        <ele>2016</ele>
        <time>2022-07-12T08:16:24Z</time>
      </trkpt>
      <trkpt lat="44.71381" lon="7.02198">
        <ele>2019</ele>
        <time>2022-07-12T08:16:59Z</time>
      </trkpt>
      <trkpt lat="44.71363" lon="7.02204">
        <ele>2021</ele>
        <time>2022-07-12T08:17:15Z</time>
      </trkpt>
      <trkpt lat="44.71336" lon="7.02205">
        <ele>2022</ele>
        <time>2022-07-12T08:17:39Z</time>
      </trkpt>
      <trkpt lat="44.71317" lon="7.02208">
        <ele>2025</ele>
        <time>2022-07-12T08:17:56Z</time>
      </trkpt>
      <trkpt lat="44.71308" lon="7.02209">
        <ele>2026</ele>
        <time>2022-07-12T08:18:05Z</time>
      </trkpt>
      <trkpt lat="44.71292" lon="7.02222">
        <ele>2027</ele>
        <time>2022-07-12T08:18:23Z</time>
      </trkpt>
      <trkpt lat="44.71283" lon="7.02239">
        <ele>2027</ele>
        <time>2022-07-12T08:18:36Z</time>
      </trkpt>
      <trkpt lat="44.71263" lon="7.02284">
        <ele>2027</ele>
        <time>2022-07-12T08:19:06Z</time>
      </trkpt>
      <trkpt lat="44.71255" lon="7.02303">
        <ele>2027</ele>
        <time>2022-07-12T08:19:20Z</time>
      </trkpt>
      <trkpt lat="44.71235" lon="7.02345">
        <ele>2030</ele>
        <time>2022-07-12T08:19:55Z</time>
      </trkpt>
      <trkpt lat="44.71213" lon="7.02388">
        <ele>2031</ele>
        <time>2022-07-12T08:20:27Z</time>
      </trkpt>
      <trkpt lat="44.71206" lon="7.02412">
        <ele>2033</ele>
        <time>2022-07-12T08:20:45Z</time>
      </trkpt>
      <trkpt lat="44.71194" lon="7.02463">
        <ele>2036</ele>
        <time>2022-07-12T08:21:19Z</time>
      </trkpt>
      <trkpt lat="44.71188" lon="7.02514">
        <ele>2028</ele>
        <time>2022-07-12T08:21:52Z</time>
      </trkpt>
      <trkpt lat="44.71184" lon="7.02526">
        <ele>2027</ele>
        <time>2022-07-12T08:22:01Z</time>
      </trkpt>
      <trkpt lat="44.7118" lon="7.02538">
        <ele>2028</ele>
        <time>2022-07-12T08:22:11Z</time>
      </trkpt>
      <trkpt lat="44.71173" lon="7.02546">
        <ele>2027</ele>
        <time>2022-07-12T08:22:21Z</time>
      </trkpt>
      <trkpt lat="44.71164" lon="7.0255">
        <ele>2026</ele>
        <time>2022-07-12T08:22:30Z</time>
      </trkpt>
      <trkpt lat="44.71155" lon="7.02554">
        <ele>2025</ele>
        <time>2022-07-12T08:22:38Z</time>
      </trkpt>
      <trkpt lat="44.71147" lon="7.02557">
        <ele>2026</ele>
        <time>2022-07-12T08:22:46Z</time>
      </trkpt>
      <trkpt lat="44.71126" lon="7.02567">
        <ele>2035</ele>
        <time>2022-07-12T08:23:03Z</time>
      </trkpt>
      <trkpt lat="44.71121" lon="7.02574">
        <ele>2039</ele>
        <time>2022-07-12T08:23:09Z</time>
      </trkpt>
      <trkpt lat="44.71119" lon="7.02579">
        <ele>2042</ele>
        <time>2022-07-12T08:23:13Z</time>
      </trkpt>
      <trkpt lat="44.71107" lon="7.02583">
        <ele>2042</ele>
        <time>2022-07-12T08:23:24Z</time>
      </trkpt>
      <trkpt lat="44.71107" lon="7.02588">
        <ele>2041</ele>
        <time>2022-07-12T08:23:29Z</time>
      </trkpt>
      <trkpt lat="44.71104" lon="7.02591">
        <ele>2037</ele>
        <time>2022-07-12T08:23:33Z</time>
      </trkpt>
      <trkpt lat="44.71101" lon="7.02594">
        <ele>2038</ele>
        <time>2022-07-12T08:23:38Z</time>
      </trkpt>
      <trkpt lat="44.71095" lon="7.02601">
        <ele>2038</ele>
        <time>2022-07-12T08:23:48Z</time>
      </trkpt>
      <trkpt lat="44.71092" lon="7.02605">
        <ele>2038</ele>
        <time>2022-07-12T08:23:54Z</time>
      </trkpt>
      <trkpt lat="44.71089" lon="7.02617">
        <ele>2037</ele>
        <time>2022-07-12T08:24:07Z</time>
      </trkpt>
      <trkpt lat="44.71079" lon="7.02617">
        <ele>2040</ele>
        <time>2022-07-12T08:24:25Z</time>
      </trkpt>
      <trkpt lat="44.7107" lon="7.02617">
        <ele>2051</ele>
        <time>2022-07-12T08:24:46Z</time>
      </trkpt>
      <trkpt lat="44.71063" lon="7.02625">
        <ele>2052</ele>
        <time>2022-07-12T08:24:58Z</time>
      </trkpt>
      <trkpt lat="44.71057" lon="7.02634">
        <ele>2061</ele>
        <time>2022-07-12T08:25:11Z</time>
      </trkpt>
      <trkpt lat="44.71056" lon="7.02648">
        <ele>2063</ele>
        <time>2022-07-12T08:25:33Z</time>
      </trkpt>
      <trkpt lat="44.71049" lon="7.02657">
        <ele>2059</ele>
        <time>2022-07-12T08:25:46Z</time>
      </trkpt>
      <trkpt lat="44.71043" lon="7.02666">
        <ele>2061</ele>
        <time>2022-07-12T08:26:01Z</time>
      </trkpt>
      <trkpt lat="44.71034" lon="7.02689">
        <ele>2065</ele>
        <time>2022-07-12T08:26:29Z</time>
      </trkpt>
      <trkpt lat="44.71027" lon="7.02696">
        <ele>2068</ele>
        <time>2022-07-12T08:26:41Z</time>
      </trkpt>
      <trkpt lat="44.71024" lon="7.02709">
        <ele>2070</ele>
        <time>2022-07-12T08:26:58Z</time>
      </trkpt>
      <trkpt lat="44.71016" lon="7.02716">
        <ele>2075</ele>
        <time>2022-07-12T08:27:13Z</time>
      </trkpt>
      <trkpt lat="44.71007" lon="7.02721">
        <ele>2075</ele>
        <time>2022-07-12T08:27:23Z</time>
      </trkpt>
      <trkpt lat="44.71001" lon="7.02731">
        <ele>2073</ele>
        <time>2022-07-12T08:27:32Z</time>
      </trkpt>
      <trkpt lat="44.70985" lon="7.02745">
        <ele>2072</ele>
        <time>2022-07-12T08:27:53Z</time>
      </trkpt>
      <trkpt lat="44.70979" lon="7.02755">
        <ele>2073</ele>
        <time>2022-07-12T08:28:02Z</time>
      </trkpt>
      <trkpt lat="44.70974" lon="7.02766">
        <ele>2076</ele>
        <time>2022-07-12T08:28:13Z</time>
      </trkpt>
      <trkpt lat="44.70969" lon="7.02778">
        <ele>2078</ele>
        <time>2022-07-12T08:28:24Z</time>
      </trkpt>
      <trkpt lat="44.70965" lon="7.0279">
        <ele>2083</ele>
        <time>2022-07-12T08:28:36Z</time>
      </trkpt>
      <trkpt lat="44.70957" lon="7.02799">
        <ele>2083</ele>
        <time>2022-07-12T08:28:45Z</time>
      </trkpt>
      <trkpt lat="44.70951" lon="7.02807">
        <ele>2084</ele>
        <time>2022-07-12T08:28:54Z</time>
      </trkpt>
      <trkpt lat="44.70942" lon="7.02812">
        <ele>2085</ele>
        <time>2022-07-12T08:29:03Z</time>
      </trkpt>
      <trkpt lat="44.70922" lon="7.02855">
        <ele>2085</ele>
        <time>2022-07-12T08:29:44Z</time>
      </trkpt>
      <trkpt lat="44.70917" lon="7.02866">
        <ele>2080</ele>
        <time>2022-07-12T08:29:58Z</time>
      </trkpt>
      <trkpt lat="44.70924" lon="7.02875">
        <ele>2081</ele>
        <time>2022-07-12T08:30:20Z</time>
      </trkpt>
      <trkpt lat="44.70917" lon="7.02882">
        <ele>2085</ele>
        <time>2022-07-12T08:30:40Z</time>
      </trkpt>
      <trkpt lat="44.70914" lon="7.02894">
        <ele>2087</ele>
        <time>2022-07-12T08:31:12Z</time>
      </trkpt>
      <trkpt lat="44.70918" lon="7.029">
        <ele>2098</ele>
        <time>2022-07-12T08:31:44Z</time>
      </trkpt>
      <trkpt lat="44.70909" lon="7.02937">
        <ele>2110</ele>
        <time>2022-07-12T08:32:37Z</time>
      </trkpt>
      <trkpt lat="44.70907" lon="7.0295">
        <ele>2110</ele>
        <time>2022-07-12T08:32:52Z</time>
      </trkpt>
      <trkpt lat="44.70899" lon="7.02973">
        <ele>2111</ele>
        <time>2022-07-12T08:33:15Z</time>
      </trkpt>
      <trkpt lat="44.70891" lon="7.02996">
        <ele>2117</ele>
        <time>2022-07-12T08:33:39Z</time>
      </trkpt>
      <trkpt lat="44.70885" lon="7.03034">
        <ele>2122</ele>
        <time>2022-07-12T08:34:20Z</time>
      </trkpt>
      <trkpt lat="44.70884" lon="7.03047">
        <ele>2128</ele>
        <time>2022-07-12T08:34:36Z</time>
      </trkpt>
      <trkpt lat="44.70882" lon="7.0306">
        <ele>2132</ele>
        <time>2022-07-12T08:34:51Z</time>
      </trkpt>
      <trkpt lat="44.70882" lon="7.03073">
        <ele>2136</ele>
        <time>2022-07-12T08:35:11Z</time>
      </trkpt>
      <trkpt lat="44.70884" lon="7.03086">
        <ele>2141</ele>
        <time>2022-07-12T08:35:29Z</time>
      </trkpt>
      <trkpt lat="44.70887" lon="7.03096">
        <ele>2143</ele>
        <time>2022-07-12T08:35:46Z</time>
      </trkpt>
      <trkpt lat="44.70888" lon="7.03101">
        <ele>2144</ele>
        <time>2022-07-12T08:35:52Z</time>
      </trkpt>
      <trkpt lat="44.70889" lon="7.03106">
        <ele>2146</ele>
        <time>2022-07-12T08:35:59Z</time>
      </trkpt>
      <trkpt lat="44.70893" lon="7.03108">
        <ele>2147</ele>
        <time>2022-07-12T08:36:06Z</time>
      </trkpt>
      <trkpt lat="44.7089" lon="7.03117">
        <ele>2148</ele>
        <time>2022-07-12T08:36:16Z</time>
      </trkpt>
      <trkpt lat="44.7089" lon="7.03132">
        <ele>2149</ele>
        <time>2022-07-12T08:36:35Z</time>
      </trkpt>
      <trkpt lat="44.7089" lon="7.03143">
        <ele>2151</ele>
        <time>2022-07-12T08:36:51Z</time>
      </trkpt>
      <trkpt lat="44.70901" lon="7.03148">
        <ele>2151</ele>
        <time>2022-07-12T08:37:09Z</time>
      </trkpt>
      <trkpt lat="44.70905" lon="7.03148">
        <ele>2151</ele>
        <time>2022-07-12T08:37:13Z</time>
      </trkpt>
      <trkpt lat="44.7091" lon="7.03148">
        <ele>2151</ele>
        <time>2022-07-12T08:37:17Z</time>
      </trkpt>
      <trkpt lat="44.70913" lon="7.03146">
        <ele>2151</ele>
        <time>2022-07-12T08:37:21Z</time>
      </trkpt>
      <trkpt lat="44.70917" lon="7.03145">
        <ele>2151</ele>
        <time>2022-07-12T08:37:26Z</time>
      </trkpt>
      <trkpt lat="44.7092" lon="7.03149">
        <ele>2153</ele>
        <time>2022-07-12T08:37:32Z</time>
      </trkpt>
      <trkpt lat="44.70921" lon="7.03153">
        <ele>2155</ele>
        <time>2022-07-12T08:37:38Z</time>
      </trkpt>
      <trkpt lat="44.70921" lon="7.03158">
        <ele>2158</ele>
        <time>2022-07-12T08:37:45Z</time>
      </trkpt>
      <trkpt lat="44.70921" lon="7.03169">
        <ele>2158</ele>
        <time>2022-07-12T08:38:00Z</time>
      </trkpt>
      <trkpt lat="44.70918" lon="7.03179">
        <ele>2160</ele>
        <time>2022-07-12T08:38:14Z</time>
      </trkpt>
      <trkpt lat="44.70917" lon="7.03183">
        <ele>2160</ele>
        <time>2022-07-12T08:38:19Z</time>
      </trkpt>
      <trkpt lat="44.70911" lon="7.0319">
        <ele>2160</ele>
        <time>2022-07-12T08:38:29Z</time>
      </trkpt>
      <trkpt lat="44.70908" lon="7.03195">
        <ele>2161</ele>
        <time>2022-07-12T08:38:34Z</time>
      </trkpt>
      <trkpt lat="44.70905" lon="7.03203">
        <ele>2162</ele>
        <time>2022-07-12T08:38:42Z</time>
      </trkpt>
      <trkpt lat="44.70901" lon="7.03213">
        <ele>2164</ele>
        <time>2022-07-12T08:38:51Z</time>
      </trkpt>
      <trkpt lat="44.709" lon="7.03218">
        <ele>2165</ele>
        <time>2022-07-12T08:38:56Z</time>
      </trkpt>
      <trkpt lat="44.70898" lon="7.03222">
        <ele>2165</ele>
        <time>2022-07-12T08:39:01Z</time>
      </trkpt>
      <trkpt lat="44.70893" lon="7.03229">
        <ele>2167</ele>
        <time>2022-07-12T08:39:18Z</time>
      </trkpt>
      <trkpt lat="44.70895" lon="7.03233">
        <ele>2168</ele>
        <time>2022-07-12T08:39:23Z</time>
      </trkpt>
      <trkpt lat="44.70902" lon="7.03227">
        <ele>2168</ele>
        <time>2022-07-12T08:39:32Z</time>
      </trkpt>
      <trkpt lat="44.70906" lon="7.03229">
        <ele>2171</ele>
        <time>2022-07-12T08:39:36Z</time>
      </trkpt>
      <trkpt lat="44.70909" lon="7.03227">
        <ele>2171</ele>
        <time>2022-07-12T08:39:41Z</time>
      </trkpt>
      <trkpt lat="44.70913" lon="7.03228">
        <ele>2173</ele>
        <time>2022-07-12T08:39:45Z</time>
      </trkpt>
      <trkpt lat="44.70915" lon="7.03232">
        <ele>2174</ele>
        <time>2022-07-12T08:39:49Z</time>
      </trkpt>
      <trkpt lat="44.70906" lon="7.03256">
        <ele>2180</ele>
        <time>2022-07-12T08:40:13Z</time>
      </trkpt>
      <trkpt lat="44.70903" lon="7.03261">
        <ele>2181</ele>
        <time>2022-07-12T08:40:18Z</time>
      </trkpt>
      <trkpt lat="44.70902" lon="7.03266">
        <ele>2181</ele>
        <time>2022-07-12T08:40:24Z</time>
      </trkpt>
      <trkpt lat="44.70897" lon="7.0328">
        <ele>2184</ele>
        <time>2022-07-12T08:40:39Z</time>
      </trkpt>
      <trkpt lat="44.70895" lon="7.03284">
        <ele>2185</ele>
        <time>2022-07-12T08:40:44Z</time>
      </trkpt>
      <trkpt lat="44.70888" lon="7.03287">
        <ele>2185</ele>
        <time>2022-07-12T08:41:06Z</time>
      </trkpt>
      <trkpt lat="44.70885" lon="7.03289">
        <ele>2184</ele>
        <time>2022-07-12T08:41:11Z</time>
      </trkpt>
      <trkpt lat="44.70882" lon="7.03291">
        <ele>2184</ele>
        <time>2022-07-12T08:41:19Z</time>
      </trkpt>
      <trkpt lat="44.7088" lon="7.03296">
        <ele>2183</ele>
        <time>2022-07-12T08:41:26Z</time>
      </trkpt>
      <trkpt lat="44.70879" lon="7.03301">
        <ele>2181</ele>
        <time>2022-07-12T08:41:30Z</time>
      </trkpt>
      <trkpt lat="44.70873" lon="7.03315">
        <ele>2179</ele>
        <time>2022-07-12T08:41:43Z</time>
      </trkpt>
      <trkpt lat="44.70869" lon="7.03319">
        <ele>2179</ele>
        <time>2022-07-12T08:41:48Z</time>
      </trkpt>
      <trkpt lat="44.70866" lon="7.03321">
        <ele>2177</ele>
        <time>2022-07-12T08:41:52Z</time>
      </trkpt>
      <trkpt lat="44.70839" lon="7.03346">
        <ele>2170</ele>
        <time>2022-07-12T08:42:24Z</time>
      </trkpt>
      <trkpt lat="44.70836" lon="7.03348">
        <ele>2169</ele>
        <time>2022-07-12T08:42:28Z</time>
      </trkpt>
      <trkpt lat="44.70832" lon="7.03348">
        <ele>2169</ele>
        <time>2022-07-12T08:42:32Z</time>
      </trkpt>
      <trkpt lat="44.70828" lon="7.03348">
        <ele>2167</ele>
        <time>2022-07-12T08:42:36Z</time>
      </trkpt>
      <trkpt lat="44.70825" lon="7.0335">
        <ele>2167</ele>
        <time>2022-07-12T08:42:42Z</time>
      </trkpt>
      <trkpt lat="44.70808" lon="7.03387">
        <ele>2165</ele>
        <time>2022-07-12T08:43:13Z</time>
      </trkpt>
      <trkpt lat="44.70807" lon="7.03393">
        <ele>2164</ele>
        <time>2022-07-12T08:43:17Z</time>
      </trkpt>
      <trkpt lat="44.7079" lon="7.03436">
        <ele>2164</ele>
        <time>2022-07-12T08:43:51Z</time>
      </trkpt>
      <trkpt lat="44.70788" lon="7.03441">
        <ele>2164</ele>
        <time>2022-07-12T08:43:55Z</time>
      </trkpt>
      <trkpt lat="44.70783" lon="7.03455">
        <ele>2165</ele>
        <time>2022-07-12T08:44:08Z</time>
      </trkpt>
      <trkpt lat="44.70781" lon="7.0346">
        <ele>2165</ele>
        <time>2022-07-12T08:44:12Z</time>
      </trkpt>
      <trkpt lat="44.7078" lon="7.03464">
        <ele>2164</ele>
        <time>2022-07-12T08:44:15Z</time>
      </trkpt>
      <trkpt lat="44.70777" lon="7.03467">
        <ele>2163</ele>
        <time>2022-07-12T08:44:18Z</time>
      </trkpt>
      <trkpt lat="44.70774" lon="7.0347">
        <ele>2163</ele>
        <time>2022-07-12T08:44:21Z</time>
      </trkpt>
      <trkpt lat="44.70768" lon="7.03485">
        <ele>2163</ele>
        <time>2022-07-12T08:44:31Z</time>
      </trkpt>
      <trkpt lat="44.70757" lon="7.03508">
        <ele>2162</ele>
        <time>2022-07-12T08:44:51Z</time>
      </trkpt>
      <trkpt lat="44.70744" lon="7.0355">
        <ele>2162</ele>
        <time>2022-07-12T08:45:23Z</time>
      </trkpt>
      <trkpt lat="44.70741" lon="7.03559">
        <ele>2161</ele>
        <time>2022-07-12T08:45:30Z</time>
      </trkpt>
      <trkpt lat="44.70735" lon="7.03608">
        <ele>2160</ele>
        <time>2022-07-12T08:46:03Z</time>
      </trkpt>
      <trkpt lat="44.70734" lon="7.03624">
        <ele>2159</ele>
        <time>2022-07-12T08:46:14Z</time>
      </trkpt>
      <trkpt lat="44.70733" lon="7.03635">
        <ele>2159</ele>
        <time>2022-07-12T08:46:22Z</time>
      </trkpt>
      <trkpt lat="44.70732" lon="7.03641">
        <ele>2158</ele>
        <time>2022-07-12T08:46:26Z</time>
      </trkpt>
      <trkpt lat="44.70729" lon="7.03652">
        <ele>2157</ele>
        <time>2022-07-12T08:46:34Z</time>
      </trkpt>
      <trkpt lat="44.70729" lon="7.03657">
        <ele>2157</ele>
        <time>2022-07-12T08:46:37Z</time>
      </trkpt>
      <trkpt lat="44.70729" lon="7.03662">
        <ele>2156</ele>
        <time>2022-07-12T08:46:40Z</time>
      </trkpt>
      <trkpt lat="44.70719" lon="7.03679">
        <ele>2156</ele>
        <time>2022-07-12T08:46:55Z</time>
      </trkpt>
      <trkpt lat="44.70714" lon="7.03706">
        <ele>2155</ele>
        <time>2022-07-12T08:47:14Z</time>
      </trkpt>
      <trkpt lat="44.7071" lon="7.03728">
        <ele>2157</ele>
        <time>2022-07-12T08:47:30Z</time>
      </trkpt>
      <trkpt lat="44.70703" lon="7.0374">
        <ele>2159</ele>
        <time>2022-07-12T08:47:42Z</time>
      </trkpt>
      <trkpt lat="44.707" lon="7.03742">
        <ele>2161</ele>
        <time>2022-07-12T08:47:46Z</time>
      </trkpt>
      <trkpt lat="44.70681" lon="7.03761">
        <ele>2162</ele>
        <time>2022-07-12T08:48:11Z</time>
      </trkpt>
      <trkpt lat="44.70678" lon="7.03762">
        <ele>2162</ele>
        <time>2022-07-12T08:48:15Z</time>
      </trkpt>
      <trkpt lat="44.70674" lon="7.03764">
        <ele>2162</ele>
        <time>2022-07-12T08:48:19Z</time>
      </trkpt>
      <trkpt lat="44.70667" lon="7.03768">
        <ele>2162</ele>
        <time>2022-07-12T08:48:28Z</time>
      </trkpt>
      <trkpt lat="44.70663" lon="7.03769">
        <ele>2163</ele>
        <time>2022-07-12T08:48:34Z</time>
      </trkpt>
      <trkpt lat="44.7066" lon="7.03771">
        <ele>2162</ele>
        <time>2022-07-12T08:48:38Z</time>
      </trkpt>
      <trkpt lat="44.70657" lon="7.03776">
        <ele>2162</ele>
        <time>2022-07-12T08:48:43Z</time>
      </trkpt>
      <trkpt lat="44.7065" lon="7.0378">
        <ele>2161</ele>
        <time>2022-07-12T08:48:51Z</time>
      </trkpt>
      <trkpt lat="44.70634" lon="7.03783">
        <ele>2158</ele>
        <time>2022-07-12T08:49:08Z</time>
      </trkpt>
      <trkpt lat="44.7063" lon="7.03783">
        <ele>2159</ele>
        <time>2022-07-12T08:49:12Z</time>
      </trkpt>
      <trkpt lat="44.70619" lon="7.03777">
        <ele>2160</ele>
        <time>2022-07-12T08:49:24Z</time>
      </trkpt>
      <trkpt lat="44.70615" lon="7.03778">
        <ele>2160</ele>
        <time>2022-07-12T08:49:29Z</time>
      </trkpt>
      <trkpt lat="44.70612" lon="7.0378">
        <ele>2160</ele>
        <time>2022-07-12T08:49:33Z</time>
      </trkpt>
      <trkpt lat="44.70609" lon="7.03782">
        <ele>2160</ele>
        <time>2022-07-12T08:49:38Z</time>
      </trkpt>
      <trkpt lat="44.70607" lon="7.03787">
        <ele>2159</ele>
        <time>2022-07-12T08:49:44Z</time>
      </trkpt>
      <trkpt lat="44.70603" lon="7.03786">
        <ele>2159</ele>
        <time>2022-07-12T08:50:13Z</time>
      </trkpt>
      <trkpt lat="44.70573" lon="7.03809">
        <ele>2160</ele>
        <time>2022-07-12T08:50:43Z</time>
      </trkpt>
      <trkpt lat="44.70556" lon="7.0382">
        <ele>2161</ele>
        <time>2022-07-12T08:50:59Z</time>
      </trkpt>
      <trkpt lat="44.70541" lon="7.03837">
        <ele>2161</ele>
        <time>2022-07-12T08:51:15Z</time>
      </trkpt>
      <trkpt lat="44.70527" lon="7.03855">
        <ele>2163</ele>
        <time>2022-07-12T08:51:31Z</time>
      </trkpt>
      <trkpt lat="44.70524" lon="7.03858">
        <ele>2163</ele>
        <time>2022-07-12T08:51:34Z</time>
      </trkpt>
      <trkpt lat="44.70516" lon="7.03871">
        <ele>2164</ele>
        <time>2022-07-12T08:51:45Z</time>
      </trkpt>
      <trkpt lat="44.70514" lon="7.03876">
        <ele>2165</ele>
        <time>2022-07-12T08:51:49Z</time>
      </trkpt>
      <trkpt lat="44.70499" lon="7.03908">
        <ele>2168</ele>
        <time>2022-07-12T08:52:22Z</time>
      </trkpt>
      <trkpt lat="44.70495" lon="7.03917">
        <ele>2169</ele>
        <time>2022-07-12T08:52:31Z</time>
      </trkpt>
      <trkpt lat="44.70495" lon="7.03923">
        <ele>2169</ele>
        <time>2022-07-12T08:52:36Z</time>
      </trkpt>
      <trkpt lat="44.70492" lon="7.03927">
        <ele>2169</ele>
        <time>2022-07-12T08:52:41Z</time>
      </trkpt>
      <trkpt lat="44.70489" lon="7.03931">
        <ele>2169</ele>
        <time>2022-07-12T08:52:45Z</time>
      </trkpt>
      <trkpt lat="44.70487" lon="7.03935">
        <ele>2169</ele>
        <time>2022-07-12T08:52:49Z</time>
      </trkpt>
      <trkpt lat="44.70486" lon="7.03951">
        <ele>2169</ele>
        <time>2022-07-12T08:53:01Z</time>
      </trkpt>
      <trkpt lat="44.70487" lon="7.03957">
        <ele>2169</ele>
        <time>2022-07-12T08:53:05Z</time>
      </trkpt>
      <trkpt lat="44.70484" lon="7.03962">
        <ele>2169</ele>
        <time>2022-07-12T08:53:10Z</time>
      </trkpt>
      <trkpt lat="44.70478" lon="7.03966">
        <ele>2170</ele>
        <time>2022-07-12T08:53:36Z</time>
      </trkpt>
      <trkpt lat="44.70474" lon="7.03969">
        <ele>2171</ele>
        <time>2022-07-12T08:53:40Z</time>
      </trkpt>
      <trkpt lat="44.7047" lon="7.03972">
        <ele>2171</ele>
        <time>2022-07-12T08:53:44Z</time>
      </trkpt>
      <trkpt lat="44.70467" lon="7.03974">
        <ele>2171</ele>
        <time>2022-07-12T08:53:49Z</time>
      </trkpt>
      <trkpt lat="44.70463" lon="7.03977">
        <ele>2172</ele>
        <time>2022-07-12T08:53:54Z</time>
      </trkpt>
      <trkpt lat="44.70457" lon="7.03983">
        <ele>2172</ele>
        <time>2022-07-12T08:54:02Z</time>
      </trkpt>
      <trkpt lat="44.70449" lon="7.03985">
        <ele>2173</ele>
        <time>2022-07-12T08:54:10Z</time>
      </trkpt>
      <trkpt lat="44.70447" lon="7.03989">
        <ele>2173</ele>
        <time>2022-07-12T08:54:14Z</time>
      </trkpt>
      <trkpt lat="44.70444" lon="7.03993">
        <ele>2172</ele>
        <time>2022-07-12T08:54:18Z</time>
      </trkpt>
      <trkpt lat="44.7044" lon="7.04002">
        <ele>2171</ele>
        <time>2022-07-12T08:54:26Z</time>
      </trkpt>
      <trkpt lat="44.70431" lon="7.0401">
        <ele>2171</ele>
        <time>2022-07-12T08:54:38Z</time>
      </trkpt>
      <trkpt lat="44.70427" lon="7.04012">
        <ele>2171</ele>
        <time>2022-07-12T08:54:42Z</time>
      </trkpt>
      <trkpt lat="44.70424" lon="7.0401">
        <ele>2171</ele>
        <time>2022-07-12T08:54:46Z</time>
      </trkpt>
      <trkpt lat="44.7042" lon="7.04012">
        <ele>2171</ele>
        <time>2022-07-12T08:54:50Z</time>
      </trkpt>
      <trkpt lat="44.70408" lon="7.04019">
        <ele>2170</ele>
        <time>2022-07-12T08:55:02Z</time>
      </trkpt>
      <trkpt lat="44.70405" lon="7.04021">
        <ele>2170</ele>
        <time>2022-07-12T08:55:06Z</time>
      </trkpt>
      <trkpt lat="44.70388" lon="7.04037">
        <ele>2168</ele>
        <time>2022-07-12T08:55:26Z</time>
      </trkpt>
      <trkpt lat="44.70385" lon="7.04039">
        <ele>2168</ele>
        <time>2022-07-12T08:55:30Z</time>
      </trkpt>
      <trkpt lat="44.70363" lon="7.04058">
        <ele>2168</ele>
        <time>2022-07-12T08:55:54Z</time>
      </trkpt>
      <trkpt lat="44.7036" lon="7.04062">
        <ele>2168</ele>
        <time>2022-07-12T08:55:58Z</time>
      </trkpt>
      <trkpt lat="44.70335" lon="7.04087">
        <ele>2168</ele>
        <time>2022-07-12T08:56:29Z</time>
      </trkpt>
      <trkpt lat="44.70331" lon="7.0409">
        <ele>2169</ele>
        <time>2022-07-12T08:56:33Z</time>
      </trkpt>
      <trkpt lat="44.70328" lon="7.04092">
        <ele>2169</ele>
        <time>2022-07-12T08:56:37Z</time>
      </trkpt>
      <trkpt lat="44.70325" lon="7.04093">
        <ele>2170</ele>
        <time>2022-07-12T08:56:41Z</time>
      </trkpt>
      <trkpt lat="44.70323" lon="7.04097">
        <ele>2169</ele>
        <time>2022-07-12T08:56:45Z</time>
      </trkpt>
      <trkpt lat="44.70319" lon="7.04098">
        <ele>2169</ele>
        <time>2022-07-12T08:56:49Z</time>
      </trkpt>
      <trkpt lat="44.70315" lon="7.041">
        <ele>2169</ele>
        <time>2022-07-12T08:56:53Z</time>
      </trkpt>
      <trkpt lat="44.70311" lon="7.04102">
        <ele>2168</ele>
        <time>2022-07-12T08:56:57Z</time>
      </trkpt>
      <trkpt lat="44.70309" lon="7.04106">
        <ele>2168</ele>
        <time>2022-07-12T08:57:01Z</time>
      </trkpt>
      <trkpt lat="44.70302" lon="7.04111">
        <ele>2167</ele>
        <time>2022-07-12T08:57:09Z</time>
      </trkpt>
      <trkpt lat="44.70287" lon="7.0412">
        <ele>2167</ele>
        <time>2022-07-12T08:57:26Z</time>
      </trkpt>
      <trkpt lat="44.7027" lon="7.04133">
        <ele>2168</ele>
        <time>2022-07-12T08:57:46Z</time>
      </trkpt>
      <trkpt lat="44.70266" lon="7.04134">
        <ele>2168</ele>
        <time>2022-07-12T08:57:50Z</time>
      </trkpt>
      <trkpt lat="44.70262" lon="7.04134">
        <ele>2168</ele>
        <time>2022-07-12T08:57:54Z</time>
      </trkpt>
      <trkpt lat="44.70258" lon="7.04134">
        <ele>2168</ele>
        <time>2022-07-12T08:57:58Z</time>
      </trkpt>
      <trkpt lat="44.70243" lon="7.04142">
        <ele>2168</ele>
        <time>2022-07-12T08:58:14Z</time>
      </trkpt>
      <trkpt lat="44.70233" lon="7.04146">
        <ele>2170</ele>
        <time>2022-07-12T08:58:26Z</time>
      </trkpt>
      <trkpt lat="44.70229" lon="7.04148">
        <ele>2170</ele>
        <time>2022-07-12T08:58:31Z</time>
      </trkpt>
      <trkpt lat="44.70221" lon="7.04151">
        <ele>2170</ele>
        <time>2022-07-12T08:58:39Z</time>
      </trkpt>
      <trkpt lat="44.70213" lon="7.04152">
        <ele>2170</ele>
        <time>2022-07-12T08:58:47Z</time>
      </trkpt>
      <trkpt lat="44.70201" lon="7.04156">
        <ele>2171</ele>
        <time>2022-07-12T08:58:59Z</time>
      </trkpt>
      <trkpt lat="44.70197" lon="7.04157">
        <ele>2172</ele>
        <time>2022-07-12T08:59:03Z</time>
      </trkpt>
      <trkpt lat="44.70175" lon="7.04167">
        <ele>2175</ele>
        <time>2022-07-12T08:59:31Z</time>
      </trkpt>
      <trkpt lat="44.70171" lon="7.04167">
        <ele>2176</ele>
        <time>2022-07-12T08:59:35Z</time>
      </trkpt>
      <trkpt lat="44.70164" lon="7.04171">
        <ele>2177</ele>
        <time>2022-07-12T08:59:45Z</time>
      </trkpt>
      <trkpt lat="44.7016" lon="7.04173">
        <ele>2177</ele>
        <time>2022-07-12T08:59:50Z</time>
      </trkpt>
      <trkpt lat="44.70156" lon="7.04175">
        <ele>2177</ele>
        <time>2022-07-12T08:59:54Z</time>
      </trkpt>
      <trkpt lat="44.70151" lon="7.04175">
        <ele>2177</ele>
        <time>2022-07-12T08:59:59Z</time>
      </trkpt>
      <trkpt lat="44.70148" lon="7.04176">
        <ele>2177</ele>
        <time>2022-07-12T09:00:04Z</time>
      </trkpt>
      <trkpt lat="44.70137" lon="7.04181">
        <ele>2179</ele>
        <time>2022-07-12T09:00:18Z</time>
      </trkpt>
      <trkpt lat="44.70134" lon="7.04182">
        <ele>2179</ele>
        <time>2022-07-12T09:00:22Z</time>
      </trkpt>
      <trkpt lat="44.70131" lon="7.04184">
        <ele>2179</ele>
        <time>2022-07-12T09:00:26Z</time>
      </trkpt>
      <trkpt lat="44.70127" lon="7.04185">
        <ele>2180</ele>
        <time>2022-07-12T09:00:30Z</time>
      </trkpt>
      <trkpt lat="44.70124" lon="7.04187">
        <ele>2180</ele>
        <time>2022-07-12T09:00:34Z</time>
      </trkpt>
      <trkpt lat="44.70117" lon="7.0419">
        <ele>2180</ele>
        <time>2022-07-12T09:00:42Z</time>
      </trkpt>
      <trkpt lat="44.70114" lon="7.04193">
        <ele>2180</ele>
        <time>2022-07-12T09:00:46Z</time>
      </trkpt>
      <trkpt lat="44.70112" lon="7.04198">
        <ele>2181</ele>
        <time>2022-07-12T09:00:52Z</time>
      </trkpt>
      <trkpt lat="44.7011" lon="7.04201">
        <ele>2182</ele>
        <time>2022-07-12T09:00:57Z</time>
      </trkpt>
      <trkpt lat="44.70106" lon="7.04203">
        <ele>2183</ele>
        <time>2022-07-12T09:01:01Z</time>
      </trkpt>
      <trkpt lat="44.701" lon="7.04208">
        <ele>2184</ele>
        <time>2022-07-12T09:01:09Z</time>
      </trkpt>
      <trkpt lat="44.70094" lon="7.04215">
        <ele>2185</ele>
        <time>2022-07-12T09:01:18Z</time>
      </trkpt>
      <trkpt lat="44.7008" lon="7.04223">
        <ele>2185</ele>
        <time>2022-07-12T09:01:34Z</time>
      </trkpt>
      <trkpt lat="44.70076" lon="7.04226">
        <ele>2186</ele>
        <time>2022-07-12T09:01:39Z</time>
      </trkpt>
      <trkpt lat="44.70074" lon="7.0423">
        <ele>2187</ele>
        <time>2022-07-12T09:01:44Z</time>
      </trkpt>
      <trkpt lat="44.7007" lon="7.04233">
        <ele>2188</ele>
        <time>2022-07-12T09:01:48Z</time>
      </trkpt>
      <trkpt lat="44.70067" lon="7.04236">
        <ele>2188</ele>
        <time>2022-07-12T09:01:52Z</time>
      </trkpt>
      <trkpt lat="44.70065" lon="7.04239">
        <ele>2188</ele>
        <time>2022-07-12T09:01:56Z</time>
      </trkpt>
      <trkpt lat="44.70057" lon="7.04244">
        <ele>2188</ele>
        <time>2022-07-12T09:02:04Z</time>
      </trkpt>
      <trkpt lat="44.70054" lon="7.04246">
        <ele>2188</ele>
        <time>2022-07-12T09:02:08Z</time>
      </trkpt>
      <trkpt lat="44.70042" lon="7.04252">
        <ele>2188</ele>
        <time>2022-07-12T09:02:22Z</time>
      </trkpt>
      <trkpt lat="44.70039" lon="7.04253">
        <ele>2188</ele>
        <time>2022-07-12T09:02:26Z</time>
      </trkpt>
      <trkpt lat="44.70035" lon="7.04254">
        <ele>2188</ele>
        <time>2022-07-12T09:02:30Z</time>
      </trkpt>
      <trkpt lat="44.70032" lon="7.04255">
        <ele>2189</ele>
        <time>2022-07-12T09:02:34Z</time>
      </trkpt>
      <trkpt lat="44.70029" lon="7.04256">
        <ele>2190</ele>
        <time>2022-07-12T09:02:38Z</time>
      </trkpt>
      <trkpt lat="44.70007" lon="7.04276">
        <ele>2191</ele>
        <time>2022-07-12T09:03:06Z</time>
      </trkpt>
      <trkpt lat="44.70004" lon="7.04279">
        <ele>2191</ele>
        <time>2022-07-12T09:03:10Z</time>
      </trkpt>
      <trkpt lat="44.70001" lon="7.04282">
        <ele>2191</ele>
        <time>2022-07-12T09:03:15Z</time>
      </trkpt>
      <trkpt lat="44.69997" lon="7.04284">
        <ele>2192</ele>
        <time>2022-07-12T09:03:19Z</time>
      </trkpt>
      <trkpt lat="44.69993" lon="7.04284">
        <ele>2192</ele>
        <time>2022-07-12T09:03:23Z</time>
      </trkpt>
      <trkpt lat="44.69985" lon="7.04286">
        <ele>2192</ele>
        <time>2022-07-12T09:03:31Z</time>
      </trkpt>
      <trkpt lat="44.69982" lon="7.0429">
        <ele>2192</ele>
        <time>2022-07-12T09:03:36Z</time>
      </trkpt>
      <trkpt lat="44.69981" lon="7.04295">
        <ele>2192</ele>
        <time>2022-07-12T09:03:41Z</time>
      </trkpt>
      <trkpt lat="44.6998" lon="7.04299">
        <ele>2193</ele>
        <time>2022-07-12T09:03:45Z</time>
      </trkpt>
      <trkpt lat="44.69979" lon="7.04305">
        <ele>2193</ele>
        <time>2022-07-12T09:03:49Z</time>
      </trkpt>
      <trkpt lat="44.69974" lon="7.04313">
        <ele>2194</ele>
        <time>2022-07-12T09:03:57Z</time>
      </trkpt>
      <trkpt lat="44.69961" lon="7.04329">
        <ele>2196</ele>
        <time>2022-07-12T09:04:17Z</time>
      </trkpt>
      <trkpt lat="44.69954" lon="7.04332">
        <ele>2196</ele>
        <time>2022-07-12T09:04:25Z</time>
      </trkpt>
      <trkpt lat="44.6995" lon="7.04333">
        <ele>2196</ele>
        <time>2022-07-12T09:04:30Z</time>
      </trkpt>
      <trkpt lat="44.69944" lon="7.0434">
        <ele>2196</ele>
        <time>2022-07-12T09:04:40Z</time>
      </trkpt>
      <trkpt lat="44.69941" lon="7.04343">
        <ele>2197</ele>
        <time>2022-07-12T09:04:44Z</time>
      </trkpt>
      <trkpt lat="44.69938" lon="7.04345">
        <ele>2197</ele>
        <time>2022-07-12T09:04:48Z</time>
      </trkpt>
      <trkpt lat="44.69934" lon="7.04347">
        <ele>2198</ele>
        <time>2022-07-12T09:04:52Z</time>
      </trkpt>
      <trkpt lat="44.69927" lon="7.04351">
        <ele>2199</ele>
        <time>2022-07-12T09:05:00Z</time>
      </trkpt>
      <trkpt lat="44.69924" lon="7.04354">
        <ele>2199</ele>
        <time>2022-07-12T09:05:04Z</time>
      </trkpt>
      <trkpt lat="44.69916" lon="7.04357">
        <ele>2199</ele>
        <time>2022-07-12T09:05:12Z</time>
      </trkpt>
      <trkpt lat="44.69913" lon="7.04359">
        <ele>2199</ele>
        <time>2022-07-12T09:05:16Z</time>
      </trkpt>
      <trkpt lat="44.6991" lon="7.04362">
        <ele>2200</ele>
        <time>2022-07-12T09:05:20Z</time>
      </trkpt>
      <trkpt lat="44.69907" lon="7.04372">
        <ele>2200</ele>
        <time>2022-07-12T09:05:29Z</time>
      </trkpt>
      <trkpt lat="44.69904" lon="7.04375">
        <ele>2201</ele>
        <time>2022-07-12T09:05:34Z</time>
      </trkpt>
      <trkpt lat="44.69905" lon="7.04386">
        <ele>2204</ele>
        <time>2022-07-12T09:05:52Z</time>
      </trkpt>
      <trkpt lat="44.69903" lon="7.0439">
        <ele>2204</ele>
        <time>2022-07-12T09:05:57Z</time>
      </trkpt>
      <trkpt lat="44.69901" lon="7.04395">
        <ele>2204</ele>
        <time>2022-07-12T09:06:04Z</time>
      </trkpt>
      <trkpt lat="44.69892" lon="7.04402">
        <ele>2207</ele>
        <time>2022-07-12T09:06:21Z</time>
      </trkpt>
      <trkpt lat="44.69887" lon="7.0441">
        <ele>2208</ele>
        <time>2022-07-12T09:06:31Z</time>
      </trkpt>
      <trkpt lat="44.69885" lon="7.04414">
        <ele>2209</ele>
        <time>2022-07-12T09:06:37Z</time>
      </trkpt>
      <trkpt lat="44.69879" lon="7.04419">
        <ele>2211</ele>
        <time>2022-07-12T09:06:48Z</time>
      </trkpt>
      <trkpt lat="44.69878" lon="7.04424">
        <ele>2212</ele>
        <time>2022-07-12T09:06:55Z</time>
      </trkpt>
      <trkpt lat="44.69871" lon="7.04436">
        <ele>2212</ele>
        <time>2022-07-12T09:07:10Z</time>
      </trkpt>
      <trkpt lat="44.69867" lon="7.04436">
        <ele>2213</ele>
        <time>2022-07-12T09:07:15Z</time>
      </trkpt>
      <trkpt lat="44.69864" lon="7.04437">
        <ele>2213</ele>
        <time>2022-07-12T09:07:20Z</time>
      </trkpt>
      <trkpt lat="44.6986" lon="7.04437">
        <ele>2212</ele>
        <time>2022-07-12T09:07:24Z</time>
      </trkpt>
      <trkpt lat="44.69856" lon="7.04435">
        <ele>2213</ele>
        <time>2022-07-12T09:07:29Z</time>
      </trkpt>
      <trkpt lat="44.69853" lon="7.04433">
        <ele>2215</ele>
        <time>2022-07-12T09:07:34Z</time>
      </trkpt>
      <trkpt lat="44.69849" lon="7.04435">
        <ele>2216</ele>
        <time>2022-07-12T09:07:39Z</time>
      </trkpt>
      <trkpt lat="44.69847" lon="7.04439">
        <ele>2219</ele>
        <time>2022-07-12T09:07:44Z</time>
      </trkpt>
      <trkpt lat="44.69845" lon="7.04444">
        <ele>2220</ele>
        <time>2022-07-12T09:07:50Z</time>
      </trkpt>
      <trkpt lat="44.69841" lon="7.04446">
        <ele>2225</ele>
        <time>2022-07-12T09:08:21Z</time>
      </trkpt>
      <trkpt lat="44.69839" lon="7.04451">
        <ele>2224</ele>
        <time>2022-07-12T09:08:31Z</time>
      </trkpt>
      <trkpt lat="44.69823" lon="7.04462">
        <ele>2223</ele>
        <time>2022-07-12T09:08:54Z</time>
      </trkpt>
      <trkpt lat="44.69821" lon="7.04467">
        <ele>2223</ele>
        <time>2022-07-12T09:08:58Z</time>
      </trkpt>
      <trkpt lat="44.69818" lon="7.04478">
        <ele>2223</ele>
        <time>2022-07-12T09:09:06Z</time>
      </trkpt>
      <trkpt lat="44.69813" lon="7.04488">
        <ele>2223</ele>
        <time>2022-07-12T09:09:14Z</time>
      </trkpt>
      <trkpt lat="44.6981" lon="7.04491">
        <ele>2223</ele>
        <time>2022-07-12T09:09:18Z</time>
      </trkpt>
      <trkpt lat="44.69807" lon="7.04493">
        <ele>2223</ele>
        <time>2022-07-12T09:09:22Z</time>
      </trkpt>
      <trkpt lat="44.69803" lon="7.04496">
        <ele>2223</ele>
        <time>2022-07-12T09:09:26Z</time>
      </trkpt>
      <trkpt lat="44.698" lon="7.04499">
        <ele>2224</ele>
        <time>2022-07-12T09:09:31Z</time>
      </trkpt>
      <trkpt lat="44.69796" lon="7.04498">
        <ele>2225</ele>
        <time>2022-07-12T09:09:36Z</time>
      </trkpt>
      <trkpt lat="44.69793" lon="7.045">
        <ele>2226</ele>
        <time>2022-07-12T09:09:40Z</time>
      </trkpt>
      <trkpt lat="44.69789" lon="7.0451">
        <ele>2227</ele>
        <time>2022-07-12T09:09:49Z</time>
      </trkpt>
      <trkpt lat="44.69781" lon="7.0453">
        <ele>2228</ele>
        <time>2022-07-12T09:10:06Z</time>
      </trkpt>
      <trkpt lat="44.69779" lon="7.04534">
        <ele>2228</ele>
        <time>2022-07-12T09:10:10Z</time>
      </trkpt>
      <trkpt lat="44.69773" lon="7.04542">
        <ele>2230</ele>
        <time>2022-07-12T09:10:18Z</time>
      </trkpt>
      <trkpt lat="44.69766" lon="7.04554">
        <ele>2232</ele>
        <time>2022-07-12T09:10:30Z</time>
      </trkpt>
      <trkpt lat="44.69763" lon="7.04557">
        <ele>2233</ele>
        <time>2022-07-12T09:10:34Z</time>
      </trkpt>
      <trkpt lat="44.69747" lon="7.04574">
        <ele>2234</ele>
        <time>2022-07-12T09:10:53Z</time>
      </trkpt>
      <trkpt lat="44.69743" lon="7.04583">
        <ele>2234</ele>
        <time>2022-07-12T09:11:02Z</time>
      </trkpt>
      <trkpt lat="44.69735" lon="7.04595">
        <ele>2235</ele>
        <time>2022-07-12T09:11:14Z</time>
      </trkpt>
      <trkpt lat="44.69734" lon="7.046">
        <ele>2235</ele>
        <time>2022-07-12T09:11:18Z</time>
      </trkpt>
      <trkpt lat="44.69728" lon="7.04606">
        <ele>2237</ele>
        <time>2022-07-12T09:11:26Z</time>
      </trkpt>
      <trkpt lat="44.69724" lon="7.04608">
        <ele>2238</ele>
        <time>2022-07-12T09:11:30Z</time>
      </trkpt>
      <trkpt lat="44.69721" lon="7.0461">
        <ele>2238</ele>
        <time>2022-07-12T09:11:34Z</time>
      </trkpt>
      <trkpt lat="44.69714" lon="7.0461">
        <ele>2239</ele>
        <time>2022-07-12T09:11:42Z</time>
      </trkpt>
      <trkpt lat="44.6971" lon="7.04613">
        <ele>2239</ele>
        <time>2022-07-12T09:11:47Z</time>
      </trkpt>
      <trkpt lat="44.69707" lon="7.04614">
        <ele>2239</ele>
        <time>2022-07-12T09:11:52Z</time>
      </trkpt>
      <trkpt lat="44.69701" lon="7.0462">
        <ele>2241</ele>
        <time>2022-07-12T09:12:03Z</time>
      </trkpt>
      <trkpt lat="44.69698" lon="7.04624">
        <ele>2241</ele>
        <time>2022-07-12T09:12:09Z</time>
      </trkpt>
      <trkpt lat="44.69696" lon="7.04627">
        <ele>2242</ele>
        <time>2022-07-12T09:12:15Z</time>
      </trkpt>
      <trkpt lat="44.69693" lon="7.04631">
        <ele>2243</ele>
        <time>2022-07-12T09:12:20Z</time>
      </trkpt>
      <trkpt lat="44.69687" lon="7.04637">
        <ele>2244</ele>
        <time>2022-07-12T09:12:31Z</time>
      </trkpt>
      <trkpt lat="44.69681" lon="7.04644">
        <ele>2245</ele>
        <time>2022-07-12T09:12:40Z</time>
      </trkpt>
      <trkpt lat="44.6967" lon="7.04658">
        <ele>2247</ele>
        <time>2022-07-12T09:12:57Z</time>
      </trkpt>
      <trkpt lat="44.69668" lon="7.04662">
        <ele>2247</ele>
        <time>2022-07-12T09:13:02Z</time>
      </trkpt>
      <trkpt lat="44.69665" lon="7.04665">
        <ele>2248</ele>
        <time>2022-07-12T09:13:08Z</time>
      </trkpt>
      <trkpt lat="44.69663" lon="7.04669">
        <ele>2249</ele>
        <time>2022-07-12T09:13:13Z</time>
      </trkpt>
      <trkpt lat="44.69657" lon="7.04677">
        <ele>2251</ele>
        <time>2022-07-12T09:13:24Z</time>
      </trkpt>
      <trkpt lat="44.69654" lon="7.04679">
        <ele>2250</ele>
        <time>2022-07-12T09:13:28Z</time>
      </trkpt>
      <trkpt lat="44.69648" lon="7.04686">
        <ele>2250</ele>
        <time>2022-07-12T09:13:37Z</time>
      </trkpt>
      <trkpt lat="44.69645" lon="7.04689">
        <ele>2252</ele>
        <time>2022-07-12T09:13:42Z</time>
      </trkpt>
      <trkpt lat="44.69634" lon="7.04704">
        <ele>2254</ele>
        <time>2022-07-12T09:14:02Z</time>
      </trkpt>
      <trkpt lat="44.69632" lon="7.04709">
        <ele>2255</ele>
        <time>2022-07-12T09:14:07Z</time>
      </trkpt>
      <trkpt lat="44.69628" lon="7.04712">
        <ele>2256</ele>
        <time>2022-07-12T09:14:12Z</time>
      </trkpt>
      <trkpt lat="44.69625" lon="7.04715">
        <ele>2256</ele>
        <time>2022-07-12T09:14:17Z</time>
      </trkpt>
      <trkpt lat="44.69623" lon="7.04719">
        <ele>2256</ele>
        <time>2022-07-12T09:14:21Z</time>
      </trkpt>
      <trkpt lat="44.69616" lon="7.04724">
        <ele>2257</ele>
        <time>2022-07-12T09:14:29Z</time>
      </trkpt>
      <trkpt lat="44.69614" lon="7.04728">
        <ele>2257</ele>
        <time>2022-07-12T09:14:34Z</time>
      </trkpt>
      <trkpt lat="44.69612" lon="7.04733">
        <ele>2257</ele>
        <time>2022-07-12T09:14:39Z</time>
      </trkpt>
      <trkpt lat="44.69608" lon="7.04736">
        <ele>2257</ele>
        <time>2022-07-12T09:14:43Z</time>
      </trkpt>
      <trkpt lat="44.69606" lon="7.0474">
        <ele>2258</ele>
        <time>2022-07-12T09:14:48Z</time>
      </trkpt>
      <trkpt lat="44.69603" lon="7.04742">
        <ele>2258</ele>
        <time>2022-07-12T09:14:52Z</time>
      </trkpt>
      <trkpt lat="44.69599" lon="7.04744">
        <ele>2258</ele>
        <time>2022-07-12T09:14:56Z</time>
      </trkpt>
      <trkpt lat="44.69597" lon="7.04748">
        <ele>2258</ele>
        <time>2022-07-12T09:15:00Z</time>
      </trkpt>
      <trkpt lat="44.69594" lon="7.04751">
        <ele>2258</ele>
        <time>2022-07-12T09:15:04Z</time>
      </trkpt>
      <trkpt lat="44.69588" lon="7.04756">
        <ele>2259</ele>
        <time>2022-07-12T09:15:12Z</time>
      </trkpt>
      <trkpt lat="44.69584" lon="7.04759">
        <ele>2260</ele>
        <time>2022-07-12T09:15:17Z</time>
      </trkpt>
      <trkpt lat="44.69577" lon="7.04763">
        <ele>2260</ele>
        <time>2022-07-12T09:15:27Z</time>
      </trkpt>
      <trkpt lat="44.69574" lon="7.04767">
        <ele>2260</ele>
        <time>2022-07-12T09:15:32Z</time>
      </trkpt>
      <trkpt lat="44.69573" lon="7.04773">
        <ele>2261</ele>
        <time>2022-07-12T09:15:38Z</time>
      </trkpt>
      <trkpt lat="44.69571" lon="7.04777">
        <ele>2261</ele>
        <time>2022-07-12T09:15:42Z</time>
      </trkpt>
      <trkpt lat="44.69561" lon="7.04784">
        <ele>2263</ele>
        <time>2022-07-12T09:15:55Z</time>
      </trkpt>
      <trkpt lat="44.69558" lon="7.04788">
        <ele>2263</ele>
        <time>2022-07-12T09:15:59Z</time>
      </trkpt>
      <trkpt lat="44.69556" lon="7.04793">
        <ele>2263</ele>
        <time>2022-07-12T09:16:04Z</time>
      </trkpt>
      <trkpt lat="44.69549" lon="7.04798">
        <ele>2265</ele>
        <time>2022-07-12T09:16:13Z</time>
      </trkpt>
      <trkpt lat="44.69547" lon="7.04802">
        <ele>2266</ele>
        <time>2022-07-12T09:16:17Z</time>
      </trkpt>
      <trkpt lat="44.69544" lon="7.04806">
        <ele>2266</ele>
        <time>2022-07-12T09:16:21Z</time>
      </trkpt>
      <trkpt lat="44.69541" lon="7.04809">
        <ele>2266</ele>
        <time>2022-07-12T09:16:25Z</time>
      </trkpt>
      <trkpt lat="44.69538" lon="7.04813">
        <ele>2266</ele>
        <time>2022-07-12T09:16:29Z</time>
      </trkpt>
      <trkpt lat="44.69536" lon="7.04816">
        <ele>2266</ele>
        <time>2022-07-12T09:16:33Z</time>
      </trkpt>
      <trkpt lat="44.69532" lon="7.04819">
        <ele>2267</ele>
        <time>2022-07-12T09:16:38Z</time>
      </trkpt>
      <trkpt lat="44.6953" lon="7.04822">
        <ele>2267</ele>
        <time>2022-07-12T09:16:42Z</time>
      </trkpt>
      <trkpt lat="44.69527" lon="7.04826">
        <ele>2267</ele>
        <time>2022-07-12T09:16:48Z</time>
      </trkpt>
      <trkpt lat="44.69522" lon="7.04834">
        <ele>2267</ele>
        <time>2022-07-12T09:16:57Z</time>
      </trkpt>
      <trkpt lat="44.69512" lon="7.04849">
        <ele>2268</ele>
        <time>2022-07-12T09:17:19Z</time>
      </trkpt>
      <trkpt lat="44.69509" lon="7.04852">
        <ele>2270</ele>
        <time>2022-07-12T09:17:25Z</time>
      </trkpt>
      <trkpt lat="44.69505" lon="7.04853">
        <ele>2270</ele>
        <time>2022-07-12T09:17:29Z</time>
      </trkpt>
      <trkpt lat="44.69499" lon="7.04858">
        <ele>2271</ele>
        <time>2022-07-12T09:17:38Z</time>
      </trkpt>
      <trkpt lat="44.69497" lon="7.04863">
        <ele>2271</ele>
        <time>2022-07-12T09:17:45Z</time>
      </trkpt>
      <trkpt lat="44.69494" lon="7.04865">
        <ele>2271</ele>
        <time>2022-07-12T09:17:50Z</time>
      </trkpt>
      <trkpt lat="44.6949" lon="7.04862">
        <ele>2271</ele>
        <time>2022-07-12T09:17:55Z</time>
      </trkpt>
      <trkpt lat="44.69487" lon="7.04861">
        <ele>2271</ele>
        <time>2022-07-12T09:18:03Z</time>
      </trkpt>
      <trkpt lat="44.69486" lon="7.04871">
        <ele>2272</ele>
        <time>2022-07-12T09:18:15Z</time>
      </trkpt>
      <trkpt lat="44.69484" lon="7.04874">
        <ele>2273</ele>
        <time>2022-07-12T09:18:22Z</time>
      </trkpt>
      <trkpt lat="44.69481" lon="7.04871">
        <ele>2274</ele>
        <time>2022-07-12T09:18:28Z</time>
      </trkpt>
      <trkpt lat="44.69479" lon="7.04876">
        <ele>2275</ele>
        <time>2022-07-12T09:18:36Z</time>
      </trkpt>
      <trkpt lat="44.69475" lon="7.04876">
        <ele>2276</ele>
        <time>2022-07-12T09:18:44Z</time>
      </trkpt>
      <trkpt lat="44.69473" lon="7.04881">
        <ele>2278</ele>
        <time>2022-07-12T09:18:50Z</time>
      </trkpt>
      <trkpt lat="44.69471" lon="7.04885">
        <ele>2279</ele>
        <time>2022-07-12T09:18:55Z</time>
      </trkpt>
      <trkpt lat="44.69468" lon="7.04889">
        <ele>2281</ele>
        <time>2022-07-12T09:19:01Z</time>
      </trkpt>
      <trkpt lat="44.69465" lon="7.04891">
        <ele>2281</ele>
        <time>2022-07-12T09:19:06Z</time>
      </trkpt>
      <trkpt lat="44.69462" lon="7.04893">
        <ele>2282</ele>
        <time>2022-07-12T09:19:12Z</time>
      </trkpt>
      <trkpt lat="44.69459" lon="7.04896">
        <ele>2283</ele>
        <time>2022-07-12T09:19:19Z</time>
      </trkpt>
      <trkpt lat="44.69456" lon="7.04894">
        <ele>2284</ele>
        <time>2022-07-12T09:19:24Z</time>
      </trkpt>
      <trkpt lat="44.69456" lon="7.04899">
        <ele>2285</ele>
        <time>2022-07-12T09:19:38Z</time>
      </trkpt>
      <trkpt lat="44.69457" lon="7.04905">
        <ele>2287</ele>
        <time>2022-07-12T09:19:44Z</time>
      </trkpt>
      <trkpt lat="44.69457" lon="7.0491">
        <ele>2288</ele>
        <time>2022-07-12T09:19:50Z</time>
      </trkpt>
      <trkpt lat="44.69458" lon="7.04916">
        <ele>2290</ele>
        <time>2022-07-12T09:19:56Z</time>
      </trkpt>
      <trkpt lat="44.69454" lon="7.04916">
        <ele>2291</ele>
        <time>2022-07-12T09:20:05Z</time>
      </trkpt>
      <trkpt lat="44.69451" lon="7.04913">
        <ele>2291</ele>
        <time>2022-07-12T09:20:12Z</time>
      </trkpt>
      <trkpt lat="44.69451" lon="7.04918">
        <ele>2292</ele>
        <time>2022-07-12T09:20:20Z</time>
      </trkpt>
      <trkpt lat="44.69447" lon="7.04919">
        <ele>2293</ele>
        <time>2022-07-12T09:20:27Z</time>
      </trkpt>
      <trkpt lat="44.69445" lon="7.04924">
        <ele>2295</ele>
        <time>2022-07-12T09:20:34Z</time>
      </trkpt>
      <trkpt lat="44.69443" lon="7.04929">
        <ele>2295</ele>
        <time>2022-07-12T09:20:45Z</time>
      </trkpt>
      <trkpt lat="44.69441" lon="7.04933">
        <ele>2298</ele>
        <time>2022-07-12T09:20:53Z</time>
      </trkpt>
      <trkpt lat="44.69439" lon="7.04938">
        <ele>2299</ele>
        <time>2022-07-12T09:20:58Z</time>
      </trkpt>
      <trkpt lat="44.69436" lon="7.04942">
        <ele>2300</ele>
        <time>2022-07-12T09:21:03Z</time>
      </trkpt>
      <trkpt lat="44.69437" lon="7.04947">
        <ele>2300</ele>
        <time>2022-07-12T09:21:08Z</time>
      </trkpt>
      <trkpt lat="44.69437" lon="7.04952">
        <ele>2302</ele>
        <time>2022-07-12T09:21:15Z</time>
      </trkpt>
      <trkpt lat="44.69429" lon="7.04955">
        <ele>2304</ele>
        <time>2022-07-12T09:21:27Z</time>
      </trkpt>
      <trkpt lat="44.69428" lon="7.0496">
        <ele>2304</ele>
        <time>2022-07-12T09:21:32Z</time>
      </trkpt>
      <trkpt lat="44.69427" lon="7.04965">
        <ele>2306</ele>
        <time>2022-07-12T09:21:38Z</time>
      </trkpt>
      <trkpt lat="44.69419" lon="7.04976">
        <ele>2308</ele>
        <time>2022-07-12T09:21:56Z</time>
      </trkpt>
      <trkpt lat="44.69413" lon="7.04995">
        <ele>2312</ele>
        <time>2022-07-12T09:22:19Z</time>
      </trkpt>
      <trkpt lat="44.69413" lon="7.05001">
        <ele>2313</ele>
        <time>2022-07-12T09:22:25Z</time>
      </trkpt>
      <trkpt lat="44.69403" lon="7.05028">
        <ele>2320</ele>
        <time>2022-07-12T09:22:57Z</time>
      </trkpt>
      <trkpt lat="44.69391" lon="7.05048">
        <ele>2324</ele>
        <time>2022-07-12T09:23:27Z</time>
      </trkpt>
      <trkpt lat="44.69388" lon="7.05051">
        <ele>2324</ele>
        <time>2022-07-12T09:23:33Z</time>
      </trkpt>
      <trkpt lat="44.69388" lon="7.05056">
        <ele>2326</ele>
        <time>2022-07-12T09:23:43Z</time>
      </trkpt>
      <trkpt lat="44.69374" lon="7.0508">
        <ele>2330</ele>
        <time>2022-07-12T09:24:17Z</time>
      </trkpt>
      <trkpt lat="44.69373" lon="7.05085">
        <ele>2331</ele>
        <time>2022-07-12T09:24:25Z</time>
      </trkpt>
      <trkpt lat="44.6937" lon="7.05088">
        <ele>2332</ele>
        <time>2022-07-12T09:24:31Z</time>
      </trkpt>
      <trkpt lat="44.69367" lon="7.05097">
        <ele>2334</ele>
        <time>2022-07-12T09:24:46Z</time>
      </trkpt>
      <trkpt lat="44.69365" lon="7.05101">
        <ele>2334</ele>
        <time>2022-07-12T09:24:52Z</time>
      </trkpt>
      <trkpt lat="44.69362" lon="7.05105">
        <ele>2336</ele>
        <time>2022-07-12T09:24:58Z</time>
      </trkpt>
      <trkpt lat="44.69362" lon="7.05109">
        <ele>2336</ele>
        <time>2022-07-12T09:25:07Z</time>
      </trkpt>
      <trkpt lat="44.69365" lon="7.05113">
        <ele>2337</ele>
        <time>2022-07-12T09:25:14Z</time>
      </trkpt>
      <trkpt lat="44.69364" lon="7.05117">
        <ele>2338</ele>
        <time>2022-07-12T09:25:19Z</time>
      </trkpt>
      <trkpt lat="44.69361" lon="7.0512">
        <ele>2339</ele>
        <time>2022-07-12T09:25:25Z</time>
      </trkpt>
      <trkpt lat="44.6936" lon="7.05125">
        <ele>2340</ele>
        <time>2022-07-12T09:25:35Z</time>
      </trkpt>
      <trkpt lat="44.69357" lon="7.05127">
        <ele>2341</ele>
        <time>2022-07-12T09:25:43Z</time>
      </trkpt>
      <trkpt lat="44.69356" lon="7.05131">
        <ele>2343</ele>
        <time>2022-07-12T09:25:51Z</time>
      </trkpt>
      <trkpt lat="44.69352" lon="7.05132">
        <ele>2343</ele>
        <time>2022-07-12T09:25:59Z</time>
      </trkpt>
      <trkpt lat="44.69353" lon="7.05137">
        <ele>2344</ele>
        <time>2022-07-12T09:26:10Z</time>
      </trkpt>
      <trkpt lat="44.69343" lon="7.05143">
        <ele>2347</ele>
        <time>2022-07-12T09:26:29Z</time>
      </trkpt>
      <trkpt lat="44.69339" lon="7.05142">
        <ele>2347</ele>
        <time>2022-07-12T09:26:34Z</time>
      </trkpt>
      <trkpt lat="44.69332" lon="7.05145">
        <ele>2349</ele>
        <time>2022-07-12T09:26:44Z</time>
      </trkpt>
      <trkpt lat="44.69324" lon="7.05144">
        <ele>2349</ele>
        <time>2022-07-12T09:26:52Z</time>
      </trkpt>
      <trkpt lat="44.69321" lon="7.05145">
        <ele>2349</ele>
        <time>2022-07-12T09:26:56Z</time>
      </trkpt>
      <trkpt lat="44.69318" lon="7.05148">
        <ele>2350</ele>
        <time>2022-07-12T09:27:02Z</time>
      </trkpt>
      <trkpt lat="44.69315" lon="7.0515">
        <ele>2351</ele>
        <time>2022-07-12T09:27:08Z</time>
      </trkpt>
      <trkpt lat="44.69312" lon="7.05152">
        <ele>2352</ele>
        <time>2022-07-12T09:27:15Z</time>
      </trkpt>
      <trkpt lat="44.69309" lon="7.05155">
        <ele>2354</ele>
        <time>2022-07-12T09:27:25Z</time>
      </trkpt>
      <trkpt lat="44.69299" lon="7.05162">
        <ele>2356</ele>
        <time>2022-07-12T09:27:49Z</time>
      </trkpt>
      <trkpt lat="44.69295" lon="7.05163">
        <ele>2359</ele>
        <time>2022-07-12T09:28:00Z</time>
      </trkpt>
      <trkpt lat="44.69286" lon="7.05173">
        <ele>2364</ele>
        <time>2022-07-12T09:28:20Z</time>
      </trkpt>
      <trkpt lat="44.69284" lon="7.05176">
        <ele>2365</ele>
        <time>2022-07-12T09:28:29Z</time>
      </trkpt>
      <trkpt lat="44.69278" lon="7.05183">
        <ele>2368</ele>
        <time>2022-07-12T09:28:48Z</time>
      </trkpt>
      <trkpt lat="44.69272" lon="7.05189">
        <ele>2371</ele>
        <time>2022-07-12T09:29:02Z</time>
      </trkpt>
      <trkpt lat="44.69268" lon="7.05191">
        <ele>2372</ele>
        <time>2022-07-12T09:29:07Z</time>
      </trkpt>
      <trkpt lat="44.69266" lon="7.05194">
        <ele>2372</ele>
        <time>2022-07-12T09:29:12Z</time>
      </trkpt>
      <trkpt lat="44.69252" lon="7.05204">
        <ele>2376</ele>
        <time>2022-07-12T09:29:35Z</time>
      </trkpt>
      <trkpt lat="44.69247" lon="7.05211">
        <ele>2377</ele>
        <time>2022-07-12T09:29:45Z</time>
      </trkpt>
      <trkpt lat="44.69244" lon="7.05214">
        <ele>2378</ele>
        <time>2022-07-12T09:29:50Z</time>
      </trkpt>
      <trkpt lat="44.69233" lon="7.05207">
        <ele>2381</ele>
        <time>2022-07-12T09:30:06Z</time>
      </trkpt>
      <trkpt lat="44.69224" lon="7.05217">
        <ele>2384</ele>
        <time>2022-07-12T09:30:23Z</time>
      </trkpt>
      <trkpt lat="44.6922" lon="7.0522">
        <ele>2385</ele>
        <time>2022-07-12T09:30:28Z</time>
      </trkpt>
      <trkpt lat="44.69218" lon="7.05223">
        <ele>2386</ele>
        <time>2022-07-12T09:30:34Z</time>
      </trkpt>
      <trkpt lat="44.69218" lon="7.05229">
        <ele>2387</ele>
        <time>2022-07-12T09:30:41Z</time>
      </trkpt>
      <trkpt lat="44.69215" lon="7.05232">
        <ele>2387</ele>
        <time>2022-07-12T09:30:46Z</time>
      </trkpt>
      <trkpt lat="44.69214" lon="7.05237">
        <ele>2389</ele>
        <time>2022-07-12T09:30:54Z</time>
      </trkpt>
      <trkpt lat="44.69205" lon="7.05254">
        <ele>2392</ele>
        <time>2022-07-12T09:31:21Z</time>
      </trkpt>
      <trkpt lat="44.69203" lon="7.05258">
        <ele>2393</ele>
        <time>2022-07-12T09:31:27Z</time>
      </trkpt>
      <trkpt lat="44.69201" lon="7.05262">
        <ele>2395</ele>
        <time>2022-07-12T09:31:33Z</time>
      </trkpt>
      <trkpt lat="44.69198" lon="7.05266">
        <ele>2396</ele>
        <time>2022-07-12T09:31:40Z</time>
      </trkpt>
      <trkpt lat="44.69181" lon="7.05287">
        <ele>2400</ele>
        <time>2022-07-12T09:32:10Z</time>
      </trkpt>
      <trkpt lat="44.69177" lon="7.05292">
        <ele>2401</ele>
        <time>2022-07-12T09:32:15Z</time>
      </trkpt>
      <trkpt lat="44.69171" lon="7.05297">
        <ele>2401</ele>
        <time>2022-07-12T09:32:24Z</time>
      </trkpt>
      <trkpt lat="44.69168" lon="7.053">
        <ele>2401</ele>
        <time>2022-07-12T09:32:29Z</time>
      </trkpt>
      <trkpt lat="44.69165" lon="7.05305">
        <ele>2401</ele>
        <time>2022-07-12T09:32:34Z</time>
      </trkpt>
      <trkpt lat="44.69162" lon="7.05308">
        <ele>2401</ele>
        <time>2022-07-12T09:32:38Z</time>
      </trkpt>
      <trkpt lat="44.69157" lon="7.05317">
        <ele>2400</ele>
        <time>2022-07-12T09:32:47Z</time>
      </trkpt>
      <trkpt lat="44.69154" lon="7.05318">
        <ele>2400</ele>
        <time>2022-07-12T09:32:51Z</time>
      </trkpt>
      <trkpt lat="44.6915" lon="7.05317">
        <ele>2399</ele>
        <time>2022-07-12T09:32:57Z</time>
      </trkpt>
      <trkpt lat="44.69149" lon="7.05322">
        <ele>2399</ele>
        <time>2022-07-12T09:33:02Z</time>
      </trkpt>
      <trkpt lat="44.69145" lon="7.05324">
        <ele>2399</ele>
        <time>2022-07-12T09:33:07Z</time>
      </trkpt>
      <trkpt lat="44.69142" lon="7.05324">
        <ele>2400</ele>
        <time>2022-07-12T09:33:12Z</time>
      </trkpt>
      <trkpt lat="44.69138" lon="7.05325">
        <ele>2401</ele>
        <time>2022-07-12T09:33:17Z</time>
      </trkpt>
      <trkpt lat="44.69135" lon="7.05325">
        <ele>2401</ele>
        <time>2022-07-12T09:33:23Z</time>
      </trkpt>
      <trkpt lat="44.6913" lon="7.05333">
        <ele>2403</ele>
        <time>2022-07-12T09:33:32Z</time>
      </trkpt>
      <trkpt lat="44.69125" lon="7.05341">
        <ele>2405</ele>
        <time>2022-07-12T09:33:40Z</time>
      </trkpt>
      <trkpt lat="44.69122" lon="7.05344">
        <ele>2406</ele>
        <time>2022-07-12T09:33:44Z</time>
      </trkpt>
      <trkpt lat="44.69114" lon="7.05354">
        <ele>2407</ele>
        <time>2022-07-12T09:33:56Z</time>
      </trkpt>
      <trkpt lat="44.69111" lon="7.05358">
        <ele>2408</ele>
        <time>2022-07-12T09:34:01Z</time>
      </trkpt>
      <trkpt lat="44.69109" lon="7.05362">
        <ele>2408</ele>
        <time>2022-07-12T09:34:05Z</time>
      </trkpt>
      <trkpt lat="44.69108" lon="7.05367">
        <ele>2408</ele>
        <time>2022-07-12T09:34:10Z</time>
      </trkpt>
      <trkpt lat="44.69107" lon="7.05373">
        <ele>2409</ele>
        <time>2022-07-12T09:34:15Z</time>
      </trkpt>
      <trkpt lat="44.69101" lon="7.05385">
        <ele>2411</ele>
        <time>2022-07-12T09:34:30Z</time>
      </trkpt>
      <trkpt lat="44.69093" lon="7.0541">
        <ele>2414</ele>
        <time>2022-07-12T09:34:55Z</time>
      </trkpt>
      <trkpt lat="44.6909" lon="7.05414">
        <ele>2414</ele>
        <time>2022-07-12T09:35:00Z</time>
      </trkpt>
      <trkpt lat="44.69088" lon="7.05424">
        <ele>2416</ele>
        <time>2022-07-12T09:35:11Z</time>
      </trkpt>
      <trkpt lat="44.69086" lon="7.05429">
        <ele>2417</ele>
        <time>2022-07-12T09:35:16Z</time>
      </trkpt>
      <trkpt lat="44.69086" lon="7.0546">
        <ele>2421</ele>
        <time>2022-07-12T09:35:49Z</time>
      </trkpt>
      <trkpt lat="44.69082" lon="7.0547">
        <ele>2423</ele>
        <time>2022-07-12T09:35:59Z</time>
      </trkpt>
      <trkpt lat="44.69073" lon="7.05479">
        <ele>2422</ele>
        <time>2022-07-12T09:36:12Z</time>
      </trkpt>
      <trkpt lat="44.69069" lon="7.05488">
        <ele>2420</ele>
        <time>2022-07-12T09:36:22Z</time>
      </trkpt>
      <trkpt lat="44.69065" lon="7.05496">
        <ele>2418</ele>
        <time>2022-07-12T09:36:31Z</time>
      </trkpt>
      <trkpt lat="44.69059" lon="7.05516">
        <ele>2423</ele>
        <time>2022-07-12T09:36:47Z</time>
      </trkpt>
      <trkpt lat="44.69058" lon="7.05526">
        <ele>2423</ele>
        <time>2022-07-12T09:36:56Z</time>
      </trkpt>
      <trkpt lat="44.69056" lon="7.05536">
        <ele>2424</ele>
        <time>2022-07-12T09:37:05Z</time>
      </trkpt>
      <trkpt lat="44.69055" lon="7.05541">
        <ele>2424</ele>
        <time>2022-07-12T09:37:09Z</time>
      </trkpt>
      <trkpt lat="44.69052" lon="7.05557">
        <ele>2426</ele>
        <time>2022-07-12T09:37:23Z</time>
      </trkpt>
      <trkpt lat="44.69051" lon="7.05562">
        <ele>2426</ele>
        <time>2022-07-12T09:37:27Z</time>
      </trkpt>
      <trkpt lat="44.69049" lon="7.05566">
        <ele>2426</ele>
        <time>2022-07-12T09:37:31Z</time>
      </trkpt>
      <trkpt lat="44.69048" lon="7.05582">
        <ele>2424</ele>
        <time>2022-07-12T09:37:43Z</time>
      </trkpt>
      <trkpt lat="44.69047" lon="7.05594">
        <ele>2425</ele>
        <time>2022-07-12T09:37:51Z</time>
      </trkpt>
      <trkpt lat="44.69044" lon="7.05598">
        <ele>2425</ele>
        <time>2022-07-12T09:37:55Z</time>
      </trkpt>
      <trkpt lat="44.69044" lon="7.05603">
        <ele>2425</ele>
        <time>2022-07-12T09:37:59Z</time>
      </trkpt>
      <trkpt lat="44.69033" lon="7.0564">
        <ele>2426</ele>
        <time>2022-07-12T09:38:26Z</time>
      </trkpt>
      <trkpt lat="44.69027" lon="7.05654">
        <ele>2428</ele>
        <time>2022-07-12T09:38:40Z</time>
      </trkpt>
      <trkpt lat="44.69026" lon="7.05659">
        <ele>2430</ele>
        <time>2022-07-12T09:38:47Z</time>
      </trkpt>
      <trkpt lat="44.69025" lon="7.05664">
        <ele>2431</ele>
        <time>2022-07-12T09:38:54Z</time>
      </trkpt>
      <trkpt lat="44.69024" lon="7.05669">
        <ele>2433</ele>
        <time>2022-07-12T09:38:59Z</time>
      </trkpt>
      <trkpt lat="44.69023" lon="7.05673">
        <ele>2433</ele>
        <time>2022-07-12T09:39:03Z</time>
      </trkpt>
      <trkpt lat="44.69019" lon="7.05675">
        <ele>2433</ele>
        <time>2022-07-12T09:39:07Z</time>
      </trkpt>
      <trkpt lat="44.69014" lon="7.05688">
        <ele>2436</ele>
        <time>2022-07-12T09:39:21Z</time>
      </trkpt>
      <trkpt lat="44.69014" lon="7.05693">
        <ele>2437</ele>
        <time>2022-07-12T09:39:28Z</time>
      </trkpt>
      <trkpt lat="44.69012" lon="7.05698">
        <ele>2438</ele>
        <time>2022-07-12T09:39:33Z</time>
      </trkpt>
      <trkpt lat="44.69009" lon="7.05702">
        <ele>2438</ele>
        <time>2022-07-12T09:39:38Z</time>
      </trkpt>
      <trkpt lat="44.69004" lon="7.05711">
        <ele>2439</ele>
        <time>2022-07-12T09:39:48Z</time>
      </trkpt>
      <trkpt lat="44.68997" lon="7.05725">
        <ele>2441</ele>
        <time>2022-07-12T09:40:04Z</time>
      </trkpt>
      <trkpt lat="44.68998" lon="7.05731">
        <ele>2443</ele>
        <time>2022-07-12T09:40:10Z</time>
      </trkpt>
      <trkpt lat="44.68992" lon="7.0574">
        <ele>2443</ele>
        <time>2022-07-12T09:40:21Z</time>
      </trkpt>
      <trkpt lat="44.6899" lon="7.05772">
        <ele>2447</ele>
        <time>2022-07-12T09:40:52Z</time>
      </trkpt>
      <trkpt lat="44.6899" lon="7.05777">
        <ele>2447</ele>
        <time>2022-07-12T09:40:56Z</time>
      </trkpt>
      <trkpt lat="44.68988" lon="7.05782">
        <ele>2447</ele>
        <time>2022-07-12T09:41:01Z</time>
      </trkpt>
      <trkpt lat="44.68986" lon="7.05786">
        <ele>2448</ele>
        <time>2022-07-12T09:41:05Z</time>
      </trkpt>
      <trkpt lat="44.68983" lon="7.05794">
        <ele>2448</ele>
        <time>2022-07-12T09:41:13Z</time>
      </trkpt>
      <trkpt lat="44.6898" lon="7.05797">
        <ele>2448</ele>
        <time>2022-07-12T09:41:17Z</time>
      </trkpt>
      <trkpt lat="44.68979" lon="7.05802">
        <ele>2448</ele>
        <time>2022-07-12T09:41:21Z</time>
      </trkpt>
      <trkpt lat="44.68974" lon="7.0581">
        <ele>2449</ele>
        <time>2022-07-12T09:41:32Z</time>
      </trkpt>
      <trkpt lat="44.68971" lon="7.05814">
        <ele>2449</ele>
        <time>2022-07-12T09:41:37Z</time>
      </trkpt>
      <trkpt lat="44.6897" lon="7.05818">
        <ele>2450</ele>
        <time>2022-07-12T09:41:43Z</time>
      </trkpt>
      <trkpt lat="44.68969" lon="7.05823">
        <ele>2452</ele>
        <time>2022-07-12T09:41:48Z</time>
      </trkpt>
      <trkpt lat="44.68971" lon="7.05833">
        <ele>2455</ele>
        <time>2022-07-12T09:41:59Z</time>
      </trkpt>
      <trkpt lat="44.6897" lon="7.05849">
        <ele>2457</ele>
        <time>2022-07-12T09:42:14Z</time>
      </trkpt>
      <trkpt lat="44.6897" lon="7.05865">
        <ele>2456</ele>
        <time>2022-07-12T09:42:26Z</time>
      </trkpt>
      <trkpt lat="44.68968" lon="7.05908">
        <ele>2454</ele>
        <time>2022-07-12T09:42:56Z</time>
      </trkpt>
      <trkpt lat="44.68968" lon="7.05914">
        <ele>2454</ele>
        <time>2022-07-12T09:43:00Z</time>
      </trkpt>
      <trkpt lat="44.68968" lon="7.05919">
        <ele>2454</ele>
        <time>2022-07-12T09:43:04Z</time>
      </trkpt>
      <trkpt lat="44.68966" lon="7.05946">
        <ele>2454</ele>
        <time>2022-07-12T09:43:24Z</time>
      </trkpt>
      <trkpt lat="44.68964" lon="7.05951">
        <ele>2454</ele>
        <time>2022-07-12T09:43:29Z</time>
      </trkpt>
      <trkpt lat="44.68963" lon="7.05956">
        <ele>2454</ele>
        <time>2022-07-12T09:43:33Z</time>
      </trkpt>
      <trkpt lat="44.68963" lon="7.05962">
        <ele>2454</ele>
        <time>2022-07-12T09:43:37Z</time>
      </trkpt>
      <trkpt lat="44.68961" lon="7.05965">
        <ele>2455</ele>
        <time>2022-07-12T09:43:43Z</time>
      </trkpt>
      <trkpt lat="44.68957" lon="7.05967">
        <ele>2455</ele>
        <time>2022-07-12T09:43:48Z</time>
      </trkpt>
      <trkpt lat="44.68956" lon="7.05972">
        <ele>2455</ele>
        <time>2022-07-12T09:43:52Z</time>
      </trkpt>
      <trkpt lat="44.68953" lon="7.05975">
        <ele>2454</ele>
        <time>2022-07-12T09:43:56Z</time>
      </trkpt>
      <trkpt lat="44.6895" lon="7.05978">
        <ele>2452</ele>
        <time>2022-07-12T09:44:01Z</time>
      </trkpt>
      <trkpt lat="44.68946" lon="7.06006">
        <ele>2454</ele>
        <time>2022-07-12T09:44:22Z</time>
      </trkpt>
      <trkpt lat="44.68944" lon="7.0601">
        <ele>2454</ele>
        <time>2022-07-12T09:44:26Z</time>
      </trkpt>
      <trkpt lat="44.68942" lon="7.06015">
        <ele>2453</ele>
        <time>2022-07-12T09:44:31Z</time>
      </trkpt>
      <trkpt lat="44.68932" lon="7.06024">
        <ele>2454</ele>
        <time>2022-07-12T09:44:46Z</time>
      </trkpt>
      <trkpt lat="44.68928" lon="7.06024">
        <ele>2455</ele>
        <time>2022-07-12T09:44:53Z</time>
      </trkpt>
      <trkpt lat="44.68925" lon="7.06025">
        <ele>2454</ele>
        <time>2022-07-12T09:44:59Z</time>
      </trkpt>
      <trkpt lat="44.68919" lon="7.06032">
        <ele>2456</ele>
        <time>2022-07-12T09:45:08Z</time>
      </trkpt>
      <trkpt lat="44.68917" lon="7.06037">
        <ele>2456</ele>
        <time>2022-07-12T09:45:12Z</time>
      </trkpt>
      <trkpt lat="44.68911" lon="7.06052">
        <ele>2457</ele>
        <time>2022-07-12T09:45:25Z</time>
      </trkpt>
      <trkpt lat="44.68909" lon="7.06062">
        <ele>2458</ele>
        <time>2022-07-12T09:45:33Z</time>
      </trkpt>
      <trkpt lat="44.68906" lon="7.06067">
        <ele>2458</ele>
        <time>2022-07-12T09:45:37Z</time>
      </trkpt>
      <trkpt lat="44.68905" lon="7.06072">
        <ele>2457</ele>
        <time>2022-07-12T09:45:41Z</time>
      </trkpt>
      <trkpt lat="44.68888" lon="7.06098">
        <ele>2457</ele>
        <time>2022-07-12T09:46:09Z</time>
      </trkpt>
      <trkpt lat="44.68882" lon="7.06104">
        <ele>2456</ele>
        <time>2022-07-12T09:46:19Z</time>
      </trkpt>
      <trkpt lat="44.68867" lon="7.06135">
        <ele>2462</ele>
        <time>2022-07-12T09:46:49Z</time>
      </trkpt>
      <trkpt lat="44.68866" lon="7.0614">
        <ele>2462</ele>
        <time>2022-07-12T09:46:53Z</time>
      </trkpt>
      <trkpt lat="44.68864" lon="7.06144">
        <ele>2462</ele>
        <time>2022-07-12T09:46:57Z</time>
      </trkpt>
      <trkpt lat="44.68862" lon="7.06148">
        <ele>2462</ele>
        <time>2022-07-12T09:47:01Z</time>
      </trkpt>
      <trkpt lat="44.68853" lon="7.06167">
        <ele>2464</ele>
        <time>2022-07-12T09:47:20Z</time>
      </trkpt>
      <trkpt lat="44.6885" lon="7.0617">
        <ele>2464</ele>
        <time>2022-07-12T09:47:24Z</time>
      </trkpt>
      <trkpt lat="44.68847" lon="7.06174">
        <ele>2464</ele>
        <time>2022-07-12T09:47:28Z</time>
      </trkpt>
      <trkpt lat="44.6884" lon="7.06178">
        <ele>2465</ele>
        <time>2022-07-12T09:47:38Z</time>
      </trkpt>
      <trkpt lat="44.68837" lon="7.0618">
        <ele>2465</ele>
        <time>2022-07-12T09:47:43Z</time>
      </trkpt>
      <trkpt lat="44.68833" lon="7.0618">
        <ele>2463</ele>
        <time>2022-07-12T09:47:48Z</time>
      </trkpt>
      <trkpt lat="44.68827" lon="7.06187">
        <ele>2465</ele>
        <time>2022-07-12T09:47:59Z</time>
      </trkpt>
      <trkpt lat="44.68824" lon="7.06191">
        <ele>2466</ele>
        <time>2022-07-12T09:48:05Z</time>
      </trkpt>
      <trkpt lat="44.68821" lon="7.06194">
        <ele>2466</ele>
        <time>2022-07-12T09:48:10Z</time>
      </trkpt>
      <trkpt lat="44.68818" lon="7.06197">
        <ele>2467</ele>
        <time>2022-07-12T09:48:14Z</time>
      </trkpt>
      <trkpt lat="44.68813" lon="7.06205">
        <ele>2468</ele>
        <time>2022-07-12T09:48:23Z</time>
      </trkpt>
      <trkpt lat="44.68811" lon="7.06209">
        <ele>2468</ele>
        <time>2022-07-12T09:48:29Z</time>
      </trkpt>
      <trkpt lat="44.68806" lon="7.06217">
        <ele>2472</ele>
        <time>2022-07-12T09:48:41Z</time>
      </trkpt>
      <trkpt lat="44.68804" lon="7.06221">
        <ele>2475</ele>
        <time>2022-07-12T09:48:47Z</time>
      </trkpt>
      <trkpt lat="44.68802" lon="7.06226">
        <ele>2476</ele>
        <time>2022-07-12T09:48:51Z</time>
      </trkpt>
      <trkpt lat="44.688" lon="7.0623">
        <ele>2478</ele>
        <time>2022-07-12T09:48:57Z</time>
      </trkpt>
      <trkpt lat="44.68797" lon="7.06232">
        <ele>2478</ele>
        <time>2022-07-12T09:49:02Z</time>
      </trkpt>
      <trkpt lat="44.68793" lon="7.06231">
        <ele>2479</ele>
        <time>2022-07-12T09:49:08Z</time>
      </trkpt>
      <trkpt lat="44.68791" lon="7.06235">
        <ele>2480</ele>
        <time>2022-07-12T09:49:14Z</time>
      </trkpt>
      <trkpt lat="44.6879" lon="7.06241">
        <ele>2483</ele>
        <time>2022-07-12T09:49:21Z</time>
      </trkpt>
      <trkpt lat="44.6879" lon="7.06246">
        <ele>2484</ele>
        <time>2022-07-12T09:49:27Z</time>
      </trkpt>
      <trkpt lat="44.6879" lon="7.06251">
        <ele>2488</ele>
        <time>2022-07-12T09:49:32Z</time>
      </trkpt>
      <trkpt lat="44.68789" lon="7.06256">
        <ele>2489</ele>
        <time>2022-07-12T09:49:39Z</time>
      </trkpt>
      <trkpt lat="44.68786" lon="7.06267">
        <ele>2492</ele>
        <time>2022-07-12T09:49:53Z</time>
      </trkpt>
      <trkpt lat="44.6878" lon="7.06286">
        <ele>2495</ele>
        <time>2022-07-12T09:50:17Z</time>
      </trkpt>
      <trkpt lat="44.68779" lon="7.06291">
        <ele>2497</ele>
        <time>2022-07-12T09:50:23Z</time>
      </trkpt>
      <trkpt lat="44.68776" lon="7.06308">
        <ele>2499</ele>
        <time>2022-07-12T09:50:38Z</time>
      </trkpt>
      <trkpt lat="44.6877" lon="7.06322">
        <ele>2498</ele>
        <time>2022-07-12T09:50:50Z</time>
      </trkpt>
      <trkpt lat="44.6877" lon="7.06328">
        <ele>2500</ele>
        <time>2022-07-12T09:50:57Z</time>
      </trkpt>
      <trkpt lat="44.68769" lon="7.06332">
        <ele>2500</ele>
        <time>2022-07-12T09:51:02Z</time>
      </trkpt>
      <trkpt lat="44.68768" lon="7.06337">
        <ele>2501</ele>
        <time>2022-07-12T09:51:08Z</time>
      </trkpt>
      <trkpt lat="44.68762" lon="7.06343">
        <ele>2502</ele>
        <time>2022-07-12T09:51:17Z</time>
      </trkpt>
      <trkpt lat="44.68758" lon="7.06352">
        <ele>2502</ele>
        <time>2022-07-12T09:51:28Z</time>
      </trkpt>
      <trkpt lat="44.68757" lon="7.06367">
        <ele>2505</ele>
        <time>2022-07-12T09:51:43Z</time>
      </trkpt>
      <trkpt lat="44.68756" lon="7.06372">
        <ele>2506</ele>
        <time>2022-07-12T09:51:48Z</time>
      </trkpt>
      <trkpt lat="44.68754" lon="7.06378">
        <ele>2507</ele>
        <time>2022-07-12T09:51:53Z</time>
      </trkpt>
      <trkpt lat="44.68752" lon="7.06382">
        <ele>2507</ele>
        <time>2022-07-12T09:51:58Z</time>
      </trkpt>
      <trkpt lat="44.6875" lon="7.06386">
        <ele>2508</ele>
        <time>2022-07-12T09:52:03Z</time>
      </trkpt>
      <trkpt lat="44.68748" lon="7.06391">
        <ele>2508</ele>
        <time>2022-07-12T09:52:08Z</time>
      </trkpt>
      <trkpt lat="44.68746" lon="7.06395">
        <ele>2508</ele>
        <time>2022-07-12T09:52:13Z</time>
      </trkpt>
      <trkpt lat="44.68744" lon="7.064">
        <ele>2508</ele>
        <time>2022-07-12T09:52:18Z</time>
      </trkpt>
      <trkpt lat="44.68745" lon="7.06411">
        <ele>2509</ele>
        <time>2022-07-12T09:52:27Z</time>
      </trkpt>
      <trkpt lat="44.68744" lon="7.06416">
        <ele>2509</ele>
        <time>2022-07-12T09:52:31Z</time>
      </trkpt>
      <trkpt lat="44.68743" lon="7.06421">
        <ele>2509</ele>
        <time>2022-07-12T09:52:36Z</time>
      </trkpt>
      <trkpt lat="44.6874" lon="7.06422">
        <ele>2509</ele>
        <time>2022-07-12T09:52:40Z</time>
      </trkpt>
      <trkpt lat="44.68737" lon="7.06423">
        <ele>2509</ele>
        <time>2022-07-12T09:52:44Z</time>
      </trkpt>
      <trkpt lat="44.68722" lon="7.06454">
        <ele>2511</ele>
        <time>2022-07-12T09:53:16Z</time>
      </trkpt>
      <trkpt lat="44.6872" lon="7.06458">
        <ele>2512</ele>
        <time>2022-07-12T09:53:21Z</time>
      </trkpt>
      <trkpt lat="44.68718" lon="7.06462">
        <ele>2512</ele>
        <time>2022-07-12T09:53:26Z</time>
      </trkpt>
      <trkpt lat="44.68719" lon="7.06467">
        <ele>2511</ele>
        <time>2022-07-12T09:53:31Z</time>
      </trkpt>
      <trkpt lat="44.68723" lon="7.06468">
        <ele>2511</ele>
        <time>2022-07-12T09:53:37Z</time>
      </trkpt>
      <trkpt lat="44.68724" lon="7.06474">
        <ele>2511</ele>
        <time>2022-07-12T09:53:42Z</time>
      </trkpt>
      <trkpt lat="44.68722" lon="7.06478">
        <ele>2511</ele>
        <time>2022-07-12T09:53:46Z</time>
      </trkpt>
      <trkpt lat="44.68726" lon="7.0648">
        <ele>2511</ele>
        <time>2022-07-12T09:53:54Z</time>
      </trkpt>
      <trkpt lat="44.68725" lon="7.06486">
        <ele>2511</ele>
        <time>2022-07-12T09:53:58Z</time>
      </trkpt>
      <trkpt lat="44.68725" lon="7.06491">
        <ele>2512</ele>
        <time>2022-07-12T09:54:02Z</time>
      </trkpt>
      <trkpt lat="44.68733" lon="7.06487">
        <ele>2514</ele>
        <time>2022-07-12T09:54:10Z</time>
      </trkpt>
      <trkpt lat="44.68736" lon="7.06483">
        <ele>2513</ele>
        <time>2022-07-12T09:54:13Z</time>
      </trkpt>
      <trkpt lat="44.68733" lon="7.06482">
        <ele>2512</ele>
        <time>2022-07-12T10:00:09Z</time>
      </trkpt>
      <trkpt lat="44.6873" lon="7.0648">
        <ele>2512</ele>
        <time>2022-07-12T10:00:34Z</time>
      </trkpt>
      <trkpt lat="44.68726" lon="7.06479">
        <ele>2514</ele>
        <time>2022-07-12T10:00:39Z</time>
      </trkpt>
      <trkpt lat="44.68725" lon="7.06475">
        <ele>2514</ele>
        <time>2022-07-12T10:00:46Z</time>
      </trkpt>
      <trkpt lat="44.68722" lon="7.06472">
        <ele>2514</ele>
        <time>2022-07-12T10:01:14Z</time>
      </trkpt>
      <trkpt lat="44.68714" lon="7.06472">
        <ele>2513</ele>
        <time>2022-07-12T10:01:24Z</time>
      </trkpt>
      <trkpt lat="44.68712" lon="7.06474">
        <ele>2513</ele>
        <time>2022-07-12T10:01:28Z</time>
      </trkpt>
      <trkpt lat="44.68707" lon="7.06481">
        <ele>2515</ele>
        <time>2022-07-12T10:01:37Z</time>
      </trkpt>
      <trkpt lat="44.68703" lon="7.06483">
        <ele>2515</ele>
        <time>2022-07-12T10:01:42Z</time>
      </trkpt>
      <trkpt lat="44.687" lon="7.06482">
        <ele>2514</ele>
        <time>2022-07-12T10:01:46Z</time>
      </trkpt>
      <trkpt lat="44.68696" lon="7.06479">
        <ele>2513</ele>
        <time>2022-07-12T10:01:50Z</time>
      </trkpt>
      <trkpt lat="44.68693" lon="7.06477">
        <ele>2512</ele>
        <time>2022-07-12T10:01:54Z</time>
      </trkpt>
      <trkpt lat="44.68689" lon="7.06475">
        <ele>2511</ele>
        <time>2022-07-12T10:01:58Z</time>
      </trkpt>
      <trkpt lat="44.68682" lon="7.06478">
        <ele>2512</ele>
        <time>2022-07-12T10:02:07Z</time>
      </trkpt>
      <trkpt lat="44.68678" lon="7.06478">
        <ele>2514</ele>
        <time>2022-07-12T10:02:12Z</time>
      </trkpt>
      <trkpt lat="44.68674" lon="7.06479">
        <ele>2514</ele>
        <time>2022-07-12T10:02:16Z</time>
      </trkpt>
      <trkpt lat="44.68671" lon="7.06481">
        <ele>2514</ele>
        <time>2022-07-12T10:02:21Z</time>
      </trkpt>
      <trkpt lat="44.68667" lon="7.06483">
        <ele>2513</ele>
        <time>2022-07-12T10:02:26Z</time>
      </trkpt>
      <trkpt lat="44.68652" lon="7.06484">
        <ele>2514</ele>
        <time>2022-07-12T10:02:43Z</time>
      </trkpt>
      <trkpt lat="44.68649" lon="7.06485">
        <ele>2514</ele>
        <time>2022-07-12T10:02:47Z</time>
      </trkpt>
      <trkpt lat="44.68645" lon="7.06484">
        <ele>2514</ele>
        <time>2022-07-12T10:02:52Z</time>
      </trkpt>
      <trkpt lat="44.68642" lon="7.06482">
        <ele>2514</ele>
        <time>2022-07-12T10:02:56Z</time>
      </trkpt>
      <trkpt lat="44.68634" lon="7.06481">
        <ele>2514</ele>
        <time>2022-07-12T10:03:04Z</time>
      </trkpt>
      <trkpt lat="44.6863" lon="7.06479">
        <ele>2514</ele>
        <time>2022-07-12T10:03:08Z</time>
      </trkpt>
      <trkpt lat="44.68627" lon="7.06479">
        <ele>2514</ele>
        <time>2022-07-12T10:03:13Z</time>
      </trkpt>
      <trkpt lat="44.68623" lon="7.06481">
        <ele>2514</ele>
        <time>2022-07-12T10:03:19Z</time>
      </trkpt>
      <trkpt lat="44.6862" lon="7.06482">
        <ele>2516</ele>
        <time>2022-07-12T10:03:25Z</time>
      </trkpt>
      <trkpt lat="44.68618" lon="7.06486">
        <ele>2517</ele>
        <time>2022-07-12T10:03:29Z</time>
      </trkpt>
      <trkpt lat="44.68616" lon="7.06491">
        <ele>2519</ele>
        <time>2022-07-12T10:03:34Z</time>
      </trkpt>
      <trkpt lat="44.68606" lon="7.06504">
        <ele>2523</ele>
        <time>2022-07-12T10:03:54Z</time>
      </trkpt>
      <trkpt lat="44.68603" lon="7.06507">
        <ele>2524</ele>
        <time>2022-07-12T10:04:00Z</time>
      </trkpt>
      <trkpt lat="44.68599" lon="7.06507">
        <ele>2526</ele>
        <time>2022-07-12T10:04:07Z</time>
      </trkpt>
      <trkpt lat="44.68595" lon="7.06507">
        <ele>2527</ele>
        <time>2022-07-12T10:04:13Z</time>
      </trkpt>
      <trkpt lat="44.68592" lon="7.06504">
        <ele>2527</ele>
        <time>2022-07-12T10:04:18Z</time>
      </trkpt>
      <trkpt lat="44.6859" lon="7.06488">
        <ele>2527</ele>
        <time>2022-07-12T10:04:36Z</time>
      </trkpt>
      <trkpt lat="44.68588" lon="7.06484">
        <ele>2528</ele>
        <time>2022-07-12T10:04:42Z</time>
      </trkpt>
      <trkpt lat="44.68586" lon="7.0648">
        <ele>2528</ele>
        <time>2022-07-12T10:04:48Z</time>
      </trkpt>
      <trkpt lat="44.68586" lon="7.06469">
        <ele>2530</ele>
        <time>2022-07-12T10:04:58Z</time>
      </trkpt>
      <trkpt lat="44.68583" lon="7.06459">
        <ele>2530</ele>
        <time>2022-07-12T10:05:09Z</time>
      </trkpt>
      <trkpt lat="44.68584" lon="7.06454">
        <ele>2530</ele>
        <time>2022-07-12T10:05:14Z</time>
      </trkpt>
      <trkpt lat="44.68583" lon="7.06449">
        <ele>2532</ele>
        <time>2022-07-12T10:05:21Z</time>
      </trkpt>
      <trkpt lat="44.68583" lon="7.06435">
        <ele>2534</ele>
        <time>2022-07-12T10:05:39Z</time>
      </trkpt>
      <trkpt lat="44.68581" lon="7.06431">
        <ele>2536</ele>
        <time>2022-07-12T10:05:44Z</time>
      </trkpt>
      <trkpt lat="44.68577" lon="7.06416">
        <ele>2538</ele>
        <time>2022-07-12T10:06:05Z</time>
      </trkpt>
      <trkpt lat="44.68577" lon="7.06411">
        <ele>2540</ele>
        <time>2022-07-12T10:06:10Z</time>
      </trkpt>
      <trkpt lat="44.68578" lon="7.06406">
        <ele>2541</ele>
        <time>2022-07-12T10:06:15Z</time>
      </trkpt>
      <trkpt lat="44.6858" lon="7.06401">
        <ele>2544</ele>
        <time>2022-07-12T10:06:21Z</time>
      </trkpt>
      <trkpt lat="44.6858" lon="7.06396">
        <ele>2545</ele>
        <time>2022-07-12T10:06:25Z</time>
      </trkpt>
      <trkpt lat="44.68577" lon="7.06392">
        <ele>2541</ele>
        <time>2022-07-12T10:06:29Z</time>
      </trkpt>
      <trkpt lat="44.68577" lon="7.06387">
        <ele>2541</ele>
        <time>2022-07-12T10:06:40Z</time>
      </trkpt>
      <trkpt lat="44.68582" lon="7.06379">
        <ele>2547</ele>
        <time>2022-07-12T10:06:50Z</time>
      </trkpt>
      <trkpt lat="44.68583" lon="7.06374">
        <ele>2549</ele>
        <time>2022-07-12T10:06:55Z</time>
      </trkpt>
      <trkpt lat="44.68581" lon="7.06369">
        <ele>2549</ele>
        <time>2022-07-12T10:07:02Z</time>
      </trkpt>
      <trkpt lat="44.6858" lon="7.06364">
        <ele>2550</ele>
        <time>2022-07-12T10:07:09Z</time>
      </trkpt>
      <trkpt lat="44.68581" lon="7.06358">
        <ele>2551</ele>
        <time>2022-07-12T10:07:15Z</time>
      </trkpt>
      <trkpt lat="44.68581" lon="7.06353">
        <ele>2552</ele>
        <time>2022-07-12T10:07:22Z</time>
      </trkpt>
      <trkpt lat="44.6858" lon="7.06348">
        <ele>2553</ele>
        <time>2022-07-12T10:07:32Z</time>
      </trkpt>
      <trkpt lat="44.68581" lon="7.06343">
        <ele>2556</ele>
        <time>2022-07-12T10:07:39Z</time>
      </trkpt>
      <trkpt lat="44.6858" lon="7.06338">
        <ele>2556</ele>
        <time>2022-07-12T10:07:46Z</time>
      </trkpt>
      <trkpt lat="44.6858" lon="7.06333">
        <ele>2556</ele>
        <time>2022-07-12T10:07:54Z</time>
      </trkpt>
      <trkpt lat="44.68581" lon="7.06328">
        <ele>2557</ele>
        <time>2022-07-12T10:07:58Z</time>
      </trkpt>
      <trkpt lat="44.68583" lon="7.06324">
        <ele>2558</ele>
        <time>2022-07-12T10:08:03Z</time>
      </trkpt>
      <trkpt lat="44.68584" lon="7.06319">
        <ele>2559</ele>
        <time>2022-07-12T10:08:10Z</time>
      </trkpt>
      <trkpt lat="44.6858" lon="7.06304">
        <ele>2561</ele>
        <time>2022-07-12T10:08:30Z</time>
      </trkpt>
      <trkpt lat="44.6858" lon="7.06299">
        <ele>2560</ele>
        <time>2022-07-12T10:08:35Z</time>
      </trkpt>
      <trkpt lat="44.68578" lon="7.06295">
        <ele>2561</ele>
        <time>2022-07-12T10:08:42Z</time>
      </trkpt>
      <trkpt lat="44.68577" lon="7.0629">
        <ele>2562</ele>
        <time>2022-07-12T10:08:49Z</time>
      </trkpt>
      <trkpt lat="44.68575" lon="7.06286">
        <ele>2563</ele>
        <time>2022-07-12T10:08:54Z</time>
      </trkpt>
      <trkpt lat="44.68575" lon="7.06281">
        <ele>2565</ele>
        <time>2022-07-12T10:09:02Z</time>
      </trkpt>
      <trkpt lat="44.68576" lon="7.06266">
        <ele>2567</ele>
        <time>2022-07-12T10:09:17Z</time>
      </trkpt>
      <trkpt lat="44.68575" lon="7.06261">
        <ele>2568</ele>
        <time>2022-07-12T10:09:24Z</time>
      </trkpt>
      <trkpt lat="44.68573" lon="7.06258">
        <ele>2569</ele>
        <time>2022-07-12T10:09:31Z</time>
      </trkpt>
      <trkpt lat="44.68571" lon="7.06252">
        <ele>2569</ele>
        <time>2022-07-12T10:09:37Z</time>
      </trkpt>
      <trkpt lat="44.68571" lon="7.06247">
        <ele>2569</ele>
        <time>2022-07-12T10:09:43Z</time>
      </trkpt>
      <trkpt lat="44.6857" lon="7.06237">
        <ele>2571</ele>
        <time>2022-07-12T10:09:55Z</time>
      </trkpt>
      <trkpt lat="44.68569" lon="7.06232">
        <ele>2571</ele>
        <time>2022-07-12T10:10:01Z</time>
      </trkpt>
      <trkpt lat="44.68568" lon="7.06228">
        <ele>2571</ele>
        <time>2022-07-12T10:10:05Z</time>
      </trkpt>
      <trkpt lat="44.68567" lon="7.06223">
        <ele>2571</ele>
        <time>2022-07-12T10:10:11Z</time>
      </trkpt>
      <trkpt lat="44.68567" lon="7.06213">
        <ele>2573</ele>
        <time>2022-07-12T10:10:22Z</time>
      </trkpt>
      <trkpt lat="44.68565" lon="7.06209">
        <ele>2574</ele>
        <time>2022-07-12T10:10:29Z</time>
      </trkpt>
      <trkpt lat="44.68564" lon="7.06198">
        <ele>2577</ele>
        <time>2022-07-12T10:10:44Z</time>
      </trkpt>
      <trkpt lat="44.6856" lon="7.06199">
        <ele>2578</ele>
        <time>2022-07-12T10:10:51Z</time>
      </trkpt>
      <trkpt lat="44.68556" lon="7.06208">
        <ele>2584</ele>
        <time>2022-07-12T10:11:04Z</time>
      </trkpt>
      <trkpt lat="44.68553" lon="7.06211">
        <ele>2585</ele>
        <time>2022-07-12T10:11:10Z</time>
      </trkpt>
      <trkpt lat="44.6855" lon="7.06214">
        <ele>2586</ele>
        <time>2022-07-12T10:11:19Z</time>
      </trkpt>
      <trkpt lat="44.68547" lon="7.06216">
        <ele>2587</ele>
        <time>2022-07-12T10:11:29Z</time>
      </trkpt>
      <trkpt lat="44.68545" lon="7.06221">
        <ele>2590</ele>
        <time>2022-07-12T10:11:38Z</time>
      </trkpt>
      <trkpt lat="44.68542" lon="7.0622">
        <ele>2592</ele>
        <time>2022-07-12T10:11:49Z</time>
      </trkpt>
      <trkpt lat="44.6853" lon="7.06234">
        <ele>2598</ele>
        <time>2022-07-12T10:12:21Z</time>
      </trkpt>
      <trkpt lat="44.68528" lon="7.06237">
        <ele>2600</ele>
        <time>2022-07-12T10:12:29Z</time>
      </trkpt>
      <trkpt lat="44.68525" lon="7.06241">
        <ele>2601</ele>
        <time>2022-07-12T10:12:35Z</time>
      </trkpt>
      <trkpt lat="44.68522" lon="7.06241">
        <ele>2602</ele>
        <time>2022-07-12T10:12:47Z</time>
      </trkpt>
      <trkpt lat="44.68519" lon="7.06244">
        <ele>2601</ele>
        <time>2022-07-12T10:12:52Z</time>
      </trkpt>
      <trkpt lat="44.68517" lon="7.06248">
        <ele>2603</ele>
        <time>2022-07-12T10:12:59Z</time>
      </trkpt>
      <trkpt lat="44.68514" lon="7.06249">
        <ele>2604</ele>
        <time>2022-07-12T10:13:09Z</time>
      </trkpt>
      <trkpt lat="44.68511" lon="7.0625">
        <ele>2606</ele>
        <time>2022-07-12T10:13:16Z</time>
      </trkpt>
      <trkpt lat="44.6851" lon="7.06241">
        <ele>2606</ele>
        <time>2022-07-12T10:13:29Z</time>
      </trkpt>
      <trkpt lat="44.68511" lon="7.06236">
        <ele>2606</ele>
        <time>2022-07-12T10:13:36Z</time>
      </trkpt>
      <trkpt lat="44.6851" lon="7.06231">
        <ele>2607</ele>
        <time>2022-07-12T10:13:43Z</time>
      </trkpt>
      <trkpt lat="44.6851" lon="7.06227">
        <ele>2608</ele>
        <time>2022-07-12T10:13:49Z</time>
      </trkpt>
      <trkpt lat="44.6851" lon="7.06216">
        <ele>2609</ele>
        <time>2022-07-12T10:14:01Z</time>
      </trkpt>
      <trkpt lat="44.68508" lon="7.06213">
        <ele>2609</ele>
        <time>2022-07-12T10:14:08Z</time>
      </trkpt>
      <trkpt lat="44.6851" lon="7.06209">
        <ele>2610</ele>
        <time>2022-07-12T10:14:14Z</time>
      </trkpt>
      <trkpt lat="44.68512" lon="7.06205">
        <ele>2611</ele>
        <time>2022-07-12T10:14:19Z</time>
      </trkpt>
      <trkpt lat="44.68515" lon="7.06201">
        <ele>2614</ele>
        <time>2022-07-12T10:14:25Z</time>
      </trkpt>
      <trkpt lat="44.68516" lon="7.06196">
        <ele>2615</ele>
        <time>2022-07-12T10:14:31Z</time>
      </trkpt>
      <trkpt lat="44.68516" lon="7.06191">
        <ele>2618</ele>
        <time>2022-07-12T10:14:40Z</time>
      </trkpt>
      <trkpt lat="44.68515" lon="7.06186">
        <ele>2618</ele>
        <time>2022-07-12T10:14:48Z</time>
      </trkpt>
      <trkpt lat="44.68513" lon="7.06174">
        <ele>2619</ele>
        <time>2022-07-12T10:14:58Z</time>
      </trkpt>
      <trkpt lat="44.68513" lon="7.06169">
        <ele>2620</ele>
        <time>2022-07-12T10:15:10Z</time>
      </trkpt>
      <trkpt lat="44.68511" lon="7.06165">
        <ele>2619</ele>
        <time>2022-07-12T10:15:17Z</time>
      </trkpt>
      <trkpt lat="44.6851" lon="7.06161">
        <ele>2619</ele>
        <time>2022-07-12T10:15:28Z</time>
      </trkpt>
      <trkpt lat="44.68508" lon="7.06156">
        <ele>2623</ele>
        <time>2022-07-12T10:15:39Z</time>
      </trkpt>
      <trkpt lat="44.68506" lon="7.06152">
        <ele>2623</ele>
        <time>2022-07-12T10:15:48Z</time>
      </trkpt>
      <trkpt lat="44.68503" lon="7.06153">
        <ele>2626</ele>
        <time>2022-07-12T10:15:56Z</time>
      </trkpt>
      <trkpt lat="44.68502" lon="7.06158">
        <ele>2628</ele>
        <time>2022-07-12T10:16:13Z</time>
      </trkpt>
      <trkpt lat="44.68497" lon="7.06164">
        <ele>2634</ele>
        <time>2022-07-12T10:16:30Z</time>
      </trkpt>
      <trkpt lat="44.68494" lon="7.06168">
        <ele>2636</ele>
        <time>2022-07-12T10:16:39Z</time>
      </trkpt>
      <trkpt lat="44.68493" lon="7.06172">
        <ele>2638</ele>
        <time>2022-07-12T10:16:48Z</time>
      </trkpt>
      <trkpt lat="44.68487" lon="7.06178">
        <ele>2642</ele>
        <time>2022-07-12T10:17:09Z</time>
      </trkpt>
      <trkpt lat="44.68484" lon="7.0618">
        <ele>2645</ele>
        <time>2022-07-12T10:17:18Z</time>
      </trkpt>
      <trkpt lat="44.68481" lon="7.06178">
        <ele>2645</ele>
        <time>2022-07-12T10:17:24Z</time>
      </trkpt>
      <trkpt lat="44.68472" lon="7.06187">
        <ele>2648</ele>
        <time>2022-07-12T10:17:43Z</time>
      </trkpt>
      <trkpt lat="44.68468" lon="7.06187">
        <ele>2648</ele>
        <time>2022-07-12T10:17:52Z</time>
      </trkpt>
      <trkpt lat="44.68465" lon="7.06187">
        <ele>2650</ele>
        <time>2022-07-12T10:17:59Z</time>
      </trkpt>
      <trkpt lat="44.68458" lon="7.06191">
        <ele>2651</ele>
        <time>2022-07-12T10:18:11Z</time>
      </trkpt>
      <trkpt lat="44.68449" lon="7.06192">
        <ele>2653</ele>
        <time>2022-07-12T10:18:30Z</time>
      </trkpt>
      <trkpt lat="44.68448" lon="7.06196">
        <ele>2654</ele>
        <time>2022-07-12T10:18:37Z</time>
      </trkpt>
      <trkpt lat="44.68447" lon="7.06202">
        <ele>2657</ele>
        <time>2022-07-12T10:18:44Z</time>
      </trkpt>
      <trkpt lat="44.68444" lon="7.06211">
        <ele>2658</ele>
        <time>2022-07-12T10:18:59Z</time>
      </trkpt>
      <trkpt lat="44.68442" lon="7.06215">
        <ele>2659</ele>
        <time>2022-07-12T10:19:08Z</time>
      </trkpt>
      <trkpt lat="44.68441" lon="7.0622">
        <ele>2660</ele>
        <time>2022-07-12T10:19:15Z</time>
      </trkpt>
      <trkpt lat="44.68439" lon="7.06224">
        <ele>2661</ele>
        <time>2022-07-12T10:19:21Z</time>
      </trkpt>
      <trkpt lat="44.68436" lon="7.06228">
        <ele>2662</ele>
        <time>2022-07-12T10:19:29Z</time>
      </trkpt>
      <trkpt lat="44.68433" lon="7.06232">
        <ele>2662</ele>
        <time>2022-07-12T10:19:36Z</time>
      </trkpt>
      <trkpt lat="44.68431" lon="7.06242">
        <ele>2663</ele>
        <time>2022-07-12T10:19:47Z</time>
      </trkpt>
      <trkpt lat="44.6843" lon="7.06247">
        <ele>2661</ele>
        <time>2022-07-12T10:19:52Z</time>
      </trkpt>
      <trkpt lat="44.68428" lon="7.06252">
        <ele>2661</ele>
        <time>2022-07-12T10:19:58Z</time>
      </trkpt>
      <trkpt lat="44.68425" lon="7.06254">
        <ele>2662</ele>
        <time>2022-07-12T10:20:08Z</time>
      </trkpt>
      <trkpt lat="44.68416" lon="7.06258">
        <ele>2665</ele>
        <time>2022-07-12T10:20:32Z</time>
      </trkpt>
      <trkpt lat="44.68413" lon="7.06261">
        <ele>2669</ele>
        <time>2022-07-12T10:20:39Z</time>
      </trkpt>
      <trkpt lat="44.6841" lon="7.06261">
        <ele>2671</ele>
        <time>2022-07-12T10:20:50Z</time>
      </trkpt>
      <trkpt lat="44.68405" lon="7.06269">
        <ele>2674</ele>
        <time>2022-07-12T10:21:08Z</time>
      </trkpt>
      <trkpt lat="44.68401" lon="7.06269">
        <ele>2675</ele>
        <time>2022-07-12T10:21:19Z</time>
      </trkpt>
      <trkpt lat="44.68398" lon="7.06271">
        <ele>2676</ele>
        <time>2022-07-12T10:21:27Z</time>
      </trkpt>
      <trkpt lat="44.68395" lon="7.06274">
        <ele>2678</ele>
        <time>2022-07-12T10:21:39Z</time>
      </trkpt>
      <trkpt lat="44.68392" lon="7.06277">
        <ele>2679</ele>
        <time>2022-07-12T10:21:48Z</time>
      </trkpt>
      <trkpt lat="44.6839" lon="7.06281">
        <ele>2682</ele>
        <time>2022-07-12T10:21:56Z</time>
      </trkpt>
      <trkpt lat="44.6839" lon="7.06287">
        <ele>2682</ele>
        <time>2022-07-12T10:22:04Z</time>
      </trkpt>
      <trkpt lat="44.68385" lon="7.06297">
        <ele>2684</ele>
        <time>2022-07-12T10:22:27Z</time>
      </trkpt>
      <trkpt lat="44.6838" lon="7.06308">
        <ele>2686</ele>
        <time>2022-07-12T10:22:46Z</time>
      </trkpt>
      <trkpt lat="44.68376" lon="7.06319">
        <ele>2691</ele>
        <time>2022-07-12T10:23:03Z</time>
      </trkpt>
      <trkpt lat="44.68373" lon="7.06338">
        <ele>2694</ele>
        <time>2022-07-12T10:23:24Z</time>
      </trkpt>
      <trkpt lat="44.6837" lon="7.06353">
        <ele>2695</ele>
        <time>2022-07-12T10:23:38Z</time>
      </trkpt>
      <trkpt lat="44.68368" lon="7.06358">
        <ele>2695</ele>
        <time>2022-07-12T10:23:45Z</time>
      </trkpt>
      <trkpt lat="44.68369" lon="7.06363">
        <ele>2696</ele>
        <time>2022-07-12T10:23:51Z</time>
      </trkpt>
      <trkpt lat="44.68367" lon="7.06367">
        <ele>2697</ele>
        <time>2022-07-12T10:23:58Z</time>
      </trkpt>
      <trkpt lat="44.68364" lon="7.06371">
        <ele>2699</ele>
        <time>2022-07-12T10:24:06Z</time>
      </trkpt>
      <trkpt lat="44.68362" lon="7.06376">
        <ele>2700</ele>
        <time>2022-07-12T10:24:13Z</time>
      </trkpt>
      <trkpt lat="44.68364" lon="7.06391">
        <ele>2701</ele>
        <time>2022-07-12T10:24:29Z</time>
      </trkpt>
      <trkpt lat="44.68362" lon="7.06395">
        <ele>2701</ele>
        <time>2022-07-12T10:24:35Z</time>
      </trkpt>
      <trkpt lat="44.68361" lon="7.06401">
        <ele>2701</ele>
        <time>2022-07-12T10:24:40Z</time>
      </trkpt>
      <trkpt lat="44.6836" lon="7.06406">
        <ele>2701</ele>
        <time>2022-07-12T10:24:45Z</time>
      </trkpt>
      <trkpt lat="44.68358" lon="7.0641">
        <ele>2703</ele>
        <time>2022-07-12T10:24:52Z</time>
      </trkpt>
      <trkpt lat="44.68355" lon="7.06413">
        <ele>2704</ele>
        <time>2022-07-12T10:24:59Z</time>
      </trkpt>
      <trkpt lat="44.68352" lon="7.06415">
        <ele>2705</ele>
        <time>2022-07-12T10:25:06Z</time>
      </trkpt>
      <trkpt lat="44.68349" lon="7.06419">
        <ele>2706</ele>
        <time>2022-07-12T10:25:13Z</time>
      </trkpt>
      <trkpt lat="44.6835" lon="7.06424">
        <ele>2706</ele>
        <time>2022-07-12T10:25:19Z</time>
      </trkpt>
      <trkpt lat="44.68344" lon="7.06437">
        <ele>2707</ele>
        <time>2022-07-12T10:25:35Z</time>
      </trkpt>
      <trkpt lat="44.68337" lon="7.06449">
        <ele>2709</ele>
        <time>2022-07-12T10:25:51Z</time>
      </trkpt>
      <trkpt lat="44.68333" lon="7.06458">
        <ele>2710</ele>
        <time>2022-07-12T10:26:02Z</time>
      </trkpt>
      <trkpt lat="44.68331" lon="7.06463">
        <ele>2710</ele>
        <time>2022-07-12T10:26:07Z</time>
      </trkpt>
      <trkpt lat="44.68329" lon="7.06474">
        <ele>2708</ele>
        <time>2022-07-12T10:26:17Z</time>
      </trkpt>
      <trkpt lat="44.68324" lon="7.0648">
        <ele>2709</ele>
        <time>2022-07-12T10:26:27Z</time>
      </trkpt>
      <trkpt lat="44.68321" lon="7.06484">
        <ele>2710</ele>
        <time>2022-07-12T10:26:33Z</time>
      </trkpt>
      <trkpt lat="44.6832" lon="7.06489">
        <ele>2711</ele>
        <time>2022-07-12T10:26:39Z</time>
      </trkpt>
      <trkpt lat="44.68318" lon="7.06499">
        <ele>2712</ele>
        <time>2022-07-12T10:26:53Z</time>
      </trkpt>
      <trkpt lat="44.68319" lon="7.06504">
        <ele>2712</ele>
        <time>2022-07-12T10:26:59Z</time>
      </trkpt>
      <trkpt lat="44.68323" lon="7.06507">
        <ele>2712</ele>
        <time>2022-07-12T10:27:05Z</time>
      </trkpt>
      <trkpt lat="44.68326" lon="7.0651">
        <ele>2712</ele>
        <time>2022-07-12T10:27:14Z</time>
      </trkpt>
      <trkpt lat="44.68328" lon="7.06515">
        <ele>2711</ele>
        <time>2022-07-12T10:27:19Z</time>
      </trkpt>
      <trkpt lat="44.68328" lon="7.0652">
        <ele>2712</ele>
        <time>2022-07-12T10:27:24Z</time>
      </trkpt>
      <trkpt lat="44.68327" lon="7.06526">
        <ele>2712</ele>
        <time>2022-07-12T10:27:29Z</time>
      </trkpt>
      <trkpt lat="44.68326" lon="7.0653">
        <ele>2712</ele>
        <time>2022-07-12T10:27:33Z</time>
      </trkpt>
      <trkpt lat="44.68324" lon="7.06535">
        <ele>2713</ele>
        <time>2022-07-12T10:27:39Z</time>
      </trkpt>
      <trkpt lat="44.68322" lon="7.06539">
        <ele>2714</ele>
        <time>2022-07-12T10:27:45Z</time>
      </trkpt>
      <trkpt lat="44.68322" lon="7.06545">
        <ele>2714</ele>
        <time>2022-07-12T10:27:50Z</time>
      </trkpt>
      <trkpt lat="44.6832" lon="7.06555">
        <ele>2715</ele>
        <time>2022-07-12T10:28:04Z</time>
      </trkpt>
      <trkpt lat="44.68317" lon="7.06557">
        <ele>2716</ele>
        <time>2022-07-12T10:28:16Z</time>
      </trkpt>
      <trkpt lat="44.68314" lon="7.06561">
        <ele>2717</ele>
        <time>2022-07-12T10:28:36Z</time>
      </trkpt>
      <trkpt lat="44.68311" lon="7.06563">
        <ele>2718</ele>
        <time>2022-07-12T10:28:49Z</time>
      </trkpt>
      <trkpt lat="44.68308" lon="7.06564">
        <ele>2719</ele>
        <time>2022-07-12T10:28:58Z</time>
      </trkpt>
      <trkpt lat="44.68304" lon="7.06564">
        <ele>2720</ele>
        <time>2022-07-12T10:29:05Z</time>
      </trkpt>
      <trkpt lat="44.68298" lon="7.0657">
        <ele>2720</ele>
        <time>2022-07-12T10:29:24Z</time>
      </trkpt>
      <trkpt lat="44.68295" lon="7.06571">
        <ele>2721</ele>
        <time>2022-07-12T10:29:34Z</time>
      </trkpt>
      <trkpt lat="44.68291" lon="7.06572">
        <ele>2722</ele>
        <time>2022-07-12T10:29:42Z</time>
      </trkpt>
      <trkpt lat="44.68288" lon="7.06569">
        <ele>2724</ele>
        <time>2022-07-12T10:29:48Z</time>
      </trkpt>
      <trkpt lat="44.68284" lon="7.0657">
        <ele>2725</ele>
        <time>2022-07-12T10:29:56Z</time>
      </trkpt>
      <trkpt lat="44.68281" lon="7.06569">
        <ele>2726</ele>
        <time>2022-07-12T10:30:03Z</time>
      </trkpt>
      <trkpt lat="44.68277" lon="7.06569">
        <ele>2727</ele>
        <time>2022-07-12T10:30:13Z</time>
      </trkpt>
      <trkpt lat="44.68274" lon="7.06569">
        <ele>2729</ele>
        <time>2022-07-12T10:30:20Z</time>
      </trkpt>
      <trkpt lat="44.6827" lon="7.06567">
        <ele>2730</ele>
        <time>2022-07-12T10:30:27Z</time>
      </trkpt>
      <trkpt lat="44.68267" lon="7.06565">
        <ele>2730</ele>
        <time>2022-07-12T10:30:36Z</time>
      </trkpt>
      <trkpt lat="44.68264" lon="7.06563">
        <ele>2730</ele>
        <time>2022-07-12T10:30:42Z</time>
      </trkpt>
      <trkpt lat="44.6826" lon="7.06564">
        <ele>2730</ele>
        <time>2022-07-12T10:30:50Z</time>
      </trkpt>
      <trkpt lat="44.68257" lon="7.06566">
        <ele>2731</ele>
        <time>2022-07-12T10:30:58Z</time>
      </trkpt>
      <trkpt lat="44.68254" lon="7.06569">
        <ele>2733</ele>
        <time>2022-07-12T10:31:05Z</time>
      </trkpt>
      <trkpt lat="44.68249" lon="7.06576">
        <ele>2735</ele>
        <time>2022-07-12T10:31:18Z</time>
      </trkpt>
      <trkpt lat="44.68246" lon="7.0658">
        <ele>2736</ele>
        <time>2022-07-12T10:31:26Z</time>
      </trkpt>
      <trkpt lat="44.68241" lon="7.06588">
        <ele>2736</ele>
        <time>2022-07-12T10:31:39Z</time>
      </trkpt>
      <trkpt lat="44.6824" lon="7.06593">
        <ele>2738</ele>
        <time>2022-07-12T10:31:49Z</time>
      </trkpt>
      <trkpt lat="44.68237" lon="7.06596">
        <ele>2739</ele>
        <time>2022-07-12T10:31:57Z</time>
      </trkpt>
      <trkpt lat="44.68234" lon="7.06599">
        <ele>2739</ele>
        <time>2022-07-12T10:32:04Z</time>
      </trkpt>
      <trkpt lat="44.68234" lon="7.06604">
        <ele>2739</ele>
        <time>2022-07-12T10:32:12Z</time>
      </trkpt>
      <trkpt lat="44.68231" lon="7.06606">
        <ele>2740</ele>
        <time>2022-07-12T10:32:25Z</time>
      </trkpt>
      <trkpt lat="44.68227" lon="7.06607">
        <ele>2740</ele>
        <time>2022-07-12T10:32:35Z</time>
      </trkpt>
      <trkpt lat="44.68226" lon="7.06611">
        <ele>2744</ele>
        <time>2022-07-12T10:32:47Z</time>
      </trkpt>
      <trkpt lat="44.68224" lon="7.06615">
        <ele>2745</ele>
        <time>2022-07-12T10:33:00Z</time>
      </trkpt>
      <trkpt lat="44.6822" lon="7.06614">
        <ele>2748</ele>
        <time>2022-07-12T10:33:10Z</time>
      </trkpt>
      <trkpt lat="44.6822" lon="7.06619">
        <ele>2749</ele>
        <time>2022-07-12T10:33:21Z</time>
      </trkpt>
      <trkpt lat="44.68219" lon="7.06624">
        <ele>2751</ele>
        <time>2022-07-12T10:33:29Z</time>
      </trkpt>
      <trkpt lat="44.68216" lon="7.06628">
        <ele>2753</ele>
        <time>2022-07-12T10:33:40Z</time>
      </trkpt>
      <trkpt lat="44.68214" lon="7.06633">
        <ele>2754</ele>
        <time>2022-07-12T10:33:46Z</time>
      </trkpt>
      <trkpt lat="44.68215" lon="7.06638">
        <ele>2754</ele>
        <time>2022-07-12T10:33:51Z</time>
      </trkpt>
      <trkpt lat="44.68217" lon="7.06643">
        <ele>2754</ele>
        <time>2022-07-12T10:34:04Z</time>
      </trkpt>
      <trkpt lat="44.68218" lon="7.06648">
        <ele>2755</ele>
        <time>2022-07-12T10:34:23Z</time>
      </trkpt>
      <trkpt lat="44.68215" lon="7.06653">
        <ele>2754</ele>
        <time>2022-07-12T10:34:31Z</time>
      </trkpt>
      <trkpt lat="44.68216" lon="7.06659">
        <ele>2753</ele>
        <time>2022-07-12T10:34:40Z</time>
      </trkpt>
      <trkpt lat="44.68214" lon="7.06664">
        <ele>2753</ele>
        <time>2022-07-12T10:34:47Z</time>
      </trkpt>
      <trkpt lat="44.6821" lon="7.06663">
        <ele>2752</ele>
        <time>2022-07-12T10:34:51Z</time>
      </trkpt>
      <trkpt lat="44.68207" lon="7.06667">
        <ele>2752</ele>
        <time>2022-07-12T10:34:59Z</time>
      </trkpt>
      <trkpt lat="44.68204" lon="7.06673">
        <ele>2754</ele>
        <time>2022-07-12T10:35:15Z</time>
      </trkpt>
      <trkpt lat="44.68207" lon="7.06677">
        <ele>2754</ele>
        <time>2022-07-12T10:35:26Z</time>
      </trkpt>
      <trkpt lat="44.68207" lon="7.06683">
        <ele>2754</ele>
        <time>2022-07-12T10:35:31Z</time>
      </trkpt>
      <trkpt lat="44.68205" lon="7.06688">
        <ele>2753</ele>
        <time>2022-07-12T10:35:37Z</time>
      </trkpt>
      <trkpt lat="44.68204" lon="7.06694">
        <ele>2752</ele>
        <time>2022-07-12T10:35:44Z</time>
      </trkpt>
      <trkpt lat="44.68203" lon="7.067">
        <ele>2751</ele>
        <time>2022-07-12T10:35:49Z</time>
      </trkpt>
      <trkpt lat="44.68202" lon="7.06706">
        <ele>2751</ele>
        <time>2022-07-12T10:35:55Z</time>
      </trkpt>
      <trkpt lat="44.68201" lon="7.06712">
        <ele>2750</ele>
        <time>2022-07-12T10:36:01Z</time>
      </trkpt>
      <trkpt lat="44.68196" lon="7.06711">
        <ele>2750</ele>
        <time>2022-07-12T10:36:05Z</time>
      </trkpt>
      <trkpt lat="44.68193" lon="7.06717">
        <ele>2750</ele>
        <time>2022-07-12T10:36:14Z</time>
      </trkpt>
      <trkpt lat="44.68191" lon="7.06722">
        <ele>2750</ele>
        <time>2022-07-12T10:36:22Z</time>
      </trkpt>
      <trkpt lat="44.68186" lon="7.06723">
        <ele>2751</ele>
        <time>2022-07-12T10:36:32Z</time>
      </trkpt>
      <trkpt lat="44.68182" lon="7.06726">
        <ele>2752</ele>
        <time>2022-07-12T10:36:38Z</time>
      </trkpt>
      <trkpt lat="44.68184" lon="7.06731">
        <ele>2754</ele>
        <time>2022-07-12T10:36:45Z</time>
      </trkpt>
      <trkpt lat="44.68183" lon="7.06736">
        <ele>2756</ele>
        <time>2022-07-12T10:36:51Z</time>
      </trkpt>
      <trkpt lat="44.68178" lon="7.06747">
        <ele>2759</ele>
        <time>2022-07-12T10:37:05Z</time>
      </trkpt>
      <trkpt lat="44.68175" lon="7.06752">
        <ele>2758</ele>
        <time>2022-07-12T10:37:13Z</time>
      </trkpt>
      <trkpt lat="44.68173" lon="7.06758">
        <ele>2758</ele>
        <time>2022-07-12T10:37:20Z</time>
      </trkpt>
      <trkpt lat="44.68173" lon="7.06763">
        <ele>2759</ele>
        <time>2022-07-12T10:37:25Z</time>
      </trkpt>
      <trkpt lat="44.68169" lon="7.06772">
        <ele>2758</ele>
        <time>2022-07-12T10:37:35Z</time>
      </trkpt>
      <trkpt lat="44.68168" lon="7.06777">
        <ele>2756</ele>
        <time>2022-07-12T10:37:40Z</time>
      </trkpt>
      <trkpt lat="44.68165" lon="7.06779">
        <ele>2756</ele>
        <time>2022-07-12T10:37:44Z</time>
      </trkpt>
      <trkpt lat="44.68161" lon="7.06781">
        <ele>2755</ele>
        <time>2022-07-12T10:37:49Z</time>
      </trkpt>
      <trkpt lat="44.68158" lon="7.06778">
        <ele>2755</ele>
        <time>2022-07-12T10:37:55Z</time>
      </trkpt>
      <trkpt lat="44.68154" lon="7.06777">
        <ele>2754</ele>
        <time>2022-07-12T10:38:01Z</time>
      </trkpt>
      <trkpt lat="44.68152" lon="7.06781">
        <ele>2754</ele>
        <time>2022-07-12T10:38:07Z</time>
      </trkpt>
      <trkpt lat="44.6815" lon="7.06787">
        <ele>2758</ele>
        <time>2022-07-12T10:38:13Z</time>
      </trkpt>
      <trkpt lat="44.6815" lon="7.06792">
        <ele>2758</ele>
        <time>2022-07-12T10:38:18Z</time>
      </trkpt>
      <trkpt lat="44.68141" lon="7.06809">
        <ele>2761</ele>
        <time>2022-07-12T10:38:42Z</time>
      </trkpt>
      <trkpt lat="44.68139" lon="7.06819">
        <ele>2761</ele>
        <time>2022-07-12T10:38:53Z</time>
      </trkpt>
      <trkpt lat="44.68137" lon="7.06824">
        <ele>2763</ele>
        <time>2022-07-12T10:38:59Z</time>
      </trkpt>
      <trkpt lat="44.68135" lon="7.06829">
        <ele>2765</ele>
        <time>2022-07-12T10:39:06Z</time>
      </trkpt>
      <trkpt lat="44.68132" lon="7.06831">
        <ele>2765</ele>
        <time>2022-07-12T10:39:12Z</time>
      </trkpt>
      <trkpt lat="44.68129" lon="7.06834">
        <ele>2766</ele>
        <time>2022-07-12T10:39:20Z</time>
      </trkpt>
      <trkpt lat="44.68125" lon="7.06833">
        <ele>2766</ele>
        <time>2022-07-12T10:39:25Z</time>
      </trkpt>
      <trkpt lat="44.68125" lon="7.06837">
        <ele>2766</ele>
        <time>2022-07-12T10:39:30Z</time>
      </trkpt>
      <trkpt lat="44.68125" lon="7.06842">
        <ele>2769</ele>
        <time>2022-07-12T10:39:38Z</time>
      </trkpt>
      <trkpt lat="44.68121" lon="7.06844">
        <ele>2771</ele>
        <time>2022-07-12T10:39:45Z</time>
      </trkpt>
      <trkpt lat="44.68123" lon="7.06849">
        <ele>2772</ele>
        <time>2022-07-12T10:39:52Z</time>
      </trkpt>
      <trkpt lat="44.6812" lon="7.06852">
        <ele>2772</ele>
        <time>2022-07-12T10:40:05Z</time>
      </trkpt>
      <trkpt lat="44.68117" lon="7.06854">
        <ele>2772</ele>
        <time>2022-07-12T10:40:12Z</time>
      </trkpt>
      <trkpt lat="44.68116" lon="7.06859">
        <ele>2772</ele>
        <time>2022-07-12T10:40:19Z</time>
      </trkpt>
      <trkpt lat="44.68116" lon="7.06864">
        <ele>2773</ele>
        <time>2022-07-12T10:40:26Z</time>
      </trkpt>
      <trkpt lat="44.68114" lon="7.06869">
        <ele>2773</ele>
        <time>2022-07-12T10:40:32Z</time>
      </trkpt>
      <trkpt lat="44.6811" lon="7.06878">
        <ele>2773</ele>
        <time>2022-07-12T10:40:44Z</time>
      </trkpt>
      <trkpt lat="44.68109" lon="7.06883">
        <ele>2774</ele>
        <time>2022-07-12T10:40:50Z</time>
      </trkpt>
      <trkpt lat="44.68107" lon="7.06887">
        <ele>2776</ele>
        <time>2022-07-12T10:40:56Z</time>
      </trkpt>
      <trkpt lat="44.68103" lon="7.06889">
        <ele>2777</ele>
        <time>2022-07-12T10:41:02Z</time>
      </trkpt>
      <trkpt lat="44.68101" lon="7.06892">
        <ele>2777</ele>
        <time>2022-07-12T10:41:06Z</time>
      </trkpt>
      <trkpt lat="44.68098" lon="7.06896">
        <ele>2777</ele>
        <time>2022-07-12T10:41:13Z</time>
      </trkpt>
      <trkpt lat="44.68098" lon="7.06901">
        <ele>2776</ele>
        <time>2022-07-12T10:41:21Z</time>
      </trkpt>
      <trkpt lat="44.68096" lon="7.06906">
        <ele>2777</ele>
        <time>2022-07-12T10:41:30Z</time>
      </trkpt>
      <trkpt lat="44.68093" lon="7.06903">
        <ele>2778</ele>
        <time>2022-07-12T10:41:41Z</time>
      </trkpt>
      <trkpt lat="44.68092" lon="7.06908">
        <ele>2781</ele>
        <time>2022-07-12T10:41:48Z</time>
      </trkpt>
      <trkpt lat="44.6809" lon="7.06912">
        <ele>2784</ele>
        <time>2022-07-12T10:42:03Z</time>
      </trkpt>
      <trkpt lat="44.68089" lon="7.06917">
        <ele>2788</ele>
        <time>2022-07-12T10:42:10Z</time>
      </trkpt>
      <trkpt lat="44.68088" lon="7.06922">
        <ele>2790</ele>
        <time>2022-07-12T10:42:18Z</time>
      </trkpt>
      <trkpt lat="44.68085" lon="7.06926">
        <ele>2794</ele>
        <time>2022-07-12T10:42:29Z</time>
      </trkpt>
      <trkpt lat="44.68082" lon="7.06928">
        <ele>2795</ele>
        <time>2022-07-12T10:42:37Z</time>
      </trkpt>
      <trkpt lat="44.68079" lon="7.06928">
        <ele>2796</ele>
        <time>2022-07-12T10:42:45Z</time>
      </trkpt>
      <trkpt lat="44.68077" lon="7.06933">
        <ele>2796</ele>
        <time>2022-07-12T10:42:50Z</time>
      </trkpt>
      <trkpt lat="44.68075" lon="7.06929">
        <ele>2796</ele>
        <time>2022-07-12T10:42:58Z</time>
      </trkpt>
      <trkpt lat="44.68073" lon="7.06933">
        <ele>2795</ele>
        <time>2022-07-12T10:43:11Z</time>
      </trkpt>
      <trkpt lat="44.68073" lon="7.06938">
        <ele>2798</ele>
        <time>2022-07-12T10:43:20Z</time>
      </trkpt>
      <trkpt lat="44.68071" lon="7.06943">
        <ele>2799</ele>
        <time>2022-07-12T10:43:28Z</time>
      </trkpt>
      <trkpt lat="44.68068" lon="7.06946">
        <ele>2801</ele>
        <time>2022-07-12T10:43:39Z</time>
      </trkpt>
      <trkpt lat="44.68062" lon="7.06953">
        <ele>2806</ele>
        <time>2022-07-12T10:43:57Z</time>
      </trkpt>
      <trkpt lat="44.68059" lon="7.06956">
        <ele>2807</ele>
        <time>2022-07-12T10:44:05Z</time>
      </trkpt>
      <trkpt lat="44.68056" lon="7.0696">
        <ele>2808</ele>
        <time>2022-07-12T10:44:11Z</time>
      </trkpt>
      <trkpt lat="44.68053" lon="7.06961">
        <ele>2808</ele>
        <time>2022-07-12T10:44:16Z</time>
      </trkpt>
      <trkpt lat="44.68044" lon="7.06969">
        <ele>2808</ele>
        <time>2022-07-12T10:44:35Z</time>
      </trkpt>
      <trkpt lat="44.68041" lon="7.06973">
        <ele>2808</ele>
        <time>2022-07-12T10:44:41Z</time>
      </trkpt>
      <trkpt lat="44.68039" lon="7.06977">
        <ele>2809</ele>
        <time>2022-07-12T10:44:46Z</time>
      </trkpt>
      <trkpt lat="44.68035" lon="7.06978">
        <ele>2809</ele>
        <time>2022-07-12T10:44:52Z</time>
      </trkpt>
      <trkpt lat="44.68031" lon="7.06977">
        <ele>2810</ele>
        <time>2022-07-12T10:44:59Z</time>
      </trkpt>
      <trkpt lat="44.68028" lon="7.06977">
        <ele>2809</ele>
        <time>2022-07-12T10:45:05Z</time>
      </trkpt>
      <trkpt lat="44.68022" lon="7.06985">
        <ele>2810</ele>
        <time>2022-07-12T10:45:16Z</time>
      </trkpt>
      <trkpt lat="44.68021" lon="7.06994">
        <ele>2812</ele>
        <time>2022-07-12T10:45:26Z</time>
      </trkpt>
      <trkpt lat="44.68019" lon="7.06999">
        <ele>2813</ele>
        <time>2022-07-12T10:45:31Z</time>
      </trkpt>
      <trkpt lat="44.68009" lon="7.07005">
        <ele>2816</ele>
        <time>2022-07-12T10:45:49Z</time>
      </trkpt>
      <trkpt lat="44.68006" lon="7.07002">
        <ele>2817</ele>
        <time>2022-07-12T10:45:55Z</time>
      </trkpt>
      <trkpt lat="44.68003" lon="7.07005">
        <ele>2818</ele>
        <time>2022-07-12T10:46:01Z</time>
      </trkpt>
      <trkpt lat="44.67998" lon="7.07012">
        <ele>2819</ele>
        <time>2022-07-12T10:46:11Z</time>
      </trkpt>
      <trkpt lat="44.67985" lon="7.07021">
        <ele>2817</ele>
        <time>2022-07-12T10:46:32Z</time>
      </trkpt>
      <trkpt lat="44.67979" lon="7.07028">
        <ele>2817</ele>
        <time>2022-07-12T10:46:42Z</time>
      </trkpt>
      <trkpt lat="44.67989" lon="7.07034">
        <ele>2818</ele>
        <time>2022-07-12T10:47:16Z</time>
      </trkpt>
      <trkpt lat="44.67992" lon="7.0703">
        <ele>2819</ele>
        <time>2022-07-12T10:47:32Z</time>
      </trkpt>
      <trkpt lat="44.67989" lon="7.07026">
        <ele>2819</ele>
        <time>2022-07-12T10:47:38Z</time>
      </trkpt>
      <trkpt lat="44.67985" lon="7.07024">
        <ele>2818</ele>
        <time>2022-07-12T10:47:43Z</time>
      </trkpt>
      <trkpt lat="44.67982" lon="7.07022">
        <ele>2815</ele>
        <time>2022-07-12T10:47:47Z</time>
      </trkpt>
      <trkpt lat="44.6798" lon="7.07025">
        <ele>2817</ele>
        <time>2022-07-12T10:48:27Z</time>
      </trkpt>
      <trkpt lat="44.67976" lon="7.07023">
        <ele>2820</ele>
        <time>2022-07-12T10:48:36Z</time>
      </trkpt>
      <trkpt lat="44.67976" lon="7.07018">
        <ele>2820</ele>
        <time>2022-07-12T10:48:39Z</time>
      </trkpt>
      <trkpt lat="44.67966" lon="7.07007">
        <ele>2820</ele>
        <time>2022-07-12T10:48:52Z</time>
      </trkpt>
      <trkpt lat="44.67964" lon="7.07004">
        <ele>2819</ele>
        <time>2022-07-12T10:48:56Z</time>
      </trkpt>
      <trkpt lat="44.67963" lon="7.06999">
        <ele>2820</ele>
        <time>2022-07-12T10:49:00Z</time>
      </trkpt>
      <trkpt lat="44.67959" lon="7.0699">
        <ele>2820</ele>
        <time>2022-07-12T10:49:08Z</time>
      </trkpt>
      <trkpt lat="44.67957" lon="7.06985">
        <ele>2821</ele>
        <time>2022-07-12T10:49:12Z</time>
      </trkpt>
      <trkpt lat="44.67955" lon="7.06983">
        <ele>2824</ele>
        <time>2022-07-12T10:49:59Z</time>
      </trkpt>
      <trkpt lat="44.67951" lon="7.06975">
        <ele>2825</ele>
        <time>2022-07-12T10:50:17Z</time>
      </trkpt>
      <trkpt lat="44.67944" lon="7.06971">
        <ele>2823</ele>
        <time>2022-07-12T10:50:25Z</time>
      </trkpt>
      <trkpt lat="44.6794" lon="7.0697">
        <ele>2822</ele>
        <time>2022-07-12T10:50:29Z</time>
      </trkpt>
      <trkpt lat="44.67937" lon="7.06967">
        <ele>2821</ele>
        <time>2022-07-12T10:50:34Z</time>
      </trkpt>
      <trkpt lat="44.67933" lon="7.06967">
        <ele>2819</ele>
        <time>2022-07-12T10:50:38Z</time>
      </trkpt>
      <trkpt lat="44.67929" lon="7.06965">
        <ele>2819</ele>
        <time>2022-07-12T10:50:42Z</time>
      </trkpt>
      <trkpt lat="44.67927" lon="7.06961">
        <ele>2818</ele>
        <time>2022-07-12T10:50:46Z</time>
      </trkpt>
      <trkpt lat="44.67924" lon="7.06957">
        <ele>2818</ele>
        <time>2022-07-12T10:50:51Z</time>
      </trkpt>
      <trkpt lat="44.6792" lon="7.06948">
        <ele>2818</ele>
        <time>2022-07-12T10:51:10Z</time>
      </trkpt>
      <trkpt lat="44.67922" lon="7.06943">
        <ele>2823</ele>
        <time>2022-07-12T10:51:50Z</time>
      </trkpt>
      <trkpt lat="44.67925" lon="7.06941">
        <ele>2823</ele>
        <time>2022-07-12T10:51:55Z</time>
      </trkpt>
      <trkpt lat="44.67929" lon="7.06943">
        <ele>2825</ele>
        <time>2022-07-12T10:52:00Z</time>
      </trkpt>
      <trkpt lat="44.67932" lon="7.06945">
        <ele>2825</ele>
        <time>2022-07-12T10:52:06Z</time>
      </trkpt>
      <trkpt lat="44.67933" lon="7.0694">
        <ele>2826</ele>
        <time>2022-07-12T10:52:12Z</time>
      </trkpt>
      <trkpt lat="44.67935" lon="7.06935">
        <ele>2827</ele>
        <time>2022-07-12T10:52:18Z</time>
      </trkpt>
      <trkpt lat="44.67937" lon="7.06931">
        <ele>2828</ele>
        <time>2022-07-12T10:52:24Z</time>
      </trkpt>
      <trkpt lat="44.67944" lon="7.06935">
        <ele>2831</ele>
        <time>2022-07-12T10:52:36Z</time>
      </trkpt>
      <trkpt lat="44.67945" lon="7.0693">
        <ele>2832</ele>
        <time>2022-07-12T10:52:43Z</time>
      </trkpt>
      <trkpt lat="44.67942" lon="7.06926">
        <ele>2832</ele>
        <time>2022-07-12T10:52:47Z</time>
      </trkpt>
      <trkpt lat="44.67934" lon="7.06916">
        <ele>2827</ele>
        <time>2022-07-12T10:53:02Z</time>
      </trkpt>
      <trkpt lat="44.67931" lon="7.06913">
        <ele>2827</ele>
        <time>2022-07-12T10:53:07Z</time>
      </trkpt>
      <trkpt lat="44.67928" lon="7.0691">
        <ele>2827</ele>
        <time>2022-07-12T10:53:11Z</time>
      </trkpt>
      <trkpt lat="44.6792" lon="7.06891">
        <ele>2829</ele>
        <time>2022-07-12T10:53:29Z</time>
      </trkpt>
      <trkpt lat="44.67917" lon="7.06892">
        <ele>2830</ele>
        <time>2022-07-12T10:56:08Z</time>
      </trkpt>
      <trkpt lat="44.67915" lon="7.06888">
        <ele>2830</ele>
        <time>2022-07-12T10:56:13Z</time>
      </trkpt>
      <trkpt lat="44.67913" lon="7.06884">
        <ele>2829</ele>
        <time>2022-07-12T10:56:19Z</time>
      </trkpt>
      <trkpt lat="44.67907" lon="7.06878">
        <ele>2827</ele>
        <time>2022-07-12T10:56:33Z</time>
      </trkpt>
      <trkpt lat="44.67905" lon="7.06873">
        <ele>2826</ele>
        <time>2022-07-12T10:56:39Z</time>
      </trkpt>
      <trkpt lat="44.67902" lon="7.06871">
        <ele>2824</ele>
        <time>2022-07-12T10:56:48Z</time>
      </trkpt>
      <trkpt lat="44.67897" lon="7.06865">
        <ele>2821</ele>
        <time>2022-07-12T10:57:05Z</time>
      </trkpt>
      <trkpt lat="44.67893" lon="7.06863">
        <ele>2820</ele>
        <time>2022-07-12T10:57:11Z</time>
      </trkpt>
      <trkpt lat="44.67886" lon="7.0686">
        <ele>2817</ele>
        <time>2022-07-12T10:57:29Z</time>
      </trkpt>
      <trkpt lat="44.67882" lon="7.06858">
        <ele>2815</ele>
        <time>2022-07-12T10:57:36Z</time>
      </trkpt>
      <trkpt lat="44.67881" lon="7.06854">
        <ele>2815</ele>
        <time>2022-07-12T10:57:42Z</time>
      </trkpt>
      <trkpt lat="44.67878" lon="7.0685">
        <ele>2813</ele>
        <time>2022-07-12T10:57:48Z</time>
      </trkpt>
      <trkpt lat="44.67876" lon="7.06846">
        <ele>2813</ele>
        <time>2022-07-12T10:57:55Z</time>
      </trkpt>
      <trkpt lat="44.67873" lon="7.06843">
        <ele>2811</ele>
        <time>2022-07-12T10:58:01Z</time>
      </trkpt>
      <trkpt lat="44.6787" lon="7.0684">
        <ele>2811</ele>
        <time>2022-07-12T10:58:09Z</time>
      </trkpt>
      <trkpt lat="44.67867" lon="7.06842">
        <ele>2809</ele>
        <time>2022-07-12T10:58:14Z</time>
      </trkpt>
      <trkpt lat="44.67863" lon="7.06841">
        <ele>2808</ele>
        <time>2022-07-12T10:58:23Z</time>
      </trkpt>
      <trkpt lat="44.6786" lon="7.06839">
        <ele>2805</ele>
        <time>2022-07-12T10:58:29Z</time>
      </trkpt>
      <trkpt lat="44.67854" lon="7.06843">
        <ele>2804</ele>
        <time>2022-07-12T10:58:41Z</time>
      </trkpt>
      <trkpt lat="44.6785" lon="7.06842">
        <ele>2803</ele>
        <time>2022-07-12T10:58:47Z</time>
      </trkpt>
      <trkpt lat="44.67846" lon="7.06841">
        <ele>2802</ele>
        <time>2022-07-12T10:59:04Z</time>
      </trkpt>
      <trkpt lat="44.67843" lon="7.06843">
        <ele>2801</ele>
        <time>2022-07-12T10:59:10Z</time>
      </trkpt>
      <trkpt lat="44.67832" lon="7.06841">
        <ele>2798</ele>
        <time>2022-07-12T10:59:29Z</time>
      </trkpt>
      <trkpt lat="44.67828" lon="7.0684">
        <ele>2797</ele>
        <time>2022-07-12T10:59:34Z</time>
      </trkpt>
      <trkpt lat="44.67825" lon="7.06841">
        <ele>2796</ele>
        <time>2022-07-12T10:59:38Z</time>
      </trkpt>
      <trkpt lat="44.67817" lon="7.06842">
        <ele>2794</ele>
        <time>2022-07-12T10:59:58Z</time>
      </trkpt>
      <trkpt lat="44.67814" lon="7.0684">
        <ele>2792</ele>
        <time>2022-07-12T11:00:03Z</time>
      </trkpt>
      <trkpt lat="44.6781" lon="7.06839">
        <ele>2792</ele>
        <time>2022-07-12T11:00:09Z</time>
      </trkpt>
      <trkpt lat="44.67807" lon="7.06835">
        <ele>2792</ele>
        <time>2022-07-12T11:00:13Z</time>
      </trkpt>
      <trkpt lat="44.67803" lon="7.06833">
        <ele>2793</ele>
        <time>2022-07-12T11:00:20Z</time>
      </trkpt>
      <trkpt lat="44.67784" lon="7.06838">
        <ele>2793</ele>
        <time>2022-07-12T11:00:45Z</time>
      </trkpt>
      <trkpt lat="44.6778" lon="7.06838">
        <ele>2792</ele>
        <time>2022-07-12T11:00:50Z</time>
      </trkpt>
      <trkpt lat="44.67777" lon="7.06838">
        <ele>2791</ele>
        <time>2022-07-12T11:00:55Z</time>
      </trkpt>
      <trkpt lat="44.67766" lon="7.06834">
        <ele>2791</ele>
        <time>2022-07-12T11:01:13Z</time>
      </trkpt>
      <trkpt lat="44.67762" lon="7.06835">
        <ele>2791</ele>
        <time>2022-07-12T11:01:18Z</time>
      </trkpt>
      <trkpt lat="44.67758" lon="7.06835">
        <ele>2790</ele>
        <time>2022-07-12T11:01:22Z</time>
      </trkpt>
      <trkpt lat="44.67755" lon="7.06832">
        <ele>2790</ele>
        <time>2022-07-12T11:01:26Z</time>
      </trkpt>
      <trkpt lat="44.67741" lon="7.06829">
        <ele>2788</ele>
        <time>2022-07-12T11:01:43Z</time>
      </trkpt>
      <trkpt lat="44.67737" lon="7.06828">
        <ele>2787</ele>
        <time>2022-07-12T11:01:47Z</time>
      </trkpt>
      <trkpt lat="44.67726" lon="7.06828">
        <ele>2783</ele>
        <time>2022-07-12T11:02:02Z</time>
      </trkpt>
      <trkpt lat="44.67715" lon="7.06829">
        <ele>2781</ele>
        <time>2022-07-12T11:02:16Z</time>
      </trkpt>
      <trkpt lat="44.67712" lon="7.06831">
        <ele>2781</ele>
        <time>2022-07-12T11:02:22Z</time>
      </trkpt>
      <trkpt lat="44.67704" lon="7.06829">
        <ele>2777</ele>
        <time>2022-07-12T11:02:33Z</time>
      </trkpt>
      <trkpt lat="44.67699" lon="7.06831">
        <ele>2777</ele>
        <time>2022-07-12T11:02:43Z</time>
      </trkpt>
      <trkpt lat="44.67696" lon="7.06829">
        <ele>2775</ele>
        <time>2022-07-12T11:02:50Z</time>
      </trkpt>
      <trkpt lat="44.67693" lon="7.06831">
        <ele>2774</ele>
        <time>2022-07-12T11:02:56Z</time>
      </trkpt>
      <trkpt lat="44.67689" lon="7.06834">
        <ele>2771</ele>
        <time>2022-07-12T11:03:01Z</time>
      </trkpt>
      <trkpt lat="44.67685" lon="7.06834">
        <ele>2770</ele>
        <time>2022-07-12T11:03:06Z</time>
      </trkpt>
      <trkpt lat="44.67682" lon="7.06834">
        <ele>2768</ele>
        <time>2022-07-12T11:03:11Z</time>
      </trkpt>
      <trkpt lat="44.67678" lon="7.06834">
        <ele>2767</ele>
        <time>2022-07-12T11:03:16Z</time>
      </trkpt>
      <trkpt lat="44.67668" lon="7.06836">
        <ele>2764</ele>
        <time>2022-07-12T11:03:33Z</time>
      </trkpt>
      <trkpt lat="44.67657" lon="7.06838">
        <ele>2762</ele>
        <time>2022-07-12T11:03:48Z</time>
      </trkpt>
      <trkpt lat="44.67656" lon="7.06843">
        <ele>2760</ele>
        <time>2022-07-12T11:03:59Z</time>
      </trkpt>
      <trkpt lat="44.67659" lon="7.06846">
        <ele>2760</ele>
        <time>2022-07-12T11:04:06Z</time>
      </trkpt>
      <trkpt lat="44.67661" lon="7.0685">
        <ele>2759</ele>
        <time>2022-07-12T11:04:12Z</time>
      </trkpt>
      <trkpt lat="44.67664" lon="7.06853">
        <ele>2759</ele>
        <time>2022-07-12T11:04:17Z</time>
      </trkpt>
      <trkpt lat="44.67668" lon="7.06852">
        <ele>2758</ele>
        <time>2022-07-12T11:04:23Z</time>
      </trkpt>
      <trkpt lat="44.67679" lon="7.06856">
        <ele>2757</ele>
        <time>2022-07-12T11:04:40Z</time>
      </trkpt>
      <trkpt lat="44.6768" lon="7.06861">
        <ele>2758</ele>
        <time>2022-07-12T11:04:51Z</time>
      </trkpt>
      <trkpt lat="44.67672" lon="7.06863">
        <ele>2756</ele>
        <time>2022-07-12T11:05:03Z</time>
      </trkpt>
      <trkpt lat="44.67669" lon="7.06865">
        <ele>2755</ele>
        <time>2022-07-12T11:05:08Z</time>
      </trkpt>
      <trkpt lat="44.67666" lon="7.06867">
        <ele>2752</ele>
        <time>2022-07-12T11:05:13Z</time>
      </trkpt>
      <trkpt lat="44.67662" lon="7.06869">
        <ele>2751</ele>
        <time>2022-07-12T11:05:17Z</time>
      </trkpt>
      <trkpt lat="44.67659" lon="7.0687">
        <ele>2750</ele>
        <time>2022-07-12T11:05:23Z</time>
      </trkpt>
      <trkpt lat="44.67651" lon="7.06868">
        <ele>2749</ele>
        <time>2022-07-12T11:05:33Z</time>
      </trkpt>
      <trkpt lat="44.67644" lon="7.06868">
        <ele>2747</ele>
        <time>2022-07-12T11:05:43Z</time>
      </trkpt>
      <trkpt lat="44.67636" lon="7.06869">
        <ele>2745</ele>
        <time>2022-07-12T11:05:53Z</time>
      </trkpt>
      <trkpt lat="44.67633" lon="7.06869">
        <ele>2745</ele>
        <time>2022-07-12T11:05:58Z</time>
      </trkpt>
      <trkpt lat="44.67629" lon="7.06869">
        <ele>2743</ele>
        <time>2022-07-12T11:06:05Z</time>
      </trkpt>
      <trkpt lat="44.67625" lon="7.06869">
        <ele>2743</ele>
        <time>2022-07-12T11:06:10Z</time>
      </trkpt>
      <trkpt lat="44.67622" lon="7.06867">
        <ele>2741</ele>
        <time>2022-07-12T11:06:15Z</time>
      </trkpt>
      <trkpt lat="44.67618" lon="7.06865">
        <ele>2741</ele>
        <time>2022-07-12T11:06:20Z</time>
      </trkpt>
      <trkpt lat="44.67615" lon="7.06863">
        <ele>2741</ele>
        <time>2022-07-12T11:06:25Z</time>
      </trkpt>
      <trkpt lat="44.67606" lon="7.06857">
        <ele>2740</ele>
        <time>2022-07-12T11:06:37Z</time>
      </trkpt>
      <trkpt lat="44.67592" lon="7.0684">
        <ele>2737</ele>
        <time>2022-07-12T11:07:02Z</time>
      </trkpt>
      <trkpt lat="44.67576" lon="7.06827">
        <ele>2732</ele>
        <time>2022-07-12T11:07:27Z</time>
      </trkpt>
      <trkpt lat="44.67568" lon="7.06821">
        <ele>2728</ele>
        <time>2022-07-12T11:07:41Z</time>
      </trkpt>
      <trkpt lat="44.67559" lon="7.06819">
        <ele>2727</ele>
        <time>2022-07-12T11:07:54Z</time>
      </trkpt>
      <trkpt lat="44.67551" lon="7.06811">
        <ele>2723</ele>
        <time>2022-07-12T11:08:11Z</time>
      </trkpt>
      <trkpt lat="44.67543" lon="7.06804">
        <ele>2722</ele>
        <time>2022-07-12T11:08:22Z</time>
      </trkpt>
      <trkpt lat="44.67535" lon="7.068">
        <ele>2721</ele>
        <time>2022-07-12T11:08:37Z</time>
      </trkpt>
      <trkpt lat="44.67531" lon="7.06802">
        <ele>2721</ele>
        <time>2022-07-12T11:08:43Z</time>
      </trkpt>
      <trkpt lat="44.67528" lon="7.06803">
        <ele>2720</ele>
        <time>2022-07-12T11:08:51Z</time>
      </trkpt>
      <trkpt lat="44.67525" lon="7.06799">
        <ele>2719</ele>
        <time>2022-07-12T11:08:55Z</time>
      </trkpt>
      <trkpt lat="44.67523" lon="7.06795">
        <ele>2718</ele>
        <time>2022-07-12T11:09:00Z</time>
      </trkpt>
      <trkpt lat="44.6752" lon="7.06794">
        <ele>2718</ele>
        <time>2022-07-12T11:09:03Z</time>
      </trkpt>
      <trkpt lat="44.67516" lon="7.06791">
        <ele>2718</ele>
        <time>2022-07-12T11:09:08Z</time>
      </trkpt>
      <trkpt lat="44.67515" lon="7.06785">
        <ele>2718</ele>
        <time>2022-07-12T11:09:13Z</time>
      </trkpt>
      <trkpt lat="44.67515" lon="7.0678">
        <ele>2718</ele>
        <time>2022-07-12T11:09:21Z</time>
      </trkpt>
      <trkpt lat="44.67515" lon="7.06775">
        <ele>2718</ele>
        <time>2022-07-12T11:09:25Z</time>
      </trkpt>
      <trkpt lat="44.67508" lon="7.06774">
        <ele>2716</ele>
        <time>2022-07-12T11:09:35Z</time>
      </trkpt>
      <trkpt lat="44.67504" lon="7.06772">
        <ele>2716</ele>
        <time>2022-07-12T11:09:42Z</time>
      </trkpt>
      <trkpt lat="44.67497" lon="7.06764">
        <ele>2715</ele>
        <time>2022-07-12T11:09:56Z</time>
      </trkpt>
      <trkpt lat="44.6749" lon="7.06756">
        <ele>2711</ele>
        <time>2022-07-12T11:10:11Z</time>
      </trkpt>
      <trkpt lat="44.67482" lon="7.06748">
        <ele>2709</ele>
        <time>2022-07-12T11:10:25Z</time>
      </trkpt>
      <trkpt lat="44.67478" lon="7.06751">
        <ele>2707</ele>
        <time>2022-07-12T11:10:55Z</time>
      </trkpt>
      <trkpt lat="44.67483" lon="7.06762">
        <ele>2707</ele>
        <time>2022-07-12T11:11:09Z</time>
      </trkpt>
      <trkpt lat="44.67488" lon="7.06773">
        <ele>2704</ele>
        <time>2022-07-12T11:11:20Z</time>
      </trkpt>
      <trkpt lat="44.67479" lon="7.0678">
        <ele>2701</ele>
        <time>2022-07-12T11:11:46Z</time>
      </trkpt>
      <trkpt lat="44.67478" lon="7.06793">
        <ele>2694</ele>
        <time>2022-07-12T11:12:05Z</time>
      </trkpt>
      <trkpt lat="44.67475" lon="7.06805">
        <ele>2691</ele>
        <time>2022-07-12T11:12:22Z</time>
      </trkpt>
      <trkpt lat="44.67466" lon="7.0681">
        <ele>2689</ele>
        <time>2022-07-12T11:12:52Z</time>
      </trkpt>
      <trkpt lat="44.67457" lon="7.0681">
        <ele>2686</ele>
        <time>2022-07-12T11:13:05Z</time>
      </trkpt>
      <trkpt lat="44.6744" lon="7.06801">
        <ele>2686</ele>
        <time>2022-07-12T11:13:30Z</time>
      </trkpt>
      <trkpt lat="44.67435" lon="7.06801">
        <ele>2686</ele>
        <time>2022-07-12T11:13:40Z</time>
      </trkpt>
      <trkpt lat="44.67432" lon="7.068">
        <ele>2685</ele>
        <time>2022-07-12T11:13:46Z</time>
      </trkpt>
      <trkpt lat="44.67429" lon="7.06796">
        <ele>2683</ele>
        <time>2022-07-12T11:13:52Z</time>
      </trkpt>
      <trkpt lat="44.67426" lon="7.06795">
        <ele>2683</ele>
        <time>2022-07-12T11:13:58Z</time>
      </trkpt>
      <trkpt lat="44.67424" lon="7.0679">
        <ele>2683</ele>
        <time>2022-07-12T11:14:04Z</time>
      </trkpt>
      <trkpt lat="44.67421" lon="7.06791">
        <ele>2681</ele>
        <time>2022-07-12T11:14:11Z</time>
      </trkpt>
      <trkpt lat="44.67419" lon="7.06787">
        <ele>2681</ele>
        <time>2022-07-12T11:14:17Z</time>
      </trkpt>
      <trkpt lat="44.67417" lon="7.06782">
        <ele>2680</ele>
        <time>2022-07-12T11:14:25Z</time>
      </trkpt>
      <trkpt lat="44.67414" lon="7.06783">
        <ele>2679</ele>
        <time>2022-07-12T11:14:32Z</time>
      </trkpt>
      <trkpt lat="44.67413" lon="7.06788">
        <ele>2679</ele>
        <time>2022-07-12T11:14:41Z</time>
      </trkpt>
      <trkpt lat="44.6741" lon="7.06788">
        <ele>2679</ele>
        <time>2022-07-12T11:14:49Z</time>
      </trkpt>
      <trkpt lat="44.67407" lon="7.06792">
        <ele>2679</ele>
        <time>2022-07-12T11:14:58Z</time>
      </trkpt>
      <trkpt lat="44.67403" lon="7.06792">
        <ele>2679</ele>
        <time>2022-07-12T11:15:07Z</time>
      </trkpt>
      <trkpt lat="44.674" lon="7.06792">
        <ele>2679</ele>
        <time>2022-07-12T11:15:12Z</time>
      </trkpt>
      <trkpt lat="44.67397" lon="7.06794">
        <ele>2678</ele>
        <time>2022-07-12T11:15:17Z</time>
      </trkpt>
      <trkpt lat="44.67393" lon="7.06795">
        <ele>2677</ele>
        <time>2022-07-12T11:15:21Z</time>
      </trkpt>
      <trkpt lat="44.6739" lon="7.06795">
        <ele>2676</ele>
        <time>2022-07-12T11:15:26Z</time>
      </trkpt>
      <trkpt lat="44.67387" lon="7.06792">
        <ele>2675</ele>
        <time>2022-07-12T11:24:14Z</time>
      </trkpt>
      <trkpt lat="44.6739" lon="7.06789">
        <ele>2676</ele>
        <time>2022-07-12T11:44:44Z</time>
      </trkpt>
      <trkpt lat="44.67393" lon="7.06785">
        <ele>2677</ele>
        <time>2022-07-12T11:44:48Z</time>
      </trkpt>
      <trkpt lat="44.67399" lon="7.0678">
        <ele>2678</ele>
        <time>2022-07-12T11:44:57Z</time>
      </trkpt>
      <trkpt lat="44.67403" lon="7.06778">
        <ele>2678</ele>
        <time>2022-07-12T11:45:08Z</time>
      </trkpt>
      <trkpt lat="44.67403" lon="7.06772">
        <ele>2677</ele>
        <time>2022-07-12T11:45:23Z</time>
      </trkpt>
      <trkpt lat="44.67401" lon="7.06768">
        <ele>2673</ele>
        <time>2022-07-12T11:45:35Z</time>
      </trkpt>
      <trkpt lat="44.67399" lon="7.06764">
        <ele>2672</ele>
        <time>2022-07-12T11:45:42Z</time>
      </trkpt>
      <trkpt lat="44.67401" lon="7.0676">
        <ele>2671</ele>
        <time>2022-07-12T11:45:46Z</time>
      </trkpt>
      <trkpt lat="44.67401" lon="7.06754">
        <ele>2670</ele>
        <time>2022-07-12T11:45:52Z</time>
      </trkpt>
      <trkpt lat="44.67408" lon="7.06755">
        <ele>2667</ele>
        <time>2022-07-12T11:46:07Z</time>
      </trkpt>
      <trkpt lat="44.67412" lon="7.06755">
        <ele>2667</ele>
        <time>2022-07-12T11:46:15Z</time>
      </trkpt>
      <trkpt lat="44.67412" lon="7.0675">
        <ele>2665</ele>
        <time>2022-07-12T11:46:33Z</time>
      </trkpt>
      <trkpt lat="44.67409" lon="7.06748">
        <ele>2664</ele>
        <time>2022-07-12T11:46:41Z</time>
      </trkpt>
      <trkpt lat="44.67409" lon="7.06743">
        <ele>2664</ele>
        <time>2022-07-12T11:46:47Z</time>
      </trkpt>
      <trkpt lat="44.6741" lon="7.06739">
        <ele>2662</ele>
        <time>2022-07-12T11:46:59Z</time>
      </trkpt>
      <trkpt lat="44.67411" lon="7.06733">
        <ele>2662</ele>
        <time>2022-07-12T11:47:25Z</time>
      </trkpt>
      <trkpt lat="44.67411" lon="7.06729">
        <ele>2662</ele>
        <time>2022-07-12T11:47:35Z</time>
      </trkpt>
      <trkpt lat="44.67411" lon="7.06724">
        <ele>2661</ele>
        <time>2022-07-12T11:47:42Z</time>
      </trkpt>
      <trkpt lat="44.6741" lon="7.06719">
        <ele>2661</ele>
        <time>2022-07-12T11:47:48Z</time>
      </trkpt>
      <trkpt lat="44.67407" lon="7.06715">
        <ele>2661</ele>
        <time>2022-07-12T11:47:56Z</time>
      </trkpt>
      <trkpt lat="44.67405" lon="7.06711">
        <ele>2661</ele>
        <time>2022-07-12T11:48:04Z</time>
      </trkpt>
      <trkpt lat="44.67401" lon="7.06709">
        <ele>2661</ele>
        <time>2022-07-12T11:48:12Z</time>
      </trkpt>
      <trkpt lat="44.674" lon="7.06705">
        <ele>2659</ele>
        <time>2022-07-12T11:48:19Z</time>
      </trkpt>
      <trkpt lat="44.67395" lon="7.06697">
        <ele>2661</ele>
        <time>2022-07-12T11:49:10Z</time>
      </trkpt>
      <trkpt lat="44.67394" lon="7.06692">
        <ele>2662</ele>
        <time>2022-07-12T11:49:21Z</time>
      </trkpt>
      <trkpt lat="44.67391" lon="7.06688">
        <ele>2664</ele>
        <time>2022-07-12T11:49:43Z</time>
      </trkpt>
      <trkpt lat="44.67387" lon="7.06686">
        <ele>2665</ele>
        <time>2022-07-12T11:50:11Z</time>
      </trkpt>
      <trkpt lat="44.67384" lon="7.06685">
        <ele>2664</ele>
        <time>2022-07-12T11:50:43Z</time>
      </trkpt>
      <trkpt lat="44.67381" lon="7.06683">
        <ele>2662</ele>
        <time>2022-07-12T11:50:59Z</time>
      </trkpt>
      <trkpt lat="44.67377" lon="7.06682">
        <ele>2659</ele>
        <time>2022-07-12T11:51:06Z</time>
      </trkpt>
      <trkpt lat="44.67374" lon="7.06683">
        <ele>2658</ele>
        <time>2022-07-12T11:51:13Z</time>
      </trkpt>
      <trkpt lat="44.67371" lon="7.0668">
        <ele>2656</ele>
        <time>2022-07-12T11:51:21Z</time>
      </trkpt>
      <trkpt lat="44.67369" lon="7.06682">
        <ele>2654</ele>
        <time>2022-07-12T11:52:53Z</time>
      </trkpt>
      <trkpt lat="44.67369" lon="7.06688">
        <ele>2653</ele>
        <time>2022-07-12T11:53:01Z</time>
      </trkpt>
      <trkpt lat="44.67365" lon="7.06687">
        <ele>2651</ele>
        <time>2022-07-12T11:53:15Z</time>
      </trkpt>
      <trkpt lat="44.67362" lon="7.06683">
        <ele>2651</ele>
        <time>2022-07-12T11:53:20Z</time>
      </trkpt>
      <trkpt lat="44.67359" lon="7.06683">
        <ele>2651</ele>
        <time>2022-07-12T11:53:27Z</time>
      </trkpt>
      <trkpt lat="44.67356" lon="7.06681">
        <ele>2650</ele>
        <time>2022-07-12T11:53:36Z</time>
      </trkpt>
      <trkpt lat="44.67354" lon="7.06677">
        <ele>2649</ele>
        <time>2022-07-12T11:53:43Z</time>
      </trkpt>
      <trkpt lat="44.67351" lon="7.06674">
        <ele>2647</ele>
        <time>2022-07-12T11:53:59Z</time>
      </trkpt>
      <trkpt lat="44.67343" lon="7.06662">
        <ele>2642</ele>
        <time>2022-07-12T11:54:22Z</time>
      </trkpt>
      <trkpt lat="44.67337" lon="7.06657">
        <ele>2642</ele>
        <time>2022-07-12T11:54:43Z</time>
      </trkpt>
      <trkpt lat="44.67334" lon="7.06654">
        <ele>2642</ele>
        <time>2022-07-12T11:54:50Z</time>
      </trkpt>
      <trkpt lat="44.67331" lon="7.06652">
        <ele>2641</ele>
        <time>2022-07-12T11:54:59Z</time>
      </trkpt>
      <trkpt lat="44.6733" lon="7.06657">
        <ele>2639</ele>
        <time>2022-07-12T11:55:23Z</time>
      </trkpt>
      <trkpt lat="44.67333" lon="7.06661">
        <ele>2638</ele>
        <time>2022-07-12T11:55:41Z</time>
      </trkpt>
      <trkpt lat="44.67336" lon="7.06663">
        <ele>2636</ele>
        <time>2022-07-12T11:55:47Z</time>
      </trkpt>
      <trkpt lat="44.67337" lon="7.06669">
        <ele>2635</ele>
        <time>2022-07-12T11:55:52Z</time>
      </trkpt>
      <trkpt lat="44.67336" lon="7.06674">
        <ele>2634</ele>
        <time>2022-07-12T11:55:59Z</time>
      </trkpt>
      <trkpt lat="44.67334" lon="7.06676">
        <ele>2631</ele>
        <time>2022-07-12T11:56:19Z</time>
      </trkpt>
      <trkpt lat="44.67331" lon="7.06674">
        <ele>2631</ele>
        <time>2022-07-12T11:56:24Z</time>
      </trkpt>
      <trkpt lat="44.67326" lon="7.06666">
        <ele>2629</ele>
        <time>2022-07-12T11:56:35Z</time>
      </trkpt>
      <trkpt lat="44.67319" lon="7.06661">
        <ele>2627</ele>
        <time>2022-07-12T11:56:48Z</time>
      </trkpt>
      <trkpt lat="44.67317" lon="7.06657">
        <ele>2627</ele>
        <time>2022-07-12T11:56:59Z</time>
      </trkpt>
      <trkpt lat="44.67313" lon="7.06649">
        <ele>2628</ele>
        <time>2022-07-12T11:57:09Z</time>
      </trkpt>
      <trkpt lat="44.67315" lon="7.06651">
        <ele>2628</ele>
        <time>2022-07-12T11:57:51Z</time>
      </trkpt>
      <trkpt lat="44.67316" lon="7.06651">
        <ele>2628</ele>
        <time>2022-07-12T11:58:36Z</time>
      </trkpt>
      <trkpt lat="44.67311" lon="7.06643">
        <ele>2628</ele>
        <time>2022-07-12T11:58:49Z</time>
      </trkpt>
      <trkpt lat="44.67309" lon="7.06639">
        <ele>2627</ele>
        <time>2022-07-12T11:58:54Z</time>
      </trkpt>
      <trkpt lat="44.67307" lon="7.0664">
        <ele>2621</ele>
        <time>2022-07-12T11:59:08Z</time>
      </trkpt>
      <trkpt lat="44.67314" lon="7.06661">
        <ele>2615</ele>
        <time>2022-07-12T11:59:27Z</time>
      </trkpt>
      <trkpt lat="44.6731" lon="7.06659">
        <ele>2616</ele>
        <time>2022-07-12T11:59:33Z</time>
      </trkpt>
      <trkpt lat="44.67308" lon="7.06655">
        <ele>2616</ele>
        <time>2022-07-12T11:59:36Z</time>
      </trkpt>
      <trkpt lat="44.67302" lon="7.06649">
        <ele>2615</ele>
        <time>2022-07-12T11:59:44Z</time>
      </trkpt>
      <trkpt lat="44.67301" lon="7.06651">
        <ele>2613</ele>
        <time>2022-07-12T11:59:52Z</time>
      </trkpt>
      <trkpt lat="44.67303" lon="7.06655">
        <ele>2613</ele>
        <time>2022-07-12T11:59:56Z</time>
      </trkpt>
      <trkpt lat="44.67304" lon="7.0666">
        <ele>2611</ele>
        <time>2022-07-12T12:00:00Z</time>
      </trkpt>
      <trkpt lat="44.67305" lon="7.06666">
        <ele>2610</ele>
        <time>2022-07-12T12:00:04Z</time>
      </trkpt>
      <trkpt lat="44.67301" lon="7.06667">
        <ele>2609</ele>
        <time>2022-07-12T12:00:08Z</time>
      </trkpt>
      <trkpt lat="44.67299" lon="7.06662">
        <ele>2609</ele>
        <time>2022-07-12T12:00:11Z</time>
      </trkpt>
      <trkpt lat="44.67294" lon="7.06656">
        <ele>2609</ele>
        <time>2022-07-12T12:00:23Z</time>
      </trkpt>
      <trkpt lat="44.67291" lon="7.06653">
        <ele>2608</ele>
        <time>2022-07-12T12:00:32Z</time>
      </trkpt>
      <trkpt lat="44.67289" lon="7.06648">
        <ele>2607</ele>
        <time>2022-07-12T12:00:39Z</time>
      </trkpt>
      <trkpt lat="44.67286" lon="7.06646">
        <ele>2605</ele>
        <time>2022-07-12T12:00:48Z</time>
      </trkpt>
      <trkpt lat="44.67285" lon="7.06641">
        <ele>2606</ele>
        <time>2022-07-12T12:00:54Z</time>
      </trkpt>
      <trkpt lat="44.67281" lon="7.06632">
        <ele>2605</ele>
        <time>2022-07-12T12:01:20Z</time>
      </trkpt>
      <trkpt lat="44.67279" lon="7.06628">
        <ele>2605</ele>
        <time>2022-07-12T12:01:25Z</time>
      </trkpt>
      <trkpt lat="44.67277" lon="7.06618">
        <ele>2605</ele>
        <time>2022-07-12T12:02:05Z</time>
      </trkpt>
      <trkpt lat="44.67275" lon="7.06627">
        <ele>2604</ele>
        <time>2022-07-12T12:02:40Z</time>
      </trkpt>
      <trkpt lat="44.67275" lon="7.06633">
        <ele>2601</ele>
        <time>2022-07-12T12:02:47Z</time>
      </trkpt>
      <trkpt lat="44.67275" lon="7.06638">
        <ele>2600</ele>
        <time>2022-07-12T12:02:53Z</time>
      </trkpt>
      <trkpt lat="44.67272" lon="7.06658">
        <ele>2597</ele>
        <time>2022-07-12T12:03:23Z</time>
      </trkpt>
      <trkpt lat="44.67271" lon="7.06663">
        <ele>2596</ele>
        <time>2022-07-12T12:03:30Z</time>
      </trkpt>
      <trkpt lat="44.67268" lon="7.06661">
        <ele>2596</ele>
        <time>2022-07-12T12:03:36Z</time>
      </trkpt>
      <trkpt lat="44.67263" lon="7.06654">
        <ele>2594</ele>
        <time>2022-07-12T12:03:46Z</time>
      </trkpt>
      <trkpt lat="44.67261" lon="7.0665">
        <ele>2594</ele>
        <time>2022-07-12T12:03:52Z</time>
      </trkpt>
      <trkpt lat="44.67256" lon="7.0663">
        <ele>2591</ele>
        <time>2022-07-12T12:04:24Z</time>
      </trkpt>
      <trkpt lat="44.67254" lon="7.06626">
        <ele>2591</ele>
        <time>2022-07-12T12:04:32Z</time>
      </trkpt>
      <trkpt lat="44.67252" lon="7.06631">
        <ele>2591</ele>
        <time>2022-07-12T12:04:58Z</time>
      </trkpt>
      <trkpt lat="44.6725" lon="7.06635">
        <ele>2589</ele>
        <time>2022-07-12T12:05:03Z</time>
      </trkpt>
      <trkpt lat="44.67246" lon="7.06633">
        <ele>2587</ele>
        <time>2022-07-12T12:05:19Z</time>
      </trkpt>
      <trkpt lat="44.67243" lon="7.06636">
        <ele>2586</ele>
        <time>2022-07-12T12:05:41Z</time>
      </trkpt>
      <trkpt lat="44.67243" lon="7.06642">
        <ele>2584</ele>
        <time>2022-07-12T12:06:22Z</time>
      </trkpt>
      <trkpt lat="44.67239" lon="7.06641">
        <ele>2583</ele>
        <time>2022-07-12T12:06:32Z</time>
      </trkpt>
      <trkpt lat="44.67238" lon="7.06636">
        <ele>2583</ele>
        <time>2022-07-12T12:06:48Z</time>
      </trkpt>
      <trkpt lat="44.67237" lon="7.06631">
        <ele>2580</ele>
        <time>2022-07-12T12:06:56Z</time>
      </trkpt>
      <trkpt lat="44.67234" lon="7.0663">
        <ele>2578</ele>
        <time>2022-07-12T12:07:03Z</time>
      </trkpt>
      <trkpt lat="44.67233" lon="7.06625">
        <ele>2577</ele>
        <time>2022-07-12T12:07:09Z</time>
      </trkpt>
      <trkpt lat="44.6723" lon="7.06623">
        <ele>2574</ele>
        <time>2022-07-12T12:07:18Z</time>
      </trkpt>
      <trkpt lat="44.67224" lon="7.06617">
        <ele>2573</ele>
        <time>2022-07-12T12:07:32Z</time>
      </trkpt>
      <trkpt lat="44.67221" lon="7.06614">
        <ele>2573</ele>
        <time>2022-07-12T12:07:37Z</time>
      </trkpt>
      <trkpt lat="44.67218" lon="7.06612">
        <ele>2571</ele>
        <time>2022-07-12T12:07:46Z</time>
      </trkpt>
      <trkpt lat="44.67214" lon="7.0661">
        <ele>2570</ele>
        <time>2022-07-12T12:07:55Z</time>
      </trkpt>
      <trkpt lat="44.67212" lon="7.06606">
        <ele>2568</ele>
        <time>2022-07-12T12:08:09Z</time>
      </trkpt>
      <trkpt lat="44.6721" lon="7.06602">
        <ele>2567</ele>
        <time>2022-07-12T12:08:15Z</time>
      </trkpt>
      <trkpt lat="44.67207" lon="7.066">
        <ele>2566</ele>
        <time>2022-07-12T12:08:23Z</time>
      </trkpt>
      <trkpt lat="44.67208" lon="7.06605">
        <ele>2565</ele>
        <time>2022-07-12T12:08:29Z</time>
      </trkpt>
      <trkpt lat="44.67207" lon="7.0661">
        <ele>2563</ele>
        <time>2022-07-12T12:08:37Z</time>
      </trkpt>
      <trkpt lat="44.67206" lon="7.06615">
        <ele>2561</ele>
        <time>2022-07-12T12:08:44Z</time>
      </trkpt>
      <trkpt lat="44.67207" lon="7.0662">
        <ele>2560</ele>
        <time>2022-07-12T12:08:50Z</time>
      </trkpt>
      <trkpt lat="44.67207" lon="7.06625">
        <ele>2559</ele>
        <time>2022-07-12T12:08:56Z</time>
      </trkpt>
      <trkpt lat="44.67203" lon="7.06627">
        <ele>2560</ele>
        <time>2022-07-12T12:09:07Z</time>
      </trkpt>
      <trkpt lat="44.67202" lon="7.06623">
        <ele>2559</ele>
        <time>2022-07-12T12:09:12Z</time>
      </trkpt>
      <trkpt lat="44.672" lon="7.06619">
        <ele>2559</ele>
        <time>2022-07-12T12:09:19Z</time>
      </trkpt>
      <trkpt lat="44.67196" lon="7.06616">
        <ele>2559</ele>
        <time>2022-07-12T12:09:23Z</time>
      </trkpt>
      <trkpt lat="44.6719" lon="7.06604">
        <ele>2559</ele>
        <time>2022-07-12T12:09:38Z</time>
      </trkpt>
      <trkpt lat="44.67188" lon="7.066">
        <ele>2559</ele>
        <time>2022-07-12T12:09:43Z</time>
      </trkpt>
      <trkpt lat="44.67187" lon="7.06596">
        <ele>2558</ele>
        <time>2022-07-12T12:09:48Z</time>
      </trkpt>
      <trkpt lat="44.67184" lon="7.06598">
        <ele>2557</ele>
        <time>2022-07-12T12:10:05Z</time>
      </trkpt>
      <trkpt lat="44.67182" lon="7.06603">
        <ele>2555</ele>
        <time>2022-07-12T12:10:11Z</time>
      </trkpt>
      <trkpt lat="44.6718" lon="7.06608">
        <ele>2553</ele>
        <time>2022-07-12T12:10:17Z</time>
      </trkpt>
      <trkpt lat="44.67178" lon="7.06612">
        <ele>2551</ele>
        <time>2022-07-12T12:10:22Z</time>
      </trkpt>
      <trkpt lat="44.6718" lon="7.06617">
        <ele>2549</ele>
        <time>2022-07-12T12:10:28Z</time>
      </trkpt>
      <trkpt lat="44.6718" lon="7.06622">
        <ele>2547</ele>
        <time>2022-07-12T12:10:33Z</time>
      </trkpt>
      <trkpt lat="44.67184" lon="7.06631">
        <ele>2546</ele>
        <time>2022-07-12T12:10:43Z</time>
      </trkpt>
      <trkpt lat="44.67184" lon="7.06636">
        <ele>2545</ele>
        <time>2022-07-12T12:10:48Z</time>
      </trkpt>
      <trkpt lat="44.67187" lon="7.0664">
        <ele>2544</ele>
        <time>2022-07-12T12:10:54Z</time>
      </trkpt>
      <trkpt lat="44.67191" lon="7.06644">
        <ele>2543</ele>
        <time>2022-07-12T12:11:01Z</time>
      </trkpt>
      <trkpt lat="44.67197" lon="7.0665">
        <ele>2540</ele>
        <time>2022-07-12T12:11:19Z</time>
      </trkpt>
      <trkpt lat="44.67197" lon="7.06655">
        <ele>2539</ele>
        <time>2022-07-12T12:11:26Z</time>
      </trkpt>
      <trkpt lat="44.67198" lon="7.0666">
        <ele>2538</ele>
        <time>2022-07-12T12:11:33Z</time>
      </trkpt>
      <trkpt lat="44.67201" lon="7.06663">
        <ele>2537</ele>
        <time>2022-07-12T12:11:46Z</time>
      </trkpt>
      <trkpt lat="44.67207" lon="7.0667">
        <ele>2537</ele>
        <time>2022-07-12T12:12:02Z</time>
      </trkpt>
      <trkpt lat="44.67209" lon="7.06691">
        <ele>2537</ele>
        <time>2022-07-12T12:12:31Z</time>
      </trkpt>
      <trkpt lat="44.6721" lon="7.06696">
        <ele>2536</ele>
        <time>2022-07-12T12:12:38Z</time>
      </trkpt>
      <trkpt lat="44.67208" lon="7.06701">
        <ele>2536</ele>
        <time>2022-07-12T12:12:48Z</time>
      </trkpt>
      <trkpt lat="44.67208" lon="7.06706">
        <ele>2534</ele>
        <time>2022-07-12T12:12:58Z</time>
      </trkpt>
      <trkpt lat="44.67206" lon="7.06711">
        <ele>2533</ele>
        <time>2022-07-12T12:13:05Z</time>
      </trkpt>
      <trkpt lat="44.67207" lon="7.06718">
        <ele>2532</ele>
        <time>2022-07-12T12:13:14Z</time>
      </trkpt>
      <trkpt lat="44.67207" lon="7.06723">
        <ele>2531</ele>
        <time>2022-07-12T12:13:19Z</time>
      </trkpt>
      <trkpt lat="44.67205" lon="7.06729">
        <ele>2529</ele>
        <time>2022-07-12T12:13:25Z</time>
      </trkpt>
      <trkpt lat="44.67202" lon="7.06726">
        <ele>2527</ele>
        <time>2022-07-12T12:13:33Z</time>
      </trkpt>
      <trkpt lat="44.67197" lon="7.06726">
        <ele>2527</ele>
        <time>2022-07-12T12:13:36Z</time>
      </trkpt>
      <trkpt lat="44.67199" lon="7.06731">
        <ele>2526</ele>
        <time>2022-07-12T12:13:43Z</time>
      </trkpt>
      <trkpt lat="44.67197" lon="7.06736">
        <ele>2524</ele>
        <time>2022-07-12T12:14:02Z</time>
      </trkpt>
      <trkpt lat="44.67197" lon="7.06741">
        <ele>2522</ele>
        <time>2022-07-12T12:14:15Z</time>
      </trkpt>
      <trkpt lat="44.67196" lon="7.06746">
        <ele>2521</ele>
        <time>2022-07-12T12:14:28Z</time>
      </trkpt>
      <trkpt lat="44.67193" lon="7.06749">
        <ele>2519</ele>
        <time>2022-07-12T12:14:38Z</time>
      </trkpt>
      <trkpt lat="44.67194" lon="7.06754">
        <ele>2516</ele>
        <time>2022-07-12T12:15:12Z</time>
      </trkpt>
      <trkpt lat="44.67193" lon="7.06765">
        <ele>2512</ele>
        <time>2022-07-12T12:15:35Z</time>
      </trkpt>
      <trkpt lat="44.67192" lon="7.0677">
        <ele>2511</ele>
        <time>2022-07-12T12:15:49Z</time>
      </trkpt>
      <trkpt lat="44.67188" lon="7.06769">
        <ele>2511</ele>
        <time>2022-07-12T12:15:59Z</time>
      </trkpt>
      <trkpt lat="44.67186" lon="7.06773">
        <ele>2509</ele>
        <time>2022-07-12T12:16:14Z</time>
      </trkpt>
      <trkpt lat="44.67183" lon="7.06769">
        <ele>2509</ele>
        <time>2022-07-12T12:16:22Z</time>
      </trkpt>
      <trkpt lat="44.6718" lon="7.06766">
        <ele>2508</ele>
        <time>2022-07-12T12:16:28Z</time>
      </trkpt>
      <trkpt lat="44.67177" lon="7.06768">
        <ele>2509</ele>
        <time>2022-07-12T12:16:40Z</time>
      </trkpt>
      <trkpt lat="44.67173" lon="7.06765">
        <ele>2507</ele>
        <time>2022-07-12T12:16:47Z</time>
      </trkpt>
      <trkpt lat="44.6717" lon="7.06766">
        <ele>2505</ele>
        <time>2022-07-12T12:16:53Z</time>
      </trkpt>
      <trkpt lat="44.67168" lon="7.06762">
        <ele>2505</ele>
        <time>2022-07-12T12:16:59Z</time>
      </trkpt>
      <trkpt lat="44.67164" lon="7.0676">
        <ele>2504</ele>
        <time>2022-07-12T12:17:04Z</time>
      </trkpt>
      <trkpt lat="44.67161" lon="7.06761">
        <ele>2503</ele>
        <time>2022-07-12T12:17:11Z</time>
      </trkpt>
      <trkpt lat="44.67158" lon="7.06764">
        <ele>2501</ele>
        <time>2022-07-12T12:17:26Z</time>
      </trkpt>
      <trkpt lat="44.67155" lon="7.06767">
        <ele>2501</ele>
        <time>2022-07-12T12:17:32Z</time>
      </trkpt>
      <trkpt lat="44.67152" lon="7.06764">
        <ele>2498</ele>
        <time>2022-07-12T12:17:39Z</time>
      </trkpt>
      <trkpt lat="44.67148" lon="7.06765">
        <ele>2498</ele>
        <time>2022-07-12T12:17:59Z</time>
      </trkpt>
      <trkpt lat="44.67144" lon="7.06763">
        <ele>2498</ele>
        <time>2022-07-12T12:18:11Z</time>
      </trkpt>
      <trkpt lat="44.67142" lon="7.06759">
        <ele>2497</ele>
        <time>2022-07-12T12:18:16Z</time>
      </trkpt>
      <trkpt lat="44.67134" lon="7.06755">
        <ele>2496</ele>
        <time>2022-07-12T12:18:30Z</time>
      </trkpt>
      <trkpt lat="44.67131" lon="7.06752">
        <ele>2495</ele>
        <time>2022-07-12T12:18:36Z</time>
      </trkpt>
      <trkpt lat="44.67128" lon="7.06748">
        <ele>2493</ele>
        <time>2022-07-12T12:18:41Z</time>
      </trkpt>
      <trkpt lat="44.67127" lon="7.06743">
        <ele>2493</ele>
        <time>2022-07-12T12:18:48Z</time>
      </trkpt>
      <trkpt lat="44.67125" lon="7.06738">
        <ele>2494</ele>
        <time>2022-07-12T12:18:54Z</time>
      </trkpt>
      <trkpt lat="44.67122" lon="7.06736">
        <ele>2494</ele>
        <time>2022-07-12T12:19:04Z</time>
      </trkpt>
      <trkpt lat="44.67118" lon="7.06736">
        <ele>2494</ele>
        <time>2022-07-12T12:19:14Z</time>
      </trkpt>
      <trkpt lat="44.67114" lon="7.06735">
        <ele>2494</ele>
        <time>2022-07-12T12:19:23Z</time>
      </trkpt>
      <trkpt lat="44.67111" lon="7.06732">
        <ele>2493</ele>
        <time>2022-07-12T12:19:30Z</time>
      </trkpt>
      <trkpt lat="44.67108" lon="7.06731">
        <ele>2494</ele>
        <time>2022-07-12T12:19:35Z</time>
      </trkpt>
      <trkpt lat="44.67105" lon="7.06728">
        <ele>2493</ele>
        <time>2022-07-12T12:19:42Z</time>
      </trkpt>
      <trkpt lat="44.67102" lon="7.06725">
        <ele>2493</ele>
        <time>2022-07-12T12:19:48Z</time>
      </trkpt>
      <trkpt lat="44.67099" lon="7.06722">
        <ele>2492</ele>
        <time>2022-07-12T12:19:56Z</time>
      </trkpt>
      <trkpt lat="44.67096" lon="7.06724">
        <ele>2491</ele>
        <time>2022-07-12T12:20:06Z</time>
      </trkpt>
      <trkpt lat="44.67092" lon="7.06727">
        <ele>2490</ele>
        <time>2022-07-12T12:20:21Z</time>
      </trkpt>
      <trkpt lat="44.67089" lon="7.06729">
        <ele>2489</ele>
        <time>2022-07-12T12:20:43Z</time>
      </trkpt>
      <trkpt lat="44.67086" lon="7.06731">
        <ele>2488</ele>
        <time>2022-07-12T12:20:50Z</time>
      </trkpt>
      <trkpt lat="44.67082" lon="7.06731">
        <ele>2487</ele>
        <time>2022-07-12T12:20:57Z</time>
      </trkpt>
      <trkpt lat="44.67079" lon="7.06732">
        <ele>2486</ele>
        <time>2022-07-12T12:21:05Z</time>
      </trkpt>
      <trkpt lat="44.67076" lon="7.06731">
        <ele>2484</ele>
        <time>2022-07-12T12:21:13Z</time>
      </trkpt>
      <trkpt lat="44.67073" lon="7.06736">
        <ele>2482</ele>
        <time>2022-07-12T12:21:57Z</time>
      </trkpt>
      <trkpt lat="44.6707" lon="7.06733">
        <ele>2481</ele>
        <time>2022-07-12T12:22:05Z</time>
      </trkpt>
      <trkpt lat="44.67067" lon="7.06729">
        <ele>2479</ele>
        <time>2022-07-12T12:22:09Z</time>
      </trkpt>
      <trkpt lat="44.67063" lon="7.0673">
        <ele>2477</ele>
        <time>2022-07-12T12:22:16Z</time>
      </trkpt>
      <trkpt lat="44.6706" lon="7.06731">
        <ele>2477</ele>
        <time>2022-07-12T12:22:24Z</time>
      </trkpt>
      <trkpt lat="44.67053" lon="7.06726">
        <ele>2475</ele>
        <time>2022-07-12T12:22:32Z</time>
      </trkpt>
      <trkpt lat="44.6705" lon="7.06728">
        <ele>2474</ele>
        <time>2022-07-12T12:22:38Z</time>
      </trkpt>
      <trkpt lat="44.67046" lon="7.06726">
        <ele>2473</ele>
        <time>2022-07-12T12:22:54Z</time>
      </trkpt>
      <trkpt lat="44.67042" lon="7.06718">
        <ele>2472</ele>
        <time>2022-07-12T12:23:03Z</time>
      </trkpt>
      <trkpt lat="44.6704" lon="7.06714">
        <ele>2471</ele>
        <time>2022-07-12T12:23:08Z</time>
      </trkpt>
      <trkpt lat="44.67037" lon="7.06712">
        <ele>2471</ele>
        <time>2022-07-12T12:23:13Z</time>
      </trkpt>
      <trkpt lat="44.67033" lon="7.06715">
        <ele>2469</ele>
        <time>2022-07-12T12:23:21Z</time>
      </trkpt>
      <trkpt lat="44.6703" lon="7.06712">
        <ele>2469</ele>
        <time>2022-07-12T12:23:26Z</time>
      </trkpt>
      <trkpt lat="44.67027" lon="7.06709">
        <ele>2468</ele>
        <time>2022-07-12T12:23:29Z</time>
      </trkpt>
      <trkpt lat="44.67024" lon="7.06709">
        <ele>2468</ele>
        <time>2022-07-12T12:23:34Z</time>
      </trkpt>
      <trkpt lat="44.6702" lon="7.06709">
        <ele>2467</ele>
        <time>2022-07-12T12:23:39Z</time>
      </trkpt>
      <trkpt lat="44.67014" lon="7.06704">
        <ele>2466</ele>
        <time>2022-07-12T12:23:47Z</time>
      </trkpt>
      <trkpt lat="44.67011" lon="7.06702">
        <ele>2466</ele>
        <time>2022-07-12T12:23:51Z</time>
      </trkpt>
      <trkpt lat="44.67013" lon="7.06699">
        <ele>2466</ele>
        <time>2022-07-12T12:24:39Z</time>
      </trkpt>
      <trkpt lat="44.67017" lon="7.06698">
        <ele>2462</ele>
        <time>2022-07-12T12:25:10Z</time>
      </trkpt>
      <trkpt lat="44.67023" lon="7.06701">
        <ele>2460</ele>
        <time>2022-07-12T12:25:22Z</time>
      </trkpt>
      <trkpt lat="44.67024" lon="7.06706">
        <ele>2458</ele>
        <time>2022-07-12T13:08:26Z</time>
      </trkpt>
      <trkpt lat="44.67027" lon="7.0671">
        <ele>2456</ele>
        <time>2022-07-12T13:08:30Z</time>
      </trkpt>
      <trkpt lat="44.67022" lon="7.06711">
        <ele>2454</ele>
        <time>2022-07-12T13:09:23Z</time>
      </trkpt>
      <trkpt lat="44.67018" lon="7.06712">
        <ele>2453</ele>
        <time>2022-07-12T13:09:28Z</time>
      </trkpt>
      <trkpt lat="44.67014" lon="7.06716">
        <ele>2452</ele>
        <time>2022-07-12T13:09:33Z</time>
      </trkpt>
      <trkpt lat="44.6701" lon="7.06714">
        <ele>2450</ele>
        <time>2022-07-12T13:09:40Z</time>
      </trkpt>
      <trkpt lat="44.67006" lon="7.06716">
        <ele>2448</ele>
        <time>2022-07-12T13:09:45Z</time>
      </trkpt>
      <trkpt lat="44.67003" lon="7.06716">
        <ele>2447</ele>
        <time>2022-07-12T13:09:49Z</time>
      </trkpt>
      <trkpt lat="44.67" lon="7.06713">
        <ele>2447</ele>
        <time>2022-07-12T13:09:53Z</time>
      </trkpt>
      <trkpt lat="44.66996" lon="7.06712">
        <ele>2446</ele>
        <time>2022-07-12T13:09:58Z</time>
      </trkpt>
      <trkpt lat="44.66994" lon="7.06708">
        <ele>2445</ele>
        <time>2022-07-12T13:10:04Z</time>
      </trkpt>
      <trkpt lat="44.66992" lon="7.06704">
        <ele>2443</ele>
        <time>2022-07-12T13:10:10Z</time>
      </trkpt>
      <trkpt lat="44.6699" lon="7.06699">
        <ele>2441</ele>
        <time>2022-07-12T13:10:16Z</time>
      </trkpt>
      <trkpt lat="44.66988" lon="7.06695">
        <ele>2440</ele>
        <time>2022-07-12T13:10:22Z</time>
      </trkpt>
      <trkpt lat="44.66986" lon="7.0669">
        <ele>2439</ele>
        <time>2022-07-12T13:10:28Z</time>
      </trkpt>
      <trkpt lat="44.66982" lon="7.06681">
        <ele>2436</ele>
        <time>2022-07-12T13:10:38Z</time>
      </trkpt>
      <trkpt lat="44.66979" lon="7.06677">
        <ele>2435</ele>
        <time>2022-07-12T13:10:43Z</time>
      </trkpt>
      <trkpt lat="44.66966" lon="7.06664">
        <ele>2434</ele>
        <time>2022-07-12T13:10:59Z</time>
      </trkpt>
      <trkpt lat="44.66957" lon="7.06657">
        <ele>2434</ele>
        <time>2022-07-12T13:11:13Z</time>
      </trkpt>
      <trkpt lat="44.66954" lon="7.06654">
        <ele>2434</ele>
        <time>2022-07-12T13:11:17Z</time>
      </trkpt>
      <trkpt lat="44.66951" lon="7.06651">
        <ele>2434</ele>
        <time>2022-07-12T13:11:21Z</time>
      </trkpt>
      <trkpt lat="44.66948" lon="7.06647">
        <ele>2434</ele>
        <time>2022-07-12T13:11:26Z</time>
      </trkpt>
      <trkpt lat="44.66944" lon="7.06645">
        <ele>2434</ele>
        <time>2022-07-12T13:11:30Z</time>
      </trkpt>
      <trkpt lat="44.66941" lon="7.06643">
        <ele>2434</ele>
        <time>2022-07-12T13:11:33Z</time>
      </trkpt>
      <trkpt lat="44.66935" lon="7.06636">
        <ele>2433</ele>
        <time>2022-07-12T13:11:40Z</time>
      </trkpt>
      <trkpt lat="44.66932" lon="7.06632">
        <ele>2432</ele>
        <time>2022-07-12T13:11:44Z</time>
      </trkpt>
      <trkpt lat="44.66928" lon="7.06631">
        <ele>2432</ele>
        <time>2022-07-12T13:11:48Z</time>
      </trkpt>
      <trkpt lat="44.66925" lon="7.06629">
        <ele>2432</ele>
        <time>2022-07-12T13:11:52Z</time>
      </trkpt>
      <trkpt lat="44.66918" lon="7.06624">
        <ele>2432</ele>
        <time>2022-07-12T13:12:00Z</time>
      </trkpt>
      <trkpt lat="44.66905" lon="7.06612">
        <ele>2433</ele>
        <time>2022-07-12T13:12:16Z</time>
      </trkpt>
      <trkpt lat="44.66901" lon="7.0661">
        <ele>2432</ele>
        <time>2022-07-12T13:12:19Z</time>
      </trkpt>
      <trkpt lat="44.66898" lon="7.06608">
        <ele>2432</ele>
        <time>2022-07-12T13:12:23Z</time>
      </trkpt>
      <trkpt lat="44.66885" lon="7.06595">
        <ele>2432</ele>
        <time>2022-07-12T13:12:39Z</time>
      </trkpt>
      <trkpt lat="44.6688" lon="7.06588">
        <ele>2431</ele>
        <time>2022-07-12T13:12:47Z</time>
      </trkpt>
      <trkpt lat="44.66878" lon="7.06584">
        <ele>2431</ele>
        <time>2022-07-12T13:12:51Z</time>
      </trkpt>
      <trkpt lat="44.66874" lon="7.06582">
        <ele>2431</ele>
        <time>2022-07-12T13:12:55Z</time>
      </trkpt>
      <trkpt lat="44.66871" lon="7.06579">
        <ele>2431</ele>
        <time>2022-07-12T13:12:59Z</time>
      </trkpt>
      <trkpt lat="44.66861" lon="7.06563">
        <ele>2431</ele>
        <time>2022-07-12T13:13:14Z</time>
      </trkpt>
      <trkpt lat="44.66842" lon="7.06543">
        <ele>2431</ele>
        <time>2022-07-12T13:13:39Z</time>
      </trkpt>
      <trkpt lat="44.66839" lon="7.06541">
        <ele>2431</ele>
        <time>2022-07-12T13:13:42Z</time>
      </trkpt>
      <trkpt lat="44.66833" lon="7.06536">
        <ele>2431</ele>
        <time>2022-07-12T13:13:51Z</time>
      </trkpt>
      <trkpt lat="44.6683" lon="7.06532">
        <ele>2431</ele>
        <time>2022-07-12T13:13:55Z</time>
      </trkpt>
      <trkpt lat="44.66824" lon="7.06527">
        <ele>2432</ele>
        <time>2022-07-12T13:14:03Z</time>
      </trkpt>
      <trkpt lat="44.66823" lon="7.06522">
        <ele>2432</ele>
        <time>2022-07-12T13:14:06Z</time>
      </trkpt>
      <trkpt lat="44.6682" lon="7.06521">
        <ele>2431</ele>
        <time>2022-07-12T13:14:09Z</time>
      </trkpt>
      <trkpt lat="44.66816" lon="7.06521">
        <ele>2431</ele>
        <time>2022-07-12T13:14:13Z</time>
      </trkpt>
      <trkpt lat="44.6681" lon="7.06514">
        <ele>2430</ele>
        <time>2022-07-12T13:14:21Z</time>
      </trkpt>
      <trkpt lat="44.66807" lon="7.0651">
        <ele>2430</ele>
        <time>2022-07-12T13:14:26Z</time>
      </trkpt>
      <trkpt lat="44.66804" lon="7.06508">
        <ele>2430</ele>
        <time>2022-07-12T13:14:30Z</time>
      </trkpt>
      <trkpt lat="44.668" lon="7.06506">
        <ele>2429</ele>
        <time>2022-07-12T13:14:34Z</time>
      </trkpt>
      <trkpt lat="44.66793" lon="7.06502">
        <ele>2429</ele>
        <time>2022-07-12T13:14:43Z</time>
      </trkpt>
      <trkpt lat="44.6679" lon="7.06499">
        <ele>2429</ele>
        <time>2022-07-12T13:14:47Z</time>
      </trkpt>
      <trkpt lat="44.66786" lon="7.06498">
        <ele>2430</ele>
        <time>2022-07-12T13:14:51Z</time>
      </trkpt>
      <trkpt lat="44.66782" lon="7.06497">
        <ele>2430</ele>
        <time>2022-07-12T13:14:56Z</time>
      </trkpt>
      <trkpt lat="44.66779" lon="7.06496">
        <ele>2430</ele>
        <time>2022-07-12T13:15:00Z</time>
      </trkpt>
      <trkpt lat="44.66777" lon="7.0649">
        <ele>2430</ele>
        <time>2022-07-12T13:15:05Z</time>
      </trkpt>
      <trkpt lat="44.6677" lon="7.06487">
        <ele>2429</ele>
        <time>2022-07-12T13:15:16Z</time>
      </trkpt>
      <trkpt lat="44.66767" lon="7.06485">
        <ele>2428</ele>
        <time>2022-07-12T13:15:20Z</time>
      </trkpt>
      <trkpt lat="44.66764" lon="7.06483">
        <ele>2428</ele>
        <time>2022-07-12T13:15:26Z</time>
      </trkpt>
      <trkpt lat="44.66761" lon="7.06481">
        <ele>2428</ele>
        <time>2022-07-12T13:15:32Z</time>
      </trkpt>
      <trkpt lat="44.66757" lon="7.06482">
        <ele>2427</ele>
        <time>2022-07-12T13:15:37Z</time>
      </trkpt>
      <trkpt lat="44.66753" lon="7.06482">
        <ele>2426</ele>
        <time>2022-07-12T13:15:42Z</time>
      </trkpt>
      <trkpt lat="44.66742" lon="7.06485">
        <ele>2427</ele>
        <time>2022-07-12T13:15:53Z</time>
      </trkpt>
      <trkpt lat="44.66727" lon="7.06494">
        <ele>2427</ele>
        <time>2022-07-12T13:16:11Z</time>
      </trkpt>
      <trkpt lat="44.66723" lon="7.06494">
        <ele>2426</ele>
        <time>2022-07-12T13:16:17Z</time>
      </trkpt>
      <trkpt lat="44.66709" lon="7.06498">
        <ele>2428</ele>
        <time>2022-07-12T13:16:32Z</time>
      </trkpt>
      <trkpt lat="44.66705" lon="7.06499">
        <ele>2429</ele>
        <time>2022-07-12T13:16:38Z</time>
      </trkpt>
      <trkpt lat="44.66701" lon="7.06501">
        <ele>2430</ele>
        <time>2022-07-12T13:16:43Z</time>
      </trkpt>
      <trkpt lat="44.66693" lon="7.06501">
        <ele>2431</ele>
        <time>2022-07-12T13:16:53Z</time>
      </trkpt>
      <trkpt lat="44.66685" lon="7.06497">
        <ele>2433</ele>
        <time>2022-07-12T13:17:03Z</time>
      </trkpt>
      <trkpt lat="44.66681" lon="7.06496">
        <ele>2434</ele>
        <time>2022-07-12T13:17:08Z</time>
      </trkpt>
      <trkpt lat="44.66678" lon="7.06493">
        <ele>2436</ele>
        <time>2022-07-12T13:17:14Z</time>
      </trkpt>
      <trkpt lat="44.66674" lon="7.06493">
        <ele>2436</ele>
        <time>2022-07-12T13:17:19Z</time>
      </trkpt>
      <trkpt lat="44.66671" lon="7.0649">
        <ele>2438</ele>
        <time>2022-07-12T13:17:24Z</time>
      </trkpt>
      <trkpt lat="44.66664" lon="7.06485">
        <ele>2441</ele>
        <time>2022-07-12T13:17:36Z</time>
      </trkpt>
      <trkpt lat="44.6666" lon="7.06482">
        <ele>2442</ele>
        <time>2022-07-12T13:17:40Z</time>
      </trkpt>
      <trkpt lat="44.66654" lon="7.06475">
        <ele>2442</ele>
        <time>2022-07-12T13:17:48Z</time>
      </trkpt>
      <trkpt lat="44.66647" lon="7.0647">
        <ele>2442</ele>
        <time>2022-07-12T13:17:57Z</time>
      </trkpt>
      <trkpt lat="44.66647" lon="7.06465">
        <ele>2442</ele>
        <time>2022-07-12T13:18:00Z</time>
      </trkpt>
      <trkpt lat="44.66644" lon="7.06462">
        <ele>2441</ele>
        <time>2022-07-12T13:18:05Z</time>
      </trkpt>
      <trkpt lat="44.6664" lon="7.06458">
        <ele>2440</ele>
        <time>2022-07-12T13:18:09Z</time>
      </trkpt>
      <trkpt lat="44.66637" lon="7.06456">
        <ele>2440</ele>
        <time>2022-07-12T13:18:13Z</time>
      </trkpt>
      <trkpt lat="44.66624" lon="7.06444">
        <ele>2441</ele>
        <time>2022-07-12T13:18:29Z</time>
      </trkpt>
      <trkpt lat="44.66617" lon="7.06442">
        <ele>2439</ele>
        <time>2022-07-12T13:18:37Z</time>
      </trkpt>
      <trkpt lat="44.66614" lon="7.06439">
        <ele>2438</ele>
        <time>2022-07-12T13:18:41Z</time>
      </trkpt>
      <trkpt lat="44.66611" lon="7.06437">
        <ele>2438</ele>
        <time>2022-07-12T13:18:44Z</time>
      </trkpt>
      <trkpt lat="44.6661" lon="7.06432">
        <ele>2438</ele>
        <time>2022-07-12T13:18:51Z</time>
      </trkpt>
      <trkpt lat="44.66607" lon="7.06428">
        <ele>2438</ele>
        <time>2022-07-12T13:18:56Z</time>
      </trkpt>
      <trkpt lat="44.66604" lon="7.06429">
        <ele>2438</ele>
        <time>2022-07-12T13:19:01Z</time>
      </trkpt>
      <trkpt lat="44.66599" lon="7.06433">
        <ele>2440</ele>
        <time>2022-07-12T13:19:05Z</time>
      </trkpt>
      <trkpt lat="44.66596" lon="7.06432">
        <ele>2441</ele>
        <time>2022-07-12T13:19:09Z</time>
      </trkpt>
      <trkpt lat="44.66588" lon="7.06431">
        <ele>2442</ele>
        <time>2022-07-12T13:19:18Z</time>
      </trkpt>
      <trkpt lat="44.66584" lon="7.06433">
        <ele>2442</ele>
        <time>2022-07-12T13:19:21Z</time>
      </trkpt>
      <trkpt lat="44.6658" lon="7.06432">
        <ele>2442</ele>
        <time>2022-07-12T13:19:26Z</time>
      </trkpt>
      <trkpt lat="44.66577" lon="7.06434">
        <ele>2442</ele>
        <time>2022-07-12T13:19:29Z</time>
      </trkpt>
      <trkpt lat="44.66573" lon="7.06436">
        <ele>2442</ele>
        <time>2022-07-12T13:19:33Z</time>
      </trkpt>
      <trkpt lat="44.66563" lon="7.06443">
        <ele>2445</ele>
        <time>2022-07-12T13:19:46Z</time>
      </trkpt>
      <trkpt lat="44.66563" lon="7.06449">
        <ele>2446</ele>
        <time>2022-07-12T13:19:53Z</time>
      </trkpt>
      <trkpt lat="44.66566" lon="7.06452">
        <ele>2445</ele>
        <time>2022-07-12T13:19:59Z</time>
      </trkpt>
      <trkpt lat="44.66563" lon="7.0645">
        <ele>2445</ele>
        <time>2022-07-12T13:20:18Z</time>
      </trkpt>
    </trkseg>
  </trk>
  <trk>
    <name><![CDATA[13 juil. 2022]]></name>
    <desc><![CDATA[comment ...]]></desc>
    <extensions>
      <line xmlns="http://www.topografix.com/GPX/gpx_style/0/2">
        <color>00FF00</color>
        <width>4</width>
      </line>
    </extensions>
    <trkseg>
      <trkpt lat="44.66573" lon="7.06431">
        <ele>2504</ele>
        <time>2022-07-13T06:34:19Z</time>
      </trkpt>
      <trkpt lat="44.66574" lon="7.0643">
        <ele>2508</ele>
        <time>2022-07-13T06:34:20Z</time>
      </trkpt>
      <trkpt lat="44.66581" lon="7.06433">
        <ele>2508</ele>
        <time>2022-07-13T06:34:29Z</time>
      </trkpt>
      <trkpt lat="44.66587" lon="7.06432">
        <ele>2486</ele>
        <time>2022-07-13T06:34:35Z</time>
      </trkpt>
      <trkpt lat="44.66595" lon="7.06421">
        <ele>2461</ele>
        <time>2022-07-13T06:36:17Z</time>
      </trkpt>
      <trkpt lat="44.66606" lon="7.06413">
        <ele>2452</ele>
        <time>2022-07-13T06:36:27Z</time>
      </trkpt>
      <trkpt lat="44.66612" lon="7.06402">
        <ele>2442</ele>
        <time>2022-07-13T06:36:42Z</time>
      </trkpt>
      <trkpt lat="44.66608" lon="7.06391">
        <ele>2437</ele>
        <time>2022-07-13T06:36:56Z</time>
      </trkpt>
      <trkpt lat="44.66599" lon="7.0639">
        <ele>2434</ele>
        <time>2022-07-13T06:37:10Z</time>
      </trkpt>
      <trkpt lat="44.666" lon="7.06377">
        <ele>2426</ele>
        <time>2022-07-13T06:37:21Z</time>
      </trkpt>
      <trkpt lat="44.66602" lon="7.06364">
        <ele>2426</ele>
        <time>2022-07-13T06:37:33Z</time>
      </trkpt>
      <trkpt lat="44.666" lon="7.0635">
        <ele>2428</ele>
        <time>2022-07-13T06:37:44Z</time>
      </trkpt>
      <trkpt lat="44.66595" lon="7.0634">
        <ele>2428</ele>
        <time>2022-07-13T06:37:57Z</time>
      </trkpt>
      <trkpt lat="44.66589" lon="7.06331">
        <ele>2427</ele>
        <time>2022-07-13T06:38:08Z</time>
      </trkpt>
      <trkpt lat="44.66583" lon="7.0632">
        <ele>2426</ele>
        <time>2022-07-13T06:38:18Z</time>
      </trkpt>
      <trkpt lat="44.66576" lon="7.06309">
        <ele>2423</ele>
        <time>2022-07-13T06:38:29Z</time>
      </trkpt>
      <trkpt lat="44.66571" lon="7.06299">
        <ele>2421</ele>
        <time>2022-07-13T06:38:37Z</time>
      </trkpt>
      <trkpt lat="44.66566" lon="7.0627">
        <ele>2416</ele>
        <time>2022-07-13T06:39:01Z</time>
      </trkpt>
      <trkpt lat="44.6656" lon="7.0626">
        <ele>2420</ele>
        <time>2022-07-13T06:40:12Z</time>
      </trkpt>
      <trkpt lat="44.66553" lon="7.0625">
        <ele>2421</ele>
        <time>2022-07-13T06:40:23Z</time>
      </trkpt>
      <trkpt lat="44.66545" lon="7.06242">
        <ele>2424</ele>
        <time>2022-07-13T06:40:29Z</time>
      </trkpt>
      <trkpt lat="44.66533" lon="7.06223">
        <ele>2427</ele>
        <time>2022-07-13T06:40:45Z</time>
      </trkpt>
      <trkpt lat="44.66526" lon="7.06214">
        <ele>2430</ele>
        <time>2022-07-13T06:40:54Z</time>
      </trkpt>
      <trkpt lat="44.66519" lon="7.06205">
        <ele>2432</ele>
        <time>2022-07-13T06:41:05Z</time>
      </trkpt>
      <trkpt lat="44.66513" lon="7.06195">
        <ele>2433</ele>
        <time>2022-07-13T06:41:15Z</time>
      </trkpt>
      <trkpt lat="44.66507" lon="7.06185">
        <ele>2432</ele>
        <time>2022-07-13T06:41:27Z</time>
      </trkpt>
      <trkpt lat="44.66498" lon="7.0618">
        <ele>2431</ele>
        <time>2022-07-13T06:41:37Z</time>
      </trkpt>
      <trkpt lat="44.66499" lon="7.06167">
        <ele>2430</ele>
        <time>2022-07-13T06:41:48Z</time>
      </trkpt>
      <trkpt lat="44.66498" lon="7.06153">
        <ele>2429</ele>
        <time>2022-07-13T06:41:59Z</time>
      </trkpt>
      <trkpt lat="44.66486" lon="7.06133">
        <ele>2426</ele>
        <time>2022-07-13T06:42:18Z</time>
      </trkpt>
      <trkpt lat="44.66478" lon="7.06126">
        <ele>2425</ele>
        <time>2022-07-13T06:42:26Z</time>
      </trkpt>
      <trkpt lat="44.6647" lon="7.06121">
        <ele>2426</ele>
        <time>2022-07-13T06:42:36Z</time>
      </trkpt>
      <trkpt lat="44.66462" lon="7.06114">
        <ele>2425</ele>
        <time>2022-07-13T06:42:45Z</time>
      </trkpt>
      <trkpt lat="44.66444" lon="7.06108">
        <ele>2425</ele>
        <time>2022-07-13T06:43:06Z</time>
      </trkpt>
      <trkpt lat="44.66435" lon="7.06107">
        <ele>2427</ele>
        <time>2022-07-13T06:43:16Z</time>
      </trkpt>
      <trkpt lat="44.66426" lon="7.06103">
        <ele>2428</ele>
        <time>2022-07-13T06:43:28Z</time>
      </trkpt>
      <trkpt lat="44.66419" lon="7.06094">
        <ele>2425</ele>
        <time>2022-07-13T06:43:40Z</time>
      </trkpt>
      <trkpt lat="44.66413" lon="7.06086">
        <ele>2425</ele>
        <time>2022-07-13T06:44:47Z</time>
      </trkpt>
      <trkpt lat="44.66397" lon="7.06071">
        <ele>2416</ele>
        <time>2022-07-13T06:45:11Z</time>
      </trkpt>
      <trkpt lat="44.6639" lon="7.06063">
        <ele>2412</ele>
        <time>2022-07-13T06:45:21Z</time>
      </trkpt>
      <trkpt lat="44.66382" lon="7.06058">
        <ele>2408</ele>
        <time>2022-07-13T06:45:43Z</time>
      </trkpt>
      <trkpt lat="44.66365" lon="7.06046">
        <ele>2404</ele>
        <time>2022-07-13T06:46:03Z</time>
      </trkpt>
      <trkpt lat="44.66356" lon="7.06041">
        <ele>2401</ele>
        <time>2022-07-13T06:46:12Z</time>
      </trkpt>
      <trkpt lat="44.66347" lon="7.06036">
        <ele>2400</ele>
        <time>2022-07-13T06:46:21Z</time>
      </trkpt>
      <trkpt lat="44.6634" lon="7.06044">
        <ele>2394</ele>
        <time>2022-07-13T06:46:52Z</time>
      </trkpt>
      <trkpt lat="44.66346" lon="7.06054">
        <ele>2393</ele>
        <time>2022-07-13T06:47:02Z</time>
      </trkpt>
      <trkpt lat="44.66348" lon="7.06067">
        <ele>2387</ele>
        <time>2022-07-13T06:47:14Z</time>
      </trkpt>
      <trkpt lat="44.66339" lon="7.06065">
        <ele>2387</ele>
        <time>2022-07-13T06:47:23Z</time>
      </trkpt>
      <trkpt lat="44.6633" lon="7.06063">
        <ele>2383</ele>
        <time>2022-07-13T06:47:32Z</time>
      </trkpt>
      <trkpt lat="44.6632" lon="7.0606">
        <ele>2382</ele>
        <time>2022-07-13T06:47:42Z</time>
      </trkpt>
      <trkpt lat="44.66294" lon="7.06049">
        <ele>2377</ele>
        <time>2022-07-13T06:48:11Z</time>
      </trkpt>
      <trkpt lat="44.66285" lon="7.06048">
        <ele>2376</ele>
        <time>2022-07-13T06:48:20Z</time>
      </trkpt>
      <trkpt lat="44.66275" lon="7.06045">
        <ele>2372</ele>
        <time>2022-07-13T06:48:30Z</time>
      </trkpt>
      <trkpt lat="44.66274" lon="7.06058">
        <ele>2369</ele>
        <time>2022-07-13T06:48:42Z</time>
      </trkpt>
      <trkpt lat="44.66274" lon="7.06071">
        <ele>2367</ele>
        <time>2022-07-13T06:48:53Z</time>
      </trkpt>
      <trkpt lat="44.66266" lon="7.06078">
        <ele>2366</ele>
        <time>2022-07-13T06:49:04Z</time>
      </trkpt>
      <trkpt lat="44.66258" lon="7.06086">
        <ele>2364</ele>
        <time>2022-07-13T06:49:14Z</time>
      </trkpt>
      <trkpt lat="44.6625" lon="7.06094">
        <ele>2361</ele>
        <time>2022-07-13T06:49:24Z</time>
      </trkpt>
      <trkpt lat="44.66242" lon="7.06101">
        <ele>2357</ele>
        <time>2022-07-13T06:49:35Z</time>
      </trkpt>
      <trkpt lat="44.66235" lon="7.0611">
        <ele>2356</ele>
        <time>2022-07-13T06:49:49Z</time>
      </trkpt>
      <trkpt lat="44.66208" lon="7.06102">
        <ele>2354</ele>
        <time>2022-07-13T06:50:17Z</time>
      </trkpt>
      <trkpt lat="44.662" lon="7.06097">
        <ele>2352</ele>
        <time>2022-07-13T06:50:27Z</time>
      </trkpt>
      <trkpt lat="44.6619" lon="7.06094">
        <ele>2350</ele>
        <time>2022-07-13T06:50:36Z</time>
      </trkpt>
      <trkpt lat="44.66181" lon="7.06093">
        <ele>2349</ele>
        <time>2022-07-13T06:50:45Z</time>
      </trkpt>
      <trkpt lat="44.66172" lon="7.06094">
        <ele>2347</ele>
        <time>2022-07-13T06:50:55Z</time>
      </trkpt>
      <trkpt lat="44.66163" lon="7.06092">
        <ele>2346</ele>
        <time>2022-07-13T06:51:06Z</time>
      </trkpt>
      <trkpt lat="44.66154" lon="7.06092">
        <ele>2345</ele>
        <time>2022-07-13T06:51:16Z</time>
      </trkpt>
      <trkpt lat="44.66144" lon="7.0609">
        <ele>2345</ele>
        <time>2022-07-13T06:51:27Z</time>
      </trkpt>
      <trkpt lat="44.66117" lon="7.0608">
        <ele>2340</ele>
        <time>2022-07-13T06:51:57Z</time>
      </trkpt>
      <trkpt lat="44.6611" lon="7.06071">
        <ele>2339</ele>
        <time>2022-07-13T06:52:15Z</time>
      </trkpt>
      <trkpt lat="44.66101" lon="7.06069">
        <ele>2339</ele>
        <time>2022-07-13T06:53:21Z</time>
      </trkpt>
      <trkpt lat="44.66084" lon="7.06058">
        <ele>2341</ele>
        <time>2022-07-13T06:53:45Z</time>
      </trkpt>
      <trkpt lat="44.66076" lon="7.06052">
        <ele>2343</ele>
        <time>2022-07-13T06:53:56Z</time>
      </trkpt>
      <trkpt lat="44.66067" lon="7.06055">
        <ele>2341</ele>
        <time>2022-07-13T06:54:07Z</time>
      </trkpt>
      <trkpt lat="44.66058" lon="7.06055">
        <ele>2337</ele>
        <time>2022-07-13T06:54:17Z</time>
      </trkpt>
      <trkpt lat="44.6605" lon="7.06047">
        <ele>2337</ele>
        <time>2022-07-13T06:54:27Z</time>
      </trkpt>
      <trkpt lat="44.66032" lon="7.06048">
        <ele>2335</ele>
        <time>2022-07-13T06:54:47Z</time>
      </trkpt>
      <trkpt lat="44.66023" lon="7.06054">
        <ele>2333</ele>
        <time>2022-07-13T06:54:56Z</time>
      </trkpt>
      <trkpt lat="44.66013" lon="7.06057">
        <ele>2329</ele>
        <time>2022-07-13T06:55:05Z</time>
      </trkpt>
      <trkpt lat="44.66005" lon="7.0605">
        <ele>2327</ele>
        <time>2022-07-13T06:55:14Z</time>
      </trkpt>
      <trkpt lat="44.65996" lon="7.06049">
        <ele>2325</ele>
        <time>2022-07-13T06:55:23Z</time>
      </trkpt>
      <trkpt lat="44.65987" lon="7.06048">
        <ele>2323</ele>
        <time>2022-07-13T06:55:32Z</time>
      </trkpt>
      <trkpt lat="44.65979" lon="7.06039">
        <ele>2322</ele>
        <time>2022-07-13T06:55:43Z</time>
      </trkpt>
      <trkpt lat="44.65966" lon="7.06022">
        <ele>2316</ele>
        <time>2022-07-13T06:56:01Z</time>
      </trkpt>
      <trkpt lat="44.65962" lon="7.06034">
        <ele>2311</ele>
        <time>2022-07-13T06:56:29Z</time>
      </trkpt>
      <trkpt lat="44.65953" lon="7.06036">
        <ele>2310</ele>
        <time>2022-07-13T06:56:38Z</time>
      </trkpt>
      <trkpt lat="44.65949" lon="7.06024">
        <ele>2305</ele>
        <time>2022-07-13T06:56:48Z</time>
      </trkpt>
      <trkpt lat="44.65933" lon="7.0601">
        <ele>2304</ele>
        <time>2022-07-13T06:57:09Z</time>
      </trkpt>
      <trkpt lat="44.65933" lon="7.06024">
        <ele>2300</ele>
        <time>2022-07-13T06:57:28Z</time>
      </trkpt>
      <trkpt lat="44.65924" lon="7.06022">
        <ele>2299</ele>
        <time>2022-07-13T06:57:45Z</time>
      </trkpt>
      <trkpt lat="44.65915" lon="7.06018">
        <ele>2295</ele>
        <time>2022-07-13T06:57:56Z</time>
      </trkpt>
      <trkpt lat="44.65906" lon="7.0602">
        <ele>2295</ele>
        <time>2022-07-13T06:58:05Z</time>
      </trkpt>
      <trkpt lat="44.65911" lon="7.06032">
        <ele>2293</ele>
        <time>2022-07-13T06:58:25Z</time>
      </trkpt>
      <trkpt lat="44.65902" lon="7.06035">
        <ele>2287</ele>
        <time>2022-07-13T06:58:41Z</time>
      </trkpt>
      <trkpt lat="44.65892" lon="7.06034">
        <ele>2286</ele>
        <time>2022-07-13T06:58:52Z</time>
      </trkpt>
      <trkpt lat="44.65883" lon="7.06031">
        <ele>2282</ele>
        <time>2022-07-13T06:59:03Z</time>
      </trkpt>
      <trkpt lat="44.65874" lon="7.06034">
        <ele>2281</ele>
        <time>2022-07-13T06:59:14Z</time>
      </trkpt>
      <trkpt lat="44.65865" lon="7.06029">
        <ele>2278</ele>
        <time>2022-07-13T06:59:24Z</time>
      </trkpt>
      <trkpt lat="44.65856" lon="7.06027">
        <ele>2276</ele>
        <time>2022-07-13T06:59:35Z</time>
      </trkpt>
      <trkpt lat="44.65847" lon="7.06023">
        <ele>2275</ele>
        <time>2022-07-13T06:59:45Z</time>
      </trkpt>
      <trkpt lat="44.65838" lon="7.06021">
        <ele>2274</ele>
        <time>2022-07-13T06:59:55Z</time>
      </trkpt>
      <trkpt lat="44.65828" lon="7.06019">
        <ele>2271</ele>
        <time>2022-07-13T07:00:06Z</time>
      </trkpt>
      <trkpt lat="44.65819" lon="7.06021">
        <ele>2268</ele>
        <time>2022-07-13T07:00:24Z</time>
      </trkpt>
      <trkpt lat="44.6581" lon="7.06021">
        <ele>2263</ele>
        <time>2022-07-13T07:00:34Z</time>
      </trkpt>
      <trkpt lat="44.65806" lon="7.06033">
        <ele>2261</ele>
        <time>2022-07-13T07:00:44Z</time>
      </trkpt>
      <trkpt lat="44.65797" lon="7.06038">
        <ele>2259</ele>
        <time>2022-07-13T07:00:54Z</time>
      </trkpt>
      <trkpt lat="44.65788" lon="7.06038">
        <ele>2257</ele>
        <time>2022-07-13T07:01:03Z</time>
      </trkpt>
      <trkpt lat="44.65779" lon="7.06041">
        <ele>2253</ele>
        <time>2022-07-13T07:01:14Z</time>
      </trkpt>
      <trkpt lat="44.65769" lon="7.0604">
        <ele>2252</ele>
        <time>2022-07-13T07:01:25Z</time>
      </trkpt>
      <trkpt lat="44.65759" lon="7.06043">
        <ele>2244</ele>
        <time>2022-07-13T07:01:36Z</time>
      </trkpt>
      <trkpt lat="44.6575" lon="7.06039">
        <ele>2244</ele>
        <time>2022-07-13T07:01:46Z</time>
      </trkpt>
      <trkpt lat="44.65742" lon="7.06032">
        <ele>2243</ele>
        <time>2022-07-13T07:01:56Z</time>
      </trkpt>
      <trkpt lat="44.65705" lon="7.06018">
        <ele>2237</ele>
        <time>2022-07-13T07:02:33Z</time>
      </trkpt>
      <trkpt lat="44.65695" lon="7.06016">
        <ele>2236</ele>
        <time>2022-07-13T07:02:42Z</time>
      </trkpt>
      <trkpt lat="44.65677" lon="7.06013">
        <ele>2231</ele>
        <time>2022-07-13T07:03:00Z</time>
      </trkpt>
      <trkpt lat="44.65668" lon="7.06009">
        <ele>2228</ele>
        <time>2022-07-13T07:03:09Z</time>
      </trkpt>
      <trkpt lat="44.65659" lon="7.06005">
        <ele>2226</ele>
        <time>2022-07-13T07:03:18Z</time>
      </trkpt>
      <trkpt lat="44.65645" lon="7.05989">
        <ele>2223</ele>
        <time>2022-07-13T07:03:40Z</time>
      </trkpt>
      <trkpt lat="44.65638" lon="7.05981">
        <ele>2224</ele>
        <time>2022-07-13T07:03:52Z</time>
      </trkpt>
      <trkpt lat="44.6561" lon="7.05973">
        <ele>2224</ele>
        <time>2022-07-13T07:04:25Z</time>
      </trkpt>
      <trkpt lat="44.65601" lon="7.05971">
        <ele>2221</ele>
        <time>2022-07-13T07:04:34Z</time>
      </trkpt>
      <trkpt lat="44.65598" lon="7.05978">
        <ele>2217</ele>
        <time>2022-07-13T07:04:54Z</time>
      </trkpt>
      <trkpt lat="44.65604" lon="7.05987">
        <ele>2215</ele>
        <time>2022-07-13T07:05:03Z</time>
      </trkpt>
      <trkpt lat="44.65609" lon="7.05999">
        <ele>2207</ele>
        <time>2022-07-13T07:05:13Z</time>
      </trkpt>
      <trkpt lat="44.65602" lon="7.06007">
        <ele>2204</ele>
        <time>2022-07-13T07:05:31Z</time>
      </trkpt>
      <trkpt lat="44.65592" lon="7.06008">
        <ele>2204</ele>
        <time>2022-07-13T07:05:41Z</time>
      </trkpt>
      <trkpt lat="44.65574" lon="7.06005">
        <ele>2203</ele>
        <time>2022-07-13T07:05:59Z</time>
      </trkpt>
      <trkpt lat="44.65565" lon="7.06002">
        <ele>2200</ele>
        <time>2022-07-13T07:06:08Z</time>
      </trkpt>
      <trkpt lat="44.65557" lon="7.05996">
        <ele>2196</ele>
        <time>2022-07-13T07:06:17Z</time>
      </trkpt>
      <trkpt lat="44.65547" lon="7.05995">
        <ele>2194</ele>
        <time>2022-07-13T07:06:26Z</time>
      </trkpt>
      <trkpt lat="44.65539" lon="7.05988">
        <ele>2192</ele>
        <time>2022-07-13T07:06:35Z</time>
      </trkpt>
      <trkpt lat="44.6553" lon="7.05988">
        <ele>2190</ele>
        <time>2022-07-13T07:06:44Z</time>
      </trkpt>
      <trkpt lat="44.6552" lon="7.05987">
        <ele>2186</ele>
        <time>2022-07-13T07:06:53Z</time>
      </trkpt>
      <trkpt lat="44.6551" lon="7.05986">
        <ele>2185</ele>
        <time>2022-07-13T07:07:01Z</time>
      </trkpt>
      <trkpt lat="44.65501" lon="7.05987">
        <ele>2182</ele>
        <time>2022-07-13T07:07:11Z</time>
      </trkpt>
      <trkpt lat="44.65491" lon="7.05986">
        <ele>2180</ele>
        <time>2022-07-13T07:07:21Z</time>
      </trkpt>
      <trkpt lat="44.65482" lon="7.05982">
        <ele>2175</ele>
        <time>2022-07-13T07:07:31Z</time>
      </trkpt>
      <trkpt lat="44.65473" lon="7.05983">
        <ele>2173</ele>
        <time>2022-07-13T07:07:41Z</time>
      </trkpt>
      <trkpt lat="44.65465" lon="7.05988">
        <ele>2168</ele>
        <time>2022-07-13T07:07:51Z</time>
      </trkpt>
      <trkpt lat="44.65458" lon="7.05996">
        <ele>2166</ele>
        <time>2022-07-13T07:08:00Z</time>
      </trkpt>
      <trkpt lat="44.65449" lon="7.06">
        <ele>2160</ele>
        <time>2022-07-13T07:08:10Z</time>
      </trkpt>
      <trkpt lat="44.6544" lon="7.05998">
        <ele>2160</ele>
        <time>2022-07-13T07:08:19Z</time>
      </trkpt>
      <trkpt lat="44.65433" lon="7.06007">
        <ele>2159</ele>
        <time>2022-07-13T07:08:29Z</time>
      </trkpt>
      <trkpt lat="44.65424" lon="7.06011">
        <ele>2157</ele>
        <time>2022-07-13T07:08:38Z</time>
      </trkpt>
      <trkpt lat="44.65387" lon="7.06013">
        <ele>2151</ele>
        <time>2022-07-13T07:09:16Z</time>
      </trkpt>
      <trkpt lat="44.65369" lon="7.06016">
        <ele>2147</ele>
        <time>2022-07-13T07:09:35Z</time>
      </trkpt>
      <trkpt lat="44.65359" lon="7.06014">
        <ele>2145</ele>
        <time>2022-07-13T07:09:45Z</time>
      </trkpt>
      <trkpt lat="44.6535" lon="7.06013">
        <ele>2144</ele>
        <time>2022-07-13T07:09:54Z</time>
      </trkpt>
      <trkpt lat="44.65332" lon="7.06008">
        <ele>2135</ele>
        <time>2022-07-13T07:10:11Z</time>
      </trkpt>
      <trkpt lat="44.65323" lon="7.06008">
        <ele>2131</ele>
        <time>2022-07-13T07:10:19Z</time>
      </trkpt>
      <trkpt lat="44.65314" lon="7.06009">
        <ele>2130</ele>
        <time>2022-07-13T07:10:27Z</time>
      </trkpt>
      <trkpt lat="44.65285" lon="7.06015">
        <ele>2131</ele>
        <time>2022-07-13T07:10:54Z</time>
      </trkpt>
      <trkpt lat="44.65248" lon="7.06009">
        <ele>2133</ele>
        <time>2022-07-13T07:11:28Z</time>
      </trkpt>
      <trkpt lat="44.65229" lon="7.06007">
        <ele>2133</ele>
        <time>2022-07-13T07:11:44Z</time>
      </trkpt>
      <trkpt lat="44.652" lon="7.06002">
        <ele>2133</ele>
        <time>2022-07-13T07:12:09Z</time>
      </trkpt>
      <trkpt lat="44.65166" lon="7.06002">
        <ele>2132</ele>
        <time>2022-07-13T07:12:39Z</time>
      </trkpt>
      <trkpt lat="44.65162" lon="7.06002">
        <ele>2132</ele>
        <time>2022-07-13T07:12:43Z</time>
      </trkpt>
      <trkpt lat="44.65158" lon="7.06003">
        <ele>2131</ele>
        <time>2022-07-13T07:12:47Z</time>
      </trkpt>
      <trkpt lat="44.65154" lon="7.06004">
        <ele>2131</ele>
        <time>2022-07-13T07:12:51Z</time>
      </trkpt>
      <trkpt lat="44.65151" lon="7.06003">
        <ele>2131</ele>
        <time>2022-07-13T07:12:54Z</time>
      </trkpt>
      <trkpt lat="44.65144" lon="7.06">
        <ele>2132</ele>
        <time>2022-07-13T07:13:02Z</time>
      </trkpt>
      <trkpt lat="44.6514" lon="7.05999">
        <ele>2132</ele>
        <time>2022-07-13T07:13:05Z</time>
      </trkpt>
      <trkpt lat="44.65137" lon="7.05999">
        <ele>2132</ele>
        <time>2022-07-13T07:13:08Z</time>
      </trkpt>
      <trkpt lat="44.65103" lon="7.06008">
        <ele>2130</ele>
        <time>2022-07-13T07:13:39Z</time>
      </trkpt>
      <trkpt lat="44.65099" lon="7.0601">
        <ele>2129</ele>
        <time>2022-07-13T07:13:43Z</time>
      </trkpt>
      <trkpt lat="44.65089" lon="7.0601">
        <ele>2129</ele>
        <time>2022-07-13T07:13:52Z</time>
      </trkpt>
      <trkpt lat="44.65077" lon="7.06009">
        <ele>2129</ele>
        <time>2022-07-13T07:14:03Z</time>
      </trkpt>
      <trkpt lat="44.65061" lon="7.06012">
        <ele>2128</ele>
        <time>2022-07-13T07:14:16Z</time>
      </trkpt>
      <trkpt lat="44.65054" lon="7.06016">
        <ele>2127</ele>
        <time>2022-07-13T07:14:23Z</time>
      </trkpt>
      <trkpt lat="44.65042" lon="7.06016">
        <ele>2127</ele>
        <time>2022-07-13T07:14:33Z</time>
      </trkpt>
      <trkpt lat="44.65009" lon="7.0603">
        <ele>2123</ele>
        <time>2022-07-13T07:15:04Z</time>
      </trkpt>
      <trkpt lat="44.65005" lon="7.06031">
        <ele>2123</ele>
        <time>2022-07-13T07:15:14Z</time>
      </trkpt>
      <trkpt lat="44.64973" lon="7.06046">
        <ele>2124</ele>
        <time>2022-07-13T07:15:44Z</time>
      </trkpt>
      <trkpt lat="44.64953" lon="7.06048">
        <ele>2121</ele>
        <time>2022-07-13T07:16:01Z</time>
      </trkpt>
      <trkpt lat="44.64943" lon="7.06054">
        <ele>2120</ele>
        <time>2022-07-13T07:16:11Z</time>
      </trkpt>
      <trkpt lat="44.64922" lon="7.06072">
        <ele>2121</ele>
        <time>2022-07-13T07:16:32Z</time>
      </trkpt>
      <trkpt lat="44.64899" lon="7.06082">
        <ele>2123</ele>
        <time>2022-07-13T07:16:53Z</time>
      </trkpt>
      <trkpt lat="44.64886" lon="7.06087">
        <ele>2124</ele>
        <time>2022-07-13T07:17:04Z</time>
      </trkpt>
      <trkpt lat="44.64858" lon="7.06099">
        <ele>2127</ele>
        <time>2022-07-13T07:17:32Z</time>
      </trkpt>
      <trkpt lat="44.6484" lon="7.061">
        <ele>2124</ele>
        <time>2022-07-13T07:17:50Z</time>
      </trkpt>
      <trkpt lat="44.64812" lon="7.06107">
        <ele>2123</ele>
        <time>2022-07-13T07:18:15Z</time>
      </trkpt>
      <trkpt lat="44.64775" lon="7.06101">
        <ele>2120</ele>
        <time>2022-07-13T07:18:49Z</time>
      </trkpt>
      <trkpt lat="44.64766" lon="7.06102">
        <ele>2121</ele>
        <time>2022-07-13T07:18:57Z</time>
      </trkpt>
      <trkpt lat="44.64758" lon="7.0611">
        <ele>2121</ele>
        <time>2022-07-13T07:19:06Z</time>
      </trkpt>
      <trkpt lat="44.64748" lon="7.06115">
        <ele>2120</ele>
        <time>2022-07-13T07:19:15Z</time>
      </trkpt>
      <trkpt lat="44.64739" lon="7.06118">
        <ele>2120</ele>
        <time>2022-07-13T07:19:23Z</time>
      </trkpt>
      <trkpt lat="44.6473" lon="7.06117">
        <ele>2118</ele>
        <time>2022-07-13T07:19:31Z</time>
      </trkpt>
      <trkpt lat="44.64726" lon="7.06116">
        <ele>2117</ele>
        <time>2022-07-13T07:19:35Z</time>
      </trkpt>
      <trkpt lat="44.64714" lon="7.06113">
        <ele>2117</ele>
        <time>2022-07-13T07:19:46Z</time>
      </trkpt>
      <trkpt lat="44.64698" lon="7.06112">
        <ele>2115</ele>
        <time>2022-07-13T07:20:02Z</time>
      </trkpt>
      <trkpt lat="44.64695" lon="7.06117">
        <ele>2115</ele>
        <time>2022-07-13T07:20:06Z</time>
      </trkpt>
      <trkpt lat="44.64693" lon="7.06111">
        <ele>2115</ele>
        <time>2022-07-13T07:20:12Z</time>
      </trkpt>
      <trkpt lat="44.64694" lon="7.06105">
        <ele>2115</ele>
        <time>2022-07-13T07:20:24Z</time>
      </trkpt>
      <trkpt lat="44.64702" lon="7.06104">
        <ele>2115</ele>
        <time>2022-07-13T07:20:30Z</time>
      </trkpt>
      <trkpt lat="44.64701" lon="7.06104">
        <ele>2115</ele>
        <time>2022-07-13T07:21:17Z</time>
      </trkpt>
      <trkpt lat="44.64697" lon="7.06103">
        <ele>2115</ele>
        <time>2022-07-13T07:21:22Z</time>
      </trkpt>
      <trkpt lat="44.64692" lon="7.06104">
        <ele>2114</ele>
        <time>2022-07-13T07:21:34Z</time>
      </trkpt>
      <trkpt lat="44.64691" lon="7.06109">
        <ele>2116</ele>
        <time>2022-07-13T07:23:21Z</time>
      </trkpt>
      <trkpt lat="44.64688" lon="7.06108">
        <ele>2116</ele>
        <time>2022-07-13T07:23:25Z</time>
      </trkpt>
      <trkpt lat="44.6468" lon="7.06112">
        <ele>2117</ele>
        <time>2022-07-13T07:23:35Z</time>
      </trkpt>
      <trkpt lat="44.64671" lon="7.06118">
        <ele>2116</ele>
        <time>2022-07-13T07:23:46Z</time>
      </trkpt>
      <trkpt lat="44.64644" lon="7.06126">
        <ele>2112</ele>
        <time>2022-07-13T07:24:13Z</time>
      </trkpt>
      <trkpt lat="44.64636" lon="7.06121">
        <ele>2111</ele>
        <time>2022-07-13T07:24:23Z</time>
      </trkpt>
      <trkpt lat="44.6462" lon="7.06108">
        <ele>2106</ele>
        <time>2022-07-13T07:24:54Z</time>
      </trkpt>
      <trkpt lat="44.64614" lon="7.06098">
        <ele>2106</ele>
        <time>2022-07-13T07:25:01Z</time>
      </trkpt>
      <trkpt lat="44.6459" lon="7.06082">
        <ele>2106</ele>
        <time>2022-07-13T07:25:27Z</time>
      </trkpt>
      <trkpt lat="44.64581" lon="7.06081">
        <ele>2104</ele>
        <time>2022-07-13T07:25:38Z</time>
      </trkpt>
      <trkpt lat="44.64572" lon="7.06088">
        <ele>2103</ele>
        <time>2022-07-13T07:25:48Z</time>
      </trkpt>
      <trkpt lat="44.64541" lon="7.061">
        <ele>2094</ele>
        <time>2022-07-13T07:26:19Z</time>
      </trkpt>
      <trkpt lat="44.64533" lon="7.06102">
        <ele>2093</ele>
        <time>2022-07-13T07:26:26Z</time>
      </trkpt>
      <trkpt lat="44.6453" lon="7.06103">
        <ele>2093</ele>
        <time>2022-07-13T07:26:29Z</time>
      </trkpt>
      <trkpt lat="44.64526" lon="7.06101">
        <ele>2093</ele>
        <time>2022-07-13T07:26:33Z</time>
      </trkpt>
      <trkpt lat="44.6451" lon="7.06106">
        <ele>2093</ele>
        <time>2022-07-13T07:26:47Z</time>
      </trkpt>
      <trkpt lat="44.64507" lon="7.06106">
        <ele>2093</ele>
        <time>2022-07-13T07:26:50Z</time>
      </trkpt>
      <trkpt lat="44.645" lon="7.06103">
        <ele>2093</ele>
        <time>2022-07-13T07:26:57Z</time>
      </trkpt>
      <trkpt lat="44.64496" lon="7.061">
        <ele>2093</ele>
        <time>2022-07-13T07:27:01Z</time>
      </trkpt>
      <trkpt lat="44.64494" lon="7.06095">
        <ele>2094</ele>
        <time>2022-07-13T07:27:05Z</time>
      </trkpt>
      <trkpt lat="44.6449" lon="7.06093">
        <ele>2094</ele>
        <time>2022-07-13T07:27:09Z</time>
      </trkpt>
      <trkpt lat="44.64487" lon="7.06096">
        <ele>2092</ele>
        <time>2022-07-13T07:27:13Z</time>
      </trkpt>
      <trkpt lat="44.64483" lon="7.061">
        <ele>2091</ele>
        <time>2022-07-13T07:27:17Z</time>
      </trkpt>
      <trkpt lat="44.6448" lon="7.06102">
        <ele>2091</ele>
        <time>2022-07-13T07:27:21Z</time>
      </trkpt>
      <trkpt lat="44.64478" lon="7.06096">
        <ele>2091</ele>
        <time>2022-07-13T07:27:25Z</time>
      </trkpt>
      <trkpt lat="44.64479" lon="7.06091">
        <ele>2089</ele>
        <time>2022-07-13T07:27:28Z</time>
      </trkpt>
      <trkpt lat="44.64478" lon="7.06086">
        <ele>2088</ele>
        <time>2022-07-13T07:27:32Z</time>
      </trkpt>
      <trkpt lat="44.64474" lon="7.06087">
        <ele>2088</ele>
        <time>2022-07-13T07:27:36Z</time>
      </trkpt>
      <trkpt lat="44.64471" lon="7.0609">
        <ele>2087</ele>
        <time>2022-07-13T07:27:40Z</time>
      </trkpt>
      <trkpt lat="44.64458" lon="7.06078">
        <ele>2084</ele>
        <time>2022-07-13T07:27:56Z</time>
      </trkpt>
      <trkpt lat="44.64459" lon="7.06072">
        <ele>2084</ele>
        <time>2022-07-13T07:28:00Z</time>
      </trkpt>
      <trkpt lat="44.6446" lon="7.06068">
        <ele>2082</ele>
        <time>2022-07-13T07:28:03Z</time>
      </trkpt>
      <trkpt lat="44.64457" lon="7.06065">
        <ele>2081</ele>
        <time>2022-07-13T07:28:07Z</time>
      </trkpt>
      <trkpt lat="44.64445" lon="7.06063">
        <ele>2077</ele>
        <time>2022-07-13T07:28:19Z</time>
      </trkpt>
      <trkpt lat="44.64438" lon="7.06065">
        <ele>2075</ele>
        <time>2022-07-13T07:28:27Z</time>
      </trkpt>
      <trkpt lat="44.64426" lon="7.06062">
        <ele>2073</ele>
        <time>2022-07-13T07:28:39Z</time>
      </trkpt>
      <trkpt lat="44.64422" lon="7.06059">
        <ele>2073</ele>
        <time>2022-07-13T07:28:43Z</time>
      </trkpt>
      <trkpt lat="44.64419" lon="7.06055">
        <ele>2072</ele>
        <time>2022-07-13T07:28:47Z</time>
      </trkpt>
      <trkpt lat="44.64389" lon="7.06037">
        <ele>2068</ele>
        <time>2022-07-13T07:29:19Z</time>
      </trkpt>
      <trkpt lat="44.64357" lon="7.06043">
        <ele>2060</ele>
        <time>2022-07-13T07:29:51Z</time>
      </trkpt>
      <trkpt lat="44.64334" lon="7.06047">
        <ele>2057</ele>
        <time>2022-07-13T07:30:14Z</time>
      </trkpt>
      <trkpt lat="44.6433" lon="7.06049">
        <ele>2057</ele>
        <time>2022-07-13T07:30:17Z</time>
      </trkpt>
      <trkpt lat="44.64326" lon="7.06051">
        <ele>2057</ele>
        <time>2022-07-13T07:30:20Z</time>
      </trkpt>
      <trkpt lat="44.64323" lon="7.06053">
        <ele>2057</ele>
        <time>2022-07-13T07:30:23Z</time>
      </trkpt>
      <trkpt lat="44.64319" lon="7.06055">
        <ele>2056</ele>
        <time>2022-07-13T07:30:27Z</time>
      </trkpt>
      <trkpt lat="44.64296" lon="7.06051">
        <ele>2053</ele>
        <time>2022-07-13T07:30:51Z</time>
      </trkpt>
      <trkpt lat="44.64292" lon="7.06052">
        <ele>2052</ele>
        <time>2022-07-13T07:30:56Z</time>
      </trkpt>
      <trkpt lat="44.6428" lon="7.06068">
        <ele>2050</ele>
        <time>2022-07-13T07:31:12Z</time>
      </trkpt>
      <trkpt lat="44.64277" lon="7.06073">
        <ele>2049</ele>
        <time>2022-07-13T07:31:16Z</time>
      </trkpt>
      <trkpt lat="44.64269" lon="7.06084">
        <ele>2048</ele>
        <time>2022-07-13T07:31:27Z</time>
      </trkpt>
      <trkpt lat="44.64267" lon="7.06088">
        <ele>2046</ele>
        <time>2022-07-13T07:31:31Z</time>
      </trkpt>
      <trkpt lat="44.64265" lon="7.06093">
        <ele>2045</ele>
        <time>2022-07-13T07:31:35Z</time>
      </trkpt>
      <trkpt lat="44.64254" lon="7.06101">
        <ele>2043</ele>
        <time>2022-07-13T07:31:47Z</time>
      </trkpt>
      <trkpt lat="44.64246" lon="7.06113">
        <ele>2043</ele>
        <time>2022-07-13T07:31:57Z</time>
      </trkpt>
      <trkpt lat="44.64244" lon="7.06117">
        <ele>2043</ele>
        <time>2022-07-13T07:32:00Z</time>
      </trkpt>
      <trkpt lat="44.64237" lon="7.06124">
        <ele>2043</ele>
        <time>2022-07-13T07:32:08Z</time>
      </trkpt>
      <trkpt lat="44.64229" lon="7.06126">
        <ele>2044</ele>
        <time>2022-07-13T07:32:16Z</time>
      </trkpt>
      <trkpt lat="44.64216" lon="7.06136">
        <ele>2042</ele>
        <time>2022-07-13T07:32:32Z</time>
      </trkpt>
      <trkpt lat="44.64211" lon="7.06144">
        <ele>2041</ele>
        <time>2022-07-13T07:32:41Z</time>
      </trkpt>
      <trkpt lat="44.64208" lon="7.06147">
        <ele>2041</ele>
        <time>2022-07-13T07:32:45Z</time>
      </trkpt>
      <trkpt lat="44.64205" lon="7.06148">
        <ele>2040</ele>
        <time>2022-07-13T07:32:49Z</time>
      </trkpt>
      <trkpt lat="44.64201" lon="7.06147">
        <ele>2040</ele>
        <time>2022-07-13T07:32:53Z</time>
      </trkpt>
      <trkpt lat="44.64197" lon="7.06149">
        <ele>2040</ele>
        <time>2022-07-13T07:32:58Z</time>
      </trkpt>
      <trkpt lat="44.64196" lon="7.06154">
        <ele>2040</ele>
        <time>2022-07-13T07:33:01Z</time>
      </trkpt>
      <trkpt lat="44.64198" lon="7.06159">
        <ele>2042</ele>
        <time>2022-07-13T07:33:05Z</time>
      </trkpt>
      <trkpt lat="44.64202" lon="7.06161">
        <ele>2042</ele>
        <time>2022-07-13T07:33:11Z</time>
      </trkpt>
      <trkpt lat="44.64203" lon="7.06158">
        <ele>2041</ele>
        <time>2022-07-13T07:33:22Z</time>
      </trkpt>
      <trkpt lat="44.64201" lon="7.06159">
        <ele>2038</ele>
        <time>2022-07-13T07:34:27Z</time>
      </trkpt>
      <trkpt lat="44.64201" lon="7.06165">
        <ele>2039</ele>
        <time>2022-07-13T07:35:06Z</time>
      </trkpt>
      <trkpt lat="44.642" lon="7.0617">
        <ele>2039</ele>
        <time>2022-07-13T07:35:19Z</time>
      </trkpt>
      <trkpt lat="44.64197" lon="7.06173">
        <ele>2040</ele>
        <time>2022-07-13T07:35:24Z</time>
      </trkpt>
      <trkpt lat="44.64194" lon="7.06175">
        <ele>2040</ele>
        <time>2022-07-13T07:35:30Z</time>
      </trkpt>
      <trkpt lat="44.6418" lon="7.06173">
        <ele>2040</ele>
        <time>2022-07-13T07:36:35Z</time>
      </trkpt>
      <trkpt lat="44.64173" lon="7.06168">
        <ele>2039</ele>
        <time>2022-07-13T07:36:49Z</time>
      </trkpt>
      <trkpt lat="44.6417" lon="7.06167">
        <ele>2039</ele>
        <time>2022-07-13T07:36:56Z</time>
      </trkpt>
      <trkpt lat="44.64166" lon="7.06169">
        <ele>2039</ele>
        <time>2022-07-13T07:37:07Z</time>
      </trkpt>
      <trkpt lat="44.64152" lon="7.06172">
        <ele>2037</ele>
        <time>2022-07-13T07:37:22Z</time>
      </trkpt>
      <trkpt lat="44.64149" lon="7.06172">
        <ele>2036</ele>
        <time>2022-07-13T07:37:25Z</time>
      </trkpt>
      <trkpt lat="44.64145" lon="7.0617">
        <ele>2035</ele>
        <time>2022-07-13T07:37:29Z</time>
      </trkpt>
      <trkpt lat="44.64138" lon="7.06171">
        <ele>2033</ele>
        <time>2022-07-13T07:37:37Z</time>
      </trkpt>
      <trkpt lat="44.64134" lon="7.06172">
        <ele>2033</ele>
        <time>2022-07-13T07:37:41Z</time>
      </trkpt>
      <trkpt lat="44.64131" lon="7.06169">
        <ele>2033</ele>
        <time>2022-07-13T07:37:49Z</time>
      </trkpt>
      <trkpt lat="44.64128" lon="7.06168">
        <ele>2032</ele>
        <time>2022-07-13T07:37:57Z</time>
      </trkpt>
      <trkpt lat="44.64125" lon="7.06172">
        <ele>2032</ele>
        <time>2022-07-13T07:38:01Z</time>
      </trkpt>
      <trkpt lat="44.64123" lon="7.06177">
        <ele>2032</ele>
        <time>2022-07-13T07:38:05Z</time>
      </trkpt>
      <trkpt lat="44.64127" lon="7.06176">
        <ele>2032</ele>
        <time>2022-07-13T07:38:18Z</time>
      </trkpt>
      <trkpt lat="44.64126" lon="7.06178">
        <ele>2035</ele>
        <time>2022-07-13T07:39:14Z</time>
      </trkpt>
      <trkpt lat="44.64118" lon="7.06185">
        <ele>2033</ele>
        <time>2022-07-13T07:39:20Z</time>
      </trkpt>
      <trkpt lat="44.64112" lon="7.06194">
        <ele>2033</ele>
        <time>2022-07-13T07:39:26Z</time>
      </trkpt>
      <trkpt lat="44.64109" lon="7.06198">
        <ele>2033</ele>
        <time>2022-07-13T07:39:29Z</time>
      </trkpt>
      <trkpt lat="44.64106" lon="7.062">
        <ele>2032</ele>
        <time>2022-07-13T07:39:32Z</time>
      </trkpt>
      <trkpt lat="44.64102" lon="7.06202">
        <ele>2031</ele>
        <time>2022-07-13T07:39:35Z</time>
      </trkpt>
      <trkpt lat="44.64099" lon="7.06205">
        <ele>2032</ele>
        <time>2022-07-13T07:39:37Z</time>
      </trkpt>
      <trkpt lat="44.64079" lon="7.06208">
        <ele>2030</ele>
        <time>2022-07-13T07:39:52Z</time>
      </trkpt>
      <trkpt lat="44.64072" lon="7.06208">
        <ele>2029</ele>
        <time>2022-07-13T07:39:58Z</time>
      </trkpt>
      <trkpt lat="44.64069" lon="7.06206">
        <ele>2028</ele>
        <time>2022-07-13T07:40:01Z</time>
      </trkpt>
      <trkpt lat="44.64066" lon="7.06204">
        <ele>2027</ele>
        <time>2022-07-13T07:40:04Z</time>
      </trkpt>
      <trkpt lat="44.64058" lon="7.06201">
        <ele>2026</ele>
        <time>2022-07-13T07:40:10Z</time>
      </trkpt>
      <trkpt lat="44.64054" lon="7.06199">
        <ele>2025</ele>
        <time>2022-07-13T07:40:13Z</time>
      </trkpt>
      <trkpt lat="44.6404" lon="7.06175">
        <ele>2022</ele>
        <time>2022-07-13T07:40:28Z</time>
      </trkpt>
      <trkpt lat="44.64037" lon="7.06172">
        <ele>2022</ele>
        <time>2022-07-13T07:40:31Z</time>
      </trkpt>
      <trkpt lat="44.64029" lon="7.06171">
        <ele>2023</ele>
        <time>2022-07-13T07:40:37Z</time>
      </trkpt>
      <trkpt lat="44.64025" lon="7.06168">
        <ele>2023</ele>
        <time>2022-07-13T07:40:40Z</time>
      </trkpt>
      <trkpt lat="44.64014" lon="7.06161">
        <ele>2023</ele>
        <time>2022-07-13T07:40:49Z</time>
      </trkpt>
      <trkpt lat="44.64002" lon="7.06158">
        <ele>2025</ele>
        <time>2022-07-13T07:40:58Z</time>
      </trkpt>
      <trkpt lat="44.63987" lon="7.06153">
        <ele>2024</ele>
        <time>2022-07-13T07:41:11Z</time>
      </trkpt>
      <trkpt lat="44.63984" lon="7.0615">
        <ele>2023</ele>
        <time>2022-07-13T07:41:14Z</time>
      </trkpt>
      <trkpt lat="44.63982" lon="7.06146">
        <ele>2023</ele>
        <time>2022-07-13T07:41:17Z</time>
      </trkpt>
      <trkpt lat="44.63979" lon="7.06143">
        <ele>2022</ele>
        <time>2022-07-13T07:41:20Z</time>
      </trkpt>
      <trkpt lat="44.63976" lon="7.06142">
        <ele>2022</ele>
        <time>2022-07-13T07:41:23Z</time>
      </trkpt>
      <trkpt lat="44.6396" lon="7.06143">
        <ele>2019</ele>
        <time>2022-07-13T07:41:36Z</time>
      </trkpt>
      <trkpt lat="44.63957" lon="7.06145">
        <ele>2019</ele>
        <time>2022-07-13T07:41:39Z</time>
      </trkpt>
      <trkpt lat="44.63954" lon="7.06147">
        <ele>2020</ele>
        <time>2022-07-13T07:41:45Z</time>
      </trkpt>
      <trkpt lat="44.6395" lon="7.06147">
        <ele>2017</ele>
        <time>2022-07-13T07:43:56Z</time>
      </trkpt>
      <trkpt lat="44.63946" lon="7.06146">
        <ele>2017</ele>
        <time>2022-07-13T07:43:59Z</time>
      </trkpt>
      <trkpt lat="44.63947" lon="7.06141">
        <ele>2015</ele>
        <time>2022-07-13T07:44:03Z</time>
      </trkpt>
      <trkpt lat="44.63949" lon="7.06136">
        <ele>2014</ele>
        <time>2022-07-13T07:44:07Z</time>
      </trkpt>
      <trkpt lat="44.63945" lon="7.06134">
        <ele>2013</ele>
        <time>2022-07-13T07:44:11Z</time>
      </trkpt>
      <trkpt lat="44.63937" lon="7.06134">
        <ele>2011</ele>
        <time>2022-07-13T07:44:18Z</time>
      </trkpt>
      <trkpt lat="44.6393" lon="7.0614">
        <ele>2009</ele>
        <time>2022-07-13T07:44:25Z</time>
      </trkpt>
      <trkpt lat="44.63926" lon="7.0614">
        <ele>2008</ele>
        <time>2022-07-13T07:44:29Z</time>
      </trkpt>
      <trkpt lat="44.63902" lon="7.0615">
        <ele>2004</ele>
        <time>2022-07-13T07:44:50Z</time>
      </trkpt>
      <trkpt lat="44.63888" lon="7.06157">
        <ele>2004</ele>
        <time>2022-07-13T07:45:02Z</time>
      </trkpt>
      <trkpt lat="44.63885" lon="7.06161">
        <ele>2004</ele>
        <time>2022-07-13T07:45:05Z</time>
      </trkpt>
      <trkpt lat="44.63882" lon="7.06164">
        <ele>2004</ele>
        <time>2022-07-13T07:45:08Z</time>
      </trkpt>
      <trkpt lat="44.63877" lon="7.0617">
        <ele>2004</ele>
        <time>2022-07-13T07:45:16Z</time>
      </trkpt>
      <trkpt lat="44.63873" lon="7.0617">
        <ele>2004</ele>
        <time>2022-07-13T07:45:19Z</time>
      </trkpt>
      <trkpt lat="44.6387" lon="7.06168">
        <ele>2003</ele>
        <time>2022-07-13T07:45:22Z</time>
      </trkpt>
      <trkpt lat="44.63869" lon="7.06162">
        <ele>2002</ele>
        <time>2022-07-13T07:45:25Z</time>
      </trkpt>
      <trkpt lat="44.6387" lon="7.06157">
        <ele>2001</ele>
        <time>2022-07-13T07:45:28Z</time>
      </trkpt>
      <trkpt lat="44.6387" lon="7.06151">
        <ele>2000</ele>
        <time>2022-07-13T07:45:32Z</time>
      </trkpt>
      <trkpt lat="44.63869" lon="7.06146">
        <ele>2000</ele>
        <time>2022-07-13T07:45:35Z</time>
      </trkpt>
      <trkpt lat="44.63865" lon="7.06144">
        <ele>2000</ele>
        <time>2022-07-13T07:45:38Z</time>
      </trkpt>
      <trkpt lat="44.63862" lon="7.06141">
        <ele>2000</ele>
        <time>2022-07-13T07:45:41Z</time>
      </trkpt>
      <trkpt lat="44.63859" lon="7.06139">
        <ele>1999</ele>
        <time>2022-07-13T07:45:44Z</time>
      </trkpt>
      <trkpt lat="44.63851" lon="7.06143">
        <ele>1997</ele>
        <time>2022-07-13T07:45:52Z</time>
      </trkpt>
      <trkpt lat="44.63847" lon="7.06145">
        <ele>1997</ele>
        <time>2022-07-13T07:45:56Z</time>
      </trkpt>
      <trkpt lat="44.63843" lon="7.06146">
        <ele>1996</ele>
        <time>2022-07-13T07:45:59Z</time>
      </trkpt>
      <trkpt lat="44.6384" lon="7.06146">
        <ele>1996</ele>
        <time>2022-07-13T07:46:02Z</time>
      </trkpt>
      <trkpt lat="44.63829" lon="7.06149">
        <ele>1996</ele>
        <time>2022-07-13T07:46:12Z</time>
      </trkpt>
      <trkpt lat="44.63825" lon="7.06152">
        <ele>1996</ele>
        <time>2022-07-13T07:46:16Z</time>
      </trkpt>
      <trkpt lat="44.63822" lon="7.06155">
        <ele>1996</ele>
        <time>2022-07-13T07:46:19Z</time>
      </trkpt>
      <trkpt lat="44.63819" lon="7.06158">
        <ele>1996</ele>
        <time>2022-07-13T07:46:23Z</time>
      </trkpt>
      <trkpt lat="44.63816" lon="7.06161">
        <ele>1995</ele>
        <time>2022-07-13T07:46:27Z</time>
      </trkpt>
      <trkpt lat="44.63805" lon="7.06162">
        <ele>1992</ele>
        <time>2022-07-13T07:46:37Z</time>
      </trkpt>
      <trkpt lat="44.63801" lon="7.06162">
        <ele>1991</ele>
        <time>2022-07-13T07:46:41Z</time>
      </trkpt>
      <trkpt lat="44.63797" lon="7.06161">
        <ele>1991</ele>
        <time>2022-07-13T07:46:45Z</time>
      </trkpt>
      <trkpt lat="44.63793" lon="7.06162">
        <ele>1991</ele>
        <time>2022-07-13T07:46:48Z</time>
      </trkpt>
      <trkpt lat="44.6379" lon="7.06164">
        <ele>1991</ele>
        <time>2022-07-13T07:46:51Z</time>
      </trkpt>
      <trkpt lat="44.63784" lon="7.06171">
        <ele>1992</ele>
        <time>2022-07-13T07:46:58Z</time>
      </trkpt>
      <trkpt lat="44.63766" lon="7.06182">
        <ele>1988</ele>
        <time>2022-07-13T07:47:17Z</time>
      </trkpt>
      <trkpt lat="44.63759" lon="7.06184">
        <ele>1986</ele>
        <time>2022-07-13T07:47:25Z</time>
      </trkpt>
      <trkpt lat="44.63748" lon="7.06185">
        <ele>1985</ele>
        <time>2022-07-13T07:47:55Z</time>
      </trkpt>
      <trkpt lat="44.6374" lon="7.06183">
        <ele>1984</ele>
        <time>2022-07-13T07:48:03Z</time>
      </trkpt>
      <trkpt lat="44.63732" lon="7.06186">
        <ele>1985</ele>
        <time>2022-07-13T07:48:12Z</time>
      </trkpt>
      <trkpt lat="44.63725" lon="7.06191">
        <ele>1984</ele>
        <time>2022-07-13T07:48:22Z</time>
      </trkpt>
      <trkpt lat="44.63721" lon="7.06189">
        <ele>1982</ele>
        <time>2022-07-13T07:48:26Z</time>
      </trkpt>
      <trkpt lat="44.63717" lon="7.06189">
        <ele>1982</ele>
        <time>2022-07-13T07:48:30Z</time>
      </trkpt>
      <trkpt lat="44.63714" lon="7.06192">
        <ele>1981</ele>
        <time>2022-07-13T07:48:34Z</time>
      </trkpt>
      <trkpt lat="44.63711" lon="7.06195">
        <ele>1980</ele>
        <time>2022-07-13T07:48:39Z</time>
      </trkpt>
      <trkpt lat="44.63708" lon="7.06196">
        <ele>1978</ele>
        <time>2022-07-13T07:48:43Z</time>
      </trkpt>
      <trkpt lat="44.63705" lon="7.062">
        <ele>1976</ele>
        <time>2022-07-13T07:48:48Z</time>
      </trkpt>
      <trkpt lat="44.63697" lon="7.06205">
        <ele>1977</ele>
        <time>2022-07-13T07:48:56Z</time>
      </trkpt>
      <trkpt lat="44.63694" lon="7.06202">
        <ele>1976</ele>
        <time>2022-07-13T07:49:00Z</time>
      </trkpt>
      <trkpt lat="44.63692" lon="7.06197">
        <ele>1974</ele>
        <time>2022-07-13T07:49:04Z</time>
      </trkpt>
      <trkpt lat="44.63692" lon="7.06192">
        <ele>1974</ele>
        <time>2022-07-13T07:49:08Z</time>
      </trkpt>
      <trkpt lat="44.63693" lon="7.06186">
        <ele>1972</ele>
        <time>2022-07-13T07:49:12Z</time>
      </trkpt>
      <trkpt lat="44.63693" lon="7.06181">
        <ele>1972</ele>
        <time>2022-07-13T07:49:15Z</time>
      </trkpt>
      <trkpt lat="44.6369" lon="7.06177">
        <ele>1971</ele>
        <time>2022-07-13T07:49:19Z</time>
      </trkpt>
      <trkpt lat="44.63685" lon="7.06184">
        <ele>1969</ele>
        <time>2022-07-13T07:49:29Z</time>
      </trkpt>
      <trkpt lat="44.63681" lon="7.06185">
        <ele>1967</ele>
        <time>2022-07-13T07:49:34Z</time>
      </trkpt>
      <trkpt lat="44.63675" lon="7.06179">
        <ele>1963</ele>
        <time>2022-07-13T07:49:42Z</time>
      </trkpt>
      <trkpt lat="44.63671" lon="7.06176">
        <ele>1962</ele>
        <time>2022-07-13T07:49:46Z</time>
      </trkpt>
      <trkpt lat="44.63668" lon="7.06175">
        <ele>1961</ele>
        <time>2022-07-13T07:49:50Z</time>
      </trkpt>
      <trkpt lat="44.63664" lon="7.06174">
        <ele>1960</ele>
        <time>2022-07-13T07:49:54Z</time>
      </trkpt>
      <trkpt lat="44.63661" lon="7.06172">
        <ele>1959</ele>
        <time>2022-07-13T07:49:58Z</time>
      </trkpt>
      <trkpt lat="44.63654" lon="7.06176">
        <ele>1957</ele>
        <time>2022-07-13T07:50:07Z</time>
      </trkpt>
      <trkpt lat="44.63651" lon="7.0618">
        <ele>1955</ele>
        <time>2022-07-13T07:50:11Z</time>
      </trkpt>
      <trkpt lat="44.6365" lon="7.06185">
        <ele>1955</ele>
        <time>2022-07-13T07:50:15Z</time>
      </trkpt>
      <trkpt lat="44.63648" lon="7.0619">
        <ele>1953</ele>
        <time>2022-07-13T07:50:20Z</time>
      </trkpt>
      <trkpt lat="44.63644" lon="7.06193">
        <ele>1952</ele>
        <time>2022-07-13T07:50:24Z</time>
      </trkpt>
      <trkpt lat="44.6364" lon="7.06193">
        <ele>1951</ele>
        <time>2022-07-13T07:50:28Z</time>
      </trkpt>
      <trkpt lat="44.63637" lon="7.06191">
        <ele>1950</ele>
        <time>2022-07-13T07:50:32Z</time>
      </trkpt>
      <trkpt lat="44.63633" lon="7.06193">
        <ele>1950</ele>
        <time>2022-07-13T07:50:37Z</time>
      </trkpt>
      <trkpt lat="44.63632" lon="7.06198">
        <ele>1950</ele>
        <time>2022-07-13T07:50:41Z</time>
      </trkpt>
      <trkpt lat="44.63627" lon="7.06204">
        <ele>1948</ele>
        <time>2022-07-13T07:50:49Z</time>
      </trkpt>
      <trkpt lat="44.63624" lon="7.06209">
        <ele>1947</ele>
        <time>2022-07-13T07:50:53Z</time>
      </trkpt>
      <trkpt lat="44.63622" lon="7.06213">
        <ele>1946</ele>
        <time>2022-07-13T07:50:57Z</time>
      </trkpt>
      <trkpt lat="44.63618" lon="7.06214">
        <ele>1945</ele>
        <time>2022-07-13T07:51:01Z</time>
      </trkpt>
      <trkpt lat="44.63608" lon="7.0622">
        <ele>1943</ele>
        <time>2022-07-13T07:51:13Z</time>
      </trkpt>
      <trkpt lat="44.63605" lon="7.06225">
        <ele>1942</ele>
        <time>2022-07-13T07:51:18Z</time>
      </trkpt>
      <trkpt lat="44.63602" lon="7.06229">
        <ele>1941</ele>
        <time>2022-07-13T07:51:22Z</time>
      </trkpt>
      <trkpt lat="44.63598" lon="7.06229">
        <ele>1940</ele>
        <time>2022-07-13T07:51:26Z</time>
      </trkpt>
      <trkpt lat="44.63595" lon="7.06231">
        <ele>1938</ele>
        <time>2022-07-13T07:51:30Z</time>
      </trkpt>
      <trkpt lat="44.63588" lon="7.06234">
        <ele>1936</ele>
        <time>2022-07-13T07:51:37Z</time>
      </trkpt>
      <trkpt lat="44.63583" lon="7.06233">
        <ele>1935</ele>
        <time>2022-07-13T07:51:41Z</time>
      </trkpt>
      <trkpt lat="44.63572" lon="7.06225">
        <ele>1934</ele>
        <time>2022-07-13T07:51:53Z</time>
      </trkpt>
      <trkpt lat="44.63568" lon="7.0622">
        <ele>1934</ele>
        <time>2022-07-13T07:52:14Z</time>
      </trkpt>
      <trkpt lat="44.63567" lon="7.06217">
        <ele>1934</ele>
        <time>2022-07-13T07:53:43Z</time>
      </trkpt>
      <trkpt lat="44.63563" lon="7.06219">
        <ele>1934</ele>
        <time>2022-07-13T07:53:47Z</time>
      </trkpt>
      <trkpt lat="44.63558" lon="7.0622">
        <ele>1933</ele>
        <time>2022-07-13T07:53:51Z</time>
      </trkpt>
      <trkpt lat="44.63551" lon="7.06222">
        <ele>1932</ele>
        <time>2022-07-13T07:53:58Z</time>
      </trkpt>
      <trkpt lat="44.63538" lon="7.0623">
        <ele>1932</ele>
        <time>2022-07-13T07:54:11Z</time>
      </trkpt>
      <trkpt lat="44.6353" lon="7.0623">
        <ele>1932</ele>
        <time>2022-07-13T07:54:27Z</time>
      </trkpt>
      <trkpt lat="44.63526" lon="7.06229">
        <ele>1932</ele>
        <time>2022-07-13T07:54:31Z</time>
      </trkpt>
      <trkpt lat="44.63523" lon="7.06227">
        <ele>1931</ele>
        <time>2022-07-13T07:54:35Z</time>
      </trkpt>
      <trkpt lat="44.63511" lon="7.06222">
        <ele>1930</ele>
        <time>2022-07-13T07:54:46Z</time>
      </trkpt>
      <trkpt lat="44.63507" lon="7.06224">
        <ele>1930</ele>
        <time>2022-07-13T07:54:50Z</time>
      </trkpt>
      <trkpt lat="44.63507" lon="7.0623">
        <ele>1935</ele>
        <time>2022-07-13T07:54:58Z</time>
      </trkpt>
      <trkpt lat="44.63503" lon="7.06229">
        <ele>1935</ele>
        <time>2022-07-13T07:55:02Z</time>
      </trkpt>
      <trkpt lat="44.63502" lon="7.0622">
        <ele>1933</ele>
        <time>2022-07-13T07:55:03Z</time>
      </trkpt>
      <trkpt lat="44.63487" lon="7.06215">
        <ele>1929</ele>
        <time>2022-07-13T07:55:17Z</time>
      </trkpt>
      <trkpt lat="44.63484" lon="7.06217">
        <ele>1930</ele>
        <time>2022-07-13T07:55:23Z</time>
      </trkpt>
      <trkpt lat="44.63482" lon="7.06212">
        <ele>1930</ele>
        <time>2022-07-13T07:55:37Z</time>
      </trkpt>
      <trkpt lat="44.63479" lon="7.06211">
        <ele>1929</ele>
        <time>2022-07-13T07:55:42Z</time>
      </trkpt>
      <trkpt lat="44.63475" lon="7.06212">
        <ele>1929</ele>
        <time>2022-07-13T07:55:46Z</time>
      </trkpt>
      <trkpt lat="44.63471" lon="7.06212">
        <ele>1928</ele>
        <time>2022-07-13T07:55:50Z</time>
      </trkpt>
      <trkpt lat="44.63468" lon="7.0621">
        <ele>1927</ele>
        <time>2022-07-13T07:55:54Z</time>
      </trkpt>
      <trkpt lat="44.63464" lon="7.06209">
        <ele>1926</ele>
        <time>2022-07-13T07:55:58Z</time>
      </trkpt>
      <trkpt lat="44.63457" lon="7.06204">
        <ele>1925</ele>
        <time>2022-07-13T07:56:05Z</time>
      </trkpt>
      <trkpt lat="44.63445" lon="7.06193">
        <ele>1924</ele>
        <time>2022-07-13T07:56:18Z</time>
      </trkpt>
      <trkpt lat="44.63439" lon="7.06188">
        <ele>1924</ele>
        <time>2022-07-13T07:56:24Z</time>
      </trkpt>
      <trkpt lat="44.63426" lon="7.06179">
        <ele>1924</ele>
        <time>2022-07-13T07:56:36Z</time>
      </trkpt>
      <trkpt lat="44.63404" lon="7.06157">
        <ele>1923</ele>
        <time>2022-07-13T07:56:59Z</time>
      </trkpt>
      <trkpt lat="44.63401" lon="7.06154">
        <ele>1923</ele>
        <time>2022-07-13T07:57:03Z</time>
      </trkpt>
      <trkpt lat="44.63396" lon="7.06153">
        <ele>1924</ele>
        <time>2022-07-13T07:57:07Z</time>
      </trkpt>
      <trkpt lat="44.63368" lon="7.06151">
        <ele>1924</ele>
        <time>2022-07-13T07:57:38Z</time>
      </trkpt>
      <trkpt lat="44.63361" lon="7.0615">
        <ele>1924</ele>
        <time>2022-07-13T07:57:45Z</time>
      </trkpt>
      <trkpt lat="44.63344" lon="7.06149">
        <ele>1925</ele>
        <time>2022-07-13T07:58:01Z</time>
      </trkpt>
      <trkpt lat="44.63334" lon="7.06148">
        <ele>1925</ele>
        <time>2022-07-13T07:58:10Z</time>
      </trkpt>
      <trkpt lat="44.63317" lon="7.0616">
        <ele>1924</ele>
        <time>2022-07-13T07:58:26Z</time>
      </trkpt>
      <trkpt lat="44.63301" lon="7.06174">
        <ele>1924</ele>
        <time>2022-07-13T07:58:44Z</time>
      </trkpt>
      <trkpt lat="44.6329" lon="7.0618">
        <ele>1924</ele>
        <time>2022-07-13T07:58:55Z</time>
      </trkpt>
      <trkpt lat="44.6328" lon="7.06189">
        <ele>1922</ele>
        <time>2022-07-13T07:59:05Z</time>
      </trkpt>
      <trkpt lat="44.6327" lon="7.06194">
        <ele>1921</ele>
        <time>2022-07-13T07:59:14Z</time>
      </trkpt>
      <trkpt lat="44.63259" lon="7.06195">
        <ele>1920</ele>
        <time>2022-07-13T07:59:23Z</time>
      </trkpt>
      <trkpt lat="44.63256" lon="7.06193">
        <ele>1921</ele>
        <time>2022-07-13T07:59:26Z</time>
      </trkpt>
      <trkpt lat="44.63252" lon="7.06192">
        <ele>1922</ele>
        <time>2022-07-13T07:59:44Z</time>
      </trkpt>
      <trkpt lat="44.63241" lon="7.06191">
        <ele>1923</ele>
        <time>2022-07-13T07:59:55Z</time>
      </trkpt>
      <trkpt lat="44.63237" lon="7.06193">
        <ele>1923</ele>
        <time>2022-07-13T07:59:59Z</time>
      </trkpt>
      <trkpt lat="44.6323" lon="7.06195">
        <ele>1922</ele>
        <time>2022-07-13T08:00:07Z</time>
      </trkpt>
      <trkpt lat="44.63226" lon="7.06197">
        <ele>1922</ele>
        <time>2022-07-13T08:00:12Z</time>
      </trkpt>
      <trkpt lat="44.63222" lon="7.06196">
        <ele>1922</ele>
        <time>2022-07-13T08:00:15Z</time>
      </trkpt>
      <trkpt lat="44.63219" lon="7.06196">
        <ele>1921</ele>
        <time>2022-07-13T08:00:19Z</time>
      </trkpt>
      <trkpt lat="44.63211" lon="7.06197">
        <ele>1920</ele>
        <time>2022-07-13T08:00:27Z</time>
      </trkpt>
      <trkpt lat="44.63207" lon="7.06201">
        <ele>1919</ele>
        <time>2022-07-13T08:00:31Z</time>
      </trkpt>
      <trkpt lat="44.6321" lon="7.06204">
        <ele>1920</ele>
        <time>2022-07-13T08:01:11Z</time>
      </trkpt>
      <trkpt lat="44.63213" lon="7.06208">
        <ele>1919</ele>
        <time>2022-07-13T08:01:15Z</time>
      </trkpt>
      <trkpt lat="44.63214" lon="7.06214">
        <ele>1919</ele>
        <time>2022-07-13T08:01:19Z</time>
      </trkpt>
      <trkpt lat="44.63211" lon="7.06218">
        <ele>1917</ele>
        <time>2022-07-13T08:01:23Z</time>
      </trkpt>
      <trkpt lat="44.63207" lon="7.06221">
        <ele>1917</ele>
        <time>2022-07-13T08:01:26Z</time>
      </trkpt>
      <trkpt lat="44.63204" lon="7.0622">
        <ele>1918</ele>
        <time>2022-07-13T08:01:30Z</time>
      </trkpt>
      <trkpt lat="44.632" lon="7.06223">
        <ele>1917</ele>
        <time>2022-07-13T08:01:34Z</time>
      </trkpt>
      <trkpt lat="44.63198" lon="7.06228">
        <ele>1916</ele>
        <time>2022-07-13T08:01:38Z</time>
      </trkpt>
      <trkpt lat="44.63199" lon="7.06233">
        <ele>1916</ele>
        <time>2022-07-13T08:01:45Z</time>
      </trkpt>
      <trkpt lat="44.63202" lon="7.06236">
        <ele>1917</ele>
        <time>2022-07-13T08:01:51Z</time>
      </trkpt>
      <trkpt lat="44.63214" lon="7.06239">
        <ele>1920</ele>
        <time>2022-07-13T08:02:10Z</time>
      </trkpt>
      <trkpt lat="44.63224" lon="7.06243">
        <ele>1919</ele>
        <time>2022-07-13T08:02:32Z</time>
      </trkpt>
      <trkpt lat="44.63228" lon="7.06247">
        <ele>1918</ele>
        <time>2022-07-13T08:02:39Z</time>
      </trkpt>
      <trkpt lat="44.63223" lon="7.06259">
        <ele>1919</ele>
        <time>2022-07-13T08:03:02Z</time>
      </trkpt>
      <trkpt lat="44.63214" lon="7.06263">
        <ele>1921</ele>
        <time>2022-07-13T08:03:14Z</time>
      </trkpt>
      <trkpt lat="44.63208" lon="7.06274">
        <ele>1924</ele>
        <time>2022-07-13T08:03:39Z</time>
      </trkpt>
      <trkpt lat="44.63214" lon="7.06284">
        <ele>1926</ele>
        <time>2022-07-13T08:03:57Z</time>
      </trkpt>
      <trkpt lat="44.63219" lon="7.06296">
        <ele>1932</ele>
        <time>2022-07-13T08:04:16Z</time>
      </trkpt>
      <trkpt lat="44.63235" lon="7.06309">
        <ele>1945</ele>
        <time>2022-07-13T08:04:57Z</time>
      </trkpt>
      <trkpt lat="44.63243" lon="7.06316">
        <ele>1945</ele>
        <time>2022-07-13T08:05:15Z</time>
      </trkpt>
      <trkpt lat="44.6325" lon="7.06314">
        <ele>1951</ele>
        <time>2022-07-13T08:05:30Z</time>
      </trkpt>
      <trkpt lat="44.63254" lon="7.06311">
        <ele>1953</ele>
        <time>2022-07-13T08:05:38Z</time>
      </trkpt>
      <trkpt lat="44.63262" lon="7.06313">
        <ele>1951</ele>
        <time>2022-07-13T08:05:47Z</time>
      </trkpt>
      <trkpt lat="44.63264" lon="7.06315">
        <ele>1950</ele>
        <time>2022-07-13T08:06:06Z</time>
      </trkpt>
      <trkpt lat="44.63263" lon="7.06321">
        <ele>1950</ele>
        <time>2022-07-13T08:06:09Z</time>
      </trkpt>
      <trkpt lat="44.6326" lon="7.06324">
        <ele>1953</ele>
        <time>2022-07-13T08:06:13Z</time>
      </trkpt>
      <trkpt lat="44.63256" lon="7.06332">
        <ele>1956</ele>
        <time>2022-07-13T08:06:24Z</time>
      </trkpt>
      <trkpt lat="44.6325" lon="7.06343">
        <ele>1957</ele>
        <time>2022-07-13T08:06:41Z</time>
      </trkpt>
      <trkpt lat="44.63243" lon="7.06347">
        <ele>1959</ele>
        <time>2022-07-13T08:06:51Z</time>
      </trkpt>
      <trkpt lat="44.63242" lon="7.06352">
        <ele>1960</ele>
        <time>2022-07-13T08:06:56Z</time>
      </trkpt>
      <trkpt lat="44.6324" lon="7.06357">
        <ele>1960</ele>
        <time>2022-07-13T08:07:01Z</time>
      </trkpt>
      <trkpt lat="44.63237" lon="7.0636">
        <ele>1960</ele>
        <time>2022-07-13T08:07:06Z</time>
      </trkpt>
      <trkpt lat="44.63234" lon="7.06362">
        <ele>1961</ele>
        <time>2022-07-13T08:07:14Z</time>
      </trkpt>
      <trkpt lat="44.6323" lon="7.06361">
        <ele>1963</ele>
        <time>2022-07-13T08:07:19Z</time>
      </trkpt>
      <trkpt lat="44.63226" lon="7.0636">
        <ele>1963</ele>
        <time>2022-07-13T08:07:24Z</time>
      </trkpt>
      <trkpt lat="44.63223" lon="7.06362">
        <ele>1965</ele>
        <time>2022-07-13T08:07:29Z</time>
      </trkpt>
      <trkpt lat="44.63222" lon="7.06367">
        <ele>1965</ele>
        <time>2022-07-13T08:07:33Z</time>
      </trkpt>
      <trkpt lat="44.63219" lon="7.06371">
        <ele>1966</ele>
        <time>2022-07-13T08:07:37Z</time>
      </trkpt>
      <trkpt lat="44.63217" lon="7.06377">
        <ele>1968</ele>
        <time>2022-07-13T08:07:42Z</time>
      </trkpt>
      <trkpt lat="44.63213" lon="7.06379">
        <ele>1967</ele>
        <time>2022-07-13T08:07:46Z</time>
      </trkpt>
      <trkpt lat="44.63208" lon="7.06382">
        <ele>1968</ele>
        <time>2022-07-13T08:07:50Z</time>
      </trkpt>
      <trkpt lat="44.63199" lon="7.06399">
        <ele>1974</ele>
        <time>2022-07-13T08:08:09Z</time>
      </trkpt>
      <trkpt lat="44.63195" lon="7.064">
        <ele>1976</ele>
        <time>2022-07-13T08:08:13Z</time>
      </trkpt>
      <trkpt lat="44.63192" lon="7.06402">
        <ele>1981</ele>
        <time>2022-07-13T08:08:18Z</time>
      </trkpt>
      <trkpt lat="44.63188" lon="7.06403">
        <ele>1983</ele>
        <time>2022-07-13T08:08:22Z</time>
      </trkpt>
      <trkpt lat="44.63185" lon="7.06407">
        <ele>1985</ele>
        <time>2022-07-13T08:08:26Z</time>
      </trkpt>
      <trkpt lat="44.63184" lon="7.06411">
        <ele>1986</ele>
        <time>2022-07-13T08:08:31Z</time>
      </trkpt>
      <trkpt lat="44.63183" lon="7.06416">
        <ele>1986</ele>
        <time>2022-07-13T08:08:36Z</time>
      </trkpt>
      <trkpt lat="44.63181" lon="7.06421">
        <ele>1987</ele>
        <time>2022-07-13T08:08:41Z</time>
      </trkpt>
      <trkpt lat="44.63178" lon="7.06423">
        <ele>1985</ele>
        <time>2022-07-13T08:08:47Z</time>
      </trkpt>
      <trkpt lat="44.63176" lon="7.06428">
        <ele>1985</ele>
        <time>2022-07-13T08:08:54Z</time>
      </trkpt>
      <trkpt lat="44.63173" lon="7.06433">
        <ele>1989</ele>
        <time>2022-07-13T08:09:01Z</time>
      </trkpt>
      <trkpt lat="44.63171" lon="7.06437">
        <ele>1988</ele>
        <time>2022-07-13T08:09:05Z</time>
      </trkpt>
      <trkpt lat="44.63172" lon="7.06442">
        <ele>1988</ele>
        <time>2022-07-13T08:09:11Z</time>
      </trkpt>
      <trkpt lat="44.63173" lon="7.06463">
        <ele>1988</ele>
        <time>2022-07-13T08:09:34Z</time>
      </trkpt>
      <trkpt lat="44.63173" lon="7.06474">
        <ele>1988</ele>
        <time>2022-07-13T08:09:45Z</time>
      </trkpt>
      <trkpt lat="44.63167" lon="7.06481">
        <ele>1988</ele>
        <time>2022-07-13T08:09:54Z</time>
      </trkpt>
      <trkpt lat="44.63164" lon="7.06484">
        <ele>1989</ele>
        <time>2022-07-13T08:09:58Z</time>
      </trkpt>
      <trkpt lat="44.6316" lon="7.06486">
        <ele>1989</ele>
        <time>2022-07-13T08:10:02Z</time>
      </trkpt>
      <trkpt lat="44.63158" lon="7.0649">
        <ele>1989</ele>
        <time>2022-07-13T08:10:07Z</time>
      </trkpt>
      <trkpt lat="44.63156" lon="7.06495">
        <ele>1990</ele>
        <time>2022-07-13T08:10:11Z</time>
      </trkpt>
      <trkpt lat="44.63154" lon="7.06499">
        <ele>1990</ele>
        <time>2022-07-13T08:10:16Z</time>
      </trkpt>
      <trkpt lat="44.63154" lon="7.06504">
        <ele>1991</ele>
        <time>2022-07-13T08:10:21Z</time>
      </trkpt>
      <trkpt lat="44.63154" lon="7.06509">
        <ele>1994</ele>
        <time>2022-07-13T08:10:27Z</time>
      </trkpt>
      <trkpt lat="44.63154" lon="7.06515">
        <ele>1994</ele>
        <time>2022-07-13T08:10:33Z</time>
      </trkpt>
      <trkpt lat="44.63151" lon="7.06525">
        <ele>1995</ele>
        <time>2022-07-13T08:10:45Z</time>
      </trkpt>
      <trkpt lat="44.63139" lon="7.06537">
        <ele>1994</ele>
        <time>2022-07-13T08:11:03Z</time>
      </trkpt>
      <trkpt lat="44.63136" lon="7.0654">
        <ele>1995</ele>
        <time>2022-07-13T08:11:07Z</time>
      </trkpt>
      <trkpt lat="44.6313" lon="7.06546">
        <ele>1995</ele>
        <time>2022-07-13T08:11:16Z</time>
      </trkpt>
      <trkpt lat="44.63122" lon="7.06548">
        <ele>1995</ele>
        <time>2022-07-13T08:11:26Z</time>
      </trkpt>
      <trkpt lat="44.63114" lon="7.06549">
        <ele>1993</ele>
        <time>2022-07-13T08:11:33Z</time>
      </trkpt>
      <trkpt lat="44.63108" lon="7.06546">
        <ele>1996</ele>
        <time>2022-07-13T08:11:46Z</time>
      </trkpt>
      <trkpt lat="44.63107" lon="7.06551">
        <ele>1998</ele>
        <time>2022-07-13T08:11:50Z</time>
      </trkpt>
      <trkpt lat="44.631" lon="7.0655">
        <ele>1996</ele>
        <time>2022-07-13T08:11:59Z</time>
      </trkpt>
      <trkpt lat="44.63098" lon="7.06557">
        <ele>1996</ele>
        <time>2022-07-13T08:12:06Z</time>
      </trkpt>
      <trkpt lat="44.63091" lon="7.06565">
        <ele>2000</ele>
        <time>2022-07-13T08:12:17Z</time>
      </trkpt>
      <trkpt lat="44.63087" lon="7.06565">
        <ele>2001</ele>
        <time>2022-07-13T08:12:21Z</time>
      </trkpt>
      <trkpt lat="44.63083" lon="7.0657">
        <ele>2001</ele>
        <time>2022-07-13T08:13:09Z</time>
      </trkpt>
      <trkpt lat="44.6307" lon="7.06576">
        <ele>1997</ele>
        <time>2022-07-13T08:13:15Z</time>
      </trkpt>
      <trkpt lat="44.63066" lon="7.06572">
        <ele>1997</ele>
        <time>2022-07-13T08:13:20Z</time>
      </trkpt>
      <trkpt lat="44.63052" lon="7.06585">
        <ele>1998</ele>
        <time>2022-07-13T08:13:42Z</time>
      </trkpt>
      <trkpt lat="44.63049" lon="7.0659">
        <ele>1999</ele>
        <time>2022-07-13T08:13:46Z</time>
      </trkpt>
      <trkpt lat="44.63046" lon="7.06592">
        <ele>1998</ele>
        <time>2022-07-13T08:13:50Z</time>
      </trkpt>
      <trkpt lat="44.6303" lon="7.06595">
        <ele>1998</ele>
        <time>2022-07-13T08:14:02Z</time>
      </trkpt>
      <trkpt lat="44.63026" lon="7.06598">
        <ele>1997</ele>
        <time>2022-07-13T08:14:05Z</time>
      </trkpt>
      <trkpt lat="44.63017" lon="7.066">
        <ele>1996</ele>
        <time>2022-07-13T08:14:13Z</time>
      </trkpt>
      <trkpt lat="44.6301" lon="7.06604">
        <ele>1998</ele>
        <time>2022-07-13T08:14:18Z</time>
      </trkpt>
      <trkpt lat="44.63006" lon="7.06609">
        <ele>1999</ele>
        <time>2022-07-13T08:14:21Z</time>
      </trkpt>
      <trkpt lat="44.62999" lon="7.06613">
        <ele>2000</ele>
        <time>2022-07-13T08:14:28Z</time>
      </trkpt>
      <trkpt lat="44.62995" lon="7.06615">
        <ele>1999</ele>
        <time>2022-07-13T08:14:32Z</time>
      </trkpt>
      <trkpt lat="44.62987" lon="7.06617">
        <ele>1999</ele>
        <time>2022-07-13T08:14:41Z</time>
      </trkpt>
      <trkpt lat="44.62985" lon="7.06622">
        <ele>2001</ele>
        <time>2022-07-13T08:14:46Z</time>
      </trkpt>
      <trkpt lat="44.6298" lon="7.06621">
        <ele>2002</ele>
        <time>2022-07-13T08:14:50Z</time>
      </trkpt>
      <trkpt lat="44.62965" lon="7.06623">
        <ele>2003</ele>
        <time>2022-07-13T08:15:03Z</time>
      </trkpt>
      <trkpt lat="44.62962" lon="7.06622">
        <ele>2005</ele>
        <time>2022-07-13T08:15:07Z</time>
      </trkpt>
      <trkpt lat="44.62956" lon="7.06614">
        <ele>2003</ele>
        <time>2022-07-13T08:15:16Z</time>
      </trkpt>
      <trkpt lat="44.62955" lon="7.06609">
        <ele>2003</ele>
        <time>2022-07-13T08:15:19Z</time>
      </trkpt>
      <trkpt lat="44.62951" lon="7.06607">
        <ele>2002</ele>
        <time>2022-07-13T08:15:25Z</time>
      </trkpt>
      <trkpt lat="44.62948" lon="7.0661">
        <ele>2003</ele>
        <time>2022-07-13T08:15:29Z</time>
      </trkpt>
      <trkpt lat="44.62945" lon="7.06615">
        <ele>2003</ele>
        <time>2022-07-13T08:15:33Z</time>
      </trkpt>
      <trkpt lat="44.62937" lon="7.06613">
        <ele>2002</ele>
        <time>2022-07-13T08:15:40Z</time>
      </trkpt>
      <trkpt lat="44.62934" lon="7.06614">
        <ele>2001</ele>
        <time>2022-07-13T08:15:44Z</time>
      </trkpt>
      <trkpt lat="44.62931" lon="7.06616">
        <ele>2000</ele>
        <time>2022-07-13T08:15:47Z</time>
      </trkpt>
      <trkpt lat="44.62919" lon="7.06617">
        <ele>2000</ele>
        <time>2022-07-13T08:16:01Z</time>
      </trkpt>
      <trkpt lat="44.62915" lon="7.06619">
        <ele>1999</ele>
        <time>2022-07-13T08:16:06Z</time>
      </trkpt>
      <trkpt lat="44.62913" lon="7.06624">
        <ele>1999</ele>
        <time>2022-07-13T08:16:11Z</time>
      </trkpt>
      <trkpt lat="44.6291" lon="7.06627">
        <ele>2000</ele>
        <time>2022-07-13T08:16:16Z</time>
      </trkpt>
      <trkpt lat="44.62907" lon="7.06631">
        <ele>1999</ele>
        <time>2022-07-13T08:16:21Z</time>
      </trkpt>
      <trkpt lat="44.62903" lon="7.06631">
        <ele>1999</ele>
        <time>2022-07-13T08:16:25Z</time>
      </trkpt>
      <trkpt lat="44.62902" lon="7.06626">
        <ele>1999</ele>
        <time>2022-07-13T08:16:28Z</time>
      </trkpt>
      <trkpt lat="44.62899" lon="7.06623">
        <ele>1999</ele>
        <time>2022-07-13T08:16:32Z</time>
      </trkpt>
      <trkpt lat="44.62896" lon="7.06622">
        <ele>1999</ele>
        <time>2022-07-13T08:16:37Z</time>
      </trkpt>
      <trkpt lat="44.62891" lon="7.06634">
        <ele>2000</ele>
        <time>2022-07-13T08:16:49Z</time>
      </trkpt>
      <trkpt lat="44.62885" lon="7.06643">
        <ele>2002</ele>
        <time>2022-07-13T08:17:01Z</time>
      </trkpt>
      <trkpt lat="44.6288" lon="7.06647">
        <ele>1998</ele>
        <time>2022-07-13T08:18:21Z</time>
      </trkpt>
      <trkpt lat="44.62876" lon="7.06647">
        <ele>1998</ele>
        <time>2022-07-13T08:18:24Z</time>
      </trkpt>
      <trkpt lat="44.62874" lon="7.06643">
        <ele>1999</ele>
        <time>2022-07-13T08:18:28Z</time>
      </trkpt>
      <trkpt lat="44.62866" lon="7.06638">
        <ele>1999</ele>
        <time>2022-07-13T08:18:38Z</time>
      </trkpt>
      <trkpt lat="44.62862" lon="7.06637">
        <ele>1998</ele>
        <time>2022-07-13T08:18:44Z</time>
      </trkpt>
      <trkpt lat="44.62859" lon="7.06637">
        <ele>1999</ele>
        <time>2022-07-13T08:18:49Z</time>
      </trkpt>
      <trkpt lat="44.62856" lon="7.06636">
        <ele>2000</ele>
        <time>2022-07-13T08:18:53Z</time>
      </trkpt>
      <trkpt lat="44.62852" lon="7.06637">
        <ele>2001</ele>
        <time>2022-07-13T08:18:59Z</time>
      </trkpt>
      <trkpt lat="44.62849" lon="7.06638">
        <ele>2003</ele>
        <time>2022-07-13T08:19:05Z</time>
      </trkpt>
      <trkpt lat="44.62846" lon="7.06641">
        <ele>2004</ele>
        <time>2022-07-13T08:19:12Z</time>
      </trkpt>
      <trkpt lat="44.62843" lon="7.06642">
        <ele>2004</ele>
        <time>2022-07-13T08:19:19Z</time>
      </trkpt>
      <trkpt lat="44.62836" lon="7.06646">
        <ele>2005</ele>
        <time>2022-07-13T08:19:29Z</time>
      </trkpt>
      <trkpt lat="44.62832" lon="7.06647">
        <ele>2006</ele>
        <time>2022-07-13T08:19:36Z</time>
      </trkpt>
      <trkpt lat="44.62828" lon="7.06648">
        <ele>2007</ele>
        <time>2022-07-13T08:19:41Z</time>
      </trkpt>
      <trkpt lat="44.62828" lon="7.06653">
        <ele>2008</ele>
        <time>2022-07-13T08:19:46Z</time>
      </trkpt>
      <trkpt lat="44.62825" lon="7.06656">
        <ele>2008</ele>
        <time>2022-07-13T08:19:53Z</time>
      </trkpt>
      <trkpt lat="44.62821" lon="7.06658">
        <ele>2010</ele>
        <time>2022-07-13T08:19:59Z</time>
      </trkpt>
      <trkpt lat="44.62818" lon="7.0666">
        <ele>2011</ele>
        <time>2022-07-13T08:20:06Z</time>
      </trkpt>
      <trkpt lat="44.62814" lon="7.06658">
        <ele>2012</ele>
        <time>2022-07-13T08:20:10Z</time>
      </trkpt>
      <trkpt lat="44.62811" lon="7.0666">
        <ele>2012</ele>
        <time>2022-07-13T08:20:20Z</time>
      </trkpt>
      <trkpt lat="44.62812" lon="7.06665">
        <ele>2012</ele>
        <time>2022-07-13T08:20:24Z</time>
      </trkpt>
      <trkpt lat="44.6281" lon="7.06669">
        <ele>2013</ele>
        <time>2022-07-13T08:20:28Z</time>
      </trkpt>
      <trkpt lat="44.62807" lon="7.06672">
        <ele>2015</ele>
        <time>2022-07-13T08:20:36Z</time>
      </trkpt>
      <trkpt lat="44.62808" lon="7.06677">
        <ele>2017</ele>
        <time>2022-07-13T08:20:42Z</time>
      </trkpt>
      <trkpt lat="44.62805" lon="7.06681">
        <ele>2019</ele>
        <time>2022-07-13T08:20:51Z</time>
      </trkpt>
      <trkpt lat="44.62803" lon="7.06685">
        <ele>2019</ele>
        <time>2022-07-13T08:20:57Z</time>
      </trkpt>
      <trkpt lat="44.62801" lon="7.06695">
        <ele>2019</ele>
        <time>2022-07-13T08:21:06Z</time>
      </trkpt>
      <trkpt lat="44.628" lon="7.067">
        <ele>2019</ele>
        <time>2022-07-13T08:21:10Z</time>
      </trkpt>
      <trkpt lat="44.62794" lon="7.06713">
        <ele>2022</ele>
        <time>2022-07-13T08:21:22Z</time>
      </trkpt>
      <trkpt lat="44.62795" lon="7.06719">
        <ele>2023</ele>
        <time>2022-07-13T08:21:26Z</time>
      </trkpt>
      <trkpt lat="44.62799" lon="7.06723">
        <ele>2023</ele>
        <time>2022-07-13T08:21:31Z</time>
      </trkpt>
      <trkpt lat="44.62796" lon="7.06728">
        <ele>2022</ele>
        <time>2022-07-13T08:21:37Z</time>
      </trkpt>
      <trkpt lat="44.62794" lon="7.06732">
        <ele>2020</ele>
        <time>2022-07-13T08:21:41Z</time>
      </trkpt>
      <trkpt lat="44.62793" lon="7.06766">
        <ele>2018</ele>
        <time>2022-07-13T08:22:04Z</time>
      </trkpt>
      <trkpt lat="44.62791" lon="7.06784">
        <ele>2018</ele>
        <time>2022-07-13T08:22:17Z</time>
      </trkpt>
      <trkpt lat="44.62792" lon="7.06789">
        <ele>2017</ele>
        <time>2022-07-13T08:22:22Z</time>
      </trkpt>
      <trkpt lat="44.62791" lon="7.06794">
        <ele>2017</ele>
        <time>2022-07-13T08:22:26Z</time>
      </trkpt>
      <trkpt lat="44.62789" lon="7.06798">
        <ele>2019</ele>
        <time>2022-07-13T08:22:30Z</time>
      </trkpt>
      <trkpt lat="44.62786" lon="7.06803">
        <ele>2021</ele>
        <time>2022-07-13T08:22:35Z</time>
      </trkpt>
      <trkpt lat="44.62784" lon="7.06807">
        <ele>2022</ele>
        <time>2022-07-13T08:22:40Z</time>
      </trkpt>
      <trkpt lat="44.62785" lon="7.06812">
        <ele>2022</ele>
        <time>2022-07-13T08:22:45Z</time>
      </trkpt>
      <trkpt lat="44.62782" lon="7.06822">
        <ele>2023</ele>
        <time>2022-07-13T08:22:56Z</time>
      </trkpt>
      <trkpt lat="44.62781" lon="7.06827">
        <ele>2024</ele>
        <time>2022-07-13T08:23:01Z</time>
      </trkpt>
      <trkpt lat="44.6278" lon="7.06832">
        <ele>2025</ele>
        <time>2022-07-13T08:23:07Z</time>
      </trkpt>
      <trkpt lat="44.62784" lon="7.06834">
        <ele>2025</ele>
        <time>2022-07-13T08:23:29Z</time>
      </trkpt>
      <trkpt lat="44.62787" lon="7.06838">
        <ele>2027</ele>
        <time>2022-07-13T08:23:35Z</time>
      </trkpt>
      <trkpt lat="44.62789" lon="7.06842">
        <ele>2027</ele>
        <time>2022-07-13T08:23:40Z</time>
      </trkpt>
      <trkpt lat="44.62796" lon="7.06842">
        <ele>2026</ele>
        <time>2022-07-13T08:23:50Z</time>
      </trkpt>
      <trkpt lat="44.62797" lon="7.06848">
        <ele>2028</ele>
        <time>2022-07-13T08:23:55Z</time>
      </trkpt>
      <trkpt lat="44.62795" lon="7.06853">
        <ele>2031</ele>
        <time>2022-07-13T08:23:59Z</time>
      </trkpt>
      <trkpt lat="44.62798" lon="7.06856">
        <ele>2031</ele>
        <time>2022-07-13T08:24:04Z</time>
      </trkpt>
      <trkpt lat="44.62802" lon="7.06857">
        <ele>2032</ele>
        <time>2022-07-13T08:24:11Z</time>
      </trkpt>
      <trkpt lat="44.62804" lon="7.06862">
        <ele>2032</ele>
        <time>2022-07-13T08:24:18Z</time>
      </trkpt>
      <trkpt lat="44.62807" lon="7.06861">
        <ele>2033</ele>
        <time>2022-07-13T08:24:25Z</time>
      </trkpt>
      <trkpt lat="44.6281" lon="7.06863">
        <ele>2034</ele>
        <time>2022-07-13T08:24:33Z</time>
      </trkpt>
      <trkpt lat="44.6281" lon="7.06869">
        <ele>2035</ele>
        <time>2022-07-13T08:24:39Z</time>
      </trkpt>
      <trkpt lat="44.62806" lon="7.0687">
        <ele>2038</ele>
        <time>2022-07-13T08:24:43Z</time>
      </trkpt>
      <trkpt lat="44.62808" lon="7.0688">
        <ele>2040</ele>
        <time>2022-07-13T08:24:58Z</time>
      </trkpt>
      <trkpt lat="44.62807" lon="7.06884">
        <ele>2041</ele>
        <time>2022-07-13T08:25:03Z</time>
      </trkpt>
      <trkpt lat="44.62805" lon="7.06889">
        <ele>2039</ele>
        <time>2022-07-13T08:25:08Z</time>
      </trkpt>
      <trkpt lat="44.62799" lon="7.06894">
        <ele>2041</ele>
        <time>2022-07-13T08:25:16Z</time>
      </trkpt>
      <trkpt lat="44.62796" lon="7.06898">
        <ele>2041</ele>
        <time>2022-07-13T08:25:21Z</time>
      </trkpt>
      <trkpt lat="44.62794" lon="7.06902">
        <ele>2042</ele>
        <time>2022-07-13T08:25:25Z</time>
      </trkpt>
      <trkpt lat="44.62791" lon="7.06906">
        <ele>2043</ele>
        <time>2022-07-13T08:25:29Z</time>
      </trkpt>
      <trkpt lat="44.62792" lon="7.0691">
        <ele>2044</ele>
        <time>2022-07-13T08:25:35Z</time>
      </trkpt>
      <trkpt lat="44.62799" lon="7.06914">
        <ele>2041</ele>
        <time>2022-07-13T08:25:46Z</time>
      </trkpt>
      <trkpt lat="44.62801" lon="7.06919">
        <ele>2041</ele>
        <time>2022-07-13T08:25:50Z</time>
      </trkpt>
      <trkpt lat="44.62804" lon="7.06921">
        <ele>2041</ele>
        <time>2022-07-13T08:25:57Z</time>
      </trkpt>
      <trkpt lat="44.62804" lon="7.06926">
        <ele>2044</ele>
        <time>2022-07-13T08:26:06Z</time>
      </trkpt>
      <trkpt lat="44.62804" lon="7.06931">
        <ele>2043</ele>
        <time>2022-07-13T08:26:13Z</time>
      </trkpt>
      <trkpt lat="44.62804" lon="7.06936">
        <ele>2045</ele>
        <time>2022-07-13T08:26:19Z</time>
      </trkpt>
      <trkpt lat="44.62808" lon="7.06939">
        <ele>2047</ele>
        <time>2022-07-13T08:26:27Z</time>
      </trkpt>
      <trkpt lat="44.62812" lon="7.06946">
        <ele>2055</ele>
        <time>2022-07-13T08:26:41Z</time>
      </trkpt>
      <trkpt lat="44.62815" lon="7.0695">
        <ele>2063</ele>
        <time>2022-07-13T08:26:50Z</time>
      </trkpt>
      <trkpt lat="44.62819" lon="7.0695">
        <ele>2062</ele>
        <time>2022-07-13T08:27:00Z</time>
      </trkpt>
      <trkpt lat="44.62821" lon="7.06945">
        <ele>2059</ele>
        <time>2022-07-13T08:27:17Z</time>
      </trkpt>
      <trkpt lat="44.62824" lon="7.06946">
        <ele>2060</ele>
        <time>2022-07-13T08:27:25Z</time>
      </trkpt>
      <trkpt lat="44.62827" lon="7.06949">
        <ele>2062</ele>
        <time>2022-07-13T08:27:30Z</time>
      </trkpt>
      <trkpt lat="44.62831" lon="7.06952">
        <ele>2062</ele>
        <time>2022-07-13T08:27:37Z</time>
      </trkpt>
      <trkpt lat="44.62829" lon="7.06957">
        <ele>2063</ele>
        <time>2022-07-13T08:27:44Z</time>
      </trkpt>
      <trkpt lat="44.62828" lon="7.06962">
        <ele>2066</ele>
        <time>2022-07-13T08:27:49Z</time>
      </trkpt>
      <trkpt lat="44.62827" lon="7.06966">
        <ele>2067</ele>
        <time>2022-07-13T08:27:55Z</time>
      </trkpt>
      <trkpt lat="44.62829" lon="7.0697">
        <ele>2072</ele>
        <time>2022-07-13T08:28:03Z</time>
      </trkpt>
      <trkpt lat="44.62827" lon="7.06974">
        <ele>2074</ele>
        <time>2022-07-13T08:28:09Z</time>
      </trkpt>
      <trkpt lat="44.62826" lon="7.06979">
        <ele>2077</ele>
        <time>2022-07-13T08:28:15Z</time>
      </trkpt>
      <trkpt lat="44.62829" lon="7.06981">
        <ele>2076</ele>
        <time>2022-07-13T08:28:21Z</time>
      </trkpt>
      <trkpt lat="44.62822" lon="7.06989">
        <ele>2074</ele>
        <time>2022-07-13T08:28:44Z</time>
      </trkpt>
      <trkpt lat="44.62829" lon="7.06998">
        <ele>2075</ele>
        <time>2022-07-13T08:28:59Z</time>
      </trkpt>
      <trkpt lat="44.62838" lon="7.07">
        <ele>2074</ele>
        <time>2022-07-13T08:29:13Z</time>
      </trkpt>
      <trkpt lat="44.62834" lon="7.07011">
        <ele>2077</ele>
        <time>2022-07-13T08:29:34Z</time>
      </trkpt>
      <trkpt lat="44.62843" lon="7.07013">
        <ele>2079</ele>
        <time>2022-07-13T08:29:51Z</time>
      </trkpt>
      <trkpt lat="44.62846" lon="7.07019">
        <ele>2087</ele>
        <time>2022-07-13T08:30:34Z</time>
      </trkpt>
      <trkpt lat="44.62839" lon="7.07027">
        <ele>2089</ele>
        <time>2022-07-13T08:30:48Z</time>
      </trkpt>
      <trkpt lat="44.62842" lon="7.07039">
        <ele>2089</ele>
        <time>2022-07-13T08:31:12Z</time>
      </trkpt>
      <trkpt lat="44.62851" lon="7.07043">
        <ele>2090</ele>
        <time>2022-07-13T08:31:29Z</time>
      </trkpt>
      <trkpt lat="44.6286" lon="7.07044">
        <ele>2094</ele>
        <time>2022-07-13T08:31:51Z</time>
      </trkpt>
      <trkpt lat="44.62864" lon="7.07042">
        <ele>2095</ele>
        <time>2022-07-13T08:31:58Z</time>
      </trkpt>
      <trkpt lat="44.62867" lon="7.07041">
        <ele>2096</ele>
        <time>2022-07-13T08:32:04Z</time>
      </trkpt>
      <trkpt lat="44.62871" lon="7.07039">
        <ele>2099</ele>
        <time>2022-07-13T08:32:11Z</time>
      </trkpt>
      <trkpt lat="44.62874" lon="7.0704">
        <ele>2099</ele>
        <time>2022-07-13T08:32:17Z</time>
      </trkpt>
      <trkpt lat="44.62872" lon="7.07042">
        <ele>2105</ele>
        <time>2022-07-13T08:32:42Z</time>
      </trkpt>
      <trkpt lat="44.62864" lon="7.07053">
        <ele>2109</ele>
        <time>2022-07-13T08:32:57Z</time>
      </trkpt>
      <trkpt lat="44.62863" lon="7.07058">
        <ele>2112</ele>
        <time>2022-07-13T08:33:02Z</time>
      </trkpt>
      <trkpt lat="44.62864" lon="7.07063">
        <ele>2114</ele>
        <time>2022-07-13T08:33:10Z</time>
      </trkpt>
      <trkpt lat="44.62866" lon="7.07066">
        <ele>2114</ele>
        <time>2022-07-13T08:33:26Z</time>
      </trkpt>
      <trkpt lat="44.62869" lon="7.07063">
        <ele>2115</ele>
        <time>2022-07-13T08:33:31Z</time>
      </trkpt>
      <trkpt lat="44.62872" lon="7.07059">
        <ele>2116</ele>
        <time>2022-07-13T08:33:36Z</time>
      </trkpt>
      <trkpt lat="44.62876" lon="7.07057">
        <ele>2117</ele>
        <time>2022-07-13T08:33:42Z</time>
      </trkpt>
      <trkpt lat="44.62879" lon="7.07055">
        <ele>2117</ele>
        <time>2022-07-13T08:33:48Z</time>
      </trkpt>
      <trkpt lat="44.62883" lon="7.07057">
        <ele>2118</ele>
        <time>2022-07-13T08:33:55Z</time>
      </trkpt>
      <trkpt lat="44.62882" lon="7.07062">
        <ele>2119</ele>
        <time>2022-07-13T08:34:01Z</time>
      </trkpt>
      <trkpt lat="44.62879" lon="7.07065">
        <ele>2119</ele>
        <time>2022-07-13T08:34:06Z</time>
      </trkpt>
      <trkpt lat="44.62877" lon="7.0707">
        <ele>2119</ele>
        <time>2022-07-13T08:34:12Z</time>
      </trkpt>
      <trkpt lat="44.62877" lon="7.07075">
        <ele>2119</ele>
        <time>2022-07-13T08:34:19Z</time>
      </trkpt>
      <trkpt lat="44.62874" lon="7.0708">
        <ele>2121</ele>
        <time>2022-07-13T08:34:26Z</time>
      </trkpt>
      <trkpt lat="44.62874" lon="7.07085">
        <ele>2124</ele>
        <time>2022-07-13T08:34:37Z</time>
      </trkpt>
      <trkpt lat="44.62872" lon="7.07089">
        <ele>2125</ele>
        <time>2022-07-13T08:34:45Z</time>
      </trkpt>
      <trkpt lat="44.6287" lon="7.07094">
        <ele>2126</ele>
        <time>2022-07-13T08:34:53Z</time>
      </trkpt>
      <trkpt lat="44.62871" lon="7.07099">
        <ele>2126</ele>
        <time>2022-07-13T08:35:01Z</time>
      </trkpt>
      <trkpt lat="44.62874" lon="7.07108">
        <ele>2130</ele>
        <time>2022-07-13T08:35:13Z</time>
      </trkpt>
      <trkpt lat="44.62876" lon="7.07112">
        <ele>2129</ele>
        <time>2022-07-13T08:35:19Z</time>
      </trkpt>
      <trkpt lat="44.62878" lon="7.07116">
        <ele>2130</ele>
        <time>2022-07-13T08:35:25Z</time>
      </trkpt>
      <trkpt lat="44.6288" lon="7.0712">
        <ele>2132</ele>
        <time>2022-07-13T08:35:30Z</time>
      </trkpt>
      <trkpt lat="44.62882" lon="7.07124">
        <ele>2131</ele>
        <time>2022-07-13T08:35:35Z</time>
      </trkpt>
      <trkpt lat="44.62885" lon="7.07128">
        <ele>2129</ele>
        <time>2022-07-13T08:35:40Z</time>
      </trkpt>
      <trkpt lat="44.62887" lon="7.07132">
        <ele>2129</ele>
        <time>2022-07-13T08:35:44Z</time>
      </trkpt>
      <trkpt lat="44.62897" lon="7.07147">
        <ele>2133</ele>
        <time>2022-07-13T08:36:00Z</time>
      </trkpt>
      <trkpt lat="44.629" lon="7.07151">
        <ele>2135</ele>
        <time>2022-07-13T08:36:05Z</time>
      </trkpt>
      <trkpt lat="44.62905" lon="7.07159">
        <ele>2134</ele>
        <time>2022-07-13T08:36:14Z</time>
      </trkpt>
      <trkpt lat="44.62908" lon="7.07159">
        <ele>2135</ele>
        <time>2022-07-13T08:36:20Z</time>
      </trkpt>
      <trkpt lat="44.6291" lon="7.07163">
        <ele>2135</ele>
        <time>2022-07-13T08:36:26Z</time>
      </trkpt>
      <trkpt lat="44.62914" lon="7.07164">
        <ele>2135</ele>
        <time>2022-07-13T08:36:33Z</time>
      </trkpt>
      <trkpt lat="44.62917" lon="7.07163">
        <ele>2137</ele>
        <time>2022-07-13T08:36:39Z</time>
      </trkpt>
      <trkpt lat="44.62921" lon="7.07161">
        <ele>2138</ele>
        <time>2022-07-13T08:36:45Z</time>
      </trkpt>
      <trkpt lat="44.62925" lon="7.07163">
        <ele>2141</ele>
        <time>2022-07-13T08:36:51Z</time>
      </trkpt>
      <trkpt lat="44.62928" lon="7.07165">
        <ele>2143</ele>
        <time>2022-07-13T08:36:59Z</time>
      </trkpt>
      <trkpt lat="44.6293" lon="7.07169">
        <ele>2143</ele>
        <time>2022-07-13T08:37:05Z</time>
      </trkpt>
      <trkpt lat="44.62934" lon="7.0717">
        <ele>2143</ele>
        <time>2022-07-13T08:37:10Z</time>
      </trkpt>
      <trkpt lat="44.62937" lon="7.0717">
        <ele>2144</ele>
        <time>2022-07-13T08:37:15Z</time>
      </trkpt>
      <trkpt lat="44.62944" lon="7.07174">
        <ele>2147</ele>
        <time>2022-07-13T08:37:25Z</time>
      </trkpt>
      <trkpt lat="44.62948" lon="7.07175">
        <ele>2147</ele>
        <time>2022-07-13T08:37:30Z</time>
      </trkpt>
      <trkpt lat="44.62951" lon="7.07178">
        <ele>2146</ele>
        <time>2022-07-13T08:37:35Z</time>
      </trkpt>
      <trkpt lat="44.62955" lon="7.07177">
        <ele>2146</ele>
        <time>2022-07-13T08:37:41Z</time>
      </trkpt>
      <trkpt lat="44.62957" lon="7.07173">
        <ele>2147</ele>
        <time>2022-07-13T08:37:48Z</time>
      </trkpt>
      <trkpt lat="44.6296" lon="7.07173">
        <ele>2147</ele>
        <time>2022-07-13T08:37:55Z</time>
      </trkpt>
      <trkpt lat="44.62963" lon="7.07177">
        <ele>2147</ele>
        <time>2022-07-13T08:38:01Z</time>
      </trkpt>
      <trkpt lat="44.62966" lon="7.07176">
        <ele>2145</ele>
        <time>2022-07-13T08:38:08Z</time>
      </trkpt>
      <trkpt lat="44.6297" lon="7.07177">
        <ele>2145</ele>
        <time>2022-07-13T08:38:14Z</time>
      </trkpt>
      <trkpt lat="44.62974" lon="7.07178">
        <ele>2146</ele>
        <time>2022-07-13T08:38:20Z</time>
      </trkpt>
      <trkpt lat="44.62977" lon="7.0718">
        <ele>2147</ele>
        <time>2022-07-13T08:38:26Z</time>
      </trkpt>
      <trkpt lat="44.6298" lon="7.07177">
        <ele>2148</ele>
        <time>2022-07-13T08:38:33Z</time>
      </trkpt>
      <trkpt lat="44.62984" lon="7.07177">
        <ele>2152</ele>
        <time>2022-07-13T08:38:39Z</time>
      </trkpt>
      <trkpt lat="44.62988" lon="7.07177">
        <ele>2152</ele>
        <time>2022-07-13T08:38:47Z</time>
      </trkpt>
      <trkpt lat="44.62992" lon="7.07176">
        <ele>2155</ele>
        <time>2022-07-13T08:38:56Z</time>
      </trkpt>
      <trkpt lat="44.62995" lon="7.07173">
        <ele>2156</ele>
        <time>2022-07-13T08:39:04Z</time>
      </trkpt>
      <trkpt lat="44.62997" lon="7.07169">
        <ele>2158</ele>
        <time>2022-07-13T08:39:12Z</time>
      </trkpt>
      <trkpt lat="44.63003" lon="7.07163">
        <ele>2159</ele>
        <time>2022-07-13T08:39:26Z</time>
      </trkpt>
      <trkpt lat="44.63005" lon="7.07168">
        <ele>2159</ele>
        <time>2022-07-13T08:39:35Z</time>
      </trkpt>
      <trkpt lat="44.63006" lon="7.07173">
        <ele>2161</ele>
        <time>2022-07-13T08:39:41Z</time>
      </trkpt>
      <trkpt lat="44.63004" lon="7.07178">
        <ele>2163</ele>
        <time>2022-07-13T08:39:46Z</time>
      </trkpt>
      <trkpt lat="44.63004" lon="7.07184">
        <ele>2164</ele>
        <time>2022-07-13T08:39:51Z</time>
      </trkpt>
      <trkpt lat="44.63008" lon="7.07185">
        <ele>2163</ele>
        <time>2022-07-13T08:39:56Z</time>
      </trkpt>
      <trkpt lat="44.6301" lon="7.07181">
        <ele>2163</ele>
        <time>2022-07-13T08:40:01Z</time>
      </trkpt>
      <trkpt lat="44.63013" lon="7.07179">
        <ele>2164</ele>
        <time>2022-07-13T08:40:07Z</time>
      </trkpt>
      <trkpt lat="44.63013" lon="7.07184">
        <ele>2166</ele>
        <time>2022-07-13T08:40:13Z</time>
      </trkpt>
      <trkpt lat="44.63017" lon="7.07183">
        <ele>2167</ele>
        <time>2022-07-13T08:40:23Z</time>
      </trkpt>
      <trkpt lat="44.6302" lon="7.0718">
        <ele>2166</ele>
        <time>2022-07-13T08:40:29Z</time>
      </trkpt>
      <trkpt lat="44.63023" lon="7.07181">
        <ele>2166</ele>
        <time>2022-07-13T08:40:36Z</time>
      </trkpt>
      <trkpt lat="44.63022" lon="7.07186">
        <ele>2166</ele>
        <time>2022-07-13T08:40:42Z</time>
      </trkpt>
      <trkpt lat="44.63025" lon="7.07189">
        <ele>2169</ele>
        <time>2022-07-13T08:40:49Z</time>
      </trkpt>
      <trkpt lat="44.63029" lon="7.07187">
        <ele>2169</ele>
        <time>2022-07-13T08:40:55Z</time>
      </trkpt>
      <trkpt lat="44.63033" lon="7.07186">
        <ele>2169</ele>
        <time>2022-07-13T08:41:01Z</time>
      </trkpt>
      <trkpt lat="44.63033" lon="7.07191">
        <ele>2169</ele>
        <time>2022-07-13T08:41:06Z</time>
      </trkpt>
      <trkpt lat="44.63029" lon="7.07193">
        <ele>2170</ele>
        <time>2022-07-13T08:41:10Z</time>
      </trkpt>
      <trkpt lat="44.63027" lon="7.07198">
        <ele>2171</ele>
        <time>2022-07-13T08:41:17Z</time>
      </trkpt>
      <trkpt lat="44.63031" lon="7.072">
        <ele>2171</ele>
        <time>2022-07-13T08:41:25Z</time>
      </trkpt>
      <trkpt lat="44.63034" lon="7.07199">
        <ele>2171</ele>
        <time>2022-07-13T08:41:31Z</time>
      </trkpt>
      <trkpt lat="44.63038" lon="7.07197">
        <ele>2174</ele>
        <time>2022-07-13T08:41:38Z</time>
      </trkpt>
      <trkpt lat="44.63041" lon="7.07195">
        <ele>2175</ele>
        <time>2022-07-13T08:41:46Z</time>
      </trkpt>
      <trkpt lat="44.63043" lon="7.072">
        <ele>2177</ele>
        <time>2022-07-13T08:41:55Z</time>
      </trkpt>
      <trkpt lat="44.63042" lon="7.07205">
        <ele>2179</ele>
        <time>2022-07-13T08:42:01Z</time>
      </trkpt>
      <trkpt lat="44.63043" lon="7.0721">
        <ele>2182</ele>
        <time>2022-07-13T08:42:10Z</time>
      </trkpt>
      <trkpt lat="44.63043" lon="7.07215">
        <ele>2183</ele>
        <time>2022-07-13T08:42:19Z</time>
      </trkpt>
      <trkpt lat="44.63043" lon="7.07225">
        <ele>2189</ele>
        <time>2022-07-13T08:42:34Z</time>
      </trkpt>
      <trkpt lat="44.63045" lon="7.07229">
        <ele>2191</ele>
        <time>2022-07-13T08:42:41Z</time>
      </trkpt>
      <trkpt lat="44.63053" lon="7.07227">
        <ele>2189</ele>
        <time>2022-07-13T08:42:56Z</time>
      </trkpt>
      <trkpt lat="44.63056" lon="7.07228">
        <ele>2188</ele>
        <time>2022-07-13T08:43:03Z</time>
      </trkpt>
      <trkpt lat="44.6306" lon="7.07232">
        <ele>2188</ele>
        <time>2022-07-13T08:43:11Z</time>
      </trkpt>
      <trkpt lat="44.63058" lon="7.07236">
        <ele>2188</ele>
        <time>2022-07-13T08:43:16Z</time>
      </trkpt>
      <trkpt lat="44.63056" lon="7.0724">
        <ele>2188</ele>
        <time>2022-07-13T08:43:21Z</time>
      </trkpt>
      <trkpt lat="44.63054" lon="7.07244">
        <ele>2189</ele>
        <time>2022-07-13T08:43:26Z</time>
      </trkpt>
      <trkpt lat="44.6305" lon="7.07247">
        <ele>2189</ele>
        <time>2022-07-13T08:43:32Z</time>
      </trkpt>
      <trkpt lat="44.63048" lon="7.07251">
        <ele>2188</ele>
        <time>2022-07-13T08:43:39Z</time>
      </trkpt>
      <trkpt lat="44.63052" lon="7.07253">
        <ele>2189</ele>
        <time>2022-07-13T08:43:44Z</time>
      </trkpt>
      <trkpt lat="44.63059" lon="7.07257">
        <ele>2189</ele>
        <time>2022-07-13T08:43:54Z</time>
      </trkpt>
      <trkpt lat="44.63061" lon="7.07261">
        <ele>2190</ele>
        <time>2022-07-13T08:44:01Z</time>
      </trkpt>
      <trkpt lat="44.6306" lon="7.07266">
        <ele>2192</ele>
        <time>2022-07-13T08:44:07Z</time>
      </trkpt>
      <trkpt lat="44.63061" lon="7.07271">
        <ele>2194</ele>
        <time>2022-07-13T08:44:18Z</time>
      </trkpt>
      <trkpt lat="44.63068" lon="7.0727">
        <ele>2199</ele>
        <time>2022-07-13T08:44:32Z</time>
      </trkpt>
      <trkpt lat="44.63068" lon="7.07276">
        <ele>2199</ele>
        <time>2022-07-13T08:44:38Z</time>
      </trkpt>
      <trkpt lat="44.63066" lon="7.07279">
        <ele>2200</ele>
        <time>2022-07-13T08:44:43Z</time>
      </trkpt>
      <trkpt lat="44.63063" lon="7.07283">
        <ele>2202</ele>
        <time>2022-07-13T08:44:50Z</time>
      </trkpt>
      <trkpt lat="44.63067" lon="7.07284">
        <ele>2203</ele>
        <time>2022-07-13T08:44:57Z</time>
      </trkpt>
      <trkpt lat="44.6307" lon="7.07284">
        <ele>2203</ele>
        <time>2022-07-13T08:45:02Z</time>
      </trkpt>
      <trkpt lat="44.63069" lon="7.07289">
        <ele>2204</ele>
        <time>2022-07-13T08:45:13Z</time>
      </trkpt>
      <trkpt lat="44.63066" lon="7.07292">
        <ele>2203</ele>
        <time>2022-07-13T08:45:20Z</time>
      </trkpt>
      <trkpt lat="44.63064" lon="7.07296">
        <ele>2204</ele>
        <time>2022-07-13T08:45:30Z</time>
      </trkpt>
      <trkpt lat="44.63068" lon="7.07298">
        <ele>2206</ele>
        <time>2022-07-13T08:45:38Z</time>
      </trkpt>
      <trkpt lat="44.63071" lon="7.07302">
        <ele>2209</ele>
        <time>2022-07-13T08:45:44Z</time>
      </trkpt>
      <trkpt lat="44.63074" lon="7.07305">
        <ele>2210</ele>
        <time>2022-07-13T08:45:50Z</time>
      </trkpt>
      <trkpt lat="44.63072" lon="7.07308">
        <ele>2211</ele>
        <time>2022-07-13T08:45:57Z</time>
      </trkpt>
      <trkpt lat="44.63066" lon="7.07314">
        <ele>2215</ele>
        <time>2022-07-13T08:46:11Z</time>
      </trkpt>
      <trkpt lat="44.63064" lon="7.07318">
        <ele>2215</ele>
        <time>2022-07-13T08:46:16Z</time>
      </trkpt>
      <trkpt lat="44.6306" lon="7.07318">
        <ele>2214</ele>
        <time>2022-07-13T08:46:22Z</time>
      </trkpt>
      <trkpt lat="44.63062" lon="7.07333">
        <ele>2216</ele>
        <time>2022-07-13T08:46:45Z</time>
      </trkpt>
      <trkpt lat="44.63062" lon="7.07338">
        <ele>2216</ele>
        <time>2022-07-13T08:46:51Z</time>
      </trkpt>
      <trkpt lat="44.63061" lon="7.07343">
        <ele>2217</ele>
        <time>2022-07-13T08:46:57Z</time>
      </trkpt>
      <trkpt lat="44.63061" lon="7.07348">
        <ele>2219</ele>
        <time>2022-07-13T08:47:05Z</time>
      </trkpt>
      <trkpt lat="44.63061" lon="7.07359">
        <ele>2218</ele>
        <time>2022-07-13T08:47:16Z</time>
      </trkpt>
      <trkpt lat="44.63064" lon="7.07362">
        <ele>2219</ele>
        <time>2022-07-13T08:47:23Z</time>
      </trkpt>
      <trkpt lat="44.63066" lon="7.07367">
        <ele>2220</ele>
        <time>2022-07-13T08:47:29Z</time>
      </trkpt>
      <trkpt lat="44.63067" lon="7.07371">
        <ele>2221</ele>
        <time>2022-07-13T08:47:35Z</time>
      </trkpt>
      <trkpt lat="44.6307" lon="7.07375">
        <ele>2223</ele>
        <time>2022-07-13T08:47:41Z</time>
      </trkpt>
      <trkpt lat="44.63074" lon="7.07383">
        <ele>2225</ele>
        <time>2022-07-13T08:47:51Z</time>
      </trkpt>
      <trkpt lat="44.63075" lon="7.07388">
        <ele>2226</ele>
        <time>2022-07-13T08:47:58Z</time>
      </trkpt>
      <trkpt lat="44.63076" lon="7.07393">
        <ele>2225</ele>
        <time>2022-07-13T08:48:04Z</time>
      </trkpt>
      <trkpt lat="44.6308" lon="7.07396">
        <ele>2226</ele>
        <time>2022-07-13T08:48:10Z</time>
      </trkpt>
      <trkpt lat="44.63083" lon="7.07398">
        <ele>2229</ele>
        <time>2022-07-13T08:48:16Z</time>
      </trkpt>
      <trkpt lat="44.63087" lon="7.07401">
        <ele>2229</ele>
        <time>2022-07-13T08:48:22Z</time>
      </trkpt>
      <trkpt lat="44.63098" lon="7.07404">
        <ele>2230</ele>
        <time>2022-07-13T08:48:42Z</time>
      </trkpt>
      <trkpt lat="44.63102" lon="7.07406">
        <ele>2230</ele>
        <time>2022-07-13T08:48:49Z</time>
      </trkpt>
      <trkpt lat="44.63109" lon="7.07409">
        <ele>2230</ele>
        <time>2022-07-13T08:49:01Z</time>
      </trkpt>
      <trkpt lat="44.63111" lon="7.07412">
        <ele>2230</ele>
        <time>2022-07-13T08:49:07Z</time>
      </trkpt>
      <trkpt lat="44.63114" lon="7.07416">
        <ele>2231</ele>
        <time>2022-07-13T08:49:14Z</time>
      </trkpt>
      <trkpt lat="44.63109" lon="7.07424">
        <ele>2235</ele>
        <time>2022-07-13T08:49:27Z</time>
      </trkpt>
      <trkpt lat="44.63108" lon="7.07429">
        <ele>2234</ele>
        <time>2022-07-13T08:49:34Z</time>
      </trkpt>
      <trkpt lat="44.6311" lon="7.07433">
        <ele>2235</ele>
        <time>2022-07-13T08:49:40Z</time>
      </trkpt>
      <trkpt lat="44.63113" lon="7.07434">
        <ele>2238</ele>
        <time>2022-07-13T08:49:47Z</time>
      </trkpt>
      <trkpt lat="44.63117" lon="7.07435">
        <ele>2239</ele>
        <time>2022-07-13T08:49:54Z</time>
      </trkpt>
      <trkpt lat="44.63118" lon="7.0744">
        <ele>2239</ele>
        <time>2022-07-13T08:50:00Z</time>
      </trkpt>
      <trkpt lat="44.63115" lon="7.07444">
        <ele>2239</ele>
        <time>2022-07-13T08:50:04Z</time>
      </trkpt>
      <trkpt lat="44.63112" lon="7.07452">
        <ele>2241</ele>
        <time>2022-07-13T08:50:17Z</time>
      </trkpt>
      <trkpt lat="44.63113" lon="7.07457">
        <ele>2242</ele>
        <time>2022-07-13T08:50:23Z</time>
      </trkpt>
      <trkpt lat="44.63115" lon="7.07461">
        <ele>2243</ele>
        <time>2022-07-13T08:50:29Z</time>
      </trkpt>
      <trkpt lat="44.63123" lon="7.0746">
        <ele>2246</ele>
        <time>2022-07-13T08:50:43Z</time>
      </trkpt>
      <trkpt lat="44.63125" lon="7.07462">
        <ele>2248</ele>
        <time>2022-07-13T08:50:58Z</time>
      </trkpt>
      <trkpt lat="44.63123" lon="7.07466">
        <ele>2248</ele>
        <time>2022-07-13T08:51:04Z</time>
      </trkpt>
      <trkpt lat="44.63116" lon="7.07471">
        <ele>2248</ele>
        <time>2022-07-13T08:51:14Z</time>
      </trkpt>
      <trkpt lat="44.63114" lon="7.07476">
        <ele>2249</ele>
        <time>2022-07-13T08:51:19Z</time>
      </trkpt>
      <trkpt lat="44.63112" lon="7.0748">
        <ele>2249</ele>
        <time>2022-07-13T08:51:25Z</time>
      </trkpt>
      <trkpt lat="44.63114" lon="7.07484">
        <ele>2251</ele>
        <time>2022-07-13T08:51:32Z</time>
      </trkpt>
      <trkpt lat="44.63122" lon="7.07485">
        <ele>2256</ele>
        <time>2022-07-13T08:51:48Z</time>
      </trkpt>
      <trkpt lat="44.63122" lon="7.0749">
        <ele>2255</ele>
        <time>2022-07-13T08:51:59Z</time>
      </trkpt>
      <trkpt lat="44.63119" lon="7.07495">
        <ele>2255</ele>
        <time>2022-07-13T08:52:05Z</time>
      </trkpt>
      <trkpt lat="44.63114" lon="7.07503">
        <ele>2258</ele>
        <time>2022-07-13T08:52:18Z</time>
      </trkpt>
      <trkpt lat="44.63113" lon="7.07507">
        <ele>2259</ele>
        <time>2022-07-13T08:52:24Z</time>
      </trkpt>
      <trkpt lat="44.63116" lon="7.0751">
        <ele>2260</ele>
        <time>2022-07-13T08:52:31Z</time>
      </trkpt>
      <trkpt lat="44.6312" lon="7.07509">
        <ele>2262</ele>
        <time>2022-07-13T08:52:36Z</time>
      </trkpt>
      <trkpt lat="44.6312" lon="7.07515">
        <ele>2263</ele>
        <time>2022-07-13T08:52:48Z</time>
      </trkpt>
      <trkpt lat="44.63117" lon="7.07518">
        <ele>2264</ele>
        <time>2022-07-13T08:52:53Z</time>
      </trkpt>
      <trkpt lat="44.6312" lon="7.0752">
        <ele>2264</ele>
        <time>2022-07-13T08:53:05Z</time>
      </trkpt>
      <trkpt lat="44.63124" lon="7.07519">
        <ele>2266</ele>
        <time>2022-07-13T08:53:11Z</time>
      </trkpt>
      <trkpt lat="44.63127" lon="7.0752">
        <ele>2268</ele>
        <time>2022-07-13T08:53:17Z</time>
      </trkpt>
      <trkpt lat="44.63126" lon="7.07525">
        <ele>2268</ele>
        <time>2022-07-13T08:53:24Z</time>
      </trkpt>
      <trkpt lat="44.63123" lon="7.07535">
        <ele>2270</ele>
        <time>2022-07-13T08:53:38Z</time>
      </trkpt>
      <trkpt lat="44.63123" lon="7.0754">
        <ele>2272</ele>
        <time>2022-07-13T08:53:44Z</time>
      </trkpt>
      <trkpt lat="44.63122" lon="7.07544">
        <ele>2273</ele>
        <time>2022-07-13T08:53:51Z</time>
      </trkpt>
      <trkpt lat="44.63125" lon="7.07547">
        <ele>2276</ele>
        <time>2022-07-13T08:54:00Z</time>
      </trkpt>
      <trkpt lat="44.63128" lon="7.07547">
        <ele>2276</ele>
        <time>2022-07-13T08:54:08Z</time>
      </trkpt>
      <trkpt lat="44.63132" lon="7.07548">
        <ele>2277</ele>
        <time>2022-07-13T08:54:14Z</time>
      </trkpt>
      <trkpt lat="44.63135" lon="7.07545">
        <ele>2278</ele>
        <time>2022-07-13T08:54:22Z</time>
      </trkpt>
      <trkpt lat="44.63138" lon="7.07548">
        <ele>2278</ele>
        <time>2022-07-13T08:54:27Z</time>
      </trkpt>
      <trkpt lat="44.63136" lon="7.07553">
        <ele>2278</ele>
        <time>2022-07-13T08:54:33Z</time>
      </trkpt>
      <trkpt lat="44.63136" lon="7.07558">
        <ele>2278</ele>
        <time>2022-07-13T08:54:38Z</time>
      </trkpt>
      <trkpt lat="44.63136" lon="7.07563">
        <ele>2278</ele>
        <time>2022-07-13T08:54:45Z</time>
      </trkpt>
      <trkpt lat="44.63134" lon="7.07568">
        <ele>2278</ele>
        <time>2022-07-13T08:54:51Z</time>
      </trkpt>
      <trkpt lat="44.63137" lon="7.07571">
        <ele>2280</ele>
        <time>2022-07-13T08:54:59Z</time>
      </trkpt>
      <trkpt lat="44.63139" lon="7.07575">
        <ele>2283</ele>
        <time>2022-07-13T08:55:05Z</time>
      </trkpt>
      <trkpt lat="44.63146" lon="7.0758">
        <ele>2285</ele>
        <time>2022-07-13T08:55:19Z</time>
      </trkpt>
      <trkpt lat="44.63146" lon="7.07585">
        <ele>2285</ele>
        <time>2022-07-13T08:55:25Z</time>
      </trkpt>
      <trkpt lat="44.63149" lon="7.07595">
        <ele>2288</ele>
        <time>2022-07-13T08:55:36Z</time>
      </trkpt>
      <trkpt lat="44.6315" lon="7.076">
        <ele>2291</ele>
        <time>2022-07-13T08:55:41Z</time>
      </trkpt>
      <trkpt lat="44.63151" lon="7.07605">
        <ele>2292</ele>
        <time>2022-07-13T08:55:48Z</time>
      </trkpt>
      <trkpt lat="44.63154" lon="7.0761">
        <ele>2292</ele>
        <time>2022-07-13T08:55:54Z</time>
      </trkpt>
      <trkpt lat="44.63156" lon="7.07614">
        <ele>2293</ele>
        <time>2022-07-13T08:56:02Z</time>
      </trkpt>
      <trkpt lat="44.63152" lon="7.07623">
        <ele>2293</ele>
        <time>2022-07-13T08:56:14Z</time>
      </trkpt>
      <trkpt lat="44.6315" lon="7.07627">
        <ele>2291</ele>
        <time>2022-07-13T08:56:21Z</time>
      </trkpt>
      <trkpt lat="44.63149" lon="7.07632">
        <ele>2291</ele>
        <time>2022-07-13T08:56:28Z</time>
      </trkpt>
      <trkpt lat="44.63149" lon="7.07638">
        <ele>2289</ele>
        <time>2022-07-13T08:56:35Z</time>
      </trkpt>
      <trkpt lat="44.63149" lon="7.07648">
        <ele>2290</ele>
        <time>2022-07-13T08:56:46Z</time>
      </trkpt>
      <trkpt lat="44.63148" lon="7.07654">
        <ele>2291</ele>
        <time>2022-07-13T08:56:52Z</time>
      </trkpt>
      <trkpt lat="44.63146" lon="7.07657">
        <ele>2290</ele>
        <time>2022-07-13T08:56:58Z</time>
      </trkpt>
      <trkpt lat="44.63142" lon="7.07666">
        <ele>2291</ele>
        <time>2022-07-13T08:57:08Z</time>
      </trkpt>
      <trkpt lat="44.63141" lon="7.07672">
        <ele>2291</ele>
        <time>2022-07-13T08:57:13Z</time>
      </trkpt>
      <trkpt lat="44.63142" lon="7.07676">
        <ele>2292</ele>
        <time>2022-07-13T08:57:18Z</time>
      </trkpt>
      <trkpt lat="44.63145" lon="7.07685">
        <ele>2296</ele>
        <time>2022-07-13T08:57:28Z</time>
      </trkpt>
      <trkpt lat="44.63145" lon="7.07696">
        <ele>2298</ele>
        <time>2022-07-13T08:57:38Z</time>
      </trkpt>
      <trkpt lat="44.63145" lon="7.07702">
        <ele>2300</ele>
        <time>2022-07-13T08:57:44Z</time>
      </trkpt>
      <trkpt lat="44.63146" lon="7.07707">
        <ele>2300</ele>
        <time>2022-07-13T08:57:49Z</time>
      </trkpt>
      <trkpt lat="44.63147" lon="7.07712">
        <ele>2302</ele>
        <time>2022-07-13T08:57:54Z</time>
      </trkpt>
      <trkpt lat="44.63148" lon="7.07718">
        <ele>2302</ele>
        <time>2022-07-13T08:57:59Z</time>
      </trkpt>
      <trkpt lat="44.63148" lon="7.07723">
        <ele>2303</ele>
        <time>2022-07-13T08:58:03Z</time>
      </trkpt>
      <trkpt lat="44.63148" lon="7.07734">
        <ele>2305</ele>
        <time>2022-07-13T08:58:13Z</time>
      </trkpt>
      <trkpt lat="44.63154" lon="7.07759">
        <ele>2306</ele>
        <time>2022-07-13T08:58:35Z</time>
      </trkpt>
      <trkpt lat="44.63156" lon="7.07763">
        <ele>2306</ele>
        <time>2022-07-13T08:58:39Z</time>
      </trkpt>
      <trkpt lat="44.63157" lon="7.07768">
        <ele>2306</ele>
        <time>2022-07-13T08:58:44Z</time>
      </trkpt>
      <trkpt lat="44.6316" lon="7.07777">
        <ele>2307</ele>
        <time>2022-07-13T08:58:53Z</time>
      </trkpt>
      <trkpt lat="44.63161" lon="7.07782">
        <ele>2308</ele>
        <time>2022-07-13T08:58:58Z</time>
      </trkpt>
      <trkpt lat="44.63162" lon="7.07798">
        <ele>2309</ele>
        <time>2022-07-13T08:59:13Z</time>
      </trkpt>
      <trkpt lat="44.63162" lon="7.07804">
        <ele>2309</ele>
        <time>2022-07-13T08:59:18Z</time>
      </trkpt>
      <trkpt lat="44.63163" lon="7.0781">
        <ele>2309</ele>
        <time>2022-07-13T08:59:24Z</time>
      </trkpt>
      <trkpt lat="44.63167" lon="7.07825">
        <ele>2309</ele>
        <time>2022-07-13T08:59:38Z</time>
      </trkpt>
      <trkpt lat="44.63173" lon="7.07851">
        <ele>2311</ele>
        <time>2022-07-13T08:59:58Z</time>
      </trkpt>
      <trkpt lat="44.63174" lon="7.07856">
        <ele>2311</ele>
        <time>2022-07-13T09:00:03Z</time>
      </trkpt>
      <trkpt lat="44.63178" lon="7.07865">
        <ele>2311</ele>
        <time>2022-07-13T09:00:12Z</time>
      </trkpt>
      <trkpt lat="44.63181" lon="7.07876">
        <ele>2311</ele>
        <time>2022-07-13T09:00:22Z</time>
      </trkpt>
      <trkpt lat="44.63184" lon="7.07879">
        <ele>2312</ele>
        <time>2022-07-13T09:00:28Z</time>
      </trkpt>
      <trkpt lat="44.63187" lon="7.07884">
        <ele>2311</ele>
        <time>2022-07-13T09:00:36Z</time>
      </trkpt>
      <trkpt lat="44.63192" lon="7.07904">
        <ele>2311</ele>
        <time>2022-07-13T09:00:53Z</time>
      </trkpt>
      <trkpt lat="44.63196" lon="7.07927">
        <ele>2312</ele>
        <time>2022-07-13T09:01:13Z</time>
      </trkpt>
      <trkpt lat="44.63198" lon="7.07932">
        <ele>2312</ele>
        <time>2022-07-13T09:01:19Z</time>
      </trkpt>
      <trkpt lat="44.63214" lon="7.07955">
        <ele>2317</ele>
        <time>2022-07-13T09:01:53Z</time>
      </trkpt>
      <trkpt lat="44.6322" lon="7.07959">
        <ele>2320</ele>
        <time>2022-07-13T09:02:05Z</time>
      </trkpt>
      <trkpt lat="44.63224" lon="7.07959">
        <ele>2322</ele>
        <time>2022-07-13T09:02:12Z</time>
      </trkpt>
      <trkpt lat="44.63228" lon="7.07959">
        <ele>2322</ele>
        <time>2022-07-13T09:02:18Z</time>
      </trkpt>
      <trkpt lat="44.63232" lon="7.07961">
        <ele>2322</ele>
        <time>2022-07-13T09:02:24Z</time>
      </trkpt>
      <trkpt lat="44.63235" lon="7.07965">
        <ele>2324</ele>
        <time>2022-07-13T09:02:30Z</time>
      </trkpt>
      <trkpt lat="44.63238" lon="7.07968">
        <ele>2326</ele>
        <time>2022-07-13T09:02:39Z</time>
      </trkpt>
      <trkpt lat="44.63241" lon="7.07972">
        <ele>2326</ele>
        <time>2022-07-13T09:02:44Z</time>
      </trkpt>
      <trkpt lat="44.63244" lon="7.07974">
        <ele>2326</ele>
        <time>2022-07-13T09:02:49Z</time>
      </trkpt>
      <trkpt lat="44.63254" lon="7.07989">
        <ele>2333</ele>
        <time>2022-07-13T09:03:14Z</time>
      </trkpt>
      <trkpt lat="44.63256" lon="7.07992">
        <ele>2333</ele>
        <time>2022-07-13T09:03:20Z</time>
      </trkpt>
      <trkpt lat="44.6326" lon="7.07995">
        <ele>2335</ele>
        <time>2022-07-13T09:03:27Z</time>
      </trkpt>
      <trkpt lat="44.63263" lon="7.07997">
        <ele>2336</ele>
        <time>2022-07-13T09:03:35Z</time>
      </trkpt>
      <trkpt lat="44.63266" lon="7.08001">
        <ele>2338</ele>
        <time>2022-07-13T09:03:41Z</time>
      </trkpt>
      <trkpt lat="44.63269" lon="7.08004">
        <ele>2339</ele>
        <time>2022-07-13T09:03:47Z</time>
      </trkpt>
      <trkpt lat="44.63272" lon="7.08008">
        <ele>2340</ele>
        <time>2022-07-13T09:03:55Z</time>
      </trkpt>
      <trkpt lat="44.63274" lon="7.08018">
        <ele>2342</ele>
        <time>2022-07-13T09:04:06Z</time>
      </trkpt>
      <trkpt lat="44.6328" lon="7.08031">
        <ele>2344</ele>
        <time>2022-07-13T09:04:26Z</time>
      </trkpt>
      <trkpt lat="44.63281" lon="7.08037">
        <ele>2344</ele>
        <time>2022-07-13T09:04:33Z</time>
      </trkpt>
      <trkpt lat="44.63284" lon="7.0804">
        <ele>2346</ele>
        <time>2022-07-13T09:04:40Z</time>
      </trkpt>
      <trkpt lat="44.63287" lon="7.08044">
        <ele>2346</ele>
        <time>2022-07-13T09:04:49Z</time>
      </trkpt>
      <trkpt lat="44.6329" lon="7.08046">
        <ele>2348</ele>
        <time>2022-07-13T09:05:00Z</time>
      </trkpt>
      <trkpt lat="44.63301" lon="7.0806">
        <ele>2353</ele>
        <time>2022-07-13T09:05:27Z</time>
      </trkpt>
      <trkpt lat="44.63311" lon="7.0807">
        <ele>2356</ele>
        <time>2022-07-13T09:05:48Z</time>
      </trkpt>
      <trkpt lat="44.63314" lon="7.08071">
        <ele>2356</ele>
        <time>2022-07-13T09:05:53Z</time>
      </trkpt>
      <trkpt lat="44.63319" lon="7.0808">
        <ele>2358</ele>
        <time>2022-07-13T09:06:04Z</time>
      </trkpt>
      <trkpt lat="44.63322" lon="7.08083">
        <ele>2358</ele>
        <time>2022-07-13T09:06:10Z</time>
      </trkpt>
      <trkpt lat="44.63324" lon="7.08088">
        <ele>2358</ele>
        <time>2022-07-13T09:06:17Z</time>
      </trkpt>
      <trkpt lat="44.63327" lon="7.0809">
        <ele>2359</ele>
        <time>2022-07-13T09:06:24Z</time>
      </trkpt>
      <trkpt lat="44.63329" lon="7.08095">
        <ele>2359</ele>
        <time>2022-07-13T09:06:31Z</time>
      </trkpt>
      <trkpt lat="44.63332" lon="7.08104">
        <ele>2360</ele>
        <time>2022-07-13T09:06:44Z</time>
      </trkpt>
      <trkpt lat="44.63334" lon="7.08109">
        <ele>2360</ele>
        <time>2022-07-13T09:06:50Z</time>
      </trkpt>
      <trkpt lat="44.63337" lon="7.08112">
        <ele>2361</ele>
        <time>2022-07-13T09:06:56Z</time>
      </trkpt>
      <trkpt lat="44.63339" lon="7.08117">
        <ele>2362</ele>
        <time>2022-07-13T09:07:02Z</time>
      </trkpt>
      <trkpt lat="44.63337" lon="7.08122">
        <ele>2362</ele>
        <time>2022-07-13T09:07:08Z</time>
      </trkpt>
      <trkpt lat="44.63337" lon="7.08127">
        <ele>2360</ele>
        <time>2022-07-13T09:07:13Z</time>
      </trkpt>
      <trkpt lat="44.6334" lon="7.08131">
        <ele>2361</ele>
        <time>2022-07-13T09:07:18Z</time>
      </trkpt>
      <trkpt lat="44.6334" lon="7.08137">
        <ele>2363</ele>
        <time>2022-07-13T09:07:24Z</time>
      </trkpt>
      <trkpt lat="44.63341" lon="7.08142">
        <ele>2362</ele>
        <time>2022-07-13T09:07:29Z</time>
      </trkpt>
      <trkpt lat="44.63342" lon="7.08153">
        <ele>2363</ele>
        <time>2022-07-13T09:07:39Z</time>
      </trkpt>
      <trkpt lat="44.63331" lon="7.08168">
        <ele>2362</ele>
        <time>2022-07-13T09:08:02Z</time>
      </trkpt>
      <trkpt lat="44.63331" lon="7.08174">
        <ele>2361</ele>
        <time>2022-07-13T09:08:07Z</time>
      </trkpt>
      <trkpt lat="44.63332" lon="7.08179">
        <ele>2361</ele>
        <time>2022-07-13T09:08:11Z</time>
      </trkpt>
      <trkpt lat="44.63343" lon="7.08183">
        <ele>2362</ele>
        <time>2022-07-13T09:08:28Z</time>
      </trkpt>
      <trkpt lat="44.63346" lon="7.08187">
        <ele>2362</ele>
        <time>2022-07-13T09:08:33Z</time>
      </trkpt>
      <trkpt lat="44.6335" lon="7.08187">
        <ele>2362</ele>
        <time>2022-07-13T09:08:38Z</time>
      </trkpt>
      <trkpt lat="44.63354" lon="7.08195">
        <ele>2363</ele>
        <time>2022-07-13T09:08:47Z</time>
      </trkpt>
      <trkpt lat="44.63356" lon="7.08199">
        <ele>2363</ele>
        <time>2022-07-13T09:08:52Z</time>
      </trkpt>
      <trkpt lat="44.63359" lon="7.08204">
        <ele>2363</ele>
        <time>2022-07-13T09:09:34Z</time>
      </trkpt>
      <trkpt lat="44.6336" lon="7.08209">
        <ele>2363</ele>
        <time>2022-07-13T09:09:38Z</time>
      </trkpt>
      <trkpt lat="44.63365" lon="7.08218">
        <ele>2362</ele>
        <time>2022-07-13T09:09:49Z</time>
      </trkpt>
      <trkpt lat="44.63366" lon="7.08223">
        <ele>2362</ele>
        <time>2022-07-13T09:09:54Z</time>
      </trkpt>
      <trkpt lat="44.63366" lon="7.08228">
        <ele>2362</ele>
        <time>2022-07-13T09:09:59Z</time>
      </trkpt>
      <trkpt lat="44.63367" lon="7.08234">
        <ele>2361</ele>
        <time>2022-07-13T09:10:04Z</time>
      </trkpt>
      <trkpt lat="44.6337" lon="7.08243">
        <ele>2361</ele>
        <time>2022-07-13T09:10:12Z</time>
      </trkpt>
      <trkpt lat="44.63373" lon="7.08247">
        <ele>2362</ele>
        <time>2022-07-13T09:10:17Z</time>
      </trkpt>
      <trkpt lat="44.63377" lon="7.08248">
        <ele>2364</ele>
        <time>2022-07-13T09:10:22Z</time>
      </trkpt>
      <trkpt lat="44.63384" lon="7.08263">
        <ele>2365</ele>
        <time>2022-07-13T09:10:38Z</time>
      </trkpt>
      <trkpt lat="44.63383" lon="7.08268">
        <ele>2365</ele>
        <time>2022-07-13T09:10:43Z</time>
      </trkpt>
      <trkpt lat="44.63385" lon="7.08278">
        <ele>2365</ele>
        <time>2022-07-13T09:10:52Z</time>
      </trkpt>
      <trkpt lat="44.63387" lon="7.08282">
        <ele>2366</ele>
        <time>2022-07-13T09:10:57Z</time>
      </trkpt>
      <trkpt lat="44.6339" lon="7.08286">
        <ele>2366</ele>
        <time>2022-07-13T09:11:04Z</time>
      </trkpt>
      <trkpt lat="44.63392" lon="7.0829">
        <ele>2366</ele>
        <time>2022-07-13T09:11:09Z</time>
      </trkpt>
      <trkpt lat="44.63394" lon="7.08295">
        <ele>2366</ele>
        <time>2022-07-13T09:11:21Z</time>
      </trkpt>
      <trkpt lat="44.63396" lon="7.08299">
        <ele>2367</ele>
        <time>2022-07-13T09:11:27Z</time>
      </trkpt>
      <trkpt lat="44.63393" lon="7.08301">
        <ele>2367</ele>
        <time>2022-07-13T09:11:31Z</time>
      </trkpt>
      <trkpt lat="44.63391" lon="7.08305">
        <ele>2367</ele>
        <time>2022-07-13T09:11:38Z</time>
      </trkpt>
      <trkpt lat="44.63393" lon="7.08309">
        <ele>2367</ele>
        <time>2022-07-13T09:11:43Z</time>
      </trkpt>
      <trkpt lat="44.63392" lon="7.08314">
        <ele>2369</ele>
        <time>2022-07-13T09:11:49Z</time>
      </trkpt>
      <trkpt lat="44.63395" lon="7.08319">
        <ele>2370</ele>
        <time>2022-07-13T09:11:54Z</time>
      </trkpt>
      <trkpt lat="44.63397" lon="7.08323">
        <ele>2371</ele>
        <time>2022-07-13T09:12:00Z</time>
      </trkpt>
      <trkpt lat="44.63401" lon="7.08326">
        <ele>2372</ele>
        <time>2022-07-13T09:12:05Z</time>
      </trkpt>
      <trkpt lat="44.63403" lon="7.0833">
        <ele>2373</ele>
        <time>2022-07-13T09:12:11Z</time>
      </trkpt>
      <trkpt lat="44.63401" lon="7.08334">
        <ele>2374</ele>
        <time>2022-07-13T09:12:18Z</time>
      </trkpt>
      <trkpt lat="44.63398" lon="7.08338">
        <ele>2374</ele>
        <time>2022-07-13T09:12:24Z</time>
      </trkpt>
      <trkpt lat="44.63398" lon="7.08343">
        <ele>2374</ele>
        <time>2022-07-13T09:12:29Z</time>
      </trkpt>
      <trkpt lat="44.63399" lon="7.08348">
        <ele>2377</ele>
        <time>2022-07-13T09:12:36Z</time>
      </trkpt>
      <trkpt lat="44.634" lon="7.08353">
        <ele>2378</ele>
        <time>2022-07-13T09:12:43Z</time>
      </trkpt>
      <trkpt lat="44.63398" lon="7.08358">
        <ele>2382</ele>
        <time>2022-07-13T09:12:51Z</time>
      </trkpt>
      <trkpt lat="44.63394" lon="7.08359">
        <ele>2382</ele>
        <time>2022-07-13T09:12:55Z</time>
      </trkpt>
      <trkpt lat="44.63396" lon="7.08364">
        <ele>2382</ele>
        <time>2022-07-13T09:13:04Z</time>
      </trkpt>
      <trkpt lat="44.63399" lon="7.08365">
        <ele>2383</ele>
        <time>2022-07-13T09:13:11Z</time>
      </trkpt>
      <trkpt lat="44.63403" lon="7.08365">
        <ele>2383</ele>
        <time>2022-07-13T09:13:17Z</time>
      </trkpt>
      <trkpt lat="44.63405" lon="7.08369">
        <ele>2385</ele>
        <time>2022-07-13T09:13:23Z</time>
      </trkpt>
      <trkpt lat="44.63409" lon="7.08371">
        <ele>2386</ele>
        <time>2022-07-13T09:13:31Z</time>
      </trkpt>
      <trkpt lat="44.63411" lon="7.08375">
        <ele>2388</ele>
        <time>2022-07-13T09:13:37Z</time>
      </trkpt>
      <trkpt lat="44.63413" lon="7.08378">
        <ele>2389</ele>
        <time>2022-07-13T09:13:50Z</time>
      </trkpt>
      <trkpt lat="44.6341" lon="7.0838">
        <ele>2390</ele>
        <time>2022-07-13T09:13:55Z</time>
      </trkpt>
      <trkpt lat="44.63411" lon="7.08386">
        <ele>2392</ele>
        <time>2022-07-13T09:14:03Z</time>
      </trkpt>
      <trkpt lat="44.63414" lon="7.08386">
        <ele>2393</ele>
        <time>2022-07-13T09:14:13Z</time>
      </trkpt>
      <trkpt lat="44.63417" lon="7.08382">
        <ele>2393</ele>
        <time>2022-07-13T09:14:21Z</time>
      </trkpt>
      <trkpt lat="44.63419" lon="7.08386">
        <ele>2394</ele>
        <time>2022-07-13T09:14:32Z</time>
      </trkpt>
      <trkpt lat="44.63419" lon="7.08391">
        <ele>2395</ele>
        <time>2022-07-13T09:14:38Z</time>
      </trkpt>
      <trkpt lat="44.63422" lon="7.08389">
        <ele>2398</ele>
        <time>2022-07-13T09:14:48Z</time>
      </trkpt>
      <trkpt lat="44.63425" lon="7.08391">
        <ele>2398</ele>
        <time>2022-07-13T09:14:57Z</time>
      </trkpt>
      <trkpt lat="44.63424" lon="7.08396">
        <ele>2398</ele>
        <time>2022-07-13T09:15:03Z</time>
      </trkpt>
      <trkpt lat="44.63425" lon="7.08401">
        <ele>2399</ele>
        <time>2022-07-13T09:15:12Z</time>
      </trkpt>
      <trkpt lat="44.63428" lon="7.08403">
        <ele>2399</ele>
        <time>2022-07-13T09:15:20Z</time>
      </trkpt>
      <trkpt lat="44.63431" lon="7.08401">
        <ele>2399</ele>
        <time>2022-07-13T09:15:26Z</time>
      </trkpt>
      <trkpt lat="44.63434" lon="7.08403">
        <ele>2401</ele>
        <time>2022-07-13T09:15:55Z</time>
      </trkpt>
      <trkpt lat="44.63438" lon="7.08402">
        <ele>2404</ele>
        <time>2022-07-13T09:16:03Z</time>
      </trkpt>
      <trkpt lat="44.63441" lon="7.08402">
        <ele>2403</ele>
        <time>2022-07-13T09:16:07Z</time>
      </trkpt>
      <trkpt lat="44.63445" lon="7.08402">
        <ele>2399</ele>
        <time>2022-07-13T09:16:14Z</time>
      </trkpt>
      <trkpt lat="44.63445" lon="7.08407">
        <ele>2398</ele>
        <time>2022-07-13T09:16:25Z</time>
      </trkpt>
      <trkpt lat="44.63445" lon="7.08412">
        <ele>2404</ele>
        <time>2022-07-13T09:16:36Z</time>
      </trkpt>
      <trkpt lat="44.63445" lon="7.08418">
        <ele>2408</ele>
        <time>2022-07-13T09:16:47Z</time>
      </trkpt>
      <trkpt lat="44.63449" lon="7.08416">
        <ele>2409</ele>
        <time>2022-07-13T09:16:57Z</time>
      </trkpt>
      <trkpt lat="44.63452" lon="7.08417">
        <ele>2410</ele>
        <time>2022-07-13T09:17:09Z</time>
      </trkpt>
      <trkpt lat="44.63455" lon="7.08418">
        <ele>2410</ele>
        <time>2022-07-13T09:17:17Z</time>
      </trkpt>
      <trkpt lat="44.63456" lon="7.08418">
        <ele>2414</ele>
        <time>2022-07-13T09:18:00Z</time>
      </trkpt>
      <trkpt lat="44.63457" lon="7.08422">
        <ele>2416</ele>
        <time>2022-07-13T09:18:08Z</time>
      </trkpt>
      <trkpt lat="44.63461" lon="7.08422">
        <ele>2417</ele>
        <time>2022-07-13T09:18:18Z</time>
      </trkpt>
      <trkpt lat="44.63464" lon="7.0842">
        <ele>2418</ele>
        <time>2022-07-13T09:18:33Z</time>
      </trkpt>
      <trkpt lat="44.63465" lon="7.08425">
        <ele>2423</ele>
        <time>2022-07-13T09:18:42Z</time>
      </trkpt>
      <trkpt lat="44.63463" lon="7.08427">
        <ele>2425</ele>
        <time>2022-07-13T09:18:49Z</time>
      </trkpt>
      <trkpt lat="44.63464" lon="7.08432">
        <ele>2430</ele>
        <time>2022-07-13T09:18:56Z</time>
      </trkpt>
      <trkpt lat="44.63465" lon="7.08437">
        <ele>2431</ele>
        <time>2022-07-13T09:19:01Z</time>
      </trkpt>
      <trkpt lat="44.63466" lon="7.08442">
        <ele>2433</ele>
        <time>2022-07-13T09:19:08Z</time>
      </trkpt>
      <trkpt lat="44.63464" lon="7.08446">
        <ele>2433</ele>
        <time>2022-07-13T09:19:14Z</time>
      </trkpt>
      <trkpt lat="44.63464" lon="7.08451">
        <ele>2434</ele>
        <time>2022-07-13T09:19:19Z</time>
      </trkpt>
      <trkpt lat="44.63466" lon="7.08455">
        <ele>2436</ele>
        <time>2022-07-13T09:19:27Z</time>
      </trkpt>
      <trkpt lat="44.63466" lon="7.08461">
        <ele>2438</ele>
        <time>2022-07-13T09:19:34Z</time>
      </trkpt>
      <trkpt lat="44.63463" lon="7.08464">
        <ele>2438</ele>
        <time>2022-07-13T09:19:39Z</time>
      </trkpt>
      <trkpt lat="44.63461" lon="7.08469">
        <ele>2440</ele>
        <time>2022-07-13T09:19:46Z</time>
      </trkpt>
      <trkpt lat="44.6346" lon="7.08473">
        <ele>2441</ele>
        <time>2022-07-13T09:19:52Z</time>
      </trkpt>
      <trkpt lat="44.63459" lon="7.08478">
        <ele>2441</ele>
        <time>2022-07-13T09:19:57Z</time>
      </trkpt>
      <trkpt lat="44.63457" lon="7.08482">
        <ele>2442</ele>
        <time>2022-07-13T09:20:04Z</time>
      </trkpt>
      <trkpt lat="44.63457" lon="7.08497">
        <ele>2446</ele>
        <time>2022-07-13T09:20:29Z</time>
      </trkpt>
      <trkpt lat="44.63458" lon="7.08508">
        <ele>2450</ele>
        <time>2022-07-13T09:20:41Z</time>
      </trkpt>
      <trkpt lat="44.63453" lon="7.08517">
        <ele>2451</ele>
        <time>2022-07-13T09:20:53Z</time>
      </trkpt>
      <trkpt lat="44.63453" lon="7.08523">
        <ele>2449</ele>
        <time>2022-07-13T09:20:58Z</time>
      </trkpt>
      <trkpt lat="44.63451" lon="7.08528">
        <ele>2448</ele>
        <time>2022-07-13T09:21:03Z</time>
      </trkpt>
      <trkpt lat="44.63452" lon="7.08533">
        <ele>2447</ele>
        <time>2022-07-13T09:21:09Z</time>
      </trkpt>
      <trkpt lat="44.63447" lon="7.08565">
        <ele>2448</ele>
        <time>2022-07-13T09:21:42Z</time>
      </trkpt>
      <trkpt lat="44.63445" lon="7.08576">
        <ele>2450</ele>
        <time>2022-07-13T09:21:54Z</time>
      </trkpt>
      <trkpt lat="44.63443" lon="7.08591">
        <ele>2451</ele>
        <time>2022-07-13T09:22:11Z</time>
      </trkpt>
      <trkpt lat="44.63442" lon="7.08602">
        <ele>2452</ele>
        <time>2022-07-13T09:22:22Z</time>
      </trkpt>
      <trkpt lat="44.63442" lon="7.08607">
        <ele>2453</ele>
        <time>2022-07-13T09:22:28Z</time>
      </trkpt>
      <trkpt lat="44.63441" lon="7.08613">
        <ele>2455</ele>
        <time>2022-07-13T09:22:34Z</time>
      </trkpt>
      <trkpt lat="44.63442" lon="7.08618">
        <ele>2456</ele>
        <time>2022-07-13T09:22:40Z</time>
      </trkpt>
      <trkpt lat="44.6344" lon="7.08633">
        <ele>2456</ele>
        <time>2022-07-13T09:22:59Z</time>
      </trkpt>
      <trkpt lat="44.63438" lon="7.08637">
        <ele>2457</ele>
        <time>2022-07-13T09:23:03Z</time>
      </trkpt>
      <trkpt lat="44.63436" lon="7.08642">
        <ele>2458</ele>
        <time>2022-07-13T09:23:08Z</time>
      </trkpt>
      <trkpt lat="44.63437" lon="7.08647">
        <ele>2458</ele>
        <time>2022-07-13T09:23:14Z</time>
      </trkpt>
      <trkpt lat="44.63435" lon="7.08658">
        <ele>2457</ele>
        <time>2022-07-13T09:23:26Z</time>
      </trkpt>
      <trkpt lat="44.63439" lon="7.08672">
        <ele>2460</ele>
        <time>2022-07-13T09:23:45Z</time>
      </trkpt>
      <trkpt lat="44.63439" lon="7.08677">
        <ele>2461</ele>
        <time>2022-07-13T09:23:52Z</time>
      </trkpt>
      <trkpt lat="44.63442" lon="7.0868">
        <ele>2462</ele>
        <time>2022-07-13T09:24:00Z</time>
      </trkpt>
      <trkpt lat="44.63443" lon="7.08675">
        <ele>2462</ele>
        <time>2022-07-13T09:24:05Z</time>
      </trkpt>
      <trkpt lat="44.63447" lon="7.08677">
        <ele>2462</ele>
        <time>2022-07-13T09:24:14Z</time>
      </trkpt>
      <trkpt lat="44.63446" lon="7.08682">
        <ele>2460</ele>
        <time>2022-07-13T09:24:20Z</time>
      </trkpt>
      <trkpt lat="44.63443" lon="7.08692">
        <ele>2464</ele>
        <time>2022-07-13T09:24:46Z</time>
      </trkpt>
      <trkpt lat="44.63442" lon="7.08697">
        <ele>2468</ele>
        <time>2022-07-13T09:24:54Z</time>
      </trkpt>
      <trkpt lat="44.63439" lon="7.087">
        <ele>2469</ele>
        <time>2022-07-13T09:24:59Z</time>
      </trkpt>
      <trkpt lat="44.63437" lon="7.08711">
        <ele>2474</ele>
        <time>2022-07-13T09:25:11Z</time>
      </trkpt>
      <trkpt lat="44.63439" lon="7.08716">
        <ele>2474</ele>
        <time>2022-07-13T09:25:17Z</time>
      </trkpt>
      <trkpt lat="44.63439" lon="7.08721">
        <ele>2474</ele>
        <time>2022-07-13T09:25:25Z</time>
      </trkpt>
      <trkpt lat="44.63438" lon="7.08726">
        <ele>2476</ele>
        <time>2022-07-13T09:25:34Z</time>
      </trkpt>
      <trkpt lat="44.63435" lon="7.0873">
        <ele>2479</ele>
        <time>2022-07-13T09:25:41Z</time>
      </trkpt>
      <trkpt lat="44.63432" lon="7.08731">
        <ele>2480</ele>
        <time>2022-07-13T09:25:46Z</time>
      </trkpt>
      <trkpt lat="44.63432" lon="7.08737">
        <ele>2481</ele>
        <time>2022-07-13T09:25:53Z</time>
      </trkpt>
      <trkpt lat="44.6342" lon="7.08751">
        <ele>2484</ele>
        <time>2022-07-13T09:26:19Z</time>
      </trkpt>
      <trkpt lat="44.63424" lon="7.08753">
        <ele>2486</ele>
        <time>2022-07-13T09:26:34Z</time>
      </trkpt>
      <trkpt lat="44.63428" lon="7.08753">
        <ele>2487</ele>
        <time>2022-07-13T09:26:40Z</time>
      </trkpt>
      <trkpt lat="44.63428" lon="7.08758">
        <ele>2488</ele>
        <time>2022-07-13T09:26:46Z</time>
      </trkpt>
      <trkpt lat="44.63424" lon="7.0876">
        <ele>2488</ele>
        <time>2022-07-13T09:26:49Z</time>
      </trkpt>
      <trkpt lat="44.63422" lon="7.08765">
        <ele>2492</ele>
        <time>2022-07-13T09:26:52Z</time>
      </trkpt>
      <trkpt lat="44.63419" lon="7.08769">
        <ele>2493</ele>
        <time>2022-07-13T09:26:58Z</time>
      </trkpt>
      <trkpt lat="44.63419" lon="7.08774">
        <ele>2495</ele>
        <time>2022-07-13T09:27:08Z</time>
      </trkpt>
      <trkpt lat="44.63422" lon="7.08778">
        <ele>2497</ele>
        <time>2022-07-13T09:27:21Z</time>
      </trkpt>
      <trkpt lat="44.63415" lon="7.08792">
        <ele>2499</ele>
        <time>2022-07-13T09:27:41Z</time>
      </trkpt>
      <trkpt lat="44.63413" lon="7.08796">
        <ele>2499</ele>
        <time>2022-07-13T09:27:49Z</time>
      </trkpt>
      <trkpt lat="44.6341" lon="7.088">
        <ele>2499</ele>
        <time>2022-07-13T09:27:55Z</time>
      </trkpt>
      <trkpt lat="44.6341" lon="7.08805">
        <ele>2498</ele>
        <time>2022-07-13T09:28:01Z</time>
      </trkpt>
      <trkpt lat="44.63408" lon="7.0881">
        <ele>2496</ele>
        <time>2022-07-13T09:28:07Z</time>
      </trkpt>
      <trkpt lat="44.63405" lon="7.08813">
        <ele>2496</ele>
        <time>2022-07-13T09:28:14Z</time>
      </trkpt>
      <trkpt lat="44.63409" lon="7.08815">
        <ele>2497</ele>
        <time>2022-07-13T09:28:28Z</time>
      </trkpt>
      <trkpt lat="44.63412" lon="7.08817">
        <ele>2497</ele>
        <time>2022-07-13T09:28:34Z</time>
      </trkpt>
      <trkpt lat="44.63415" lon="7.08819">
        <ele>2497</ele>
        <time>2022-07-13T09:28:40Z</time>
      </trkpt>
      <trkpt lat="44.63419" lon="7.08819">
        <ele>2498</ele>
        <time>2022-07-13T09:28:47Z</time>
      </trkpt>
      <trkpt lat="44.63423" lon="7.0882">
        <ele>2499</ele>
        <time>2022-07-13T09:28:55Z</time>
      </trkpt>
      <trkpt lat="44.63421" lon="7.08824">
        <ele>2499</ele>
        <time>2022-07-13T09:29:03Z</time>
      </trkpt>
      <trkpt lat="44.63418" lon="7.08828">
        <ele>2500</ele>
        <time>2022-07-13T09:29:09Z</time>
      </trkpt>
      <trkpt lat="44.63418" lon="7.08833">
        <ele>2503</ele>
        <time>2022-07-13T09:29:17Z</time>
      </trkpt>
      <trkpt lat="44.63419" lon="7.08838">
        <ele>2503</ele>
        <time>2022-07-13T09:29:26Z</time>
      </trkpt>
      <trkpt lat="44.63422" lon="7.08841">
        <ele>2504</ele>
        <time>2022-07-13T09:29:33Z</time>
      </trkpt>
      <trkpt lat="44.63424" lon="7.08844">
        <ele>2505</ele>
        <time>2022-07-13T09:29:40Z</time>
      </trkpt>
      <trkpt lat="44.63425" lon="7.08861">
        <ele>2505</ele>
        <time>2022-07-13T09:29:58Z</time>
      </trkpt>
      <trkpt lat="44.63426" lon="7.08866">
        <ele>2505</ele>
        <time>2022-07-13T09:30:04Z</time>
      </trkpt>
      <trkpt lat="44.63429" lon="7.08869">
        <ele>2504</ele>
        <time>2022-07-13T09:30:11Z</time>
      </trkpt>
      <trkpt lat="44.63432" lon="7.08871">
        <ele>2504</ele>
        <time>2022-07-13T09:30:17Z</time>
      </trkpt>
      <trkpt lat="44.63438" lon="7.08877">
        <ele>2505</ele>
        <time>2022-07-13T09:30:30Z</time>
      </trkpt>
      <trkpt lat="44.6344" lon="7.08883">
        <ele>2505</ele>
        <time>2022-07-13T09:30:37Z</time>
      </trkpt>
      <trkpt lat="44.63441" lon="7.08888">
        <ele>2504</ele>
        <time>2022-07-13T09:30:42Z</time>
      </trkpt>
      <trkpt lat="44.63444" lon="7.08893">
        <ele>2505</ele>
        <time>2022-07-13T09:30:48Z</time>
      </trkpt>
      <trkpt lat="44.63447" lon="7.08895">
        <ele>2506</ele>
        <time>2022-07-13T09:30:54Z</time>
      </trkpt>
      <trkpt lat="44.63451" lon="7.08897">
        <ele>2507</ele>
        <time>2022-07-13T09:30:59Z</time>
      </trkpt>
      <trkpt lat="44.63454" lon="7.089">
        <ele>2507</ele>
        <time>2022-07-13T09:31:04Z</time>
      </trkpt>
      <trkpt lat="44.63458" lon="7.08901">
        <ele>2508</ele>
        <time>2022-07-13T09:31:08Z</time>
      </trkpt>
      <trkpt lat="44.63463" lon="7.08908">
        <ele>2510</ele>
        <time>2022-07-13T09:31:19Z</time>
      </trkpt>
      <trkpt lat="44.63463" lon="7.08913">
        <ele>2511</ele>
        <time>2022-07-13T09:31:25Z</time>
      </trkpt>
      <trkpt lat="44.6346" lon="7.08917">
        <ele>2511</ele>
        <time>2022-07-13T09:31:30Z</time>
      </trkpt>
      <trkpt lat="44.63462" lon="7.08922">
        <ele>2513</ele>
        <time>2022-07-13T09:31:39Z</time>
      </trkpt>
      <trkpt lat="44.63461" lon="7.08932">
        <ele>2515</ele>
        <time>2022-07-13T09:31:53Z</time>
      </trkpt>
      <trkpt lat="44.63464" lon="7.08935">
        <ele>2516</ele>
        <time>2022-07-13T09:32:03Z</time>
      </trkpt>
      <trkpt lat="44.63465" lon="7.0894">
        <ele>2518</ele>
        <time>2022-07-13T09:32:10Z</time>
      </trkpt>
      <trkpt lat="44.63467" lon="7.08944">
        <ele>2518</ele>
        <time>2022-07-13T09:32:17Z</time>
      </trkpt>
      <trkpt lat="44.63471" lon="7.08945">
        <ele>2519</ele>
        <time>2022-07-13T09:32:24Z</time>
      </trkpt>
      <trkpt lat="44.63473" lon="7.08949">
        <ele>2519</ele>
        <time>2022-07-13T09:33:23Z</time>
      </trkpt>
      <trkpt lat="44.63476" lon="7.08952">
        <ele>2520</ele>
        <time>2022-07-13T09:33:29Z</time>
      </trkpt>
      <trkpt lat="44.63478" lon="7.08956">
        <ele>2521</ele>
        <time>2022-07-13T09:33:37Z</time>
      </trkpt>
      <trkpt lat="44.63479" lon="7.08962">
        <ele>2524</ele>
        <time>2022-07-13T09:33:50Z</time>
      </trkpt>
      <trkpt lat="44.63488" lon="7.08972">
        <ele>2530</ele>
        <time>2022-07-13T09:34:16Z</time>
      </trkpt>
      <trkpt lat="44.6349" lon="7.08976">
        <ele>2532</ele>
        <time>2022-07-13T09:34:23Z</time>
      </trkpt>
      <trkpt lat="44.63492" lon="7.08981">
        <ele>2533</ele>
        <time>2022-07-13T09:34:28Z</time>
      </trkpt>
      <trkpt lat="44.63494" lon="7.08986">
        <ele>2534</ele>
        <time>2022-07-13T09:34:34Z</time>
      </trkpt>
      <trkpt lat="44.63499" lon="7.09">
        <ele>2539</ele>
        <time>2022-07-13T09:34:56Z</time>
      </trkpt>
      <trkpt lat="44.63502" lon="7.09014">
        <ele>2541</ele>
        <time>2022-07-13T09:35:18Z</time>
      </trkpt>
      <trkpt lat="44.63503" lon="7.0902">
        <ele>2541</ele>
        <time>2022-07-13T09:35:26Z</time>
      </trkpt>
      <trkpt lat="44.63506" lon="7.09023">
        <ele>2542</ele>
        <time>2022-07-13T09:35:33Z</time>
      </trkpt>
      <trkpt lat="44.63508" lon="7.09019">
        <ele>2541</ele>
        <time>2022-07-13T09:35:39Z</time>
      </trkpt>
      <trkpt lat="44.63509" lon="7.09015">
        <ele>2542</ele>
        <time>2022-07-13T09:35:46Z</time>
      </trkpt>
      <trkpt lat="44.63517" lon="7.09014">
        <ele>2544</ele>
        <time>2022-07-13T09:36:00Z</time>
      </trkpt>
      <trkpt lat="44.6352" lon="7.09016">
        <ele>2545</ele>
        <time>2022-07-13T09:36:07Z</time>
      </trkpt>
      <trkpt lat="44.6352" lon="7.09022">
        <ele>2545</ele>
        <time>2022-07-13T09:36:13Z</time>
      </trkpt>
      <trkpt lat="44.63519" lon="7.09028">
        <ele>2545</ele>
        <time>2022-07-13T09:36:18Z</time>
      </trkpt>
      <trkpt lat="44.63522" lon="7.09043">
        <ele>2545</ele>
        <time>2022-07-13T09:36:35Z</time>
      </trkpt>
      <trkpt lat="44.63522" lon="7.09053">
        <ele>2547</ele>
        <time>2022-07-13T09:36:47Z</time>
      </trkpt>
      <trkpt lat="44.63524" lon="7.09058">
        <ele>2548</ele>
        <time>2022-07-13T09:36:55Z</time>
      </trkpt>
      <trkpt lat="44.63528" lon="7.0906">
        <ele>2550</ele>
        <time>2022-07-13T09:37:02Z</time>
      </trkpt>
      <trkpt lat="44.6353" lon="7.09063">
        <ele>2552</ele>
        <time>2022-07-13T09:37:09Z</time>
      </trkpt>
      <trkpt lat="44.6353" lon="7.09069">
        <ele>2552</ele>
        <time>2022-07-13T09:37:19Z</time>
      </trkpt>
      <trkpt lat="44.63535" lon="7.09076">
        <ele>2554</ele>
        <time>2022-07-13T09:37:33Z</time>
      </trkpt>
      <trkpt lat="44.63536" lon="7.09081">
        <ele>2555</ele>
        <time>2022-07-13T09:37:39Z</time>
      </trkpt>
      <trkpt lat="44.63536" lon="7.09086">
        <ele>2556</ele>
        <time>2022-07-13T09:37:46Z</time>
      </trkpt>
      <trkpt lat="44.63535" lon="7.09091">
        <ele>2557</ele>
        <time>2022-07-13T09:37:51Z</time>
      </trkpt>
      <trkpt lat="44.63534" lon="7.09101">
        <ele>2558</ele>
        <time>2022-07-13T09:38:02Z</time>
      </trkpt>
      <trkpt lat="44.63539" lon="7.09116">
        <ele>2559</ele>
        <time>2022-07-13T09:38:19Z</time>
      </trkpt>
      <trkpt lat="44.63542" lon="7.0912">
        <ele>2560</ele>
        <time>2022-07-13T09:38:25Z</time>
      </trkpt>
      <trkpt lat="44.6354" lon="7.09125">
        <ele>2561</ele>
        <time>2022-07-13T09:38:31Z</time>
      </trkpt>
      <trkpt lat="44.63541" lon="7.09135">
        <ele>2562</ele>
        <time>2022-07-13T09:38:43Z</time>
      </trkpt>
      <trkpt lat="44.63541" lon="7.09141">
        <ele>2563</ele>
        <time>2022-07-13T09:38:51Z</time>
      </trkpt>
      <trkpt lat="44.63539" lon="7.09145">
        <ele>2565</ele>
        <time>2022-07-13T09:38:57Z</time>
      </trkpt>
      <trkpt lat="44.6354" lon="7.09151">
        <ele>2565</ele>
        <time>2022-07-13T09:39:04Z</time>
      </trkpt>
      <trkpt lat="44.63541" lon="7.09156">
        <ele>2566</ele>
        <time>2022-07-13T09:39:10Z</time>
      </trkpt>
      <trkpt lat="44.6355" lon="7.09166">
        <ele>2568</ele>
        <time>2022-07-13T09:39:31Z</time>
      </trkpt>
      <trkpt lat="44.63556" lon="7.09172">
        <ele>2571</ele>
        <time>2022-07-13T09:39:44Z</time>
      </trkpt>
      <trkpt lat="44.63559" lon="7.09176">
        <ele>2572</ele>
        <time>2022-07-13T09:39:52Z</time>
      </trkpt>
      <trkpt lat="44.63559" lon="7.09181">
        <ele>2573</ele>
        <time>2022-07-13T09:39:58Z</time>
      </trkpt>
      <trkpt lat="44.63565" lon="7.09186">
        <ele>2575</ele>
        <time>2022-07-13T09:40:15Z</time>
      </trkpt>
      <trkpt lat="44.63567" lon="7.0919">
        <ele>2576</ele>
        <time>2022-07-13T09:40:22Z</time>
      </trkpt>
      <trkpt lat="44.63566" lon="7.09195">
        <ele>2577</ele>
        <time>2022-07-13T09:40:28Z</time>
      </trkpt>
      <trkpt lat="44.63563" lon="7.09198">
        <ele>2578</ele>
        <time>2022-07-13T09:40:33Z</time>
      </trkpt>
      <trkpt lat="44.63564" lon="7.09203">
        <ele>2579</ele>
        <time>2022-07-13T09:40:42Z</time>
      </trkpt>
      <trkpt lat="44.63563" lon="7.09208">
        <ele>2582</ele>
        <time>2022-07-13T09:40:53Z</time>
      </trkpt>
      <trkpt lat="44.6356" lon="7.09211">
        <ele>2583</ele>
        <time>2022-07-13T09:40:59Z</time>
      </trkpt>
      <trkpt lat="44.63559" lon="7.09216">
        <ele>2583</ele>
        <time>2022-07-13T09:41:06Z</time>
      </trkpt>
      <trkpt lat="44.63563" lon="7.09215">
        <ele>2584</ele>
        <time>2022-07-13T09:41:18Z</time>
      </trkpt>
      <trkpt lat="44.63565" lon="7.09219">
        <ele>2585</ele>
        <time>2022-07-13T09:41:26Z</time>
      </trkpt>
      <trkpt lat="44.63563" lon="7.09224">
        <ele>2588</ele>
        <time>2022-07-13T09:41:33Z</time>
      </trkpt>
      <trkpt lat="44.63563" lon="7.09229">
        <ele>2588</ele>
        <time>2022-07-13T09:41:41Z</time>
      </trkpt>
      <trkpt lat="44.63565" lon="7.09234">
        <ele>2588</ele>
        <time>2022-07-13T09:41:47Z</time>
      </trkpt>
      <trkpt lat="44.63565" lon="7.09239">
        <ele>2588</ele>
        <time>2022-07-13T09:41:54Z</time>
      </trkpt>
      <trkpt lat="44.63568" lon="7.09243">
        <ele>2589</ele>
        <time>2022-07-13T09:42:01Z</time>
      </trkpt>
      <trkpt lat="44.63569" lon="7.09247">
        <ele>2590</ele>
        <time>2022-07-13T09:42:09Z</time>
      </trkpt>
      <trkpt lat="44.63572" lon="7.09252">
        <ele>2591</ele>
        <time>2022-07-13T09:42:15Z</time>
      </trkpt>
      <trkpt lat="44.63571" lon="7.09257">
        <ele>2592</ele>
        <time>2022-07-13T09:42:21Z</time>
      </trkpt>
      <trkpt lat="44.63573" lon="7.09267">
        <ele>2590</ele>
        <time>2022-07-13T09:42:31Z</time>
      </trkpt>
      <trkpt lat="44.63572" lon="7.09277">
        <ele>2588</ele>
        <time>2022-07-13T09:42:41Z</time>
      </trkpt>
      <trkpt lat="44.6357" lon="7.09282">
        <ele>2587</ele>
        <time>2022-07-13T09:42:47Z</time>
      </trkpt>
      <trkpt lat="44.6357" lon="7.09287">
        <ele>2587</ele>
        <time>2022-07-13T09:42:52Z</time>
      </trkpt>
      <trkpt lat="44.63568" lon="7.09297">
        <ele>2586</ele>
        <time>2022-07-13T09:43:03Z</time>
      </trkpt>
      <trkpt lat="44.6357" lon="7.09302">
        <ele>2587</ele>
        <time>2022-07-13T09:43:10Z</time>
      </trkpt>
      <trkpt lat="44.6357" lon="7.09307">
        <ele>2589</ele>
        <time>2022-07-13T09:43:16Z</time>
      </trkpt>
      <trkpt lat="44.63568" lon="7.09312">
        <ele>2590</ele>
        <time>2022-07-13T09:43:22Z</time>
      </trkpt>
      <trkpt lat="44.63565" lon="7.09315">
        <ele>2590</ele>
        <time>2022-07-13T09:43:26Z</time>
      </trkpt>
      <trkpt lat="44.63564" lon="7.09319">
        <ele>2589</ele>
        <time>2022-07-13T09:43:31Z</time>
      </trkpt>
      <trkpt lat="44.63564" lon="7.09325">
        <ele>2590</ele>
        <time>2022-07-13T09:43:38Z</time>
      </trkpt>
      <trkpt lat="44.63566" lon="7.0933">
        <ele>2591</ele>
        <time>2022-07-13T09:43:44Z</time>
      </trkpt>
      <trkpt lat="44.63568" lon="7.09334">
        <ele>2593</ele>
        <time>2022-07-13T09:43:50Z</time>
      </trkpt>
      <trkpt lat="44.63569" lon="7.09339">
        <ele>2594</ele>
        <time>2022-07-13T09:43:56Z</time>
      </trkpt>
      <trkpt lat="44.63572" lon="7.09342">
        <ele>2596</ele>
        <time>2022-07-13T09:44:05Z</time>
      </trkpt>
      <trkpt lat="44.63575" lon="7.09341">
        <ele>2597</ele>
        <time>2022-07-13T09:44:14Z</time>
      </trkpt>
      <trkpt lat="44.63579" lon="7.09342">
        <ele>2599</ele>
        <time>2022-07-13T09:44:24Z</time>
      </trkpt>
      <trkpt lat="44.63583" lon="7.09342">
        <ele>2600</ele>
        <time>2022-07-13T09:44:34Z</time>
      </trkpt>
      <trkpt lat="44.63586" lon="7.0934">
        <ele>2602</ele>
        <time>2022-07-13T09:44:44Z</time>
      </trkpt>
      <trkpt lat="44.6359" lon="7.09342">
        <ele>2603</ele>
        <time>2022-07-13T09:44:50Z</time>
      </trkpt>
      <trkpt lat="44.63593" lon="7.0934">
        <ele>2605</ele>
        <time>2022-07-13T09:44:57Z</time>
      </trkpt>
      <trkpt lat="44.63594" lon="7.09345">
        <ele>2605</ele>
        <time>2022-07-13T09:45:02Z</time>
      </trkpt>
      <trkpt lat="44.63595" lon="7.09349">
        <ele>2605</ele>
        <time>2022-07-13T09:45:08Z</time>
      </trkpt>
      <trkpt lat="44.63598" lon="7.09353">
        <ele>2606</ele>
        <time>2022-07-13T09:45:15Z</time>
      </trkpt>
      <trkpt lat="44.636" lon="7.09358">
        <ele>2606</ele>
        <time>2022-07-13T09:45:23Z</time>
      </trkpt>
      <trkpt lat="44.63603" lon="7.09362">
        <ele>2607</ele>
        <time>2022-07-13T09:45:31Z</time>
      </trkpt>
      <trkpt lat="44.63603" lon="7.09361">
        <ele>2609</ele>
        <time>2022-07-13T09:45:57Z</time>
      </trkpt>
      <trkpt lat="44.63603" lon="7.09356">
        <ele>2610</ele>
        <time>2022-07-13T09:46:07Z</time>
      </trkpt>
      <trkpt lat="44.63607" lon="7.09356">
        <ele>2614</ele>
        <time>2022-07-13T09:46:16Z</time>
      </trkpt>
      <trkpt lat="44.63609" lon="7.0936">
        <ele>2614</ele>
        <time>2022-07-13T09:46:20Z</time>
      </trkpt>
      <trkpt lat="44.63614" lon="7.09373">
        <ele>2615</ele>
        <time>2022-07-13T09:46:39Z</time>
      </trkpt>
      <trkpt lat="44.63616" lon="7.09369">
        <ele>2616</ele>
        <time>2022-07-13T09:46:52Z</time>
      </trkpt>
      <trkpt lat="44.63616" lon="7.09364">
        <ele>2616</ele>
        <time>2022-07-13T09:46:58Z</time>
      </trkpt>
      <trkpt lat="44.63619" lon="7.09363">
        <ele>2621</ele>
        <time>2022-07-13T09:47:13Z</time>
      </trkpt>
      <trkpt lat="44.63621" lon="7.09368">
        <ele>2621</ele>
        <time>2022-07-13T09:47:19Z</time>
      </trkpt>
      <trkpt lat="44.63625" lon="7.09376">
        <ele>2623</ele>
        <time>2022-07-13T09:47:33Z</time>
      </trkpt>
      <trkpt lat="44.63628" lon="7.0938">
        <ele>2624</ele>
        <time>2022-07-13T09:47:40Z</time>
      </trkpt>
      <trkpt lat="44.6363" lon="7.09379">
        <ele>2629</ele>
        <time>2022-07-13T09:48:16Z</time>
      </trkpt>
      <trkpt lat="44.63634" lon="7.09379">
        <ele>2630</ele>
        <time>2022-07-13T09:48:25Z</time>
      </trkpt>
      <trkpt lat="44.63637" lon="7.09381">
        <ele>2635</ele>
        <time>2022-07-13T09:48:32Z</time>
      </trkpt>
      <trkpt lat="44.63641" lon="7.09383">
        <ele>2636</ele>
        <time>2022-07-13T09:48:40Z</time>
      </trkpt>
      <trkpt lat="44.63643" lon="7.09387">
        <ele>2638</ele>
        <time>2022-07-13T09:48:46Z</time>
      </trkpt>
      <trkpt lat="44.63644" lon="7.09392">
        <ele>2639</ele>
        <time>2022-07-13T09:48:53Z</time>
      </trkpt>
      <trkpt lat="44.63646" lon="7.09402">
        <ele>2641</ele>
        <time>2022-07-13T09:49:10Z</time>
      </trkpt>
      <trkpt lat="44.63649" lon="7.09401">
        <ele>2640</ele>
        <time>2022-07-13T09:49:29Z</time>
      </trkpt>
      <trkpt lat="44.63652" lon="7.09404">
        <ele>2641</ele>
        <time>2022-07-13T09:49:37Z</time>
      </trkpt>
      <trkpt lat="44.63654" lon="7.09407">
        <ele>2643</ele>
        <time>2022-07-13T09:49:50Z</time>
      </trkpt>
      <trkpt lat="44.63655" lon="7.09412">
        <ele>2644</ele>
        <time>2022-07-13T09:49:59Z</time>
      </trkpt>
      <trkpt lat="44.63657" lon="7.09417">
        <ele>2647</ele>
        <time>2022-07-13T09:50:10Z</time>
      </trkpt>
      <trkpt lat="44.63659" lon="7.09421">
        <ele>2648</ele>
        <time>2022-07-13T09:50:22Z</time>
      </trkpt>
      <trkpt lat="44.63661" lon="7.09425">
        <ele>2651</ele>
        <time>2022-07-13T09:50:31Z</time>
      </trkpt>
      <trkpt lat="44.63665" lon="7.09427">
        <ele>2652</ele>
        <time>2022-07-13T09:50:50Z</time>
      </trkpt>
      <trkpt lat="44.63668" lon="7.09426">
        <ele>2653</ele>
        <time>2022-07-13T09:51:00Z</time>
      </trkpt>
      <trkpt lat="44.63669" lon="7.09431">
        <ele>2653</ele>
        <time>2022-07-13T09:51:07Z</time>
      </trkpt>
      <trkpt lat="44.63671" lon="7.09436">
        <ele>2652</ele>
        <time>2022-07-13T09:51:17Z</time>
      </trkpt>
      <trkpt lat="44.63667" lon="7.09445">
        <ele>2655</ele>
        <time>2022-07-13T09:51:27Z</time>
      </trkpt>
      <trkpt lat="44.63656" lon="7.09447">
        <ele>2656</ele>
        <time>2022-07-13T09:51:42Z</time>
      </trkpt>
      <trkpt lat="44.63654" lon="7.09451">
        <ele>2657</ele>
        <time>2022-07-13T09:51:46Z</time>
      </trkpt>
      <trkpt lat="44.63657" lon="7.09453">
        <ele>2657</ele>
        <time>2022-07-13T09:52:01Z</time>
      </trkpt>
      <trkpt lat="44.63657" lon="7.09458">
        <ele>2658</ele>
        <time>2022-07-13T09:52:10Z</time>
      </trkpt>
      <trkpt lat="44.63655" lon="7.09462">
        <ele>2660</ele>
        <time>2022-07-13T09:52:17Z</time>
      </trkpt>
      <trkpt lat="44.63659" lon="7.09463">
        <ele>2660</ele>
        <time>2022-07-13T09:52:25Z</time>
      </trkpt>
      <trkpt lat="44.63662" lon="7.09462">
        <ele>2661</ele>
        <time>2022-07-13T09:52:31Z</time>
      </trkpt>
      <trkpt lat="44.63673" lon="7.09468">
        <ele>2666</ele>
        <time>2022-07-13T09:53:02Z</time>
      </trkpt>
      <trkpt lat="44.63687" lon="7.09475">
        <ele>2673</ele>
        <time>2022-07-13T09:53:30Z</time>
      </trkpt>
      <trkpt lat="44.63688" lon="7.0948">
        <ele>2673</ele>
        <time>2022-07-13T09:53:35Z</time>
      </trkpt>
      <trkpt lat="44.63691" lon="7.09483">
        <ele>2673</ele>
        <time>2022-07-13T09:53:45Z</time>
      </trkpt>
      <trkpt lat="44.63694" lon="7.0948">
        <ele>2674</ele>
        <time>2022-07-13T09:53:58Z</time>
      </trkpt>
      <trkpt lat="44.63697" lon="7.09478">
        <ele>2675</ele>
        <time>2022-07-13T09:54:11Z</time>
      </trkpt>
      <trkpt lat="44.63701" lon="7.09478">
        <ele>2676</ele>
        <time>2022-07-13T09:54:24Z</time>
      </trkpt>
      <trkpt lat="44.63704" lon="7.0948">
        <ele>2676</ele>
        <time>2022-07-13T09:54:29Z</time>
      </trkpt>
      <trkpt lat="44.63707" lon="7.09476">
        <ele>2676</ele>
        <time>2022-07-13T09:54:39Z</time>
      </trkpt>
      <trkpt lat="44.63706" lon="7.09471">
        <ele>2676</ele>
        <time>2022-07-13T09:54:48Z</time>
      </trkpt>
      <trkpt lat="44.63713" lon="7.09469">
        <ele>2677</ele>
        <time>2022-07-13T09:55:09Z</time>
      </trkpt>
      <trkpt lat="44.63715" lon="7.09473">
        <ele>2679</ele>
        <time>2022-07-13T09:55:15Z</time>
      </trkpt>
      <trkpt lat="44.63722" lon="7.09477">
        <ele>2679</ele>
        <time>2022-07-13T09:55:30Z</time>
      </trkpt>
      <trkpt lat="44.63726" lon="7.09479">
        <ele>2680</ele>
        <time>2022-07-13T09:55:37Z</time>
      </trkpt>
      <trkpt lat="44.63732" lon="7.09486">
        <ele>2683</ele>
        <time>2022-07-13T09:55:51Z</time>
      </trkpt>
      <trkpt lat="44.63735" lon="7.0949">
        <ele>2683</ele>
        <time>2022-07-13T09:55:57Z</time>
      </trkpt>
      <trkpt lat="44.63737" lon="7.09494">
        <ele>2684</ele>
        <time>2022-07-13T09:56:07Z</time>
      </trkpt>
      <trkpt lat="44.63739" lon="7.09498">
        <ele>2684</ele>
        <time>2022-07-13T09:56:13Z</time>
      </trkpt>
      <trkpt lat="44.63747" lon="7.0951">
        <ele>2685</ele>
        <time>2022-07-13T09:56:33Z</time>
      </trkpt>
      <trkpt lat="44.63749" lon="7.09514">
        <ele>2686</ele>
        <time>2022-07-13T09:56:40Z</time>
      </trkpt>
      <trkpt lat="44.63751" lon="7.09519">
        <ele>2687</ele>
        <time>2022-07-13T09:56:46Z</time>
      </trkpt>
      <trkpt lat="44.63752" lon="7.09523">
        <ele>2688</ele>
        <time>2022-07-13T09:56:55Z</time>
      </trkpt>
      <trkpt lat="44.63756" lon="7.09522">
        <ele>2690</ele>
        <time>2022-07-13T09:57:10Z</time>
      </trkpt>
      <trkpt lat="44.63759" lon="7.09525">
        <ele>2690</ele>
        <time>2022-07-13T09:57:15Z</time>
      </trkpt>
      <trkpt lat="44.63765" lon="7.0953">
        <ele>2693</ele>
        <time>2022-07-13T09:57:30Z</time>
      </trkpt>
      <trkpt lat="44.63768" lon="7.09534">
        <ele>2695</ele>
        <time>2022-07-13T09:57:35Z</time>
      </trkpt>
      <trkpt lat="44.63771" lon="7.09537">
        <ele>2695</ele>
        <time>2022-07-13T09:57:41Z</time>
      </trkpt>
      <trkpt lat="44.63774" lon="7.09541">
        <ele>2694</ele>
        <time>2022-07-13T09:57:46Z</time>
      </trkpt>
      <trkpt lat="44.63775" lon="7.09546">
        <ele>2694</ele>
        <time>2022-07-13T09:57:52Z</time>
      </trkpt>
      <trkpt lat="44.63778" lon="7.09546">
        <ele>2695</ele>
        <time>2022-07-13T09:58:01Z</time>
      </trkpt>
      <trkpt lat="44.63782" lon="7.09547">
        <ele>2696</ele>
        <time>2022-07-13T09:58:10Z</time>
      </trkpt>
      <trkpt lat="44.63785" lon="7.09549">
        <ele>2699</ele>
        <time>2022-07-13T09:58:18Z</time>
      </trkpt>
      <trkpt lat="44.63789" lon="7.09551">
        <ele>2699</ele>
        <time>2022-07-13T09:58:25Z</time>
      </trkpt>
      <trkpt lat="44.63792" lon="7.09552">
        <ele>2701</ele>
        <time>2022-07-13T09:58:34Z</time>
      </trkpt>
      <trkpt lat="44.63796" lon="7.09554">
        <ele>2701</ele>
        <time>2022-07-13T09:59:08Z</time>
      </trkpt>
      <trkpt lat="44.63798" lon="7.0955">
        <ele>2703</ele>
        <time>2022-07-13T09:59:20Z</time>
      </trkpt>
      <trkpt lat="44.63798" lon="7.09546">
        <ele>2704</ele>
        <time>2022-07-13T09:59:42Z</time>
      </trkpt>
      <trkpt lat="44.63799" lon="7.0954">
        <ele>2709</ele>
        <time>2022-07-13T09:59:58Z</time>
      </trkpt>
      <trkpt lat="44.63802" lon="7.09538">
        <ele>2709</ele>
        <time>2022-07-13T10:00:08Z</time>
      </trkpt>
      <trkpt lat="44.63801" lon="7.09533">
        <ele>2712</ele>
        <time>2022-07-13T10:00:21Z</time>
      </trkpt>
      <trkpt lat="44.63803" lon="7.09529">
        <ele>2715</ele>
        <time>2022-07-13T10:00:35Z</time>
      </trkpt>
      <trkpt lat="44.63801" lon="7.09525">
        <ele>2716</ele>
        <time>2022-07-13T10:00:53Z</time>
      </trkpt>
      <trkpt lat="44.63807" lon="7.09518">
        <ele>2724</ele>
        <time>2022-07-13T10:01:22Z</time>
      </trkpt>
      <trkpt lat="44.63811" lon="7.09516">
        <ele>2724</ele>
        <time>2022-07-13T10:01:30Z</time>
      </trkpt>
      <trkpt lat="44.63809" lon="7.09512">
        <ele>2725</ele>
        <time>2022-07-13T10:01:39Z</time>
      </trkpt>
      <trkpt lat="44.63807" lon="7.09508">
        <ele>2728</ele>
        <time>2022-07-13T10:01:47Z</time>
      </trkpt>
      <trkpt lat="44.63804" lon="7.09505">
        <ele>2728</ele>
        <time>2022-07-13T10:01:53Z</time>
      </trkpt>
      <trkpt lat="44.63801" lon="7.09505">
        <ele>2730</ele>
        <time>2022-07-13T10:02:02Z</time>
      </trkpt>
      <trkpt lat="44.63798" lon="7.09503">
        <ele>2732</ele>
        <time>2022-07-13T10:02:07Z</time>
      </trkpt>
      <trkpt lat="44.63796" lon="7.09498">
        <ele>2732</ele>
        <time>2022-07-13T10:02:12Z</time>
      </trkpt>
      <trkpt lat="44.63802" lon="7.0949">
        <ele>2733</ele>
        <time>2022-07-13T10:02:26Z</time>
      </trkpt>
      <trkpt lat="44.63804" lon="7.09486">
        <ele>2733</ele>
        <time>2022-07-13T10:02:33Z</time>
      </trkpt>
      <trkpt lat="44.63802" lon="7.09483">
        <ele>2733</ele>
        <time>2022-07-13T10:02:44Z</time>
      </trkpt>
      <trkpt lat="44.63798" lon="7.09481">
        <ele>2735</ele>
        <time>2022-07-13T10:02:53Z</time>
      </trkpt>
      <trkpt lat="44.63797" lon="7.09477">
        <ele>2736</ele>
        <time>2022-07-13T10:03:00Z</time>
      </trkpt>
      <trkpt lat="44.63797" lon="7.09471">
        <ele>2737</ele>
        <time>2022-07-13T10:03:08Z</time>
      </trkpt>
      <trkpt lat="44.63794" lon="7.09467">
        <ele>2738</ele>
        <time>2022-07-13T10:03:15Z</time>
      </trkpt>
      <trkpt lat="44.63793" lon="7.09463">
        <ele>2740</ele>
        <time>2022-07-13T10:03:22Z</time>
      </trkpt>
      <trkpt lat="44.63791" lon="7.09458">
        <ele>2740</ele>
        <time>2022-07-13T10:03:29Z</time>
      </trkpt>
      <trkpt lat="44.63788" lon="7.09454">
        <ele>2740</ele>
        <time>2022-07-13T10:03:35Z</time>
      </trkpt>
      <trkpt lat="44.63786" lon="7.0945">
        <ele>2740</ele>
        <time>2022-07-13T10:03:42Z</time>
      </trkpt>
      <trkpt lat="44.63781" lon="7.09442">
        <ele>2742</ele>
        <time>2022-07-13T10:03:56Z</time>
      </trkpt>
      <trkpt lat="44.63779" lon="7.09438">
        <ele>2743</ele>
        <time>2022-07-13T10:04:01Z</time>
      </trkpt>
      <trkpt lat="44.6378" lon="7.09433">
        <ele>2743</ele>
        <time>2022-07-13T10:04:07Z</time>
      </trkpt>
      <trkpt lat="44.63778" lon="7.09428">
        <ele>2742</ele>
        <time>2022-07-13T10:04:13Z</time>
      </trkpt>
      <trkpt lat="44.63779" lon="7.09423">
        <ele>2742</ele>
        <time>2022-07-13T10:04:18Z</time>
      </trkpt>
      <trkpt lat="44.63775" lon="7.09421">
        <ele>2741</ele>
        <time>2022-07-13T10:04:27Z</time>
      </trkpt>
      <trkpt lat="44.63774" lon="7.09409">
        <ele>2741</ele>
        <time>2022-07-13T10:04:53Z</time>
      </trkpt>
      <trkpt lat="44.63777" lon="7.09406">
        <ele>2742</ele>
        <time>2022-07-13T10:04:59Z</time>
      </trkpt>
      <trkpt lat="44.63779" lon="7.09402">
        <ele>2743</ele>
        <time>2022-07-13T10:05:04Z</time>
      </trkpt>
      <trkpt lat="44.6378" lon="7.09396">
        <ele>2743</ele>
        <time>2022-07-13T10:05:09Z</time>
      </trkpt>
      <trkpt lat="44.6378" lon="7.09391">
        <ele>2744</ele>
        <time>2022-07-13T10:05:17Z</time>
      </trkpt>
      <trkpt lat="44.63779" lon="7.09387">
        <ele>2746</ele>
        <time>2022-07-13T10:05:26Z</time>
      </trkpt>
      <trkpt lat="44.63778" lon="7.09381">
        <ele>2748</ele>
        <time>2022-07-13T10:05:34Z</time>
      </trkpt>
      <trkpt lat="44.63779" lon="7.09376">
        <ele>2750</ele>
        <time>2022-07-13T10:05:40Z</time>
      </trkpt>
      <trkpt lat="44.63779" lon="7.09371">
        <ele>2751</ele>
        <time>2022-07-13T10:05:47Z</time>
      </trkpt>
      <trkpt lat="44.63782" lon="7.09367">
        <ele>2753</ele>
        <time>2022-07-13T10:05:56Z</time>
      </trkpt>
      <trkpt lat="44.63785" lon="7.09365">
        <ele>2753</ele>
        <time>2022-07-13T10:06:07Z</time>
      </trkpt>
      <trkpt lat="44.63782" lon="7.09362">
        <ele>2754</ele>
        <time>2022-07-13T10:06:14Z</time>
      </trkpt>
      <trkpt lat="44.63784" lon="7.09358">
        <ele>2754</ele>
        <time>2022-07-13T10:06:23Z</time>
      </trkpt>
      <trkpt lat="44.63792" lon="7.09357">
        <ele>2758</ele>
        <time>2022-07-13T10:06:43Z</time>
      </trkpt>
      <trkpt lat="44.63796" lon="7.09355">
        <ele>2759</ele>
        <time>2022-07-13T10:06:50Z</time>
      </trkpt>
      <trkpt lat="44.63799" lon="7.09353">
        <ele>2760</ele>
        <time>2022-07-13T10:06:56Z</time>
      </trkpt>
      <trkpt lat="44.63801" lon="7.09349">
        <ele>2761</ele>
        <time>2022-07-13T10:07:04Z</time>
      </trkpt>
      <trkpt lat="44.63801" lon="7.09344">
        <ele>2763</ele>
        <time>2022-07-13T10:07:11Z</time>
      </trkpt>
      <trkpt lat="44.63797" lon="7.0934">
        <ele>2764</ele>
        <time>2022-07-13T10:07:22Z</time>
      </trkpt>
      <trkpt lat="44.63794" lon="7.09338">
        <ele>2765</ele>
        <time>2022-07-13T10:07:27Z</time>
      </trkpt>
      <trkpt lat="44.63792" lon="7.09334">
        <ele>2765</ele>
        <time>2022-07-13T10:07:33Z</time>
      </trkpt>
      <trkpt lat="44.63788" lon="7.09333">
        <ele>2766</ele>
        <time>2022-07-13T10:07:39Z</time>
      </trkpt>
      <trkpt lat="44.63785" lon="7.09335">
        <ele>2766</ele>
        <time>2022-07-13T10:07:47Z</time>
      </trkpt>
      <trkpt lat="44.63783" lon="7.09331">
        <ele>2766</ele>
        <time>2022-07-13T10:07:53Z</time>
      </trkpt>
      <trkpt lat="44.63785" lon="7.0933">
        <ele>2767</ele>
        <time>2022-07-13T10:16:58Z</time>
      </trkpt>
      <trkpt lat="44.63788" lon="7.09331">
        <ele>2767</ele>
        <time>2022-07-13T10:17:31Z</time>
      </trkpt>
      <trkpt lat="44.63791" lon="7.0934">
        <ele>2765</ele>
        <time>2022-07-13T10:17:42Z</time>
      </trkpt>
      <trkpt lat="44.63794" lon="7.09342">
        <ele>2764</ele>
        <time>2022-07-13T10:36:19Z</time>
      </trkpt>
      <trkpt lat="44.63799" lon="7.0935">
        <ele>2760</ele>
        <time>2022-07-13T10:36:31Z</time>
      </trkpt>
      <trkpt lat="44.63801" lon="7.09355">
        <ele>2759</ele>
        <time>2022-07-13T10:36:37Z</time>
      </trkpt>
      <trkpt lat="44.63797" lon="7.09358">
        <ele>2759</ele>
        <time>2022-07-13T10:36:43Z</time>
      </trkpt>
      <trkpt lat="44.63796" lon="7.09363">
        <ele>2758</ele>
        <time>2022-07-13T10:36:51Z</time>
      </trkpt>
      <trkpt lat="44.63795" lon="7.09368">
        <ele>2757</ele>
        <time>2022-07-13T10:37:00Z</time>
      </trkpt>
      <trkpt lat="44.63792" lon="7.0937">
        <ele>2755</ele>
        <time>2022-07-13T10:37:10Z</time>
      </trkpt>
      <trkpt lat="44.63788" lon="7.09369">
        <ele>2755</ele>
        <time>2022-07-13T10:37:14Z</time>
      </trkpt>
      <trkpt lat="44.63785" lon="7.09367">
        <ele>2754</ele>
        <time>2022-07-13T10:37:20Z</time>
      </trkpt>
      <trkpt lat="44.63782" lon="7.09368">
        <ele>2754</ele>
        <time>2022-07-13T10:37:39Z</time>
      </trkpt>
      <trkpt lat="44.6378" lon="7.09374">
        <ele>2751</ele>
        <time>2022-07-13T10:37:49Z</time>
      </trkpt>
      <trkpt lat="44.63779" lon="7.09384">
        <ele>2749</ele>
        <time>2022-07-13T10:38:00Z</time>
      </trkpt>
      <trkpt lat="44.63779" lon="7.09389">
        <ele>2747</ele>
        <time>2022-07-13T10:38:08Z</time>
      </trkpt>
      <trkpt lat="44.6378" lon="7.09394">
        <ele>2746</ele>
        <time>2022-07-13T10:38:17Z</time>
      </trkpt>
      <trkpt lat="44.63778" lon="7.09399">
        <ele>2743</ele>
        <time>2022-07-13T10:38:26Z</time>
      </trkpt>
      <trkpt lat="44.63778" lon="7.09404">
        <ele>2743</ele>
        <time>2022-07-13T10:38:32Z</time>
      </trkpt>
      <trkpt lat="44.63779" lon="7.09408">
        <ele>2742</ele>
        <time>2022-07-13T10:38:38Z</time>
      </trkpt>
      <trkpt lat="44.63781" lon="7.09413">
        <ele>2742</ele>
        <time>2022-07-13T10:38:43Z</time>
      </trkpt>
      <trkpt lat="44.63781" lon="7.09418">
        <ele>2741</ele>
        <time>2022-07-13T10:38:51Z</time>
      </trkpt>
      <trkpt lat="44.63781" lon="7.09423">
        <ele>2741</ele>
        <time>2022-07-13T10:38:59Z</time>
      </trkpt>
      <trkpt lat="44.63778" lon="7.09427">
        <ele>2740</ele>
        <time>2022-07-13T10:39:05Z</time>
      </trkpt>
      <trkpt lat="44.63779" lon="7.09432">
        <ele>2740</ele>
        <time>2022-07-13T10:39:13Z</time>
      </trkpt>
      <trkpt lat="44.63779" lon="7.09437">
        <ele>2739</ele>
        <time>2022-07-13T10:39:19Z</time>
      </trkpt>
      <trkpt lat="44.6378" lon="7.09442">
        <ele>2739</ele>
        <time>2022-07-13T10:39:25Z</time>
      </trkpt>
      <trkpt lat="44.63784" lon="7.09444">
        <ele>2737</ele>
        <time>2022-07-13T10:39:30Z</time>
      </trkpt>
      <trkpt lat="44.63786" lon="7.09449">
        <ele>2736</ele>
        <time>2022-07-13T10:39:36Z</time>
      </trkpt>
      <trkpt lat="44.63789" lon="7.09451">
        <ele>2733</ele>
        <time>2022-07-13T10:39:43Z</time>
      </trkpt>
      <trkpt lat="44.63793" lon="7.09451">
        <ele>2733</ele>
        <time>2022-07-13T10:39:55Z</time>
      </trkpt>
      <trkpt lat="44.63791" lon="7.09456">
        <ele>2733</ele>
        <time>2022-07-13T10:40:00Z</time>
      </trkpt>
      <trkpt lat="44.63792" lon="7.09462">
        <ele>2733</ele>
        <time>2022-07-13T10:40:10Z</time>
      </trkpt>
      <trkpt lat="44.63794" lon="7.09466">
        <ele>2732</ele>
        <time>2022-07-13T10:40:19Z</time>
      </trkpt>
      <trkpt lat="44.63796" lon="7.0947">
        <ele>2731</ele>
        <time>2022-07-13T10:40:27Z</time>
      </trkpt>
      <trkpt lat="44.63796" lon="7.09476">
        <ele>2731</ele>
        <time>2022-07-13T10:40:35Z</time>
      </trkpt>
      <trkpt lat="44.63799" lon="7.09481">
        <ele>2729</ele>
        <time>2022-07-13T10:40:46Z</time>
      </trkpt>
      <trkpt lat="44.63801" lon="7.09485">
        <ele>2728</ele>
        <time>2022-07-13T10:40:54Z</time>
      </trkpt>
      <trkpt lat="44.63804" lon="7.09488">
        <ele>2727</ele>
        <time>2022-07-13T10:41:00Z</time>
      </trkpt>
      <trkpt lat="44.63802" lon="7.09492">
        <ele>2727</ele>
        <time>2022-07-13T10:41:11Z</time>
      </trkpt>
      <trkpt lat="44.63801" lon="7.09497">
        <ele>2726</ele>
        <time>2022-07-13T10:41:21Z</time>
      </trkpt>
      <trkpt lat="44.63806" lon="7.09503">
        <ele>2724</ele>
        <time>2022-07-13T10:41:37Z</time>
      </trkpt>
      <trkpt lat="44.63807" lon="7.09508">
        <ele>2723</ele>
        <time>2022-07-13T10:41:43Z</time>
      </trkpt>
      <trkpt lat="44.63807" lon="7.09513">
        <ele>2722</ele>
        <time>2022-07-13T10:41:56Z</time>
      </trkpt>
      <trkpt lat="44.63809" lon="7.09518">
        <ele>2722</ele>
        <time>2022-07-13T10:42:04Z</time>
      </trkpt>
      <trkpt lat="44.63805" lon="7.09521">
        <ele>2721</ele>
        <time>2022-07-13T10:42:16Z</time>
      </trkpt>
      <trkpt lat="44.63805" lon="7.09525">
        <ele>2719</ele>
        <time>2022-07-13T10:42:35Z</time>
      </trkpt>
      <trkpt lat="44.63805" lon="7.09531">
        <ele>2717</ele>
        <time>2022-07-13T10:42:45Z</time>
      </trkpt>
      <trkpt lat="44.63803" lon="7.09535">
        <ele>2715</ele>
        <time>2022-07-13T10:42:51Z</time>
      </trkpt>
      <trkpt lat="44.63802" lon="7.0954">
        <ele>2711</ele>
        <time>2022-07-13T10:43:03Z</time>
      </trkpt>
      <trkpt lat="44.63799" lon="7.09542">
        <ele>2709</ele>
        <time>2022-07-13T10:43:14Z</time>
      </trkpt>
      <trkpt lat="44.63799" lon="7.09547">
        <ele>2707</ele>
        <time>2022-07-13T10:43:25Z</time>
      </trkpt>
      <trkpt lat="44.63797" lon="7.09551">
        <ele>2705</ele>
        <time>2022-07-13T10:43:36Z</time>
      </trkpt>
      <trkpt lat="44.63797" lon="7.09556">
        <ele>2704</ele>
        <time>2022-07-13T10:43:48Z</time>
      </trkpt>
      <trkpt lat="44.63793" lon="7.09564">
        <ele>2702</ele>
        <time>2022-07-13T10:44:20Z</time>
      </trkpt>
      <trkpt lat="44.63796" lon="7.09569">
        <ele>2701</ele>
        <time>2022-07-13T10:44:27Z</time>
      </trkpt>
      <trkpt lat="44.63796" lon="7.09574">
        <ele>2701</ele>
        <time>2022-07-13T10:44:34Z</time>
      </trkpt>
      <trkpt lat="44.63799" lon="7.09578">
        <ele>2701</ele>
        <time>2022-07-13T10:44:41Z</time>
      </trkpt>
      <trkpt lat="44.63802" lon="7.0958">
        <ele>2702</ele>
        <time>2022-07-13T10:44:49Z</time>
      </trkpt>
      <trkpt lat="44.63805" lon="7.09583">
        <ele>2702</ele>
        <time>2022-07-13T10:44:56Z</time>
      </trkpt>
      <trkpt lat="44.63807" lon="7.09587">
        <ele>2703</ele>
        <time>2022-07-13T10:45:01Z</time>
      </trkpt>
      <trkpt lat="44.63809" lon="7.09592">
        <ele>2703</ele>
        <time>2022-07-13T10:45:07Z</time>
      </trkpt>
      <trkpt lat="44.63809" lon="7.09597">
        <ele>2704</ele>
        <time>2022-07-13T10:45:12Z</time>
      </trkpt>
      <trkpt lat="44.63808" lon="7.09603">
        <ele>2705</ele>
        <time>2022-07-13T10:45:18Z</time>
      </trkpt>
      <trkpt lat="44.6381" lon="7.09612">
        <ele>2705</ele>
        <time>2022-07-13T10:45:30Z</time>
      </trkpt>
      <trkpt lat="44.63807" lon="7.09615">
        <ele>2704</ele>
        <time>2022-07-13T10:45:36Z</time>
      </trkpt>
      <trkpt lat="44.63804" lon="7.09618">
        <ele>2704</ele>
        <time>2022-07-13T10:45:40Z</time>
      </trkpt>
      <trkpt lat="44.63802" lon="7.09622">
        <ele>2703</ele>
        <time>2022-07-13T10:45:44Z</time>
      </trkpt>
      <trkpt lat="44.63798" lon="7.09621">
        <ele>2703</ele>
        <time>2022-07-13T10:45:48Z</time>
      </trkpt>
      <trkpt lat="44.63795" lon="7.09618">
        <ele>2703</ele>
        <time>2022-07-13T10:45:54Z</time>
      </trkpt>
      <trkpt lat="44.63791" lon="7.09616">
        <ele>2703</ele>
        <time>2022-07-13T10:45:59Z</time>
      </trkpt>
      <trkpt lat="44.63793" lon="7.09619">
        <ele>2703</ele>
        <time>2022-07-13T10:46:29Z</time>
      </trkpt>
      <trkpt lat="44.63793" lon="7.09625">
        <ele>2704</ele>
        <time>2022-07-13T10:46:33Z</time>
      </trkpt>
      <trkpt lat="44.63795" lon="7.09629">
        <ele>2705</ele>
        <time>2022-07-13T10:46:37Z</time>
      </trkpt>
      <trkpt lat="44.638" lon="7.09645">
        <ele>2707</ele>
        <time>2022-07-13T10:46:49Z</time>
      </trkpt>
      <trkpt lat="44.63802" lon="7.09649">
        <ele>2708</ele>
        <time>2022-07-13T10:46:54Z</time>
      </trkpt>
      <trkpt lat="44.63802" lon="7.09655">
        <ele>2709</ele>
        <time>2022-07-13T10:46:59Z</time>
      </trkpt>
      <trkpt lat="44.63805" lon="7.09664">
        <ele>2711</ele>
        <time>2022-07-13T10:47:12Z</time>
      </trkpt>
      <trkpt lat="44.63808" lon="7.09665">
        <ele>2712</ele>
        <time>2022-07-13T10:47:17Z</time>
      </trkpt>
      <trkpt lat="44.63811" lon="7.09669">
        <ele>2712</ele>
        <time>2022-07-13T10:47:22Z</time>
      </trkpt>
      <trkpt lat="44.63814" lon="7.09672">
        <ele>2712</ele>
        <time>2022-07-13T10:47:26Z</time>
      </trkpt>
      <trkpt lat="44.63817" lon="7.09675">
        <ele>2712</ele>
        <time>2022-07-13T10:47:30Z</time>
      </trkpt>
      <trkpt lat="44.6382" lon="7.09679">
        <ele>2712</ele>
        <time>2022-07-13T10:47:35Z</time>
      </trkpt>
      <trkpt lat="44.63822" lon="7.09683">
        <ele>2712</ele>
        <time>2022-07-13T10:47:40Z</time>
      </trkpt>
      <trkpt lat="44.6383" lon="7.09695">
        <ele>2712</ele>
        <time>2022-07-13T10:47:55Z</time>
      </trkpt>
      <trkpt lat="44.63832" lon="7.09699">
        <ele>2712</ele>
        <time>2022-07-13T10:48:01Z</time>
      </trkpt>
      <trkpt lat="44.63836" lon="7.09702">
        <ele>2711</ele>
        <time>2022-07-13T10:48:05Z</time>
      </trkpt>
      <trkpt lat="44.63837" lon="7.09707">
        <ele>2711</ele>
        <time>2022-07-13T10:48:12Z</time>
      </trkpt>
      <trkpt lat="44.63852" lon="7.09714">
        <ele>2706</ele>
        <time>2022-07-13T10:48:37Z</time>
      </trkpt>
      <trkpt lat="44.63855" lon="7.09717">
        <ele>2705</ele>
        <time>2022-07-13T10:48:43Z</time>
      </trkpt>
      <trkpt lat="44.63861" lon="7.09725">
        <ele>2704</ele>
        <time>2022-07-13T10:48:53Z</time>
      </trkpt>
      <trkpt lat="44.63863" lon="7.0973">
        <ele>2704</ele>
        <time>2022-07-13T10:48:58Z</time>
      </trkpt>
      <trkpt lat="44.63864" lon="7.09741">
        <ele>2705</ele>
        <time>2022-07-13T10:49:07Z</time>
      </trkpt>
      <trkpt lat="44.63865" lon="7.09746">
        <ele>2706</ele>
        <time>2022-07-13T10:49:11Z</time>
      </trkpt>
      <trkpt lat="44.63866" lon="7.09752">
        <ele>2706</ele>
        <time>2022-07-13T10:49:15Z</time>
      </trkpt>
      <trkpt lat="44.63871" lon="7.0976">
        <ele>2707</ele>
        <time>2022-07-13T10:49:27Z</time>
      </trkpt>
      <trkpt lat="44.63874" lon="7.09764">
        <ele>2707</ele>
        <time>2022-07-13T10:49:32Z</time>
      </trkpt>
      <trkpt lat="44.63877" lon="7.09768">
        <ele>2707</ele>
        <time>2022-07-13T10:49:37Z</time>
      </trkpt>
      <trkpt lat="44.63879" lon="7.09772">
        <ele>2707</ele>
        <time>2022-07-13T10:49:42Z</time>
      </trkpt>
      <trkpt lat="44.63882" lon="7.09776">
        <ele>2707</ele>
        <time>2022-07-13T10:49:47Z</time>
      </trkpt>
      <trkpt lat="44.63884" lon="7.0978">
        <ele>2707</ele>
        <time>2022-07-13T10:49:51Z</time>
      </trkpt>
      <trkpt lat="44.63886" lon="7.09796">
        <ele>2708</ele>
        <time>2022-07-13T10:50:04Z</time>
      </trkpt>
      <trkpt lat="44.63887" lon="7.09802">
        <ele>2709</ele>
        <time>2022-07-13T10:50:09Z</time>
      </trkpt>
      <trkpt lat="44.63889" lon="7.09807">
        <ele>2708</ele>
        <time>2022-07-13T10:50:17Z</time>
      </trkpt>
      <trkpt lat="44.63896" lon="7.09811">
        <ele>2708</ele>
        <time>2022-07-13T10:50:30Z</time>
      </trkpt>
      <trkpt lat="44.639" lon="7.09821">
        <ele>2709</ele>
        <time>2022-07-13T10:50:40Z</time>
      </trkpt>
      <trkpt lat="44.63904" lon="7.0983">
        <ele>2709</ele>
        <time>2022-07-13T10:50:49Z</time>
      </trkpt>
      <trkpt lat="44.63906" lon="7.09834">
        <ele>2710</ele>
        <time>2022-07-13T10:50:54Z</time>
      </trkpt>
      <trkpt lat="44.63913" lon="7.09838">
        <ele>2710</ele>
        <time>2022-07-13T10:51:04Z</time>
      </trkpt>
      <trkpt lat="44.63916" lon="7.09839">
        <ele>2710</ele>
        <time>2022-07-13T10:51:09Z</time>
      </trkpt>
      <trkpt lat="44.6392" lon="7.0984">
        <ele>2711</ele>
        <time>2022-07-13T10:51:14Z</time>
      </trkpt>
      <trkpt lat="44.63923" lon="7.09849">
        <ele>2712</ele>
        <time>2022-07-13T10:51:22Z</time>
      </trkpt>
      <trkpt lat="44.63924" lon="7.09854">
        <ele>2712</ele>
        <time>2022-07-13T10:51:26Z</time>
      </trkpt>
      <trkpt lat="44.63925" lon="7.09859">
        <ele>2713</ele>
        <time>2022-07-13T10:51:31Z</time>
      </trkpt>
      <trkpt lat="44.63928" lon="7.09862">
        <ele>2713</ele>
        <time>2022-07-13T10:51:36Z</time>
      </trkpt>
      <trkpt lat="44.63931" lon="7.09884">
        <ele>2714</ele>
        <time>2022-07-13T10:51:55Z</time>
      </trkpt>
      <trkpt lat="44.6393" lon="7.09896">
        <ele>2715</ele>
        <time>2022-07-13T10:52:05Z</time>
      </trkpt>
      <trkpt lat="44.6393" lon="7.09901">
        <ele>2716</ele>
        <time>2022-07-13T10:52:09Z</time>
      </trkpt>
      <trkpt lat="44.63931" lon="7.09906">
        <ele>2715</ele>
        <time>2022-07-13T10:52:13Z</time>
      </trkpt>
      <trkpt lat="44.63931" lon="7.09911">
        <ele>2716</ele>
        <time>2022-07-13T10:52:18Z</time>
      </trkpt>
      <trkpt lat="44.63934" lon="7.09914">
        <ele>2716</ele>
        <time>2022-07-13T10:52:25Z</time>
      </trkpt>
      <trkpt lat="44.63938" lon="7.09916">
        <ele>2716</ele>
        <time>2022-07-13T10:52:33Z</time>
      </trkpt>
      <trkpt lat="44.63951" lon="7.09937">
        <ele>2720</ele>
        <time>2022-07-13T10:52:57Z</time>
      </trkpt>
      <trkpt lat="44.63954" lon="7.0994">
        <ele>2720</ele>
        <time>2022-07-13T10:53:02Z</time>
      </trkpt>
      <trkpt lat="44.63958" lon="7.09941">
        <ele>2721</ele>
        <time>2022-07-13T10:53:08Z</time>
      </trkpt>
      <trkpt lat="44.63967" lon="7.09951">
        <ele>2722</ele>
        <time>2022-07-13T10:53:22Z</time>
      </trkpt>
      <trkpt lat="44.6397" lon="7.09955">
        <ele>2722</ele>
        <time>2022-07-13T10:53:26Z</time>
      </trkpt>
      <trkpt lat="44.63972" lon="7.09959">
        <ele>2722</ele>
        <time>2022-07-13T10:53:32Z</time>
      </trkpt>
      <trkpt lat="44.63973" lon="7.09965">
        <ele>2722</ele>
        <time>2022-07-13T10:53:37Z</time>
      </trkpt>
      <trkpt lat="44.63974" lon="7.0997">
        <ele>2723</ele>
        <time>2022-07-13T10:53:42Z</time>
      </trkpt>
      <trkpt lat="44.63977" lon="7.09984">
        <ele>2724</ele>
        <time>2022-07-13T10:53:57Z</time>
      </trkpt>
      <trkpt lat="44.63979" lon="7.09989">
        <ele>2725</ele>
        <time>2022-07-13T10:54:02Z</time>
      </trkpt>
      <trkpt lat="44.63981" lon="7.09993">
        <ele>2725</ele>
        <time>2022-07-13T10:54:07Z</time>
      </trkpt>
      <trkpt lat="44.63983" lon="7.09998">
        <ele>2726</ele>
        <time>2022-07-13T10:54:13Z</time>
      </trkpt>
      <trkpt lat="44.63984" lon="7.10003">
        <ele>2726</ele>
        <time>2022-07-13T10:54:18Z</time>
      </trkpt>
      <trkpt lat="44.63994" lon="7.10025">
        <ele>2730</ele>
        <time>2022-07-13T10:54:45Z</time>
      </trkpt>
      <trkpt lat="44.63997" lon="7.10034">
        <ele>2731</ele>
        <time>2022-07-13T10:54:55Z</time>
      </trkpt>
      <trkpt lat="44.63999" lon="7.10039">
        <ele>2732</ele>
        <time>2022-07-13T10:55:00Z</time>
      </trkpt>
      <trkpt lat="44.64003" lon="7.10042">
        <ele>2732</ele>
        <time>2022-07-13T10:55:06Z</time>
      </trkpt>
      <trkpt lat="44.64005" lon="7.10046">
        <ele>2731</ele>
        <time>2022-07-13T10:55:10Z</time>
      </trkpt>
      <trkpt lat="44.64009" lon="7.10055">
        <ele>2731</ele>
        <time>2022-07-13T10:55:22Z</time>
      </trkpt>
      <trkpt lat="44.6401" lon="7.1006">
        <ele>2731</ele>
        <time>2022-07-13T10:55:30Z</time>
      </trkpt>
      <trkpt lat="44.64008" lon="7.10065">
        <ele>2732</ele>
        <time>2022-07-13T10:55:34Z</time>
      </trkpt>
      <trkpt lat="44.64009" lon="7.10071">
        <ele>2732</ele>
        <time>2022-07-13T10:55:42Z</time>
      </trkpt>
      <trkpt lat="44.64008" lon="7.10076">
        <ele>2733</ele>
        <time>2022-07-13T10:55:48Z</time>
      </trkpt>
      <trkpt lat="44.64005" lon="7.10079">
        <ele>2734</ele>
        <time>2022-07-13T10:55:54Z</time>
      </trkpt>
      <trkpt lat="44.64003" lon="7.10083">
        <ele>2734</ele>
        <time>2022-07-13T10:55:59Z</time>
      </trkpt>
      <trkpt lat="44.64002" lon="7.10093">
        <ele>2735</ele>
        <time>2022-07-13T10:56:11Z</time>
      </trkpt>
      <trkpt lat="44.63999" lon="7.10096">
        <ele>2735</ele>
        <time>2022-07-13T10:56:17Z</time>
      </trkpt>
      <trkpt lat="44.63998" lon="7.10107">
        <ele>2736</ele>
        <time>2022-07-13T10:56:28Z</time>
      </trkpt>
      <trkpt lat="44.63998" lon="7.10112">
        <ele>2737</ele>
        <time>2022-07-13T10:56:33Z</time>
      </trkpt>
      <trkpt lat="44.64001" lon="7.10122">
        <ele>2738</ele>
        <time>2022-07-13T10:56:45Z</time>
      </trkpt>
      <trkpt lat="44.64003" lon="7.10139">
        <ele>2741</ele>
        <time>2022-07-13T10:57:05Z</time>
      </trkpt>
      <trkpt lat="44.64002" lon="7.10154">
        <ele>2740</ele>
        <time>2022-07-13T10:57:17Z</time>
      </trkpt>
      <trkpt lat="44.64002" lon="7.10165">
        <ele>2741</ele>
        <time>2022-07-13T10:57:27Z</time>
      </trkpt>
      <trkpt lat="44.64009" lon="7.10171">
        <ele>2741</ele>
        <time>2022-07-13T10:57:38Z</time>
      </trkpt>
      <trkpt lat="44.64015" lon="7.10177">
        <ele>2743</ele>
        <time>2022-07-13T10:57:51Z</time>
      </trkpt>
      <trkpt lat="44.64017" lon="7.10181">
        <ele>2744</ele>
        <time>2022-07-13T10:57:57Z</time>
      </trkpt>
      <trkpt lat="44.6402" lon="7.10185">
        <ele>2745</ele>
        <time>2022-07-13T10:58:03Z</time>
      </trkpt>
      <trkpt lat="44.64024" lon="7.10194">
        <ele>2745</ele>
        <time>2022-07-13T10:58:14Z</time>
      </trkpt>
      <trkpt lat="44.64024" lon="7.102">
        <ele>2746</ele>
        <time>2022-07-13T10:58:20Z</time>
      </trkpt>
      <trkpt lat="44.64025" lon="7.10204">
        <ele>2746</ele>
        <time>2022-07-13T10:58:29Z</time>
      </trkpt>
      <trkpt lat="44.64027" lon="7.10209">
        <ele>2746</ele>
        <time>2022-07-13T10:58:34Z</time>
      </trkpt>
      <trkpt lat="44.64024" lon="7.10213">
        <ele>2745</ele>
        <time>2022-07-13T10:58:40Z</time>
      </trkpt>
      <trkpt lat="44.64024" lon="7.10219">
        <ele>2746</ele>
        <time>2022-07-13T10:58:46Z</time>
      </trkpt>
      <trkpt lat="44.64027" lon="7.10223">
        <ele>2747</ele>
        <time>2022-07-13T10:58:51Z</time>
      </trkpt>
      <trkpt lat="44.6403" lon="7.10226">
        <ele>2748</ele>
        <time>2022-07-13T10:58:57Z</time>
      </trkpt>
      <trkpt lat="44.64033" lon="7.10229">
        <ele>2748</ele>
        <time>2022-07-13T10:59:02Z</time>
      </trkpt>
      <trkpt lat="44.64034" lon="7.10234">
        <ele>2749</ele>
        <time>2022-07-13T10:59:07Z</time>
      </trkpt>
      <trkpt lat="44.64035" lon="7.10239">
        <ele>2749</ele>
        <time>2022-07-13T10:59:12Z</time>
      </trkpt>
      <trkpt lat="44.64035" lon="7.10245">
        <ele>2749</ele>
        <time>2022-07-13T10:59:17Z</time>
      </trkpt>
      <trkpt lat="44.64037" lon="7.1025">
        <ele>2749</ele>
        <time>2022-07-13T10:59:21Z</time>
      </trkpt>
      <trkpt lat="44.64039" lon="7.10267">
        <ele>2750</ele>
        <time>2022-07-13T10:59:32Z</time>
      </trkpt>
      <trkpt lat="44.64038" lon="7.10272">
        <ele>2749</ele>
        <time>2022-07-13T10:59:38Z</time>
      </trkpt>
      <trkpt lat="44.64034" lon="7.10276">
        <ele>2748</ele>
        <time>2022-07-13T10:59:43Z</time>
      </trkpt>
      <trkpt lat="44.64031" lon="7.10279">
        <ele>2747</ele>
        <time>2022-07-13T10:59:48Z</time>
      </trkpt>
      <trkpt lat="44.6403" lon="7.10288">
        <ele>2748</ele>
        <time>2022-07-13T11:00:00Z</time>
      </trkpt>
      <trkpt lat="44.6403" lon="7.10293">
        <ele>2749</ele>
        <time>2022-07-13T11:00:05Z</time>
      </trkpt>
      <trkpt lat="44.6403" lon="7.10298">
        <ele>2751</ele>
        <time>2022-07-13T11:00:10Z</time>
      </trkpt>
      <trkpt lat="44.6403" lon="7.10303">
        <ele>2751</ele>
        <time>2022-07-13T11:00:16Z</time>
      </trkpt>
      <trkpt lat="44.64032" lon="7.10308">
        <ele>2753</ele>
        <time>2022-07-13T11:00:22Z</time>
      </trkpt>
      <trkpt lat="44.64034" lon="7.10328">
        <ele>2754</ele>
        <time>2022-07-13T11:00:42Z</time>
      </trkpt>
      <trkpt lat="44.64034" lon="7.10333">
        <ele>2754</ele>
        <time>2022-07-13T11:00:46Z</time>
      </trkpt>
      <trkpt lat="44.64036" lon="7.10339">
        <ele>2753</ele>
        <time>2022-07-13T11:00:51Z</time>
      </trkpt>
      <trkpt lat="44.64038" lon="7.10343">
        <ele>2753</ele>
        <time>2022-07-13T11:00:55Z</time>
      </trkpt>
      <trkpt lat="44.64044" lon="7.10357">
        <ele>2752</ele>
        <time>2022-07-13T11:01:07Z</time>
      </trkpt>
      <trkpt lat="44.64046" lon="7.10362">
        <ele>2752</ele>
        <time>2022-07-13T11:01:11Z</time>
      </trkpt>
      <trkpt lat="44.64046" lon="7.10367">
        <ele>2753</ele>
        <time>2022-07-13T11:01:15Z</time>
      </trkpt>
      <trkpt lat="44.64047" lon="7.10373">
        <ele>2753</ele>
        <time>2022-07-13T11:01:20Z</time>
      </trkpt>
      <trkpt lat="44.6405" lon="7.10377">
        <ele>2753</ele>
        <time>2022-07-13T11:01:25Z</time>
      </trkpt>
      <trkpt lat="44.64057" lon="7.10402">
        <ele>2751</ele>
        <time>2022-07-13T11:01:48Z</time>
      </trkpt>
      <trkpt lat="44.64057" lon="7.10407">
        <ele>2751</ele>
        <time>2022-07-13T11:01:53Z</time>
      </trkpt>
      <trkpt lat="44.64058" lon="7.10419">
        <ele>2753</ele>
        <time>2022-07-13T11:02:05Z</time>
      </trkpt>
      <trkpt lat="44.64062" lon="7.10422">
        <ele>2752</ele>
        <time>2022-07-13T11:02:10Z</time>
      </trkpt>
      <trkpt lat="44.64068" lon="7.10454">
        <ele>2750</ele>
        <time>2022-07-13T11:02:35Z</time>
      </trkpt>
      <trkpt lat="44.6407" lon="7.10459">
        <ele>2749</ele>
        <time>2022-07-13T11:02:40Z</time>
      </trkpt>
      <trkpt lat="44.64071" lon="7.10465">
        <ele>2749</ele>
        <time>2022-07-13T11:02:45Z</time>
      </trkpt>
      <trkpt lat="44.6407" lon="7.1047">
        <ele>2748</ele>
        <time>2022-07-13T11:02:50Z</time>
      </trkpt>
      <trkpt lat="44.6407" lon="7.10475">
        <ele>2747</ele>
        <time>2022-07-13T11:02:56Z</time>
      </trkpt>
      <trkpt lat="44.64073" lon="7.10478">
        <ele>2748</ele>
        <time>2022-07-13T11:03:02Z</time>
      </trkpt>
      <trkpt lat="44.64074" lon="7.10483">
        <ele>2749</ele>
        <time>2022-07-13T11:03:07Z</time>
      </trkpt>
      <trkpt lat="44.64073" lon="7.10488">
        <ele>2749</ele>
        <time>2022-07-13T11:03:12Z</time>
      </trkpt>
      <trkpt lat="44.64073" lon="7.10494">
        <ele>2750</ele>
        <time>2022-07-13T11:03:18Z</time>
      </trkpt>
      <trkpt lat="44.64072" lon="7.10499">
        <ele>2751</ele>
        <time>2022-07-13T11:03:23Z</time>
      </trkpt>
      <trkpt lat="44.64074" lon="7.10505">
        <ele>2752</ele>
        <time>2022-07-13T11:03:29Z</time>
      </trkpt>
      <trkpt lat="44.64082" lon="7.10522">
        <ele>2752</ele>
        <time>2022-07-13T11:03:46Z</time>
      </trkpt>
      <trkpt lat="44.64088" lon="7.10529">
        <ele>2752</ele>
        <time>2022-07-13T11:03:56Z</time>
      </trkpt>
      <trkpt lat="44.64094" lon="7.10542">
        <ele>2751</ele>
        <time>2022-07-13T11:04:08Z</time>
      </trkpt>
      <trkpt lat="44.64098" lon="7.10551">
        <ele>2751</ele>
        <time>2022-07-13T11:04:16Z</time>
      </trkpt>
      <trkpt lat="44.64098" lon="7.10557">
        <ele>2751</ele>
        <time>2022-07-13T11:04:21Z</time>
      </trkpt>
      <trkpt lat="44.64099" lon="7.10573">
        <ele>2754</ele>
        <time>2022-07-13T11:04:37Z</time>
      </trkpt>
      <trkpt lat="44.64099" lon="7.10583">
        <ele>2754</ele>
        <time>2022-07-13T11:04:48Z</time>
      </trkpt>
      <trkpt lat="44.64102" lon="7.10587">
        <ele>2755</ele>
        <time>2022-07-13T11:04:54Z</time>
      </trkpt>
      <trkpt lat="44.64106" lon="7.10587">
        <ele>2757</ele>
        <time>2022-07-13T11:05:00Z</time>
      </trkpt>
      <trkpt lat="44.64103" lon="7.10597">
        <ele>2758</ele>
        <time>2022-07-13T11:05:13Z</time>
      </trkpt>
      <trkpt lat="44.64106" lon="7.10599">
        <ele>2759</ele>
        <time>2022-07-13T11:05:20Z</time>
      </trkpt>
      <trkpt lat="44.64122" lon="7.10615">
        <ele>2762</ele>
        <time>2022-07-13T11:05:56Z</time>
      </trkpt>
      <trkpt lat="44.64128" lon="7.10621">
        <ele>2763</ele>
        <time>2022-07-13T11:06:07Z</time>
      </trkpt>
      <trkpt lat="44.6413" lon="7.10626">
        <ele>2764</ele>
        <time>2022-07-13T11:06:13Z</time>
      </trkpt>
      <trkpt lat="44.6413" lon="7.10631">
        <ele>2766</ele>
        <time>2022-07-13T11:06:18Z</time>
      </trkpt>
      <trkpt lat="44.64129" lon="7.10636">
        <ele>2768</ele>
        <time>2022-07-13T11:06:31Z</time>
      </trkpt>
      <trkpt lat="44.64135" lon="7.1065">
        <ele>2770</ele>
        <time>2022-07-13T11:06:52Z</time>
      </trkpt>
      <trkpt lat="44.64138" lon="7.10652">
        <ele>2771</ele>
        <time>2022-07-13T11:06:57Z</time>
      </trkpt>
      <trkpt lat="44.64141" lon="7.10654">
        <ele>2772</ele>
        <time>2022-07-13T11:07:59Z</time>
      </trkpt>
      <trkpt lat="44.64143" lon="7.10659">
        <ele>2771</ele>
        <time>2022-07-13T11:08:10Z</time>
      </trkpt>
      <trkpt lat="44.64147" lon="7.1067">
        <ele>2768</ele>
        <time>2022-07-13T11:08:19Z</time>
      </trkpt>
      <trkpt lat="44.64149" lon="7.10674">
        <ele>2767</ele>
        <time>2022-07-13T11:08:23Z</time>
      </trkpt>
      <trkpt lat="44.64153" lon="7.10684">
        <ele>2767</ele>
        <time>2022-07-13T11:08:31Z</time>
      </trkpt>
      <trkpt lat="44.64156" lon="7.10688">
        <ele>2768</ele>
        <time>2022-07-13T11:08:36Z</time>
      </trkpt>
      <trkpt lat="44.64159" lon="7.1069">
        <ele>2768</ele>
        <time>2022-07-13T11:08:40Z</time>
      </trkpt>
      <trkpt lat="44.6416" lon="7.10695">
        <ele>2768</ele>
        <time>2022-07-13T11:08:44Z</time>
      </trkpt>
      <trkpt lat="44.64161" lon="7.10701">
        <ele>2767</ele>
        <time>2022-07-13T11:08:49Z</time>
      </trkpt>
      <trkpt lat="44.64161" lon="7.10707">
        <ele>2767</ele>
        <time>2022-07-13T11:08:53Z</time>
      </trkpt>
      <trkpt lat="44.6416" lon="7.10711">
        <ele>2767</ele>
        <time>2022-07-13T11:08:57Z</time>
      </trkpt>
      <trkpt lat="44.6416" lon="7.10717">
        <ele>2768</ele>
        <time>2022-07-13T11:09:01Z</time>
      </trkpt>
      <trkpt lat="44.64167" lon="7.10723">
        <ele>2768</ele>
        <time>2022-07-13T11:09:11Z</time>
      </trkpt>
      <trkpt lat="44.6417" lon="7.10724">
        <ele>2768</ele>
        <time>2022-07-13T11:09:15Z</time>
      </trkpt>
      <trkpt lat="44.64176" lon="7.10729">
        <ele>2766</ele>
        <time>2022-07-13T11:09:23Z</time>
      </trkpt>
      <trkpt lat="44.6418" lon="7.1074">
        <ele>2765</ele>
        <time>2022-07-13T11:09:33Z</time>
      </trkpt>
      <trkpt lat="44.6418" lon="7.1075">
        <ele>2765</ele>
        <time>2022-07-13T11:09:42Z</time>
      </trkpt>
      <trkpt lat="44.64185" lon="7.10758">
        <ele>2765</ele>
        <time>2022-07-13T11:10:08Z</time>
      </trkpt>
      <trkpt lat="44.64189" lon="7.10767">
        <ele>2765</ele>
        <time>2022-07-13T11:10:22Z</time>
      </trkpt>
      <trkpt lat="44.64189" lon="7.10773">
        <ele>2765</ele>
        <time>2022-07-13T11:10:27Z</time>
      </trkpt>
      <trkpt lat="44.64187" lon="7.10784">
        <ele>2767</ele>
        <time>2022-07-13T11:10:36Z</time>
      </trkpt>
      <trkpt lat="44.64184" lon="7.10785">
        <ele>2766</ele>
        <time>2022-07-13T11:22:53Z</time>
      </trkpt>
      <trkpt lat="44.64184" lon="7.1079">
        <ele>2766</ele>
        <time>2022-07-13T11:24:47Z</time>
      </trkpt>
      <trkpt lat="44.64184" lon="7.10795">
        <ele>2764</ele>
        <time>2022-07-13T11:25:17Z</time>
      </trkpt>
      <trkpt lat="44.64185" lon="7.10811">
        <ele>2763</ele>
        <time>2022-07-13T11:25:27Z</time>
      </trkpt>
      <trkpt lat="44.64184" lon="7.10817">
        <ele>2763</ele>
        <time>2022-07-13T11:25:31Z</time>
      </trkpt>
      <trkpt lat="44.64185" lon="7.10822">
        <ele>2763</ele>
        <time>2022-07-13T11:25:36Z</time>
      </trkpt>
      <trkpt lat="44.64185" lon="7.10828">
        <ele>2762</ele>
        <time>2022-07-13T11:25:40Z</time>
      </trkpt>
      <trkpt lat="44.64188" lon="7.10838">
        <ele>2760</ele>
        <time>2022-07-13T11:25:50Z</time>
      </trkpt>
      <trkpt lat="44.64191" lon="7.10841">
        <ele>2759</ele>
        <time>2022-07-13T11:26:19Z</time>
      </trkpt>
      <trkpt lat="44.64191" lon="7.10847">
        <ele>2758</ele>
        <time>2022-07-13T11:26:23Z</time>
      </trkpt>
      <trkpt lat="44.64191" lon="7.10858">
        <ele>2758</ele>
        <time>2022-07-13T11:26:30Z</time>
      </trkpt>
      <trkpt lat="44.64193" lon="7.10863">
        <ele>2757</ele>
        <time>2022-07-13T11:26:34Z</time>
      </trkpt>
      <trkpt lat="44.64192" lon="7.10867">
        <ele>2757</ele>
        <time>2022-07-13T11:26:38Z</time>
      </trkpt>
      <trkpt lat="44.64192" lon="7.10878">
        <ele>2757</ele>
        <time>2022-07-13T11:26:51Z</time>
      </trkpt>
      <trkpt lat="44.64192" lon="7.10882">
        <ele>2757</ele>
        <time>2022-07-13T11:26:55Z</time>
      </trkpt>
      <trkpt lat="44.64191" lon="7.10887">
        <ele>2758</ele>
        <time>2022-07-13T11:27:00Z</time>
      </trkpt>
      <trkpt lat="44.64183" lon="7.10893">
        <ele>2757</ele>
        <time>2022-07-13T11:27:08Z</time>
      </trkpt>
      <trkpt lat="44.64175" lon="7.10912">
        <ele>2757</ele>
        <time>2022-07-13T11:27:27Z</time>
      </trkpt>
      <trkpt lat="44.64174" lon="7.10917">
        <ele>2756</ele>
        <time>2022-07-13T11:27:32Z</time>
      </trkpt>
      <trkpt lat="44.6417" lon="7.10931">
        <ele>2756</ele>
        <time>2022-07-13T11:27:44Z</time>
      </trkpt>
      <trkpt lat="44.6416" lon="7.1094">
        <ele>2755</ele>
        <time>2022-07-13T11:27:58Z</time>
      </trkpt>
      <trkpt lat="44.64158" lon="7.10944">
        <ele>2755</ele>
        <time>2022-07-13T11:28:03Z</time>
      </trkpt>
      <trkpt lat="44.64158" lon="7.1095">
        <ele>2754</ele>
        <time>2022-07-13T11:28:08Z</time>
      </trkpt>
      <trkpt lat="44.64156" lon="7.10954">
        <ele>2754</ele>
        <time>2022-07-13T11:28:13Z</time>
      </trkpt>
      <trkpt lat="44.64153" lon="7.10956">
        <ele>2754</ele>
        <time>2022-07-13T11:28:18Z</time>
      </trkpt>
      <trkpt lat="44.64151" lon="7.1096">
        <ele>2755</ele>
        <time>2022-07-13T11:28:25Z</time>
      </trkpt>
      <trkpt lat="44.64153" lon="7.10965">
        <ele>2756</ele>
        <time>2022-07-13T11:28:31Z</time>
      </trkpt>
      <trkpt lat="44.64152" lon="7.10982">
        <ele>2757</ele>
        <time>2022-07-13T11:28:46Z</time>
      </trkpt>
      <trkpt lat="44.64148" lon="7.10992">
        <ele>2757</ele>
        <time>2022-07-13T11:28:56Z</time>
      </trkpt>
      <trkpt lat="44.64144" lon="7.11013">
        <ele>2760</ele>
        <time>2022-07-13T11:29:16Z</time>
      </trkpt>
      <trkpt lat="44.64145" lon="7.11018">
        <ele>2760</ele>
        <time>2022-07-13T11:29:20Z</time>
      </trkpt>
      <trkpt lat="44.64143" lon="7.11034">
        <ele>2761</ele>
        <time>2022-07-13T11:29:35Z</time>
      </trkpt>
      <trkpt lat="44.64141" lon="7.11038">
        <ele>2762</ele>
        <time>2022-07-13T11:29:40Z</time>
      </trkpt>
      <trkpt lat="44.64138" lon="7.11041">
        <ele>2761</ele>
        <time>2022-07-13T11:29:45Z</time>
      </trkpt>
      <trkpt lat="44.64137" lon="7.11047">
        <ele>2761</ele>
        <time>2022-07-13T11:29:50Z</time>
      </trkpt>
      <trkpt lat="44.64136" lon="7.11063">
        <ele>2762</ele>
        <time>2022-07-13T11:30:04Z</time>
      </trkpt>
      <trkpt lat="44.64137" lon="7.11068">
        <ele>2761</ele>
        <time>2022-07-13T11:30:09Z</time>
      </trkpt>
      <trkpt lat="44.64141" lon="7.11078">
        <ele>2760</ele>
        <time>2022-07-13T11:30:18Z</time>
      </trkpt>
      <trkpt lat="44.64143" lon="7.11089">
        <ele>2759</ele>
        <time>2022-07-13T11:30:26Z</time>
      </trkpt>
      <trkpt lat="44.64154" lon="7.11118">
        <ele>2757</ele>
        <time>2022-07-13T11:30:54Z</time>
      </trkpt>
      <trkpt lat="44.64157" lon="7.11122">
        <ele>2757</ele>
        <time>2022-07-13T11:30:59Z</time>
      </trkpt>
      <trkpt lat="44.64156" lon="7.11127">
        <ele>2757</ele>
        <time>2022-07-13T11:31:10Z</time>
      </trkpt>
      <trkpt lat="44.64169" lon="7.11147">
        <ele>2751</ele>
        <time>2022-07-13T11:31:43Z</time>
      </trkpt>
      <trkpt lat="44.64178" lon="7.1117">
        <ele>2750</ele>
        <time>2022-07-13T11:32:04Z</time>
      </trkpt>
      <trkpt lat="44.64179" lon="7.11175">
        <ele>2750</ele>
        <time>2022-07-13T11:32:09Z</time>
      </trkpt>
      <trkpt lat="44.64178" lon="7.1118">
        <ele>2751</ele>
        <time>2022-07-13T11:33:31Z</time>
      </trkpt>
      <trkpt lat="44.64182" lon="7.11191">
        <ele>2750</ele>
        <time>2022-07-13T11:33:41Z</time>
      </trkpt>
      <trkpt lat="44.64183" lon="7.11195">
        <ele>2750</ele>
        <time>2022-07-13T11:33:48Z</time>
      </trkpt>
      <trkpt lat="44.64184" lon="7.112">
        <ele>2750</ele>
        <time>2022-07-13T11:33:53Z</time>
      </trkpt>
      <trkpt lat="44.64192" lon="7.11237">
        <ele>2747</ele>
        <time>2022-07-13T11:34:27Z</time>
      </trkpt>
      <trkpt lat="44.64194" lon="7.11248">
        <ele>2747</ele>
        <time>2022-07-13T11:34:36Z</time>
      </trkpt>
      <trkpt lat="44.64194" lon="7.11253">
        <ele>2747</ele>
        <time>2022-07-13T11:34:41Z</time>
      </trkpt>
      <trkpt lat="44.64195" lon="7.11275">
        <ele>2746</ele>
        <time>2022-07-13T11:34:56Z</time>
      </trkpt>
      <trkpt lat="44.64195" lon="7.11287">
        <ele>2745</ele>
        <time>2022-07-13T11:35:04Z</time>
      </trkpt>
      <trkpt lat="44.64195" lon="7.11292">
        <ele>2746</ele>
        <time>2022-07-13T11:35:08Z</time>
      </trkpt>
      <trkpt lat="44.64196" lon="7.11298">
        <ele>2746</ele>
        <time>2022-07-13T11:35:13Z</time>
      </trkpt>
      <trkpt lat="44.64199" lon="7.11324">
        <ele>2747</ele>
        <time>2022-07-13T11:35:44Z</time>
      </trkpt>
      <trkpt lat="44.64199" lon="7.11329">
        <ele>2747</ele>
        <time>2022-07-13T11:35:49Z</time>
      </trkpt>
      <trkpt lat="44.64197" lon="7.11334">
        <ele>2746</ele>
        <time>2022-07-13T11:35:54Z</time>
      </trkpt>
      <trkpt lat="44.64196" lon="7.11339">
        <ele>2745</ele>
        <time>2022-07-13T11:35:59Z</time>
      </trkpt>
      <trkpt lat="44.64194" lon="7.11355">
        <ele>2742</ele>
        <time>2022-07-13T11:36:12Z</time>
      </trkpt>
      <trkpt lat="44.64192" lon="7.11365">
        <ele>2741</ele>
        <time>2022-07-13T11:36:20Z</time>
      </trkpt>
      <trkpt lat="44.64193" lon="7.1137">
        <ele>2741</ele>
        <time>2022-07-13T11:36:24Z</time>
      </trkpt>
      <trkpt lat="44.64193" lon="7.11375">
        <ele>2741</ele>
        <time>2022-07-13T11:36:29Z</time>
      </trkpt>
      <trkpt lat="44.64193" lon="7.1138">
        <ele>2742</ele>
        <time>2022-07-13T11:36:35Z</time>
      </trkpt>
      <trkpt lat="44.64192" lon="7.1139">
        <ele>2743</ele>
        <time>2022-07-13T11:36:46Z</time>
      </trkpt>
      <trkpt lat="44.64191" lon="7.114">
        <ele>2745</ele>
        <time>2022-07-13T11:36:56Z</time>
      </trkpt>
      <trkpt lat="44.6419" lon="7.11405">
        <ele>2745</ele>
        <time>2022-07-13T11:37:02Z</time>
      </trkpt>
      <trkpt lat="44.64191" lon="7.1141">
        <ele>2745</ele>
        <time>2022-07-13T11:37:10Z</time>
      </trkpt>
      <trkpt lat="44.64191" lon="7.1142">
        <ele>2746</ele>
        <time>2022-07-13T11:37:20Z</time>
      </trkpt>
      <trkpt lat="44.6419" lon="7.11424">
        <ele>2746</ele>
        <time>2022-07-13T11:37:25Z</time>
      </trkpt>
      <trkpt lat="44.64189" lon="7.11435">
        <ele>2745</ele>
        <time>2022-07-13T11:37:36Z</time>
      </trkpt>
      <trkpt lat="44.64182" lon="7.11471">
        <ele>2744</ele>
        <time>2022-07-13T11:38:06Z</time>
      </trkpt>
      <trkpt lat="44.64179" lon="7.11498">
        <ele>2742</ele>
        <time>2022-07-13T11:38:26Z</time>
      </trkpt>
      <trkpt lat="44.64179" lon="7.1151">
        <ele>2742</ele>
        <time>2022-07-13T11:38:34Z</time>
      </trkpt>
      <trkpt lat="44.64179" lon="7.11516">
        <ele>2742</ele>
        <time>2022-07-13T11:38:38Z</time>
      </trkpt>
      <trkpt lat="44.64185" lon="7.11541">
        <ele>2743</ele>
        <time>2022-07-13T11:39:00Z</time>
      </trkpt>
      <trkpt lat="44.64191" lon="7.11554">
        <ele>2744</ele>
        <time>2022-07-13T11:39:14Z</time>
      </trkpt>
      <trkpt lat="44.64198" lon="7.11572">
        <ele>2745</ele>
        <time>2022-07-13T11:39:32Z</time>
      </trkpt>
      <trkpt lat="44.64217" lon="7.116">
        <ele>2742</ele>
        <time>2022-07-13T11:40:04Z</time>
      </trkpt>
      <trkpt lat="44.6422" lon="7.11603">
        <ele>2742</ele>
        <time>2022-07-13T11:40:08Z</time>
      </trkpt>
      <trkpt lat="44.64233" lon="7.11628">
        <ele>2740</ele>
        <time>2022-07-13T11:40:33Z</time>
      </trkpt>
      <trkpt lat="44.64235" lon="7.11639">
        <ele>2739</ele>
        <time>2022-07-13T11:40:42Z</time>
      </trkpt>
      <trkpt lat="44.64238" lon="7.11643">
        <ele>2739</ele>
        <time>2022-07-13T11:40:47Z</time>
      </trkpt>
      <trkpt lat="44.64245" lon="7.11648">
        <ele>2739</ele>
        <time>2022-07-13T11:40:58Z</time>
      </trkpt>
      <trkpt lat="44.64249" lon="7.11656">
        <ele>2739</ele>
        <time>2022-07-13T11:41:08Z</time>
      </trkpt>
      <trkpt lat="44.64269" lon="7.11671">
        <ele>2737</ele>
        <time>2022-07-13T11:41:46Z</time>
      </trkpt>
      <trkpt lat="44.64266" lon="7.11674">
        <ele>2734</ele>
        <time>2022-07-13T11:42:32Z</time>
      </trkpt>
      <trkpt lat="44.64266" lon="7.11668">
        <ele>2733</ele>
        <time>2022-07-13T11:43:12Z</time>
      </trkpt>
      <trkpt lat="44.64271" lon="7.11669">
        <ele>2732</ele>
        <time>2022-07-13T11:44:23Z</time>
      </trkpt>
      <trkpt lat="44.64274" lon="7.11673">
        <ele>2730</ele>
        <time>2022-07-13T11:44:29Z</time>
      </trkpt>
      <trkpt lat="44.64275" lon="7.11678">
        <ele>2729</ele>
        <time>2022-07-13T11:44:33Z</time>
      </trkpt>
      <trkpt lat="44.64277" lon="7.11683">
        <ele>2727</ele>
        <time>2022-07-13T11:44:39Z</time>
      </trkpt>
      <trkpt lat="44.6428" lon="7.11681">
        <ele>2727</ele>
        <time>2022-07-13T11:47:19Z</time>
      </trkpt>
      <trkpt lat="44.64287" lon="7.11677">
        <ele>2725</ele>
        <time>2022-07-13T11:47:29Z</time>
      </trkpt>
      <trkpt lat="44.64291" lon="7.11678">
        <ele>2725</ele>
        <time>2022-07-13T11:47:35Z</time>
      </trkpt>
      <trkpt lat="44.64294" lon="7.1168">
        <ele>2723</ele>
        <time>2022-07-13T11:47:41Z</time>
      </trkpt>
      <trkpt lat="44.64298" lon="7.1168">
        <ele>2722</ele>
        <time>2022-07-13T11:47:46Z</time>
      </trkpt>
      <trkpt lat="44.64299" lon="7.11685">
        <ele>2720</ele>
        <time>2022-07-13T11:47:50Z</time>
      </trkpt>
      <trkpt lat="44.64301" lon="7.11689">
        <ele>2720</ele>
        <time>2022-07-13T11:47:55Z</time>
      </trkpt>
      <trkpt lat="44.64305" lon="7.11686">
        <ele>2717</ele>
        <time>2022-07-13T11:48:01Z</time>
      </trkpt>
      <trkpt lat="44.64309" lon="7.11688">
        <ele>2717</ele>
        <time>2022-07-13T11:48:08Z</time>
      </trkpt>
      <trkpt lat="44.64311" lon="7.11693">
        <ele>2715</ele>
        <time>2022-07-13T11:48:13Z</time>
      </trkpt>
      <trkpt lat="44.64315" lon="7.11694">
        <ele>2715</ele>
        <time>2022-07-13T11:48:18Z</time>
      </trkpt>
      <trkpt lat="44.64323" lon="7.11695">
        <ele>2714</ele>
        <time>2022-07-13T11:48:26Z</time>
      </trkpt>
      <trkpt lat="44.64327" lon="7.11693">
        <ele>2713</ele>
        <time>2022-07-13T11:48:31Z</time>
      </trkpt>
      <trkpt lat="44.64328" lon="7.11688">
        <ele>2713</ele>
        <time>2022-07-13T11:48:37Z</time>
      </trkpt>
      <trkpt lat="44.64331" lon="7.11685">
        <ele>2711</ele>
        <time>2022-07-13T11:48:42Z</time>
      </trkpt>
      <trkpt lat="44.64338" lon="7.11683">
        <ele>2712</ele>
        <time>2022-07-13T11:48:50Z</time>
      </trkpt>
      <trkpt lat="44.64345" lon="7.11681">
        <ele>2714</ele>
        <time>2022-07-13T11:48:58Z</time>
      </trkpt>
      <trkpt lat="44.6435" lon="7.1168">
        <ele>2714</ele>
        <time>2022-07-13T11:49:03Z</time>
      </trkpt>
      <trkpt lat="44.64364" lon="7.11683">
        <ele>2713</ele>
        <time>2022-07-13T11:49:19Z</time>
      </trkpt>
      <trkpt lat="44.64368" lon="7.11686">
        <ele>2713</ele>
        <time>2022-07-13T11:49:24Z</time>
      </trkpt>
      <trkpt lat="44.64371" lon="7.11687">
        <ele>2713</ele>
        <time>2022-07-13T11:49:28Z</time>
      </trkpt>
      <trkpt lat="44.64375" lon="7.11686">
        <ele>2712</ele>
        <time>2022-07-13T11:49:33Z</time>
      </trkpt>
      <trkpt lat="44.64379" lon="7.11684">
        <ele>2712</ele>
        <time>2022-07-13T11:49:38Z</time>
      </trkpt>
      <trkpt lat="44.64382" lon="7.1168">
        <ele>2711</ele>
        <time>2022-07-13T11:49:44Z</time>
      </trkpt>
      <trkpt lat="44.64401" lon="7.11684">
        <ele>2708</ele>
        <time>2022-07-13T11:50:12Z</time>
      </trkpt>
      <trkpt lat="44.64404" lon="7.11687">
        <ele>2707</ele>
        <time>2022-07-13T11:50:18Z</time>
      </trkpt>
      <trkpt lat="44.64401" lon="7.11691">
        <ele>2707</ele>
        <time>2022-07-13T11:50:22Z</time>
      </trkpt>
      <trkpt lat="44.64398" lon="7.11693">
        <ele>2706</ele>
        <time>2022-07-13T11:50:26Z</time>
      </trkpt>
      <trkpt lat="44.644" lon="7.11696">
        <ele>2703</ele>
        <time>2022-07-13T11:50:36Z</time>
      </trkpt>
      <trkpt lat="44.64404" lon="7.11699">
        <ele>2702</ele>
        <time>2022-07-13T11:50:41Z</time>
      </trkpt>
      <trkpt lat="44.64407" lon="7.11701">
        <ele>2702</ele>
        <time>2022-07-13T11:50:45Z</time>
      </trkpt>
      <trkpt lat="44.64413" lon="7.11707">
        <ele>2701</ele>
        <time>2022-07-13T11:50:54Z</time>
      </trkpt>
      <trkpt lat="44.64427" lon="7.11718">
        <ele>2697</ele>
        <time>2022-07-13T11:51:13Z</time>
      </trkpt>
      <trkpt lat="44.64431" lon="7.1172">
        <ele>2696</ele>
        <time>2022-07-13T11:51:18Z</time>
      </trkpt>
      <trkpt lat="44.64453" lon="7.11702">
        <ele>2687</ele>
        <time>2022-07-13T11:51:49Z</time>
      </trkpt>
      <trkpt lat="44.64457" lon="7.11698">
        <ele>2686</ele>
        <time>2022-07-13T11:51:54Z</time>
      </trkpt>
      <trkpt lat="44.64461" lon="7.11696">
        <ele>2684</ele>
        <time>2022-07-13T11:51:59Z</time>
      </trkpt>
      <trkpt lat="44.64462" lon="7.11701">
        <ele>2684</ele>
        <time>2022-07-13T11:52:03Z</time>
      </trkpt>
      <trkpt lat="44.64459" lon="7.1171">
        <ele>2682</ele>
        <time>2022-07-13T11:52:11Z</time>
      </trkpt>
      <trkpt lat="44.64463" lon="7.11711">
        <ele>2681</ele>
        <time>2022-07-13T11:52:14Z</time>
      </trkpt>
      <trkpt lat="44.64466" lon="7.11709">
        <ele>2681</ele>
        <time>2022-07-13T11:52:18Z</time>
      </trkpt>
      <trkpt lat="44.64473" lon="7.11705">
        <ele>2679</ele>
        <time>2022-07-13T11:52:26Z</time>
      </trkpt>
      <trkpt lat="44.64476" lon="7.11703">
        <ele>2677</ele>
        <time>2022-07-13T11:52:31Z</time>
      </trkpt>
      <trkpt lat="44.64477" lon="7.11707">
        <ele>2677</ele>
        <time>2022-07-13T11:52:39Z</time>
      </trkpt>
      <trkpt lat="44.64475" lon="7.11711">
        <ele>2676</ele>
        <time>2022-07-13T11:52:42Z</time>
      </trkpt>
      <trkpt lat="44.6447" lon="7.11719">
        <ele>2675</ele>
        <time>2022-07-13T11:52:50Z</time>
      </trkpt>
      <trkpt lat="44.6447" lon="7.11724">
        <ele>2674</ele>
        <time>2022-07-13T11:52:55Z</time>
      </trkpt>
      <trkpt lat="44.64478" lon="7.11723">
        <ele>2672</ele>
        <time>2022-07-13T11:53:04Z</time>
      </trkpt>
      <trkpt lat="44.6448" lon="7.11719">
        <ele>2672</ele>
        <time>2022-07-13T11:53:09Z</time>
      </trkpt>
      <trkpt lat="44.64484" lon="7.11718">
        <ele>2672</ele>
        <time>2022-07-13T11:53:15Z</time>
      </trkpt>
      <trkpt lat="44.64491" lon="7.11714">
        <ele>2670</ele>
        <time>2022-07-13T11:53:26Z</time>
      </trkpt>
      <trkpt lat="44.64495" lon="7.11713">
        <ele>2669</ele>
        <time>2022-07-13T11:53:32Z</time>
      </trkpt>
      <trkpt lat="44.64494" lon="7.11718">
        <ele>2668</ele>
        <time>2022-07-13T11:53:36Z</time>
      </trkpt>
      <trkpt lat="44.64493" lon="7.11724">
        <ele>2667</ele>
        <time>2022-07-13T11:53:40Z</time>
      </trkpt>
      <trkpt lat="44.64497" lon="7.11725">
        <ele>2665</ele>
        <time>2022-07-13T11:53:47Z</time>
      </trkpt>
      <trkpt lat="44.645" lon="7.11722">
        <ele>2663</ele>
        <time>2022-07-13T11:53:52Z</time>
      </trkpt>
      <trkpt lat="44.64504" lon="7.1172">
        <ele>2662</ele>
        <time>2022-07-13T11:53:57Z</time>
      </trkpt>
      <trkpt lat="44.64504" lon="7.11726">
        <ele>2661</ele>
        <time>2022-07-13T11:54:02Z</time>
      </trkpt>
      <trkpt lat="44.64504" lon="7.11732">
        <ele>2659</ele>
        <time>2022-07-13T11:54:07Z</time>
      </trkpt>
      <trkpt lat="44.64505" lon="7.11737">
        <ele>2658</ele>
        <time>2022-07-13T11:54:13Z</time>
      </trkpt>
      <trkpt lat="44.64509" lon="7.11735">
        <ele>2657</ele>
        <time>2022-07-13T11:54:17Z</time>
      </trkpt>
      <trkpt lat="44.64512" lon="7.11734">
        <ele>2655</ele>
        <time>2022-07-13T11:54:21Z</time>
      </trkpt>
      <trkpt lat="44.64515" lon="7.11731">
        <ele>2654</ele>
        <time>2022-07-13T11:54:27Z</time>
      </trkpt>
      <trkpt lat="44.64517" lon="7.11737">
        <ele>2653</ele>
        <time>2022-07-13T11:54:32Z</time>
      </trkpt>
      <trkpt lat="44.64517" lon="7.11742">
        <ele>2652</ele>
        <time>2022-07-13T11:54:36Z</time>
      </trkpt>
      <trkpt lat="44.64515" lon="7.11747">
        <ele>2651</ele>
        <time>2022-07-13T11:54:40Z</time>
      </trkpt>
      <trkpt lat="44.64516" lon="7.11753">
        <ele>2648</ele>
        <time>2022-07-13T11:54:43Z</time>
      </trkpt>
      <trkpt lat="44.6452" lon="7.11751">
        <ele>2647</ele>
        <time>2022-07-13T11:54:47Z</time>
      </trkpt>
      <trkpt lat="44.64524" lon="7.1175">
        <ele>2646</ele>
        <time>2022-07-13T11:54:52Z</time>
      </trkpt>
      <trkpt lat="44.64527" lon="7.1175">
        <ele>2646</ele>
        <time>2022-07-13T11:54:56Z</time>
      </trkpt>
      <trkpt lat="44.64531" lon="7.1175">
        <ele>2647</ele>
        <time>2022-07-13T11:55:00Z</time>
      </trkpt>
      <trkpt lat="44.64532" lon="7.11756">
        <ele>2646</ele>
        <time>2022-07-13T11:55:04Z</time>
      </trkpt>
      <trkpt lat="44.6453" lon="7.1176">
        <ele>2646</ele>
        <time>2022-07-13T11:55:08Z</time>
      </trkpt>
      <trkpt lat="44.64533" lon="7.11764">
        <ele>2645</ele>
        <time>2022-07-13T11:55:13Z</time>
      </trkpt>
      <trkpt lat="44.64537" lon="7.11766">
        <ele>2644</ele>
        <time>2022-07-13T11:55:18Z</time>
      </trkpt>
      <trkpt lat="44.64541" lon="7.11766">
        <ele>2644</ele>
        <time>2022-07-13T11:55:27Z</time>
      </trkpt>
      <trkpt lat="44.64548" lon="7.11765">
        <ele>2643</ele>
        <time>2022-07-13T11:55:37Z</time>
      </trkpt>
      <trkpt lat="44.64551" lon="7.11765">
        <ele>2641</ele>
        <time>2022-07-13T11:55:42Z</time>
      </trkpt>
      <trkpt lat="44.64556" lon="7.11764">
        <ele>2640</ele>
        <time>2022-07-13T11:55:47Z</time>
      </trkpt>
      <trkpt lat="44.64559" lon="7.11767">
        <ele>2639</ele>
        <time>2022-07-13T11:55:51Z</time>
      </trkpt>
      <trkpt lat="44.64563" lon="7.11768">
        <ele>2639</ele>
        <time>2022-07-13T11:55:55Z</time>
      </trkpt>
      <trkpt lat="44.64566" lon="7.11769">
        <ele>2638</ele>
        <time>2022-07-13T11:55:59Z</time>
      </trkpt>
      <trkpt lat="44.6457" lon="7.11771">
        <ele>2638</ele>
        <time>2022-07-13T11:56:04Z</time>
      </trkpt>
      <trkpt lat="44.64584" lon="7.11765">
        <ele>2637</ele>
        <time>2022-07-13T11:56:25Z</time>
      </trkpt>
      <trkpt lat="44.64592" lon="7.11768">
        <ele>2636</ele>
        <time>2022-07-13T11:56:33Z</time>
      </trkpt>
      <trkpt lat="44.64599" lon="7.11766">
        <ele>2636</ele>
        <time>2022-07-13T11:56:41Z</time>
      </trkpt>
      <trkpt lat="44.64606" lon="7.11763">
        <ele>2636</ele>
        <time>2022-07-13T11:56:53Z</time>
      </trkpt>
      <trkpt lat="44.6461" lon="7.11761">
        <ele>2636</ele>
        <time>2022-07-13T11:56:59Z</time>
      </trkpt>
      <trkpt lat="44.64613" lon="7.11761">
        <ele>2636</ele>
        <time>2022-07-13T11:57:05Z</time>
      </trkpt>
      <trkpt lat="44.6462" lon="7.11757">
        <ele>2637</ele>
        <time>2022-07-13T11:57:15Z</time>
      </trkpt>
      <trkpt lat="44.64628" lon="7.11757">
        <ele>2636</ele>
        <time>2022-07-13T11:57:25Z</time>
      </trkpt>
      <trkpt lat="44.64632" lon="7.1176">
        <ele>2635</ele>
        <time>2022-07-13T11:57:30Z</time>
      </trkpt>
      <trkpt lat="44.64636" lon="7.1176">
        <ele>2634</ele>
        <time>2022-07-13T11:57:34Z</time>
      </trkpt>
      <trkpt lat="44.64649" lon="7.11749">
        <ele>2631</ele>
        <time>2022-07-13T11:57:52Z</time>
      </trkpt>
      <trkpt lat="44.64653" lon="7.11746">
        <ele>2631</ele>
        <time>2022-07-13T11:57:56Z</time>
      </trkpt>
      <trkpt lat="44.64659" lon="7.11739">
        <ele>2630</ele>
        <time>2022-07-13T11:58:05Z</time>
      </trkpt>
      <trkpt lat="44.64661" lon="7.11735">
        <ele>2630</ele>
        <time>2022-07-13T11:58:09Z</time>
      </trkpt>
      <trkpt lat="44.64664" lon="7.11732">
        <ele>2630</ele>
        <time>2022-07-13T11:58:13Z</time>
      </trkpt>
      <trkpt lat="44.64667" lon="7.11729">
        <ele>2629</ele>
        <time>2022-07-13T11:58:18Z</time>
      </trkpt>
      <trkpt lat="44.64669" lon="7.11724">
        <ele>2628</ele>
        <time>2022-07-13T11:58:23Z</time>
      </trkpt>
      <trkpt lat="44.64674" lon="7.11717">
        <ele>2626</ele>
        <time>2022-07-13T11:58:32Z</time>
      </trkpt>
      <trkpt lat="44.64678" lon="7.11715">
        <ele>2627</ele>
        <time>2022-07-13T11:58:36Z</time>
      </trkpt>
      <trkpt lat="44.64681" lon="7.11712">
        <ele>2627</ele>
        <time>2022-07-13T11:58:40Z</time>
      </trkpt>
      <trkpt lat="44.64686" lon="7.11703">
        <ele>2627</ele>
        <time>2022-07-13T11:58:50Z</time>
      </trkpt>
      <trkpt lat="44.64687" lon="7.11698">
        <ele>2627</ele>
        <time>2022-07-13T11:58:56Z</time>
      </trkpt>
      <trkpt lat="44.64698" lon="7.11675">
        <ele>2624</ele>
        <time>2022-07-13T11:59:20Z</time>
      </trkpt>
      <trkpt lat="44.64701" lon="7.11671">
        <ele>2624</ele>
        <time>2022-07-13T11:59:25Z</time>
      </trkpt>
      <trkpt lat="44.64703" lon="7.11667">
        <ele>2624</ele>
        <time>2022-07-13T11:59:30Z</time>
      </trkpt>
      <trkpt lat="44.64706" lon="7.11664">
        <ele>2623</ele>
        <time>2022-07-13T11:59:35Z</time>
      </trkpt>
      <trkpt lat="44.64708" lon="7.1166">
        <ele>2622</ele>
        <time>2022-07-13T11:59:40Z</time>
      </trkpt>
      <trkpt lat="44.6471" lon="7.11655">
        <ele>2622</ele>
        <time>2022-07-13T11:59:45Z</time>
      </trkpt>
      <trkpt lat="44.64709" lon="7.1165">
        <ele>2620</ele>
        <time>2022-07-13T11:59:52Z</time>
      </trkpt>
      <trkpt lat="44.64711" lon="7.11646">
        <ele>2620</ele>
        <time>2022-07-13T11:59:58Z</time>
      </trkpt>
      <trkpt lat="44.64719" lon="7.11644">
        <ele>2620</ele>
        <time>2022-07-13T12:00:06Z</time>
      </trkpt>
      <trkpt lat="44.64729" lon="7.11638">
        <ele>2618</ele>
        <time>2022-07-13T12:00:18Z</time>
      </trkpt>
      <trkpt lat="44.64733" lon="7.11636">
        <ele>2617</ele>
        <time>2022-07-13T12:00:23Z</time>
      </trkpt>
      <trkpt lat="44.64737" lon="7.11634">
        <ele>2618</ele>
        <time>2022-07-13T12:00:28Z</time>
      </trkpt>
      <trkpt lat="44.64746" lon="7.11626">
        <ele>2619</ele>
        <time>2022-07-13T12:00:43Z</time>
      </trkpt>
      <trkpt lat="44.64747" lon="7.11621">
        <ele>2620</ele>
        <time>2022-07-13T12:00:49Z</time>
      </trkpt>
      <trkpt lat="44.64748" lon="7.11611">
        <ele>2620</ele>
        <time>2022-07-13T12:00:56Z</time>
      </trkpt>
      <trkpt lat="44.6475" lon="7.11606">
        <ele>2619</ele>
        <time>2022-07-13T12:00:59Z</time>
      </trkpt>
      <trkpt lat="44.64751" lon="7.11601">
        <ele>2618</ele>
        <time>2022-07-13T12:01:03Z</time>
      </trkpt>
      <trkpt lat="44.64757" lon="7.11593">
        <ele>2615</ele>
        <time>2022-07-13T12:01:11Z</time>
      </trkpt>
      <trkpt lat="44.64761" lon="7.11592">
        <ele>2615</ele>
        <time>2022-07-13T12:01:15Z</time>
      </trkpt>
      <trkpt lat="44.64774" lon="7.11596">
        <ele>2610</ele>
        <time>2022-07-13T12:01:27Z</time>
      </trkpt>
      <trkpt lat="44.64783" lon="7.116">
        <ele>2609</ele>
        <time>2022-07-13T12:01:35Z</time>
      </trkpt>
      <trkpt lat="44.6479" lon="7.11602">
        <ele>2607</ele>
        <time>2022-07-13T12:01:43Z</time>
      </trkpt>
      <trkpt lat="44.64794" lon="7.11601">
        <ele>2608</ele>
        <time>2022-07-13T12:01:47Z</time>
      </trkpt>
      <trkpt lat="44.64797" lon="7.11599">
        <ele>2608</ele>
        <time>2022-07-13T12:01:51Z</time>
      </trkpt>
      <trkpt lat="44.64801" lon="7.116">
        <ele>2610</ele>
        <time>2022-07-13T12:01:56Z</time>
      </trkpt>
      <trkpt lat="44.64805" lon="7.116">
        <ele>2611</ele>
        <time>2022-07-13T12:02:03Z</time>
      </trkpt>
      <trkpt lat="44.64808" lon="7.11598">
        <ele>2612</ele>
        <time>2022-07-13T12:02:08Z</time>
      </trkpt>
      <trkpt lat="44.64815" lon="7.11596">
        <ele>2614</ele>
        <time>2022-07-13T12:02:17Z</time>
      </trkpt>
      <trkpt lat="44.64823" lon="7.11594">
        <ele>2614</ele>
        <time>2022-07-13T12:02:27Z</time>
      </trkpt>
      <trkpt lat="44.64827" lon="7.11593">
        <ele>2615</ele>
        <time>2022-07-13T12:02:31Z</time>
      </trkpt>
      <trkpt lat="44.64833" lon="7.11587">
        <ele>2616</ele>
        <time>2022-07-13T12:02:40Z</time>
      </trkpt>
      <trkpt lat="44.64849" lon="7.11573">
        <ele>2617</ele>
        <time>2022-07-13T12:03:00Z</time>
      </trkpt>
      <trkpt lat="44.64857" lon="7.11569">
        <ele>2617</ele>
        <time>2022-07-13T12:03:08Z</time>
      </trkpt>
      <trkpt lat="44.64868" lon="7.11554">
        <ele>2613</ele>
        <time>2022-07-13T12:03:28Z</time>
      </trkpt>
      <trkpt lat="44.64876" lon="7.1155">
        <ele>2612</ele>
        <time>2022-07-13T12:03:37Z</time>
      </trkpt>
      <trkpt lat="44.6488" lon="7.11547">
        <ele>2612</ele>
        <time>2022-07-13T12:03:41Z</time>
      </trkpt>
      <trkpt lat="44.64894" lon="7.11539">
        <ele>2611</ele>
        <time>2022-07-13T12:03:59Z</time>
      </trkpt>
      <trkpt lat="44.64898" lon="7.11538">
        <ele>2611</ele>
        <time>2022-07-13T12:04:04Z</time>
      </trkpt>
      <trkpt lat="44.64905" lon="7.11534">
        <ele>2611</ele>
        <time>2022-07-13T12:04:13Z</time>
      </trkpt>
      <trkpt lat="44.64908" lon="7.11531">
        <ele>2611</ele>
        <time>2022-07-13T12:04:18Z</time>
      </trkpt>
      <trkpt lat="44.64924" lon="7.11502">
        <ele>2610</ele>
        <time>2022-07-13T12:04:52Z</time>
      </trkpt>
      <trkpt lat="44.64938" lon="7.11483">
        <ele>2608</ele>
        <time>2022-07-13T12:05:13Z</time>
      </trkpt>
      <trkpt lat="44.64945" lon="7.11479">
        <ele>2609</ele>
        <time>2022-07-13T12:05:21Z</time>
      </trkpt>
      <trkpt lat="44.64952" lon="7.11474">
        <ele>2609</ele>
        <time>2022-07-13T12:05:31Z</time>
      </trkpt>
      <trkpt lat="44.64962" lon="7.11452">
        <ele>2607</ele>
        <time>2022-07-13T12:05:54Z</time>
      </trkpt>
      <trkpt lat="44.64963" lon="7.11441">
        <ele>2608</ele>
        <time>2022-07-13T12:06:02Z</time>
      </trkpt>
      <trkpt lat="44.64965" lon="7.11436">
        <ele>2608</ele>
        <time>2022-07-13T12:06:06Z</time>
      </trkpt>
      <trkpt lat="44.64964" lon="7.11425">
        <ele>2606</ele>
        <time>2022-07-13T12:06:15Z</time>
      </trkpt>
      <trkpt lat="44.64967" lon="7.11423">
        <ele>2605</ele>
        <time>2022-07-13T12:06:18Z</time>
      </trkpt>
      <trkpt lat="44.64971" lon="7.11421">
        <ele>2604</ele>
        <time>2022-07-13T12:06:22Z</time>
      </trkpt>
      <trkpt lat="44.64983" lon="7.11424">
        <ele>2599</ele>
        <time>2022-07-13T12:06:33Z</time>
      </trkpt>
      <trkpt lat="44.64983" lon="7.11419">
        <ele>2599</ele>
        <time>2022-07-13T12:06:39Z</time>
      </trkpt>
      <trkpt lat="44.64981" lon="7.11414">
        <ele>2599</ele>
        <time>2022-07-13T12:06:43Z</time>
      </trkpt>
      <trkpt lat="44.64979" lon="7.11404">
        <ele>2598</ele>
        <time>2022-07-13T12:06:50Z</time>
      </trkpt>
      <trkpt lat="44.6498" lon="7.11398">
        <ele>2597</ele>
        <time>2022-07-13T12:06:54Z</time>
      </trkpt>
      <trkpt lat="44.6498" lon="7.11392">
        <ele>2598</ele>
        <time>2022-07-13T12:06:58Z</time>
      </trkpt>
      <trkpt lat="44.64978" lon="7.11387">
        <ele>2597</ele>
        <time>2022-07-13T12:07:02Z</time>
      </trkpt>
      <trkpt lat="44.64978" lon="7.11382">
        <ele>2598</ele>
        <time>2022-07-13T12:07:07Z</time>
      </trkpt>
      <trkpt lat="44.64979" lon="7.11377">
        <ele>2598</ele>
        <time>2022-07-13T12:07:13Z</time>
      </trkpt>
      <trkpt lat="44.64981" lon="7.11372">
        <ele>2599</ele>
        <time>2022-07-13T12:07:18Z</time>
      </trkpt>
      <trkpt lat="44.64983" lon="7.11368">
        <ele>2599</ele>
        <time>2022-07-13T12:07:23Z</time>
      </trkpt>
      <trkpt lat="44.64993" lon="7.11361">
        <ele>2601</ele>
        <time>2022-07-13T12:07:37Z</time>
      </trkpt>
      <trkpt lat="44.65001" lon="7.11357">
        <ele>2602</ele>
        <time>2022-07-13T12:07:46Z</time>
      </trkpt>
      <trkpt lat="44.65007" lon="7.11352">
        <ele>2602</ele>
        <time>2022-07-13T12:07:55Z</time>
      </trkpt>
      <trkpt lat="44.6501" lon="7.11349">
        <ele>2601</ele>
        <time>2022-07-13T12:07:59Z</time>
      </trkpt>
      <trkpt lat="44.65012" lon="7.11345">
        <ele>2601</ele>
        <time>2022-07-13T12:08:03Z</time>
      </trkpt>
      <trkpt lat="44.65012" lon="7.11339">
        <ele>2601</ele>
        <time>2022-07-13T12:08:07Z</time>
      </trkpt>
      <trkpt lat="44.65011" lon="7.11327">
        <ele>2600</ele>
        <time>2022-07-13T12:08:16Z</time>
      </trkpt>
      <trkpt lat="44.65011" lon="7.11322">
        <ele>2599</ele>
        <time>2022-07-13T12:08:20Z</time>
      </trkpt>
      <trkpt lat="44.65012" lon="7.11317">
        <ele>2599</ele>
        <time>2022-07-13T12:08:25Z</time>
      </trkpt>
      <trkpt lat="44.6502" lon="7.11305">
        <ele>2597</ele>
        <time>2022-07-13T12:08:37Z</time>
      </trkpt>
      <trkpt lat="44.65019" lon="7.113">
        <ele>2597</ele>
        <time>2022-07-13T12:08:42Z</time>
      </trkpt>
      <trkpt lat="44.65017" lon="7.11296">
        <ele>2595</ele>
        <time>2022-07-13T12:08:46Z</time>
      </trkpt>
      <trkpt lat="44.65016" lon="7.1129">
        <ele>2594</ele>
        <time>2022-07-13T12:08:51Z</time>
      </trkpt>
      <trkpt lat="44.65014" lon="7.11286">
        <ele>2592</ele>
        <time>2022-07-13T12:08:56Z</time>
      </trkpt>
      <trkpt lat="44.65015" lon="7.11281">
        <ele>2591</ele>
        <time>2022-07-13T12:09:01Z</time>
      </trkpt>
      <trkpt lat="44.65017" lon="7.11277">
        <ele>2592</ele>
        <time>2022-07-13T12:09:06Z</time>
      </trkpt>
      <trkpt lat="44.65033" lon="7.11261">
        <ele>2591</ele>
        <time>2022-07-13T12:09:27Z</time>
      </trkpt>
      <trkpt lat="44.65036" lon="7.11258">
        <ele>2592</ele>
        <time>2022-07-13T12:09:31Z</time>
      </trkpt>
      <trkpt lat="44.65048" lon="7.11253">
        <ele>2594</ele>
        <time>2022-07-13T12:09:45Z</time>
      </trkpt>
      <trkpt lat="44.65052" lon="7.11252">
        <ele>2594</ele>
        <time>2022-07-13T12:09:49Z</time>
      </trkpt>
      <trkpt lat="44.65061" lon="7.11243">
        <ele>2593</ele>
        <time>2022-07-13T12:10:01Z</time>
      </trkpt>
      <trkpt lat="44.65063" lon="7.11238">
        <ele>2593</ele>
        <time>2022-07-13T12:10:05Z</time>
      </trkpt>
      <trkpt lat="44.65064" lon="7.11233">
        <ele>2593</ele>
        <time>2022-07-13T12:10:09Z</time>
      </trkpt>
      <trkpt lat="44.65067" lon="7.11217">
        <ele>2591</ele>
        <time>2022-07-13T12:10:22Z</time>
      </trkpt>
      <trkpt lat="44.65071" lon="7.11213">
        <ele>2591</ele>
        <time>2022-07-13T12:10:26Z</time>
      </trkpt>
      <trkpt lat="44.65075" lon="7.11213">
        <ele>2591</ele>
        <time>2022-07-13T12:10:30Z</time>
      </trkpt>
      <trkpt lat="44.65078" lon="7.11217">
        <ele>2590</ele>
        <time>2022-07-13T12:10:35Z</time>
      </trkpt>
      <trkpt lat="44.65081" lon="7.11221">
        <ele>2588</ele>
        <time>2022-07-13T12:10:39Z</time>
      </trkpt>
      <trkpt lat="44.65084" lon="7.11223">
        <ele>2587</ele>
        <time>2022-07-13T12:10:43Z</time>
      </trkpt>
      <trkpt lat="44.65092" lon="7.11223">
        <ele>2586</ele>
        <time>2022-07-13T12:10:50Z</time>
      </trkpt>
      <trkpt lat="44.65102" lon="7.11219">
        <ele>2586</ele>
        <time>2022-07-13T12:11:02Z</time>
      </trkpt>
      <trkpt lat="44.65106" lon="7.11216">
        <ele>2585</ele>
        <time>2022-07-13T12:11:07Z</time>
      </trkpt>
      <trkpt lat="44.65118" lon="7.11203">
        <ele>2583</ele>
        <time>2022-07-13T12:11:24Z</time>
      </trkpt>
      <trkpt lat="44.65121" lon="7.11193">
        <ele>2581</ele>
        <time>2022-07-13T12:11:33Z</time>
      </trkpt>
      <trkpt lat="44.65121" lon="7.11187">
        <ele>2580</ele>
        <time>2022-07-13T12:11:37Z</time>
      </trkpt>
      <trkpt lat="44.65119" lon="7.1117">
        <ele>2575</ele>
        <time>2022-07-13T12:11:49Z</time>
      </trkpt>
      <trkpt lat="44.65118" lon="7.11165">
        <ele>2574</ele>
        <time>2022-07-13T12:11:53Z</time>
      </trkpt>
      <trkpt lat="44.65116" lon="7.1116">
        <ele>2573</ele>
        <time>2022-07-13T12:11:57Z</time>
      </trkpt>
      <trkpt lat="44.65119" lon="7.11156">
        <ele>2573</ele>
        <time>2022-07-13T12:12:01Z</time>
      </trkpt>
      <trkpt lat="44.65126" lon="7.11153">
        <ele>2572</ele>
        <time>2022-07-13T12:12:07Z</time>
      </trkpt>
      <trkpt lat="44.6513" lon="7.11154">
        <ele>2571</ele>
        <time>2022-07-13T12:12:11Z</time>
      </trkpt>
      <trkpt lat="44.65142" lon="7.11152">
        <ele>2570</ele>
        <time>2022-07-13T12:12:24Z</time>
      </trkpt>
      <trkpt lat="44.65145" lon="7.11152">
        <ele>2570</ele>
        <time>2022-07-13T12:12:29Z</time>
      </trkpt>
      <trkpt lat="44.65156" lon="7.11148">
        <ele>2574</ele>
        <time>2022-07-13T12:12:43Z</time>
      </trkpt>
      <trkpt lat="44.65159" lon="7.11144">
        <ele>2575</ele>
        <time>2022-07-13T12:12:48Z</time>
      </trkpt>
      <trkpt lat="44.6516" lon="7.11139">
        <ele>2574</ele>
        <time>2022-07-13T12:12:53Z</time>
      </trkpt>
      <trkpt lat="44.6516" lon="7.11134">
        <ele>2574</ele>
        <time>2022-07-13T12:12:56Z</time>
      </trkpt>
      <trkpt lat="44.65158" lon="7.11129">
        <ele>2574</ele>
        <time>2022-07-13T12:12:59Z</time>
      </trkpt>
      <trkpt lat="44.65159" lon="7.11124">
        <ele>2573</ele>
        <time>2022-07-13T12:13:03Z</time>
      </trkpt>
      <trkpt lat="44.65174" lon="7.11116">
        <ele>2576</ele>
        <time>2022-07-13T12:13:20Z</time>
      </trkpt>
      <trkpt lat="44.65176" lon="7.11111">
        <ele>2575</ele>
        <time>2022-07-13T12:13:33Z</time>
      </trkpt>
      <trkpt lat="44.65178" lon="7.11106">
        <ele>2574</ele>
        <time>2022-07-13T12:13:39Z</time>
      </trkpt>
      <trkpt lat="44.6518" lon="7.11102">
        <ele>2575</ele>
        <time>2022-07-13T12:13:46Z</time>
      </trkpt>
      <trkpt lat="44.65189" lon="7.11089">
        <ele>2575</ele>
        <time>2022-07-13T12:14:02Z</time>
      </trkpt>
      <trkpt lat="44.65193" lon="7.11089">
        <ele>2574</ele>
        <time>2022-07-13T12:14:07Z</time>
      </trkpt>
      <trkpt lat="44.65196" lon="7.11088">
        <ele>2575</ele>
        <time>2022-07-13T12:14:12Z</time>
      </trkpt>
      <trkpt lat="44.65203" lon="7.11081">
        <ele>2576</ele>
        <time>2022-07-13T12:14:33Z</time>
      </trkpt>
      <trkpt lat="44.65207" lon="7.1108">
        <ele>2575</ele>
        <time>2022-07-13T12:14:37Z</time>
      </trkpt>
      <trkpt lat="44.65221" lon="7.11071">
        <ele>2575</ele>
        <time>2022-07-13T12:14:58Z</time>
      </trkpt>
      <trkpt lat="44.65228" lon="7.11066">
        <ele>2575</ele>
        <time>2022-07-13T12:15:07Z</time>
      </trkpt>
      <trkpt lat="44.6524" lon="7.11054">
        <ele>2574</ele>
        <time>2022-07-13T12:15:27Z</time>
      </trkpt>
      <trkpt lat="44.65242" lon="7.11049">
        <ele>2573</ele>
        <time>2022-07-13T12:15:32Z</time>
      </trkpt>
      <trkpt lat="44.65245" lon="7.11045">
        <ele>2571</ele>
        <time>2022-07-13T12:15:40Z</time>
      </trkpt>
      <trkpt lat="44.65259" lon="7.11039">
        <ele>2572</ele>
        <time>2022-07-13T12:15:58Z</time>
      </trkpt>
      <trkpt lat="44.65263" lon="7.11038">
        <ele>2572</ele>
        <time>2022-07-13T12:16:03Z</time>
      </trkpt>
      <trkpt lat="44.65266" lon="7.11036">
        <ele>2573</ele>
        <time>2022-07-13T12:16:09Z</time>
      </trkpt>
      <trkpt lat="44.65271" lon="7.11035">
        <ele>2573</ele>
        <time>2022-07-13T12:16:14Z</time>
      </trkpt>
      <trkpt lat="44.65282" lon="7.1103">
        <ele>2574</ele>
        <time>2022-07-13T12:16:29Z</time>
      </trkpt>
      <trkpt lat="44.65286" lon="7.1103">
        <ele>2574</ele>
        <time>2022-07-13T12:16:33Z</time>
      </trkpt>
      <trkpt lat="44.65293" lon="7.11027">
        <ele>2574</ele>
        <time>2022-07-13T12:16:45Z</time>
      </trkpt>
      <trkpt lat="44.65297" lon="7.11024">
        <ele>2574</ele>
        <time>2022-07-13T12:16:50Z</time>
      </trkpt>
      <trkpt lat="44.653" lon="7.11022">
        <ele>2575</ele>
        <time>2022-07-13T12:16:54Z</time>
      </trkpt>
      <trkpt lat="44.65304" lon="7.1102">
        <ele>2575</ele>
        <time>2022-07-13T12:16:58Z</time>
      </trkpt>
      <trkpt lat="44.65312" lon="7.11002">
        <ele>2572</ele>
        <time>2022-07-13T12:17:19Z</time>
      </trkpt>
      <trkpt lat="44.65314" lon="7.10998">
        <ele>2571</ele>
        <time>2022-07-13T12:17:24Z</time>
      </trkpt>
      <trkpt lat="44.65316" lon="7.10994">
        <ele>2571</ele>
        <time>2022-07-13T12:17:28Z</time>
      </trkpt>
      <trkpt lat="44.65321" lon="7.10986">
        <ele>2571</ele>
        <time>2022-07-13T12:17:37Z</time>
      </trkpt>
      <trkpt lat="44.65332" lon="7.1098">
        <ele>2569</ele>
        <time>2022-07-13T12:17:49Z</time>
      </trkpt>
      <trkpt lat="44.65335" lon="7.10978">
        <ele>2568</ele>
        <time>2022-07-13T12:17:53Z</time>
      </trkpt>
      <trkpt lat="44.65337" lon="7.10968">
        <ele>2567</ele>
        <time>2022-07-13T12:18:04Z</time>
      </trkpt>
      <trkpt lat="44.65338" lon="7.10963">
        <ele>2565</ele>
        <time>2022-07-13T12:18:09Z</time>
      </trkpt>
      <trkpt lat="44.65339" lon="7.10958">
        <ele>2566</ele>
        <time>2022-07-13T12:18:14Z</time>
      </trkpt>
      <trkpt lat="44.65342" lon="7.10955">
        <ele>2567</ele>
        <time>2022-07-13T12:18:19Z</time>
      </trkpt>
      <trkpt lat="44.65344" lon="7.1095">
        <ele>2565</ele>
        <time>2022-07-13T12:18:25Z</time>
      </trkpt>
      <trkpt lat="44.65348" lon="7.10948">
        <ele>2565</ele>
        <time>2022-07-13T12:18:30Z</time>
      </trkpt>
      <trkpt lat="44.6535" lon="7.10945">
        <ele>2566</ele>
        <time>2022-07-13T12:18:35Z</time>
      </trkpt>
      <trkpt lat="44.65353" lon="7.10942">
        <ele>2566</ele>
        <time>2022-07-13T12:18:40Z</time>
      </trkpt>
      <trkpt lat="44.65356" lon="7.10938">
        <ele>2564</ele>
        <time>2022-07-13T12:18:46Z</time>
      </trkpt>
      <trkpt lat="44.65359" lon="7.10936">
        <ele>2563</ele>
        <time>2022-07-13T12:18:50Z</time>
      </trkpt>
      <trkpt lat="44.65362" lon="7.10933">
        <ele>2564</ele>
        <time>2022-07-13T12:18:54Z</time>
      </trkpt>
      <trkpt lat="44.65365" lon="7.1093">
        <ele>2565</ele>
        <time>2022-07-13T12:18:58Z</time>
      </trkpt>
      <trkpt lat="44.6537" lon="7.1093">
        <ele>2566</ele>
        <time>2022-07-13T12:19:03Z</time>
      </trkpt>
      <trkpt lat="44.65377" lon="7.10933">
        <ele>2567</ele>
        <time>2022-07-13T12:19:13Z</time>
      </trkpt>
      <trkpt lat="44.65381" lon="7.10933">
        <ele>2567</ele>
        <time>2022-07-13T12:19:18Z</time>
      </trkpt>
      <trkpt lat="44.65385" lon="7.10933">
        <ele>2567</ele>
        <time>2022-07-13T12:19:22Z</time>
      </trkpt>
      <trkpt lat="44.65392" lon="7.10926">
        <ele>2567</ele>
        <time>2022-07-13T12:19:33Z</time>
      </trkpt>
      <trkpt lat="44.65396" lon="7.10918">
        <ele>2570</ele>
        <time>2022-07-13T12:19:45Z</time>
      </trkpt>
      <trkpt lat="44.65407" lon="7.1091">
        <ele>2569</ele>
        <time>2022-07-13T12:19:58Z</time>
      </trkpt>
      <trkpt lat="44.65414" lon="7.10912">
        <ele>2570</ele>
        <time>2022-07-13T12:20:06Z</time>
      </trkpt>
      <trkpt lat="44.65419" lon="7.10911">
        <ele>2570</ele>
        <time>2022-07-13T12:20:10Z</time>
      </trkpt>
      <trkpt lat="44.65422" lon="7.10911">
        <ele>2571</ele>
        <time>2022-07-13T12:20:14Z</time>
      </trkpt>
      <trkpt lat="44.65426" lon="7.10911">
        <ele>2572</ele>
        <time>2022-07-13T12:20:19Z</time>
      </trkpt>
      <trkpt lat="44.65429" lon="7.10914">
        <ele>2570</ele>
        <time>2022-07-13T12:20:26Z</time>
      </trkpt>
      <trkpt lat="44.65433" lon="7.10914">
        <ele>2570</ele>
        <time>2022-07-13T12:20:31Z</time>
      </trkpt>
      <trkpt lat="44.65435" lon="7.10919">
        <ele>2569</ele>
        <time>2022-07-13T12:20:37Z</time>
      </trkpt>
      <trkpt lat="44.65435" lon="7.1093">
        <ele>2568</ele>
        <time>2022-07-13T12:20:45Z</time>
      </trkpt>
      <trkpt lat="44.65431" lon="7.10938">
        <ele>2567</ele>
        <time>2022-07-13T12:20:53Z</time>
      </trkpt>
      <trkpt lat="44.6543" lon="7.10943">
        <ele>2567</ele>
        <time>2022-07-13T12:20:58Z</time>
      </trkpt>
      <trkpt lat="44.65431" lon="7.10948">
        <ele>2567</ele>
        <time>2022-07-13T12:21:03Z</time>
      </trkpt>
      <trkpt lat="44.65429" lon="7.10957">
        <ele>2566</ele>
        <time>2022-07-13T12:21:13Z</time>
      </trkpt>
      <trkpt lat="44.65431" lon="7.10968">
        <ele>2565</ele>
        <time>2022-07-13T12:21:24Z</time>
      </trkpt>
      <trkpt lat="44.65434" lon="7.10972">
        <ele>2565</ele>
        <time>2022-07-13T12:21:29Z</time>
      </trkpt>
      <trkpt lat="44.65444" lon="7.10966">
        <ele>2568</ele>
        <time>2022-07-13T12:21:45Z</time>
      </trkpt>
      <trkpt lat="44.65448" lon="7.10966">
        <ele>2569</ele>
        <time>2022-07-13T12:21:50Z</time>
      </trkpt>
      <trkpt lat="44.65451" lon="7.10968">
        <ele>2570</ele>
        <time>2022-07-13T12:21:55Z</time>
      </trkpt>
      <trkpt lat="44.65455" lon="7.10968">
        <ele>2572</ele>
        <time>2022-07-13T12:22:00Z</time>
      </trkpt>
      <trkpt lat="44.65456" lon="7.10963">
        <ele>2572</ele>
        <time>2022-07-13T12:22:06Z</time>
      </trkpt>
      <trkpt lat="44.65457" lon="7.10958">
        <ele>2574</ele>
        <time>2022-07-13T12:22:12Z</time>
      </trkpt>
      <trkpt lat="44.65459" lon="7.10954">
        <ele>2575</ele>
        <time>2022-07-13T12:22:19Z</time>
      </trkpt>
      <trkpt lat="44.65463" lon="7.10951">
        <ele>2576</ele>
        <time>2022-07-13T12:22:24Z</time>
      </trkpt>
      <trkpt lat="44.65466" lon="7.10954">
        <ele>2575</ele>
        <time>2022-07-13T12:22:31Z</time>
      </trkpt>
      <trkpt lat="44.6547" lon="7.10956">
        <ele>2574</ele>
        <time>2022-07-13T12:22:35Z</time>
      </trkpt>
      <trkpt lat="44.65474" lon="7.10956">
        <ele>2573</ele>
        <time>2022-07-13T12:22:39Z</time>
      </trkpt>
      <trkpt lat="44.65485" lon="7.10957">
        <ele>2576</ele>
        <time>2022-07-13T12:22:52Z</time>
      </trkpt>
      <trkpt lat="44.65505" lon="7.10968">
        <ele>2577</ele>
        <time>2022-07-13T12:23:21Z</time>
      </trkpt>
      <trkpt lat="44.65516" lon="7.10969">
        <ele>2578</ele>
        <time>2022-07-13T12:23:34Z</time>
      </trkpt>
      <trkpt lat="44.65524" lon="7.10963">
        <ele>2576</ele>
        <time>2022-07-13T12:23:45Z</time>
      </trkpt>
      <trkpt lat="44.65527" lon="7.1096">
        <ele>2576</ele>
        <time>2022-07-13T12:23:50Z</time>
      </trkpt>
      <trkpt lat="44.6553" lon="7.1095">
        <ele>2574</ele>
        <time>2022-07-13T12:23:56Z</time>
      </trkpt>
      <trkpt lat="44.65533" lon="7.10946">
        <ele>2569</ele>
        <time>2022-07-13T12:24:01Z</time>
      </trkpt>
      <trkpt lat="44.65537" lon="7.10945">
        <ele>2569</ele>
        <time>2022-07-13T12:24:06Z</time>
      </trkpt>
      <trkpt lat="44.65544" lon="7.10945">
        <ele>2574</ele>
        <time>2022-07-13T12:24:14Z</time>
      </trkpt>
      <trkpt lat="44.65546" lon="7.1094">
        <ele>2576</ele>
        <time>2022-07-13T12:24:19Z</time>
      </trkpt>
      <trkpt lat="44.65551" lon="7.10932">
        <ele>2575</ele>
        <time>2022-07-13T12:24:29Z</time>
      </trkpt>
      <trkpt lat="44.65553" lon="7.10923">
        <ele>2574</ele>
        <time>2022-07-13T12:24:38Z</time>
      </trkpt>
      <trkpt lat="44.65554" lon="7.10917">
        <ele>2575</ele>
        <time>2022-07-13T12:24:43Z</time>
      </trkpt>
      <trkpt lat="44.65556" lon="7.10913">
        <ele>2573</ele>
        <time>2022-07-13T12:24:48Z</time>
      </trkpt>
      <trkpt lat="44.65559" lon="7.10909">
        <ele>2572</ele>
        <time>2022-07-13T12:24:53Z</time>
      </trkpt>
      <trkpt lat="44.65561" lon="7.10905">
        <ele>2570</ele>
        <time>2022-07-13T12:24:58Z</time>
      </trkpt>
      <trkpt lat="44.65563" lon="7.10901">
        <ele>2570</ele>
        <time>2022-07-13T12:25:03Z</time>
      </trkpt>
      <trkpt lat="44.65564" lon="7.10896">
        <ele>2573</ele>
        <time>2022-07-13T12:25:07Z</time>
      </trkpt>
      <trkpt lat="44.65566" lon="7.10892">
        <ele>2574</ele>
        <time>2022-07-13T12:25:11Z</time>
      </trkpt>
      <trkpt lat="44.65569" lon="7.10888">
        <ele>2576</ele>
        <time>2022-07-13T12:25:15Z</time>
      </trkpt>
      <trkpt lat="44.65578" lon="7.10876">
        <ele>2570</ele>
        <time>2022-07-13T12:25:29Z</time>
      </trkpt>
      <trkpt lat="44.65579" lon="7.10871">
        <ele>2570</ele>
        <time>2022-07-13T12:25:33Z</time>
      </trkpt>
      <trkpt lat="44.65581" lon="7.10866">
        <ele>2569</ele>
        <time>2022-07-13T12:25:37Z</time>
      </trkpt>
      <trkpt lat="44.65584" lon="7.10863">
        <ele>2568</ele>
        <time>2022-07-13T12:25:41Z</time>
      </trkpt>
      <trkpt lat="44.65596" lon="7.10841">
        <ele>2567</ele>
        <time>2022-07-13T12:26:04Z</time>
      </trkpt>
      <trkpt lat="44.65598" lon="7.10836">
        <ele>2566</ele>
        <time>2022-07-13T12:26:09Z</time>
      </trkpt>
      <trkpt lat="44.65602" lon="7.10835">
        <ele>2565</ele>
        <time>2022-07-13T12:26:13Z</time>
      </trkpt>
      <trkpt lat="44.65606" lon="7.10833">
        <ele>2566</ele>
        <time>2022-07-13T12:26:17Z</time>
      </trkpt>
      <trkpt lat="44.6561" lon="7.10833">
        <ele>2566</ele>
        <time>2022-07-13T12:26:21Z</time>
      </trkpt>
      <trkpt lat="44.65613" lon="7.10835">
        <ele>2567</ele>
        <time>2022-07-13T12:26:26Z</time>
      </trkpt>
      <trkpt lat="44.65614" lon="7.1084">
        <ele>2567</ele>
        <time>2022-07-13T12:26:31Z</time>
      </trkpt>
      <trkpt lat="44.65618" lon="7.10839">
        <ele>2567</ele>
        <time>2022-07-13T12:26:36Z</time>
      </trkpt>
      <trkpt lat="44.65621" lon="7.10836">
        <ele>2567</ele>
        <time>2022-07-13T12:26:42Z</time>
      </trkpt>
      <trkpt lat="44.65629" lon="7.10833">
        <ele>2567</ele>
        <time>2022-07-13T12:26:53Z</time>
      </trkpt>
      <trkpt lat="44.65634" lon="7.10826">
        <ele>2565</ele>
        <time>2022-07-13T12:27:04Z</time>
      </trkpt>
      <trkpt lat="44.65636" lon="7.10821">
        <ele>2564</ele>
        <time>2022-07-13T12:27:09Z</time>
      </trkpt>
      <trkpt lat="44.65638" lon="7.10817">
        <ele>2564</ele>
        <time>2022-07-13T12:27:14Z</time>
      </trkpt>
      <trkpt lat="44.65644" lon="7.10812">
        <ele>2563</ele>
        <time>2022-07-13T12:27:23Z</time>
      </trkpt>
      <trkpt lat="44.65651" lon="7.10811">
        <ele>2565</ele>
        <time>2022-07-13T12:27:32Z</time>
      </trkpt>
      <trkpt lat="44.65677" lon="7.10799">
        <ele>2559</ele>
        <time>2022-07-13T12:28:00Z</time>
      </trkpt>
      <trkpt lat="44.6568" lon="7.10796">
        <ele>2559</ele>
        <time>2022-07-13T12:28:07Z</time>
      </trkpt>
      <trkpt lat="44.65684" lon="7.10793">
        <ele>2559</ele>
        <time>2022-07-13T12:28:11Z</time>
      </trkpt>
      <trkpt lat="44.65688" lon="7.10792">
        <ele>2561</ele>
        <time>2022-07-13T12:28:15Z</time>
      </trkpt>
      <trkpt lat="44.65694" lon="7.10785">
        <ele>2562</ele>
        <time>2022-07-13T12:28:25Z</time>
      </trkpt>
      <trkpt lat="44.65701" lon="7.10779">
        <ele>2561</ele>
        <time>2022-07-13T12:28:33Z</time>
      </trkpt>
      <trkpt lat="44.65708" lon="7.10777">
        <ele>2561</ele>
        <time>2022-07-13T12:28:42Z</time>
      </trkpt>
      <trkpt lat="44.65716" lon="7.10774">
        <ele>2561</ele>
        <time>2022-07-13T12:28:52Z</time>
      </trkpt>
      <trkpt lat="44.65718" lon="7.1077">
        <ele>2561</ele>
        <time>2022-07-13T12:28:57Z</time>
      </trkpt>
      <trkpt lat="44.65721" lon="7.10768">
        <ele>2562</ele>
        <time>2022-07-13T12:29:02Z</time>
      </trkpt>
      <trkpt lat="44.65725" lon="7.10768">
        <ele>2562</ele>
        <time>2022-07-13T12:29:07Z</time>
      </trkpt>
      <trkpt lat="44.65729" lon="7.10768">
        <ele>2562</ele>
        <time>2022-07-13T12:29:12Z</time>
      </trkpt>
      <trkpt lat="44.65732" lon="7.1077">
        <ele>2562</ele>
        <time>2022-07-13T12:29:17Z</time>
      </trkpt>
      <trkpt lat="44.65735" lon="7.10774">
        <ele>2561</ele>
        <time>2022-07-13T12:29:22Z</time>
      </trkpt>
      <trkpt lat="44.65738" lon="7.10778">
        <ele>2560</ele>
        <time>2022-07-13T12:29:27Z</time>
      </trkpt>
      <trkpt lat="44.65741" lon="7.10782">
        <ele>2560</ele>
        <time>2022-07-13T12:29:32Z</time>
      </trkpt>
      <trkpt lat="44.65746" lon="7.10789">
        <ele>2559</ele>
        <time>2022-07-13T12:29:42Z</time>
      </trkpt>
      <trkpt lat="44.65753" lon="7.10797">
        <ele>2559</ele>
        <time>2022-07-13T12:29:53Z</time>
      </trkpt>
      <trkpt lat="44.65756" lon="7.108">
        <ele>2560</ele>
        <time>2022-07-13T12:29:58Z</time>
      </trkpt>
      <trkpt lat="44.65759" lon="7.10803">
        <ele>2561</ele>
        <time>2022-07-13T12:30:02Z</time>
      </trkpt>
      <trkpt lat="44.65765" lon="7.1081">
        <ele>2564</ele>
        <time>2022-07-13T12:30:12Z</time>
      </trkpt>
      <trkpt lat="44.65767" lon="7.10814">
        <ele>2564</ele>
        <time>2022-07-13T12:30:18Z</time>
      </trkpt>
      <trkpt lat="44.65775" lon="7.10824">
        <ele>2566</ele>
        <time>2022-07-13T12:30:35Z</time>
      </trkpt>
      <trkpt lat="44.65797" lon="7.10838">
        <ele>2571</ele>
        <time>2022-07-13T12:31:05Z</time>
      </trkpt>
      <trkpt lat="44.658" lon="7.10841">
        <ele>2571</ele>
        <time>2022-07-13T12:31:10Z</time>
      </trkpt>
      <trkpt lat="44.65802" lon="7.10845">
        <ele>2571</ele>
        <time>2022-07-13T12:31:16Z</time>
      </trkpt>
      <trkpt lat="44.65805" lon="7.1085">
        <ele>2571</ele>
        <time>2022-07-13T12:31:22Z</time>
      </trkpt>
      <trkpt lat="44.65812" lon="7.10852">
        <ele>2574</ele>
        <time>2022-07-13T12:31:31Z</time>
      </trkpt>
      <trkpt lat="44.65816" lon="7.10852">
        <ele>2575</ele>
        <time>2022-07-13T12:31:36Z</time>
      </trkpt>
      <trkpt lat="44.6582" lon="7.10851">
        <ele>2577</ele>
        <time>2022-07-13T12:31:41Z</time>
      </trkpt>
      <trkpt lat="44.65824" lon="7.10849">
        <ele>2577</ele>
        <time>2022-07-13T12:31:45Z</time>
      </trkpt>
      <trkpt lat="44.65827" lon="7.10849">
        <ele>2577</ele>
        <time>2022-07-13T12:31:50Z</time>
      </trkpt>
      <trkpt lat="44.65828" lon="7.10844">
        <ele>2578</ele>
        <time>2022-07-13T12:32:14Z</time>
      </trkpt>
      <trkpt lat="44.65836" lon="7.10845">
        <ele>2578</ele>
        <time>2022-07-13T12:32:19Z</time>
      </trkpt>
      <trkpt lat="44.6584" lon="7.10848">
        <ele>2578</ele>
        <time>2022-07-13T12:32:23Z</time>
      </trkpt>
      <trkpt lat="44.65844" lon="7.10848">
        <ele>2578</ele>
        <time>2022-07-13T12:32:28Z</time>
      </trkpt>
      <trkpt lat="44.65847" lon="7.1085">
        <ele>2577</ele>
        <time>2022-07-13T12:32:32Z</time>
      </trkpt>
      <trkpt lat="44.65859" lon="7.10848">
        <ele>2572</ele>
        <time>2022-07-13T12:32:44Z</time>
      </trkpt>
      <trkpt lat="44.65863" lon="7.10846">
        <ele>2573</ele>
        <time>2022-07-13T12:32:54Z</time>
      </trkpt>
      <trkpt lat="44.65884" lon="7.10857">
        <ele>2576</ele>
        <time>2022-07-13T12:33:28Z</time>
      </trkpt>
      <trkpt lat="44.65892" lon="7.10857">
        <ele>2577</ele>
        <time>2022-07-13T12:33:37Z</time>
      </trkpt>
      <trkpt lat="44.65896" lon="7.10856">
        <ele>2578</ele>
        <time>2022-07-13T12:33:42Z</time>
      </trkpt>
      <trkpt lat="44.65903" lon="7.10861">
        <ele>2578</ele>
        <time>2022-07-13T12:33:57Z</time>
      </trkpt>
      <trkpt lat="44.65915" lon="7.10862">
        <ele>2578</ele>
        <time>2022-07-13T12:34:10Z</time>
      </trkpt>
      <trkpt lat="44.65919" lon="7.10863">
        <ele>2578</ele>
        <time>2022-07-13T12:34:14Z</time>
      </trkpt>
      <trkpt lat="44.65922" lon="7.10865">
        <ele>2578</ele>
        <time>2022-07-13T12:34:18Z</time>
      </trkpt>
      <trkpt lat="44.65926" lon="7.10866">
        <ele>2577</ele>
        <time>2022-07-13T12:34:23Z</time>
      </trkpt>
      <trkpt lat="44.65946" lon="7.1087">
        <ele>2575</ele>
        <time>2022-07-13T12:34:44Z</time>
      </trkpt>
      <trkpt lat="44.65949" lon="7.10873">
        <ele>2575</ele>
        <time>2022-07-13T12:34:48Z</time>
      </trkpt>
      <trkpt lat="44.6596" lon="7.10877">
        <ele>2576</ele>
        <time>2022-07-13T12:35:01Z</time>
      </trkpt>
      <trkpt lat="44.6598" lon="7.10895">
        <ele>2577</ele>
        <time>2022-07-13T12:35:29Z</time>
      </trkpt>
      <trkpt lat="44.65984" lon="7.10896">
        <ele>2578</ele>
        <time>2022-07-13T12:35:34Z</time>
      </trkpt>
      <trkpt lat="44.65988" lon="7.10896">
        <ele>2579</ele>
        <time>2022-07-13T12:35:39Z</time>
      </trkpt>
      <trkpt lat="44.65992" lon="7.10896">
        <ele>2580</ele>
        <time>2022-07-13T12:35:44Z</time>
      </trkpt>
      <trkpt lat="44.66007" lon="7.10898">
        <ele>2581</ele>
        <time>2022-07-13T12:36:04Z</time>
      </trkpt>
      <trkpt lat="44.66018" lon="7.10902">
        <ele>2581</ele>
        <time>2022-07-13T12:36:18Z</time>
      </trkpt>
      <trkpt lat="44.66023" lon="7.10904">
        <ele>2580</ele>
        <time>2022-07-13T12:36:22Z</time>
      </trkpt>
      <trkpt lat="44.66024" lon="7.10909">
        <ele>2580</ele>
        <time>2022-07-13T12:36:26Z</time>
      </trkpt>
      <trkpt lat="44.66027" lon="7.10913">
        <ele>2580</ele>
        <time>2022-07-13T12:36:30Z</time>
      </trkpt>
      <trkpt lat="44.6603" lon="7.10916">
        <ele>2580</ele>
        <time>2022-07-13T12:36:34Z</time>
      </trkpt>
      <trkpt lat="44.66036" lon="7.10923">
        <ele>2580</ele>
        <time>2022-07-13T12:36:43Z</time>
      </trkpt>
      <trkpt lat="44.66043" lon="7.10936">
        <ele>2580</ele>
        <time>2022-07-13T12:37:08Z</time>
      </trkpt>
      <trkpt lat="44.66044" lon="7.10941">
        <ele>2580</ele>
        <time>2022-07-13T12:37:15Z</time>
      </trkpt>
      <trkpt lat="44.66047" lon="7.10938">
        <ele>2579</ele>
        <time>2022-07-13T12:37:31Z</time>
      </trkpt>
      <trkpt lat="44.6605" lon="7.10935">
        <ele>2576</ele>
        <time>2022-07-13T12:37:38Z</time>
      </trkpt>
      <trkpt lat="44.66052" lon="7.10931">
        <ele>2576</ele>
        <time>2022-07-13T12:37:42Z</time>
      </trkpt>
      <trkpt lat="44.66055" lon="7.10928">
        <ele>2575</ele>
        <time>2022-07-13T12:37:46Z</time>
      </trkpt>
      <trkpt lat="44.66057" lon="7.10923">
        <ele>2576</ele>
        <time>2022-07-13T12:37:51Z</time>
      </trkpt>
      <trkpt lat="44.66061" lon="7.10922">
        <ele>2576</ele>
        <time>2022-07-13T12:37:55Z</time>
      </trkpt>
      <trkpt lat="44.66064" lon="7.10924">
        <ele>2576</ele>
        <time>2022-07-13T12:37:59Z</time>
      </trkpt>
      <trkpt lat="44.66066" lon="7.10929">
        <ele>2578</ele>
        <time>2022-07-13T12:38:03Z</time>
      </trkpt>
      <trkpt lat="44.66069" lon="7.10938">
        <ele>2581</ele>
        <time>2022-07-13T12:38:13Z</time>
      </trkpt>
      <trkpt lat="44.66072" lon="7.10943">
        <ele>2582</ele>
        <time>2022-07-13T12:38:18Z</time>
      </trkpt>
      <trkpt lat="44.66093" lon="7.10952">
        <ele>2582</ele>
        <time>2022-07-13T12:38:50Z</time>
      </trkpt>
      <trkpt lat="44.66097" lon="7.10954">
        <ele>2581</ele>
        <time>2022-07-13T12:38:54Z</time>
      </trkpt>
      <trkpt lat="44.66101" lon="7.10955">
        <ele>2580</ele>
        <time>2022-07-13T12:38:58Z</time>
      </trkpt>
      <trkpt lat="44.66109" lon="7.10956">
        <ele>2578</ele>
        <time>2022-07-13T12:39:07Z</time>
      </trkpt>
      <trkpt lat="44.66135" lon="7.10955">
        <ele>2584</ele>
        <time>2022-07-13T12:39:41Z</time>
      </trkpt>
      <trkpt lat="44.66162" lon="7.10946">
        <ele>2589</ele>
        <time>2022-07-13T12:40:15Z</time>
      </trkpt>
      <trkpt lat="44.66165" lon="7.10944">
        <ele>2590</ele>
        <time>2022-07-13T12:40:21Z</time>
      </trkpt>
      <trkpt lat="44.66175" lon="7.10937">
        <ele>2594</ele>
        <time>2022-07-13T12:40:36Z</time>
      </trkpt>
      <trkpt lat="44.66179" lon="7.10934">
        <ele>2596</ele>
        <time>2022-07-13T12:40:42Z</time>
      </trkpt>
      <trkpt lat="44.66182" lon="7.1093">
        <ele>2597</ele>
        <time>2022-07-13T12:40:47Z</time>
      </trkpt>
      <trkpt lat="44.66185" lon="7.10927">
        <ele>2598</ele>
        <time>2022-07-13T12:40:52Z</time>
      </trkpt>
      <trkpt lat="44.66188" lon="7.10926">
        <ele>2599</ele>
        <time>2022-07-13T12:40:57Z</time>
      </trkpt>
      <trkpt lat="44.66195" lon="7.1092">
        <ele>2600</ele>
        <time>2022-07-13T12:41:07Z</time>
      </trkpt>
      <trkpt lat="44.66202" lon="7.10917">
        <ele>2600</ele>
        <time>2022-07-13T12:41:14Z</time>
      </trkpt>
      <trkpt lat="44.66207" lon="7.10915">
        <ele>2598</ele>
        <time>2022-07-13T12:41:17Z</time>
      </trkpt>
      <trkpt lat="44.6621" lon="7.10914">
        <ele>2596</ele>
        <time>2022-07-13T12:41:21Z</time>
      </trkpt>
      <trkpt lat="44.66214" lon="7.10916">
        <ele>2594</ele>
        <time>2022-07-13T12:41:26Z</time>
      </trkpt>
      <trkpt lat="44.66218" lon="7.10917">
        <ele>2594</ele>
        <time>2022-07-13T12:41:31Z</time>
      </trkpt>
      <trkpt lat="44.66237" lon="7.10934">
        <ele>2592</ele>
        <time>2022-07-13T12:42:01Z</time>
      </trkpt>
      <trkpt lat="44.66252" lon="7.10942">
        <ele>2595</ele>
        <time>2022-07-13T12:42:17Z</time>
      </trkpt>
      <trkpt lat="44.66275" lon="7.10944">
        <ele>2596</ele>
        <time>2022-07-13T12:42:49Z</time>
      </trkpt>
      <trkpt lat="44.66278" lon="7.10944">
        <ele>2596</ele>
        <time>2022-07-13T12:42:53Z</time>
      </trkpt>
      <trkpt lat="44.66283" lon="7.10945">
        <ele>2599</ele>
        <time>2022-07-13T12:42:58Z</time>
      </trkpt>
      <trkpt lat="44.66287" lon="7.10944">
        <ele>2600</ele>
        <time>2022-07-13T12:43:03Z</time>
      </trkpt>
      <trkpt lat="44.6629" lon="7.10944">
        <ele>2601</ele>
        <time>2022-07-13T12:43:07Z</time>
      </trkpt>
      <trkpt lat="44.66297" lon="7.10943">
        <ele>2603</ele>
        <time>2022-07-13T12:43:15Z</time>
      </trkpt>
      <trkpt lat="44.66309" lon="7.10943">
        <ele>2606</ele>
        <time>2022-07-13T12:43:29Z</time>
      </trkpt>
      <trkpt lat="44.66312" lon="7.10945">
        <ele>2607</ele>
        <time>2022-07-13T12:43:34Z</time>
      </trkpt>
      <trkpt lat="44.66317" lon="7.10954">
        <ele>2607</ele>
        <time>2022-07-13T12:43:43Z</time>
      </trkpt>
      <trkpt lat="44.66319" lon="7.10958">
        <ele>2607</ele>
        <time>2022-07-13T12:43:47Z</time>
      </trkpt>
      <trkpt lat="44.66321" lon="7.10962">
        <ele>2607</ele>
        <time>2022-07-13T12:43:52Z</time>
      </trkpt>
      <trkpt lat="44.66326" lon="7.1097">
        <ele>2608</ele>
        <time>2022-07-13T12:44:02Z</time>
      </trkpt>
      <trkpt lat="44.66328" lon="7.10975">
        <ele>2609</ele>
        <time>2022-07-13T12:44:07Z</time>
      </trkpt>
      <trkpt lat="44.6633" lon="7.10978">
        <ele>2609</ele>
        <time>2022-07-13T12:44:12Z</time>
      </trkpt>
      <trkpt lat="44.66337" lon="7.10981">
        <ele>2610</ele>
        <time>2022-07-13T12:44:24Z</time>
      </trkpt>
      <trkpt lat="44.66341" lon="7.10982">
        <ele>2611</ele>
        <time>2022-07-13T12:44:31Z</time>
      </trkpt>
      <trkpt lat="44.66344" lon="7.10983">
        <ele>2612</ele>
        <time>2022-07-13T12:44:35Z</time>
      </trkpt>
      <trkpt lat="44.66352" lon="7.10987">
        <ele>2615</ele>
        <time>2022-07-13T12:44:49Z</time>
      </trkpt>
      <trkpt lat="44.66355" lon="7.10989">
        <ele>2616</ele>
        <time>2022-07-13T12:44:57Z</time>
      </trkpt>
      <trkpt lat="44.66359" lon="7.1099">
        <ele>2616</ele>
        <time>2022-07-13T12:45:03Z</time>
      </trkpt>
      <trkpt lat="44.66367" lon="7.10988">
        <ele>2614</ele>
        <time>2022-07-13T12:45:14Z</time>
      </trkpt>
      <trkpt lat="44.66373" lon="7.10993">
        <ele>2616</ele>
        <time>2022-07-13T12:45:25Z</time>
      </trkpt>
      <trkpt lat="44.66388" lon="7.10995">
        <ele>2614</ele>
        <time>2022-07-13T12:45:43Z</time>
      </trkpt>
      <trkpt lat="44.66392" lon="7.10997">
        <ele>2614</ele>
        <time>2022-07-13T12:45:47Z</time>
      </trkpt>
      <trkpt lat="44.66395" lon="7.10997">
        <ele>2615</ele>
        <time>2022-07-13T12:45:51Z</time>
      </trkpt>
      <trkpt lat="44.66399" lon="7.10995">
        <ele>2615</ele>
        <time>2022-07-13T12:45:55Z</time>
      </trkpt>
      <trkpt lat="44.66403" lon="7.10995">
        <ele>2617</ele>
        <time>2022-07-13T12:45:59Z</time>
      </trkpt>
      <trkpt lat="44.66406" lon="7.10997">
        <ele>2617</ele>
        <time>2022-07-13T12:46:05Z</time>
      </trkpt>
      <trkpt lat="44.6641" lon="7.10996">
        <ele>2618</ele>
        <time>2022-07-13T12:46:11Z</time>
      </trkpt>
      <trkpt lat="44.66414" lon="7.10997">
        <ele>2619</ele>
        <time>2022-07-13T12:46:16Z</time>
      </trkpt>
      <trkpt lat="44.66418" lon="7.10998">
        <ele>2618</ele>
        <time>2022-07-13T12:46:27Z</time>
      </trkpt>
      <trkpt lat="44.66421" lon="7.10998">
        <ele>2619</ele>
        <time>2022-07-13T12:46:33Z</time>
      </trkpt>
      <trkpt lat="44.66429" lon="7.10997">
        <ele>2620</ele>
        <time>2022-07-13T12:46:45Z</time>
      </trkpt>
      <trkpt lat="44.66433" lon="7.10997">
        <ele>2620</ele>
        <time>2022-07-13T12:46:50Z</time>
      </trkpt>
      <trkpt lat="44.6644" lon="7.10994">
        <ele>2622</ele>
        <time>2022-07-13T12:47:00Z</time>
      </trkpt>
      <trkpt lat="44.66443" lon="7.10995">
        <ele>2623</ele>
        <time>2022-07-13T12:47:07Z</time>
      </trkpt>
      <trkpt lat="44.66447" lon="7.10997">
        <ele>2625</ele>
        <time>2022-07-13T12:47:13Z</time>
      </trkpt>
      <trkpt lat="44.6645" lon="7.10996">
        <ele>2625</ele>
        <time>2022-07-13T12:47:19Z</time>
      </trkpt>
      <trkpt lat="44.66454" lon="7.10996">
        <ele>2626</ele>
        <time>2022-07-13T12:47:26Z</time>
      </trkpt>
      <trkpt lat="44.66458" lon="7.10995">
        <ele>2626</ele>
        <time>2022-07-13T12:47:32Z</time>
      </trkpt>
      <trkpt lat="44.66479" lon="7.10991">
        <ele>2627</ele>
        <time>2022-07-13T12:48:05Z</time>
      </trkpt>
      <trkpt lat="44.66486" lon="7.1099">
        <ele>2629</ele>
        <time>2022-07-13T12:48:17Z</time>
      </trkpt>
      <trkpt lat="44.66489" lon="7.10987">
        <ele>2629</ele>
        <time>2022-07-13T12:48:23Z</time>
      </trkpt>
      <trkpt lat="44.66497" lon="7.10985">
        <ele>2630</ele>
        <time>2022-07-13T12:48:34Z</time>
      </trkpt>
      <trkpt lat="44.665" lon="7.10982">
        <ele>2632</ele>
        <time>2022-07-13T12:48:40Z</time>
      </trkpt>
      <trkpt lat="44.66503" lon="7.10982">
        <ele>2632</ele>
        <time>2022-07-13T12:48:45Z</time>
      </trkpt>
      <trkpt lat="44.66514" lon="7.10978">
        <ele>2635</ele>
        <time>2022-07-13T12:49:02Z</time>
      </trkpt>
      <trkpt lat="44.66517" lon="7.10976">
        <ele>2636</ele>
        <time>2022-07-13T12:49:08Z</time>
      </trkpt>
      <trkpt lat="44.66521" lon="7.10979">
        <ele>2636</ele>
        <time>2022-07-13T12:49:15Z</time>
      </trkpt>
      <trkpt lat="44.66523" lon="7.10983">
        <ele>2636</ele>
        <time>2022-07-13T12:49:23Z</time>
      </trkpt>
      <trkpt lat="44.66534" lon="7.1099">
        <ele>2637</ele>
        <time>2022-07-13T12:49:43Z</time>
      </trkpt>
      <trkpt lat="44.66541" lon="7.10993">
        <ele>2637</ele>
        <time>2022-07-13T12:49:56Z</time>
      </trkpt>
      <trkpt lat="44.66547" lon="7.11">
        <ele>2639</ele>
        <time>2022-07-13T12:50:03Z</time>
      </trkpt>
      <trkpt lat="44.66551" lon="7.10999">
        <ele>2640</ele>
        <time>2022-07-13T12:50:06Z</time>
      </trkpt>
      <trkpt lat="44.66554" lon="7.10996">
        <ele>2641</ele>
        <time>2022-07-13T12:50:11Z</time>
      </trkpt>
      <trkpt lat="44.66557" lon="7.10993">
        <ele>2640</ele>
        <time>2022-07-13T12:50:20Z</time>
      </trkpt>
      <trkpt lat="44.66557" lon="7.10988">
        <ele>2638</ele>
        <time>2022-07-13T12:50:37Z</time>
      </trkpt>
      <trkpt lat="44.66556" lon="7.10983">
        <ele>2638</ele>
        <time>2022-07-13T12:50:44Z</time>
      </trkpt>
      <trkpt lat="44.6656" lon="7.10984">
        <ele>2639</ele>
        <time>2022-07-13T12:50:51Z</time>
      </trkpt>
      <trkpt lat="44.66564" lon="7.10983">
        <ele>2639</ele>
        <time>2022-07-13T12:50:56Z</time>
      </trkpt>
      <trkpt lat="44.66563" lon="7.10978">
        <ele>2639</ele>
        <time>2022-07-13T12:51:03Z</time>
      </trkpt>
      <trkpt lat="44.66565" lon="7.10973">
        <ele>2640</ele>
        <time>2022-07-13T12:51:18Z</time>
      </trkpt>
      <trkpt lat="44.66569" lon="7.10973">
        <ele>2641</ele>
        <time>2022-07-13T12:51:25Z</time>
      </trkpt>
      <trkpt lat="44.66568" lon="7.10969">
        <ele>2641</ele>
        <time>2022-07-13T12:51:48Z</time>
      </trkpt>
      <trkpt lat="44.66565" lon="7.10974">
        <ele>2642</ele>
        <time>2022-07-13T12:51:52Z</time>
      </trkpt>
      <trkpt lat="44.66563" lon="7.1097">
        <ele>2642</ele>
        <time>2022-07-13T12:51:54Z</time>
      </trkpt>
    </trkseg>
  </trk>
  <trk>
    <name><![CDATA[14 juil. 2022]]></name>
    <desc><![CDATA[comment ...]]></desc>
    <extensions>
      <line xmlns="http://www.topografix.com/GPX/gpx_style/0/2">
        <color>FF0000</color>
        <width>4</width>
      </line>
    </extensions>
    <trkseg>
      <trkpt lat="44.66581" lon="7.10997">
        <ele>2657</ele>
        <time>2022-07-14T05:57:58Z</time>
      </trkpt>
      <trkpt lat="44.66581" lon="7.10997">
        <ele>2657</ele>
        <time>2022-07-14T05:57:59Z</time>
      </trkpt>
      <trkpt lat="44.66582" lon="7.10986">
        <ele>2654</ele>
        <time>2022-07-14T05:58:24Z</time>
      </trkpt>
      <trkpt lat="44.66578" lon="7.10971">
        <ele>2653</ele>
        <time>2022-07-14T05:58:49Z</time>
      </trkpt>
      <trkpt lat="44.66579" lon="7.10965">
        <ele>2654</ele>
        <time>2022-07-14T05:58:54Z</time>
      </trkpt>
      <trkpt lat="44.66578" lon="7.10959">
        <ele>2654</ele>
        <time>2022-07-14T05:59:02Z</time>
      </trkpt>
      <trkpt lat="44.66578" lon="7.10954">
        <ele>2654</ele>
        <time>2022-07-14T05:59:08Z</time>
      </trkpt>
      <trkpt lat="44.6658" lon="7.1095">
        <ele>2653</ele>
        <time>2022-07-14T05:59:15Z</time>
      </trkpt>
      <trkpt lat="44.66587" lon="7.10938">
        <ele>2652</ele>
        <time>2022-07-14T05:59:40Z</time>
      </trkpt>
      <trkpt lat="44.66589" lon="7.10934">
        <ele>2651</ele>
        <time>2022-07-14T05:59:45Z</time>
      </trkpt>
      <trkpt lat="44.66591" lon="7.1093">
        <ele>2650</ele>
        <time>2022-07-14T05:59:49Z</time>
      </trkpt>
      <trkpt lat="44.66596" lon="7.10922">
        <ele>2649</ele>
        <time>2022-07-14T05:59:57Z</time>
      </trkpt>
      <trkpt lat="44.666" lon="7.1092">
        <ele>2648</ele>
        <time>2022-07-14T06:00:01Z</time>
      </trkpt>
      <trkpt lat="44.66603" lon="7.10917">
        <ele>2648</ele>
        <time>2022-07-14T06:00:05Z</time>
      </trkpt>
      <trkpt lat="44.66606" lon="7.10913">
        <ele>2648</ele>
        <time>2022-07-14T06:00:10Z</time>
      </trkpt>
      <trkpt lat="44.66608" lon="7.10908">
        <ele>2647</ele>
        <time>2022-07-14T06:00:14Z</time>
      </trkpt>
      <trkpt lat="44.66611" lon="7.10906">
        <ele>2647</ele>
        <time>2022-07-14T06:00:18Z</time>
      </trkpt>
      <trkpt lat="44.66614" lon="7.10904">
        <ele>2646</ele>
        <time>2022-07-14T06:00:23Z</time>
      </trkpt>
      <trkpt lat="44.66621" lon="7.109">
        <ele>2645</ele>
        <time>2022-07-14T06:00:32Z</time>
      </trkpt>
      <trkpt lat="44.66625" lon="7.10898">
        <ele>2644</ele>
        <time>2022-07-14T06:00:36Z</time>
      </trkpt>
      <trkpt lat="44.66632" lon="7.10894">
        <ele>2643</ele>
        <time>2022-07-14T06:00:44Z</time>
      </trkpt>
      <trkpt lat="44.66641" lon="7.10882">
        <ele>2642</ele>
        <time>2022-07-14T06:00:56Z</time>
      </trkpt>
      <trkpt lat="44.66648" lon="7.10862">
        <ele>2642</ele>
        <time>2022-07-14T06:01:13Z</time>
      </trkpt>
      <trkpt lat="44.66648" lon="7.10856">
        <ele>2642</ele>
        <time>2022-07-14T06:01:17Z</time>
      </trkpt>
      <trkpt lat="44.66649" lon="7.10851">
        <ele>2642</ele>
        <time>2022-07-14T06:01:21Z</time>
      </trkpt>
      <trkpt lat="44.66649" lon="7.10845">
        <ele>2642</ele>
        <time>2022-07-14T06:01:25Z</time>
      </trkpt>
      <trkpt lat="44.66648" lon="7.1084">
        <ele>2642</ele>
        <time>2022-07-14T06:01:29Z</time>
      </trkpt>
      <trkpt lat="44.6665" lon="7.10822">
        <ele>2642</ele>
        <time>2022-07-14T06:01:44Z</time>
      </trkpt>
      <trkpt lat="44.66652" lon="7.10809">
        <ele>2641</ele>
        <time>2022-07-14T06:01:53Z</time>
      </trkpt>
      <trkpt lat="44.66677" lon="7.1077">
        <ele>2639</ele>
        <time>2022-07-14T06:02:26Z</time>
      </trkpt>
      <trkpt lat="44.66685" lon="7.10761">
        <ele>2639</ele>
        <time>2022-07-14T06:02:36Z</time>
      </trkpt>
      <trkpt lat="44.66695" lon="7.10746">
        <ele>2638</ele>
        <time>2022-07-14T06:02:49Z</time>
      </trkpt>
      <trkpt lat="44.66705" lon="7.10737">
        <ele>2638</ele>
        <time>2022-07-14T06:03:01Z</time>
      </trkpt>
      <trkpt lat="44.66707" lon="7.10733">
        <ele>2638</ele>
        <time>2022-07-14T06:03:05Z</time>
      </trkpt>
      <trkpt lat="44.66711" lon="7.10725">
        <ele>2638</ele>
        <time>2022-07-14T06:03:12Z</time>
      </trkpt>
      <trkpt lat="44.66714" lon="7.10721">
        <ele>2638</ele>
        <time>2022-07-14T06:03:15Z</time>
      </trkpt>
      <trkpt lat="44.66717" lon="7.10721">
        <ele>2639</ele>
        <time>2022-07-14T06:03:24Z</time>
      </trkpt>
      <trkpt lat="44.66721" lon="7.10718">
        <ele>2639</ele>
        <time>2022-07-14T06:03:28Z</time>
      </trkpt>
      <trkpt lat="44.66728" lon="7.1071">
        <ele>2639</ele>
        <time>2022-07-14T06:03:36Z</time>
      </trkpt>
      <trkpt lat="44.6673" lon="7.10705">
        <ele>2639</ele>
        <time>2022-07-14T06:03:40Z</time>
      </trkpt>
      <trkpt lat="44.66733" lon="7.10702">
        <ele>2639</ele>
        <time>2022-07-14T06:03:44Z</time>
      </trkpt>
      <trkpt lat="44.66743" lon="7.10694">
        <ele>2641</ele>
        <time>2022-07-14T06:03:57Z</time>
      </trkpt>
      <trkpt lat="44.66748" lon="7.10687">
        <ele>2643</ele>
        <time>2022-07-14T06:04:08Z</time>
      </trkpt>
      <trkpt lat="44.66752" lon="7.10686">
        <ele>2643</ele>
        <time>2022-07-14T06:04:14Z</time>
      </trkpt>
      <trkpt lat="44.66754" lon="7.10682">
        <ele>2644</ele>
        <time>2022-07-14T06:04:19Z</time>
      </trkpt>
      <trkpt lat="44.6676" lon="7.10676">
        <ele>2644</ele>
        <time>2022-07-14T06:04:30Z</time>
      </trkpt>
      <trkpt lat="44.66764" lon="7.10673">
        <ele>2645</ele>
        <time>2022-07-14T06:04:36Z</time>
      </trkpt>
      <trkpt lat="44.66769" lon="7.10666">
        <ele>2646</ele>
        <time>2022-07-14T06:04:47Z</time>
      </trkpt>
      <trkpt lat="44.66773" lon="7.10664">
        <ele>2647</ele>
        <time>2022-07-14T06:04:52Z</time>
      </trkpt>
      <trkpt lat="44.66777" lon="7.10664">
        <ele>2648</ele>
        <time>2022-07-14T06:04:57Z</time>
      </trkpt>
      <trkpt lat="44.66787" lon="7.10657">
        <ele>2649</ele>
        <time>2022-07-14T06:05:15Z</time>
      </trkpt>
      <trkpt lat="44.66789" lon="7.10651">
        <ele>2650</ele>
        <time>2022-07-14T06:05:20Z</time>
      </trkpt>
      <trkpt lat="44.66793" lon="7.1065">
        <ele>2651</ele>
        <time>2022-07-14T06:05:24Z</time>
      </trkpt>
      <trkpt lat="44.66796" lon="7.10652">
        <ele>2655</ele>
        <time>2022-07-14T06:06:06Z</time>
      </trkpt>
      <trkpt lat="44.66793" lon="7.10651">
        <ele>2656</ele>
        <time>2022-07-14T06:06:52Z</time>
      </trkpt>
      <trkpt lat="44.66796" lon="7.10647">
        <ele>2656</ele>
        <time>2022-07-14T06:06:55Z</time>
      </trkpt>
      <trkpt lat="44.668" lon="7.10645">
        <ele>2656</ele>
        <time>2022-07-14T06:06:58Z</time>
      </trkpt>
      <trkpt lat="44.66803" lon="7.10641">
        <ele>2656</ele>
        <time>2022-07-14T06:07:02Z</time>
      </trkpt>
      <trkpt lat="44.66804" lon="7.10637">
        <ele>2658</ele>
        <time>2022-07-14T06:07:06Z</time>
      </trkpt>
      <trkpt lat="44.66807" lon="7.10632">
        <ele>2661</ele>
        <time>2022-07-14T06:07:11Z</time>
      </trkpt>
      <trkpt lat="44.66809" lon="7.10628">
        <ele>2662</ele>
        <time>2022-07-14T06:07:15Z</time>
      </trkpt>
      <trkpt lat="44.66812" lon="7.10624">
        <ele>2662</ele>
        <time>2022-07-14T06:07:20Z</time>
      </trkpt>
      <trkpt lat="44.66812" lon="7.10618">
        <ele>2662</ele>
        <time>2022-07-14T06:07:27Z</time>
      </trkpt>
      <trkpt lat="44.66814" lon="7.10613">
        <ele>2661</ele>
        <time>2022-07-14T06:07:35Z</time>
      </trkpt>
      <trkpt lat="44.66816" lon="7.10609">
        <ele>2662</ele>
        <time>2022-07-14T06:07:42Z</time>
      </trkpt>
      <trkpt lat="44.66819" lon="7.10606">
        <ele>2665</ele>
        <time>2022-07-14T06:07:47Z</time>
      </trkpt>
      <trkpt lat="44.66822" lon="7.10602">
        <ele>2665</ele>
        <time>2022-07-14T06:07:54Z</time>
      </trkpt>
      <trkpt lat="44.66825" lon="7.10601">
        <ele>2665</ele>
        <time>2022-07-14T06:08:00Z</time>
      </trkpt>
      <trkpt lat="44.66829" lon="7.106">
        <ele>2665</ele>
        <time>2022-07-14T06:08:06Z</time>
      </trkpt>
      <trkpt lat="44.66832" lon="7.10598">
        <ele>2666</ele>
        <time>2022-07-14T06:08:12Z</time>
      </trkpt>
      <trkpt lat="44.66834" lon="7.10592">
        <ele>2667</ele>
        <time>2022-07-14T06:08:19Z</time>
      </trkpt>
      <trkpt lat="44.66833" lon="7.10587">
        <ele>2668</ele>
        <time>2022-07-14T06:08:24Z</time>
      </trkpt>
      <trkpt lat="44.66836" lon="7.10584">
        <ele>2668</ele>
        <time>2022-07-14T06:08:32Z</time>
      </trkpt>
      <trkpt lat="44.66847" lon="7.10581">
        <ele>2670</ele>
        <time>2022-07-14T06:08:49Z</time>
      </trkpt>
      <trkpt lat="44.66854" lon="7.1058">
        <ele>2672</ele>
        <time>2022-07-14T06:09:01Z</time>
      </trkpt>
      <trkpt lat="44.66862" lon="7.10584">
        <ele>2674</ele>
        <time>2022-07-14T06:09:14Z</time>
      </trkpt>
      <trkpt lat="44.66865" lon="7.10588">
        <ele>2675</ele>
        <time>2022-07-14T06:09:21Z</time>
      </trkpt>
      <trkpt lat="44.66869" lon="7.10591">
        <ele>2674</ele>
        <time>2022-07-14T06:09:30Z</time>
      </trkpt>
      <trkpt lat="44.66872" lon="7.10589">
        <ele>2676</ele>
        <time>2022-07-14T06:09:36Z</time>
      </trkpt>
      <trkpt lat="44.66875" lon="7.10592">
        <ele>2679</ele>
        <time>2022-07-14T06:09:44Z</time>
      </trkpt>
      <trkpt lat="44.66879" lon="7.10591">
        <ele>2681</ele>
        <time>2022-07-14T06:09:50Z</time>
      </trkpt>
      <trkpt lat="44.66879" lon="7.10596">
        <ele>2682</ele>
        <time>2022-07-14T06:10:04Z</time>
      </trkpt>
      <trkpt lat="44.66878" lon="7.106">
        <ele>2684</ele>
        <time>2022-07-14T06:10:13Z</time>
      </trkpt>
      <trkpt lat="44.66874" lon="7.10603">
        <ele>2685</ele>
        <time>2022-07-14T06:10:20Z</time>
      </trkpt>
      <trkpt lat="44.66874" lon="7.10608">
        <ele>2687</ele>
        <time>2022-07-14T06:10:31Z</time>
      </trkpt>
      <trkpt lat="44.66875" lon="7.10613">
        <ele>2688</ele>
        <time>2022-07-14T06:10:37Z</time>
      </trkpt>
      <trkpt lat="44.66879" lon="7.10614">
        <ele>2688</ele>
        <time>2022-07-14T06:10:42Z</time>
      </trkpt>
      <trkpt lat="44.66886" lon="7.10617">
        <ele>2689</ele>
        <time>2022-07-14T06:11:00Z</time>
      </trkpt>
      <trkpt lat="44.66893" lon="7.10613">
        <ele>2694</ele>
        <time>2022-07-14T06:11:14Z</time>
      </trkpt>
      <trkpt lat="44.66905" lon="7.10608">
        <ele>2696</ele>
        <time>2022-07-14T06:11:34Z</time>
      </trkpt>
      <trkpt lat="44.66909" lon="7.10607">
        <ele>2699</ele>
        <time>2022-07-14T06:11:40Z</time>
      </trkpt>
      <trkpt lat="44.66913" lon="7.10606">
        <ele>2699</ele>
        <time>2022-07-14T06:11:45Z</time>
      </trkpt>
      <trkpt lat="44.66917" lon="7.10607">
        <ele>2700</ele>
        <time>2022-07-14T06:11:52Z</time>
      </trkpt>
      <trkpt lat="44.6692" lon="7.10606">
        <ele>2700</ele>
        <time>2022-07-14T06:12:01Z</time>
      </trkpt>
      <trkpt lat="44.66924" lon="7.10607">
        <ele>2700</ele>
        <time>2022-07-14T06:12:11Z</time>
      </trkpt>
      <trkpt lat="44.66926" lon="7.10611">
        <ele>2700</ele>
        <time>2022-07-14T06:12:30Z</time>
      </trkpt>
      <trkpt lat="44.6693" lon="7.10612">
        <ele>2701</ele>
        <time>2022-07-14T06:12:38Z</time>
      </trkpt>
      <trkpt lat="44.66933" lon="7.10612">
        <ele>2701</ele>
        <time>2022-07-14T06:12:44Z</time>
      </trkpt>
      <trkpt lat="44.66934" lon="7.10617">
        <ele>2703</ele>
        <time>2022-07-14T06:12:54Z</time>
      </trkpt>
      <trkpt lat="44.66933" lon="7.10622">
        <ele>2704</ele>
        <time>2022-07-14T06:13:02Z</time>
      </trkpt>
      <trkpt lat="44.66936" lon="7.10624">
        <ele>2705</ele>
        <time>2022-07-14T06:13:11Z</time>
      </trkpt>
      <trkpt lat="44.66939" lon="7.10626">
        <ele>2703</ele>
        <time>2022-07-14T06:13:20Z</time>
      </trkpt>
      <trkpt lat="44.66943" lon="7.10624">
        <ele>2702</ele>
        <time>2022-07-14T06:13:26Z</time>
      </trkpt>
      <trkpt lat="44.66947" lon="7.10623">
        <ele>2701</ele>
        <time>2022-07-14T06:13:32Z</time>
      </trkpt>
      <trkpt lat="44.6695" lon="7.10624">
        <ele>2701</ele>
        <time>2022-07-14T06:13:38Z</time>
      </trkpt>
      <trkpt lat="44.66953" lon="7.10621">
        <ele>2702</ele>
        <time>2022-07-14T06:13:46Z</time>
      </trkpt>
      <trkpt lat="44.66957" lon="7.10619">
        <ele>2702</ele>
        <time>2022-07-14T06:13:54Z</time>
      </trkpt>
      <trkpt lat="44.66959" lon="7.10615">
        <ele>2706</ele>
        <time>2022-07-14T06:14:01Z</time>
      </trkpt>
      <trkpt lat="44.66962" lon="7.10613">
        <ele>2707</ele>
        <time>2022-07-14T06:14:08Z</time>
      </trkpt>
      <trkpt lat="44.66967" lon="7.10614">
        <ele>2709</ele>
        <time>2022-07-14T06:14:20Z</time>
      </trkpt>
      <trkpt lat="44.66971" lon="7.10613">
        <ele>2709</ele>
        <time>2022-07-14T06:14:27Z</time>
      </trkpt>
      <trkpt lat="44.66974" lon="7.1061">
        <ele>2710</ele>
        <time>2022-07-14T06:14:33Z</time>
      </trkpt>
      <trkpt lat="44.66977" lon="7.10608">
        <ele>2711</ele>
        <time>2022-07-14T06:14:41Z</time>
      </trkpt>
      <trkpt lat="44.6698" lon="7.10605">
        <ele>2714</ele>
        <time>2022-07-14T06:14:48Z</time>
      </trkpt>
      <trkpt lat="44.66984" lon="7.10605">
        <ele>2714</ele>
        <time>2022-07-14T06:14:56Z</time>
      </trkpt>
      <trkpt lat="44.66989" lon="7.10613">
        <ele>2717</ele>
        <time>2022-07-14T06:15:15Z</time>
      </trkpt>
      <trkpt lat="44.66988" lon="7.10618">
        <ele>2718</ele>
        <time>2022-07-14T06:15:24Z</time>
      </trkpt>
      <trkpt lat="44.66989" lon="7.10622">
        <ele>2720</ele>
        <time>2022-07-14T06:15:35Z</time>
      </trkpt>
      <trkpt lat="44.66994" lon="7.10623">
        <ele>2721</ele>
        <time>2022-07-14T06:15:48Z</time>
      </trkpt>
      <trkpt lat="44.66997" lon="7.10621">
        <ele>2723</ele>
        <time>2022-07-14T06:15:55Z</time>
      </trkpt>
      <trkpt lat="44.66999" lon="7.10617">
        <ele>2725</ele>
        <time>2022-07-14T06:16:03Z</time>
      </trkpt>
      <trkpt lat="44.67002" lon="7.1062">
        <ele>2726</ele>
        <time>2022-07-14T06:16:12Z</time>
      </trkpt>
      <trkpt lat="44.67007" lon="7.10612">
        <ele>2727</ele>
        <time>2022-07-14T06:16:25Z</time>
      </trkpt>
      <trkpt lat="44.67015" lon="7.10614">
        <ele>2728</ele>
        <time>2022-07-14T06:16:41Z</time>
      </trkpt>
      <trkpt lat="44.67018" lon="7.10616">
        <ele>2729</ele>
        <time>2022-07-14T06:16:48Z</time>
      </trkpt>
      <trkpt lat="44.67021" lon="7.10619">
        <ele>2730</ele>
        <time>2022-07-14T06:17:03Z</time>
      </trkpt>
      <trkpt lat="44.67025" lon="7.10621">
        <ele>2730</ele>
        <time>2022-07-14T06:17:14Z</time>
      </trkpt>
      <trkpt lat="44.67028" lon="7.1062">
        <ele>2731</ele>
        <time>2022-07-14T06:17:29Z</time>
      </trkpt>
      <trkpt lat="44.67032" lon="7.10623">
        <ele>2734</ele>
        <time>2022-07-14T06:17:36Z</time>
      </trkpt>
      <trkpt lat="44.67034" lon="7.1062">
        <ele>2735</ele>
        <time>2022-07-14T06:17:42Z</time>
      </trkpt>
      <trkpt lat="44.67038" lon="7.1062">
        <ele>2738</ele>
        <time>2022-07-14T06:17:51Z</time>
      </trkpt>
      <trkpt lat="44.6704" lon="7.10624">
        <ele>2738</ele>
        <time>2022-07-14T06:17:58Z</time>
      </trkpt>
      <trkpt lat="44.67043" lon="7.10625">
        <ele>2740</ele>
        <time>2022-07-14T06:18:05Z</time>
      </trkpt>
      <trkpt lat="44.67042" lon="7.1063">
        <ele>2739</ele>
        <time>2022-07-14T06:18:12Z</time>
      </trkpt>
      <trkpt lat="44.67046" lon="7.10631">
        <ele>2740</ele>
        <time>2022-07-14T06:18:23Z</time>
      </trkpt>
      <trkpt lat="44.67049" lon="7.10631">
        <ele>2743</ele>
        <time>2022-07-14T06:18:31Z</time>
      </trkpt>
      <trkpt lat="44.67052" lon="7.10629">
        <ele>2743</ele>
        <time>2022-07-14T06:18:36Z</time>
      </trkpt>
      <trkpt lat="44.6706" lon="7.1063">
        <ele>2744</ele>
        <time>2022-07-14T06:18:54Z</time>
      </trkpt>
      <trkpt lat="44.67066" lon="7.10634">
        <ele>2746</ele>
        <time>2022-07-14T06:19:12Z</time>
      </trkpt>
      <trkpt lat="44.67063" lon="7.10643">
        <ele>2752</ele>
        <time>2022-07-14T06:19:41Z</time>
      </trkpt>
      <trkpt lat="44.67062" lon="7.10648">
        <ele>2756</ele>
        <time>2022-07-14T06:19:52Z</time>
      </trkpt>
      <trkpt lat="44.67062" lon="7.10653">
        <ele>2756</ele>
        <time>2022-07-14T06:20:00Z</time>
      </trkpt>
      <trkpt lat="44.67065" lon="7.10656">
        <ele>2756</ele>
        <time>2022-07-14T06:20:08Z</time>
      </trkpt>
      <trkpt lat="44.67068" lon="7.10655">
        <ele>2757</ele>
        <time>2022-07-14T06:20:15Z</time>
      </trkpt>
      <trkpt lat="44.67072" lon="7.10656">
        <ele>2759</ele>
        <time>2022-07-14T06:20:24Z</time>
      </trkpt>
      <trkpt lat="44.67075" lon="7.10657">
        <ele>2759</ele>
        <time>2022-07-14T06:20:33Z</time>
      </trkpt>
      <trkpt lat="44.67079" lon="7.10656">
        <ele>2761</ele>
        <time>2022-07-14T06:20:40Z</time>
      </trkpt>
      <trkpt lat="44.67078" lon="7.10662">
        <ele>2763</ele>
        <time>2022-07-14T06:20:59Z</time>
      </trkpt>
      <trkpt lat="44.67079" lon="7.10668">
        <ele>2767</ele>
        <time>2022-07-14T06:21:13Z</time>
      </trkpt>
      <trkpt lat="44.67075" lon="7.10669">
        <ele>2771</ele>
        <time>2022-07-14T06:21:24Z</time>
      </trkpt>
      <trkpt lat="44.67077" lon="7.10674">
        <ele>2771</ele>
        <time>2022-07-14T06:21:32Z</time>
      </trkpt>
      <trkpt lat="44.67078" lon="7.10678">
        <ele>2772</ele>
        <time>2022-07-14T06:21:40Z</time>
      </trkpt>
      <trkpt lat="44.67077" lon="7.10683">
        <ele>2773</ele>
        <time>2022-07-14T06:21:54Z</time>
      </trkpt>
      <trkpt lat="44.6708" lon="7.10686">
        <ele>2774</ele>
        <time>2022-07-14T06:22:00Z</time>
      </trkpt>
      <trkpt lat="44.67084" lon="7.10686">
        <ele>2775</ele>
        <time>2022-07-14T06:22:07Z</time>
      </trkpt>
      <trkpt lat="44.67087" lon="7.1069">
        <ele>2778</ele>
        <time>2022-07-14T06:22:27Z</time>
      </trkpt>
      <trkpt lat="44.6709" lon="7.10692">
        <ele>2779</ele>
        <time>2022-07-14T06:22:37Z</time>
      </trkpt>
      <trkpt lat="44.67094" lon="7.1069">
        <ele>2779</ele>
        <time>2022-07-14T06:22:43Z</time>
      </trkpt>
      <trkpt lat="44.67098" lon="7.1069">
        <ele>2779</ele>
        <time>2022-07-14T06:22:57Z</time>
      </trkpt>
      <trkpt lat="44.67101" lon="7.10691">
        <ele>2780</ele>
        <time>2022-07-14T06:23:05Z</time>
      </trkpt>
      <trkpt lat="44.67104" lon="7.10694">
        <ele>2785</ele>
        <time>2022-07-14T06:23:33Z</time>
      </trkpt>
      <trkpt lat="44.67108" lon="7.10695">
        <ele>2787</ele>
        <time>2022-07-14T06:23:41Z</time>
      </trkpt>
      <trkpt lat="44.67109" lon="7.10697">
        <ele>2791</ele>
        <time>2022-07-14T06:24:03Z</time>
      </trkpt>
      <trkpt lat="44.67109" lon="7.10702">
        <ele>2792</ele>
        <time>2022-07-14T06:24:09Z</time>
      </trkpt>
      <trkpt lat="44.67106" lon="7.10705">
        <ele>2794</ele>
        <time>2022-07-14T06:24:23Z</time>
      </trkpt>
      <trkpt lat="44.67105" lon="7.10709">
        <ele>2800</ele>
        <time>2022-07-14T06:24:33Z</time>
      </trkpt>
      <trkpt lat="44.67103" lon="7.10713">
        <ele>2800</ele>
        <time>2022-07-14T06:24:43Z</time>
      </trkpt>
      <trkpt lat="44.67105" lon="7.1072">
        <ele>2801</ele>
        <time>2022-07-14T06:24:52Z</time>
      </trkpt>
      <trkpt lat="44.67108" lon="7.10722">
        <ele>2802</ele>
        <time>2022-07-14T06:24:56Z</time>
      </trkpt>
      <trkpt lat="44.67108" lon="7.10727">
        <ele>2803</ele>
        <time>2022-07-14T06:25:05Z</time>
      </trkpt>
      <trkpt lat="44.67112" lon="7.10728">
        <ele>2803</ele>
        <time>2022-07-14T06:25:18Z</time>
      </trkpt>
      <trkpt lat="44.67116" lon="7.10729">
        <ele>2803</ele>
        <time>2022-07-14T06:25:23Z</time>
      </trkpt>
      <trkpt lat="44.67119" lon="7.1073">
        <ele>2803</ele>
        <time>2022-07-14T06:25:34Z</time>
      </trkpt>
      <trkpt lat="44.67123" lon="7.10732">
        <ele>2805</ele>
        <time>2022-07-14T06:25:46Z</time>
      </trkpt>
      <trkpt lat="44.67127" lon="7.10732">
        <ele>2807</ele>
        <time>2022-07-14T06:26:07Z</time>
      </trkpt>
      <trkpt lat="44.67126" lon="7.10737">
        <ele>2807</ele>
        <time>2022-07-14T06:26:16Z</time>
      </trkpt>
      <trkpt lat="44.67122" lon="7.10736">
        <ele>2809</ele>
        <time>2022-07-14T06:26:25Z</time>
      </trkpt>
      <trkpt lat="44.67118" lon="7.10738">
        <ele>2811</ele>
        <time>2022-07-14T06:26:37Z</time>
      </trkpt>
      <trkpt lat="44.67118" lon="7.10743">
        <ele>2818</ele>
        <time>2022-07-14T06:26:51Z</time>
      </trkpt>
      <trkpt lat="44.67119" lon="7.10748">
        <ele>2820</ele>
        <time>2022-07-14T06:27:08Z</time>
      </trkpt>
      <trkpt lat="44.67121" lon="7.10752">
        <ele>2823</ele>
        <time>2022-07-14T06:27:14Z</time>
      </trkpt>
      <trkpt lat="44.67124" lon="7.10756">
        <ele>2823</ele>
        <time>2022-07-14T06:27:18Z</time>
      </trkpt>
      <trkpt lat="44.67126" lon="7.10761">
        <ele>2822</ele>
        <time>2022-07-14T06:27:24Z</time>
      </trkpt>
      <trkpt lat="44.67128" lon="7.10765">
        <ele>2823</ele>
        <time>2022-07-14T06:27:53Z</time>
      </trkpt>
      <trkpt lat="44.67131" lon="7.10769">
        <ele>2829</ele>
        <time>2022-07-14T06:28:11Z</time>
      </trkpt>
      <trkpt lat="44.67135" lon="7.10767">
        <ele>2831</ele>
        <time>2022-07-14T06:28:38Z</time>
      </trkpt>
      <trkpt lat="44.67135" lon="7.10773">
        <ele>2832</ele>
        <time>2022-07-14T06:28:46Z</time>
      </trkpt>
      <trkpt lat="44.67139" lon="7.10773">
        <ele>2832</ele>
        <time>2022-07-14T06:28:51Z</time>
      </trkpt>
      <trkpt lat="44.67143" lon="7.10773">
        <ele>2836</ele>
        <time>2022-07-14T06:29:20Z</time>
      </trkpt>
      <trkpt lat="44.67146" lon="7.10776">
        <ele>2836</ele>
        <time>2022-07-14T06:29:22Z</time>
      </trkpt>
      <trkpt lat="44.67147" lon="7.10781">
        <ele>2835</ele>
        <time>2022-07-14T06:29:32Z</time>
      </trkpt>
      <trkpt lat="44.6715" lon="7.10785">
        <ele>2838</ele>
        <time>2022-07-14T06:30:01Z</time>
      </trkpt>
      <trkpt lat="44.67153" lon="7.10787">
        <ele>2840</ele>
        <time>2022-07-14T06:30:06Z</time>
      </trkpt>
      <trkpt lat="44.67157" lon="7.10787">
        <ele>2842</ele>
        <time>2022-07-14T06:30:25Z</time>
      </trkpt>
      <trkpt lat="44.6716" lon="7.10788">
        <ele>2841</ele>
        <time>2022-07-14T06:30:36Z</time>
      </trkpt>
      <trkpt lat="44.67163" lon="7.10791">
        <ele>2848</ele>
        <time>2022-07-14T06:31:19Z</time>
      </trkpt>
      <trkpt lat="44.67162" lon="7.10797">
        <ele>2850</ele>
        <time>2022-07-14T06:31:24Z</time>
      </trkpt>
      <trkpt lat="44.67166" lon="7.10796">
        <ele>2851</ele>
        <time>2022-07-14T06:31:27Z</time>
      </trkpt>
      <trkpt lat="44.6717" lon="7.10797">
        <ele>2856</ele>
        <time>2022-07-14T06:31:42Z</time>
      </trkpt>
      <trkpt lat="44.67173" lon="7.10797">
        <ele>2859</ele>
        <time>2022-07-14T06:31:57Z</time>
      </trkpt>
      <trkpt lat="44.67182" lon="7.10803">
        <ele>2862</ele>
        <time>2022-07-14T06:32:04Z</time>
      </trkpt>
      <trkpt lat="44.67181" lon="7.10807">
        <ele>2862</ele>
        <time>2022-07-14T06:32:20Z</time>
      </trkpt>
      <trkpt lat="44.67184" lon="7.10808">
        <ele>2862</ele>
        <time>2022-07-14T06:32:32Z</time>
      </trkpt>
      <trkpt lat="44.67188" lon="7.1081">
        <ele>2863</ele>
        <time>2022-07-14T06:32:37Z</time>
      </trkpt>
      <trkpt lat="44.67192" lon="7.10812">
        <ele>2868</ele>
        <time>2022-07-14T06:33:23Z</time>
      </trkpt>
      <trkpt lat="44.67195" lon="7.10814">
        <ele>2871</ele>
        <time>2022-07-14T06:33:34Z</time>
      </trkpt>
      <trkpt lat="44.67199" lon="7.10813">
        <ele>2872</ele>
        <time>2022-07-14T06:33:38Z</time>
      </trkpt>
      <trkpt lat="44.672" lon="7.10809">
        <ele>2875</ele>
        <time>2022-07-14T06:34:02Z</time>
      </trkpt>
      <trkpt lat="44.67197" lon="7.10806">
        <ele>2877</ele>
        <time>2022-07-14T06:34:12Z</time>
      </trkpt>
      <trkpt lat="44.67195" lon="7.10809">
        <ele>2879</ele>
        <time>2022-07-14T06:34:26Z</time>
      </trkpt>
      <trkpt lat="44.67196" lon="7.10815">
        <ele>2880</ele>
        <time>2022-07-14T06:34:33Z</time>
      </trkpt>
      <trkpt lat="44.67199" lon="7.10818">
        <ele>2880</ele>
        <time>2022-07-14T06:34:48Z</time>
      </trkpt>
      <trkpt lat="44.67202" lon="7.10818">
        <ele>2880</ele>
        <time>2022-07-14T06:34:52Z</time>
      </trkpt>
      <trkpt lat="44.67204" lon="7.10822">
        <ele>2880</ele>
        <time>2022-07-14T06:34:59Z</time>
      </trkpt>
      <trkpt lat="44.67207" lon="7.1082">
        <ele>2882</ele>
        <time>2022-07-14T06:35:03Z</time>
      </trkpt>
      <trkpt lat="44.67211" lon="7.10821">
        <ele>2883</ele>
        <time>2022-07-14T06:35:07Z</time>
      </trkpt>
      <trkpt lat="44.67215" lon="7.10822">
        <ele>2883</ele>
        <time>2022-07-14T06:35:12Z</time>
      </trkpt>
      <trkpt lat="44.67214" lon="7.10823">
        <ele>2885</ele>
        <time>2022-07-14T06:35:35Z</time>
      </trkpt>
      <trkpt lat="44.67213" lon="7.10828">
        <ele>2885</ele>
        <time>2022-07-14T06:35:47Z</time>
      </trkpt>
      <trkpt lat="44.67217" lon="7.10829">
        <ele>2883</ele>
        <time>2022-07-14T06:35:51Z</time>
      </trkpt>
      <trkpt lat="44.6722" lon="7.10832">
        <ele>2885</ele>
        <time>2022-07-14T06:35:58Z</time>
      </trkpt>
      <trkpt lat="44.67222" lon="7.1083">
        <ele>2886</ele>
        <time>2022-07-14T06:36:09Z</time>
      </trkpt>
      <trkpt lat="44.67225" lon="7.10828">
        <ele>2886</ele>
        <time>2022-07-14T06:36:15Z</time>
      </trkpt>
      <trkpt lat="44.67228" lon="7.10831">
        <ele>2886</ele>
        <time>2022-07-14T06:36:30Z</time>
      </trkpt>
      <trkpt lat="44.67232" lon="7.10831">
        <ele>2887</ele>
        <time>2022-07-14T06:36:37Z</time>
      </trkpt>
      <trkpt lat="44.67236" lon="7.10832">
        <ele>2888</ele>
        <time>2022-07-14T06:36:42Z</time>
      </trkpt>
      <trkpt lat="44.67239" lon="7.10829">
        <ele>2892</ele>
        <time>2022-07-14T06:36:47Z</time>
      </trkpt>
      <trkpt lat="44.67242" lon="7.10826">
        <ele>2894</ele>
        <time>2022-07-14T06:36:59Z</time>
      </trkpt>
      <trkpt lat="44.67244" lon="7.10822">
        <ele>2898</ele>
        <time>2022-07-14T06:37:04Z</time>
      </trkpt>
      <trkpt lat="44.67247" lon="7.10824">
        <ele>2902</ele>
        <time>2022-07-14T06:37:30Z</time>
      </trkpt>
      <trkpt lat="44.6725" lon="7.10822">
        <ele>2905</ele>
        <time>2022-07-14T06:37:38Z</time>
      </trkpt>
      <trkpt lat="44.67254" lon="7.1082">
        <ele>2906</ele>
        <time>2022-07-14T06:37:45Z</time>
      </trkpt>
      <trkpt lat="44.67253" lon="7.10815">
        <ele>2914</ele>
        <time>2022-07-14T06:37:59Z</time>
      </trkpt>
      <trkpt lat="44.67251" lon="7.10818">
        <ele>2916</ele>
        <time>2022-07-14T06:38:07Z</time>
      </trkpt>
      <trkpt lat="44.67254" lon="7.10817">
        <ele>2918</ele>
        <time>2022-07-14T06:38:33Z</time>
      </trkpt>
      <trkpt lat="44.67256" lon="7.10821">
        <ele>2918</ele>
        <time>2022-07-14T06:38:40Z</time>
      </trkpt>
      <trkpt lat="44.67257" lon="7.10826">
        <ele>2918</ele>
        <time>2022-07-14T06:38:46Z</time>
      </trkpt>
      <trkpt lat="44.67258" lon="7.10831">
        <ele>2922</ele>
        <time>2022-07-14T06:38:52Z</time>
      </trkpt>
      <trkpt lat="44.67261" lon="7.10829">
        <ele>2924</ele>
        <time>2022-07-14T06:39:28Z</time>
      </trkpt>
      <trkpt lat="44.67264" lon="7.10834">
        <ele>2924</ele>
        <time>2022-07-14T06:39:39Z</time>
      </trkpt>
      <trkpt lat="44.67267" lon="7.10839">
        <ele>2925</ele>
        <time>2022-07-14T06:39:51Z</time>
      </trkpt>
      <trkpt lat="44.67263" lon="7.1084">
        <ele>2926</ele>
        <time>2022-07-14T06:39:56Z</time>
      </trkpt>
      <trkpt lat="44.67262" lon="7.10842">
        <ele>2928</ele>
        <time>2022-07-14T06:40:20Z</time>
      </trkpt>
      <trkpt lat="44.67266" lon="7.10851">
        <ele>2927</ele>
        <time>2022-07-14T06:41:02Z</time>
      </trkpt>
      <trkpt lat="44.67268" lon="7.10855">
        <ele>2928</ele>
        <time>2022-07-14T06:41:06Z</time>
      </trkpt>
      <trkpt lat="44.67271" lon="7.10854">
        <ele>2927</ele>
        <time>2022-07-14T06:41:14Z</time>
      </trkpt>
      <trkpt lat="44.67273" lon="7.1085">
        <ele>2929</ele>
        <time>2022-07-14T06:41:33Z</time>
      </trkpt>
      <trkpt lat="44.67276" lon="7.10846">
        <ele>2935</ele>
        <time>2022-07-14T06:41:46Z</time>
      </trkpt>
      <trkpt lat="44.67279" lon="7.10845">
        <ele>2938</ele>
        <time>2022-07-14T06:42:28Z</time>
      </trkpt>
      <trkpt lat="44.67283" lon="7.10842">
        <ele>2939</ele>
        <time>2022-07-14T06:42:39Z</time>
      </trkpt>
      <trkpt lat="44.67286" lon="7.10845">
        <ele>2940</ele>
        <time>2022-07-14T06:42:50Z</time>
      </trkpt>
      <trkpt lat="44.67287" lon="7.1085">
        <ele>2942</ele>
        <time>2022-07-14T06:43:00Z</time>
      </trkpt>
      <trkpt lat="44.67282" lon="7.10859">
        <ele>2943</ele>
        <time>2022-07-14T06:43:12Z</time>
      </trkpt>
      <trkpt lat="44.67283" lon="7.10864">
        <ele>2944</ele>
        <time>2022-07-14T06:43:21Z</time>
      </trkpt>
      <trkpt lat="44.67286" lon="7.10866">
        <ele>2944</ele>
        <time>2022-07-14T06:43:35Z</time>
      </trkpt>
      <trkpt lat="44.6729" lon="7.10867">
        <ele>2946</ele>
        <time>2022-07-14T06:43:50Z</time>
      </trkpt>
      <trkpt lat="44.67293" lon="7.10867">
        <ele>2948</ele>
        <time>2022-07-14T06:44:00Z</time>
      </trkpt>
      <trkpt lat="44.67294" lon="7.10872">
        <ele>2949</ele>
        <time>2022-07-14T06:44:08Z</time>
      </trkpt>
      <trkpt lat="44.67295" lon="7.10878">
        <ele>2949</ele>
        <time>2022-07-14T06:44:16Z</time>
      </trkpt>
      <trkpt lat="44.67301" lon="7.10884">
        <ele>2956</ele>
        <time>2022-07-14T06:44:44Z</time>
      </trkpt>
      <trkpt lat="44.673" lon="7.10889">
        <ele>2957</ele>
        <time>2022-07-14T06:44:55Z</time>
      </trkpt>
      <trkpt lat="44.67301" lon="7.10894">
        <ele>2958</ele>
        <time>2022-07-14T06:45:18Z</time>
      </trkpt>
      <trkpt lat="44.67304" lon="7.1089">
        <ele>2959</ele>
        <time>2022-07-14T06:45:47Z</time>
      </trkpt>
      <trkpt lat="44.67307" lon="7.10887">
        <ele>2961</ele>
        <time>2022-07-14T06:45:53Z</time>
      </trkpt>
      <trkpt lat="44.6731" lon="7.10885">
        <ele>2962</ele>
        <time>2022-07-14T06:46:00Z</time>
      </trkpt>
      <trkpt lat="44.67314" lon="7.10884">
        <ele>2963</ele>
        <time>2022-07-14T06:46:08Z</time>
      </trkpt>
      <trkpt lat="44.67317" lon="7.10883">
        <ele>2963</ele>
        <time>2022-07-14T06:46:16Z</time>
      </trkpt>
      <trkpt lat="44.6732" lon="7.10886">
        <ele>2965</ele>
        <time>2022-07-14T06:46:30Z</time>
      </trkpt>
      <trkpt lat="44.67321" lon="7.10891">
        <ele>2966</ele>
        <time>2022-07-14T06:46:40Z</time>
      </trkpt>
      <trkpt lat="44.67322" lon="7.10895">
        <ele>2968</ele>
        <time>2022-07-14T06:46:52Z</time>
      </trkpt>
      <trkpt lat="44.67322" lon="7.10896">
        <ele>2968</ele>
        <time>2022-07-14T06:47:13Z</time>
      </trkpt>
      <trkpt lat="44.67325" lon="7.10892">
        <ele>2968</ele>
        <time>2022-07-14T06:47:18Z</time>
      </trkpt>
      <trkpt lat="44.67327" lon="7.10895">
        <ele>2969</ele>
        <time>2022-07-14T06:47:33Z</time>
      </trkpt>
      <trkpt lat="44.67331" lon="7.10894">
        <ele>2971</ele>
        <time>2022-07-14T06:47:41Z</time>
      </trkpt>
      <trkpt lat="44.67333" lon="7.1089">
        <ele>2972</ele>
        <time>2022-07-14T06:47:48Z</time>
      </trkpt>
      <trkpt lat="44.67337" lon="7.10889">
        <ele>2972</ele>
        <time>2022-07-14T06:48:09Z</time>
      </trkpt>
      <trkpt lat="44.67338" lon="7.10894">
        <ele>2972</ele>
        <time>2022-07-14T06:48:30Z</time>
      </trkpt>
      <trkpt lat="44.67341" lon="7.10896">
        <ele>2973</ele>
        <time>2022-07-14T06:48:35Z</time>
      </trkpt>
      <trkpt lat="44.6734" lon="7.10901">
        <ele>2973</ele>
        <time>2022-07-14T06:48:41Z</time>
      </trkpt>
      <trkpt lat="44.67342" lon="7.10905">
        <ele>2975</ele>
        <time>2022-07-14T06:48:48Z</time>
      </trkpt>
      <trkpt lat="44.67345" lon="7.10909">
        <ele>2976</ele>
        <time>2022-07-14T06:48:57Z</time>
      </trkpt>
      <trkpt lat="44.67346" lon="7.10914">
        <ele>2978</ele>
        <time>2022-07-14T06:49:03Z</time>
      </trkpt>
      <trkpt lat="44.67346" lon="7.10919">
        <ele>2979</ele>
        <time>2022-07-14T06:49:09Z</time>
      </trkpt>
      <trkpt lat="44.67347" lon="7.10924">
        <ele>2980</ele>
        <time>2022-07-14T06:49:15Z</time>
      </trkpt>
      <trkpt lat="44.67351" lon="7.10925">
        <ele>2982</ele>
        <time>2022-07-14T06:49:32Z</time>
      </trkpt>
      <trkpt lat="44.67354" lon="7.10923">
        <ele>2983</ele>
        <time>2022-07-14T06:49:38Z</time>
      </trkpt>
      <trkpt lat="44.67357" lon="7.10926">
        <ele>2984</ele>
        <time>2022-07-14T06:49:45Z</time>
      </trkpt>
      <trkpt lat="44.6736" lon="7.10924">
        <ele>2987</ele>
        <time>2022-07-14T06:49:56Z</time>
      </trkpt>
      <trkpt lat="44.67378" lon="7.10919">
        <ele>2992</ele>
        <time>2022-07-14T06:50:31Z</time>
      </trkpt>
      <trkpt lat="44.67382" lon="7.10921">
        <ele>2994</ele>
        <time>2022-07-14T06:50:39Z</time>
      </trkpt>
      <trkpt lat="44.67384" lon="7.10925">
        <ele>2995</ele>
        <time>2022-07-14T06:50:50Z</time>
      </trkpt>
      <trkpt lat="44.67384" lon="7.1093">
        <ele>2997</ele>
        <time>2022-07-14T06:50:57Z</time>
      </trkpt>
      <trkpt lat="44.67388" lon="7.10931">
        <ele>2998</ele>
        <time>2022-07-14T06:51:06Z</time>
      </trkpt>
      <trkpt lat="44.67391" lon="7.10932">
        <ele>3000</ele>
        <time>2022-07-14T06:51:13Z</time>
      </trkpt>
      <trkpt lat="44.67404" lon="7.10943">
        <ele>3007</ele>
        <time>2022-07-14T06:51:49Z</time>
      </trkpt>
      <trkpt lat="44.67408" lon="7.10945">
        <ele>3008</ele>
        <time>2022-07-14T06:51:55Z</time>
      </trkpt>
      <trkpt lat="44.67411" lon="7.10948">
        <ele>3008</ele>
        <time>2022-07-14T06:52:05Z</time>
      </trkpt>
      <trkpt lat="44.67414" lon="7.10946">
        <ele>3008</ele>
        <time>2022-07-14T06:52:15Z</time>
      </trkpt>
      <trkpt lat="44.67417" lon="7.10944">
        <ele>3009</ele>
        <time>2022-07-14T06:52:22Z</time>
      </trkpt>
      <trkpt lat="44.67421" lon="7.10944">
        <ele>3009</ele>
        <time>2022-07-14T06:52:27Z</time>
      </trkpt>
      <trkpt lat="44.67425" lon="7.10944">
        <ele>3010</ele>
        <time>2022-07-14T06:52:32Z</time>
      </trkpt>
      <trkpt lat="44.67424" lon="7.1094">
        <ele>3011</ele>
        <time>2022-07-14T06:54:32Z</time>
      </trkpt>
      <trkpt lat="44.67427" lon="7.10936">
        <ele>3011</ele>
        <time>2022-07-14T06:54:38Z</time>
      </trkpt>
      <trkpt lat="44.6743" lon="7.10934">
        <ele>3011</ele>
        <time>2022-07-14T06:54:44Z</time>
      </trkpt>
      <trkpt lat="44.67433" lon="7.1093">
        <ele>3011</ele>
        <time>2022-07-14T06:54:50Z</time>
      </trkpt>
      <trkpt lat="44.67436" lon="7.10928">
        <ele>3012</ele>
        <time>2022-07-14T06:54:56Z</time>
      </trkpt>
      <trkpt lat="44.6744" lon="7.10928">
        <ele>3012</ele>
        <time>2022-07-14T06:55:02Z</time>
      </trkpt>
      <trkpt lat="44.67443" lon="7.1093">
        <ele>3013</ele>
        <time>2022-07-14T06:55:11Z</time>
      </trkpt>
      <trkpt lat="44.67446" lon="7.10933">
        <ele>3014</ele>
        <time>2022-07-14T06:55:18Z</time>
      </trkpt>
      <trkpt lat="44.6745" lon="7.10932">
        <ele>3014</ele>
        <time>2022-07-14T06:55:25Z</time>
      </trkpt>
      <trkpt lat="44.67453" lon="7.10934">
        <ele>3016</ele>
        <time>2022-07-14T06:55:35Z</time>
      </trkpt>
      <trkpt lat="44.67456" lon="7.10936">
        <ele>3016</ele>
        <time>2022-07-14T06:55:42Z</time>
      </trkpt>
      <trkpt lat="44.67458" lon="7.10941">
        <ele>3017</ele>
        <time>2022-07-14T06:55:49Z</time>
      </trkpt>
      <trkpt lat="44.67459" lon="7.10945">
        <ele>3018</ele>
        <time>2022-07-14T06:56:02Z</time>
      </trkpt>
      <trkpt lat="44.67463" lon="7.10947">
        <ele>3019</ele>
        <time>2022-07-14T06:56:15Z</time>
      </trkpt>
      <trkpt lat="44.67467" lon="7.10948">
        <ele>3020</ele>
        <time>2022-07-14T06:56:24Z</time>
      </trkpt>
      <trkpt lat="44.67468" lon="7.10953">
        <ele>3021</ele>
        <time>2022-07-14T06:56:29Z</time>
      </trkpt>
      <trkpt lat="44.67467" lon="7.10959">
        <ele>3021</ele>
        <time>2022-07-14T06:56:34Z</time>
      </trkpt>
      <trkpt lat="44.67467" lon="7.10964">
        <ele>3021</ele>
        <time>2022-07-14T06:56:40Z</time>
      </trkpt>
      <trkpt lat="44.6747" lon="7.10974">
        <ele>3022</ele>
        <time>2022-07-14T06:56:54Z</time>
      </trkpt>
      <trkpt lat="44.6747" lon="7.10975">
        <ele>3024</ele>
        <time>2022-07-14T06:57:51Z</time>
      </trkpt>
      <trkpt lat="44.67467" lon="7.10977">
        <ele>3023</ele>
        <time>2022-07-14T07:05:48Z</time>
      </trkpt>
      <trkpt lat="44.67467" lon="7.10976">
        <ele>3025</ele>
        <time>2022-07-14T07:06:25Z</time>
      </trkpt>
      <trkpt lat="44.6747" lon="7.10973">
        <ele>3025</ele>
        <time>2022-07-14T07:06:29Z</time>
      </trkpt>
      <trkpt lat="44.67468" lon="7.10971">
        <ele>3024</ele>
        <time>2022-07-14T07:16:22Z</time>
      </trkpt>
      <trkpt lat="44.67467" lon="7.10966">
        <ele>3024</ele>
        <time>2022-07-14T07:16:27Z</time>
      </trkpt>
      <trkpt lat="44.67464" lon="7.10956">
        <ele>3022</ele>
        <time>2022-07-14T07:16:35Z</time>
      </trkpt>
      <trkpt lat="44.67465" lon="7.10951">
        <ele>3021</ele>
        <time>2022-07-14T07:16:39Z</time>
      </trkpt>
      <trkpt lat="44.67466" lon="7.10945">
        <ele>3020</ele>
        <time>2022-07-14T07:16:46Z</time>
      </trkpt>
      <trkpt lat="44.67466" lon="7.1094">
        <ele>3019</ele>
        <time>2022-07-14T07:16:52Z</time>
      </trkpt>
      <trkpt lat="44.67463" lon="7.10938">
        <ele>3019</ele>
        <time>2022-07-14T07:16:59Z</time>
      </trkpt>
      <trkpt lat="44.6746" lon="7.10939">
        <ele>3018</ele>
        <time>2022-07-14T07:17:05Z</time>
      </trkpt>
      <trkpt lat="44.67456" lon="7.10942">
        <ele>3017</ele>
        <time>2022-07-14T07:17:13Z</time>
      </trkpt>
      <trkpt lat="44.67455" lon="7.10937">
        <ele>3016</ele>
        <time>2022-07-14T07:17:21Z</time>
      </trkpt>
      <trkpt lat="44.67451" lon="7.10936">
        <ele>3016</ele>
        <time>2022-07-14T07:17:28Z</time>
      </trkpt>
      <trkpt lat="44.67448" lon="7.10935">
        <ele>3014</ele>
        <time>2022-07-14T07:17:36Z</time>
      </trkpt>
      <trkpt lat="44.67444" lon="7.10934">
        <ele>3014</ele>
        <time>2022-07-14T07:17:43Z</time>
      </trkpt>
      <trkpt lat="44.67441" lon="7.10931">
        <ele>3013</ele>
        <time>2022-07-14T07:17:49Z</time>
      </trkpt>
      <trkpt lat="44.67438" lon="7.10928">
        <ele>3012</ele>
        <time>2022-07-14T07:17:58Z</time>
      </trkpt>
      <trkpt lat="44.67431" lon="7.10933">
        <ele>3010</ele>
        <time>2022-07-14T07:18:10Z</time>
      </trkpt>
      <trkpt lat="44.67428" lon="7.10932">
        <ele>3009</ele>
        <time>2022-07-14T07:18:17Z</time>
      </trkpt>
      <trkpt lat="44.67424" lon="7.10932">
        <ele>3009</ele>
        <time>2022-07-14T07:18:22Z</time>
      </trkpt>
      <trkpt lat="44.67423" lon="7.10927">
        <ele>3007</ele>
        <time>2022-07-14T07:18:28Z</time>
      </trkpt>
      <trkpt lat="44.6742" lon="7.10925">
        <ele>3006</ele>
        <time>2022-07-14T07:18:34Z</time>
      </trkpt>
      <trkpt lat="44.67412" lon="7.10924">
        <ele>3006</ele>
        <time>2022-07-14T07:18:45Z</time>
      </trkpt>
      <trkpt lat="44.67409" lon="7.10922">
        <ele>3006</ele>
        <time>2022-07-14T07:18:50Z</time>
      </trkpt>
      <trkpt lat="44.67406" lon="7.10921">
        <ele>3006</ele>
        <time>2022-07-14T07:18:55Z</time>
      </trkpt>
      <trkpt lat="44.67402" lon="7.10922">
        <ele>3005</ele>
        <time>2022-07-14T07:19:00Z</time>
      </trkpt>
      <trkpt lat="44.67398" lon="7.10922">
        <ele>3005</ele>
        <time>2022-07-14T07:19:05Z</time>
      </trkpt>
      <trkpt lat="44.67395" lon="7.10925">
        <ele>3005</ele>
        <time>2022-07-14T07:19:11Z</time>
      </trkpt>
      <trkpt lat="44.67393" lon="7.1092">
        <ele>3004</ele>
        <time>2022-07-14T07:19:21Z</time>
      </trkpt>
      <trkpt lat="44.6739" lon="7.10917">
        <ele>3002</ele>
        <time>2022-07-14T07:19:27Z</time>
      </trkpt>
      <trkpt lat="44.67387" lon="7.10913">
        <ele>3000</ele>
        <time>2022-07-14T07:19:34Z</time>
      </trkpt>
      <trkpt lat="44.67384" lon="7.10913">
        <ele>2999</ele>
        <time>2022-07-14T07:19:40Z</time>
      </trkpt>
      <trkpt lat="44.6738" lon="7.10913">
        <ele>2998</ele>
        <time>2022-07-14T07:19:45Z</time>
      </trkpt>
      <trkpt lat="44.67377" lon="7.10916">
        <ele>2997</ele>
        <time>2022-07-14T07:19:52Z</time>
      </trkpt>
      <trkpt lat="44.67374" lon="7.10919">
        <ele>2997</ele>
        <time>2022-07-14T07:19:57Z</time>
      </trkpt>
      <trkpt lat="44.67366" lon="7.1092">
        <ele>2994</ele>
        <time>2022-07-14T07:20:12Z</time>
      </trkpt>
      <trkpt lat="44.67364" lon="7.10917">
        <ele>2993</ele>
        <time>2022-07-14T07:20:19Z</time>
      </trkpt>
      <trkpt lat="44.67362" lon="7.10922">
        <ele>2992</ele>
        <time>2022-07-14T07:20:25Z</time>
      </trkpt>
      <trkpt lat="44.67356" lon="7.10928">
        <ele>2990</ele>
        <time>2022-07-14T07:20:49Z</time>
      </trkpt>
      <trkpt lat="44.67352" lon="7.10928">
        <ele>2989</ele>
        <time>2022-07-14T07:20:55Z</time>
      </trkpt>
      <trkpt lat="44.67352" lon="7.10923">
        <ele>2988</ele>
        <time>2022-07-14T07:21:01Z</time>
      </trkpt>
      <trkpt lat="44.67346" lon="7.10928">
        <ele>2986</ele>
        <time>2022-07-14T07:21:17Z</time>
      </trkpt>
      <trkpt lat="44.67348" lon="7.10924">
        <ele>2986</ele>
        <time>2022-07-14T07:22:00Z</time>
      </trkpt>
      <trkpt lat="44.67346" lon="7.1092">
        <ele>2986</ele>
        <time>2022-07-14T07:22:08Z</time>
      </trkpt>
      <trkpt lat="44.67343" lon="7.10916">
        <ele>2983</ele>
        <time>2022-07-14T07:22:19Z</time>
      </trkpt>
      <trkpt lat="44.67339" lon="7.10907">
        <ele>2980</ele>
        <time>2022-07-14T07:22:29Z</time>
      </trkpt>
      <trkpt lat="44.67339" lon="7.10901">
        <ele>2979</ele>
        <time>2022-07-14T07:22:34Z</time>
      </trkpt>
      <trkpt lat="44.67338" lon="7.10896">
        <ele>2977</ele>
        <time>2022-07-14T07:22:40Z</time>
      </trkpt>
      <trkpt lat="44.67335" lon="7.10893">
        <ele>2976</ele>
        <time>2022-07-14T07:22:44Z</time>
      </trkpt>
      <trkpt lat="44.67333" lon="7.10889">
        <ele>2975</ele>
        <time>2022-07-14T07:22:50Z</time>
      </trkpt>
      <trkpt lat="44.6733" lon="7.1089">
        <ele>2974</ele>
        <time>2022-07-14T07:22:56Z</time>
      </trkpt>
      <trkpt lat="44.67326" lon="7.10888">
        <ele>2973</ele>
        <time>2022-07-14T07:23:02Z</time>
      </trkpt>
      <trkpt lat="44.67323" lon="7.10893">
        <ele>2972</ele>
        <time>2022-07-14T07:23:14Z</time>
      </trkpt>
      <trkpt lat="44.6732" lon="7.10894">
        <ele>2972</ele>
        <time>2022-07-14T07:23:25Z</time>
      </trkpt>
      <trkpt lat="44.67319" lon="7.10888">
        <ele>2970</ele>
        <time>2022-07-14T07:23:39Z</time>
      </trkpt>
      <trkpt lat="44.67315" lon="7.10885">
        <ele>2968</ele>
        <time>2022-07-14T07:23:53Z</time>
      </trkpt>
      <trkpt lat="44.67312" lon="7.10885">
        <ele>2966</ele>
        <time>2022-07-14T07:24:17Z</time>
      </trkpt>
      <trkpt lat="44.67309" lon="7.10887">
        <ele>2966</ele>
        <time>2022-07-14T07:24:21Z</time>
      </trkpt>
      <trkpt lat="44.67305" lon="7.10886">
        <ele>2965</ele>
        <time>2022-07-14T07:24:29Z</time>
      </trkpt>
      <trkpt lat="44.67302" lon="7.10887">
        <ele>2965</ele>
        <time>2022-07-14T07:24:43Z</time>
      </trkpt>
      <trkpt lat="44.67298" lon="7.10886">
        <ele>2964</ele>
        <time>2022-07-14T07:24:49Z</time>
      </trkpt>
      <trkpt lat="44.67297" lon="7.10884">
        <ele>2963</ele>
        <time>2022-07-14T07:25:11Z</time>
      </trkpt>
      <trkpt lat="44.67295" lon="7.1088">
        <ele>2958</ele>
        <time>2022-07-14T07:25:24Z</time>
      </trkpt>
      <trkpt lat="44.67292" lon="7.10877">
        <ele>2957</ele>
        <time>2022-07-14T07:25:31Z</time>
      </trkpt>
      <trkpt lat="44.67291" lon="7.10872">
        <ele>2955</ele>
        <time>2022-07-14T07:25:42Z</time>
      </trkpt>
      <trkpt lat="44.67291" lon="7.10867">
        <ele>2954</ele>
        <time>2022-07-14T07:25:50Z</time>
      </trkpt>
      <trkpt lat="44.67288" lon="7.10864">
        <ele>2952</ele>
        <time>2022-07-14T07:25:56Z</time>
      </trkpt>
      <trkpt lat="44.67286" lon="7.10867">
        <ele>2951</ele>
        <time>2022-07-14T07:26:04Z</time>
      </trkpt>
      <trkpt lat="44.67285" lon="7.10862">
        <ele>2950</ele>
        <time>2022-07-14T07:26:09Z</time>
      </trkpt>
      <trkpt lat="44.67281" lon="7.10863">
        <ele>2949</ele>
        <time>2022-07-14T07:26:17Z</time>
      </trkpt>
      <trkpt lat="44.67278" lon="7.1086">
        <ele>2948</ele>
        <time>2022-07-14T07:26:27Z</time>
      </trkpt>
      <trkpt lat="44.67279" lon="7.10856">
        <ele>2947</ele>
        <time>2022-07-14T07:26:35Z</time>
      </trkpt>
      <trkpt lat="44.67277" lon="7.10851">
        <ele>2944</ele>
        <time>2022-07-14T07:26:45Z</time>
      </trkpt>
      <trkpt lat="44.67278" lon="7.10843">
        <ele>2943</ele>
        <time>2022-07-14T07:26:54Z</time>
      </trkpt>
      <trkpt lat="44.67278" lon="7.10836">
        <ele>2940</ele>
        <time>2022-07-14T07:27:01Z</time>
      </trkpt>
      <trkpt lat="44.67271" lon="7.10842">
        <ele>2937</ele>
        <time>2022-07-14T07:27:08Z</time>
      </trkpt>
      <trkpt lat="44.67269" lon="7.10846">
        <ele>2937</ele>
        <time>2022-07-14T07:27:17Z</time>
      </trkpt>
      <trkpt lat="44.67266" lon="7.10844">
        <ele>2937</ele>
        <time>2022-07-14T07:27:22Z</time>
      </trkpt>
      <trkpt lat="44.67266" lon="7.10843">
        <ele>2936</ele>
        <time>2022-07-14T07:27:39Z</time>
      </trkpt>
      <trkpt lat="44.67266" lon="7.10838">
        <ele>2934</ele>
        <time>2022-07-14T07:27:55Z</time>
      </trkpt>
      <trkpt lat="44.67264" lon="7.10834">
        <ele>2929</ele>
        <time>2022-07-14T07:28:04Z</time>
      </trkpt>
      <trkpt lat="44.67263" lon="7.10829">
        <ele>2929</ele>
        <time>2022-07-14T07:28:14Z</time>
      </trkpt>
      <trkpt lat="44.67259" lon="7.10828">
        <ele>2925</ele>
        <time>2022-07-14T07:28:39Z</time>
      </trkpt>
      <trkpt lat="44.67261" lon="7.10823">
        <ele>2925</ele>
        <time>2022-07-14T07:28:48Z</time>
      </trkpt>
      <trkpt lat="44.67258" lon="7.10822">
        <ele>2924</ele>
        <time>2022-07-14T07:28:59Z</time>
      </trkpt>
      <trkpt lat="44.67256" lon="7.10817">
        <ele>2921</ele>
        <time>2022-07-14T07:29:05Z</time>
      </trkpt>
      <trkpt lat="44.67255" lon="7.10812">
        <ele>2920</ele>
        <time>2022-07-14T07:29:19Z</time>
      </trkpt>
      <trkpt lat="44.67251" lon="7.1081">
        <ele>2918</ele>
        <time>2022-07-14T07:29:29Z</time>
      </trkpt>
      <trkpt lat="44.67248" lon="7.10813">
        <ele>2916</ele>
        <time>2022-07-14T07:29:46Z</time>
      </trkpt>
      <trkpt lat="44.67245" lon="7.10817">
        <ele>2916</ele>
        <time>2022-07-14T07:29:52Z</time>
      </trkpt>
      <trkpt lat="44.67243" lon="7.10813">
        <ele>2913</ele>
        <time>2022-07-14T07:30:03Z</time>
      </trkpt>
      <trkpt lat="44.67239" lon="7.10814">
        <ele>2911</ele>
        <time>2022-07-14T07:30:16Z</time>
      </trkpt>
      <trkpt lat="44.67232" lon="7.10816">
        <ele>2910</ele>
        <time>2022-07-14T07:30:29Z</time>
      </trkpt>
      <trkpt lat="44.67228" lon="7.10816">
        <ele>2909</ele>
        <time>2022-07-14T07:30:39Z</time>
      </trkpt>
      <trkpt lat="44.67225" lon="7.10817">
        <ele>2908</ele>
        <time>2022-07-14T07:30:48Z</time>
      </trkpt>
      <trkpt lat="44.67221" lon="7.10816">
        <ele>2906</ele>
        <time>2022-07-14T07:31:00Z</time>
      </trkpt>
      <trkpt lat="44.67218" lon="7.10816">
        <ele>2903</ele>
        <time>2022-07-14T07:31:08Z</time>
      </trkpt>
      <trkpt lat="44.67217" lon="7.10811">
        <ele>2901</ele>
        <time>2022-07-14T07:31:19Z</time>
      </trkpt>
      <trkpt lat="44.67214" lon="7.10814">
        <ele>2900</ele>
        <time>2022-07-14T07:31:24Z</time>
      </trkpt>
      <trkpt lat="44.6721" lon="7.10816">
        <ele>2897</ele>
        <time>2022-07-14T07:31:31Z</time>
      </trkpt>
      <trkpt lat="44.67203" lon="7.10816">
        <ele>2892</ele>
        <time>2022-07-14T07:31:49Z</time>
      </trkpt>
      <trkpt lat="44.67199" lon="7.10816">
        <ele>2891</ele>
        <time>2022-07-14T07:31:57Z</time>
      </trkpt>
      <trkpt lat="44.67201" lon="7.1081">
        <ele>2890</ele>
        <time>2022-07-14T07:32:03Z</time>
      </trkpt>
      <trkpt lat="44.67203" lon="7.10805">
        <ele>2888</ele>
        <time>2022-07-14T07:32:09Z</time>
      </trkpt>
      <trkpt lat="44.67203" lon="7.108">
        <ele>2887</ele>
        <time>2022-07-14T07:32:15Z</time>
      </trkpt>
      <trkpt lat="44.67198" lon="7.10801">
        <ele>2884</ele>
        <time>2022-07-14T07:32:29Z</time>
      </trkpt>
      <trkpt lat="44.67194" lon="7.10796">
        <ele>2881</ele>
        <time>2022-07-14T07:32:31Z</time>
      </trkpt>
      <trkpt lat="44.67193" lon="7.10801">
        <ele>2881</ele>
        <time>2022-07-14T07:32:34Z</time>
      </trkpt>
      <trkpt lat="44.67191" lon="7.10806">
        <ele>2881</ele>
        <time>2022-07-14T07:32:38Z</time>
      </trkpt>
      <trkpt lat="44.67187" lon="7.10808">
        <ele>2882</ele>
        <time>2022-07-14T07:32:43Z</time>
      </trkpt>
      <trkpt lat="44.67185" lon="7.10811">
        <ele>2884</ele>
        <time>2022-07-14T07:32:48Z</time>
      </trkpt>
      <trkpt lat="44.67183" lon="7.10807">
        <ele>2883</ele>
        <time>2022-07-14T07:32:58Z</time>
      </trkpt>
      <trkpt lat="44.67185" lon="7.10803">
        <ele>2883</ele>
        <time>2022-07-14T07:33:01Z</time>
      </trkpt>
      <trkpt lat="44.67187" lon="7.10798">
        <ele>2879</ele>
        <time>2022-07-14T07:33:07Z</time>
      </trkpt>
      <trkpt lat="44.67188" lon="7.10794">
        <ele>2876</ele>
        <time>2022-07-14T07:33:19Z</time>
      </trkpt>
      <trkpt lat="44.67187" lon="7.10789">
        <ele>2872</ele>
        <time>2022-07-14T07:33:25Z</time>
      </trkpt>
      <trkpt lat="44.6718" lon="7.10793">
        <ele>2868</ele>
        <time>2022-07-14T07:33:38Z</time>
      </trkpt>
      <trkpt lat="44.67176" lon="7.10792">
        <ele>2867</ele>
        <time>2022-07-14T07:33:47Z</time>
      </trkpt>
      <trkpt lat="44.67174" lon="7.1079">
        <ele>2865</ele>
        <time>2022-07-14T07:34:04Z</time>
      </trkpt>
      <trkpt lat="44.67171" lon="7.10792">
        <ele>2861</ele>
        <time>2022-07-14T07:34:14Z</time>
      </trkpt>
      <trkpt lat="44.67167" lon="7.1079">
        <ele>2860</ele>
        <time>2022-07-14T07:34:23Z</time>
      </trkpt>
      <trkpt lat="44.67166" lon="7.10786">
        <ele>2857</ele>
        <time>2022-07-14T07:34:33Z</time>
      </trkpt>
      <trkpt lat="44.67166" lon="7.10781">
        <ele>2856</ele>
        <time>2022-07-14T07:34:45Z</time>
      </trkpt>
      <trkpt lat="44.67164" lon="7.10777">
        <ele>2852</ele>
        <time>2022-07-14T07:34:58Z</time>
      </trkpt>
      <trkpt lat="44.6716" lon="7.10778">
        <ele>2852</ele>
        <time>2022-07-14T07:35:05Z</time>
      </trkpt>
      <trkpt lat="44.67157" lon="7.1078">
        <ele>2850</ele>
        <time>2022-07-14T07:35:11Z</time>
      </trkpt>
      <trkpt lat="44.67153" lon="7.10779">
        <ele>2850</ele>
        <time>2022-07-14T07:35:20Z</time>
      </trkpt>
      <trkpt lat="44.6715" lon="7.1078">
        <ele>2848</ele>
        <time>2022-07-14T07:35:26Z</time>
      </trkpt>
      <trkpt lat="44.67148" lon="7.10777">
        <ele>2847</ele>
        <time>2022-07-14T07:35:40Z</time>
      </trkpt>
      <trkpt lat="44.67145" lon="7.10774">
        <ele>2843</ele>
        <time>2022-07-14T07:35:53Z</time>
      </trkpt>
      <trkpt lat="44.67141" lon="7.10776">
        <ele>2842</ele>
        <time>2022-07-14T07:35:59Z</time>
      </trkpt>
      <trkpt lat="44.67141" lon="7.10771">
        <ele>2842</ele>
        <time>2022-07-14T07:36:06Z</time>
      </trkpt>
      <trkpt lat="44.67139" lon="7.10767">
        <ele>2840</ele>
        <time>2022-07-14T07:36:16Z</time>
      </trkpt>
      <trkpt lat="44.67132" lon="7.10767">
        <ele>2838</ele>
        <time>2022-07-14T07:36:39Z</time>
      </trkpt>
      <trkpt lat="44.67131" lon="7.10765">
        <ele>2837</ele>
        <time>2022-07-14T07:36:48Z</time>
      </trkpt>
      <trkpt lat="44.67133" lon="7.1076">
        <ele>2836</ele>
        <time>2022-07-14T07:36:57Z</time>
      </trkpt>
      <trkpt lat="44.6713" lon="7.10758">
        <ele>2829</ele>
        <time>2022-07-14T07:37:12Z</time>
      </trkpt>
      <trkpt lat="44.67128" lon="7.10754">
        <ele>2828</ele>
        <time>2022-07-14T07:37:18Z</time>
      </trkpt>
      <trkpt lat="44.67129" lon="7.10749">
        <ele>2827</ele>
        <time>2022-07-14T07:37:24Z</time>
      </trkpt>
      <trkpt lat="44.67124" lon="7.10749">
        <ele>2824</ele>
        <time>2022-07-14T07:37:33Z</time>
      </trkpt>
      <trkpt lat="44.67127" lon="7.10745">
        <ele>2821</ele>
        <time>2022-07-14T07:37:51Z</time>
      </trkpt>
      <trkpt lat="44.67124" lon="7.10742">
        <ele>2818</ele>
        <time>2022-07-14T07:38:03Z</time>
      </trkpt>
      <trkpt lat="44.67124" lon="7.10737">
        <ele>2816</ele>
        <time>2022-07-14T07:38:09Z</time>
      </trkpt>
      <trkpt lat="44.67126" lon="7.10732">
        <ele>2815</ele>
        <time>2022-07-14T07:38:16Z</time>
      </trkpt>
      <trkpt lat="44.67126" lon="7.10728">
        <ele>2813</ele>
        <time>2022-07-14T07:38:26Z</time>
      </trkpt>
      <trkpt lat="44.67123" lon="7.1073">
        <ele>2813</ele>
        <time>2022-07-14T07:38:31Z</time>
      </trkpt>
      <trkpt lat="44.67121" lon="7.10725">
        <ele>2810</ele>
        <time>2022-07-14T07:38:41Z</time>
      </trkpt>
      <trkpt lat="44.67117" lon="7.10725">
        <ele>2809</ele>
        <time>2022-07-14T07:38:48Z</time>
      </trkpt>
      <trkpt lat="44.67114" lon="7.10722">
        <ele>2808</ele>
        <time>2022-07-14T07:38:55Z</time>
      </trkpt>
      <trkpt lat="44.67111" lon="7.10724">
        <ele>2806</ele>
        <time>2022-07-14T07:39:00Z</time>
      </trkpt>
      <trkpt lat="44.67108" lon="7.10725">
        <ele>2805</ele>
        <time>2022-07-14T07:39:05Z</time>
      </trkpt>
      <trkpt lat="44.67108" lon="7.1072">
        <ele>2804</ele>
        <time>2022-07-14T07:39:13Z</time>
      </trkpt>
      <trkpt lat="44.67107" lon="7.10717">
        <ele>2799</ele>
        <time>2022-07-14T07:39:25Z</time>
      </trkpt>
      <trkpt lat="44.67108" lon="7.10712">
        <ele>2798</ele>
        <time>2022-07-14T07:39:31Z</time>
      </trkpt>
      <trkpt lat="44.67112" lon="7.10697">
        <ele>2794</ele>
        <time>2022-07-14T07:39:46Z</time>
      </trkpt>
      <trkpt lat="44.67112" lon="7.10692">
        <ele>2792</ele>
        <time>2022-07-14T07:39:53Z</time>
      </trkpt>
      <trkpt lat="44.67108" lon="7.10691">
        <ele>2791</ele>
        <time>2022-07-14T07:40:03Z</time>
      </trkpt>
      <trkpt lat="44.67105" lon="7.10692">
        <ele>2789</ele>
        <time>2022-07-14T07:40:08Z</time>
      </trkpt>
      <trkpt lat="44.67102" lon="7.10688">
        <ele>2788</ele>
        <time>2022-07-14T07:40:16Z</time>
      </trkpt>
      <trkpt lat="44.67102" lon="7.10683">
        <ele>2786</ele>
        <time>2022-07-14T07:40:23Z</time>
      </trkpt>
      <trkpt lat="44.67099" lon="7.10684">
        <ele>2785</ele>
        <time>2022-07-14T07:40:28Z</time>
      </trkpt>
      <trkpt lat="44.67091" lon="7.10685">
        <ele>2781</ele>
        <time>2022-07-14T07:40:39Z</time>
      </trkpt>
      <trkpt lat="44.67087" lon="7.10688">
        <ele>2780</ele>
        <time>2022-07-14T07:40:45Z</time>
      </trkpt>
      <trkpt lat="44.67084" lon="7.10687">
        <ele>2779</ele>
        <time>2022-07-14T07:40:51Z</time>
      </trkpt>
      <trkpt lat="44.67084" lon="7.10682">
        <ele>2778</ele>
        <time>2022-07-14T07:40:59Z</time>
      </trkpt>
      <trkpt lat="44.67086" lon="7.10678">
        <ele>2775</ele>
        <time>2022-07-14T07:41:03Z</time>
      </trkpt>
      <trkpt lat="44.67083" lon="7.10676">
        <ele>2774</ele>
        <time>2022-07-14T07:41:12Z</time>
      </trkpt>
      <trkpt lat="44.67079" lon="7.10678">
        <ele>2773</ele>
        <time>2022-07-14T07:41:19Z</time>
      </trkpt>
      <trkpt lat="44.67077" lon="7.10675">
        <ele>2770</ele>
        <time>2022-07-14T07:41:28Z</time>
      </trkpt>
      <trkpt lat="44.67079" lon="7.10666">
        <ele>2766</ele>
        <time>2022-07-14T07:41:44Z</time>
      </trkpt>
      <trkpt lat="44.67078" lon="7.10661">
        <ele>2765</ele>
        <time>2022-07-14T07:41:54Z</time>
      </trkpt>
      <trkpt lat="44.6708" lon="7.10656">
        <ele>2762</ele>
        <time>2022-07-14T07:42:13Z</time>
      </trkpt>
      <trkpt lat="44.67077" lon="7.10653">
        <ele>2761</ele>
        <time>2022-07-14T07:42:20Z</time>
      </trkpt>
      <trkpt lat="44.67073" lon="7.10653">
        <ele>2759</ele>
        <time>2022-07-14T07:42:24Z</time>
      </trkpt>
      <trkpt lat="44.67066" lon="7.10652">
        <ele>2758</ele>
        <time>2022-07-14T07:42:38Z</time>
      </trkpt>
      <trkpt lat="44.67062" lon="7.10653">
        <ele>2757</ele>
        <time>2022-07-14T07:42:43Z</time>
      </trkpt>
      <trkpt lat="44.6706" lon="7.10649">
        <ele>2756</ele>
        <time>2022-07-14T07:42:50Z</time>
      </trkpt>
      <trkpt lat="44.67062" lon="7.1064">
        <ele>2751</ele>
        <time>2022-07-14T07:43:03Z</time>
      </trkpt>
      <trkpt lat="44.6706" lon="7.10635">
        <ele>2750</ele>
        <time>2022-07-14T07:43:18Z</time>
      </trkpt>
      <trkpt lat="44.67058" lon="7.10631">
        <ele>2745</ele>
        <time>2022-07-14T07:43:28Z</time>
      </trkpt>
      <trkpt lat="44.67051" lon="7.10628">
        <ele>2743</ele>
        <time>2022-07-14T07:43:39Z</time>
      </trkpt>
      <trkpt lat="44.67048" lon="7.10628">
        <ele>2742</ele>
        <time>2022-07-14T07:43:45Z</time>
      </trkpt>
      <trkpt lat="44.67044" lon="7.10627">
        <ele>2741</ele>
        <time>2022-07-14T07:43:52Z</time>
      </trkpt>
      <trkpt lat="44.67041" lon="7.10626">
        <ele>2741</ele>
        <time>2022-07-14T07:43:59Z</time>
      </trkpt>
      <trkpt lat="44.6704" lon="7.10621">
        <ele>2740</ele>
        <time>2022-07-14T07:44:10Z</time>
      </trkpt>
      <trkpt lat="44.67033" lon="7.10617">
        <ele>2737</ele>
        <time>2022-07-14T07:44:27Z</time>
      </trkpt>
      <trkpt lat="44.67029" lon="7.10619">
        <ele>2736</ele>
        <time>2022-07-14T07:44:33Z</time>
      </trkpt>
      <trkpt lat="44.67027" lon="7.10616">
        <ele>2736</ele>
        <time>2022-07-14T07:44:43Z</time>
      </trkpt>
      <trkpt lat="44.67015" lon="7.10614">
        <ele>2729</ele>
        <time>2022-07-14T07:45:07Z</time>
      </trkpt>
      <trkpt lat="44.67013" lon="7.1061">
        <ele>2728</ele>
        <time>2022-07-14T07:45:23Z</time>
      </trkpt>
      <trkpt lat="44.67009" lon="7.10611">
        <ele>2727</ele>
        <time>2022-07-14T07:45:28Z</time>
      </trkpt>
      <trkpt lat="44.67002" lon="7.10609">
        <ele>2725</ele>
        <time>2022-07-14T07:45:40Z</time>
      </trkpt>
      <trkpt lat="44.66998" lon="7.1061">
        <ele>2725</ele>
        <time>2022-07-14T07:45:46Z</time>
      </trkpt>
      <trkpt lat="44.66995" lon="7.10611">
        <ele>2724</ele>
        <time>2022-07-14T07:45:52Z</time>
      </trkpt>
      <trkpt lat="44.66992" lon="7.10615">
        <ele>2723</ele>
        <time>2022-07-14T07:45:57Z</time>
      </trkpt>
      <trkpt lat="44.66992" lon="7.10621">
        <ele>2721</ele>
        <time>2022-07-14T07:46:03Z</time>
      </trkpt>
      <trkpt lat="44.66985" lon="7.10625">
        <ele>2719</ele>
        <time>2022-07-14T07:46:17Z</time>
      </trkpt>
      <trkpt lat="44.66984" lon="7.10621">
        <ele>2719</ele>
        <time>2022-07-14T07:46:21Z</time>
      </trkpt>
      <trkpt lat="44.66984" lon="7.10605">
        <ele>2715</ele>
        <time>2022-07-14T07:46:42Z</time>
      </trkpt>
      <trkpt lat="44.66981" lon="7.10603">
        <ele>2714</ele>
        <time>2022-07-14T07:46:52Z</time>
      </trkpt>
      <trkpt lat="44.66978" lon="7.10603">
        <ele>2712</ele>
        <time>2022-07-14T07:46:58Z</time>
      </trkpt>
      <trkpt lat="44.66975" lon="7.10607">
        <ele>2711</ele>
        <time>2022-07-14T07:47:04Z</time>
      </trkpt>
      <trkpt lat="44.66972" lon="7.10608">
        <ele>2710</ele>
        <time>2022-07-14T07:47:10Z</time>
      </trkpt>
      <trkpt lat="44.66969" lon="7.10612">
        <ele>2711</ele>
        <time>2022-07-14T07:47:15Z</time>
      </trkpt>
      <trkpt lat="44.66962" lon="7.10615">
        <ele>2712</ele>
        <time>2022-07-14T07:47:31Z</time>
      </trkpt>
      <trkpt lat="44.66961" lon="7.10611">
        <ele>2711</ele>
        <time>2022-07-14T07:47:39Z</time>
      </trkpt>
      <trkpt lat="44.66957" lon="7.10608">
        <ele>2709</ele>
        <time>2022-07-14T07:47:52Z</time>
      </trkpt>
      <trkpt lat="44.66954" lon="7.10612">
        <ele>2707</ele>
        <time>2022-07-14T07:47:59Z</time>
      </trkpt>
      <trkpt lat="44.66951" lon="7.10616">
        <ele>2705</ele>
        <time>2022-07-14T07:48:06Z</time>
      </trkpt>
      <trkpt lat="44.66948" lon="7.10619">
        <ele>2705</ele>
        <time>2022-07-14T07:48:15Z</time>
      </trkpt>
      <trkpt lat="44.66945" lon="7.10621">
        <ele>2705</ele>
        <time>2022-07-14T07:48:22Z</time>
      </trkpt>
      <trkpt lat="44.66941" lon="7.10624">
        <ele>2705</ele>
        <time>2022-07-14T07:48:27Z</time>
      </trkpt>
      <trkpt lat="44.66938" lon="7.10622">
        <ele>2707</ele>
        <time>2022-07-14T07:48:36Z</time>
      </trkpt>
      <trkpt lat="44.66931" lon="7.10624">
        <ele>2707</ele>
        <time>2022-07-14T07:48:48Z</time>
      </trkpt>
      <trkpt lat="44.66928" lon="7.10626">
        <ele>2706</ele>
        <time>2022-07-14T07:48:53Z</time>
      </trkpt>
      <trkpt lat="44.66929" lon="7.10617">
        <ele>2705</ele>
        <time>2022-07-14T07:49:01Z</time>
      </trkpt>
      <trkpt lat="44.66931" lon="7.10612">
        <ele>2702</ele>
        <time>2022-07-14T07:49:06Z</time>
      </trkpt>
      <trkpt lat="44.66928" lon="7.10609">
        <ele>2700</ele>
        <time>2022-07-14T07:49:19Z</time>
      </trkpt>
      <trkpt lat="44.66924" lon="7.10609">
        <ele>2698</ele>
        <time>2022-07-14T07:49:25Z</time>
      </trkpt>
      <trkpt lat="44.66922" lon="7.10605">
        <ele>2697</ele>
        <time>2022-07-14T07:49:29Z</time>
      </trkpt>
      <trkpt lat="44.66918" lon="7.10603">
        <ele>2696</ele>
        <time>2022-07-14T07:49:34Z</time>
      </trkpt>
      <trkpt lat="44.66915" lon="7.10602">
        <ele>2696</ele>
        <time>2022-07-14T07:49:39Z</time>
      </trkpt>
      <trkpt lat="44.66908" lon="7.10604">
        <ele>2693</ele>
        <time>2022-07-14T07:49:52Z</time>
      </trkpt>
      <trkpt lat="44.66897" lon="7.10607">
        <ele>2692</ele>
        <time>2022-07-14T07:50:07Z</time>
      </trkpt>
      <trkpt lat="44.66893" lon="7.10609">
        <ele>2692</ele>
        <time>2022-07-14T07:50:13Z</time>
      </trkpt>
      <trkpt lat="44.66891" lon="7.10614">
        <ele>2692</ele>
        <time>2022-07-14T07:50:19Z</time>
      </trkpt>
      <trkpt lat="44.66884" lon="7.10614">
        <ele>2690</ele>
        <time>2022-07-14T07:50:29Z</time>
      </trkpt>
      <trkpt lat="44.6688" lon="7.10617">
        <ele>2689</ele>
        <time>2022-07-14T07:50:35Z</time>
      </trkpt>
      <trkpt lat="44.66878" lon="7.10612">
        <ele>2689</ele>
        <time>2022-07-14T07:50:40Z</time>
      </trkpt>
      <trkpt lat="44.66875" lon="7.10615">
        <ele>2687</ele>
        <time>2022-07-14T07:50:46Z</time>
      </trkpt>
      <trkpt lat="44.66872" lon="7.10614">
        <ele>2687</ele>
        <time>2022-07-14T07:50:50Z</time>
      </trkpt>
      <trkpt lat="44.66871" lon="7.10609">
        <ele>2686</ele>
        <time>2022-07-14T07:50:58Z</time>
      </trkpt>
      <trkpt lat="44.66874" lon="7.10599">
        <ele>2682</ele>
        <time>2022-07-14T07:51:09Z</time>
      </trkpt>
      <trkpt lat="44.66876" lon="7.10595">
        <ele>2681</ele>
        <time>2022-07-14T07:51:14Z</time>
      </trkpt>
      <trkpt lat="44.66876" lon="7.1059">
        <ele>2678</ele>
        <time>2022-07-14T07:51:25Z</time>
      </trkpt>
      <trkpt lat="44.66879" lon="7.10587">
        <ele>2676</ele>
        <time>2022-07-14T07:51:42Z</time>
      </trkpt>
      <trkpt lat="44.66878" lon="7.10582">
        <ele>2673</ele>
        <time>2022-07-14T07:51:49Z</time>
      </trkpt>
      <trkpt lat="44.66877" lon="7.10576">
        <ele>2670</ele>
        <time>2022-07-14T07:52:00Z</time>
      </trkpt>
      <trkpt lat="44.66878" lon="7.10571">
        <ele>2667</ele>
        <time>2022-07-14T07:52:07Z</time>
      </trkpt>
      <trkpt lat="44.6688" lon="7.10568">
        <ele>2665</ele>
        <time>2022-07-14T07:52:18Z</time>
      </trkpt>
      <trkpt lat="44.66884" lon="7.10567">
        <ele>2664</ele>
        <time>2022-07-14T07:52:25Z</time>
      </trkpt>
      <trkpt lat="44.66884" lon="7.10562">
        <ele>2662</ele>
        <time>2022-07-14T07:54:11Z</time>
      </trkpt>
      <trkpt lat="44.66889" lon="7.1056">
        <ele>2662</ele>
        <time>2022-07-14T07:54:18Z</time>
      </trkpt>
      <trkpt lat="44.6689" lon="7.10555">
        <ele>2660</ele>
        <time>2022-07-14T07:54:26Z</time>
      </trkpt>
      <trkpt lat="44.66891" lon="7.1055">
        <ele>2658</ele>
        <time>2022-07-14T07:54:33Z</time>
      </trkpt>
      <trkpt lat="44.66895" lon="7.1055">
        <ele>2658</ele>
        <time>2022-07-14T07:54:37Z</time>
      </trkpt>
      <trkpt lat="44.66899" lon="7.1055">
        <ele>2658</ele>
        <time>2022-07-14T07:54:42Z</time>
      </trkpt>
      <trkpt lat="44.66902" lon="7.10546">
        <ele>2658</ele>
        <time>2022-07-14T07:54:50Z</time>
      </trkpt>
      <trkpt lat="44.66901" lon="7.10539">
        <ele>2657</ele>
        <time>2022-07-14T07:54:57Z</time>
      </trkpt>
      <trkpt lat="44.66904" lon="7.10533">
        <ele>2657</ele>
        <time>2022-07-14T07:55:04Z</time>
      </trkpt>
      <trkpt lat="44.66908" lon="7.10532">
        <ele>2655</ele>
        <time>2022-07-14T07:55:11Z</time>
      </trkpt>
      <trkpt lat="44.6691" lon="7.10526">
        <ele>2652</ele>
        <time>2022-07-14T07:55:17Z</time>
      </trkpt>
      <trkpt lat="44.66909" lon="7.10521">
        <ele>2651</ele>
        <time>2022-07-14T07:55:25Z</time>
      </trkpt>
      <trkpt lat="44.66912" lon="7.10518">
        <ele>2650</ele>
        <time>2022-07-14T07:55:31Z</time>
      </trkpt>
      <trkpt lat="44.66912" lon="7.10513">
        <ele>2650</ele>
        <time>2022-07-14T07:55:46Z</time>
      </trkpt>
      <trkpt lat="44.66912" lon="7.10507">
        <ele>2648</ele>
        <time>2022-07-14T07:55:53Z</time>
      </trkpt>
      <trkpt lat="44.66912" lon="7.10501">
        <ele>2647</ele>
        <time>2022-07-14T07:55:57Z</time>
      </trkpt>
      <trkpt lat="44.66916" lon="7.105">
        <ele>2646</ele>
        <time>2022-07-14T07:56:03Z</time>
      </trkpt>
      <trkpt lat="44.66921" lon="7.10504">
        <ele>2645</ele>
        <time>2022-07-14T07:56:08Z</time>
      </trkpt>
      <trkpt lat="44.66925" lon="7.10502">
        <ele>2643</ele>
        <time>2022-07-14T07:56:12Z</time>
      </trkpt>
      <trkpt lat="44.66934" lon="7.10502">
        <ele>2642</ele>
        <time>2022-07-14T07:56:20Z</time>
      </trkpt>
      <trkpt lat="44.66937" lon="7.10504">
        <ele>2642</ele>
        <time>2022-07-14T07:56:23Z</time>
      </trkpt>
      <trkpt lat="44.66937" lon="7.1051">
        <ele>2642</ele>
        <time>2022-07-14T07:56:28Z</time>
      </trkpt>
      <trkpt lat="44.66939" lon="7.10515">
        <ele>2643</ele>
        <time>2022-07-14T07:56:33Z</time>
      </trkpt>
      <trkpt lat="44.66951" lon="7.10518">
        <ele>2647</ele>
        <time>2022-07-14T07:56:48Z</time>
      </trkpt>
      <trkpt lat="44.66977" lon="7.10508">
        <ele>2646</ele>
        <time>2022-07-14T07:57:21Z</time>
      </trkpt>
      <trkpt lat="44.6698" lon="7.10506">
        <ele>2648</ele>
        <time>2022-07-14T07:57:26Z</time>
      </trkpt>
      <trkpt lat="44.66983" lon="7.10506">
        <ele>2647</ele>
        <time>2022-07-14T07:57:31Z</time>
      </trkpt>
      <trkpt lat="44.66994" lon="7.10506">
        <ele>2647</ele>
        <time>2022-07-14T07:57:46Z</time>
      </trkpt>
      <trkpt lat="44.66996" lon="7.10501">
        <ele>2647</ele>
        <time>2022-07-14T07:57:51Z</time>
      </trkpt>
      <trkpt lat="44.67" lon="7.10501">
        <ele>2649</ele>
        <time>2022-07-14T07:57:57Z</time>
      </trkpt>
      <trkpt lat="44.67006" lon="7.10492">
        <ele>2653</ele>
        <time>2022-07-14T07:58:12Z</time>
      </trkpt>
      <trkpt lat="44.67013" lon="7.10487">
        <ele>2652</ele>
        <time>2022-07-14T07:58:24Z</time>
      </trkpt>
      <trkpt lat="44.67017" lon="7.10488">
        <ele>2654</ele>
        <time>2022-07-14T07:58:29Z</time>
      </trkpt>
      <trkpt lat="44.67028" lon="7.10483">
        <ele>2655</ele>
        <time>2022-07-14T07:58:47Z</time>
      </trkpt>
      <trkpt lat="44.67032" lon="7.10481">
        <ele>2655</ele>
        <time>2022-07-14T07:58:51Z</time>
      </trkpt>
      <trkpt lat="44.67036" lon="7.10478">
        <ele>2656</ele>
        <time>2022-07-14T07:58:56Z</time>
      </trkpt>
      <trkpt lat="44.6705" lon="7.1047">
        <ele>2654</ele>
        <time>2022-07-14T07:59:17Z</time>
      </trkpt>
      <trkpt lat="44.67057" lon="7.10455">
        <ele>2655</ele>
        <time>2022-07-14T07:59:33Z</time>
      </trkpt>
      <trkpt lat="44.67059" lon="7.10451">
        <ele>2658</ele>
        <time>2022-07-14T07:59:42Z</time>
      </trkpt>
      <trkpt lat="44.67063" lon="7.10452">
        <ele>2659</ele>
        <time>2022-07-14T07:59:49Z</time>
      </trkpt>
      <trkpt lat="44.67065" lon="7.10447">
        <ele>2661</ele>
        <time>2022-07-14T07:59:56Z</time>
      </trkpt>
      <trkpt lat="44.67075" lon="7.10431">
        <ele>2659</ele>
        <time>2022-07-14T08:00:17Z</time>
      </trkpt>
      <trkpt lat="44.67082" lon="7.10428">
        <ele>2658</ele>
        <time>2022-07-14T08:00:28Z</time>
      </trkpt>
      <trkpt lat="44.67086" lon="7.10428">
        <ele>2660</ele>
        <time>2022-07-14T08:00:34Z</time>
      </trkpt>
      <trkpt lat="44.67089" lon="7.10427">
        <ele>2660</ele>
        <time>2022-07-14T08:00:38Z</time>
      </trkpt>
      <trkpt lat="44.67099" lon="7.1042">
        <ele>2662</ele>
        <time>2022-07-14T08:00:56Z</time>
      </trkpt>
      <trkpt lat="44.67101" lon="7.10415">
        <ele>2662</ele>
        <time>2022-07-14T08:01:02Z</time>
      </trkpt>
      <trkpt lat="44.6711" lon="7.10405">
        <ele>2661</ele>
        <time>2022-07-14T08:01:19Z</time>
      </trkpt>
      <trkpt lat="44.67113" lon="7.10403">
        <ele>2660</ele>
        <time>2022-07-14T08:01:23Z</time>
      </trkpt>
      <trkpt lat="44.67115" lon="7.10398">
        <ele>2660</ele>
        <time>2022-07-14T08:01:28Z</time>
      </trkpt>
      <trkpt lat="44.67117" lon="7.10394">
        <ele>2660</ele>
        <time>2022-07-14T08:01:33Z</time>
      </trkpt>
      <trkpt lat="44.67123" lon="7.10387">
        <ele>2660</ele>
        <time>2022-07-14T08:01:43Z</time>
      </trkpt>
      <trkpt lat="44.67134" lon="7.10387">
        <ele>2659</ele>
        <time>2022-07-14T08:02:12Z</time>
      </trkpt>
      <trkpt lat="44.67138" lon="7.10385">
        <ele>2659</ele>
        <time>2022-07-14T08:02:16Z</time>
      </trkpt>
      <trkpt lat="44.67141" lon="7.10391">
        <ele>2659</ele>
        <time>2022-07-14T08:02:29Z</time>
      </trkpt>
      <trkpt lat="44.67142" lon="7.10396">
        <ele>2656</ele>
        <time>2022-07-14T08:02:34Z</time>
      </trkpt>
      <trkpt lat="44.67146" lon="7.10397">
        <ele>2656</ele>
        <time>2022-07-14T08:02:53Z</time>
      </trkpt>
      <trkpt lat="44.67149" lon="7.10393">
        <ele>2656</ele>
        <time>2022-07-14T08:02:57Z</time>
      </trkpt>
      <trkpt lat="44.67149" lon="7.10388">
        <ele>2657</ele>
        <time>2022-07-14T08:02:59Z</time>
      </trkpt>
      <trkpt lat="44.67149" lon="7.10383">
        <ele>2657</ele>
        <time>2022-07-14T08:03:03Z</time>
      </trkpt>
      <trkpt lat="44.67153" lon="7.10383">
        <ele>2658</ele>
        <time>2022-07-14T08:03:07Z</time>
      </trkpt>
      <trkpt lat="44.67154" lon="7.10388">
        <ele>2658</ele>
        <time>2022-07-14T08:03:10Z</time>
      </trkpt>
      <trkpt lat="44.67158" lon="7.10391">
        <ele>2657</ele>
        <time>2022-07-14T08:03:15Z</time>
      </trkpt>
      <trkpt lat="44.67161" lon="7.10393">
        <ele>2656</ele>
        <time>2022-07-14T08:03:19Z</time>
      </trkpt>
      <trkpt lat="44.67165" lon="7.10391">
        <ele>2657</ele>
        <time>2022-07-14T08:03:24Z</time>
      </trkpt>
      <trkpt lat="44.67172" lon="7.10388">
        <ele>2659</ele>
        <time>2022-07-14T08:03:34Z</time>
      </trkpt>
      <trkpt lat="44.67176" lon="7.10387">
        <ele>2659</ele>
        <time>2022-07-14T08:03:38Z</time>
      </trkpt>
      <trkpt lat="44.67182" lon="7.10383">
        <ele>2658</ele>
        <time>2022-07-14T08:03:47Z</time>
      </trkpt>
      <trkpt lat="44.67185" lon="7.1038">
        <ele>2656</ele>
        <time>2022-07-14T08:03:52Z</time>
      </trkpt>
      <trkpt lat="44.67192" lon="7.10374">
        <ele>2656</ele>
        <time>2022-07-14T08:04:03Z</time>
      </trkpt>
      <trkpt lat="44.672" lon="7.10363">
        <ele>2656</ele>
        <time>2022-07-14T08:04:19Z</time>
      </trkpt>
      <trkpt lat="44.67203" lon="7.1036">
        <ele>2655</ele>
        <time>2022-07-14T08:04:25Z</time>
      </trkpt>
      <trkpt lat="44.67206" lon="7.10357">
        <ele>2656</ele>
        <time>2022-07-14T08:04:30Z</time>
      </trkpt>
      <trkpt lat="44.67209" lon="7.10353">
        <ele>2658</ele>
        <time>2022-07-14T08:04:36Z</time>
      </trkpt>
      <trkpt lat="44.67212" lon="7.1035">
        <ele>2659</ele>
        <time>2022-07-14T08:04:41Z</time>
      </trkpt>
      <trkpt lat="44.67214" lon="7.10347">
        <ele>2660</ele>
        <time>2022-07-14T08:04:47Z</time>
      </trkpt>
      <trkpt lat="44.67217" lon="7.10343">
        <ele>2660</ele>
        <time>2022-07-14T08:04:54Z</time>
      </trkpt>
      <trkpt lat="44.67217" lon="7.10337">
        <ele>2659</ele>
        <time>2022-07-14T08:05:00Z</time>
      </trkpt>
      <trkpt lat="44.6722" lon="7.10334">
        <ele>2658</ele>
        <time>2022-07-14T08:05:06Z</time>
      </trkpt>
      <trkpt lat="44.67225" lon="7.10337">
        <ele>2654</ele>
        <time>2022-07-14T08:05:26Z</time>
      </trkpt>
      <trkpt lat="44.67229" lon="7.10339">
        <ele>2653</ele>
        <time>2022-07-14T08:06:29Z</time>
      </trkpt>
      <trkpt lat="44.67229" lon="7.10334">
        <ele>2653</ele>
        <time>2022-07-14T08:06:35Z</time>
      </trkpt>
      <trkpt lat="44.67227" lon="7.10329">
        <ele>2653</ele>
        <time>2022-07-14T08:06:38Z</time>
      </trkpt>
      <trkpt lat="44.67234" lon="7.10326">
        <ele>2654</ele>
        <time>2022-07-14T08:06:46Z</time>
      </trkpt>
      <trkpt lat="44.67237" lon="7.10324">
        <ele>2652</ele>
        <time>2022-07-14T08:06:50Z</time>
      </trkpt>
      <trkpt lat="44.67241" lon="7.10325">
        <ele>2652</ele>
        <time>2022-07-14T08:06:54Z</time>
      </trkpt>
      <trkpt lat="44.67247" lon="7.1032">
        <ele>2651</ele>
        <time>2022-07-14T08:07:10Z</time>
      </trkpt>
      <trkpt lat="44.67253" lon="7.10312">
        <ele>2651</ele>
        <time>2022-07-14T08:07:22Z</time>
      </trkpt>
      <trkpt lat="44.67253" lon="7.10308">
        <ele>2648</ele>
        <time>2022-07-14T08:07:34Z</time>
      </trkpt>
      <trkpt lat="44.67245" lon="7.10305">
        <ele>2646</ele>
        <time>2022-07-14T08:07:42Z</time>
      </trkpt>
      <trkpt lat="44.67246" lon="7.10299">
        <ele>2646</ele>
        <time>2022-07-14T08:07:46Z</time>
      </trkpt>
      <trkpt lat="44.67252" lon="7.10291">
        <ele>2644</ele>
        <time>2022-07-14T08:07:54Z</time>
      </trkpt>
      <trkpt lat="44.67249" lon="7.10287">
        <ele>2642</ele>
        <time>2022-07-14T08:08:05Z</time>
      </trkpt>
      <trkpt lat="44.67249" lon="7.10281">
        <ele>2639</ele>
        <time>2022-07-14T08:08:11Z</time>
      </trkpt>
      <trkpt lat="44.67253" lon="7.10279">
        <ele>2638</ele>
        <time>2022-07-14T08:08:15Z</time>
      </trkpt>
      <trkpt lat="44.6726" lon="7.10273">
        <ele>2637</ele>
        <time>2022-07-14T08:08:23Z</time>
      </trkpt>
      <trkpt lat="44.67265" lon="7.10265">
        <ele>2637</ele>
        <time>2022-07-14T08:08:32Z</time>
      </trkpt>
      <trkpt lat="44.67269" lon="7.10255">
        <ele>2638</ele>
        <time>2022-07-14T08:08:40Z</time>
      </trkpt>
      <trkpt lat="44.6727" lon="7.10251">
        <ele>2639</ele>
        <time>2022-07-14T08:08:44Z</time>
      </trkpt>
      <trkpt lat="44.67269" lon="7.10246">
        <ele>2639</ele>
        <time>2022-07-14T08:08:49Z</time>
      </trkpt>
      <trkpt lat="44.67273" lon="7.10231">
        <ele>2638</ele>
        <time>2022-07-14T08:09:04Z</time>
      </trkpt>
      <trkpt lat="44.6728" lon="7.10223">
        <ele>2638</ele>
        <time>2022-07-14T08:09:13Z</time>
      </trkpt>
      <trkpt lat="44.67284" lon="7.1022">
        <ele>2637</ele>
        <time>2022-07-14T08:09:18Z</time>
      </trkpt>
      <trkpt lat="44.67296" lon="7.10219">
        <ele>2636</ele>
        <time>2022-07-14T08:09:31Z</time>
      </trkpt>
      <trkpt lat="44.673" lon="7.10216">
        <ele>2636</ele>
        <time>2022-07-14T08:09:36Z</time>
      </trkpt>
      <trkpt lat="44.67302" lon="7.10211">
        <ele>2635</ele>
        <time>2022-07-14T08:09:41Z</time>
      </trkpt>
      <trkpt lat="44.67304" lon="7.10206">
        <ele>2633</ele>
        <time>2022-07-14T08:09:46Z</time>
      </trkpt>
      <trkpt lat="44.67305" lon="7.10201">
        <ele>2633</ele>
        <time>2022-07-14T08:09:51Z</time>
      </trkpt>
      <trkpt lat="44.67306" lon="7.10195">
        <ele>2633</ele>
        <time>2022-07-14T08:09:58Z</time>
      </trkpt>
      <trkpt lat="44.67309" lon="7.10184">
        <ele>2632</ele>
        <time>2022-07-14T08:10:07Z</time>
      </trkpt>
      <trkpt lat="44.67309" lon="7.10179">
        <ele>2631</ele>
        <time>2022-07-14T08:10:13Z</time>
      </trkpt>
      <trkpt lat="44.67317" lon="7.1016">
        <ele>2630</ele>
        <time>2022-07-14T08:10:31Z</time>
      </trkpt>
      <trkpt lat="44.67317" lon="7.10155">
        <ele>2630</ele>
        <time>2022-07-14T08:10:34Z</time>
      </trkpt>
      <trkpt lat="44.67316" lon="7.10149">
        <ele>2627</ele>
        <time>2022-07-14T08:10:38Z</time>
      </trkpt>
      <trkpt lat="44.67315" lon="7.10144">
        <ele>2625</ele>
        <time>2022-07-14T08:10:54Z</time>
      </trkpt>
      <trkpt lat="44.67318" lon="7.1014">
        <ele>2622</ele>
        <time>2022-07-14T08:11:07Z</time>
      </trkpt>
      <trkpt lat="44.67318" lon="7.10135">
        <ele>2621</ele>
        <time>2022-07-14T08:11:15Z</time>
      </trkpt>
      <trkpt lat="44.67322" lon="7.10133">
        <ele>2619</ele>
        <time>2022-07-14T08:11:19Z</time>
      </trkpt>
      <trkpt lat="44.67325" lon="7.1013">
        <ele>2619</ele>
        <time>2022-07-14T08:11:24Z</time>
      </trkpt>
      <trkpt lat="44.67333" lon="7.10127">
        <ele>2618</ele>
        <time>2022-07-14T08:11:34Z</time>
      </trkpt>
      <trkpt lat="44.67336" lon="7.10124">
        <ele>2618</ele>
        <time>2022-07-14T08:11:39Z</time>
      </trkpt>
      <trkpt lat="44.67343" lon="7.10125">
        <ele>2619</ele>
        <time>2022-07-14T08:11:48Z</time>
      </trkpt>
      <trkpt lat="44.67346" lon="7.10122">
        <ele>2618</ele>
        <time>2022-07-14T08:11:55Z</time>
      </trkpt>
      <trkpt lat="44.6735" lon="7.10119">
        <ele>2618</ele>
        <time>2022-07-14T08:12:01Z</time>
      </trkpt>
      <trkpt lat="44.67351" lon="7.10114">
        <ele>2619</ele>
        <time>2022-07-14T08:12:07Z</time>
      </trkpt>
      <trkpt lat="44.67353" lon="7.1011">
        <ele>2620</ele>
        <time>2022-07-14T08:12:13Z</time>
      </trkpt>
      <trkpt lat="44.67355" lon="7.10106">
        <ele>2621</ele>
        <time>2022-07-14T08:12:17Z</time>
      </trkpt>
      <trkpt lat="44.67362" lon="7.10105">
        <ele>2620</ele>
        <time>2022-07-14T08:12:28Z</time>
      </trkpt>
      <trkpt lat="44.67365" lon="7.10107">
        <ele>2619</ele>
        <time>2022-07-14T08:12:31Z</time>
      </trkpt>
      <trkpt lat="44.67369" lon="7.10106">
        <ele>2619</ele>
        <time>2022-07-14T08:12:35Z</time>
      </trkpt>
      <trkpt lat="44.67374" lon="7.10107">
        <ele>2619</ele>
        <time>2022-07-14T08:12:39Z</time>
      </trkpt>
      <trkpt lat="44.67377" lon="7.10108">
        <ele>2619</ele>
        <time>2022-07-14T08:12:43Z</time>
      </trkpt>
      <trkpt lat="44.67381" lon="7.1011">
        <ele>2620</ele>
        <time>2022-07-14T08:12:47Z</time>
      </trkpt>
      <trkpt lat="44.67384" lon="7.10112">
        <ele>2620</ele>
        <time>2022-07-14T08:12:52Z</time>
      </trkpt>
      <trkpt lat="44.67388" lon="7.1011">
        <ele>2621</ele>
        <time>2022-07-14T08:12:57Z</time>
      </trkpt>
      <trkpt lat="44.6739" lon="7.10106">
        <ele>2621</ele>
        <time>2022-07-14T08:13:01Z</time>
      </trkpt>
      <trkpt lat="44.6739" lon="7.101">
        <ele>2622</ele>
        <time>2022-07-14T08:13:06Z</time>
      </trkpt>
      <trkpt lat="44.67386" lon="7.10098">
        <ele>2621</ele>
        <time>2022-07-14T08:13:10Z</time>
      </trkpt>
      <trkpt lat="44.67386" lon="7.10093">
        <ele>2621</ele>
        <time>2022-07-14T08:13:15Z</time>
      </trkpt>
      <trkpt lat="44.67393" lon="7.10096">
        <ele>2622</ele>
        <time>2022-07-14T08:13:24Z</time>
      </trkpt>
      <trkpt lat="44.67397" lon="7.10097">
        <ele>2624</ele>
        <time>2022-07-14T08:13:28Z</time>
      </trkpt>
      <trkpt lat="44.67401" lon="7.10096">
        <ele>2624</ele>
        <time>2022-07-14T08:13:33Z</time>
      </trkpt>
      <trkpt lat="44.67404" lon="7.10094">
        <ele>2624</ele>
        <time>2022-07-14T08:13:38Z</time>
      </trkpt>
      <trkpt lat="44.67408" lon="7.10093">
        <ele>2624</ele>
        <time>2022-07-14T08:13:44Z</time>
      </trkpt>
      <trkpt lat="44.67411" lon="7.10091">
        <ele>2624</ele>
        <time>2022-07-14T08:13:49Z</time>
      </trkpt>
      <trkpt lat="44.67415" lon="7.10092">
        <ele>2624</ele>
        <time>2022-07-14T08:13:55Z</time>
      </trkpt>
      <trkpt lat="44.67424" lon="7.10087">
        <ele>2624</ele>
        <time>2022-07-14T08:14:13Z</time>
      </trkpt>
      <trkpt lat="44.67428" lon="7.10085">
        <ele>2624</ele>
        <time>2022-07-14T08:14:19Z</time>
      </trkpt>
      <trkpt lat="44.67443" lon="7.10087">
        <ele>2620</ele>
        <time>2022-07-14T08:14:51Z</time>
      </trkpt>
      <trkpt lat="44.67447" lon="7.10086">
        <ele>2620</ele>
        <time>2022-07-14T08:14:58Z</time>
      </trkpt>
      <trkpt lat="44.6745" lon="7.10086">
        <ele>2620</ele>
        <time>2022-07-14T08:15:04Z</time>
      </trkpt>
      <trkpt lat="44.67454" lon="7.10088">
        <ele>2620</ele>
        <time>2022-07-14T08:15:11Z</time>
      </trkpt>
      <trkpt lat="44.67455" lon="7.10083">
        <ele>2620</ele>
        <time>2022-07-14T08:15:16Z</time>
      </trkpt>
      <trkpt lat="44.67457" lon="7.10078">
        <ele>2618</ele>
        <time>2022-07-14T08:15:22Z</time>
      </trkpt>
      <trkpt lat="44.67463" lon="7.10073">
        <ele>2615</ele>
        <time>2022-07-14T08:15:34Z</time>
      </trkpt>
      <trkpt lat="44.67467" lon="7.10071">
        <ele>2613</ele>
        <time>2022-07-14T08:15:44Z</time>
      </trkpt>
      <trkpt lat="44.6747" lon="7.10074">
        <ele>2611</ele>
        <time>2022-07-14T08:15:49Z</time>
      </trkpt>
      <trkpt lat="44.67475" lon="7.10076">
        <ele>2611</ele>
        <time>2022-07-14T08:15:56Z</time>
      </trkpt>
      <trkpt lat="44.67476" lon="7.10071">
        <ele>2612</ele>
        <time>2022-07-14T08:16:01Z</time>
      </trkpt>
      <trkpt lat="44.6748" lon="7.10074">
        <ele>2612</ele>
        <time>2022-07-14T08:16:09Z</time>
      </trkpt>
      <trkpt lat="44.6748" lon="7.10079">
        <ele>2612</ele>
        <time>2022-07-14T08:16:13Z</time>
      </trkpt>
      <trkpt lat="44.67484" lon="7.1008">
        <ele>2611</ele>
        <time>2022-07-14T08:16:20Z</time>
      </trkpt>
      <trkpt lat="44.67487" lon="7.10081">
        <ele>2611</ele>
        <time>2022-07-14T08:16:28Z</time>
      </trkpt>
      <trkpt lat="44.67491" lon="7.10081">
        <ele>2610</ele>
        <time>2022-07-14T08:16:33Z</time>
      </trkpt>
      <trkpt lat="44.67495" lon="7.10079">
        <ele>2609</ele>
        <time>2022-07-14T08:16:40Z</time>
      </trkpt>
      <trkpt lat="44.67498" lon="7.10081">
        <ele>2607</ele>
        <time>2022-07-14T08:16:46Z</time>
      </trkpt>
      <trkpt lat="44.67502" lon="7.10083">
        <ele>2606</ele>
        <time>2022-07-14T08:16:51Z</time>
      </trkpt>
      <trkpt lat="44.67512" lon="7.10087">
        <ele>2604</ele>
        <time>2022-07-14T08:17:10Z</time>
      </trkpt>
      <trkpt lat="44.67515" lon="7.1009">
        <ele>2605</ele>
        <time>2022-07-14T08:17:16Z</time>
      </trkpt>
      <trkpt lat="44.67516" lon="7.10095">
        <ele>2605</ele>
        <time>2022-07-14T08:17:31Z</time>
      </trkpt>
      <trkpt lat="44.67523" lon="7.101">
        <ele>2604</ele>
        <time>2022-07-14T08:17:44Z</time>
      </trkpt>
      <trkpt lat="44.67534" lon="7.10105">
        <ele>2600</ele>
        <time>2022-07-14T08:18:05Z</time>
      </trkpt>
      <trkpt lat="44.67537" lon="7.10107">
        <ele>2600</ele>
        <time>2022-07-14T08:18:12Z</time>
      </trkpt>
      <trkpt lat="44.67541" lon="7.10108">
        <ele>2599</ele>
        <time>2022-07-14T08:18:17Z</time>
      </trkpt>
      <trkpt lat="44.67545" lon="7.10107">
        <ele>2598</ele>
        <time>2022-07-14T08:18:23Z</time>
      </trkpt>
      <trkpt lat="44.67548" lon="7.10111">
        <ele>2597</ele>
        <time>2022-07-14T08:18:29Z</time>
      </trkpt>
      <trkpt lat="44.6755" lon="7.10116">
        <ele>2597</ele>
        <time>2022-07-14T08:18:34Z</time>
      </trkpt>
      <trkpt lat="44.67553" lon="7.10118">
        <ele>2597</ele>
        <time>2022-07-14T08:18:40Z</time>
      </trkpt>
      <trkpt lat="44.67557" lon="7.1012">
        <ele>2597</ele>
        <time>2022-07-14T08:18:45Z</time>
      </trkpt>
      <trkpt lat="44.67561" lon="7.10121">
        <ele>2597</ele>
        <time>2022-07-14T08:18:50Z</time>
      </trkpt>
      <trkpt lat="44.67571" lon="7.10125">
        <ele>2593</ele>
        <time>2022-07-14T08:19:17Z</time>
      </trkpt>
      <trkpt lat="44.67575" lon="7.10127">
        <ele>2592</ele>
        <time>2022-07-14T08:19:22Z</time>
      </trkpt>
      <trkpt lat="44.67579" lon="7.10129">
        <ele>2592</ele>
        <time>2022-07-14T08:19:27Z</time>
      </trkpt>
      <trkpt lat="44.67582" lon="7.10131">
        <ele>2592</ele>
        <time>2022-07-14T08:19:31Z</time>
      </trkpt>
      <trkpt lat="44.67585" lon="7.10134">
        <ele>2590</ele>
        <time>2022-07-14T08:19:37Z</time>
      </trkpt>
      <trkpt lat="44.6759" lon="7.10142">
        <ele>2591</ele>
        <time>2022-07-14T08:19:50Z</time>
      </trkpt>
      <trkpt lat="44.67591" lon="7.10148">
        <ele>2591</ele>
        <time>2022-07-14T08:19:56Z</time>
      </trkpt>
      <trkpt lat="44.67598" lon="7.10153">
        <ele>2593</ele>
        <time>2022-07-14T08:20:08Z</time>
      </trkpt>
      <trkpt lat="44.676" lon="7.10156">
        <ele>2594</ele>
        <time>2022-07-14T08:20:46Z</time>
      </trkpt>
      <trkpt lat="44.67602" lon="7.1016">
        <ele>2594</ele>
        <time>2022-07-14T08:20:50Z</time>
      </trkpt>
      <trkpt lat="44.676" lon="7.10165">
        <ele>2592</ele>
        <time>2022-07-14T08:20:54Z</time>
      </trkpt>
      <trkpt lat="44.67599" lon="7.1017">
        <ele>2591</ele>
        <time>2022-07-14T08:20:58Z</time>
      </trkpt>
      <trkpt lat="44.67597" lon="7.10174">
        <ele>2591</ele>
        <time>2022-07-14T08:21:02Z</time>
      </trkpt>
      <trkpt lat="44.67598" lon="7.1018">
        <ele>2591</ele>
        <time>2022-07-14T08:21:06Z</time>
      </trkpt>
      <trkpt lat="44.676" lon="7.10184">
        <ele>2591</ele>
        <time>2022-07-14T08:21:11Z</time>
      </trkpt>
      <trkpt lat="44.67608" lon="7.10184">
        <ele>2588</ele>
        <time>2022-07-14T08:21:22Z</time>
      </trkpt>
      <trkpt lat="44.67611" lon="7.10186">
        <ele>2589</ele>
        <time>2022-07-14T08:21:29Z</time>
      </trkpt>
      <trkpt lat="44.67614" lon="7.1019">
        <ele>2588</ele>
        <time>2022-07-14T08:21:33Z</time>
      </trkpt>
      <trkpt lat="44.67617" lon="7.1019">
        <ele>2588</ele>
        <time>2022-07-14T08:21:39Z</time>
      </trkpt>
      <trkpt lat="44.6762" lon="7.10192">
        <ele>2588</ele>
        <time>2022-07-14T08:21:45Z</time>
      </trkpt>
      <trkpt lat="44.67634" lon="7.10199">
        <ele>2589</ele>
        <time>2022-07-14T08:22:08Z</time>
      </trkpt>
      <trkpt lat="44.67637" lon="7.10202">
        <ele>2589</ele>
        <time>2022-07-14T08:22:13Z</time>
      </trkpt>
      <trkpt lat="44.67641" lon="7.10202">
        <ele>2588</ele>
        <time>2022-07-14T08:22:19Z</time>
      </trkpt>
      <trkpt lat="44.67648" lon="7.10205">
        <ele>2587</ele>
        <time>2022-07-14T08:22:28Z</time>
      </trkpt>
      <trkpt lat="44.6765" lon="7.10211">
        <ele>2586</ele>
        <time>2022-07-14T08:22:34Z</time>
      </trkpt>
      <trkpt lat="44.67649" lon="7.10216">
        <ele>2585</ele>
        <time>2022-07-14T08:22:40Z</time>
      </trkpt>
      <trkpt lat="44.67651" lon="7.1022">
        <ele>2584</ele>
        <time>2022-07-14T08:22:53Z</time>
      </trkpt>
      <trkpt lat="44.67652" lon="7.10226">
        <ele>2583</ele>
        <time>2022-07-14T08:23:07Z</time>
      </trkpt>
      <trkpt lat="44.67656" lon="7.10228">
        <ele>2582</ele>
        <time>2022-07-14T08:23:14Z</time>
      </trkpt>
      <trkpt lat="44.67662" lon="7.10232">
        <ele>2581</ele>
        <time>2022-07-14T08:23:25Z</time>
      </trkpt>
      <trkpt lat="44.6767" lon="7.10232">
        <ele>2580</ele>
        <time>2022-07-14T08:23:36Z</time>
      </trkpt>
      <trkpt lat="44.67673" lon="7.10232">
        <ele>2580</ele>
        <time>2022-07-14T08:23:40Z</time>
      </trkpt>
      <trkpt lat="44.67677" lon="7.10232">
        <ele>2581</ele>
        <time>2022-07-14T08:23:45Z</time>
      </trkpt>
      <trkpt lat="44.6768" lon="7.10235">
        <ele>2580</ele>
        <time>2022-07-14T08:23:52Z</time>
      </trkpt>
      <trkpt lat="44.67684" lon="7.10235">
        <ele>2577</ele>
        <time>2022-07-14T08:23:58Z</time>
      </trkpt>
      <trkpt lat="44.67688" lon="7.10236">
        <ele>2577</ele>
        <time>2022-07-14T08:24:04Z</time>
      </trkpt>
      <trkpt lat="44.67691" lon="7.10239">
        <ele>2578</ele>
        <time>2022-07-14T08:24:09Z</time>
      </trkpt>
      <trkpt lat="44.67694" lon="7.10238">
        <ele>2577</ele>
        <time>2022-07-14T08:24:18Z</time>
      </trkpt>
      <trkpt lat="44.67699" lon="7.1024">
        <ele>2574</ele>
        <time>2022-07-14T08:24:35Z</time>
      </trkpt>
      <trkpt lat="44.67703" lon="7.1024">
        <ele>2573</ele>
        <time>2022-07-14T08:24:42Z</time>
      </trkpt>
      <trkpt lat="44.67707" lon="7.10242">
        <ele>2573</ele>
        <time>2022-07-14T08:24:47Z</time>
      </trkpt>
      <trkpt lat="44.67711" lon="7.10244">
        <ele>2572</ele>
        <time>2022-07-14T08:24:53Z</time>
      </trkpt>
      <trkpt lat="44.67726" lon="7.10244">
        <ele>2568</ele>
        <time>2022-07-14T08:25:29Z</time>
      </trkpt>
      <trkpt lat="44.6773" lon="7.10245">
        <ele>2568</ele>
        <time>2022-07-14T08:25:37Z</time>
      </trkpt>
      <trkpt lat="44.67733" lon="7.10244">
        <ele>2567</ele>
        <time>2022-07-14T08:25:46Z</time>
      </trkpt>
      <trkpt lat="44.67738" lon="7.10243">
        <ele>2567</ele>
        <time>2022-07-14T08:25:51Z</time>
      </trkpt>
      <trkpt lat="44.67741" lon="7.10246">
        <ele>2567</ele>
        <time>2022-07-14T08:25:54Z</time>
      </trkpt>
      <trkpt lat="44.67741" lon="7.10253">
        <ele>2568</ele>
        <time>2022-07-14T08:25:55Z</time>
      </trkpt>
      <trkpt lat="44.67735" lon="7.1026">
        <ele>2568</ele>
        <time>2022-07-14T08:26:01Z</time>
      </trkpt>
      <trkpt lat="44.67737" lon="7.10264">
        <ele>2569</ele>
        <time>2022-07-14T08:26:07Z</time>
      </trkpt>
      <trkpt lat="44.6774" lon="7.10267">
        <ele>2568</ele>
        <time>2022-07-14T08:26:12Z</time>
      </trkpt>
      <trkpt lat="44.67747" lon="7.1027">
        <ele>2566</ele>
        <time>2022-07-14T08:26:22Z</time>
      </trkpt>
      <trkpt lat="44.67752" lon="7.10269">
        <ele>2565</ele>
        <time>2022-07-14T08:26:29Z</time>
      </trkpt>
      <trkpt lat="44.67755" lon="7.10268">
        <ele>2564</ele>
        <time>2022-07-14T08:26:34Z</time>
      </trkpt>
      <trkpt lat="44.67758" lon="7.10265">
        <ele>2563</ele>
        <time>2022-07-14T08:26:38Z</time>
      </trkpt>
      <trkpt lat="44.67761" lon="7.10262">
        <ele>2561</ele>
        <time>2022-07-14T08:26:45Z</time>
      </trkpt>
      <trkpt lat="44.67768" lon="7.10261">
        <ele>2560</ele>
        <time>2022-07-14T08:26:53Z</time>
      </trkpt>
      <trkpt lat="44.67771" lon="7.10264">
        <ele>2560</ele>
        <time>2022-07-14T08:26:57Z</time>
      </trkpt>
      <trkpt lat="44.67776" lon="7.10265">
        <ele>2560</ele>
        <time>2022-07-14T08:27:02Z</time>
      </trkpt>
      <trkpt lat="44.67779" lon="7.10268">
        <ele>2560</ele>
        <time>2022-07-14T08:27:07Z</time>
      </trkpt>
      <trkpt lat="44.67782" lon="7.1027">
        <ele>2560</ele>
        <time>2022-07-14T08:27:14Z</time>
      </trkpt>
      <trkpt lat="44.67785" lon="7.10273">
        <ele>2559</ele>
        <time>2022-07-14T08:27:20Z</time>
      </trkpt>
      <trkpt lat="44.67788" lon="7.10271">
        <ele>2561</ele>
        <time>2022-07-14T08:27:29Z</time>
      </trkpt>
      <trkpt lat="44.67787" lon="7.1026">
        <ele>2560</ele>
        <time>2022-07-14T08:27:41Z</time>
      </trkpt>
      <trkpt lat="44.67784" lon="7.10256">
        <ele>2558</ele>
        <time>2022-07-14T08:27:45Z</time>
      </trkpt>
      <trkpt lat="44.67783" lon="7.10251">
        <ele>2556</ele>
        <time>2022-07-14T08:27:49Z</time>
      </trkpt>
      <trkpt lat="44.67783" lon="7.10246">
        <ele>2554</ele>
        <time>2022-07-14T08:27:54Z</time>
      </trkpt>
      <trkpt lat="44.6779" lon="7.10241">
        <ele>2547</ele>
        <time>2022-07-14T08:28:16Z</time>
      </trkpt>
      <trkpt lat="44.67792" lon="7.10244">
        <ele>2546</ele>
        <time>2022-07-14T08:28:25Z</time>
      </trkpt>
      <trkpt lat="44.67793" lon="7.10249">
        <ele>2544</ele>
        <time>2022-07-14T08:28:31Z</time>
      </trkpt>
      <trkpt lat="44.67796" lon="7.10253">
        <ele>2543</ele>
        <time>2022-07-14T08:28:38Z</time>
      </trkpt>
      <trkpt lat="44.67796" lon="7.10258">
        <ele>2542</ele>
        <time>2022-07-14T08:28:44Z</time>
      </trkpt>
      <trkpt lat="44.67798" lon="7.10262">
        <ele>2542</ele>
        <time>2022-07-14T08:28:54Z</time>
      </trkpt>
      <trkpt lat="44.67799" lon="7.10267">
        <ele>2542</ele>
        <time>2022-07-14T08:29:00Z</time>
      </trkpt>
      <trkpt lat="44.67803" lon="7.10265">
        <ele>2541</ele>
        <time>2022-07-14T08:29:07Z</time>
      </trkpt>
      <trkpt lat="44.67806" lon="7.10268">
        <ele>2541</ele>
        <time>2022-07-14T08:29:12Z</time>
      </trkpt>
      <trkpt lat="44.67806" lon="7.10274">
        <ele>2540</ele>
        <time>2022-07-14T08:29:17Z</time>
      </trkpt>
      <trkpt lat="44.67804" lon="7.10278">
        <ele>2540</ele>
        <time>2022-07-14T08:29:21Z</time>
      </trkpt>
      <trkpt lat="44.678" lon="7.10278">
        <ele>2537</ele>
        <time>2022-07-14T08:29:26Z</time>
      </trkpt>
      <trkpt lat="44.67795" lon="7.1029">
        <ele>2535</ele>
        <time>2022-07-14T08:29:38Z</time>
      </trkpt>
      <trkpt lat="44.67796" lon="7.10303">
        <ele>2538</ele>
        <time>2022-07-14T08:29:54Z</time>
      </trkpt>
      <trkpt lat="44.67802" lon="7.10314">
        <ele>2539</ele>
        <time>2022-07-14T08:30:03Z</time>
      </trkpt>
      <trkpt lat="44.67811" lon="7.10318">
        <ele>2539</ele>
        <time>2022-07-14T08:30:16Z</time>
      </trkpt>
      <trkpt lat="44.67819" lon="7.10321">
        <ele>2538</ele>
        <time>2022-07-14T08:30:29Z</time>
      </trkpt>
      <trkpt lat="44.67828" lon="7.10325">
        <ele>2533</ele>
        <time>2022-07-14T08:31:05Z</time>
      </trkpt>
      <trkpt lat="44.67837" lon="7.1033">
        <ele>2532</ele>
        <time>2022-07-14T08:31:27Z</time>
      </trkpt>
      <trkpt lat="44.67846" lon="7.10334">
        <ele>2527</ele>
        <time>2022-07-14T08:31:47Z</time>
      </trkpt>
      <trkpt lat="44.67864" lon="7.10334">
        <ele>2527</ele>
        <time>2022-07-14T08:32:23Z</time>
      </trkpt>
      <trkpt lat="44.67873" lon="7.10331">
        <ele>2525</ele>
        <time>2022-07-14T08:32:41Z</time>
      </trkpt>
      <trkpt lat="44.67883" lon="7.10333">
        <ele>2524</ele>
        <time>2022-07-14T08:32:56Z</time>
      </trkpt>
      <trkpt lat="44.67892" lon="7.10335">
        <ele>2524</ele>
        <time>2022-07-14T08:33:10Z</time>
      </trkpt>
      <trkpt lat="44.67899" lon="7.10342">
        <ele>2527</ele>
        <time>2022-07-14T08:33:31Z</time>
      </trkpt>
      <trkpt lat="44.67906" lon="7.1035">
        <ele>2527</ele>
        <time>2022-07-14T08:33:57Z</time>
      </trkpt>
      <trkpt lat="44.67915" lon="7.10355">
        <ele>2524</ele>
        <time>2022-07-14T08:34:23Z</time>
      </trkpt>
      <trkpt lat="44.67923" lon="7.10347">
        <ele>2523</ele>
        <time>2022-07-14T08:35:11Z</time>
      </trkpt>
      <trkpt lat="44.67931" lon="7.1035">
        <ele>2516</ele>
        <time>2022-07-14T08:35:34Z</time>
      </trkpt>
      <trkpt lat="44.6794" lon="7.10344">
        <ele>2516</ele>
        <time>2022-07-14T08:35:44Z</time>
      </trkpt>
      <trkpt lat="44.67945" lon="7.10334">
        <ele>2512</ele>
        <time>2022-07-14T08:36:14Z</time>
      </trkpt>
      <trkpt lat="44.67944" lon="7.10331">
        <ele>2507</ele>
        <time>2022-07-14T08:36:30Z</time>
      </trkpt>
      <trkpt lat="44.67948" lon="7.10328">
        <ele>2506</ele>
        <time>2022-07-14T08:36:37Z</time>
      </trkpt>
      <trkpt lat="44.6796" lon="7.10326">
        <ele>2508</ele>
        <time>2022-07-14T08:36:52Z</time>
      </trkpt>
      <trkpt lat="44.67964" lon="7.10325">
        <ele>2508</ele>
        <time>2022-07-14T08:36:59Z</time>
      </trkpt>
      <trkpt lat="44.67967" lon="7.10325">
        <ele>2507</ele>
        <time>2022-07-14T08:37:06Z</time>
      </trkpt>
      <trkpt lat="44.67963" lon="7.10314">
        <ele>2505</ele>
        <time>2022-07-14T08:37:25Z</time>
      </trkpt>
      <trkpt lat="44.67959" lon="7.10302">
        <ele>2503</ele>
        <time>2022-07-14T08:37:37Z</time>
      </trkpt>
      <trkpt lat="44.67955" lon="7.10295">
        <ele>2502</ele>
        <time>2022-07-14T08:37:46Z</time>
      </trkpt>
      <trkpt lat="44.67957" lon="7.1029">
        <ele>2501</ele>
        <time>2022-07-14T08:37:52Z</time>
      </trkpt>
      <trkpt lat="44.67957" lon="7.10285">
        <ele>2500</ele>
        <time>2022-07-14T08:38:02Z</time>
      </trkpt>
      <trkpt lat="44.67958" lon="7.10279">
        <ele>2499</ele>
        <time>2022-07-14T08:38:08Z</time>
      </trkpt>
      <trkpt lat="44.67955" lon="7.10278">
        <ele>2498</ele>
        <time>2022-07-14T08:38:13Z</time>
      </trkpt>
      <trkpt lat="44.67951" lon="7.10276">
        <ele>2496</ele>
        <time>2022-07-14T08:38:19Z</time>
      </trkpt>
      <trkpt lat="44.67949" lon="7.10271">
        <ele>2495</ele>
        <time>2022-07-14T08:38:25Z</time>
      </trkpt>
      <trkpt lat="44.67946" lon="7.10272">
        <ele>2493</ele>
        <time>2022-07-14T08:38:31Z</time>
      </trkpt>
      <trkpt lat="44.67942" lon="7.10272">
        <ele>2492</ele>
        <time>2022-07-14T08:38:37Z</time>
      </trkpt>
      <trkpt lat="44.67943" lon="7.10267">
        <ele>2491</ele>
        <time>2022-07-14T08:38:41Z</time>
      </trkpt>
      <trkpt lat="44.67942" lon="7.10263">
        <ele>2489</ele>
        <time>2022-07-14T08:38:48Z</time>
      </trkpt>
      <trkpt lat="44.67938" lon="7.10267">
        <ele>2488</ele>
        <time>2022-07-14T08:38:53Z</time>
      </trkpt>
      <trkpt lat="44.67937" lon="7.10272">
        <ele>2489</ele>
        <time>2022-07-14T08:38:57Z</time>
      </trkpt>
      <trkpt lat="44.67934" lon="7.10275">
        <ele>2490</ele>
        <time>2022-07-14T08:39:01Z</time>
      </trkpt>
      <trkpt lat="44.67929" lon="7.10273">
        <ele>2492</ele>
        <time>2022-07-14T08:39:09Z</time>
      </trkpt>
      <trkpt lat="44.67931" lon="7.10268">
        <ele>2488</ele>
        <time>2022-07-14T08:39:29Z</time>
      </trkpt>
      <trkpt lat="44.67937" lon="7.10261">
        <ele>2488</ele>
        <time>2022-07-14T08:39:35Z</time>
      </trkpt>
      <trkpt lat="44.67939" lon="7.10257">
        <ele>2489</ele>
        <time>2022-07-14T08:39:38Z</time>
      </trkpt>
      <trkpt lat="44.67947" lon="7.10251">
        <ele>2490</ele>
        <time>2022-07-14T08:39:48Z</time>
      </trkpt>
      <trkpt lat="44.67948" lon="7.10246">
        <ele>2488</ele>
        <time>2022-07-14T08:40:01Z</time>
      </trkpt>
      <trkpt lat="44.6795" lon="7.10242">
        <ele>2488</ele>
        <time>2022-07-14T08:40:06Z</time>
      </trkpt>
      <trkpt lat="44.6795" lon="7.10236">
        <ele>2487</ele>
        <time>2022-07-14T08:40:10Z</time>
      </trkpt>
      <trkpt lat="44.67958" lon="7.10235">
        <ele>2486</ele>
        <time>2022-07-14T08:40:19Z</time>
      </trkpt>
      <trkpt lat="44.67962" lon="7.10235">
        <ele>2486</ele>
        <time>2022-07-14T08:40:25Z</time>
      </trkpt>
      <trkpt lat="44.67965" lon="7.10233">
        <ele>2486</ele>
        <time>2022-07-14T08:40:31Z</time>
      </trkpt>
      <trkpt lat="44.67969" lon="7.10232">
        <ele>2486</ele>
        <time>2022-07-14T08:40:36Z</time>
      </trkpt>
      <trkpt lat="44.6798" lon="7.1023">
        <ele>2485</ele>
        <time>2022-07-14T08:40:56Z</time>
      </trkpt>
      <trkpt lat="44.67987" lon="7.10243">
        <ele>2485</ele>
        <time>2022-07-14T08:41:16Z</time>
      </trkpt>
      <trkpt lat="44.67991" lon="7.10245">
        <ele>2485</ele>
        <time>2022-07-14T08:41:21Z</time>
      </trkpt>
      <trkpt lat="44.67993" lon="7.1024">
        <ele>2484</ele>
        <time>2022-07-14T08:41:31Z</time>
      </trkpt>
      <trkpt lat="44.67993" lon="7.10235">
        <ele>2482</ele>
        <time>2022-07-14T08:41:35Z</time>
      </trkpt>
      <trkpt lat="44.67986" lon="7.1021">
        <ele>2476</ele>
        <time>2022-07-14T08:42:05Z</time>
      </trkpt>
      <trkpt lat="44.67983" lon="7.10207">
        <ele>2474</ele>
        <time>2022-07-14T08:42:10Z</time>
      </trkpt>
      <trkpt lat="44.67985" lon="7.10204">
        <ele>2473</ele>
        <time>2022-07-14T08:42:20Z</time>
      </trkpt>
      <trkpt lat="44.67988" lon="7.10207">
        <ele>2473</ele>
        <time>2022-07-14T08:42:30Z</time>
      </trkpt>
      <trkpt lat="44.67991" lon="7.1021">
        <ele>2473</ele>
        <time>2022-07-14T08:42:35Z</time>
      </trkpt>
      <trkpt lat="44.68001" lon="7.10222">
        <ele>2473</ele>
        <time>2022-07-14T08:42:46Z</time>
      </trkpt>
      <trkpt lat="44.68003" lon="7.10226">
        <ele>2473</ele>
        <time>2022-07-14T08:42:50Z</time>
      </trkpt>
      <trkpt lat="44.68006" lon="7.10231">
        <ele>2473</ele>
        <time>2022-07-14T08:42:55Z</time>
      </trkpt>
      <trkpt lat="44.6801" lon="7.10233">
        <ele>2472</ele>
        <time>2022-07-14T08:43:00Z</time>
      </trkpt>
      <trkpt lat="44.68009" lon="7.10222">
        <ele>2471</ele>
        <time>2022-07-14T08:43:08Z</time>
      </trkpt>
      <trkpt lat="44.68009" lon="7.10216">
        <ele>2471</ele>
        <time>2022-07-14T08:43:13Z</time>
      </trkpt>
      <trkpt lat="44.68008" lon="7.10211">
        <ele>2470</ele>
        <time>2022-07-14T08:43:18Z</time>
      </trkpt>
      <trkpt lat="44.68008" lon="7.10206">
        <ele>2469</ele>
        <time>2022-07-14T08:43:23Z</time>
      </trkpt>
      <trkpt lat="44.68008" lon="7.10201">
        <ele>2467</ele>
        <time>2022-07-14T08:43:28Z</time>
      </trkpt>
      <trkpt lat="44.68012" lon="7.10203">
        <ele>2467</ele>
        <time>2022-07-14T08:43:33Z</time>
      </trkpt>
      <trkpt lat="44.68022" lon="7.1021">
        <ele>2464</ele>
        <time>2022-07-14T08:43:47Z</time>
      </trkpt>
      <trkpt lat="44.68025" lon="7.10212">
        <ele>2463</ele>
        <time>2022-07-14T08:43:52Z</time>
      </trkpt>
      <trkpt lat="44.68032" lon="7.10215">
        <ele>2463</ele>
        <time>2022-07-14T08:44:06Z</time>
      </trkpt>
      <trkpt lat="44.68035" lon="7.10212">
        <ele>2463</ele>
        <time>2022-07-14T08:44:14Z</time>
      </trkpt>
      <trkpt lat="44.68033" lon="7.10207">
        <ele>2462</ele>
        <time>2022-07-14T08:44:18Z</time>
      </trkpt>
      <trkpt lat="44.68036" lon="7.10204">
        <ele>2460</ele>
        <time>2022-07-14T08:44:24Z</time>
      </trkpt>
      <trkpt lat="44.68043" lon="7.10208">
        <ele>2458</ele>
        <time>2022-07-14T08:44:34Z</time>
      </trkpt>
      <trkpt lat="44.68046" lon="7.10209">
        <ele>2458</ele>
        <time>2022-07-14T08:44:41Z</time>
      </trkpt>
      <trkpt lat="44.68046" lon="7.10205">
        <ele>2457</ele>
        <time>2022-07-14T08:44:46Z</time>
      </trkpt>
      <trkpt lat="44.68049" lon="7.10204">
        <ele>2454</ele>
        <time>2022-07-14T08:44:55Z</time>
      </trkpt>
      <trkpt lat="44.68052" lon="7.10207">
        <ele>2454</ele>
        <time>2022-07-14T08:45:00Z</time>
      </trkpt>
      <trkpt lat="44.68055" lon="7.10204">
        <ele>2453</ele>
        <time>2022-07-14T08:45:09Z</time>
      </trkpt>
      <trkpt lat="44.68057" lon="7.10189">
        <ele>2451</ele>
        <time>2022-07-14T08:45:37Z</time>
      </trkpt>
      <trkpt lat="44.68056" lon="7.10183">
        <ele>2450</ele>
        <time>2022-07-14T08:45:41Z</time>
      </trkpt>
      <trkpt lat="44.68058" lon="7.10179">
        <ele>2450</ele>
        <time>2022-07-14T08:45:55Z</time>
      </trkpt>
      <trkpt lat="44.68059" lon="7.10174">
        <ele>2450</ele>
        <time>2022-07-14T08:46:00Z</time>
      </trkpt>
      <trkpt lat="44.68059" lon="7.10169">
        <ele>2450</ele>
        <time>2022-07-14T08:46:06Z</time>
      </trkpt>
      <trkpt lat="44.68056" lon="7.10165">
        <ele>2448</ele>
        <time>2022-07-14T08:46:12Z</time>
      </trkpt>
      <trkpt lat="44.68052" lon="7.10163">
        <ele>2446</ele>
        <time>2022-07-14T08:46:17Z</time>
      </trkpt>
      <trkpt lat="44.6805" lon="7.1016">
        <ele>2445</ele>
        <time>2022-07-14T08:46:22Z</time>
      </trkpt>
      <trkpt lat="44.68051" lon="7.10155">
        <ele>2444</ele>
        <time>2022-07-14T08:46:27Z</time>
      </trkpt>
      <trkpt lat="44.68052" lon="7.10151">
        <ele>2443</ele>
        <time>2022-07-14T08:46:31Z</time>
      </trkpt>
      <trkpt lat="44.68052" lon="7.10141">
        <ele>2441</ele>
        <time>2022-07-14T08:46:39Z</time>
      </trkpt>
      <trkpt lat="44.68056" lon="7.10138">
        <ele>2441</ele>
        <time>2022-07-14T08:46:44Z</time>
      </trkpt>
      <trkpt lat="44.68059" lon="7.10141">
        <ele>2441</ele>
        <time>2022-07-14T08:46:47Z</time>
      </trkpt>
      <trkpt lat="44.68062" lon="7.10145">
        <ele>2441</ele>
        <time>2022-07-14T08:46:51Z</time>
      </trkpt>
      <trkpt lat="44.68065" lon="7.10149">
        <ele>2441</ele>
        <time>2022-07-14T08:46:55Z</time>
      </trkpt>
      <trkpt lat="44.68065" lon="7.10143">
        <ele>2441</ele>
        <time>2022-07-14T08:47:00Z</time>
      </trkpt>
      <trkpt lat="44.68067" lon="7.10132">
        <ele>2441</ele>
        <time>2022-07-14T08:47:09Z</time>
      </trkpt>
      <trkpt lat="44.6807" lon="7.10134">
        <ele>2439</ele>
        <time>2022-07-14T08:47:18Z</time>
      </trkpt>
      <trkpt lat="44.68079" lon="7.10147">
        <ele>2436</ele>
        <time>2022-07-14T08:47:34Z</time>
      </trkpt>
      <trkpt lat="44.68082" lon="7.1015">
        <ele>2436</ele>
        <time>2022-07-14T08:47:39Z</time>
      </trkpt>
      <trkpt lat="44.68085" lon="7.10147">
        <ele>2436</ele>
        <time>2022-07-14T08:47:44Z</time>
      </trkpt>
      <trkpt lat="44.68083" lon="7.10143">
        <ele>2436</ele>
        <time>2022-07-14T08:47:47Z</time>
      </trkpt>
      <trkpt lat="44.68081" lon="7.10138">
        <ele>2435</ele>
        <time>2022-07-14T08:47:52Z</time>
      </trkpt>
      <trkpt lat="44.68082" lon="7.10132">
        <ele>2433</ele>
        <time>2022-07-14T08:48:14Z</time>
      </trkpt>
      <trkpt lat="44.68083" lon="7.10128">
        <ele>2433</ele>
        <time>2022-07-14T08:48:19Z</time>
      </trkpt>
      <trkpt lat="44.68084" lon="7.10122">
        <ele>2434</ele>
        <time>2022-07-14T08:48:25Z</time>
      </trkpt>
      <trkpt lat="44.68089" lon="7.10113">
        <ele>2435</ele>
        <time>2022-07-14T08:48:35Z</time>
      </trkpt>
      <trkpt lat="44.68092" lon="7.10109">
        <ele>2434</ele>
        <time>2022-07-14T08:48:47Z</time>
      </trkpt>
      <trkpt lat="44.68094" lon="7.10095">
        <ele>2434</ele>
        <time>2022-07-14T08:49:12Z</time>
      </trkpt>
      <trkpt lat="44.68096" lon="7.1009">
        <ele>2434</ele>
        <time>2022-07-14T08:49:25Z</time>
      </trkpt>
      <trkpt lat="44.68096" lon="7.10079">
        <ele>2432</ele>
        <time>2022-07-14T08:49:41Z</time>
      </trkpt>
      <trkpt lat="44.68094" lon="7.10074">
        <ele>2430</ele>
        <time>2022-07-14T08:49:44Z</time>
      </trkpt>
      <trkpt lat="44.68094" lon="7.10056">
        <ele>2430</ele>
        <time>2022-07-14T08:49:56Z</time>
      </trkpt>
      <trkpt lat="44.68091" lon="7.1004">
        <ele>2429</ele>
        <time>2022-07-14T08:50:06Z</time>
      </trkpt>
      <trkpt lat="44.68091" lon="7.10029">
        <ele>2428</ele>
        <time>2022-07-14T08:50:14Z</time>
      </trkpt>
      <trkpt lat="44.68091" lon="7.10023">
        <ele>2428</ele>
        <time>2022-07-14T08:50:18Z</time>
      </trkpt>
      <trkpt lat="44.68092" lon="7.10014">
        <ele>2426</ele>
        <time>2022-07-14T08:50:29Z</time>
      </trkpt>
      <trkpt lat="44.68092" lon="7.10008">
        <ele>2425</ele>
        <time>2022-07-14T08:50:34Z</time>
      </trkpt>
      <trkpt lat="44.68093" lon="7.09998">
        <ele>2424</ele>
        <time>2022-07-14T08:50:43Z</time>
      </trkpt>
      <trkpt lat="44.68093" lon="7.09982">
        <ele>2422</ele>
        <time>2022-07-14T08:51:11Z</time>
      </trkpt>
      <trkpt lat="44.68091" lon="7.09972">
        <ele>2421</ele>
        <time>2022-07-14T08:51:20Z</time>
      </trkpt>
      <trkpt lat="44.68089" lon="7.09967">
        <ele>2421</ele>
        <time>2022-07-14T08:51:25Z</time>
      </trkpt>
      <trkpt lat="44.68087" lon="7.09963">
        <ele>2420</ele>
        <time>2022-07-14T08:51:31Z</time>
      </trkpt>
      <trkpt lat="44.68076" lon="7.0994">
        <ele>2414</ele>
        <time>2022-07-14T08:51:55Z</time>
      </trkpt>
      <trkpt lat="44.68075" lon="7.09935">
        <ele>2413</ele>
        <time>2022-07-14T08:52:01Z</time>
      </trkpt>
      <trkpt lat="44.68071" lon="7.09926">
        <ele>2411</ele>
        <time>2022-07-14T08:52:11Z</time>
      </trkpt>
      <trkpt lat="44.68066" lon="7.09912">
        <ele>2408</ele>
        <time>2022-07-14T08:52:29Z</time>
      </trkpt>
      <trkpt lat="44.68071" lon="7.09914">
        <ele>2409</ele>
        <time>2022-07-14T08:53:03Z</time>
      </trkpt>
      <trkpt lat="44.68072" lon="7.09909">
        <ele>2409</ele>
        <time>2022-07-14T08:53:10Z</time>
      </trkpt>
      <trkpt lat="44.68076" lon="7.09911">
        <ele>2410</ele>
        <time>2022-07-14T08:53:14Z</time>
      </trkpt>
      <trkpt lat="44.68088" lon="7.09921">
        <ele>2406</ele>
        <time>2022-07-14T08:53:37Z</time>
      </trkpt>
      <trkpt lat="44.68092" lon="7.09923">
        <ele>2404</ele>
        <time>2022-07-14T08:53:45Z</time>
      </trkpt>
      <trkpt lat="44.68095" lon="7.09926">
        <ele>2404</ele>
        <time>2022-07-14T08:53:50Z</time>
      </trkpt>
      <trkpt lat="44.68099" lon="7.09925">
        <ele>2402</ele>
        <time>2022-07-14T08:54:07Z</time>
      </trkpt>
      <trkpt lat="44.68102" lon="7.09928">
        <ele>2402</ele>
        <time>2022-07-14T08:54:12Z</time>
      </trkpt>
      <trkpt lat="44.68106" lon="7.0993">
        <ele>2399</ele>
        <time>2022-07-14T08:54:19Z</time>
      </trkpt>
      <trkpt lat="44.6812" lon="7.09937">
        <ele>2397</ele>
        <time>2022-07-14T08:54:50Z</time>
      </trkpt>
      <trkpt lat="44.68123" lon="7.0994">
        <ele>2396</ele>
        <time>2022-07-14T08:54:56Z</time>
      </trkpt>
      <trkpt lat="44.68127" lon="7.09942">
        <ele>2396</ele>
        <time>2022-07-14T08:55:02Z</time>
      </trkpt>
      <trkpt lat="44.6813" lon="7.0994">
        <ele>2396</ele>
        <time>2022-07-14T08:55:14Z</time>
      </trkpt>
      <trkpt lat="44.68128" lon="7.09935">
        <ele>2395</ele>
        <time>2022-07-14T08:55:21Z</time>
      </trkpt>
      <trkpt lat="44.68132" lon="7.09934">
        <ele>2392</ele>
        <time>2022-07-14T08:55:27Z</time>
      </trkpt>
      <trkpt lat="44.68135" lon="7.09931">
        <ele>2391</ele>
        <time>2022-07-14T08:55:35Z</time>
      </trkpt>
      <trkpt lat="44.68138" lon="7.09928">
        <ele>2390</ele>
        <time>2022-07-14T08:55:42Z</time>
      </trkpt>
      <trkpt lat="44.68138" lon="7.09923">
        <ele>2389</ele>
        <time>2022-07-14T08:55:50Z</time>
      </trkpt>
      <trkpt lat="44.6814" lon="7.09919">
        <ele>2386</ele>
        <time>2022-07-14T08:55:58Z</time>
      </trkpt>
      <trkpt lat="44.68142" lon="7.09914">
        <ele>2385</ele>
        <time>2022-07-14T08:56:04Z</time>
      </trkpt>
      <trkpt lat="44.68144" lon="7.09909">
        <ele>2382</ele>
        <time>2022-07-14T08:56:11Z</time>
      </trkpt>
      <trkpt lat="44.68147" lon="7.09905">
        <ele>2381</ele>
        <time>2022-07-14T08:56:20Z</time>
      </trkpt>
      <trkpt lat="44.68151" lon="7.09902">
        <ele>2379</ele>
        <time>2022-07-14T08:56:28Z</time>
      </trkpt>
      <trkpt lat="44.68155" lon="7.09902">
        <ele>2379</ele>
        <time>2022-07-14T08:56:33Z</time>
      </trkpt>
      <trkpt lat="44.68159" lon="7.09901">
        <ele>2379</ele>
        <time>2022-07-14T08:56:39Z</time>
      </trkpt>
      <trkpt lat="44.68162" lon="7.099">
        <ele>2379</ele>
        <time>2022-07-14T08:56:45Z</time>
      </trkpt>
      <trkpt lat="44.68165" lon="7.09897">
        <ele>2378</ele>
        <time>2022-07-14T08:56:51Z</time>
      </trkpt>
      <trkpt lat="44.68168" lon="7.09892">
        <ele>2378</ele>
        <time>2022-07-14T08:57:02Z</time>
      </trkpt>
      <trkpt lat="44.68175" lon="7.09889">
        <ele>2378</ele>
        <time>2022-07-14T08:57:23Z</time>
      </trkpt>
      <trkpt lat="44.6818" lon="7.09882">
        <ele>2376</ele>
        <time>2022-07-14T08:57:36Z</time>
      </trkpt>
      <trkpt lat="44.68182" lon="7.09878">
        <ele>2375</ele>
        <time>2022-07-14T08:57:42Z</time>
      </trkpt>
      <trkpt lat="44.68185" lon="7.09876">
        <ele>2373</ele>
        <time>2022-07-14T08:57:47Z</time>
      </trkpt>
      <trkpt lat="44.68192" lon="7.09862">
        <ele>2370</ele>
        <time>2022-07-14T08:58:06Z</time>
      </trkpt>
      <trkpt lat="44.68194" lon="7.09859">
        <ele>2369</ele>
        <time>2022-07-14T08:58:10Z</time>
      </trkpt>
      <trkpt lat="44.68196" lon="7.09854">
        <ele>2367</ele>
        <time>2022-07-14T09:00:07Z</time>
      </trkpt>
      <trkpt lat="44.68199" lon="7.09851">
        <ele>2366</ele>
        <time>2022-07-14T09:00:13Z</time>
      </trkpt>
      <trkpt lat="44.68202" lon="7.09849">
        <ele>2364</ele>
        <time>2022-07-14T09:00:21Z</time>
      </trkpt>
      <trkpt lat="44.68203" lon="7.09843">
        <ele>2363</ele>
        <time>2022-07-14T09:00:27Z</time>
      </trkpt>
      <trkpt lat="44.68202" lon="7.09839">
        <ele>2362</ele>
        <time>2022-07-14T09:00:36Z</time>
      </trkpt>
      <trkpt lat="44.68205" lon="7.09837">
        <ele>2360</ele>
        <time>2022-07-14T09:00:47Z</time>
      </trkpt>
      <trkpt lat="44.68207" lon="7.09833">
        <ele>2356</ele>
        <time>2022-07-14T09:01:00Z</time>
      </trkpt>
      <trkpt lat="44.68208" lon="7.09828">
        <ele>2354</ele>
        <time>2022-07-14T09:01:10Z</time>
      </trkpt>
      <trkpt lat="44.68207" lon="7.09823">
        <ele>2352</ele>
        <time>2022-07-14T09:01:20Z</time>
      </trkpt>
      <trkpt lat="44.68211" lon="7.09822">
        <ele>2350</ele>
        <time>2022-07-14T09:01:27Z</time>
      </trkpt>
      <trkpt lat="44.68213" lon="7.09818">
        <ele>2348</ele>
        <time>2022-07-14T09:01:34Z</time>
      </trkpt>
      <trkpt lat="44.68213" lon="7.09813">
        <ele>2346</ele>
        <time>2022-07-14T09:01:51Z</time>
      </trkpt>
      <trkpt lat="44.68217" lon="7.09814">
        <ele>2346</ele>
        <time>2022-07-14T09:02:00Z</time>
      </trkpt>
      <trkpt lat="44.6822" lon="7.09811">
        <ele>2344</ele>
        <time>2022-07-14T09:02:07Z</time>
      </trkpt>
      <trkpt lat="44.68227" lon="7.09814">
        <ele>2343</ele>
        <time>2022-07-14T09:02:19Z</time>
      </trkpt>
      <trkpt lat="44.6823" lon="7.09817">
        <ele>2343</ele>
        <time>2022-07-14T09:02:23Z</time>
      </trkpt>
      <trkpt lat="44.68237" lon="7.09837">
        <ele>2343</ele>
        <time>2022-07-14T09:02:43Z</time>
      </trkpt>
      <trkpt lat="44.68238" lon="7.09848">
        <ele>2341</ele>
        <time>2022-07-14T09:02:53Z</time>
      </trkpt>
      <trkpt lat="44.68237" lon="7.09859">
        <ele>2338</ele>
        <time>2022-07-14T09:03:04Z</time>
      </trkpt>
      <trkpt lat="44.68236" lon="7.09863">
        <ele>2337</ele>
        <time>2022-07-14T09:03:10Z</time>
      </trkpt>
      <trkpt lat="44.68235" lon="7.09874">
        <ele>2333</ele>
        <time>2022-07-14T09:03:23Z</time>
      </trkpt>
      <trkpt lat="44.68235" lon="7.09885">
        <ele>2331</ele>
        <time>2022-07-14T09:03:35Z</time>
      </trkpt>
      <trkpt lat="44.68235" lon="7.0989">
        <ele>2329</ele>
        <time>2022-07-14T09:03:40Z</time>
      </trkpt>
      <trkpt lat="44.68234" lon="7.09895">
        <ele>2328</ele>
        <time>2022-07-14T09:03:45Z</time>
      </trkpt>
      <trkpt lat="44.68232" lon="7.099">
        <ele>2327</ele>
        <time>2022-07-14T09:03:50Z</time>
      </trkpt>
      <trkpt lat="44.6823" lon="7.09905">
        <ele>2327</ele>
        <time>2022-07-14T09:03:55Z</time>
      </trkpt>
      <trkpt lat="44.6823" lon="7.09911">
        <ele>2326</ele>
        <time>2022-07-14T09:04:02Z</time>
      </trkpt>
      <trkpt lat="44.68233" lon="7.09912">
        <ele>2326</ele>
        <time>2022-07-14T09:04:29Z</time>
      </trkpt>
      <trkpt lat="44.68236" lon="7.09909">
        <ele>2325</ele>
        <time>2022-07-14T09:04:36Z</time>
      </trkpt>
      <trkpt lat="44.68239" lon="7.09905">
        <ele>2323</ele>
        <time>2022-07-14T09:04:44Z</time>
      </trkpt>
      <trkpt lat="44.68242" lon="7.09901">
        <ele>2321</ele>
        <time>2022-07-14T09:04:50Z</time>
      </trkpt>
      <trkpt lat="44.68245" lon="7.09898">
        <ele>2321</ele>
        <time>2022-07-14T09:04:56Z</time>
      </trkpt>
      <trkpt lat="44.68248" lon="7.09901">
        <ele>2320</ele>
        <time>2022-07-14T09:05:03Z</time>
      </trkpt>
      <trkpt lat="44.68248" lon="7.09907">
        <ele>2318</ele>
        <time>2022-07-14T09:05:08Z</time>
      </trkpt>
      <trkpt lat="44.68252" lon="7.09905">
        <ele>2316</ele>
        <time>2022-07-14T09:05:20Z</time>
      </trkpt>
      <trkpt lat="44.68255" lon="7.09903">
        <ele>2314</ele>
        <time>2022-07-14T09:05:31Z</time>
      </trkpt>
      <trkpt lat="44.68258" lon="7.09899">
        <ele>2312</ele>
        <time>2022-07-14T09:05:40Z</time>
      </trkpt>
      <trkpt lat="44.68262" lon="7.09896">
        <ele>2309</ele>
        <time>2022-07-14T09:05:48Z</time>
      </trkpt>
      <trkpt lat="44.68265" lon="7.09892">
        <ele>2308</ele>
        <time>2022-07-14T09:05:55Z</time>
      </trkpt>
      <trkpt lat="44.68268" lon="7.09889">
        <ele>2306</ele>
        <time>2022-07-14T09:06:01Z</time>
      </trkpt>
      <trkpt lat="44.68271" lon="7.09886">
        <ele>2306</ele>
        <time>2022-07-14T09:06:09Z</time>
      </trkpt>
      <trkpt lat="44.68276" lon="7.09879">
        <ele>2304</ele>
        <time>2022-07-14T09:06:20Z</time>
      </trkpt>
      <trkpt lat="44.6828" lon="7.09878">
        <ele>2303</ele>
        <time>2022-07-14T09:06:26Z</time>
      </trkpt>
      <trkpt lat="44.68283" lon="7.09879">
        <ele>2303</ele>
        <time>2022-07-14T09:06:32Z</time>
      </trkpt>
      <trkpt lat="44.68286" lon="7.09883">
        <ele>2302</ele>
        <time>2022-07-14T09:06:38Z</time>
      </trkpt>
      <trkpt lat="44.68289" lon="7.09883">
        <ele>2302</ele>
        <time>2022-07-14T09:06:44Z</time>
      </trkpt>
      <trkpt lat="44.68293" lon="7.09882">
        <ele>2300</ele>
        <time>2022-07-14T09:06:50Z</time>
      </trkpt>
      <trkpt lat="44.68297" lon="7.09882">
        <ele>2300</ele>
        <time>2022-07-14T09:06:59Z</time>
      </trkpt>
      <trkpt lat="44.683" lon="7.09882">
        <ele>2298</ele>
        <time>2022-07-14T09:07:04Z</time>
      </trkpt>
      <trkpt lat="44.68302" lon="7.09887">
        <ele>2297</ele>
        <time>2022-07-14T09:07:10Z</time>
      </trkpt>
      <trkpt lat="44.68305" lon="7.09884">
        <ele>2297</ele>
        <time>2022-07-14T09:07:16Z</time>
      </trkpt>
      <trkpt lat="44.68308" lon="7.09887">
        <ele>2295</ele>
        <time>2022-07-14T09:07:23Z</time>
      </trkpt>
      <trkpt lat="44.68312" lon="7.09888">
        <ele>2292</ele>
        <time>2022-07-14T09:07:41Z</time>
      </trkpt>
      <trkpt lat="44.68315" lon="7.09885">
        <ele>2290</ele>
        <time>2022-07-14T09:07:50Z</time>
      </trkpt>
      <trkpt lat="44.68319" lon="7.09883">
        <ele>2288</ele>
        <time>2022-07-14T09:07:56Z</time>
      </trkpt>
      <trkpt lat="44.68322" lon="7.0988">
        <ele>2287</ele>
        <time>2022-07-14T09:08:04Z</time>
      </trkpt>
      <trkpt lat="44.68326" lon="7.09881">
        <ele>2285</ele>
        <time>2022-07-14T09:08:11Z</time>
      </trkpt>
      <trkpt lat="44.6833" lon="7.09882">
        <ele>2284</ele>
        <time>2022-07-14T09:08:18Z</time>
      </trkpt>
      <trkpt lat="44.68334" lon="7.09882">
        <ele>2282</ele>
        <time>2022-07-14T09:08:24Z</time>
      </trkpt>
      <trkpt lat="44.68336" lon="7.09885">
        <ele>2281</ele>
        <time>2022-07-14T09:08:33Z</time>
      </trkpt>
      <trkpt lat="44.68337" lon="7.0989">
        <ele>2279</ele>
        <time>2022-07-14T09:08:38Z</time>
      </trkpt>
      <trkpt lat="44.6834" lon="7.09891">
        <ele>2279</ele>
        <time>2022-07-14T09:08:45Z</time>
      </trkpt>
      <trkpt lat="44.68343" lon="7.09888">
        <ele>2278</ele>
        <time>2022-07-14T09:08:52Z</time>
      </trkpt>
      <trkpt lat="44.6835" lon="7.09889">
        <ele>2277</ele>
        <time>2022-07-14T09:09:06Z</time>
      </trkpt>
      <trkpt lat="44.68352" lon="7.09879">
        <ele>2274</ele>
        <time>2022-07-14T09:09:20Z</time>
      </trkpt>
      <trkpt lat="44.68354" lon="7.09874">
        <ele>2273</ele>
        <time>2022-07-14T09:09:27Z</time>
      </trkpt>
      <trkpt lat="44.68357" lon="7.09871">
        <ele>2273</ele>
        <time>2022-07-14T09:09:34Z</time>
      </trkpt>
      <trkpt lat="44.68359" lon="7.09868">
        <ele>2274</ele>
        <time>2022-07-14T09:09:40Z</time>
      </trkpt>
      <trkpt lat="44.68371" lon="7.09862">
        <ele>2274</ele>
        <time>2022-07-14T09:09:53Z</time>
      </trkpt>
      <trkpt lat="44.68374" lon="7.09859">
        <ele>2274</ele>
        <time>2022-07-14T09:09:58Z</time>
      </trkpt>
      <trkpt lat="44.68377" lon="7.09857">
        <ele>2274</ele>
        <time>2022-07-14T09:10:03Z</time>
      </trkpt>
      <trkpt lat="44.68381" lon="7.09854">
        <ele>2274</ele>
        <time>2022-07-14T09:10:07Z</time>
      </trkpt>
      <trkpt lat="44.68382" lon="7.0985">
        <ele>2275</ele>
        <time>2022-07-14T09:10:13Z</time>
      </trkpt>
      <trkpt lat="44.68386" lon="7.09847">
        <ele>2275</ele>
        <time>2022-07-14T09:10:19Z</time>
      </trkpt>
      <trkpt lat="44.68401" lon="7.09847">
        <ele>2274</ele>
        <time>2022-07-14T09:10:37Z</time>
      </trkpt>
      <trkpt lat="44.68404" lon="7.09844">
        <ele>2276</ele>
        <time>2022-07-14T09:10:43Z</time>
      </trkpt>
      <trkpt lat="44.68407" lon="7.09842">
        <ele>2275</ele>
        <time>2022-07-14T09:10:53Z</time>
      </trkpt>
      <trkpt lat="44.68411" lon="7.09843">
        <ele>2277</ele>
        <time>2022-07-14T09:11:07Z</time>
      </trkpt>
      <trkpt lat="44.68414" lon="7.0984">
        <ele>2277</ele>
        <time>2022-07-14T09:11:14Z</time>
      </trkpt>
      <trkpt lat="44.68418" lon="7.09842">
        <ele>2278</ele>
        <time>2022-07-14T09:11:20Z</time>
      </trkpt>
      <trkpt lat="44.6842" lon="7.09845">
        <ele>2278</ele>
        <time>2022-07-14T09:11:25Z</time>
      </trkpt>
      <trkpt lat="44.68424" lon="7.09847">
        <ele>2278</ele>
        <time>2022-07-14T09:11:32Z</time>
      </trkpt>
      <trkpt lat="44.68432" lon="7.09847">
        <ele>2278</ele>
        <time>2022-07-14T09:11:42Z</time>
      </trkpt>
      <trkpt lat="44.68436" lon="7.09847">
        <ele>2278</ele>
        <time>2022-07-14T09:11:48Z</time>
      </trkpt>
      <trkpt lat="44.6844" lon="7.09849">
        <ele>2279</ele>
        <time>2022-07-14T09:11:52Z</time>
      </trkpt>
      <trkpt lat="44.68447" lon="7.09852">
        <ele>2279</ele>
        <time>2022-07-14T09:12:01Z</time>
      </trkpt>
      <trkpt lat="44.68453" lon="7.09859">
        <ele>2279</ele>
        <time>2022-07-14T09:12:11Z</time>
      </trkpt>
      <trkpt lat="44.68465" lon="7.09865">
        <ele>2281</ele>
        <time>2022-07-14T09:12:28Z</time>
      </trkpt>
      <trkpt lat="44.68469" lon="7.09864">
        <ele>2281</ele>
        <time>2022-07-14T09:12:34Z</time>
      </trkpt>
      <trkpt lat="44.68472" lon="7.09866">
        <ele>2282</ele>
        <time>2022-07-14T09:12:40Z</time>
      </trkpt>
      <trkpt lat="44.68474" lon="7.0987">
        <ele>2282</ele>
        <time>2022-07-14T09:12:44Z</time>
      </trkpt>
      <trkpt lat="44.68481" lon="7.09871">
        <ele>2281</ele>
        <time>2022-07-14T09:12:54Z</time>
      </trkpt>
      <trkpt lat="44.68485" lon="7.09871">
        <ele>2281</ele>
        <time>2022-07-14T09:12:59Z</time>
      </trkpt>
      <trkpt lat="44.68488" lon="7.09868">
        <ele>2280</ele>
        <time>2022-07-14T09:13:04Z</time>
      </trkpt>
      <trkpt lat="44.68492" lon="7.09867">
        <ele>2280</ele>
        <time>2022-07-14T09:13:10Z</time>
      </trkpt>
      <trkpt lat="44.68494" lon="7.09864">
        <ele>2279</ele>
        <time>2022-07-14T09:13:20Z</time>
      </trkpt>
      <trkpt lat="44.68496" lon="7.09859">
        <ele>2278</ele>
        <time>2022-07-14T09:13:26Z</time>
      </trkpt>
      <trkpt lat="44.68496" lon="7.09854">
        <ele>2276</ele>
        <time>2022-07-14T09:13:32Z</time>
      </trkpt>
      <trkpt lat="44.68495" lon="7.09849">
        <ele>2275</ele>
        <time>2022-07-14T09:13:37Z</time>
      </trkpt>
      <trkpt lat="44.68495" lon="7.09844">
        <ele>2274</ele>
        <time>2022-07-14T09:13:42Z</time>
      </trkpt>
      <trkpt lat="44.68497" lon="7.0984">
        <ele>2273</ele>
        <time>2022-07-14T09:13:47Z</time>
      </trkpt>
      <trkpt lat="44.68498" lon="7.09825">
        <ele>2270</ele>
        <time>2022-07-14T09:14:04Z</time>
      </trkpt>
      <trkpt lat="44.68501" lon="7.09823">
        <ele>2270</ele>
        <time>2022-07-14T09:14:18Z</time>
      </trkpt>
      <trkpt lat="44.68505" lon="7.09825">
        <ele>2270</ele>
        <time>2022-07-14T09:25:53Z</time>
      </trkpt>
      <trkpt lat="44.68508" lon="7.09829">
        <ele>2270</ele>
        <time>2022-07-14T09:25:57Z</time>
      </trkpt>
      <trkpt lat="44.68507" lon="7.09834">
        <ele>2270</ele>
        <time>2022-07-14T09:26:00Z</time>
      </trkpt>
      <trkpt lat="44.68503" lon="7.09843">
        <ele>2271</ele>
        <time>2022-07-14T09:26:08Z</time>
      </trkpt>
      <trkpt lat="44.68503" lon="7.09848">
        <ele>2272</ele>
        <time>2022-07-14T09:26:12Z</time>
      </trkpt>
      <trkpt lat="44.68504" lon="7.09853">
        <ele>2272</ele>
        <time>2022-07-14T09:26:16Z</time>
      </trkpt>
      <trkpt lat="44.68505" lon="7.09859">
        <ele>2274</ele>
        <time>2022-07-14T09:26:21Z</time>
      </trkpt>
      <trkpt lat="44.68507" lon="7.09863">
        <ele>2275</ele>
        <time>2022-07-14T09:26:26Z</time>
      </trkpt>
      <trkpt lat="44.68511" lon="7.09862">
        <ele>2275</ele>
        <time>2022-07-14T09:26:30Z</time>
      </trkpt>
      <trkpt lat="44.68515" lon="7.09862">
        <ele>2275</ele>
        <time>2022-07-14T09:26:34Z</time>
      </trkpt>
      <trkpt lat="44.68522" lon="7.09861">
        <ele>2275</ele>
        <time>2022-07-14T09:26:42Z</time>
      </trkpt>
      <trkpt lat="44.68526" lon="7.09862">
        <ele>2276</ele>
        <time>2022-07-14T09:26:46Z</time>
      </trkpt>
      <trkpt lat="44.68531" lon="7.0986">
        <ele>2276</ele>
        <time>2022-07-14T09:26:50Z</time>
      </trkpt>
      <trkpt lat="44.68535" lon="7.09861">
        <ele>2277</ele>
        <time>2022-07-14T09:26:54Z</time>
      </trkpt>
      <trkpt lat="44.68539" lon="7.09862">
        <ele>2276</ele>
        <time>2022-07-14T09:26:59Z</time>
      </trkpt>
      <trkpt lat="44.68545" lon="7.09856">
        <ele>2278</ele>
        <time>2022-07-14T09:27:03Z</time>
      </trkpt>
      <trkpt lat="44.68548" lon="7.09857">
        <ele>2279</ele>
        <time>2022-07-14T09:27:05Z</time>
      </trkpt>
      <trkpt lat="44.68551" lon="7.0986">
        <ele>2280</ele>
        <time>2022-07-14T09:27:08Z</time>
      </trkpt>
      <trkpt lat="44.68555" lon="7.09862">
        <ele>2280</ele>
        <time>2022-07-14T09:27:16Z</time>
      </trkpt>
      <trkpt lat="44.68559" lon="7.0986">
        <ele>2278</ele>
        <time>2022-07-14T09:27:19Z</time>
      </trkpt>
      <trkpt lat="44.68558" lon="7.09855">
        <ele>2276</ele>
        <time>2022-07-14T09:27:22Z</time>
      </trkpt>
      <trkpt lat="44.6856" lon="7.09851">
        <ele>2274</ele>
        <time>2022-07-14T09:27:31Z</time>
      </trkpt>
      <trkpt lat="44.68562" lon="7.09847">
        <ele>2271</ele>
        <time>2022-07-14T09:27:37Z</time>
      </trkpt>
      <trkpt lat="44.68566" lon="7.09847">
        <ele>2271</ele>
        <time>2022-07-14T09:27:43Z</time>
      </trkpt>
      <trkpt lat="44.68569" lon="7.09845">
        <ele>2271</ele>
        <time>2022-07-14T09:27:52Z</time>
      </trkpt>
      <trkpt lat="44.68572" lon="7.09848">
        <ele>2271</ele>
        <time>2022-07-14T09:27:57Z</time>
      </trkpt>
      <trkpt lat="44.68582" lon="7.09857">
        <ele>2271</ele>
        <time>2022-07-14T09:28:13Z</time>
      </trkpt>
      <trkpt lat="44.68584" lon="7.09862">
        <ele>2272</ele>
        <time>2022-07-14T09:28:22Z</time>
      </trkpt>
      <trkpt lat="44.68592" lon="7.0987">
        <ele>2279</ele>
        <time>2022-07-14T09:28:46Z</time>
      </trkpt>
      <trkpt lat="44.68595" lon="7.09873">
        <ele>2280</ele>
        <time>2022-07-14T09:28:53Z</time>
      </trkpt>
      <trkpt lat="44.68599" lon="7.09873">
        <ele>2281</ele>
        <time>2022-07-14T09:29:00Z</time>
      </trkpt>
      <trkpt lat="44.68602" lon="7.09869">
        <ele>2282</ele>
        <time>2022-07-14T09:29:10Z</time>
      </trkpt>
      <trkpt lat="44.68605" lon="7.0987">
        <ele>2283</ele>
        <time>2022-07-14T09:29:16Z</time>
      </trkpt>
      <trkpt lat="44.68611" lon="7.09876">
        <ele>2282</ele>
        <time>2022-07-14T09:29:28Z</time>
      </trkpt>
      <trkpt lat="44.68614" lon="7.09878">
        <ele>2282</ele>
        <time>2022-07-14T09:29:35Z</time>
      </trkpt>
      <trkpt lat="44.68617" lon="7.09883">
        <ele>2283</ele>
        <time>2022-07-14T09:29:43Z</time>
      </trkpt>
      <trkpt lat="44.68619" lon="7.09886">
        <ele>2285</ele>
        <time>2022-07-14T09:29:52Z</time>
      </trkpt>
      <trkpt lat="44.68622" lon="7.09886">
        <ele>2287</ele>
        <time>2022-07-14T09:29:58Z</time>
      </trkpt>
      <trkpt lat="44.68625" lon="7.09882">
        <ele>2288</ele>
        <time>2022-07-14T09:30:06Z</time>
      </trkpt>
      <trkpt lat="44.68628" lon="7.09881">
        <ele>2290</ele>
        <time>2022-07-14T09:30:12Z</time>
      </trkpt>
      <trkpt lat="44.6863" lon="7.09877">
        <ele>2290</ele>
        <time>2022-07-14T09:30:20Z</time>
      </trkpt>
      <trkpt lat="44.68634" lon="7.09876">
        <ele>2292</ele>
        <time>2022-07-14T09:30:28Z</time>
      </trkpt>
      <trkpt lat="44.68637" lon="7.09873">
        <ele>2292</ele>
        <time>2022-07-14T09:30:40Z</time>
      </trkpt>
      <trkpt lat="44.6864" lon="7.09873">
        <ele>2292</ele>
        <time>2022-07-14T09:30:47Z</time>
      </trkpt>
      <trkpt lat="44.68644" lon="7.09872">
        <ele>2293</ele>
        <time>2022-07-14T09:30:54Z</time>
      </trkpt>
      <trkpt lat="44.68647" lon="7.09868">
        <ele>2294</ele>
        <time>2022-07-14T09:31:00Z</time>
      </trkpt>
      <trkpt lat="44.68645" lon="7.09865">
        <ele>2294</ele>
        <time>2022-07-14T09:31:08Z</time>
      </trkpt>
      <trkpt lat="44.68642" lon="7.09862">
        <ele>2296</ele>
        <time>2022-07-14T09:31:16Z</time>
      </trkpt>
      <trkpt lat="44.68645" lon="7.09858">
        <ele>2297</ele>
        <time>2022-07-14T09:31:23Z</time>
      </trkpt>
      <trkpt lat="44.68644" lon="7.09853">
        <ele>2299</ele>
        <time>2022-07-14T09:31:34Z</time>
      </trkpt>
      <trkpt lat="44.68646" lon="7.09849">
        <ele>2301</ele>
        <time>2022-07-14T09:31:44Z</time>
      </trkpt>
      <trkpt lat="44.68649" lon="7.09846">
        <ele>2303</ele>
        <time>2022-07-14T09:31:50Z</time>
      </trkpt>
      <trkpt lat="44.68652" lon="7.09841">
        <ele>2304</ele>
        <time>2022-07-14T09:31:58Z</time>
      </trkpt>
      <trkpt lat="44.68659" lon="7.0984">
        <ele>2308</ele>
        <time>2022-07-14T09:32:24Z</time>
      </trkpt>
      <trkpt lat="44.68662" lon="7.09839">
        <ele>2311</ele>
        <time>2022-07-14T09:32:36Z</time>
      </trkpt>
      <trkpt lat="44.68666" lon="7.09838">
        <ele>2313</ele>
        <time>2022-07-14T09:32:44Z</time>
      </trkpt>
      <trkpt lat="44.68669" lon="7.09837">
        <ele>2314</ele>
        <time>2022-07-14T09:32:51Z</time>
      </trkpt>
      <trkpt lat="44.6867" lon="7.09831">
        <ele>2315</ele>
        <time>2022-07-14T09:32:57Z</time>
      </trkpt>
      <trkpt lat="44.68677" lon="7.09819">
        <ele>2315</ele>
        <time>2022-07-14T09:33:13Z</time>
      </trkpt>
      <trkpt lat="44.6868" lon="7.09816">
        <ele>2315</ele>
        <time>2022-07-14T09:33:19Z</time>
      </trkpt>
      <trkpt lat="44.68681" lon="7.09811">
        <ele>2315</ele>
        <time>2022-07-14T09:33:25Z</time>
      </trkpt>
      <trkpt lat="44.68683" lon="7.098">
        <ele>2317</ele>
        <time>2022-07-14T09:33:37Z</time>
      </trkpt>
      <trkpt lat="44.68685" lon="7.09796">
        <ele>2317</ele>
        <time>2022-07-14T09:33:43Z</time>
      </trkpt>
      <trkpt lat="44.68685" lon="7.09791">
        <ele>2319</ele>
        <time>2022-07-14T09:33:50Z</time>
      </trkpt>
      <trkpt lat="44.68688" lon="7.09787">
        <ele>2319</ele>
        <time>2022-07-14T09:33:56Z</time>
      </trkpt>
      <trkpt lat="44.68689" lon="7.09777">
        <ele>2320</ele>
        <time>2022-07-14T09:34:05Z</time>
      </trkpt>
      <trkpt lat="44.6869" lon="7.09771">
        <ele>2320</ele>
        <time>2022-07-14T09:34:10Z</time>
      </trkpt>
      <trkpt lat="44.68692" lon="7.09756">
        <ele>2320</ele>
        <time>2022-07-14T09:34:24Z</time>
      </trkpt>
      <trkpt lat="44.68696" lon="7.09748">
        <ele>2319</ele>
        <time>2022-07-14T09:34:41Z</time>
      </trkpt>
      <trkpt lat="44.68692" lon="7.0975">
        <ele>2317</ele>
        <time>2022-07-14T09:35:14Z</time>
      </trkpt>
      <trkpt lat="44.6869" lon="7.09747">
        <ele>2317</ele>
        <time>2022-07-14T09:35:26Z</time>
      </trkpt>
      <trkpt lat="44.68688" lon="7.09743">
        <ele>2316</ele>
        <time>2022-07-14T09:35:32Z</time>
      </trkpt>
      <trkpt lat="44.68683" lon="7.09735">
        <ele>2316</ele>
        <time>2022-07-14T09:35:51Z</time>
      </trkpt>
      <trkpt lat="44.68682" lon="7.09731">
        <ele>2316</ele>
        <time>2022-07-14T09:36:26Z</time>
      </trkpt>
      <trkpt lat="44.68681" lon="7.09726">
        <ele>2316</ele>
        <time>2022-07-14T09:36:31Z</time>
      </trkpt>
      <trkpt lat="44.6868" lon="7.09721">
        <ele>2317</ele>
        <time>2022-07-14T09:36:36Z</time>
      </trkpt>
      <trkpt lat="44.68677" lon="7.09717">
        <ele>2317</ele>
        <time>2022-07-14T09:36:42Z</time>
      </trkpt>
      <trkpt lat="44.68674" lon="7.09714">
        <ele>2317</ele>
        <time>2022-07-14T09:36:48Z</time>
      </trkpt>
      <trkpt lat="44.68671" lon="7.09711">
        <ele>2317</ele>
        <time>2022-07-14T09:36:53Z</time>
      </trkpt>
      <trkpt lat="44.68675" lon="7.09707">
        <ele>2318</ele>
        <time>2022-07-14T09:36:59Z</time>
      </trkpt>
      <trkpt lat="44.68673" lon="7.09703">
        <ele>2321</ele>
        <time>2022-07-14T09:37:10Z</time>
      </trkpt>
      <trkpt lat="44.68666" lon="7.09702">
        <ele>2321</ele>
        <time>2022-07-14T09:37:24Z</time>
      </trkpt>
      <trkpt lat="44.68665" lon="7.09698">
        <ele>2322</ele>
        <time>2022-07-14T09:37:32Z</time>
      </trkpt>
      <trkpt lat="44.68662" lon="7.09688">
        <ele>2324</ele>
        <time>2022-07-14T09:37:44Z</time>
      </trkpt>
      <trkpt lat="44.6866" lon="7.09678">
        <ele>2325</ele>
        <time>2022-07-14T09:37:54Z</time>
      </trkpt>
      <trkpt lat="44.68656" lon="7.09657">
        <ele>2326</ele>
        <time>2022-07-14T09:38:15Z</time>
      </trkpt>
      <trkpt lat="44.68658" lon="7.09653">
        <ele>2326</ele>
        <time>2022-07-14T09:38:20Z</time>
      </trkpt>
      <trkpt lat="44.68657" lon="7.09647">
        <ele>2327</ele>
        <time>2022-07-14T09:38:25Z</time>
      </trkpt>
      <trkpt lat="44.68659" lon="7.09642">
        <ele>2328</ele>
        <time>2022-07-14T09:38:31Z</time>
      </trkpt>
      <trkpt lat="44.6866" lon="7.09627">
        <ele>2331</ele>
        <time>2022-07-14T09:38:50Z</time>
      </trkpt>
      <trkpt lat="44.6866" lon="7.09622">
        <ele>2332</ele>
        <time>2022-07-14T09:38:57Z</time>
      </trkpt>
      <trkpt lat="44.6866" lon="7.09617">
        <ele>2333</ele>
        <time>2022-07-14T09:39:03Z</time>
      </trkpt>
      <trkpt lat="44.68659" lon="7.09612">
        <ele>2334</ele>
        <time>2022-07-14T09:39:09Z</time>
      </trkpt>
      <trkpt lat="44.68663" lon="7.09609">
        <ele>2334</ele>
        <time>2022-07-14T09:39:16Z</time>
      </trkpt>
      <trkpt lat="44.68666" lon="7.09607">
        <ele>2336</ele>
        <time>2022-07-14T09:39:23Z</time>
      </trkpt>
      <trkpt lat="44.6867" lon="7.09609">
        <ele>2337</ele>
        <time>2022-07-14T09:39:29Z</time>
      </trkpt>
      <trkpt lat="44.68674" lon="7.0961">
        <ele>2339</ele>
        <time>2022-07-14T09:39:35Z</time>
      </trkpt>
      <trkpt lat="44.68673" lon="7.09605">
        <ele>2338</ele>
        <time>2022-07-14T09:39:42Z</time>
      </trkpt>
      <trkpt lat="44.6867" lon="7.09601">
        <ele>2338</ele>
        <time>2022-07-14T09:39:47Z</time>
      </trkpt>
      <trkpt lat="44.68668" lon="7.09598">
        <ele>2339</ele>
        <time>2022-07-14T09:39:52Z</time>
      </trkpt>
      <trkpt lat="44.68664" lon="7.09588">
        <ele>2342</ele>
        <time>2022-07-14T09:40:04Z</time>
      </trkpt>
      <trkpt lat="44.68665" lon="7.09583">
        <ele>2342</ele>
        <time>2022-07-14T09:40:10Z</time>
      </trkpt>
      <trkpt lat="44.68668" lon="7.09583">
        <ele>2343</ele>
        <time>2022-07-14T09:40:19Z</time>
      </trkpt>
      <trkpt lat="44.68671" lon="7.09587">
        <ele>2344</ele>
        <time>2022-07-14T09:40:25Z</time>
      </trkpt>
      <trkpt lat="44.68675" lon="7.09589">
        <ele>2345</ele>
        <time>2022-07-14T09:40:30Z</time>
      </trkpt>
      <trkpt lat="44.68678" lon="7.09592">
        <ele>2346</ele>
        <time>2022-07-14T09:40:39Z</time>
      </trkpt>
      <trkpt lat="44.68681" lon="7.09595">
        <ele>2347</ele>
        <time>2022-07-14T09:40:46Z</time>
      </trkpt>
      <trkpt lat="44.68683" lon="7.09591">
        <ele>2347</ele>
        <time>2022-07-14T09:41:01Z</time>
      </trkpt>
      <trkpt lat="44.68682" lon="7.09586">
        <ele>2348</ele>
        <time>2022-07-14T09:41:07Z</time>
      </trkpt>
      <trkpt lat="44.68682" lon="7.09581">
        <ele>2351</ele>
        <time>2022-07-14T09:41:13Z</time>
      </trkpt>
      <trkpt lat="44.68682" lon="7.09576">
        <ele>2351</ele>
        <time>2022-07-14T09:41:19Z</time>
      </trkpt>
      <trkpt lat="44.68685" lon="7.09567">
        <ele>2351</ele>
        <time>2022-07-14T09:41:31Z</time>
      </trkpt>
      <trkpt lat="44.68688" lon="7.09564">
        <ele>2352</ele>
        <time>2022-07-14T09:41:36Z</time>
      </trkpt>
      <trkpt lat="44.68701" lon="7.09544">
        <ele>2351</ele>
        <time>2022-07-14T09:41:59Z</time>
      </trkpt>
      <trkpt lat="44.68706" lon="7.0953">
        <ele>2353</ele>
        <time>2022-07-14T09:42:14Z</time>
      </trkpt>
      <trkpt lat="44.68707" lon="7.09525">
        <ele>2354</ele>
        <time>2022-07-14T09:42:19Z</time>
      </trkpt>
      <trkpt lat="44.68709" lon="7.09515">
        <ele>2355</ele>
        <time>2022-07-14T09:42:28Z</time>
      </trkpt>
      <trkpt lat="44.68709" lon="7.09506">
        <ele>2358</ele>
        <time>2022-07-14T09:42:43Z</time>
      </trkpt>
      <trkpt lat="44.68711" lon="7.09503">
        <ele>2359</ele>
        <time>2022-07-14T09:43:03Z</time>
      </trkpt>
      <trkpt lat="44.68719" lon="7.09505">
        <ele>2361</ele>
        <time>2022-07-14T09:43:16Z</time>
      </trkpt>
      <trkpt lat="44.68722" lon="7.09506">
        <ele>2361</ele>
        <time>2022-07-14T09:43:21Z</time>
      </trkpt>
      <trkpt lat="44.68729" lon="7.095">
        <ele>2362</ele>
        <time>2022-07-14T09:43:32Z</time>
      </trkpt>
      <trkpt lat="44.68731" lon="7.09496">
        <ele>2363</ele>
        <time>2022-07-14T09:43:37Z</time>
      </trkpt>
      <trkpt lat="44.68732" lon="7.09491">
        <ele>2364</ele>
        <time>2022-07-14T09:43:43Z</time>
      </trkpt>
      <trkpt lat="44.68733" lon="7.09486">
        <ele>2366</ele>
        <time>2022-07-14T09:43:48Z</time>
      </trkpt>
      <trkpt lat="44.68736" lon="7.09477">
        <ele>2366</ele>
        <time>2022-07-14T09:43:59Z</time>
      </trkpt>
      <trkpt lat="44.68736" lon="7.09472">
        <ele>2367</ele>
        <time>2022-07-14T09:44:13Z</time>
      </trkpt>
      <trkpt lat="44.68735" lon="7.09466">
        <ele>2367</ele>
        <time>2022-07-14T09:44:20Z</time>
      </trkpt>
      <trkpt lat="44.68736" lon="7.09461">
        <ele>2367</ele>
        <time>2022-07-14T09:44:25Z</time>
      </trkpt>
      <trkpt lat="44.68737" lon="7.09456">
        <ele>2367</ele>
        <time>2022-07-14T09:44:30Z</time>
      </trkpt>
      <trkpt lat="44.68738" lon="7.09451">
        <ele>2368</ele>
        <time>2022-07-14T09:44:36Z</time>
      </trkpt>
      <trkpt lat="44.68736" lon="7.09447">
        <ele>2369</ele>
        <time>2022-07-14T09:44:44Z</time>
      </trkpt>
      <trkpt lat="44.68737" lon="7.09442">
        <ele>2370</ele>
        <time>2022-07-14T09:44:50Z</time>
      </trkpt>
      <trkpt lat="44.68737" lon="7.09437">
        <ele>2372</ele>
        <time>2022-07-14T09:44:56Z</time>
      </trkpt>
      <trkpt lat="44.68738" lon="7.09431">
        <ele>2372</ele>
        <time>2022-07-14T09:45:01Z</time>
      </trkpt>
      <trkpt lat="44.68735" lon="7.09427">
        <ele>2372</ele>
        <time>2022-07-14T09:45:12Z</time>
      </trkpt>
      <trkpt lat="44.68732" lon="7.09426">
        <ele>2374</ele>
        <time>2022-07-14T09:45:20Z</time>
      </trkpt>
      <trkpt lat="44.68732" lon="7.09421">
        <ele>2376</ele>
        <time>2022-07-14T09:45:27Z</time>
      </trkpt>
      <trkpt lat="44.68732" lon="7.09416">
        <ele>2377</ele>
        <time>2022-07-14T09:45:39Z</time>
      </trkpt>
      <trkpt lat="44.68731" lon="7.09411">
        <ele>2378</ele>
        <time>2022-07-14T09:45:46Z</time>
      </trkpt>
      <trkpt lat="44.68726" lon="7.09404">
        <ele>2379</ele>
        <time>2022-07-14T09:45:57Z</time>
      </trkpt>
      <trkpt lat="44.6872" lon="7.09399">
        <ele>2379</ele>
        <time>2022-07-14T09:46:07Z</time>
      </trkpt>
      <trkpt lat="44.68714" lon="7.09393">
        <ele>2379</ele>
        <time>2022-07-14T09:46:15Z</time>
      </trkpt>
      <trkpt lat="44.68712" lon="7.09389">
        <ele>2378</ele>
        <time>2022-07-14T09:46:19Z</time>
      </trkpt>
      <trkpt lat="44.68701" lon="7.09374">
        <ele>2377</ele>
        <time>2022-07-14T09:46:35Z</time>
      </trkpt>
      <trkpt lat="44.687" lon="7.09369">
        <ele>2377</ele>
        <time>2022-07-14T09:46:39Z</time>
      </trkpt>
      <trkpt lat="44.68699" lon="7.09364">
        <ele>2376</ele>
        <time>2022-07-14T09:46:44Z</time>
      </trkpt>
      <trkpt lat="44.68698" lon="7.09349">
        <ele>2375</ele>
        <time>2022-07-14T09:46:59Z</time>
      </trkpt>
      <trkpt lat="44.68704" lon="7.09334">
        <ele>2374</ele>
        <time>2022-07-14T09:47:20Z</time>
      </trkpt>
      <trkpt lat="44.68708" lon="7.09325">
        <ele>2374</ele>
        <time>2022-07-14T09:47:27Z</time>
      </trkpt>
      <trkpt lat="44.68712" lon="7.09316">
        <ele>2373</ele>
        <time>2022-07-14T09:47:42Z</time>
      </trkpt>
      <trkpt lat="44.68718" lon="7.0931">
        <ele>2374</ele>
        <time>2022-07-14T09:47:53Z</time>
      </trkpt>
      <trkpt lat="44.6872" lon="7.09306">
        <ele>2373</ele>
        <time>2022-07-14T09:48:03Z</time>
      </trkpt>
      <trkpt lat="44.68742" lon="7.09274">
        <ele>2370</ele>
        <time>2022-07-14T09:48:34Z</time>
      </trkpt>
      <trkpt lat="44.68744" lon="7.09269">
        <ele>2370</ele>
        <time>2022-07-14T09:48:39Z</time>
      </trkpt>
      <trkpt lat="44.68748" lon="7.0926">
        <ele>2371</ele>
        <time>2022-07-14T09:48:47Z</time>
      </trkpt>
      <trkpt lat="44.68747" lon="7.09248">
        <ele>2370</ele>
        <time>2022-07-14T09:48:57Z</time>
      </trkpt>
      <trkpt lat="44.68748" lon="7.09227">
        <ele>2371</ele>
        <time>2022-07-14T09:49:15Z</time>
      </trkpt>
      <trkpt lat="44.68746" lon="7.09206">
        <ele>2371</ele>
        <time>2022-07-14T09:49:32Z</time>
      </trkpt>
      <trkpt lat="44.68747" lon="7.0919">
        <ele>2371</ele>
        <time>2022-07-14T09:49:46Z</time>
      </trkpt>
      <trkpt lat="44.68746" lon="7.09184">
        <ele>2371</ele>
        <time>2022-07-14T09:49:52Z</time>
      </trkpt>
      <trkpt lat="44.68746" lon="7.09179">
        <ele>2370</ele>
        <time>2022-07-14T09:50:23Z</time>
      </trkpt>
      <trkpt lat="44.68748" lon="7.09169">
        <ele>2371</ele>
        <time>2022-07-14T09:50:33Z</time>
      </trkpt>
      <trkpt lat="44.68749" lon="7.09164">
        <ele>2372</ele>
        <time>2022-07-14T09:50:38Z</time>
      </trkpt>
      <trkpt lat="44.68757" lon="7.0914">
        <ele>2373</ele>
        <time>2022-07-14T09:51:09Z</time>
      </trkpt>
      <trkpt lat="44.68756" lon="7.09135">
        <ele>2373</ele>
        <time>2022-07-14T09:51:14Z</time>
      </trkpt>
      <trkpt lat="44.68761" lon="7.09115">
        <ele>2375</ele>
        <time>2022-07-14T09:51:34Z</time>
      </trkpt>
      <trkpt lat="44.68764" lon="7.09111">
        <ele>2376</ele>
        <time>2022-07-14T09:51:41Z</time>
      </trkpt>
      <trkpt lat="44.68766" lon="7.09107">
        <ele>2376</ele>
        <time>2022-07-14T09:51:47Z</time>
      </trkpt>
      <trkpt lat="44.68769" lon="7.09104">
        <ele>2377</ele>
        <time>2022-07-14T09:51:53Z</time>
      </trkpt>
      <trkpt lat="44.68776" lon="7.09101">
        <ele>2379</ele>
        <time>2022-07-14T09:52:04Z</time>
      </trkpt>
      <trkpt lat="44.6878" lon="7.091">
        <ele>2380</ele>
        <time>2022-07-14T09:52:09Z</time>
      </trkpt>
      <trkpt lat="44.68787" lon="7.09097">
        <ele>2383</ele>
        <time>2022-07-14T09:52:20Z</time>
      </trkpt>
      <trkpt lat="44.68791" lon="7.091">
        <ele>2384</ele>
        <time>2022-07-14T09:52:25Z</time>
      </trkpt>
      <trkpt lat="44.68798" lon="7.091">
        <ele>2386</ele>
        <time>2022-07-14T09:52:35Z</time>
      </trkpt>
      <trkpt lat="44.68802" lon="7.091">
        <ele>2387</ele>
        <time>2022-07-14T09:52:40Z</time>
      </trkpt>
      <trkpt lat="44.68806" lon="7.09098">
        <ele>2388</ele>
        <time>2022-07-14T09:52:48Z</time>
      </trkpt>
      <trkpt lat="44.68809" lon="7.09099">
        <ele>2388</ele>
        <time>2022-07-14T09:52:53Z</time>
      </trkpt>
      <trkpt lat="44.68813" lon="7.09098">
        <ele>2389</ele>
        <time>2022-07-14T09:52:58Z</time>
      </trkpt>
      <trkpt lat="44.68824" lon="7.09093">
        <ele>2389</ele>
        <time>2022-07-14T09:53:14Z</time>
      </trkpt>
      <trkpt lat="44.68827" lon="7.09091">
        <ele>2390</ele>
        <time>2022-07-14T09:53:20Z</time>
      </trkpt>
      <trkpt lat="44.6884" lon="7.09063">
        <ele>2396</ele>
        <time>2022-07-14T09:53:54Z</time>
      </trkpt>
      <trkpt lat="44.68848" lon="7.09054">
        <ele>2390</ele>
        <time>2022-07-14T09:54:57Z</time>
      </trkpt>
      <trkpt lat="44.68856" lon="7.09047">
        <ele>2388</ele>
        <time>2022-07-14T09:55:08Z</time>
      </trkpt>
      <trkpt lat="44.68863" lon="7.09039">
        <ele>2385</ele>
        <time>2022-07-14T09:55:20Z</time>
      </trkpt>
      <trkpt lat="44.68866" lon="7.09026">
        <ele>2383</ele>
        <time>2022-07-14T09:55:32Z</time>
      </trkpt>
      <trkpt lat="44.6887" lon="7.09021">
        <ele>2382</ele>
        <time>2022-07-14T09:55:38Z</time>
      </trkpt>
      <trkpt lat="44.68869" lon="7.09016">
        <ele>2381</ele>
        <time>2022-07-14T09:55:43Z</time>
      </trkpt>
      <trkpt lat="44.68871" lon="7.09011">
        <ele>2379</ele>
        <time>2022-07-14T09:55:59Z</time>
      </trkpt>
      <trkpt lat="44.68873" lon="7.09006">
        <ele>2379</ele>
        <time>2022-07-14T09:56:05Z</time>
      </trkpt>
      <trkpt lat="44.68876" lon="7.09008">
        <ele>2377</ele>
        <time>2022-07-14T09:56:09Z</time>
      </trkpt>
      <trkpt lat="44.68884" lon="7.0901">
        <ele>2376</ele>
        <time>2022-07-14T09:56:17Z</time>
      </trkpt>
      <trkpt lat="44.68888" lon="7.09012">
        <ele>2375</ele>
        <time>2022-07-14T09:56:21Z</time>
      </trkpt>
      <trkpt lat="44.68891" lon="7.09016">
        <ele>2374</ele>
        <time>2022-07-14T09:56:25Z</time>
      </trkpt>
      <trkpt lat="44.68894" lon="7.09017">
        <ele>2374</ele>
        <time>2022-07-14T09:56:30Z</time>
      </trkpt>
      <trkpt lat="44.689" lon="7.09014">
        <ele>2371</ele>
        <time>2022-07-14T09:56:36Z</time>
      </trkpt>
      <trkpt lat="44.68905" lon="7.09003">
        <ele>2370</ele>
        <time>2022-07-14T09:56:53Z</time>
      </trkpt>
      <trkpt lat="44.68914" lon="7.09005">
        <ele>2372</ele>
        <time>2022-07-14T09:57:07Z</time>
      </trkpt>
      <trkpt lat="44.68918" lon="7.09003">
        <ele>2373</ele>
        <time>2022-07-14T09:57:17Z</time>
      </trkpt>
      <trkpt lat="44.68917" lon="7.08998">
        <ele>2373</ele>
        <time>2022-07-14T09:57:22Z</time>
      </trkpt>
      <trkpt lat="44.68919" lon="7.08994">
        <ele>2372</ele>
        <time>2022-07-14T09:57:26Z</time>
      </trkpt>
      <trkpt lat="44.68922" lon="7.08991">
        <ele>2372</ele>
        <time>2022-07-14T09:57:30Z</time>
      </trkpt>
      <trkpt lat="44.68926" lon="7.08991">
        <ele>2371</ele>
        <time>2022-07-14T09:57:35Z</time>
      </trkpt>
      <trkpt lat="44.6893" lon="7.08992">
        <ele>2371</ele>
        <time>2022-07-14T09:57:40Z</time>
      </trkpt>
      <trkpt lat="44.68946" lon="7.08978">
        <ele>2369</ele>
        <time>2022-07-14T09:58:05Z</time>
      </trkpt>
      <trkpt lat="44.68949" lon="7.08976">
        <ele>2369</ele>
        <time>2022-07-14T09:58:10Z</time>
      </trkpt>
      <trkpt lat="44.68951" lon="7.08971">
        <ele>2369</ele>
        <time>2022-07-14T09:58:15Z</time>
      </trkpt>
      <trkpt lat="44.68951" lon="7.08966">
        <ele>2369</ele>
        <time>2022-07-14T09:58:39Z</time>
      </trkpt>
      <trkpt lat="44.68952" lon="7.08961">
        <ele>2368</ele>
        <time>2022-07-14T09:58:47Z</time>
      </trkpt>
      <trkpt lat="44.68954" lon="7.08957">
        <ele>2370</ele>
        <time>2022-07-14T09:58:56Z</time>
      </trkpt>
      <trkpt lat="44.68956" lon="7.08953">
        <ele>2370</ele>
        <time>2022-07-14T09:59:31Z</time>
      </trkpt>
      <trkpt lat="44.68959" lon="7.0895">
        <ele>2369</ele>
        <time>2022-07-14T09:59:40Z</time>
      </trkpt>
      <trkpt lat="44.68963" lon="7.08948">
        <ele>2367</ele>
        <time>2022-07-14T10:00:43Z</time>
      </trkpt>
      <trkpt lat="44.68966" lon="7.08948">
        <ele>2364</ele>
        <time>2022-07-14T10:00:49Z</time>
      </trkpt>
      <trkpt lat="44.6897" lon="7.08948">
        <ele>2364</ele>
        <time>2022-07-14T10:00:55Z</time>
      </trkpt>
      <trkpt lat="44.68974" lon="7.08949">
        <ele>2361</ele>
        <time>2022-07-14T10:01:10Z</time>
      </trkpt>
      <trkpt lat="44.68977" lon="7.08947">
        <ele>2360</ele>
        <time>2022-07-14T10:01:17Z</time>
      </trkpt>
      <trkpt lat="44.68981" lon="7.08946">
        <ele>2357</ele>
        <time>2022-07-14T10:01:23Z</time>
      </trkpt>
      <trkpt lat="44.6898" lon="7.08941">
        <ele>2357</ele>
        <time>2022-07-14T10:01:28Z</time>
      </trkpt>
      <trkpt lat="44.68977" lon="7.08938">
        <ele>2357</ele>
        <time>2022-07-14T10:01:33Z</time>
      </trkpt>
      <trkpt lat="44.68975" lon="7.08934">
        <ele>2356</ele>
        <time>2022-07-14T10:01:40Z</time>
      </trkpt>
      <trkpt lat="44.68984" lon="7.08926">
        <ele>2352</ele>
        <time>2022-07-14T10:02:02Z</time>
      </trkpt>
      <trkpt lat="44.68988" lon="7.08928">
        <ele>2352</ele>
        <time>2022-07-14T10:02:06Z</time>
      </trkpt>
      <trkpt lat="44.68991" lon="7.08926">
        <ele>2352</ele>
        <time>2022-07-14T10:02:15Z</time>
      </trkpt>
      <trkpt lat="44.68995" lon="7.08928">
        <ele>2351</ele>
        <time>2022-07-14T10:02:20Z</time>
      </trkpt>
      <trkpt lat="44.68998" lon="7.08927">
        <ele>2350</ele>
        <time>2022-07-14T10:02:28Z</time>
      </trkpt>
      <trkpt lat="44.69002" lon="7.08925">
        <ele>2348</ele>
        <time>2022-07-14T10:02:35Z</time>
      </trkpt>
      <trkpt lat="44.69005" lon="7.08924">
        <ele>2346</ele>
        <time>2022-07-14T10:02:42Z</time>
      </trkpt>
      <trkpt lat="44.69009" lon="7.08924">
        <ele>2344</ele>
        <time>2022-07-14T10:02:49Z</time>
      </trkpt>
      <trkpt lat="44.69012" lon="7.08925">
        <ele>2342</ele>
        <time>2022-07-14T10:02:55Z</time>
      </trkpt>
      <trkpt lat="44.69016" lon="7.08923">
        <ele>2340</ele>
        <time>2022-07-14T10:03:01Z</time>
      </trkpt>
      <trkpt lat="44.69019" lon="7.08922">
        <ele>2339</ele>
        <time>2022-07-14T10:03:06Z</time>
      </trkpt>
      <trkpt lat="44.69021" lon="7.08917">
        <ele>2336</ele>
        <time>2022-07-14T10:03:13Z</time>
      </trkpt>
      <trkpt lat="44.69025" lon="7.08915">
        <ele>2334</ele>
        <time>2022-07-14T10:03:17Z</time>
      </trkpt>
      <trkpt lat="44.69028" lon="7.08913">
        <ele>2334</ele>
        <time>2022-07-14T10:03:21Z</time>
      </trkpt>
      <trkpt lat="44.69033" lon="7.08905">
        <ele>2332</ele>
        <time>2022-07-14T10:03:29Z</time>
      </trkpt>
      <trkpt lat="44.69041" lon="7.08902">
        <ele>2332</ele>
        <time>2022-07-14T10:03:37Z</time>
      </trkpt>
      <trkpt lat="44.69044" lon="7.08899">
        <ele>2331</ele>
        <time>2022-07-14T10:03:41Z</time>
      </trkpt>
      <trkpt lat="44.69044" lon="7.08894">
        <ele>2331</ele>
        <time>2022-07-14T10:03:49Z</time>
      </trkpt>
      <trkpt lat="44.69046" lon="7.0889">
        <ele>2330</ele>
        <time>2022-07-14T10:03:54Z</time>
      </trkpt>
      <trkpt lat="44.69053" lon="7.08885">
        <ele>2331</ele>
        <time>2022-07-14T10:04:02Z</time>
      </trkpt>
      <trkpt lat="44.69084" lon="7.08875">
        <ele>2331</ele>
        <time>2022-07-14T10:04:33Z</time>
      </trkpt>
      <trkpt lat="44.69093" lon="7.08873">
        <ele>2331</ele>
        <time>2022-07-14T10:04:41Z</time>
      </trkpt>
      <trkpt lat="44.69096" lon="7.08873">
        <ele>2331</ele>
        <time>2022-07-14T10:04:45Z</time>
      </trkpt>
      <trkpt lat="44.69099" lon="7.0887">
        <ele>2331</ele>
        <time>2022-07-14T10:04:48Z</time>
      </trkpt>
      <trkpt lat="44.69102" lon="7.08867">
        <ele>2330</ele>
        <time>2022-07-14T10:04:54Z</time>
      </trkpt>
      <trkpt lat="44.69111" lon="7.08865">
        <ele>2332</ele>
        <time>2022-07-14T10:05:11Z</time>
      </trkpt>
      <trkpt lat="44.69119" lon="7.08856">
        <ele>2334</ele>
        <time>2022-07-14T10:05:24Z</time>
      </trkpt>
      <trkpt lat="44.69128" lon="7.08852">
        <ele>2335</ele>
        <time>2022-07-14T10:05:36Z</time>
      </trkpt>
      <trkpt lat="44.69137" lon="7.08853">
        <ele>2334</ele>
        <time>2022-07-14T10:05:52Z</time>
      </trkpt>
      <trkpt lat="44.69157" lon="7.08853">
        <ele>2334</ele>
        <time>2022-07-14T10:06:26Z</time>
      </trkpt>
      <trkpt lat="44.69172" lon="7.08847">
        <ele>2334</ele>
        <time>2022-07-14T10:06:51Z</time>
      </trkpt>
      <trkpt lat="44.69183" lon="7.08843">
        <ele>2332</ele>
        <time>2022-07-14T10:07:06Z</time>
      </trkpt>
      <trkpt lat="44.69193" lon="7.08821">
        <ele>2333</ele>
        <time>2022-07-14T10:08:14Z</time>
      </trkpt>
      <trkpt lat="44.69199" lon="7.08811">
        <ele>2333</ele>
        <time>2022-07-14T10:08:26Z</time>
      </trkpt>
      <trkpt lat="44.69208" lon="7.08808">
        <ele>2333</ele>
        <time>2022-07-14T10:08:38Z</time>
      </trkpt>
      <trkpt lat="44.69217" lon="7.08803">
        <ele>2332</ele>
        <time>2022-07-14T10:08:47Z</time>
      </trkpt>
      <trkpt lat="44.69243" lon="7.08793">
        <ele>2332</ele>
        <time>2022-07-14T10:09:23Z</time>
      </trkpt>
      <trkpt lat="44.69262" lon="7.08789">
        <ele>2335</ele>
        <time>2022-07-14T10:09:49Z</time>
      </trkpt>
      <trkpt lat="44.69271" lon="7.08786">
        <ele>2334</ele>
        <time>2022-07-14T10:10:02Z</time>
      </trkpt>
      <trkpt lat="44.69278" lon="7.08795">
        <ele>2330</ele>
        <time>2022-07-14T10:10:14Z</time>
      </trkpt>
      <trkpt lat="44.69287" lon="7.08797">
        <ele>2331</ele>
        <time>2022-07-14T10:10:28Z</time>
      </trkpt>
      <trkpt lat="44.69315" lon="7.08805">
        <ele>2334</ele>
        <time>2022-07-14T10:11:05Z</time>
      </trkpt>
      <trkpt lat="44.69324" lon="7.08806">
        <ele>2333</ele>
        <time>2022-07-14T10:11:15Z</time>
      </trkpt>
      <trkpt lat="44.69333" lon="7.08803">
        <ele>2330</ele>
        <time>2022-07-14T10:11:26Z</time>
      </trkpt>
      <trkpt lat="44.69342" lon="7.08805">
        <ele>2328</ele>
        <time>2022-07-14T10:11:37Z</time>
      </trkpt>
      <trkpt lat="44.69351" lon="7.08805">
        <ele>2325</ele>
        <time>2022-07-14T10:11:48Z</time>
      </trkpt>
      <trkpt lat="44.69355" lon="7.08807">
        <ele>2324</ele>
        <time>2022-07-14T10:11:56Z</time>
      </trkpt>
      <trkpt lat="44.69357" lon="7.08812">
        <ele>2324</ele>
        <time>2022-07-14T10:12:05Z</time>
      </trkpt>
      <trkpt lat="44.6936" lon="7.08814">
        <ele>2324</ele>
        <time>2022-07-14T10:12:13Z</time>
      </trkpt>
      <trkpt lat="44.69375" lon="7.08817">
        <ele>2323</ele>
        <time>2022-07-14T10:12:35Z</time>
      </trkpt>
      <trkpt lat="44.69382" lon="7.08822">
        <ele>2323</ele>
        <time>2022-07-14T10:12:45Z</time>
      </trkpt>
      <trkpt lat="44.69385" lon="7.0882">
        <ele>2322</ele>
        <time>2022-07-14T10:12:51Z</time>
      </trkpt>
      <trkpt lat="44.69385" lon="7.08821">
        <ele>2323</ele>
        <time>2022-07-14T10:35:09Z</time>
      </trkpt>
      <trkpt lat="44.69384" lon="7.08825">
        <ele>2322</ele>
        <time>2022-07-14T10:35:15Z</time>
      </trkpt>
      <trkpt lat="44.69387" lon="7.08829">
        <ele>2321</ele>
        <time>2022-07-14T10:35:21Z</time>
      </trkpt>
      <trkpt lat="44.6939" lon="7.08831">
        <ele>2320</ele>
        <time>2022-07-14T10:35:27Z</time>
      </trkpt>
      <trkpt lat="44.69401" lon="7.08836">
        <ele>2317</ele>
        <time>2022-07-14T10:35:45Z</time>
      </trkpt>
      <trkpt lat="44.69404" lon="7.0884">
        <ele>2317</ele>
        <time>2022-07-14T10:35:50Z</time>
      </trkpt>
      <trkpt lat="44.69406" lon="7.08843">
        <ele>2316</ele>
        <time>2022-07-14T10:35:55Z</time>
      </trkpt>
      <trkpt lat="44.6941" lon="7.08843">
        <ele>2315</ele>
        <time>2022-07-14T10:36:02Z</time>
      </trkpt>
      <trkpt lat="44.69413" lon="7.08846">
        <ele>2315</ele>
        <time>2022-07-14T10:36:06Z</time>
      </trkpt>
      <trkpt lat="44.69424" lon="7.0885">
        <ele>2313</ele>
        <time>2022-07-14T10:36:21Z</time>
      </trkpt>
      <trkpt lat="44.69427" lon="7.08851">
        <ele>2313</ele>
        <time>2022-07-14T10:36:27Z</time>
      </trkpt>
      <trkpt lat="44.69429" lon="7.08856">
        <ele>2313</ele>
        <time>2022-07-14T10:36:32Z</time>
      </trkpt>
      <trkpt lat="44.6943" lon="7.08861">
        <ele>2314</ele>
        <time>2022-07-14T10:36:38Z</time>
      </trkpt>
      <trkpt lat="44.69431" lon="7.08866">
        <ele>2316</ele>
        <time>2022-07-14T10:36:43Z</time>
      </trkpt>
      <trkpt lat="44.69434" lon="7.08869">
        <ele>2316</ele>
        <time>2022-07-14T10:36:52Z</time>
      </trkpt>
      <trkpt lat="44.69437" lon="7.0887">
        <ele>2316</ele>
        <time>2022-07-14T10:36:57Z</time>
      </trkpt>
      <trkpt lat="44.69456" lon="7.08889">
        <ele>2317</ele>
        <time>2022-07-14T10:37:27Z</time>
      </trkpt>
      <trkpt lat="44.69459" lon="7.08892">
        <ele>2317</ele>
        <time>2022-07-14T10:37:31Z</time>
      </trkpt>
      <trkpt lat="44.69462" lon="7.08893">
        <ele>2317</ele>
        <time>2022-07-14T10:37:35Z</time>
      </trkpt>
      <trkpt lat="44.69464" lon="7.08898">
        <ele>2317</ele>
        <time>2022-07-14T10:37:39Z</time>
      </trkpt>
      <trkpt lat="44.69468" lon="7.089">
        <ele>2316</ele>
        <time>2022-07-14T10:37:45Z</time>
      </trkpt>
      <trkpt lat="44.69471" lon="7.0891">
        <ele>2317</ele>
        <time>2022-07-14T10:37:53Z</time>
      </trkpt>
      <trkpt lat="44.69478" lon="7.08916">
        <ele>2316</ele>
        <time>2022-07-14T10:38:01Z</time>
      </trkpt>
      <trkpt lat="44.69482" lon="7.08918">
        <ele>2316</ele>
        <time>2022-07-14T10:38:06Z</time>
      </trkpt>
      <trkpt lat="44.69489" lon="7.08923">
        <ele>2316</ele>
        <time>2022-07-14T10:38:14Z</time>
      </trkpt>
      <trkpt lat="44.69496" lon="7.08925">
        <ele>2318</ele>
        <time>2022-07-14T10:38:23Z</time>
      </trkpt>
      <trkpt lat="44.695" lon="7.08927">
        <ele>2317</ele>
        <time>2022-07-14T10:38:28Z</time>
      </trkpt>
      <trkpt lat="44.69503" lon="7.08928">
        <ele>2318</ele>
        <time>2022-07-14T10:38:33Z</time>
      </trkpt>
      <trkpt lat="44.6951" lon="7.08932">
        <ele>2319</ele>
        <time>2022-07-14T10:38:41Z</time>
      </trkpt>
      <trkpt lat="44.69525" lon="7.08934">
        <ele>2320</ele>
        <time>2022-07-14T10:38:58Z</time>
      </trkpt>
      <trkpt lat="44.69529" lon="7.08936">
        <ele>2320</ele>
        <time>2022-07-14T10:39:03Z</time>
      </trkpt>
      <trkpt lat="44.69533" lon="7.08936">
        <ele>2320</ele>
        <time>2022-07-14T10:39:08Z</time>
      </trkpt>
      <trkpt lat="44.69536" lon="7.08938">
        <ele>2320</ele>
        <time>2022-07-14T10:39:13Z</time>
      </trkpt>
      <trkpt lat="44.69539" lon="7.08943">
        <ele>2321</ele>
        <time>2022-07-14T10:39:18Z</time>
      </trkpt>
      <trkpt lat="44.69539" lon="7.08948">
        <ele>2321</ele>
        <time>2022-07-14T10:39:22Z</time>
      </trkpt>
      <trkpt lat="44.69544" lon="7.08956">
        <ele>2321</ele>
        <time>2022-07-14T10:39:31Z</time>
      </trkpt>
      <trkpt lat="44.69548" lon="7.08959">
        <ele>2321</ele>
        <time>2022-07-14T10:39:35Z</time>
      </trkpt>
      <trkpt lat="44.69551" lon="7.08961">
        <ele>2321</ele>
        <time>2022-07-14T10:39:39Z</time>
      </trkpt>
      <trkpt lat="44.69555" lon="7.0896">
        <ele>2321</ele>
        <time>2022-07-14T10:39:45Z</time>
      </trkpt>
      <trkpt lat="44.69559" lon="7.0896">
        <ele>2321</ele>
        <time>2022-07-14T10:39:51Z</time>
      </trkpt>
      <trkpt lat="44.69563" lon="7.08961">
        <ele>2321</ele>
        <time>2022-07-14T10:39:56Z</time>
      </trkpt>
      <trkpt lat="44.69565" lon="7.08966">
        <ele>2321</ele>
        <time>2022-07-14T10:40:00Z</time>
      </trkpt>
      <trkpt lat="44.6957" lon="7.08972">
        <ele>2320</ele>
        <time>2022-07-14T10:40:09Z</time>
      </trkpt>
      <trkpt lat="44.6959" lon="7.08975">
        <ele>2319</ele>
        <time>2022-07-14T10:40:31Z</time>
      </trkpt>
      <trkpt lat="44.69594" lon="7.08976">
        <ele>2319</ele>
        <time>2022-07-14T10:40:36Z</time>
      </trkpt>
      <trkpt lat="44.69598" lon="7.08976">
        <ele>2318</ele>
        <time>2022-07-14T10:40:40Z</time>
      </trkpt>
      <trkpt lat="44.69601" lon="7.08977">
        <ele>2318</ele>
        <time>2022-07-14T10:40:45Z</time>
      </trkpt>
      <trkpt lat="44.69605" lon="7.08979">
        <ele>2318</ele>
        <time>2022-07-14T10:40:51Z</time>
      </trkpt>
      <trkpt lat="44.69615" lon="7.08986">
        <ele>2317</ele>
        <time>2022-07-14T10:41:06Z</time>
      </trkpt>
      <trkpt lat="44.69626" lon="7.0899">
        <ele>2313</ele>
        <time>2022-07-14T10:41:21Z</time>
      </trkpt>
      <trkpt lat="44.69629" lon="7.08987">
        <ele>2312</ele>
        <time>2022-07-14T10:41:26Z</time>
      </trkpt>
      <trkpt lat="44.69633" lon="7.08986">
        <ele>2311</ele>
        <time>2022-07-14T10:41:34Z</time>
      </trkpt>
      <trkpt lat="44.69635" lon="7.08982">
        <ele>2311</ele>
        <time>2022-07-14T10:41:39Z</time>
      </trkpt>
      <trkpt lat="44.69639" lon="7.0898">
        <ele>2309</ele>
        <time>2022-07-14T10:41:45Z</time>
      </trkpt>
      <trkpt lat="44.69643" lon="7.08982">
        <ele>2309</ele>
        <time>2022-07-14T10:41:50Z</time>
      </trkpt>
      <trkpt lat="44.6965" lon="7.08983">
        <ele>2306</ele>
        <time>2022-07-14T10:42:02Z</time>
      </trkpt>
      <trkpt lat="44.69654" lon="7.08987">
        <ele>2306</ele>
        <time>2022-07-14T10:42:10Z</time>
      </trkpt>
      <trkpt lat="44.69657" lon="7.08987">
        <ele>2305</ele>
        <time>2022-07-14T10:42:21Z</time>
      </trkpt>
      <trkpt lat="44.6966" lon="7.0899">
        <ele>2305</ele>
        <time>2022-07-14T10:42:28Z</time>
      </trkpt>
      <trkpt lat="44.69663" lon="7.08993">
        <ele>2303</ele>
        <time>2022-07-14T10:42:36Z</time>
      </trkpt>
      <trkpt lat="44.69667" lon="7.08994">
        <ele>2302</ele>
        <time>2022-07-14T10:42:42Z</time>
      </trkpt>
      <trkpt lat="44.69671" lon="7.08996">
        <ele>2301</ele>
        <time>2022-07-14T10:42:45Z</time>
      </trkpt>
      <trkpt lat="44.69672" lon="7.09001">
        <ele>2301</ele>
        <time>2022-07-14T10:42:48Z</time>
      </trkpt>
      <trkpt lat="44.69675" lon="7.09002">
        <ele>2302</ele>
        <time>2022-07-14T10:42:54Z</time>
      </trkpt>
      <trkpt lat="44.69678" lon="7.09005">
        <ele>2302</ele>
        <time>2022-07-14T10:43:08Z</time>
      </trkpt>
      <trkpt lat="44.6968" lon="7.09">
        <ele>2302</ele>
        <time>2022-07-14T10:43:17Z</time>
      </trkpt>
      <trkpt lat="44.69683" lon="7.09002">
        <ele>2300</ele>
        <time>2022-07-14T10:43:24Z</time>
      </trkpt>
      <trkpt lat="44.69686" lon="7.09">
        <ele>2300</ele>
        <time>2022-07-14T10:43:30Z</time>
      </trkpt>
      <trkpt lat="44.69688" lon="7.09004">
        <ele>2297</ele>
        <time>2022-07-14T10:43:37Z</time>
      </trkpt>
      <trkpt lat="44.69687" lon="7.09009">
        <ele>2297</ele>
        <time>2022-07-14T10:43:42Z</time>
      </trkpt>
      <trkpt lat="44.6969" lon="7.09011">
        <ele>2294</ele>
        <time>2022-07-14T10:43:51Z</time>
      </trkpt>
      <trkpt lat="44.6969" lon="7.09016">
        <ele>2294</ele>
        <time>2022-07-14T10:43:57Z</time>
      </trkpt>
      <trkpt lat="44.69693" lon="7.09014">
        <ele>2290</ele>
        <time>2022-07-14T10:44:04Z</time>
      </trkpt>
      <trkpt lat="44.69697" lon="7.09012">
        <ele>2289</ele>
        <time>2022-07-14T10:44:10Z</time>
      </trkpt>
      <trkpt lat="44.69698" lon="7.09017">
        <ele>2289</ele>
        <time>2022-07-14T10:44:15Z</time>
      </trkpt>
      <trkpt lat="44.69697" lon="7.09023">
        <ele>2289</ele>
        <time>2022-07-14T10:44:20Z</time>
      </trkpt>
      <trkpt lat="44.69693" lon="7.09026">
        <ele>2288</ele>
        <time>2022-07-14T10:44:23Z</time>
      </trkpt>
      <trkpt lat="44.69698" lon="7.09033">
        <ele>2284</ele>
        <time>2022-07-14T10:44:42Z</time>
      </trkpt>
      <trkpt lat="44.69702" lon="7.09032">
        <ele>2282</ele>
        <time>2022-07-14T10:44:55Z</time>
      </trkpt>
      <trkpt lat="44.69702" lon="7.09037">
        <ele>2281</ele>
        <time>2022-07-14T10:45:03Z</time>
      </trkpt>
      <trkpt lat="44.697" lon="7.09047">
        <ele>2278</ele>
        <time>2022-07-14T10:45:13Z</time>
      </trkpt>
      <trkpt lat="44.69701" lon="7.09052">
        <ele>2277</ele>
        <time>2022-07-14T10:45:22Z</time>
      </trkpt>
      <trkpt lat="44.69701" lon="7.09058">
        <ele>2276</ele>
        <time>2022-07-14T10:45:28Z</time>
      </trkpt>
      <trkpt lat="44.69703" lon="7.09069">
        <ele>2273</ele>
        <time>2022-07-14T10:45:38Z</time>
      </trkpt>
      <trkpt lat="44.69701" lon="7.09074">
        <ele>2272</ele>
        <time>2022-07-14T10:45:43Z</time>
      </trkpt>
      <trkpt lat="44.697" lon="7.09079">
        <ele>2271</ele>
        <time>2022-07-14T10:45:48Z</time>
      </trkpt>
      <trkpt lat="44.69701" lon="7.09084">
        <ele>2270</ele>
        <time>2022-07-14T10:45:53Z</time>
      </trkpt>
      <trkpt lat="44.69701" lon="7.09089">
        <ele>2270</ele>
        <time>2022-07-14T10:45:58Z</time>
      </trkpt>
      <trkpt lat="44.6969" lon="7.09093">
        <ele>2270</ele>
        <time>2022-07-14T10:46:10Z</time>
      </trkpt>
      <trkpt lat="44.69694" lon="7.09096">
        <ele>2270</ele>
        <time>2022-07-14T10:46:12Z</time>
      </trkpt>
      <trkpt lat="44.69697" lon="7.09092">
        <ele>2269</ele>
        <time>2022-07-14T10:46:15Z</time>
      </trkpt>
      <trkpt lat="44.697" lon="7.0909">
        <ele>2268</ele>
        <time>2022-07-14T10:46:19Z</time>
      </trkpt>
      <trkpt lat="44.69703" lon="7.09093">
        <ele>2268</ele>
        <time>2022-07-14T10:46:25Z</time>
      </trkpt>
      <trkpt lat="44.69706" lon="7.09089">
        <ele>2268</ele>
        <time>2022-07-14T10:46:36Z</time>
      </trkpt>
      <trkpt lat="44.69709" lon="7.09088">
        <ele>2268</ele>
        <time>2022-07-14T10:46:42Z</time>
      </trkpt>
      <trkpt lat="44.69713" lon="7.09086">
        <ele>2266</ele>
        <time>2022-07-14T10:46:47Z</time>
      </trkpt>
      <trkpt lat="44.69715" lon="7.09081">
        <ele>2265</ele>
        <time>2022-07-14T10:46:52Z</time>
      </trkpt>
      <trkpt lat="44.69719" lon="7.09079">
        <ele>2263</ele>
        <time>2022-07-14T10:46:57Z</time>
      </trkpt>
      <trkpt lat="44.6972" lon="7.09083">
        <ele>2262</ele>
        <time>2022-07-14T10:47:03Z</time>
      </trkpt>
      <trkpt lat="44.69724" lon="7.09084">
        <ele>2261</ele>
        <time>2022-07-14T10:47:09Z</time>
      </trkpt>
      <trkpt lat="44.69728" lon="7.09081">
        <ele>2260</ele>
        <time>2022-07-14T10:47:15Z</time>
      </trkpt>
      <trkpt lat="44.6973" lon="7.09077">
        <ele>2259</ele>
        <time>2022-07-14T10:47:20Z</time>
      </trkpt>
      <trkpt lat="44.69728" lon="7.09073">
        <ele>2259</ele>
        <time>2022-07-14T10:47:24Z</time>
      </trkpt>
      <trkpt lat="44.69724" lon="7.09065">
        <ele>2258</ele>
        <time>2022-07-14T10:47:34Z</time>
      </trkpt>
      <trkpt lat="44.69722" lon="7.0906">
        <ele>2258</ele>
        <time>2022-07-14T10:47:40Z</time>
      </trkpt>
      <trkpt lat="44.69722" lon="7.09055">
        <ele>2257</ele>
        <time>2022-07-14T10:47:45Z</time>
      </trkpt>
      <trkpt lat="44.69721" lon="7.09049">
        <ele>2254</ele>
        <time>2022-07-14T10:47:51Z</time>
      </trkpt>
      <trkpt lat="44.69725" lon="7.09049">
        <ele>2254</ele>
        <time>2022-07-14T10:47:55Z</time>
      </trkpt>
      <trkpt lat="44.69728" lon="7.09046">
        <ele>2253</ele>
        <time>2022-07-14T10:48:00Z</time>
      </trkpt>
      <trkpt lat="44.69731" lon="7.09049">
        <ele>2253</ele>
        <time>2022-07-14T10:48:05Z</time>
      </trkpt>
      <trkpt lat="44.69735" lon="7.09049">
        <ele>2254</ele>
        <time>2022-07-14T10:48:11Z</time>
      </trkpt>
      <trkpt lat="44.69737" lon="7.09044">
        <ele>2253</ele>
        <time>2022-07-14T10:48:19Z</time>
      </trkpt>
      <trkpt lat="44.6974" lon="7.09045">
        <ele>2253</ele>
        <time>2022-07-14T10:48:28Z</time>
      </trkpt>
      <trkpt lat="44.69743" lon="7.09043">
        <ele>2251</ele>
        <time>2022-07-14T10:48:36Z</time>
      </trkpt>
      <trkpt lat="44.69745" lon="7.09038">
        <ele>2251</ele>
        <time>2022-07-14T10:48:49Z</time>
      </trkpt>
      <trkpt lat="44.69742" lon="7.09035">
        <ele>2247</ele>
        <time>2022-07-14T10:49:02Z</time>
      </trkpt>
      <trkpt lat="44.69739" lon="7.09032">
        <ele>2245</ele>
        <time>2022-07-14T10:49:07Z</time>
      </trkpt>
      <trkpt lat="44.69738" lon="7.09028">
        <ele>2245</ele>
        <time>2022-07-14T10:49:19Z</time>
      </trkpt>
      <trkpt lat="44.6974" lon="7.09023">
        <ele>2244</ele>
        <time>2022-07-14T10:49:27Z</time>
      </trkpt>
      <trkpt lat="44.69743" lon="7.09024">
        <ele>2242</ele>
        <time>2022-07-14T10:49:41Z</time>
      </trkpt>
      <trkpt lat="44.69748" lon="7.09026">
        <ele>2243</ele>
        <time>2022-07-14T10:49:49Z</time>
      </trkpt>
      <trkpt lat="44.69748" lon="7.09028">
        <ele>2246</ele>
        <time>2022-07-14T10:51:53Z</time>
      </trkpt>
      <trkpt lat="44.69757" lon="7.09025">
        <ele>2246</ele>
        <time>2022-07-14T10:52:10Z</time>
      </trkpt>
      <trkpt lat="44.69766" lon="7.09021">
        <ele>2241</ele>
        <time>2022-07-14T10:52:23Z</time>
      </trkpt>
      <trkpt lat="44.69773" lon="7.09029">
        <ele>2238</ele>
        <time>2022-07-14T10:52:38Z</time>
      </trkpt>
      <trkpt lat="44.69778" lon="7.09018">
        <ele>2236</ele>
        <time>2022-07-14T10:52:57Z</time>
      </trkpt>
      <trkpt lat="44.69786" lon="7.09014">
        <ele>2230</ele>
        <time>2022-07-14T10:53:16Z</time>
      </trkpt>
      <trkpt lat="44.69793" lon="7.09005">
        <ele>2227</ele>
        <time>2022-07-14T10:53:36Z</time>
      </trkpt>
      <trkpt lat="44.69812" lon="7.09005">
        <ele>2223</ele>
        <time>2022-07-14T10:54:19Z</time>
      </trkpt>
      <trkpt lat="44.6982" lon="7.08998">
        <ele>2218</ele>
        <time>2022-07-14T10:55:14Z</time>
      </trkpt>
      <trkpt lat="44.69828" lon="7.08992">
        <ele>2217</ele>
        <time>2022-07-14T10:55:24Z</time>
      </trkpt>
      <trkpt lat="44.69838" lon="7.08991">
        <ele>2213</ele>
        <time>2022-07-14T10:55:40Z</time>
      </trkpt>
      <trkpt lat="44.69847" lon="7.08988">
        <ele>2208</ele>
        <time>2022-07-14T10:55:58Z</time>
      </trkpt>
      <trkpt lat="44.69851" lon="7.08986">
        <ele>2208</ele>
        <time>2022-07-14T10:56:04Z</time>
      </trkpt>
      <trkpt lat="44.69854" lon="7.0899">
        <ele>2207</ele>
        <time>2022-07-14T10:56:12Z</time>
      </trkpt>
      <trkpt lat="44.69858" lon="7.0899">
        <ele>2207</ele>
        <time>2022-07-14T10:56:18Z</time>
      </trkpt>
      <trkpt lat="44.69862" lon="7.08989">
        <ele>2206</ele>
        <time>2022-07-14T10:56:24Z</time>
      </trkpt>
      <trkpt lat="44.69865" lon="7.08987">
        <ele>2205</ele>
        <time>2022-07-14T10:56:28Z</time>
      </trkpt>
      <trkpt lat="44.69868" lon="7.08989">
        <ele>2204</ele>
        <time>2022-07-14T10:56:34Z</time>
      </trkpt>
      <trkpt lat="44.69875" lon="7.08992">
        <ele>2202</ele>
        <time>2022-07-14T10:56:47Z</time>
      </trkpt>
      <trkpt lat="44.69878" lon="7.08995">
        <ele>2201</ele>
        <time>2022-07-14T10:56:52Z</time>
      </trkpt>
      <trkpt lat="44.69882" lon="7.08994">
        <ele>2201</ele>
        <time>2022-07-14T10:56:56Z</time>
      </trkpt>
      <trkpt lat="44.69885" lon="7.08991">
        <ele>2200</ele>
        <time>2022-07-14T10:57:02Z</time>
      </trkpt>
      <trkpt lat="44.69889" lon="7.0899">
        <ele>2200</ele>
        <time>2022-07-14T10:57:08Z</time>
      </trkpt>
      <trkpt lat="44.69892" lon="7.08989">
        <ele>2198</ele>
        <time>2022-07-14T10:57:14Z</time>
      </trkpt>
      <trkpt lat="44.69896" lon="7.08992">
        <ele>2196</ele>
        <time>2022-07-14T10:57:20Z</time>
      </trkpt>
      <trkpt lat="44.69899" lon="7.08994">
        <ele>2194</ele>
        <time>2022-07-14T10:57:33Z</time>
      </trkpt>
      <trkpt lat="44.69902" lon="7.08997">
        <ele>2192</ele>
        <time>2022-07-14T10:57:40Z</time>
      </trkpt>
      <trkpt lat="44.69909" lon="7.08995">
        <ele>2189</ele>
        <time>2022-07-14T10:57:54Z</time>
      </trkpt>
      <trkpt lat="44.69913" lon="7.08994">
        <ele>2188</ele>
        <time>2022-07-14T10:58:01Z</time>
      </trkpt>
      <trkpt lat="44.6992" lon="7.0899">
        <ele>2188</ele>
        <time>2022-07-14T10:58:14Z</time>
      </trkpt>
      <trkpt lat="44.69922" lon="7.08986">
        <ele>2188</ele>
        <time>2022-07-14T10:58:19Z</time>
      </trkpt>
      <trkpt lat="44.69926" lon="7.08983">
        <ele>2186</ele>
        <time>2022-07-14T10:58:25Z</time>
      </trkpt>
      <trkpt lat="44.69937" lon="7.08988">
        <ele>2185</ele>
        <time>2022-07-14T10:58:42Z</time>
      </trkpt>
      <trkpt lat="44.69941" lon="7.08988">
        <ele>2183</ele>
        <time>2022-07-14T10:58:48Z</time>
      </trkpt>
      <trkpt lat="44.69944" lon="7.08991">
        <ele>2182</ele>
        <time>2022-07-14T10:58:56Z</time>
      </trkpt>
      <trkpt lat="44.69947" lon="7.08992">
        <ele>2181</ele>
        <time>2022-07-14T10:59:02Z</time>
      </trkpt>
      <trkpt lat="44.69951" lon="7.08992">
        <ele>2180</ele>
        <time>2022-07-14T10:59:08Z</time>
      </trkpt>
      <trkpt lat="44.69954" lon="7.08989">
        <ele>2177</ele>
        <time>2022-07-14T10:59:17Z</time>
      </trkpt>
      <trkpt lat="44.69957" lon="7.08985">
        <ele>2176</ele>
        <time>2022-07-14T10:59:23Z</time>
      </trkpt>
      <trkpt lat="44.6996" lon="7.08981">
        <ele>2174</ele>
        <time>2022-07-14T10:59:31Z</time>
      </trkpt>
      <trkpt lat="44.69964" lon="7.08982">
        <ele>2173</ele>
        <time>2022-07-14T10:59:42Z</time>
      </trkpt>
      <trkpt lat="44.69967" lon="7.08985">
        <ele>2172</ele>
        <time>2022-07-14T10:59:48Z</time>
      </trkpt>
      <trkpt lat="44.69975" lon="7.08984">
        <ele>2169</ele>
        <time>2022-07-14T11:00:03Z</time>
      </trkpt>
      <trkpt lat="44.69978" lon="7.08982">
        <ele>2169</ele>
        <time>2022-07-14T11:00:10Z</time>
      </trkpt>
      <trkpt lat="44.69981" lon="7.08979">
        <ele>2167</ele>
        <time>2022-07-14T11:00:17Z</time>
      </trkpt>
      <trkpt lat="44.69984" lon="7.08979">
        <ele>2166</ele>
        <time>2022-07-14T11:00:26Z</time>
      </trkpt>
      <trkpt lat="44.69987" lon="7.08975">
        <ele>2165</ele>
        <time>2022-07-14T11:00:32Z</time>
      </trkpt>
      <trkpt lat="44.6999" lon="7.08973">
        <ele>2164</ele>
        <time>2022-07-14T11:00:39Z</time>
      </trkpt>
      <trkpt lat="44.69994" lon="7.08973">
        <ele>2163</ele>
        <time>2022-07-14T11:00:46Z</time>
      </trkpt>
      <trkpt lat="44.70001" lon="7.08971">
        <ele>2160</ele>
        <time>2022-07-14T11:00:56Z</time>
      </trkpt>
      <trkpt lat="44.70005" lon="7.08973">
        <ele>2160</ele>
        <time>2022-07-14T11:01:02Z</time>
      </trkpt>
      <trkpt lat="44.70008" lon="7.0897">
        <ele>2159</ele>
        <time>2022-07-14T11:01:06Z</time>
      </trkpt>
      <trkpt lat="44.70018" lon="7.08967">
        <ele>2158</ele>
        <time>2022-07-14T11:01:23Z</time>
      </trkpt>
      <trkpt lat="44.70022" lon="7.08969">
        <ele>2156</ele>
        <time>2022-07-14T11:01:31Z</time>
      </trkpt>
      <trkpt lat="44.70025" lon="7.08971">
        <ele>2153</ele>
        <time>2022-07-14T11:03:27Z</time>
      </trkpt>
      <trkpt lat="44.70026" lon="7.08976">
        <ele>2149</ele>
        <time>2022-07-14T11:03:35Z</time>
      </trkpt>
      <trkpt lat="44.70034" lon="7.08977">
        <ele>2144</ele>
        <time>2022-07-14T11:03:47Z</time>
      </trkpt>
      <trkpt lat="44.70037" lon="7.08978">
        <ele>2143</ele>
        <time>2022-07-14T11:03:54Z</time>
      </trkpt>
      <trkpt lat="44.70035" lon="7.08982">
        <ele>2142</ele>
        <time>2022-07-14T11:04:02Z</time>
      </trkpt>
      <trkpt lat="44.70038" lon="7.08986">
        <ele>2140</ele>
        <time>2022-07-14T11:04:11Z</time>
      </trkpt>
      <trkpt lat="44.70042" lon="7.08987">
        <ele>2138</ele>
        <time>2022-07-14T11:04:18Z</time>
      </trkpt>
      <trkpt lat="44.70044" lon="7.08991">
        <ele>2136</ele>
        <time>2022-07-14T11:04:26Z</time>
      </trkpt>
      <trkpt lat="44.70054" lon="7.08998">
        <ele>2132</ele>
        <time>2022-07-14T11:04:50Z</time>
      </trkpt>
      <trkpt lat="44.70058" lon="7.08998">
        <ele>2129</ele>
        <time>2022-07-14T11:04:56Z</time>
      </trkpt>
      <trkpt lat="44.70061" lon="7.09002">
        <ele>2128</ele>
        <time>2022-07-14T11:05:05Z</time>
      </trkpt>
      <trkpt lat="44.70067" lon="7.09008">
        <ele>2125</ele>
        <time>2022-07-14T11:05:18Z</time>
      </trkpt>
      <trkpt lat="44.70071" lon="7.0901">
        <ele>2123</ele>
        <time>2022-07-14T11:05:24Z</time>
      </trkpt>
      <trkpt lat="44.70074" lon="7.09011">
        <ele>2122</ele>
        <time>2022-07-14T11:05:31Z</time>
      </trkpt>
      <trkpt lat="44.70072" lon="7.09015">
        <ele>2120</ele>
        <time>2022-07-14T11:05:37Z</time>
      </trkpt>
      <trkpt lat="44.70069" lon="7.09018">
        <ele>2118</ele>
        <time>2022-07-14T11:05:42Z</time>
      </trkpt>
      <trkpt lat="44.70072" lon="7.09023">
        <ele>2117</ele>
        <time>2022-07-14T11:05:49Z</time>
      </trkpt>
      <trkpt lat="44.70075" lon="7.09022">
        <ele>2116</ele>
        <time>2022-07-14T11:05:54Z</time>
      </trkpt>
      <trkpt lat="44.70078" lon="7.09023">
        <ele>2115</ele>
        <time>2022-07-14T11:05:58Z</time>
      </trkpt>
      <trkpt lat="44.70081" lon="7.09026">
        <ele>2114</ele>
        <time>2022-07-14T11:06:05Z</time>
      </trkpt>
      <trkpt lat="44.7009" lon="7.09026">
        <ele>2112</ele>
        <time>2022-07-14T11:06:15Z</time>
      </trkpt>
      <trkpt lat="44.70087" lon="7.0903">
        <ele>2112</ele>
        <time>2022-07-14T11:06:20Z</time>
      </trkpt>
      <trkpt lat="44.70084" lon="7.09033">
        <ele>2110</ele>
        <time>2022-07-14T11:06:25Z</time>
      </trkpt>
      <trkpt lat="44.70078" lon="7.09039">
        <ele>2107</ele>
        <time>2022-07-14T11:06:35Z</time>
      </trkpt>
      <trkpt lat="44.70075" lon="7.09041">
        <ele>2106</ele>
        <time>2022-07-14T11:06:40Z</time>
      </trkpt>
      <trkpt lat="44.70085" lon="7.09048">
        <ele>2100</ele>
        <time>2022-07-14T11:07:07Z</time>
      </trkpt>
      <trkpt lat="44.70086" lon="7.09053">
        <ele>2098</ele>
        <time>2022-07-14T11:07:15Z</time>
      </trkpt>
      <trkpt lat="44.70084" lon="7.09057">
        <ele>2097</ele>
        <time>2022-07-14T11:07:22Z</time>
      </trkpt>
      <trkpt lat="44.70075" lon="7.09067">
        <ele>2093</ele>
        <time>2022-07-14T11:07:39Z</time>
      </trkpt>
      <trkpt lat="44.70079" lon="7.0907">
        <ele>2092</ele>
        <time>2022-07-14T11:07:54Z</time>
      </trkpt>
      <trkpt lat="44.7008" lon="7.09075">
        <ele>2088</ele>
        <time>2022-07-14T11:08:05Z</time>
      </trkpt>
      <trkpt lat="44.70077" lon="7.09079">
        <ele>2087</ele>
        <time>2022-07-14T11:08:12Z</time>
      </trkpt>
      <trkpt lat="44.7008" lon="7.09082">
        <ele>2085</ele>
        <time>2022-07-14T11:08:23Z</time>
      </trkpt>
      <trkpt lat="44.70078" lon="7.09086">
        <ele>2082</ele>
        <time>2022-07-14T11:08:32Z</time>
      </trkpt>
      <trkpt lat="44.70077" lon="7.09091">
        <ele>2081</ele>
        <time>2022-07-14T11:08:41Z</time>
      </trkpt>
      <trkpt lat="44.7008" lon="7.09095">
        <ele>2078</ele>
        <time>2022-07-14T11:08:46Z</time>
      </trkpt>
      <trkpt lat="44.70085" lon="7.09095">
        <ele>2077</ele>
        <time>2022-07-14T11:08:52Z</time>
      </trkpt>
      <trkpt lat="44.70083" lon="7.09099">
        <ele>2077</ele>
        <time>2022-07-14T11:09:05Z</time>
      </trkpt>
      <trkpt lat="44.7008" lon="7.09102">
        <ele>2076</ele>
        <time>2022-07-14T11:09:09Z</time>
      </trkpt>
      <trkpt lat="44.70077" lon="7.09104">
        <ele>2074</ele>
        <time>2022-07-14T11:09:14Z</time>
      </trkpt>
      <trkpt lat="44.7008" lon="7.09107">
        <ele>2073</ele>
        <time>2022-07-14T11:09:23Z</time>
      </trkpt>
      <trkpt lat="44.7008" lon="7.09112">
        <ele>2072</ele>
        <time>2022-07-14T11:09:32Z</time>
      </trkpt>
      <trkpt lat="44.70081" lon="7.09117">
        <ele>2071</ele>
        <time>2022-07-14T11:09:42Z</time>
      </trkpt>
      <trkpt lat="44.70079" lon="7.09122">
        <ele>2069</ele>
        <time>2022-07-14T11:09:55Z</time>
      </trkpt>
      <trkpt lat="44.70076" lon="7.09125">
        <ele>2067</ele>
        <time>2022-07-14T11:10:01Z</time>
      </trkpt>
      <trkpt lat="44.70078" lon="7.0913">
        <ele>2066</ele>
        <time>2022-07-14T11:10:10Z</time>
      </trkpt>
      <trkpt lat="44.70078" lon="7.09134">
        <ele>2060</ele>
        <time>2022-07-14T11:10:25Z</time>
      </trkpt>
      <trkpt lat="44.7008" lon="7.09138">
        <ele>2058</ele>
        <time>2022-07-14T11:10:37Z</time>
      </trkpt>
      <trkpt lat="44.70077" lon="7.09141">
        <ele>2054</ele>
        <time>2022-07-14T11:10:44Z</time>
      </trkpt>
      <trkpt lat="44.70073" lon="7.0915">
        <ele>2050</ele>
        <time>2022-07-14T11:11:01Z</time>
      </trkpt>
      <trkpt lat="44.70078" lon="7.09156">
        <ele>2047</ele>
        <time>2022-07-14T11:11:23Z</time>
      </trkpt>
      <trkpt lat="44.70081" lon="7.09159">
        <ele>2045</ele>
        <time>2022-07-14T11:11:30Z</time>
      </trkpt>
      <trkpt lat="44.70084" lon="7.09162">
        <ele>2043</ele>
        <time>2022-07-14T11:11:39Z</time>
      </trkpt>
      <trkpt lat="44.70086" lon="7.09167">
        <ele>2042</ele>
        <time>2022-07-14T11:11:49Z</time>
      </trkpt>
      <trkpt lat="44.70093" lon="7.09179">
        <ele>2039</ele>
        <time>2022-07-14T11:12:04Z</time>
      </trkpt>
      <trkpt lat="44.70093" lon="7.09185">
        <ele>2038</ele>
        <time>2022-07-14T11:12:09Z</time>
      </trkpt>
      <trkpt lat="44.70091" lon="7.09189">
        <ele>2037</ele>
        <time>2022-07-14T11:12:13Z</time>
      </trkpt>
      <trkpt lat="44.70083" lon="7.09199">
        <ele>2035</ele>
        <time>2022-07-14T11:12:25Z</time>
      </trkpt>
      <trkpt lat="44.70079" lon="7.09209">
        <ele>2035</ele>
        <time>2022-07-14T11:12:35Z</time>
      </trkpt>
      <trkpt lat="44.70078" lon="7.09214">
        <ele>2035</ele>
        <time>2022-07-14T11:12:39Z</time>
      </trkpt>
      <trkpt lat="44.70078" lon="7.09219">
        <ele>2034</ele>
        <time>2022-07-14T11:12:55Z</time>
      </trkpt>
      <trkpt lat="44.70075" lon="7.09221">
        <ele>2033</ele>
        <time>2022-07-14T11:12:59Z</time>
      </trkpt>
      <trkpt lat="44.70069" lon="7.09228">
        <ele>2032</ele>
        <time>2022-07-14T11:13:09Z</time>
      </trkpt>
      <trkpt lat="44.70068" lon="7.09233">
        <ele>2031</ele>
        <time>2022-07-14T11:13:14Z</time>
      </trkpt>
      <trkpt lat="44.70068" lon="7.09238">
        <ele>2030</ele>
        <time>2022-07-14T11:13:19Z</time>
      </trkpt>
      <trkpt lat="44.70066" lon="7.09243">
        <ele>2029</ele>
        <time>2022-07-14T11:13:25Z</time>
      </trkpt>
      <trkpt lat="44.70064" lon="7.09247">
        <ele>2028</ele>
        <time>2022-07-14T11:13:29Z</time>
      </trkpt>
      <trkpt lat="44.70063" lon="7.09253">
        <ele>2027</ele>
        <time>2022-07-14T11:13:35Z</time>
      </trkpt>
      <trkpt lat="44.70059" lon="7.09255">
        <ele>2027</ele>
        <time>2022-07-14T11:13:39Z</time>
      </trkpt>
      <trkpt lat="44.70057" lon="7.09259">
        <ele>2026</ele>
        <time>2022-07-14T11:13:43Z</time>
      </trkpt>
      <trkpt lat="44.7005" lon="7.09273">
        <ele>2025</ele>
        <time>2022-07-14T11:13:56Z</time>
      </trkpt>
      <trkpt lat="44.70048" lon="7.09279">
        <ele>2026</ele>
        <time>2022-07-14T11:14:01Z</time>
      </trkpt>
      <trkpt lat="44.70046" lon="7.09283">
        <ele>2026</ele>
        <time>2022-07-14T11:14:05Z</time>
      </trkpt>
      <trkpt lat="44.70044" lon="7.09287">
        <ele>2026</ele>
        <time>2022-07-14T11:14:09Z</time>
      </trkpt>
      <trkpt lat="44.70043" lon="7.09292">
        <ele>2025</ele>
        <time>2022-07-14T11:14:13Z</time>
      </trkpt>
      <trkpt lat="44.70044" lon="7.09298">
        <ele>2024</ele>
        <time>2022-07-14T11:14:18Z</time>
      </trkpt>
      <trkpt lat="44.70046" lon="7.09308">
        <ele>2023</ele>
        <time>2022-07-14T11:14:26Z</time>
      </trkpt>
      <trkpt lat="44.70047" lon="7.09312">
        <ele>2023</ele>
        <time>2022-07-14T11:14:30Z</time>
      </trkpt>
      <trkpt lat="44.70049" lon="7.09317">
        <ele>2022</ele>
        <time>2022-07-14T11:14:34Z</time>
      </trkpt>
      <trkpt lat="44.70053" lon="7.09317">
        <ele>2021</ele>
        <time>2022-07-14T11:14:38Z</time>
      </trkpt>
      <trkpt lat="44.70049" lon="7.09322">
        <ele>2021</ele>
        <time>2022-07-14T11:14:43Z</time>
      </trkpt>
      <trkpt lat="44.70055" lon="7.09332">
        <ele>2021</ele>
        <time>2022-07-14T11:14:51Z</time>
      </trkpt>
      <trkpt lat="44.70057" lon="7.09336">
        <ele>2020</ele>
        <time>2022-07-14T11:14:55Z</time>
      </trkpt>
      <trkpt lat="44.7006" lon="7.09347">
        <ele>2019</ele>
        <time>2022-07-14T11:15:04Z</time>
      </trkpt>
      <trkpt lat="44.70063" lon="7.0935">
        <ele>2019</ele>
        <time>2022-07-14T11:15:10Z</time>
      </trkpt>
      <trkpt lat="44.70072" lon="7.09349">
        <ele>2019</ele>
        <time>2022-07-14T11:15:17Z</time>
      </trkpt>
      <trkpt lat="44.70076" lon="7.09348">
        <ele>2020</ele>
        <time>2022-07-14T11:15:21Z</time>
      </trkpt>
      <trkpt lat="44.7008" lon="7.09348">
        <ele>2021</ele>
        <time>2022-07-14T11:15:25Z</time>
      </trkpt>
      <trkpt lat="44.70083" lon="7.09351">
        <ele>2021</ele>
        <time>2022-07-14T11:15:29Z</time>
      </trkpt>
      <trkpt lat="44.70089" lon="7.09363">
        <ele>2021</ele>
        <time>2022-07-14T11:15:41Z</time>
      </trkpt>
      <trkpt lat="44.70091" lon="7.09368">
        <ele>2021</ele>
        <time>2022-07-14T11:15:45Z</time>
      </trkpt>
      <trkpt lat="44.70093" lon="7.09373">
        <ele>2022</ele>
        <time>2022-07-14T11:15:51Z</time>
      </trkpt>
      <trkpt lat="44.70093" lon="7.09378">
        <ele>2022</ele>
        <time>2022-07-14T11:15:54Z</time>
      </trkpt>
      <trkpt lat="44.70091" lon="7.09382">
        <ele>2023</ele>
        <time>2022-07-14T11:15:58Z</time>
      </trkpt>
      <trkpt lat="44.70094" lon="7.09383">
        <ele>2022</ele>
        <time>2022-07-14T11:16:00Z</time>
      </trkpt>
      <trkpt lat="44.70098" lon="7.09384">
        <ele>2021</ele>
        <time>2022-07-14T11:16:08Z</time>
      </trkpt>
      <trkpt lat="44.70102" lon="7.09385">
        <ele>2020</ele>
        <time>2022-07-14T11:16:14Z</time>
      </trkpt>
      <trkpt lat="44.70113" lon="7.09414">
        <ele>2020</ele>
        <time>2022-07-14T11:16:38Z</time>
      </trkpt>
      <trkpt lat="44.70124" lon="7.09431">
        <ele>2019</ele>
        <time>2022-07-14T11:16:54Z</time>
      </trkpt>
      <trkpt lat="44.70125" lon="7.09435">
        <ele>2019</ele>
        <time>2022-07-14T11:16:57Z</time>
      </trkpt>
      <trkpt lat="44.70127" lon="7.0944">
        <ele>2018</ele>
        <time>2022-07-14T11:17:01Z</time>
      </trkpt>
      <trkpt lat="44.70123" lon="7.09487">
        <ele>2016</ele>
        <time>2022-07-14T11:17:32Z</time>
      </trkpt>
      <trkpt lat="44.70124" lon="7.09492">
        <ele>2016</ele>
        <time>2022-07-14T11:17:36Z</time>
      </trkpt>
      <trkpt lat="44.70127" lon="7.09495">
        <ele>2016</ele>
        <time>2022-07-14T11:17:40Z</time>
      </trkpt>
      <trkpt lat="44.70129" lon="7.095">
        <ele>2015</ele>
        <time>2022-07-14T11:17:45Z</time>
      </trkpt>
      <trkpt lat="44.7013" lon="7.0951">
        <ele>2015</ele>
        <time>2022-07-14T11:18:03Z</time>
      </trkpt>
      <trkpt lat="44.70125" lon="7.0951">
        <ele>2016</ele>
        <time>2022-07-14T11:18:05Z</time>
      </trkpt>
      <trkpt lat="44.70121" lon="7.09527">
        <ele>2016</ele>
        <time>2022-07-14T11:18:17Z</time>
      </trkpt>
      <trkpt lat="44.70117" lon="7.09536">
        <ele>2016</ele>
        <time>2022-07-14T11:18:24Z</time>
      </trkpt>
      <trkpt lat="44.7011" lon="7.09539">
        <ele>2017</ele>
        <time>2022-07-14T11:18:30Z</time>
      </trkpt>
      <trkpt lat="44.70106" lon="7.09541">
        <ele>2017</ele>
        <time>2022-07-14T11:18:34Z</time>
      </trkpt>
      <trkpt lat="44.70103" lon="7.09538">
        <ele>2018</ele>
        <time>2022-07-14T11:18:38Z</time>
      </trkpt>
      <trkpt lat="44.70101" lon="7.09542">
        <ele>2018</ele>
        <time>2022-07-14T11:19:32Z</time>
      </trkpt>
      <trkpt lat="44.70097" lon="7.09545">
        <ele>2019</ele>
        <time>2022-07-14T11:19:36Z</time>
      </trkpt>
      <trkpt lat="44.70094" lon="7.09548">
        <ele>2019</ele>
        <time>2022-07-14T11:19:40Z</time>
      </trkpt>
      <trkpt lat="44.70086" lon="7.09549">
        <ele>2019</ele>
        <time>2022-07-14T11:19:47Z</time>
      </trkpt>
      <trkpt lat="44.70082" lon="7.09551">
        <ele>2019</ele>
        <time>2022-07-14T11:19:51Z</time>
      </trkpt>
      <trkpt lat="44.70075" lon="7.09557">
        <ele>2020</ele>
        <time>2022-07-14T11:19:59Z</time>
      </trkpt>
      <trkpt lat="44.70069" lon="7.09564">
        <ele>2019</ele>
        <time>2022-07-14T11:20:07Z</time>
      </trkpt>
      <trkpt lat="44.7006" lon="7.09573">
        <ele>2021</ele>
        <time>2022-07-14T11:20:19Z</time>
      </trkpt>
      <trkpt lat="44.70056" lon="7.09576">
        <ele>2021</ele>
        <time>2022-07-14T11:20:23Z</time>
      </trkpt>
      <trkpt lat="44.70039" lon="7.09583">
        <ele>2023</ele>
        <time>2022-07-14T11:20:42Z</time>
      </trkpt>
      <trkpt lat="44.70036" lon="7.09586">
        <ele>2023</ele>
        <time>2022-07-14T11:20:46Z</time>
      </trkpt>
      <trkpt lat="44.70034" lon="7.09596">
        <ele>2024</ele>
        <time>2022-07-14T11:20:55Z</time>
      </trkpt>
      <trkpt lat="44.70032" lon="7.096">
        <ele>2025</ele>
        <time>2022-07-14T11:20:59Z</time>
      </trkpt>
      <trkpt lat="44.70031" lon="7.09605">
        <ele>2025</ele>
        <time>2022-07-14T11:21:04Z</time>
      </trkpt>
      <trkpt lat="44.70028" lon="7.09608">
        <ele>2026</ele>
        <time>2022-07-14T11:21:08Z</time>
      </trkpt>
      <trkpt lat="44.70026" lon="7.09612">
        <ele>2026</ele>
        <time>2022-07-14T11:21:12Z</time>
      </trkpt>
      <trkpt lat="44.70024" lon="7.09617">
        <ele>2026</ele>
        <time>2022-07-14T11:21:17Z</time>
      </trkpt>
      <trkpt lat="44.7002" lon="7.09616">
        <ele>2027</ele>
        <time>2022-07-14T11:21:20Z</time>
      </trkpt>
      <trkpt lat="44.70021" lon="7.0961">
        <ele>2026</ele>
        <time>2022-07-14T11:21:23Z</time>
      </trkpt>
      <trkpt lat="44.70016" lon="7.09607">
        <ele>2023</ele>
        <time>2022-07-14T11:21:35Z</time>
      </trkpt>
      <trkpt lat="44.70019" lon="7.09606">
        <ele>2022</ele>
        <time>2022-07-14T11:22:12Z</time>
      </trkpt>
      <trkpt lat="44.70021" lon="7.09624">
        <ele>2022</ele>
        <time>2022-07-14T11:24:52Z</time>
      </trkpt>
      <trkpt lat="44.70032" lon="7.0963">
        <ele>2022</ele>
        <time>2022-07-14T11:25:04Z</time>
      </trkpt>
      <trkpt lat="44.70034" lon="7.09622">
        <ele>2020</ele>
        <time>2022-07-14T11:25:17Z</time>
      </trkpt>
      <trkpt lat="44.70031" lon="7.09618">
        <ele>2018</ele>
        <time>2022-07-14T11:25:37Z</time>
      </trkpt>
      <trkpt lat="44.70027" lon="7.09613">
        <ele>2018</ele>
        <time>2022-07-14T11:25:43Z</time>
      </trkpt>
    </trkseg>
  </trk>
  <trk>
    <name><![CDATA[15 juil. 2022]]></name>
    <desc><![CDATA[comment ...]]></desc>
    <extensions>
      <line xmlns="http://www.topografix.com/GPX/gpx_style/0/2">
        <color>00FFFF</color>
        <width>4</width>
      </line>
    </extensions>
    <trkseg>
      <trkpt lat="44.70026" lon="7.09581">
        <ele>2015</ele>
        <time>2022-07-15T06:26:16Z</time>
      </trkpt>
      <trkpt lat="44.70026" lon="7.0958">
        <ele>2016</ele>
        <time>2022-07-15T06:26:17Z</time>
      </trkpt>
      <trkpt lat="44.70032" lon="7.09578">
        <ele>2019</ele>
        <time>2022-07-15T06:26:20Z</time>
      </trkpt>
      <trkpt lat="44.70039" lon="7.09577">
        <ele>2022</ele>
        <time>2022-07-15T06:26:29Z</time>
      </trkpt>
      <trkpt lat="44.70056" lon="7.09573">
        <ele>2017</ele>
        <time>2022-07-15T06:26:46Z</time>
      </trkpt>
      <trkpt lat="44.7006" lon="7.09572">
        <ele>2015</ele>
        <time>2022-07-15T06:26:51Z</time>
      </trkpt>
      <trkpt lat="44.70063" lon="7.09569">
        <ele>2013</ele>
        <time>2022-07-15T06:26:56Z</time>
      </trkpt>
      <trkpt lat="44.70072" lon="7.09559">
        <ele>2013</ele>
        <time>2022-07-15T06:27:08Z</time>
      </trkpt>
      <trkpt lat="44.70074" lon="7.09554">
        <ele>2013</ele>
        <time>2022-07-15T06:27:12Z</time>
      </trkpt>
      <trkpt lat="44.70077" lon="7.0955">
        <ele>2012</ele>
        <time>2022-07-15T06:27:16Z</time>
      </trkpt>
      <trkpt lat="44.7008" lon="7.09547">
        <ele>2011</ele>
        <time>2022-07-15T06:27:20Z</time>
      </trkpt>
      <trkpt lat="44.70088" lon="7.09545">
        <ele>2011</ele>
        <time>2022-07-15T06:27:27Z</time>
      </trkpt>
      <trkpt lat="44.70095" lon="7.09551">
        <ele>2012</ele>
        <time>2022-07-15T06:27:34Z</time>
      </trkpt>
      <trkpt lat="44.70097" lon="7.09555">
        <ele>2011</ele>
        <time>2022-07-15T06:27:38Z</time>
      </trkpt>
      <trkpt lat="44.70095" lon="7.09578">
        <ele>2011</ele>
        <time>2022-07-15T06:27:54Z</time>
      </trkpt>
      <trkpt lat="44.70095" lon="7.09584">
        <ele>2011</ele>
        <time>2022-07-15T06:27:58Z</time>
      </trkpt>
      <trkpt lat="44.70097" lon="7.09589">
        <ele>2012</ele>
        <time>2022-07-15T06:28:02Z</time>
      </trkpt>
      <trkpt lat="44.701" lon="7.09592">
        <ele>2012</ele>
        <time>2022-07-15T06:28:06Z</time>
      </trkpt>
      <trkpt lat="44.70103" lon="7.09595">
        <ele>2012</ele>
        <time>2022-07-15T06:28:10Z</time>
      </trkpt>
      <trkpt lat="44.7011" lon="7.09598">
        <ele>2013</ele>
        <time>2022-07-15T06:28:20Z</time>
      </trkpt>
      <trkpt lat="44.70114" lon="7.09599">
        <ele>2014</ele>
        <time>2022-07-15T06:28:26Z</time>
      </trkpt>
      <trkpt lat="44.70113" lon="7.09594">
        <ele>2013</ele>
        <time>2022-07-15T06:28:36Z</time>
      </trkpt>
      <trkpt lat="44.70115" lon="7.09589">
        <ele>2013</ele>
        <time>2022-07-15T06:28:41Z</time>
      </trkpt>
      <trkpt lat="44.70116" lon="7.09584">
        <ele>2014</ele>
        <time>2022-07-15T06:28:46Z</time>
      </trkpt>
      <trkpt lat="44.70121" lon="7.09576">
        <ele>2017</ele>
        <time>2022-07-15T06:28:57Z</time>
      </trkpt>
      <trkpt lat="44.70124" lon="7.09573">
        <ele>2018</ele>
        <time>2022-07-15T06:29:05Z</time>
      </trkpt>
      <trkpt lat="44.7013" lon="7.09567">
        <ele>2019</ele>
        <time>2022-07-15T06:29:16Z</time>
      </trkpt>
      <trkpt lat="44.70135" lon="7.09559">
        <ele>2022</ele>
        <time>2022-07-15T06:29:26Z</time>
      </trkpt>
      <trkpt lat="44.70137" lon="7.09555">
        <ele>2023</ele>
        <time>2022-07-15T06:29:32Z</time>
      </trkpt>
      <trkpt lat="44.70142" lon="7.09548">
        <ele>2024</ele>
        <time>2022-07-15T06:29:43Z</time>
      </trkpt>
      <trkpt lat="44.70143" lon="7.09544">
        <ele>2026</ele>
        <time>2022-07-15T06:29:49Z</time>
      </trkpt>
      <trkpt lat="44.70148" lon="7.09517">
        <ele>2028</ele>
        <time>2022-07-15T06:30:15Z</time>
      </trkpt>
      <trkpt lat="44.70149" lon="7.09512">
        <ele>2029</ele>
        <time>2022-07-15T06:30:21Z</time>
      </trkpt>
      <trkpt lat="44.70151" lon="7.09508">
        <ele>2029</ele>
        <time>2022-07-15T06:30:27Z</time>
      </trkpt>
      <trkpt lat="44.70153" lon="7.09504">
        <ele>2029</ele>
        <time>2022-07-15T06:30:32Z</time>
      </trkpt>
      <trkpt lat="44.70155" lon="7.095">
        <ele>2029</ele>
        <time>2022-07-15T06:30:38Z</time>
      </trkpt>
      <trkpt lat="44.70159" lon="7.09498">
        <ele>2032</ele>
        <time>2022-07-15T06:30:43Z</time>
      </trkpt>
      <trkpt lat="44.70161" lon="7.09493">
        <ele>2033</ele>
        <time>2022-07-15T06:30:48Z</time>
      </trkpt>
      <trkpt lat="44.70162" lon="7.09489">
        <ele>2035</ele>
        <time>2022-07-15T06:30:53Z</time>
      </trkpt>
      <trkpt lat="44.70164" lon="7.09484">
        <ele>2036</ele>
        <time>2022-07-15T06:31:00Z</time>
      </trkpt>
      <trkpt lat="44.70166" lon="7.0948">
        <ele>2037</ele>
        <time>2022-07-15T06:31:06Z</time>
      </trkpt>
      <trkpt lat="44.70167" lon="7.09476">
        <ele>2038</ele>
        <time>2022-07-15T06:31:11Z</time>
      </trkpt>
      <trkpt lat="44.70168" lon="7.09471">
        <ele>2041</ele>
        <time>2022-07-15T06:31:17Z</time>
      </trkpt>
      <trkpt lat="44.70169" lon="7.09461">
        <ele>2044</ele>
        <time>2022-07-15T06:31:28Z</time>
      </trkpt>
      <trkpt lat="44.70168" lon="7.09456">
        <ele>2042</ele>
        <time>2022-07-15T06:32:05Z</time>
      </trkpt>
      <trkpt lat="44.70167" lon="7.09452">
        <ele>2042</ele>
        <time>2022-07-15T06:32:09Z</time>
      </trkpt>
      <trkpt lat="44.70168" lon="7.09446">
        <ele>2042</ele>
        <time>2022-07-15T06:32:14Z</time>
      </trkpt>
      <trkpt lat="44.70169" lon="7.09441">
        <ele>2042</ele>
        <time>2022-07-15T06:32:19Z</time>
      </trkpt>
      <trkpt lat="44.70176" lon="7.09418">
        <ele>2042</ele>
        <time>2022-07-15T06:32:40Z</time>
      </trkpt>
      <trkpt lat="44.70177" lon="7.09413">
        <ele>2042</ele>
        <time>2022-07-15T06:32:45Z</time>
      </trkpt>
      <trkpt lat="44.70178" lon="7.09408">
        <ele>2043</ele>
        <time>2022-07-15T06:32:51Z</time>
      </trkpt>
      <trkpt lat="44.70181" lon="7.09404">
        <ele>2044</ele>
        <time>2022-07-15T06:32:56Z</time>
      </trkpt>
      <trkpt lat="44.70182" lon="7.09399">
        <ele>2045</ele>
        <time>2022-07-15T06:33:01Z</time>
      </trkpt>
      <trkpt lat="44.70187" lon="7.09391">
        <ele>2046</ele>
        <time>2022-07-15T06:33:11Z</time>
      </trkpt>
      <trkpt lat="44.70187" lon="7.09385">
        <ele>2047</ele>
        <time>2022-07-15T06:33:17Z</time>
      </trkpt>
      <trkpt lat="44.7019" lon="7.09382">
        <ele>2049</ele>
        <time>2022-07-15T06:33:23Z</time>
      </trkpt>
      <trkpt lat="44.70195" lon="7.09369">
        <ele>2050</ele>
        <time>2022-07-15T06:33:38Z</time>
      </trkpt>
      <trkpt lat="44.70198" lon="7.09366">
        <ele>2050</ele>
        <time>2022-07-15T06:33:45Z</time>
      </trkpt>
      <trkpt lat="44.70199" lon="7.09361">
        <ele>2050</ele>
        <time>2022-07-15T06:33:51Z</time>
      </trkpt>
      <trkpt lat="44.70208" lon="7.09347">
        <ele>2051</ele>
        <time>2022-07-15T06:34:11Z</time>
      </trkpt>
      <trkpt lat="44.70209" lon="7.09333">
        <ele>2053</ele>
        <time>2022-07-15T06:34:27Z</time>
      </trkpt>
      <trkpt lat="44.70205" lon="7.0933">
        <ele>2056</ele>
        <time>2022-07-15T06:34:32Z</time>
      </trkpt>
      <trkpt lat="44.70204" lon="7.09324">
        <ele>2057</ele>
        <time>2022-07-15T06:34:37Z</time>
      </trkpt>
      <trkpt lat="44.70205" lon="7.0932">
        <ele>2057</ele>
        <time>2022-07-15T06:34:41Z</time>
      </trkpt>
      <trkpt lat="44.70208" lon="7.09309">
        <ele>2056</ele>
        <time>2022-07-15T06:34:52Z</time>
      </trkpt>
      <trkpt lat="44.70211" lon="7.09306">
        <ele>2056</ele>
        <time>2022-07-15T06:35:02Z</time>
      </trkpt>
      <trkpt lat="44.70212" lon="7.09301">
        <ele>2056</ele>
        <time>2022-07-15T06:35:07Z</time>
      </trkpt>
      <trkpt lat="44.70216" lon="7.09292">
        <ele>2059</ele>
        <time>2022-07-15T06:35:18Z</time>
      </trkpt>
      <trkpt lat="44.70218" lon="7.09288">
        <ele>2057</ele>
        <time>2022-07-15T06:35:24Z</time>
      </trkpt>
      <trkpt lat="44.70219" lon="7.09283">
        <ele>2058</ele>
        <time>2022-07-15T06:35:32Z</time>
      </trkpt>
      <trkpt lat="44.7022" lon="7.09265">
        <ele>2060</ele>
        <time>2022-07-15T06:35:52Z</time>
      </trkpt>
      <trkpt lat="44.70225" lon="7.09245">
        <ele>2064</ele>
        <time>2022-07-15T06:36:14Z</time>
      </trkpt>
      <trkpt lat="44.70226" lon="7.0924">
        <ele>2066</ele>
        <time>2022-07-15T06:36:19Z</time>
      </trkpt>
      <trkpt lat="44.70228" lon="7.09236">
        <ele>2067</ele>
        <time>2022-07-15T06:36:24Z</time>
      </trkpt>
      <trkpt lat="44.70228" lon="7.0923">
        <ele>2069</ele>
        <time>2022-07-15T06:36:29Z</time>
      </trkpt>
      <trkpt lat="44.70227" lon="7.09226">
        <ele>2071</ele>
        <time>2022-07-15T06:36:34Z</time>
      </trkpt>
      <trkpt lat="44.70224" lon="7.09222">
        <ele>2072</ele>
        <time>2022-07-15T06:36:39Z</time>
      </trkpt>
      <trkpt lat="44.70224" lon="7.09217">
        <ele>2073</ele>
        <time>2022-07-15T06:36:45Z</time>
      </trkpt>
      <trkpt lat="44.70223" lon="7.09212">
        <ele>2074</ele>
        <time>2022-07-15T06:36:50Z</time>
      </trkpt>
      <trkpt lat="44.70222" lon="7.09207">
        <ele>2075</ele>
        <time>2022-07-15T06:36:56Z</time>
      </trkpt>
      <trkpt lat="44.70225" lon="7.09198">
        <ele>2076</ele>
        <time>2022-07-15T06:37:06Z</time>
      </trkpt>
      <trkpt lat="44.70225" lon="7.09193">
        <ele>2077</ele>
        <time>2022-07-15T06:37:12Z</time>
      </trkpt>
      <trkpt lat="44.70226" lon="7.09188">
        <ele>2077</ele>
        <time>2022-07-15T06:37:18Z</time>
      </trkpt>
      <trkpt lat="44.70227" lon="7.09183">
        <ele>2077</ele>
        <time>2022-07-15T06:37:24Z</time>
      </trkpt>
      <trkpt lat="44.70227" lon="7.09178">
        <ele>2078</ele>
        <time>2022-07-15T06:37:30Z</time>
      </trkpt>
      <trkpt lat="44.70227" lon="7.09173">
        <ele>2078</ele>
        <time>2022-07-15T06:37:36Z</time>
      </trkpt>
      <trkpt lat="44.70229" lon="7.09169">
        <ele>2081</ele>
        <time>2022-07-15T06:37:43Z</time>
      </trkpt>
      <trkpt lat="44.70229" lon="7.09163">
        <ele>2081</ele>
        <time>2022-07-15T06:37:52Z</time>
      </trkpt>
      <trkpt lat="44.70232" lon="7.09161">
        <ele>2082</ele>
        <time>2022-07-15T06:38:19Z</time>
      </trkpt>
      <trkpt lat="44.70233" lon="7.09156">
        <ele>2084</ele>
        <time>2022-07-15T06:38:26Z</time>
      </trkpt>
      <trkpt lat="44.70236" lon="7.09152">
        <ele>2083</ele>
        <time>2022-07-15T06:38:35Z</time>
      </trkpt>
      <trkpt lat="44.70238" lon="7.09147">
        <ele>2085</ele>
        <time>2022-07-15T06:38:43Z</time>
      </trkpt>
      <trkpt lat="44.70238" lon="7.0914">
        <ele>2085</ele>
        <time>2022-07-15T06:38:52Z</time>
      </trkpt>
      <trkpt lat="44.70238" lon="7.09134">
        <ele>2085</ele>
        <time>2022-07-15T06:39:02Z</time>
      </trkpt>
      <trkpt lat="44.70239" lon="7.09129">
        <ele>2089</ele>
        <time>2022-07-15T06:39:15Z</time>
      </trkpt>
      <trkpt lat="44.70237" lon="7.09126">
        <ele>2091</ele>
        <time>2022-07-15T06:39:22Z</time>
      </trkpt>
      <trkpt lat="44.7024" lon="7.09106">
        <ele>2101</ele>
        <time>2022-07-15T06:39:52Z</time>
      </trkpt>
      <trkpt lat="44.70243" lon="7.09104">
        <ele>2103</ele>
        <time>2022-07-15T06:40:00Z</time>
      </trkpt>
      <trkpt lat="44.70246" lon="7.09108">
        <ele>2103</ele>
        <time>2022-07-15T06:40:04Z</time>
      </trkpt>
      <trkpt lat="44.70247" lon="7.09118">
        <ele>2105</ele>
        <time>2022-07-15T06:40:14Z</time>
      </trkpt>
      <trkpt lat="44.70253" lon="7.09131">
        <ele>2108</ele>
        <time>2022-07-15T06:40:30Z</time>
      </trkpt>
      <trkpt lat="44.70258" lon="7.09146">
        <ele>2109</ele>
        <time>2022-07-15T06:40:47Z</time>
      </trkpt>
      <trkpt lat="44.70262" lon="7.09155">
        <ele>2110</ele>
        <time>2022-07-15T06:41:17Z</time>
      </trkpt>
      <trkpt lat="44.70263" lon="7.0916">
        <ele>2111</ele>
        <time>2022-07-15T06:41:23Z</time>
      </trkpt>
      <trkpt lat="44.70265" lon="7.09165">
        <ele>2112</ele>
        <time>2022-07-15T06:41:30Z</time>
      </trkpt>
      <trkpt lat="44.70269" lon="7.09173">
        <ele>2113</ele>
        <time>2022-07-15T06:41:45Z</time>
      </trkpt>
      <trkpt lat="44.70271" lon="7.09178">
        <ele>2115</ele>
        <time>2022-07-15T06:41:52Z</time>
      </trkpt>
      <trkpt lat="44.70274" lon="7.09187">
        <ele>2118</ele>
        <time>2022-07-15T06:42:05Z</time>
      </trkpt>
      <trkpt lat="44.70276" lon="7.09192">
        <ele>2119</ele>
        <time>2022-07-15T06:42:12Z</time>
      </trkpt>
      <trkpt lat="44.7028" lon="7.09195">
        <ele>2120</ele>
        <time>2022-07-15T06:42:19Z</time>
      </trkpt>
      <trkpt lat="44.70281" lon="7.09199">
        <ele>2121</ele>
        <time>2022-07-15T06:42:25Z</time>
      </trkpt>
      <trkpt lat="44.70285" lon="7.09201">
        <ele>2122</ele>
        <time>2022-07-15T06:42:30Z</time>
      </trkpt>
      <trkpt lat="44.70296" lon="7.09207">
        <ele>2124</ele>
        <time>2022-07-15T06:42:51Z</time>
      </trkpt>
      <trkpt lat="44.70299" lon="7.0921">
        <ele>2124</ele>
        <time>2022-07-15T06:42:58Z</time>
      </trkpt>
      <trkpt lat="44.70302" lon="7.09213">
        <ele>2125</ele>
        <time>2022-07-15T06:43:05Z</time>
      </trkpt>
      <trkpt lat="44.70305" lon="7.09215">
        <ele>2125</ele>
        <time>2022-07-15T06:43:11Z</time>
      </trkpt>
      <trkpt lat="44.70312" lon="7.09219">
        <ele>2126</ele>
        <time>2022-07-15T06:43:26Z</time>
      </trkpt>
      <trkpt lat="44.70315" lon="7.09221">
        <ele>2127</ele>
        <time>2022-07-15T06:43:32Z</time>
      </trkpt>
      <trkpt lat="44.70318" lon="7.09226">
        <ele>2128</ele>
        <time>2022-07-15T06:43:39Z</time>
      </trkpt>
      <trkpt lat="44.70317" lon="7.09231">
        <ele>2128</ele>
        <time>2022-07-15T06:43:45Z</time>
      </trkpt>
      <trkpt lat="44.70317" lon="7.09236">
        <ele>2129</ele>
        <time>2022-07-15T06:43:50Z</time>
      </trkpt>
      <trkpt lat="44.70316" lon="7.09242">
        <ele>2130</ele>
        <time>2022-07-15T06:43:56Z</time>
      </trkpt>
      <trkpt lat="44.70314" lon="7.09246">
        <ele>2132</ele>
        <time>2022-07-15T06:44:01Z</time>
      </trkpt>
      <trkpt lat="44.70314" lon="7.09252">
        <ele>2132</ele>
        <time>2022-07-15T06:44:08Z</time>
      </trkpt>
      <trkpt lat="44.70316" lon="7.09257">
        <ele>2133</ele>
        <time>2022-07-15T06:44:15Z</time>
      </trkpt>
      <trkpt lat="44.70318" lon="7.09266">
        <ele>2135</ele>
        <time>2022-07-15T06:44:25Z</time>
      </trkpt>
      <trkpt lat="44.70325" lon="7.09279">
        <ele>2137</ele>
        <time>2022-07-15T06:44:43Z</time>
      </trkpt>
      <trkpt lat="44.70329" lon="7.09305">
        <ele>2140</ele>
        <time>2022-07-15T06:45:17Z</time>
      </trkpt>
      <trkpt lat="44.7033" lon="7.09311">
        <ele>2142</ele>
        <time>2022-07-15T06:45:24Z</time>
      </trkpt>
      <trkpt lat="44.70333" lon="7.09314">
        <ele>2143</ele>
        <time>2022-07-15T06:45:30Z</time>
      </trkpt>
      <trkpt lat="44.70336" lon="7.09318">
        <ele>2146</ele>
        <time>2022-07-15T06:45:36Z</time>
      </trkpt>
      <trkpt lat="44.70343" lon="7.09316">
        <ele>2148</ele>
        <time>2022-07-15T06:45:46Z</time>
      </trkpt>
      <trkpt lat="44.70345" lon="7.09311">
        <ele>2149</ele>
        <time>2022-07-15T06:46:01Z</time>
      </trkpt>
      <trkpt lat="44.70346" lon="7.09306">
        <ele>2150</ele>
        <time>2022-07-15T06:46:11Z</time>
      </trkpt>
      <trkpt lat="44.70351" lon="7.09297">
        <ele>2150</ele>
        <time>2022-07-15T06:46:20Z</time>
      </trkpt>
      <trkpt lat="44.70353" lon="7.09293">
        <ele>2150</ele>
        <time>2022-07-15T06:46:24Z</time>
      </trkpt>
      <trkpt lat="44.70362" lon="7.09278">
        <ele>2151</ele>
        <time>2022-07-15T06:46:48Z</time>
      </trkpt>
      <trkpt lat="44.70364" lon="7.09273">
        <ele>2152</ele>
        <time>2022-07-15T06:46:54Z</time>
      </trkpt>
      <trkpt lat="44.70366" lon="7.09269">
        <ele>2155</ele>
        <time>2022-07-15T06:47:26Z</time>
      </trkpt>
      <trkpt lat="44.70367" lon="7.09264">
        <ele>2156</ele>
        <time>2022-07-15T06:47:33Z</time>
      </trkpt>
      <trkpt lat="44.70369" lon="7.0926">
        <ele>2157</ele>
        <time>2022-07-15T06:48:09Z</time>
      </trkpt>
      <trkpt lat="44.70368" lon="7.09255">
        <ele>2156</ele>
        <time>2022-07-15T06:48:14Z</time>
      </trkpt>
      <trkpt lat="44.70369" lon="7.0924">
        <ele>2157</ele>
        <time>2022-07-15T06:48:30Z</time>
      </trkpt>
      <trkpt lat="44.7037" lon="7.09235">
        <ele>2157</ele>
        <time>2022-07-15T06:48:38Z</time>
      </trkpt>
      <trkpt lat="44.70371" lon="7.09214">
        <ele>2159</ele>
        <time>2022-07-15T06:49:00Z</time>
      </trkpt>
      <trkpt lat="44.70371" lon="7.09208">
        <ele>2159</ele>
        <time>2022-07-15T06:49:06Z</time>
      </trkpt>
      <trkpt lat="44.70368" lon="7.09194">
        <ele>2162</ele>
        <time>2022-07-15T06:49:22Z</time>
      </trkpt>
      <trkpt lat="44.70366" lon="7.09189">
        <ele>2162</ele>
        <time>2022-07-15T06:49:25Z</time>
      </trkpt>
      <trkpt lat="44.70361" lon="7.09165">
        <ele>2162</ele>
        <time>2022-07-15T06:49:59Z</time>
      </trkpt>
      <trkpt lat="44.7036" lon="7.0916">
        <ele>2162</ele>
        <time>2022-07-15T06:50:04Z</time>
      </trkpt>
      <trkpt lat="44.70358" lon="7.0915">
        <ele>2162</ele>
        <time>2022-07-15T06:50:16Z</time>
      </trkpt>
      <trkpt lat="44.70355" lon="7.09146">
        <ele>2162</ele>
        <time>2022-07-15T06:50:22Z</time>
      </trkpt>
      <trkpt lat="44.70348" lon="7.09118">
        <ele>2165</ele>
        <time>2022-07-15T06:50:56Z</time>
      </trkpt>
      <trkpt lat="44.70347" lon="7.09113">
        <ele>2169</ele>
        <time>2022-07-15T06:51:05Z</time>
      </trkpt>
      <trkpt lat="44.7035" lon="7.0911">
        <ele>2170</ele>
        <time>2022-07-15T06:51:10Z</time>
      </trkpt>
      <trkpt lat="44.7035" lon="7.09105">
        <ele>2169</ele>
        <time>2022-07-15T06:51:17Z</time>
      </trkpt>
      <trkpt lat="44.70349" lon="7.091">
        <ele>2173</ele>
        <time>2022-07-15T06:51:39Z</time>
      </trkpt>
      <trkpt lat="44.70347" lon="7.09096">
        <ele>2178</ele>
        <time>2022-07-15T06:51:45Z</time>
      </trkpt>
      <trkpt lat="44.70343" lon="7.09094">
        <ele>2179</ele>
        <time>2022-07-15T06:51:52Z</time>
      </trkpt>
      <trkpt lat="44.70331" lon="7.09093">
        <ele>2183</ele>
        <time>2022-07-15T06:52:35Z</time>
      </trkpt>
      <trkpt lat="44.70328" lon="7.09091">
        <ele>2184</ele>
        <time>2022-07-15T06:52:40Z</time>
      </trkpt>
      <trkpt lat="44.70325" lon="7.09087">
        <ele>2184</ele>
        <time>2022-07-15T06:52:59Z</time>
      </trkpt>
      <trkpt lat="44.70323" lon="7.09083">
        <ele>2185</ele>
        <time>2022-07-15T06:53:07Z</time>
      </trkpt>
      <trkpt lat="44.7032" lon="7.09078">
        <ele>2185</ele>
        <time>2022-07-15T06:53:13Z</time>
      </trkpt>
      <trkpt lat="44.70317" lon="7.09079">
        <ele>2187</ele>
        <time>2022-07-15T06:53:41Z</time>
      </trkpt>
      <trkpt lat="44.70315" lon="7.09073">
        <ele>2188</ele>
        <time>2022-07-15T06:53:56Z</time>
      </trkpt>
      <trkpt lat="44.70308" lon="7.09068">
        <ele>2188</ele>
        <time>2022-07-15T06:54:05Z</time>
      </trkpt>
      <trkpt lat="44.703" lon="7.09065">
        <ele>2190</ele>
        <time>2022-07-15T06:54:12Z</time>
      </trkpt>
      <trkpt lat="44.70297" lon="7.09062">
        <ele>2191</ele>
        <time>2022-07-15T06:54:16Z</time>
      </trkpt>
      <trkpt lat="44.70293" lon="7.09047">
        <ele>2191</ele>
        <time>2022-07-15T06:54:28Z</time>
      </trkpt>
      <trkpt lat="44.70293" lon="7.09042">
        <ele>2191</ele>
        <time>2022-07-15T06:54:31Z</time>
      </trkpt>
      <trkpt lat="44.70296" lon="7.09027">
        <ele>2189</ele>
        <time>2022-07-15T06:54:44Z</time>
      </trkpt>
      <trkpt lat="44.70305" lon="7.09009">
        <ele>2190</ele>
        <time>2022-07-15T06:55:24Z</time>
      </trkpt>
      <trkpt lat="44.70309" lon="7.08999">
        <ele>2190</ele>
        <time>2022-07-15T06:55:35Z</time>
      </trkpt>
      <trkpt lat="44.70313" lon="7.08995">
        <ele>2190</ele>
        <time>2022-07-15T06:55:41Z</time>
      </trkpt>
      <trkpt lat="44.70315" lon="7.08991">
        <ele>2190</ele>
        <time>2022-07-15T06:55:47Z</time>
      </trkpt>
      <trkpt lat="44.70317" lon="7.08985">
        <ele>2191</ele>
        <time>2022-07-15T06:55:53Z</time>
      </trkpt>
      <trkpt lat="44.7032" lon="7.08981">
        <ele>2191</ele>
        <time>2022-07-15T06:56:00Z</time>
      </trkpt>
      <trkpt lat="44.70323" lon="7.08979">
        <ele>2192</ele>
        <time>2022-07-15T06:56:06Z</time>
      </trkpt>
      <trkpt lat="44.70335" lon="7.08965">
        <ele>2194</ele>
        <time>2022-07-15T06:56:27Z</time>
      </trkpt>
      <trkpt lat="44.70339" lon="7.08963">
        <ele>2194</ele>
        <time>2022-07-15T06:56:33Z</time>
      </trkpt>
      <trkpt lat="44.70344" lon="7.08955">
        <ele>2195</ele>
        <time>2022-07-15T06:56:45Z</time>
      </trkpt>
      <trkpt lat="44.70346" lon="7.08951">
        <ele>2194</ele>
        <time>2022-07-15T06:56:50Z</time>
      </trkpt>
      <trkpt lat="44.70352" lon="7.08944">
        <ele>2194</ele>
        <time>2022-07-15T06:57:00Z</time>
      </trkpt>
      <trkpt lat="44.70354" lon="7.08939">
        <ele>2195</ele>
        <time>2022-07-15T06:57:05Z</time>
      </trkpt>
      <trkpt lat="44.70358" lon="7.08936">
        <ele>2195</ele>
        <time>2022-07-15T06:57:11Z</time>
      </trkpt>
      <trkpt lat="44.70358" lon="7.08931">
        <ele>2195</ele>
        <time>2022-07-15T06:57:16Z</time>
      </trkpt>
      <trkpt lat="44.70361" lon="7.08926">
        <ele>2195</ele>
        <time>2022-07-15T06:57:22Z</time>
      </trkpt>
      <trkpt lat="44.70364" lon="7.08923">
        <ele>2195</ele>
        <time>2022-07-15T06:57:28Z</time>
      </trkpt>
      <trkpt lat="44.70368" lon="7.08916">
        <ele>2196</ele>
        <time>2022-07-15T06:57:39Z</time>
      </trkpt>
      <trkpt lat="44.70372" lon="7.08915">
        <ele>2197</ele>
        <time>2022-07-15T06:57:44Z</time>
      </trkpt>
      <trkpt lat="44.70375" lon="7.08914">
        <ele>2197</ele>
        <time>2022-07-15T06:57:50Z</time>
      </trkpt>
      <trkpt lat="44.70379" lon="7.08912">
        <ele>2197</ele>
        <time>2022-07-15T06:57:57Z</time>
      </trkpt>
      <trkpt lat="44.70381" lon="7.08907">
        <ele>2197</ele>
        <time>2022-07-15T06:58:03Z</time>
      </trkpt>
      <trkpt lat="44.70387" lon="7.08901">
        <ele>2198</ele>
        <time>2022-07-15T06:58:15Z</time>
      </trkpt>
      <trkpt lat="44.7039" lon="7.08898">
        <ele>2198</ele>
        <time>2022-07-15T06:58:21Z</time>
      </trkpt>
      <trkpt lat="44.70392" lon="7.08895">
        <ele>2199</ele>
        <time>2022-07-15T06:58:27Z</time>
      </trkpt>
      <trkpt lat="44.70396" lon="7.08894">
        <ele>2199</ele>
        <time>2022-07-15T06:58:34Z</time>
      </trkpt>
      <trkpt lat="44.70396" lon="7.08899">
        <ele>2200</ele>
        <time>2022-07-15T06:58:40Z</time>
      </trkpt>
      <trkpt lat="44.7039" lon="7.08914">
        <ele>2211</ele>
        <time>2022-07-15T06:58:54Z</time>
      </trkpt>
      <trkpt lat="44.70389" lon="7.08919">
        <ele>2212</ele>
        <time>2022-07-15T06:59:00Z</time>
      </trkpt>
      <trkpt lat="44.70386" lon="7.08929">
        <ele>2217</ele>
        <time>2022-07-15T06:59:11Z</time>
      </trkpt>
      <trkpt lat="44.70386" lon="7.08934">
        <ele>2217</ele>
        <time>2022-07-15T06:59:16Z</time>
      </trkpt>
      <trkpt lat="44.70379" lon="7.08947">
        <ele>2219</ele>
        <time>2022-07-15T06:59:48Z</time>
      </trkpt>
      <trkpt lat="44.70378" lon="7.08968">
        <ele>2219</ele>
        <time>2022-07-15T07:00:10Z</time>
      </trkpt>
      <trkpt lat="44.70377" lon="7.08973">
        <ele>2220</ele>
        <time>2022-07-15T07:00:15Z</time>
      </trkpt>
      <trkpt lat="44.70381" lon="7.08973">
        <ele>2224</ele>
        <time>2022-07-15T07:00:26Z</time>
      </trkpt>
      <trkpt lat="44.70384" lon="7.0897">
        <ele>2226</ele>
        <time>2022-07-15T07:00:31Z</time>
      </trkpt>
      <trkpt lat="44.70391" lon="7.08958">
        <ele>2228</ele>
        <time>2022-07-15T07:00:47Z</time>
      </trkpt>
      <trkpt lat="44.70396" lon="7.08951">
        <ele>2229</ele>
        <time>2022-07-15T07:01:00Z</time>
      </trkpt>
      <trkpt lat="44.70399" lon="7.08947">
        <ele>2229</ele>
        <time>2022-07-15T07:01:06Z</time>
      </trkpt>
      <trkpt lat="44.70405" lon="7.08941">
        <ele>2230</ele>
        <time>2022-07-15T07:01:18Z</time>
      </trkpt>
      <trkpt lat="44.70409" lon="7.08939">
        <ele>2231</ele>
        <time>2022-07-15T07:01:25Z</time>
      </trkpt>
      <trkpt lat="44.70412" lon="7.08935">
        <ele>2232</ele>
        <time>2022-07-15T07:01:30Z</time>
      </trkpt>
      <trkpt lat="44.70425" lon="7.08916">
        <ele>2237</ele>
        <time>2022-07-15T07:01:56Z</time>
      </trkpt>
      <trkpt lat="44.70428" lon="7.08913">
        <ele>2237</ele>
        <time>2022-07-15T07:02:01Z</time>
      </trkpt>
      <trkpt lat="44.70431" lon="7.08909">
        <ele>2235</ele>
        <time>2022-07-15T07:02:06Z</time>
      </trkpt>
      <trkpt lat="44.70433" lon="7.08905">
        <ele>2235</ele>
        <time>2022-07-15T07:02:11Z</time>
      </trkpt>
      <trkpt lat="44.70438" lon="7.08898">
        <ele>2236</ele>
        <time>2022-07-15T07:02:20Z</time>
      </trkpt>
      <trkpt lat="44.70439" lon="7.08893">
        <ele>2236</ele>
        <time>2022-07-15T07:02:24Z</time>
      </trkpt>
      <trkpt lat="44.70441" lon="7.08888">
        <ele>2237</ele>
        <time>2022-07-15T07:02:29Z</time>
      </trkpt>
      <trkpt lat="44.70443" lon="7.08884">
        <ele>2237</ele>
        <time>2022-07-15T07:02:34Z</time>
      </trkpt>
      <trkpt lat="44.70447" lon="7.08858">
        <ele>2237</ele>
        <time>2022-07-15T07:03:00Z</time>
      </trkpt>
      <trkpt lat="44.70451" lon="7.08843">
        <ele>2238</ele>
        <time>2022-07-15T07:03:16Z</time>
      </trkpt>
      <trkpt lat="44.70454" lon="7.0884">
        <ele>2238</ele>
        <time>2022-07-15T07:03:21Z</time>
      </trkpt>
      <trkpt lat="44.70455" lon="7.08835">
        <ele>2238</ele>
        <time>2022-07-15T07:03:25Z</time>
      </trkpt>
      <trkpt lat="44.70457" lon="7.0883">
        <ele>2237</ele>
        <time>2022-07-15T07:03:30Z</time>
      </trkpt>
      <trkpt lat="44.70458" lon="7.08825">
        <ele>2237</ele>
        <time>2022-07-15T07:03:35Z</time>
      </trkpt>
      <trkpt lat="44.70459" lon="7.08821">
        <ele>2239</ele>
        <time>2022-07-15T07:03:40Z</time>
      </trkpt>
      <trkpt lat="44.70461" lon="7.08816">
        <ele>2240</ele>
        <time>2022-07-15T07:03:47Z</time>
      </trkpt>
      <trkpt lat="44.70462" lon="7.08811">
        <ele>2241</ele>
        <time>2022-07-15T07:03:52Z</time>
      </trkpt>
      <trkpt lat="44.70462" lon="7.08806">
        <ele>2241</ele>
        <time>2022-07-15T07:03:56Z</time>
      </trkpt>
      <trkpt lat="44.70462" lon="7.088">
        <ele>2240</ele>
        <time>2022-07-15T07:04:02Z</time>
      </trkpt>
      <trkpt lat="44.70462" lon="7.08795">
        <ele>2241</ele>
        <time>2022-07-15T07:04:07Z</time>
      </trkpt>
      <trkpt lat="44.70462" lon="7.0879">
        <ele>2242</ele>
        <time>2022-07-15T07:04:12Z</time>
      </trkpt>
      <trkpt lat="44.70463" lon="7.08785">
        <ele>2242</ele>
        <time>2022-07-15T07:04:17Z</time>
      </trkpt>
      <trkpt lat="44.70464" lon="7.08781">
        <ele>2243</ele>
        <time>2022-07-15T07:04:24Z</time>
      </trkpt>
      <trkpt lat="44.70465" lon="7.08776">
        <ele>2242</ele>
        <time>2022-07-15T07:04:29Z</time>
      </trkpt>
      <trkpt lat="44.70466" lon="7.08771">
        <ele>2238</ele>
        <time>2022-07-15T07:04:35Z</time>
      </trkpt>
      <trkpt lat="44.7047" lon="7.08769">
        <ele>2238</ele>
        <time>2022-07-15T07:04:41Z</time>
      </trkpt>
      <trkpt lat="44.70471" lon="7.0876">
        <ele>2240</ele>
        <time>2022-07-15T07:04:56Z</time>
      </trkpt>
      <trkpt lat="44.70474" lon="7.08756">
        <ele>2244</ele>
        <time>2022-07-15T07:05:04Z</time>
      </trkpt>
      <trkpt lat="44.70476" lon="7.08752">
        <ele>2245</ele>
        <time>2022-07-15T07:05:11Z</time>
      </trkpt>
      <trkpt lat="44.70478" lon="7.08747">
        <ele>2246</ele>
        <time>2022-07-15T07:05:18Z</time>
      </trkpt>
      <trkpt lat="44.70481" lon="7.08732">
        <ele>2249</ele>
        <time>2022-07-15T07:05:35Z</time>
      </trkpt>
      <trkpt lat="44.70483" lon="7.08728">
        <ele>2250</ele>
        <time>2022-07-15T07:05:41Z</time>
      </trkpt>
      <trkpt lat="44.70483" lon="7.08723">
        <ele>2250</ele>
        <time>2022-07-15T07:05:48Z</time>
      </trkpt>
      <trkpt lat="44.70485" lon="7.08718">
        <ele>2250</ele>
        <time>2022-07-15T07:05:55Z</time>
      </trkpt>
      <trkpt lat="44.70487" lon="7.08714">
        <ele>2252</ele>
        <time>2022-07-15T07:06:03Z</time>
      </trkpt>
      <trkpt lat="44.70489" lon="7.0871">
        <ele>2254</ele>
        <time>2022-07-15T07:06:08Z</time>
      </trkpt>
      <trkpt lat="44.70489" lon="7.08705">
        <ele>2255</ele>
        <time>2022-07-15T07:06:14Z</time>
      </trkpt>
      <trkpt lat="44.70491" lon="7.08701">
        <ele>2256</ele>
        <time>2022-07-15T07:06:20Z</time>
      </trkpt>
      <trkpt lat="44.7049" lon="7.08695">
        <ele>2257</ele>
        <time>2022-07-15T07:06:27Z</time>
      </trkpt>
      <trkpt lat="44.70488" lon="7.08691">
        <ele>2259</ele>
        <time>2022-07-15T07:06:34Z</time>
      </trkpt>
      <trkpt lat="44.70487" lon="7.08686">
        <ele>2260</ele>
        <time>2022-07-15T07:06:41Z</time>
      </trkpt>
      <trkpt lat="44.70484" lon="7.08676">
        <ele>2266</ele>
        <time>2022-07-15T07:06:54Z</time>
      </trkpt>
      <trkpt lat="44.70481" lon="7.08662">
        <ele>2268</ele>
        <time>2022-07-15T07:07:10Z</time>
      </trkpt>
      <trkpt lat="44.70479" lon="7.08658">
        <ele>2269</ele>
        <time>2022-07-15T07:07:19Z</time>
      </trkpt>
      <trkpt lat="44.70479" lon="7.08653">
        <ele>2270</ele>
        <time>2022-07-15T07:08:03Z</time>
      </trkpt>
      <trkpt lat="44.70482" lon="7.08626">
        <ele>2273</ele>
        <time>2022-07-15T07:08:33Z</time>
      </trkpt>
      <trkpt lat="44.70483" lon="7.08621">
        <ele>2273</ele>
        <time>2022-07-15T07:08:39Z</time>
      </trkpt>
      <trkpt lat="44.70483" lon="7.08615">
        <ele>2272</ele>
        <time>2022-07-15T07:08:44Z</time>
      </trkpt>
      <trkpt lat="44.70484" lon="7.0861">
        <ele>2271</ele>
        <time>2022-07-15T07:08:47Z</time>
      </trkpt>
      <trkpt lat="44.70485" lon="7.08605">
        <ele>2269</ele>
        <time>2022-07-15T07:08:52Z</time>
      </trkpt>
      <trkpt lat="44.70488" lon="7.08602">
        <ele>2269</ele>
        <time>2022-07-15T07:08:58Z</time>
      </trkpt>
      <trkpt lat="44.7049" lon="7.08593">
        <ele>2273</ele>
        <time>2022-07-15T07:09:12Z</time>
      </trkpt>
      <trkpt lat="44.70493" lon="7.08589">
        <ele>2276</ele>
        <time>2022-07-15T07:09:17Z</time>
      </trkpt>
      <trkpt lat="44.70497" lon="7.08587">
        <ele>2277</ele>
        <time>2022-07-15T07:09:23Z</time>
      </trkpt>
      <trkpt lat="44.70501" lon="7.08587">
        <ele>2279</ele>
        <time>2022-07-15T07:09:29Z</time>
      </trkpt>
      <trkpt lat="44.70508" lon="7.08583">
        <ele>2281</ele>
        <time>2022-07-15T07:09:40Z</time>
      </trkpt>
      <trkpt lat="44.70515" lon="7.0858">
        <ele>2283</ele>
        <time>2022-07-15T07:09:52Z</time>
      </trkpt>
      <trkpt lat="44.70518" lon="7.08581">
        <ele>2284</ele>
        <time>2022-07-15T07:09:58Z</time>
      </trkpt>
      <trkpt lat="44.70525" lon="7.08577">
        <ele>2287</ele>
        <time>2022-07-15T07:10:10Z</time>
      </trkpt>
      <trkpt lat="44.70528" lon="7.08574">
        <ele>2288</ele>
        <time>2022-07-15T07:10:16Z</time>
      </trkpt>
      <trkpt lat="44.7053" lon="7.0857">
        <ele>2290</ele>
        <time>2022-07-15T07:10:22Z</time>
      </trkpt>
      <trkpt lat="44.70533" lon="7.08566">
        <ele>2291</ele>
        <time>2022-07-15T07:10:28Z</time>
      </trkpt>
      <trkpt lat="44.70536" lon="7.08562">
        <ele>2292</ele>
        <time>2022-07-15T07:10:32Z</time>
      </trkpt>
      <trkpt lat="44.70546" lon="7.08554">
        <ele>2295</ele>
        <time>2022-07-15T07:10:48Z</time>
      </trkpt>
      <trkpt lat="44.70549" lon="7.0855">
        <ele>2296</ele>
        <time>2022-07-15T07:10:53Z</time>
      </trkpt>
      <trkpt lat="44.7055" lon="7.08545">
        <ele>2298</ele>
        <time>2022-07-15T07:10:58Z</time>
      </trkpt>
      <trkpt lat="44.70548" lon="7.08525">
        <ele>2300</ele>
        <time>2022-07-15T07:11:15Z</time>
      </trkpt>
      <trkpt lat="44.7055" lon="7.0852">
        <ele>2299</ele>
        <time>2022-07-15T07:11:21Z</time>
      </trkpt>
      <trkpt lat="44.70549" lon="7.08515">
        <ele>2299</ele>
        <time>2022-07-15T07:11:26Z</time>
      </trkpt>
      <trkpt lat="44.70547" lon="7.08494">
        <ele>2301</ele>
        <time>2022-07-15T07:11:50Z</time>
      </trkpt>
      <trkpt lat="44.70548" lon="7.08488">
        <ele>2301</ele>
        <time>2022-07-15T07:11:56Z</time>
      </trkpt>
      <trkpt lat="44.7055" lon="7.08483">
        <ele>2302</ele>
        <time>2022-07-15T07:12:01Z</time>
      </trkpt>
      <trkpt lat="44.70551" lon="7.08479">
        <ele>2302</ele>
        <time>2022-07-15T07:12:06Z</time>
      </trkpt>
      <trkpt lat="44.70553" lon="7.08475">
        <ele>2304</ele>
        <time>2022-07-15T07:12:11Z</time>
      </trkpt>
      <trkpt lat="44.70556" lon="7.08471">
        <ele>2304</ele>
        <time>2022-07-15T07:12:16Z</time>
      </trkpt>
      <trkpt lat="44.70561" lon="7.08458">
        <ele>2302</ele>
        <time>2022-07-15T07:12:32Z</time>
      </trkpt>
      <trkpt lat="44.70564" lon="7.08455">
        <ele>2302</ele>
        <time>2022-07-15T07:12:40Z</time>
      </trkpt>
      <trkpt lat="44.70565" lon="7.0845">
        <ele>2303</ele>
        <time>2022-07-15T07:12:44Z</time>
      </trkpt>
      <trkpt lat="44.70569" lon="7.08448">
        <ele>2303</ele>
        <time>2022-07-15T07:12:49Z</time>
      </trkpt>
      <trkpt lat="44.70572" lon="7.08445">
        <ele>2304</ele>
        <time>2022-07-15T07:12:55Z</time>
      </trkpt>
      <trkpt lat="44.70581" lon="7.08436">
        <ele>2308</ele>
        <time>2022-07-15T07:13:16Z</time>
      </trkpt>
      <trkpt lat="44.70586" lon="7.08428">
        <ele>2309</ele>
        <time>2022-07-15T07:13:28Z</time>
      </trkpt>
      <trkpt lat="44.70592" lon="7.08422">
        <ele>2311</ele>
        <time>2022-07-15T07:13:43Z</time>
      </trkpt>
      <trkpt lat="44.70595" lon="7.08413">
        <ele>2313</ele>
        <time>2022-07-15T07:13:56Z</time>
      </trkpt>
      <trkpt lat="44.70597" lon="7.08409">
        <ele>2313</ele>
        <time>2022-07-15T07:14:03Z</time>
      </trkpt>
      <trkpt lat="44.70596" lon="7.08403">
        <ele>2314</ele>
        <time>2022-07-15T07:14:09Z</time>
      </trkpt>
      <trkpt lat="44.70599" lon="7.08399">
        <ele>2315</ele>
        <time>2022-07-15T07:14:15Z</time>
      </trkpt>
      <trkpt lat="44.70605" lon="7.08402">
        <ele>2318</ele>
        <time>2022-07-15T07:14:26Z</time>
      </trkpt>
      <trkpt lat="44.70606" lon="7.08398">
        <ele>2319</ele>
        <time>2022-07-15T07:14:34Z</time>
      </trkpt>
      <trkpt lat="44.70606" lon="7.08393">
        <ele>2319</ele>
        <time>2022-07-15T07:14:39Z</time>
      </trkpt>
      <trkpt lat="44.70607" lon="7.08387">
        <ele>2320</ele>
        <time>2022-07-15T07:14:46Z</time>
      </trkpt>
      <trkpt lat="44.70611" lon="7.08384">
        <ele>2320</ele>
        <time>2022-07-15T07:14:54Z</time>
      </trkpt>
      <trkpt lat="44.70614" lon="7.08383">
        <ele>2322</ele>
        <time>2022-07-15T07:15:02Z</time>
      </trkpt>
      <trkpt lat="44.70617" lon="7.0838">
        <ele>2322</ele>
        <time>2022-07-15T07:15:08Z</time>
      </trkpt>
      <trkpt lat="44.70619" lon="7.08375">
        <ele>2323</ele>
        <time>2022-07-15T07:15:15Z</time>
      </trkpt>
      <trkpt lat="44.70622" lon="7.08372">
        <ele>2324</ele>
        <time>2022-07-15T07:15:21Z</time>
      </trkpt>
      <trkpt lat="44.70625" lon="7.08369">
        <ele>2325</ele>
        <time>2022-07-15T07:15:27Z</time>
      </trkpt>
      <trkpt lat="44.70631" lon="7.08357">
        <ele>2328</ele>
        <time>2022-07-15T07:15:50Z</time>
      </trkpt>
      <trkpt lat="44.70633" lon="7.08353">
        <ele>2331</ele>
        <time>2022-07-15T07:15:56Z</time>
      </trkpt>
      <trkpt lat="44.70645" lon="7.08337">
        <ele>2334</ele>
        <time>2022-07-15T07:16:17Z</time>
      </trkpt>
      <trkpt lat="44.70651" lon="7.08324">
        <ele>2335</ele>
        <time>2022-07-15T07:16:36Z</time>
      </trkpt>
      <trkpt lat="44.70657" lon="7.08316">
        <ele>2336</ele>
        <time>2022-07-15T07:16:48Z</time>
      </trkpt>
      <trkpt lat="44.70663" lon="7.08336">
        <ele>2343</ele>
        <time>2022-07-15T07:17:13Z</time>
      </trkpt>
      <trkpt lat="44.70667" lon="7.08336">
        <ele>2344</ele>
        <time>2022-07-15T07:17:21Z</time>
      </trkpt>
      <trkpt lat="44.70668" lon="7.08325">
        <ele>2346</ele>
        <time>2022-07-15T07:17:33Z</time>
      </trkpt>
      <trkpt lat="44.70671" lon="7.08321">
        <ele>2346</ele>
        <time>2022-07-15T07:17:38Z</time>
      </trkpt>
      <trkpt lat="44.70674" lon="7.08319">
        <ele>2346</ele>
        <time>2022-07-15T07:17:44Z</time>
      </trkpt>
      <trkpt lat="44.70678" lon="7.08319">
        <ele>2347</ele>
        <time>2022-07-15T07:17:50Z</time>
      </trkpt>
      <trkpt lat="44.70681" lon="7.0832">
        <ele>2348</ele>
        <time>2022-07-15T07:17:56Z</time>
      </trkpt>
      <trkpt lat="44.70692" lon="7.08324">
        <ele>2346</ele>
        <time>2022-07-15T07:18:12Z</time>
      </trkpt>
      <trkpt lat="44.70699" lon="7.0833">
        <ele>2348</ele>
        <time>2022-07-15T07:18:23Z</time>
      </trkpt>
      <trkpt lat="44.70703" lon="7.08331">
        <ele>2347</ele>
        <time>2022-07-15T07:18:29Z</time>
      </trkpt>
      <trkpt lat="44.70706" lon="7.08333">
        <ele>2347</ele>
        <time>2022-07-15T07:18:35Z</time>
      </trkpt>
      <trkpt lat="44.7071" lon="7.08332">
        <ele>2347</ele>
        <time>2022-07-15T07:18:39Z</time>
      </trkpt>
      <trkpt lat="44.70714" lon="7.08334">
        <ele>2349</ele>
        <time>2022-07-15T07:18:45Z</time>
      </trkpt>
      <trkpt lat="44.70718" lon="7.08331">
        <ele>2351</ele>
        <time>2022-07-15T07:18:49Z</time>
      </trkpt>
      <trkpt lat="44.70724" lon="7.08325">
        <ele>2353</ele>
        <time>2022-07-15T07:19:01Z</time>
      </trkpt>
      <trkpt lat="44.70728" lon="7.08324">
        <ele>2354</ele>
        <time>2022-07-15T07:19:07Z</time>
      </trkpt>
      <trkpt lat="44.70731" lon="7.08322">
        <ele>2355</ele>
        <time>2022-07-15T07:19:14Z</time>
      </trkpt>
      <trkpt lat="44.70735" lon="7.08319">
        <ele>2356</ele>
        <time>2022-07-15T07:19:19Z</time>
      </trkpt>
      <trkpt lat="44.70736" lon="7.08315">
        <ele>2357</ele>
        <time>2022-07-15T07:19:24Z</time>
      </trkpt>
      <trkpt lat="44.70737" lon="7.0831">
        <ele>2358</ele>
        <time>2022-07-15T07:19:30Z</time>
      </trkpt>
      <trkpt lat="44.70738" lon="7.08299">
        <ele>2358</ele>
        <time>2022-07-15T07:19:41Z</time>
      </trkpt>
      <trkpt lat="44.70737" lon="7.08294">
        <ele>2358</ele>
        <time>2022-07-15T07:19:45Z</time>
      </trkpt>
      <trkpt lat="44.7074" lon="7.08292">
        <ele>2361</ele>
        <time>2022-07-15T07:19:54Z</time>
      </trkpt>
      <trkpt lat="44.70742" lon="7.08287">
        <ele>2361</ele>
        <time>2022-07-15T07:20:00Z</time>
      </trkpt>
      <trkpt lat="44.70743" lon="7.08283">
        <ele>2362</ele>
        <time>2022-07-15T07:20:05Z</time>
      </trkpt>
      <trkpt lat="44.70741" lon="7.08258">
        <ele>2366</ele>
        <time>2022-07-15T07:20:38Z</time>
      </trkpt>
      <trkpt lat="44.70741" lon="7.08253">
        <ele>2368</ele>
        <time>2022-07-15T07:20:43Z</time>
      </trkpt>
      <trkpt lat="44.70741" lon="7.08251">
        <ele>2369</ele>
        <time>2022-07-15T07:21:00Z</time>
      </trkpt>
      <trkpt lat="44.70741" lon="7.08246">
        <ele>2370</ele>
        <time>2022-07-15T07:21:34Z</time>
      </trkpt>
      <trkpt lat="44.7074" lon="7.08241">
        <ele>2372</ele>
        <time>2022-07-15T07:21:38Z</time>
      </trkpt>
      <trkpt lat="44.70741" lon="7.08236">
        <ele>2372</ele>
        <time>2022-07-15T07:21:42Z</time>
      </trkpt>
      <trkpt lat="44.7074" lon="7.0823">
        <ele>2373</ele>
        <time>2022-07-15T07:21:47Z</time>
      </trkpt>
      <trkpt lat="44.7074" lon="7.08225">
        <ele>2374</ele>
        <time>2022-07-15T07:21:52Z</time>
      </trkpt>
      <trkpt lat="44.7074" lon="7.08209">
        <ele>2377</ele>
        <time>2022-07-15T07:22:07Z</time>
      </trkpt>
      <trkpt lat="44.70742" lon="7.08204">
        <ele>2377</ele>
        <time>2022-07-15T07:22:12Z</time>
      </trkpt>
      <trkpt lat="44.70743" lon="7.08199">
        <ele>2377</ele>
        <time>2022-07-15T07:22:17Z</time>
      </trkpt>
      <trkpt lat="44.70745" lon="7.08195">
        <ele>2378</ele>
        <time>2022-07-15T07:22:22Z</time>
      </trkpt>
      <trkpt lat="44.70747" lon="7.08191">
        <ele>2378</ele>
        <time>2022-07-15T07:22:27Z</time>
      </trkpt>
      <trkpt lat="44.70749" lon="7.08187">
        <ele>2379</ele>
        <time>2022-07-15T07:22:34Z</time>
      </trkpt>
      <trkpt lat="44.7075" lon="7.08177">
        <ele>2379</ele>
        <time>2022-07-15T07:22:45Z</time>
      </trkpt>
      <trkpt lat="44.70752" lon="7.08172">
        <ele>2379</ele>
        <time>2022-07-15T07:22:51Z</time>
      </trkpt>
      <trkpt lat="44.70753" lon="7.08167">
        <ele>2380</ele>
        <time>2022-07-15T07:22:56Z</time>
      </trkpt>
      <trkpt lat="44.70755" lon="7.08163">
        <ele>2381</ele>
        <time>2022-07-15T07:23:00Z</time>
      </trkpt>
      <trkpt lat="44.70757" lon="7.08159">
        <ele>2381</ele>
        <time>2022-07-15T07:23:05Z</time>
      </trkpt>
      <trkpt lat="44.70767" lon="7.08131">
        <ele>2383</ele>
        <time>2022-07-15T07:23:35Z</time>
      </trkpt>
      <trkpt lat="44.7077" lon="7.08121">
        <ele>2385</ele>
        <time>2022-07-15T07:23:47Z</time>
      </trkpt>
      <trkpt lat="44.70771" lon="7.08117">
        <ele>2386</ele>
        <time>2022-07-15T07:23:53Z</time>
      </trkpt>
      <trkpt lat="44.70774" lon="7.08107">
        <ele>2388</ele>
        <time>2022-07-15T07:24:04Z</time>
      </trkpt>
      <trkpt lat="44.70775" lon="7.08102">
        <ele>2389</ele>
        <time>2022-07-15T07:24:09Z</time>
      </trkpt>
      <trkpt lat="44.70776" lon="7.08097">
        <ele>2390</ele>
        <time>2022-07-15T07:24:15Z</time>
      </trkpt>
      <trkpt lat="44.70778" lon="7.08087">
        <ele>2392</ele>
        <time>2022-07-15T07:24:25Z</time>
      </trkpt>
      <trkpt lat="44.70781" lon="7.08073">
        <ele>2394</ele>
        <time>2022-07-15T07:24:41Z</time>
      </trkpt>
      <trkpt lat="44.70789" lon="7.08043">
        <ele>2394</ele>
        <time>2022-07-15T07:25:10Z</time>
      </trkpt>
      <trkpt lat="44.70794" lon="7.08024">
        <ele>2397</ele>
        <time>2022-07-15T07:25:31Z</time>
      </trkpt>
      <trkpt lat="44.70802" lon="7.08014">
        <ele>2398</ele>
        <time>2022-07-15T07:25:47Z</time>
      </trkpt>
      <trkpt lat="44.70801" lon="7.08009">
        <ele>2399</ele>
        <time>2022-07-15T07:25:53Z</time>
      </trkpt>
      <trkpt lat="44.70797" lon="7.08001">
        <ele>2402</ele>
        <time>2022-07-15T07:26:01Z</time>
      </trkpt>
      <trkpt lat="44.70795" lon="7.07997">
        <ele>2403</ele>
        <time>2022-07-15T07:26:06Z</time>
      </trkpt>
      <trkpt lat="44.70794" lon="7.07992">
        <ele>2404</ele>
        <time>2022-07-15T07:26:11Z</time>
      </trkpt>
      <trkpt lat="44.70796" lon="7.07982">
        <ele>2406</ele>
        <time>2022-07-15T07:26:22Z</time>
      </trkpt>
      <trkpt lat="44.70797" lon="7.07971">
        <ele>2409</ele>
        <time>2022-07-15T07:26:33Z</time>
      </trkpt>
      <trkpt lat="44.70795" lon="7.07961">
        <ele>2410</ele>
        <time>2022-07-15T07:26:43Z</time>
      </trkpt>
      <trkpt lat="44.70794" lon="7.07956">
        <ele>2411</ele>
        <time>2022-07-15T07:26:48Z</time>
      </trkpt>
      <trkpt lat="44.70793" lon="7.07951">
        <ele>2411</ele>
        <time>2022-07-15T07:26:53Z</time>
      </trkpt>
      <trkpt lat="44.7079" lon="7.07942">
        <ele>2413</ele>
        <time>2022-07-15T07:27:03Z</time>
      </trkpt>
      <trkpt lat="44.7079" lon="7.07937">
        <ele>2414</ele>
        <time>2022-07-15T07:27:08Z</time>
      </trkpt>
      <trkpt lat="44.70791" lon="7.07932">
        <ele>2414</ele>
        <time>2022-07-15T07:27:14Z</time>
      </trkpt>
      <trkpt lat="44.70795" lon="7.07933">
        <ele>2414</ele>
        <time>2022-07-15T07:27:19Z</time>
      </trkpt>
      <trkpt lat="44.70804" lon="7.07943">
        <ele>2419</ele>
        <time>2022-07-15T07:27:35Z</time>
      </trkpt>
      <trkpt lat="44.70807" lon="7.07944">
        <ele>2419</ele>
        <time>2022-07-15T07:27:41Z</time>
      </trkpt>
      <trkpt lat="44.70811" lon="7.07946">
        <ele>2418</ele>
        <time>2022-07-15T07:27:48Z</time>
      </trkpt>
      <trkpt lat="44.70814" lon="7.07949">
        <ele>2419</ele>
        <time>2022-07-15T07:27:54Z</time>
      </trkpt>
      <trkpt lat="44.70817" lon="7.07951">
        <ele>2420</ele>
        <time>2022-07-15T07:28:00Z</time>
      </trkpt>
      <trkpt lat="44.70821" lon="7.07954">
        <ele>2421</ele>
        <time>2022-07-15T07:28:06Z</time>
      </trkpt>
      <trkpt lat="44.70827" lon="7.0798">
        <ele>2425</ele>
        <time>2022-07-15T07:28:31Z</time>
      </trkpt>
      <trkpt lat="44.70835" lon="7.0799">
        <ele>2425</ele>
        <time>2022-07-15T07:28:45Z</time>
      </trkpt>
      <trkpt lat="44.70843" lon="7.07995">
        <ele>2426</ele>
        <time>2022-07-15T07:28:56Z</time>
      </trkpt>
      <trkpt lat="44.70846" lon="7.07997">
        <ele>2426</ele>
        <time>2022-07-15T07:29:02Z</time>
      </trkpt>
      <trkpt lat="44.70853" lon="7.08001">
        <ele>2425</ele>
        <time>2022-07-15T07:29:12Z</time>
      </trkpt>
      <trkpt lat="44.70856" lon="7.08011">
        <ele>2427</ele>
        <time>2022-07-15T07:29:21Z</time>
      </trkpt>
      <trkpt lat="44.70855" lon="7.08016">
        <ele>2427</ele>
        <time>2022-07-15T07:29:25Z</time>
      </trkpt>
      <trkpt lat="44.70855" lon="7.08021">
        <ele>2428</ele>
        <time>2022-07-15T07:29:30Z</time>
      </trkpt>
      <trkpt lat="44.70854" lon="7.08027">
        <ele>2428</ele>
        <time>2022-07-15T07:29:35Z</time>
      </trkpt>
      <trkpt lat="44.70852" lon="7.08031">
        <ele>2429</ele>
        <time>2022-07-15T07:29:39Z</time>
      </trkpt>
      <trkpt lat="44.70849" lon="7.08033">
        <ele>2430</ele>
        <time>2022-07-15T07:29:44Z</time>
      </trkpt>
      <trkpt lat="44.70846" lon="7.08036">
        <ele>2430</ele>
        <time>2022-07-15T07:29:48Z</time>
      </trkpt>
      <trkpt lat="44.70842" lon="7.08051">
        <ele>2436</ele>
        <time>2022-07-15T07:30:03Z</time>
      </trkpt>
      <trkpt lat="44.70843" lon="7.08061">
        <ele>2437</ele>
        <time>2022-07-15T07:30:13Z</time>
      </trkpt>
      <trkpt lat="44.70846" lon="7.08071">
        <ele>2439</ele>
        <time>2022-07-15T07:30:23Z</time>
      </trkpt>
      <trkpt lat="44.7085" lon="7.08073">
        <ele>2441</ele>
        <time>2022-07-15T07:30:28Z</time>
      </trkpt>
      <trkpt lat="44.70853" lon="7.08074">
        <ele>2441</ele>
        <time>2022-07-15T07:30:33Z</time>
      </trkpt>
      <trkpt lat="44.70856" lon="7.0807">
        <ele>2441</ele>
        <time>2022-07-15T07:30:40Z</time>
      </trkpt>
      <trkpt lat="44.70859" lon="7.08068">
        <ele>2440</ele>
        <time>2022-07-15T07:30:44Z</time>
      </trkpt>
      <trkpt lat="44.70863" lon="7.08067">
        <ele>2440</ele>
        <time>2022-07-15T07:30:49Z</time>
      </trkpt>
      <trkpt lat="44.7087" lon="7.0807">
        <ele>2439</ele>
        <time>2022-07-15T07:31:00Z</time>
      </trkpt>
      <trkpt lat="44.70891" lon="7.08082">
        <ele>2444</ele>
        <time>2022-07-15T07:31:31Z</time>
      </trkpt>
      <trkpt lat="44.70894" lon="7.08084">
        <ele>2444</ele>
        <time>2022-07-15T07:31:36Z</time>
      </trkpt>
      <trkpt lat="44.70905" lon="7.0809">
        <ele>2448</ele>
        <time>2022-07-15T07:31:51Z</time>
      </trkpt>
      <trkpt lat="44.70913" lon="7.08091">
        <ele>2448</ele>
        <time>2022-07-15T07:32:01Z</time>
      </trkpt>
      <trkpt lat="44.70917" lon="7.08091">
        <ele>2450</ele>
        <time>2022-07-15T07:32:07Z</time>
      </trkpt>
      <trkpt lat="44.70924" lon="7.08089">
        <ele>2451</ele>
        <time>2022-07-15T07:32:17Z</time>
      </trkpt>
      <trkpt lat="44.70928" lon="7.08089">
        <ele>2452</ele>
        <time>2022-07-15T07:32:23Z</time>
      </trkpt>
      <trkpt lat="44.70935" lon="7.08089">
        <ele>2454</ele>
        <time>2022-07-15T07:32:35Z</time>
      </trkpt>
      <trkpt lat="44.70939" lon="7.0809">
        <ele>2456</ele>
        <time>2022-07-15T07:32:41Z</time>
      </trkpt>
      <trkpt lat="44.70943" lon="7.08092">
        <ele>2456</ele>
        <time>2022-07-15T07:32:47Z</time>
      </trkpt>
      <trkpt lat="44.70946" lon="7.08095">
        <ele>2459</ele>
        <time>2022-07-15T07:32:52Z</time>
      </trkpt>
      <trkpt lat="44.70948" lon="7.0809">
        <ele>2459</ele>
        <time>2022-07-15T07:33:14Z</time>
      </trkpt>
      <trkpt lat="44.70947" lon="7.08085">
        <ele>2458</ele>
        <time>2022-07-15T07:33:18Z</time>
      </trkpt>
      <trkpt lat="44.70946" lon="7.08079">
        <ele>2458</ele>
        <time>2022-07-15T07:33:23Z</time>
      </trkpt>
      <trkpt lat="44.70943" lon="7.0807">
        <ele>2459</ele>
        <time>2022-07-15T07:33:31Z</time>
      </trkpt>
      <trkpt lat="44.70942" lon="7.08064">
        <ele>2461</ele>
        <time>2022-07-15T07:33:36Z</time>
      </trkpt>
      <trkpt lat="44.70941" lon="7.08059">
        <ele>2462</ele>
        <time>2022-07-15T07:33:40Z</time>
      </trkpt>
      <trkpt lat="44.70941" lon="7.08054">
        <ele>2463</ele>
        <time>2022-07-15T07:33:44Z</time>
      </trkpt>
      <trkpt lat="44.70942" lon="7.08033">
        <ele>2468</ele>
        <time>2022-07-15T07:34:01Z</time>
      </trkpt>
      <trkpt lat="44.70942" lon="7.08028">
        <ele>2468</ele>
        <time>2022-07-15T07:34:05Z</time>
      </trkpt>
      <trkpt lat="44.70944" lon="7.08012">
        <ele>2469</ele>
        <time>2022-07-15T07:34:17Z</time>
      </trkpt>
      <trkpt lat="44.70942" lon="7.07991">
        <ele>2471</ele>
        <time>2022-07-15T07:34:35Z</time>
      </trkpt>
      <trkpt lat="44.70941" lon="7.07986">
        <ele>2472</ele>
        <time>2022-07-15T07:34:40Z</time>
      </trkpt>
      <trkpt lat="44.70938" lon="7.07976">
        <ele>2474</ele>
        <time>2022-07-15T07:34:52Z</time>
      </trkpt>
      <trkpt lat="44.70936" lon="7.07971">
        <ele>2475</ele>
        <time>2022-07-15T07:34:58Z</time>
      </trkpt>
      <trkpt lat="44.70935" lon="7.07967">
        <ele>2476</ele>
        <time>2022-07-15T07:35:04Z</time>
      </trkpt>
      <trkpt lat="44.70933" lon="7.07962">
        <ele>2476</ele>
        <time>2022-07-15T07:35:10Z</time>
      </trkpt>
      <trkpt lat="44.70932" lon="7.07957">
        <ele>2478</ele>
        <time>2022-07-15T07:35:17Z</time>
      </trkpt>
      <trkpt lat="44.70933" lon="7.07951">
        <ele>2478</ele>
        <time>2022-07-15T07:35:23Z</time>
      </trkpt>
      <trkpt lat="44.70934" lon="7.07946">
        <ele>2479</ele>
        <time>2022-07-15T07:35:28Z</time>
      </trkpt>
      <trkpt lat="44.70933" lon="7.07941">
        <ele>2479</ele>
        <time>2022-07-15T07:35:33Z</time>
      </trkpt>
      <trkpt lat="44.70934" lon="7.07926">
        <ele>2482</ele>
        <time>2022-07-15T07:35:48Z</time>
      </trkpt>
      <trkpt lat="44.70934" lon="7.0792">
        <ele>2483</ele>
        <time>2022-07-15T07:35:54Z</time>
      </trkpt>
      <trkpt lat="44.70936" lon="7.07916">
        <ele>2485</ele>
        <time>2022-07-15T07:35:59Z</time>
      </trkpt>
      <trkpt lat="44.70938" lon="7.07911">
        <ele>2486</ele>
        <time>2022-07-15T07:36:04Z</time>
      </trkpt>
      <trkpt lat="44.70939" lon="7.07906">
        <ele>2488</ele>
        <time>2022-07-15T07:36:09Z</time>
      </trkpt>
      <trkpt lat="44.70941" lon="7.07901">
        <ele>2488</ele>
        <time>2022-07-15T07:36:14Z</time>
      </trkpt>
      <trkpt lat="44.70943" lon="7.07897">
        <ele>2489</ele>
        <time>2022-07-15T07:36:20Z</time>
      </trkpt>
      <trkpt lat="44.70946" lon="7.07892">
        <ele>2489</ele>
        <time>2022-07-15T07:36:26Z</time>
      </trkpt>
      <trkpt lat="44.70947" lon="7.07888">
        <ele>2489</ele>
        <time>2022-07-15T07:36:32Z</time>
      </trkpt>
      <trkpt lat="44.7095" lon="7.07883">
        <ele>2489</ele>
        <time>2022-07-15T07:36:38Z</time>
      </trkpt>
      <trkpt lat="44.7095" lon="7.07878">
        <ele>2490</ele>
        <time>2022-07-15T07:36:43Z</time>
      </trkpt>
      <trkpt lat="44.70948" lon="7.07874">
        <ele>2492</ele>
        <time>2022-07-15T07:36:50Z</time>
      </trkpt>
      <trkpt lat="44.70943" lon="7.0786">
        <ele>2491</ele>
        <time>2022-07-15T07:37:06Z</time>
      </trkpt>
      <trkpt lat="44.70944" lon="7.07854">
        <ele>2491</ele>
        <time>2022-07-15T07:37:11Z</time>
      </trkpt>
      <trkpt lat="44.70947" lon="7.07854">
        <ele>2490</ele>
        <time>2022-07-15T07:37:27Z</time>
      </trkpt>
      <trkpt lat="44.70956" lon="7.07851">
        <ele>2492</ele>
        <time>2022-07-15T07:37:36Z</time>
      </trkpt>
      <trkpt lat="44.70959" lon="7.07852">
        <ele>2494</ele>
        <time>2022-07-15T07:37:42Z</time>
      </trkpt>
      <trkpt lat="44.70963" lon="7.07855">
        <ele>2494</ele>
        <time>2022-07-15T07:37:48Z</time>
      </trkpt>
      <trkpt lat="44.70971" lon="7.07856">
        <ele>2496</ele>
        <time>2022-07-15T07:37:59Z</time>
      </trkpt>
      <trkpt lat="44.70974" lon="7.07854">
        <ele>2497</ele>
        <time>2022-07-15T07:38:04Z</time>
      </trkpt>
      <trkpt lat="44.70978" lon="7.07852">
        <ele>2498</ele>
        <time>2022-07-15T07:38:11Z</time>
      </trkpt>
      <trkpt lat="44.70975" lon="7.07848">
        <ele>2498</ele>
        <time>2022-07-15T07:38:15Z</time>
      </trkpt>
      <trkpt lat="44.70969" lon="7.07843">
        <ele>2499</ele>
        <time>2022-07-15T07:38:30Z</time>
      </trkpt>
      <trkpt lat="44.70968" lon="7.07838">
        <ele>2499</ele>
        <time>2022-07-15T07:38:35Z</time>
      </trkpt>
      <trkpt lat="44.70972" lon="7.07836">
        <ele>2500</ele>
        <time>2022-07-15T07:38:42Z</time>
      </trkpt>
      <trkpt lat="44.70975" lon="7.07835">
        <ele>2501</ele>
        <time>2022-07-15T07:38:47Z</time>
      </trkpt>
      <trkpt lat="44.7098" lon="7.07836">
        <ele>2502</ele>
        <time>2022-07-15T07:38:52Z</time>
      </trkpt>
      <trkpt lat="44.70983" lon="7.07838">
        <ele>2504</ele>
        <time>2022-07-15T07:38:57Z</time>
      </trkpt>
      <trkpt lat="44.70986" lon="7.07842">
        <ele>2506</ele>
        <time>2022-07-15T07:39:02Z</time>
      </trkpt>
      <trkpt lat="44.7099" lon="7.07841">
        <ele>2507</ele>
        <time>2022-07-15T07:39:07Z</time>
      </trkpt>
      <trkpt lat="44.70991" lon="7.07836">
        <ele>2507</ele>
        <time>2022-07-15T07:39:12Z</time>
      </trkpt>
      <trkpt lat="44.70992" lon="7.0783">
        <ele>2505</ele>
        <time>2022-07-15T07:39:15Z</time>
      </trkpt>
      <trkpt lat="44.70996" lon="7.07831">
        <ele>2504</ele>
        <time>2022-07-15T07:39:52Z</time>
      </trkpt>
      <trkpt lat="44.71004" lon="7.07831">
        <ele>2504</ele>
        <time>2022-07-15T07:40:01Z</time>
      </trkpt>
      <trkpt lat="44.71008" lon="7.07831">
        <ele>2505</ele>
        <time>2022-07-15T07:40:07Z</time>
      </trkpt>
      <trkpt lat="44.71011" lon="7.07829">
        <ele>2506</ele>
        <time>2022-07-15T07:40:12Z</time>
      </trkpt>
      <trkpt lat="44.7102" lon="7.07831">
        <ele>2506</ele>
        <time>2022-07-15T07:40:21Z</time>
      </trkpt>
      <trkpt lat="44.71023" lon="7.07832">
        <ele>2507</ele>
        <time>2022-07-15T07:40:25Z</time>
      </trkpt>
      <trkpt lat="44.71028" lon="7.07833">
        <ele>2507</ele>
        <time>2022-07-15T07:40:30Z</time>
      </trkpt>
      <trkpt lat="44.7103" lon="7.07836">
        <ele>2508</ele>
        <time>2022-07-15T07:40:35Z</time>
      </trkpt>
      <trkpt lat="44.71037" lon="7.0784">
        <ele>2508</ele>
        <time>2022-07-15T07:40:44Z</time>
      </trkpt>
      <trkpt lat="44.71041" lon="7.07841">
        <ele>2508</ele>
        <time>2022-07-15T07:40:48Z</time>
      </trkpt>
      <trkpt lat="44.71045" lon="7.07842">
        <ele>2509</ele>
        <time>2022-07-15T07:40:53Z</time>
      </trkpt>
      <trkpt lat="44.71049" lon="7.07845">
        <ele>2509</ele>
        <time>2022-07-15T07:40:58Z</time>
      </trkpt>
      <trkpt lat="44.71053" lon="7.07847">
        <ele>2510</ele>
        <time>2022-07-15T07:41:03Z</time>
      </trkpt>
      <trkpt lat="44.71076" lon="7.07874">
        <ele>2511</ele>
        <time>2022-07-15T07:41:34Z</time>
      </trkpt>
      <trkpt lat="44.71092" lon="7.07891">
        <ele>2511</ele>
        <time>2022-07-15T07:41:56Z</time>
      </trkpt>
      <trkpt lat="44.71095" lon="7.07894">
        <ele>2510</ele>
        <time>2022-07-15T07:42:01Z</time>
      </trkpt>
      <trkpt lat="44.71096" lon="7.07922">
        <ele>2515</ele>
        <time>2022-07-15T07:42:49Z</time>
      </trkpt>
      <trkpt lat="44.71097" lon="7.07927">
        <ele>2516</ele>
        <time>2022-07-15T07:42:55Z</time>
      </trkpt>
      <trkpt lat="44.71094" lon="7.07943">
        <ele>2522</ele>
        <time>2022-07-15T07:43:10Z</time>
      </trkpt>
      <trkpt lat="44.71094" lon="7.07954">
        <ele>2525</ele>
        <time>2022-07-15T07:43:20Z</time>
      </trkpt>
      <trkpt lat="44.71098" lon="7.07955">
        <ele>2526</ele>
        <time>2022-07-15T07:43:28Z</time>
      </trkpt>
      <trkpt lat="44.71101" lon="7.07953">
        <ele>2525</ele>
        <time>2022-07-15T07:43:33Z</time>
      </trkpt>
      <trkpt lat="44.71105" lon="7.07951">
        <ele>2525</ele>
        <time>2022-07-15T07:43:40Z</time>
      </trkpt>
      <trkpt lat="44.71109" lon="7.0795">
        <ele>2526</ele>
        <time>2022-07-15T07:43:46Z</time>
      </trkpt>
      <trkpt lat="44.71118" lon="7.07942">
        <ele>2529</ele>
        <time>2022-07-15T07:44:04Z</time>
      </trkpt>
      <trkpt lat="44.71121" lon="7.07939">
        <ele>2530</ele>
        <time>2022-07-15T07:44:10Z</time>
      </trkpt>
      <trkpt lat="44.71129" lon="7.07938">
        <ele>2532</ele>
        <time>2022-07-15T07:44:22Z</time>
      </trkpt>
      <trkpt lat="44.71137" lon="7.07937">
        <ele>2533</ele>
        <time>2022-07-15T07:44:33Z</time>
      </trkpt>
      <trkpt lat="44.71143" lon="7.07941">
        <ele>2534</ele>
        <time>2022-07-15T07:44:44Z</time>
      </trkpt>
      <trkpt lat="44.71146" lon="7.07944">
        <ele>2534</ele>
        <time>2022-07-15T07:44:50Z</time>
      </trkpt>
      <trkpt lat="44.7115" lon="7.07945">
        <ele>2534</ele>
        <time>2022-07-15T07:44:55Z</time>
      </trkpt>
      <trkpt lat="44.7116" lon="7.07954">
        <ele>2536</ele>
        <time>2022-07-15T07:45:14Z</time>
      </trkpt>
      <trkpt lat="44.71163" lon="7.07956">
        <ele>2537</ele>
        <time>2022-07-15T07:45:19Z</time>
      </trkpt>
      <trkpt lat="44.71166" lon="7.0796">
        <ele>2537</ele>
        <time>2022-07-15T07:45:24Z</time>
      </trkpt>
      <trkpt lat="44.71169" lon="7.07963">
        <ele>2538</ele>
        <time>2022-07-15T07:45:29Z</time>
      </trkpt>
      <trkpt lat="44.71176" lon="7.07966">
        <ele>2539</ele>
        <time>2022-07-15T07:45:40Z</time>
      </trkpt>
      <trkpt lat="44.71179" lon="7.0797">
        <ele>2540</ele>
        <time>2022-07-15T07:45:45Z</time>
      </trkpt>
      <trkpt lat="44.71183" lon="7.0797">
        <ele>2541</ele>
        <time>2022-07-15T07:45:50Z</time>
      </trkpt>
      <trkpt lat="44.71187" lon="7.07969">
        <ele>2541</ele>
        <time>2022-07-15T07:45:56Z</time>
      </trkpt>
      <trkpt lat="44.71191" lon="7.07967">
        <ele>2541</ele>
        <time>2022-07-15T07:46:02Z</time>
      </trkpt>
      <trkpt lat="44.71193" lon="7.07964">
        <ele>2542</ele>
        <time>2022-07-15T07:46:07Z</time>
      </trkpt>
      <trkpt lat="44.71197" lon="7.07963">
        <ele>2543</ele>
        <time>2022-07-15T07:46:13Z</time>
      </trkpt>
      <trkpt lat="44.71204" lon="7.07962">
        <ele>2543</ele>
        <time>2022-07-15T07:46:24Z</time>
      </trkpt>
      <trkpt lat="44.71208" lon="7.0796">
        <ele>2543</ele>
        <time>2022-07-15T07:46:31Z</time>
      </trkpt>
      <trkpt lat="44.71214" lon="7.07956">
        <ele>2544</ele>
        <time>2022-07-15T07:46:42Z</time>
      </trkpt>
      <trkpt lat="44.71218" lon="7.07955">
        <ele>2544</ele>
        <time>2022-07-15T07:46:47Z</time>
      </trkpt>
      <trkpt lat="44.71222" lon="7.07954">
        <ele>2547</ele>
        <time>2022-07-15T07:46:57Z</time>
      </trkpt>
      <trkpt lat="44.7124" lon="7.07959">
        <ele>2553</ele>
        <time>2022-07-15T07:47:29Z</time>
      </trkpt>
      <trkpt lat="44.71243" lon="7.07962">
        <ele>2553</ele>
        <time>2022-07-15T07:47:36Z</time>
      </trkpt>
      <trkpt lat="44.71249" lon="7.07967">
        <ele>2557</ele>
        <time>2022-07-15T07:47:52Z</time>
      </trkpt>
      <trkpt lat="44.71252" lon="7.07971">
        <ele>2559</ele>
        <time>2022-07-15T07:48:00Z</time>
      </trkpt>
      <trkpt lat="44.71255" lon="7.07975">
        <ele>2560</ele>
        <time>2022-07-15T07:48:08Z</time>
      </trkpt>
      <trkpt lat="44.71257" lon="7.07979">
        <ele>2563</ele>
        <time>2022-07-15T07:48:17Z</time>
      </trkpt>
      <trkpt lat="44.71258" lon="7.0799">
        <ele>2564</ele>
        <time>2022-07-15T07:48:47Z</time>
      </trkpt>
      <trkpt lat="44.71255" lon="7.07989">
        <ele>2564</ele>
        <time>2022-07-15T07:48:52Z</time>
      </trkpt>
      <trkpt lat="44.71254" lon="7.07984">
        <ele>2565</ele>
        <time>2022-07-15T07:49:33Z</time>
      </trkpt>
      <trkpt lat="44.71258" lon="7.07983">
        <ele>2566</ele>
        <time>2022-07-15T07:49:54Z</time>
      </trkpt>
      <trkpt lat="44.71261" lon="7.07987">
        <ele>2567</ele>
        <time>2022-07-15T07:52:31Z</time>
      </trkpt>
      <trkpt lat="44.71269" lon="7.07997">
        <ele>2567</ele>
        <time>2022-07-15T07:52:48Z</time>
      </trkpt>
      <trkpt lat="44.71277" lon="7.0801">
        <ele>2571</ele>
        <time>2022-07-15T07:53:19Z</time>
      </trkpt>
      <trkpt lat="44.71278" lon="7.08015">
        <ele>2572</ele>
        <time>2022-07-15T07:53:24Z</time>
      </trkpt>
      <trkpt lat="44.7128" lon="7.08019">
        <ele>2573</ele>
        <time>2022-07-15T07:53:29Z</time>
      </trkpt>
      <trkpt lat="44.71284" lon="7.08027">
        <ele>2574</ele>
        <time>2022-07-15T07:53:40Z</time>
      </trkpt>
      <trkpt lat="44.71287" lon="7.08031">
        <ele>2576</ele>
        <time>2022-07-15T07:53:47Z</time>
      </trkpt>
      <trkpt lat="44.71291" lon="7.08031">
        <ele>2577</ele>
        <time>2022-07-15T07:53:57Z</time>
      </trkpt>
      <trkpt lat="44.71293" lon="7.08028">
        <ele>2578</ele>
        <time>2022-07-15T07:54:03Z</time>
      </trkpt>
      <trkpt lat="44.71296" lon="7.08025">
        <ele>2579</ele>
        <time>2022-07-15T07:54:10Z</time>
      </trkpt>
      <trkpt lat="44.71299" lon="7.08023">
        <ele>2580</ele>
        <time>2022-07-15T07:54:16Z</time>
      </trkpt>
      <trkpt lat="44.71306" lon="7.08018">
        <ele>2582</ele>
        <time>2022-07-15T07:54:28Z</time>
      </trkpt>
      <trkpt lat="44.71317" lon="7.08013">
        <ele>2584</ele>
        <time>2022-07-15T07:54:46Z</time>
      </trkpt>
      <trkpt lat="44.71321" lon="7.08014">
        <ele>2585</ele>
        <time>2022-07-15T07:54:52Z</time>
      </trkpt>
      <trkpt lat="44.7132" lon="7.08019">
        <ele>2586</ele>
        <time>2022-07-15T07:54:58Z</time>
      </trkpt>
      <trkpt lat="44.71317" lon="7.08023">
        <ele>2588</ele>
        <time>2022-07-15T07:55:04Z</time>
      </trkpt>
      <trkpt lat="44.71316" lon="7.08028">
        <ele>2589</ele>
        <time>2022-07-15T07:55:11Z</time>
      </trkpt>
      <trkpt lat="44.71316" lon="7.08033">
        <ele>2590</ele>
        <time>2022-07-15T07:55:18Z</time>
      </trkpt>
      <trkpt lat="44.71318" lon="7.08043">
        <ele>2592</ele>
        <time>2022-07-15T07:55:30Z</time>
      </trkpt>
      <trkpt lat="44.71319" lon="7.08048">
        <ele>2593</ele>
        <time>2022-07-15T07:55:36Z</time>
      </trkpt>
      <trkpt lat="44.71322" lon="7.08045">
        <ele>2593</ele>
        <time>2022-07-15T07:55:48Z</time>
      </trkpt>
      <trkpt lat="44.71323" lon="7.0804">
        <ele>2593</ele>
        <time>2022-07-15T07:55:55Z</time>
      </trkpt>
      <trkpt lat="44.71325" lon="7.08036">
        <ele>2595</ele>
        <time>2022-07-15T07:56:01Z</time>
      </trkpt>
      <trkpt lat="44.71328" lon="7.08038">
        <ele>2596</ele>
        <time>2022-07-15T07:56:06Z</time>
      </trkpt>
      <trkpt lat="44.71331" lon="7.08041">
        <ele>2596</ele>
        <time>2022-07-15T07:56:11Z</time>
      </trkpt>
      <trkpt lat="44.71335" lon="7.08042">
        <ele>2596</ele>
        <time>2022-07-15T07:56:15Z</time>
      </trkpt>
      <trkpt lat="44.71338" lon="7.08046">
        <ele>2597</ele>
        <time>2022-07-15T07:56:20Z</time>
      </trkpt>
      <trkpt lat="44.7135" lon="7.08047">
        <ele>2595</ele>
        <time>2022-07-15T07:56:34Z</time>
      </trkpt>
      <trkpt lat="44.71352" lon="7.08051">
        <ele>2595</ele>
        <time>2022-07-15T07:56:38Z</time>
      </trkpt>
      <trkpt lat="44.71353" lon="7.08055">
        <ele>2599</ele>
        <time>2022-07-15T07:57:29Z</time>
      </trkpt>
      <trkpt lat="44.71357" lon="7.08054">
        <ele>2600</ele>
        <time>2022-07-15T07:57:42Z</time>
      </trkpt>
      <trkpt lat="44.7136" lon="7.08051">
        <ele>2600</ele>
        <time>2022-07-15T07:57:46Z</time>
      </trkpt>
      <trkpt lat="44.71367" lon="7.08054">
        <ele>2600</ele>
        <time>2022-07-15T07:57:57Z</time>
      </trkpt>
      <trkpt lat="44.71372" lon="7.08062">
        <ele>2603</ele>
        <time>2022-07-15T07:58:09Z</time>
      </trkpt>
      <trkpt lat="44.71375" lon="7.08065">
        <ele>2605</ele>
        <time>2022-07-15T07:58:16Z</time>
      </trkpt>
      <trkpt lat="44.71378" lon="7.08068">
        <ele>2605</ele>
        <time>2022-07-15T07:58:23Z</time>
      </trkpt>
      <trkpt lat="44.71381" lon="7.08064">
        <ele>2607</ele>
        <time>2022-07-15T07:58:30Z</time>
      </trkpt>
      <trkpt lat="44.71382" lon="7.08059">
        <ele>2608</ele>
        <time>2022-07-15T07:58:36Z</time>
      </trkpt>
      <trkpt lat="44.71389" lon="7.08041">
        <ele>2610</ele>
        <time>2022-07-15T07:58:54Z</time>
      </trkpt>
      <trkpt lat="44.71396" lon="7.08036">
        <ele>2611</ele>
        <time>2022-07-15T07:59:06Z</time>
      </trkpt>
      <trkpt lat="44.714" lon="7.08037">
        <ele>2612</ele>
        <time>2022-07-15T07:59:11Z</time>
      </trkpt>
      <trkpt lat="44.71403" lon="7.08042">
        <ele>2612</ele>
        <time>2022-07-15T07:59:16Z</time>
      </trkpt>
      <trkpt lat="44.71411" lon="7.08053">
        <ele>2611</ele>
        <time>2022-07-15T07:59:29Z</time>
      </trkpt>
      <trkpt lat="44.71422" lon="7.08066">
        <ele>2612</ele>
        <time>2022-07-15T07:59:49Z</time>
      </trkpt>
      <trkpt lat="44.71426" lon="7.08066">
        <ele>2613</ele>
        <time>2022-07-15T07:59:55Z</time>
      </trkpt>
      <trkpt lat="44.7143" lon="7.08067">
        <ele>2614</ele>
        <time>2022-07-15T08:00:01Z</time>
      </trkpt>
      <trkpt lat="44.71433" lon="7.0807">
        <ele>2615</ele>
        <time>2022-07-15T08:00:07Z</time>
      </trkpt>
      <trkpt lat="44.71433" lon="7.08081">
        <ele>2617</ele>
        <time>2022-07-15T08:00:17Z</time>
      </trkpt>
      <trkpt lat="44.7143" lon="7.08091">
        <ele>2620</ele>
        <time>2022-07-15T08:00:28Z</time>
      </trkpt>
      <trkpt lat="44.71431" lon="7.08097">
        <ele>2621</ele>
        <time>2022-07-15T08:00:33Z</time>
      </trkpt>
      <trkpt lat="44.71434" lon="7.08111">
        <ele>2624</ele>
        <time>2022-07-15T08:00:48Z</time>
      </trkpt>
      <trkpt lat="44.71438" lon="7.08111">
        <ele>2624</ele>
        <time>2022-07-15T08:00:54Z</time>
      </trkpt>
      <trkpt lat="44.71441" lon="7.0811">
        <ele>2624</ele>
        <time>2022-07-15T08:01:00Z</time>
      </trkpt>
      <trkpt lat="44.71445" lon="7.08107">
        <ele>2624</ele>
        <time>2022-07-15T08:01:07Z</time>
      </trkpt>
      <trkpt lat="44.71449" lon="7.08092">
        <ele>2626</ele>
        <time>2022-07-15T08:01:41Z</time>
      </trkpt>
      <trkpt lat="44.71452" lon="7.08089">
        <ele>2627</ele>
        <time>2022-07-15T08:01:47Z</time>
      </trkpt>
      <trkpt lat="44.71454" lon="7.08084">
        <ele>2629</ele>
        <time>2022-07-15T08:01:53Z</time>
      </trkpt>
      <trkpt lat="44.71456" lon="7.0808">
        <ele>2630</ele>
        <time>2022-07-15T08:01:59Z</time>
      </trkpt>
      <trkpt lat="44.71461" lon="7.08089">
        <ele>2634</ele>
        <time>2022-07-15T08:02:09Z</time>
      </trkpt>
      <trkpt lat="44.71461" lon="7.08094">
        <ele>2634</ele>
        <time>2022-07-15T08:02:14Z</time>
      </trkpt>
      <trkpt lat="44.71462" lon="7.08099">
        <ele>2634</ele>
        <time>2022-07-15T08:02:19Z</time>
      </trkpt>
      <trkpt lat="44.71476" lon="7.08116">
        <ele>2633</ele>
        <time>2022-07-15T08:02:40Z</time>
      </trkpt>
      <trkpt lat="44.71482" lon="7.08124">
        <ele>2633</ele>
        <time>2022-07-15T08:02:49Z</time>
      </trkpt>
      <trkpt lat="44.71487" lon="7.08132">
        <ele>2633</ele>
        <time>2022-07-15T08:02:59Z</time>
      </trkpt>
      <trkpt lat="44.71489" lon="7.08137">
        <ele>2634</ele>
        <time>2022-07-15T08:03:04Z</time>
      </trkpt>
      <trkpt lat="44.71497" lon="7.08166">
        <ele>2643</ele>
        <time>2022-07-15T08:03:34Z</time>
      </trkpt>
      <trkpt lat="44.71502" lon="7.08174">
        <ele>2643</ele>
        <time>2022-07-15T08:03:42Z</time>
      </trkpt>
      <trkpt lat="44.71504" lon="7.08178">
        <ele>2644</ele>
        <time>2022-07-15T08:03:46Z</time>
      </trkpt>
      <trkpt lat="44.71507" lon="7.08187">
        <ele>2644</ele>
        <time>2022-07-15T08:03:56Z</time>
      </trkpt>
      <trkpt lat="44.71508" lon="7.08192">
        <ele>2644</ele>
        <time>2022-07-15T08:04:01Z</time>
      </trkpt>
      <trkpt lat="44.71509" lon="7.08202">
        <ele>2646</ele>
        <time>2022-07-15T08:04:11Z</time>
      </trkpt>
      <trkpt lat="44.71511" lon="7.08208">
        <ele>2647</ele>
        <time>2022-07-15T08:04:16Z</time>
      </trkpt>
      <trkpt lat="44.71514" lon="7.08212">
        <ele>2648</ele>
        <time>2022-07-15T08:04:21Z</time>
      </trkpt>
      <trkpt lat="44.71514" lon="7.08218">
        <ele>2650</ele>
        <time>2022-07-15T08:04:27Z</time>
      </trkpt>
      <trkpt lat="44.71514" lon="7.08241">
        <ele>2656</ele>
        <time>2022-07-15T08:04:45Z</time>
      </trkpt>
      <trkpt lat="44.71514" lon="7.08246">
        <ele>2657</ele>
        <time>2022-07-15T08:04:50Z</time>
      </trkpt>
      <trkpt lat="44.71516" lon="7.0825">
        <ele>2659</ele>
        <time>2022-07-15T08:04:55Z</time>
      </trkpt>
      <trkpt lat="44.71516" lon="7.08256">
        <ele>2660</ele>
        <time>2022-07-15T08:05:01Z</time>
      </trkpt>
      <trkpt lat="44.71514" lon="7.0826">
        <ele>2661</ele>
        <time>2022-07-15T08:05:40Z</time>
      </trkpt>
      <trkpt lat="44.71512" lon="7.08264">
        <ele>2661</ele>
        <time>2022-07-15T08:05:47Z</time>
      </trkpt>
      <trkpt lat="44.71511" lon="7.08269">
        <ele>2661</ele>
        <time>2022-07-15T08:05:52Z</time>
      </trkpt>
      <trkpt lat="44.71513" lon="7.08272">
        <ele>2661</ele>
        <time>2022-07-15T08:06:04Z</time>
      </trkpt>
      <trkpt lat="44.7151" lon="7.08275">
        <ele>2661</ele>
        <time>2022-07-15T08:09:27Z</time>
      </trkpt>
      <trkpt lat="44.71512" lon="7.0828">
        <ele>2661</ele>
        <time>2022-07-15T08:09:36Z</time>
      </trkpt>
      <trkpt lat="44.71519" lon="7.08286">
        <ele>2660</ele>
        <time>2022-07-15T08:09:47Z</time>
      </trkpt>
      <trkpt lat="44.71522" lon="7.08301">
        <ele>2660</ele>
        <time>2022-07-15T08:10:04Z</time>
      </trkpt>
      <trkpt lat="44.71525" lon="7.08305">
        <ele>2661</ele>
        <time>2022-07-15T08:10:09Z</time>
      </trkpt>
      <trkpt lat="44.71526" lon="7.0831">
        <ele>2661</ele>
        <time>2022-07-15T08:10:15Z</time>
      </trkpt>
      <trkpt lat="44.71527" lon="7.08316">
        <ele>2661</ele>
        <time>2022-07-15T08:10:21Z</time>
      </trkpt>
      <trkpt lat="44.71529" lon="7.0832">
        <ele>2662</ele>
        <time>2022-07-15T08:10:27Z</time>
      </trkpt>
      <trkpt lat="44.7153" lon="7.08325">
        <ele>2663</ele>
        <time>2022-07-15T08:10:32Z</time>
      </trkpt>
      <trkpt lat="44.71531" lon="7.08331">
        <ele>2663</ele>
        <time>2022-07-15T08:10:38Z</time>
      </trkpt>
      <trkpt lat="44.71533" lon="7.08335">
        <ele>2664</ele>
        <time>2022-07-15T08:10:43Z</time>
      </trkpt>
      <trkpt lat="44.71535" lon="7.0834">
        <ele>2666</ele>
        <time>2022-07-15T08:10:50Z</time>
      </trkpt>
      <trkpt lat="44.71536" lon="7.08345">
        <ele>2668</ele>
        <time>2022-07-15T08:10:57Z</time>
      </trkpt>
      <trkpt lat="44.71535" lon="7.08355">
        <ele>2670</ele>
        <time>2022-07-15T08:11:08Z</time>
      </trkpt>
      <trkpt lat="44.71539" lon="7.08368">
        <ele>2674</ele>
        <time>2022-07-15T08:11:26Z</time>
      </trkpt>
      <trkpt lat="44.71541" lon="7.08372">
        <ele>2675</ele>
        <time>2022-07-15T08:11:32Z</time>
      </trkpt>
      <trkpt lat="44.71543" lon="7.08377">
        <ele>2676</ele>
        <time>2022-07-15T08:11:37Z</time>
      </trkpt>
      <trkpt lat="44.71545" lon="7.08381">
        <ele>2677</ele>
        <time>2022-07-15T08:11:43Z</time>
      </trkpt>
      <trkpt lat="44.71547" lon="7.08386">
        <ele>2677</ele>
        <time>2022-07-15T08:11:50Z</time>
      </trkpt>
      <trkpt lat="44.71546" lon="7.08396">
        <ele>2676</ele>
        <time>2022-07-15T08:12:00Z</time>
      </trkpt>
      <trkpt lat="44.71547" lon="7.08401">
        <ele>2678</ele>
        <time>2022-07-15T08:12:06Z</time>
      </trkpt>
      <trkpt lat="44.71548" lon="7.08406">
        <ele>2680</ele>
        <time>2022-07-15T08:12:12Z</time>
      </trkpt>
      <trkpt lat="44.71549" lon="7.08411">
        <ele>2682</ele>
        <time>2022-07-15T08:12:18Z</time>
      </trkpt>
      <trkpt lat="44.71548" lon="7.08416">
        <ele>2684</ele>
        <time>2022-07-15T08:12:24Z</time>
      </trkpt>
      <trkpt lat="44.71551" lon="7.08416">
        <ele>2685</ele>
        <time>2022-07-15T08:12:34Z</time>
      </trkpt>
      <trkpt lat="44.71555" lon="7.08419">
        <ele>2685</ele>
        <time>2022-07-15T08:12:41Z</time>
      </trkpt>
      <trkpt lat="44.71557" lon="7.08423">
        <ele>2686</ele>
        <time>2022-07-15T08:12:55Z</time>
      </trkpt>
      <trkpt lat="44.71556" lon="7.08433">
        <ele>2690</ele>
        <time>2022-07-15T08:13:10Z</time>
      </trkpt>
      <trkpt lat="44.71557" lon="7.08439">
        <ele>2691</ele>
        <time>2022-07-15T08:13:17Z</time>
      </trkpt>
      <trkpt lat="44.71559" lon="7.08437">
        <ele>2696</ele>
        <time>2022-07-15T08:15:30Z</time>
      </trkpt>
      <trkpt lat="44.71561" lon="7.08437">
        <ele>2696</ele>
        <time>2022-07-15T08:15:51Z</time>
      </trkpt>
      <trkpt lat="44.71561" lon="7.08431">
        <ele>2696</ele>
        <time>2022-07-15T08:16:34Z</time>
      </trkpt>
      <trkpt lat="44.71563" lon="7.0842">
        <ele>2698</ele>
        <time>2022-07-15T08:16:45Z</time>
      </trkpt>
      <trkpt lat="44.71572" lon="7.08411">
        <ele>2699</ele>
        <time>2022-07-15T08:17:01Z</time>
      </trkpt>
      <trkpt lat="44.71571" lon="7.08401">
        <ele>2700</ele>
        <time>2022-07-15T08:17:11Z</time>
      </trkpt>
      <trkpt lat="44.71573" lon="7.08385">
        <ele>2701</ele>
        <time>2022-07-15T08:17:27Z</time>
      </trkpt>
      <trkpt lat="44.71573" lon="7.0838">
        <ele>2701</ele>
        <time>2022-07-15T08:17:32Z</time>
      </trkpt>
      <trkpt lat="44.7157" lon="7.08377">
        <ele>2701</ele>
        <time>2022-07-15T08:17:37Z</time>
      </trkpt>
      <trkpt lat="44.71569" lon="7.08372">
        <ele>2702</ele>
        <time>2022-07-15T08:17:43Z</time>
      </trkpt>
      <trkpt lat="44.71573" lon="7.08364">
        <ele>2703</ele>
        <time>2022-07-15T08:17:54Z</time>
      </trkpt>
      <trkpt lat="44.71574" lon="7.08358">
        <ele>2703</ele>
        <time>2022-07-15T08:18:00Z</time>
      </trkpt>
      <trkpt lat="44.71575" lon="7.08354">
        <ele>2703</ele>
        <time>2022-07-15T08:18:11Z</time>
      </trkpt>
      <trkpt lat="44.7158" lon="7.08345">
        <ele>2704</ele>
        <time>2022-07-15T08:18:20Z</time>
      </trkpt>
      <trkpt lat="44.71583" lon="7.08342">
        <ele>2704</ele>
        <time>2022-07-15T08:18:25Z</time>
      </trkpt>
      <trkpt lat="44.71597" lon="7.08331">
        <ele>2702</ele>
        <time>2022-07-15T08:18:46Z</time>
      </trkpt>
      <trkpt lat="44.71594" lon="7.08336">
        <ele>2701</ele>
        <time>2022-07-15T08:19:03Z</time>
      </trkpt>
      <trkpt lat="44.71591" lon="7.08338">
        <ele>2701</ele>
        <time>2022-07-15T08:19:07Z</time>
      </trkpt>
      <trkpt lat="44.71587" lon="7.08338">
        <ele>2701</ele>
        <time>2022-07-15T08:19:43Z</time>
      </trkpt>
      <trkpt lat="44.71578" lon="7.08347">
        <ele>2699</ele>
        <time>2022-07-15T08:19:56Z</time>
      </trkpt>
      <trkpt lat="44.71578" lon="7.08353">
        <ele>2699</ele>
        <time>2022-07-15T08:20:55Z</time>
      </trkpt>
      <trkpt lat="44.7158" lon="7.08358">
        <ele>2698</ele>
        <time>2022-07-15T08:21:01Z</time>
      </trkpt>
      <trkpt lat="44.71585" lon="7.08366">
        <ele>2697</ele>
        <time>2022-07-15T08:21:12Z</time>
      </trkpt>
      <trkpt lat="44.71587" lon="7.0837">
        <ele>2696</ele>
        <time>2022-07-15T08:21:18Z</time>
      </trkpt>
      <trkpt lat="44.71591" lon="7.08372">
        <ele>2695</ele>
        <time>2022-07-15T08:21:23Z</time>
      </trkpt>
      <trkpt lat="44.71599" lon="7.08368">
        <ele>2694</ele>
        <time>2022-07-15T08:21:33Z</time>
      </trkpt>
      <trkpt lat="44.71603" lon="7.08369">
        <ele>2693</ele>
        <time>2022-07-15T08:21:39Z</time>
      </trkpt>
      <trkpt lat="44.71605" lon="7.08373">
        <ele>2692</ele>
        <time>2022-07-15T08:22:12Z</time>
      </trkpt>
      <trkpt lat="44.71613" lon="7.08374">
        <ele>2688</ele>
        <time>2022-07-15T08:22:23Z</time>
      </trkpt>
      <trkpt lat="44.71616" lon="7.08376">
        <ele>2686</ele>
        <time>2022-07-15T08:22:27Z</time>
      </trkpt>
      <trkpt lat="44.7162" lon="7.08377">
        <ele>2685</ele>
        <time>2022-07-15T08:22:31Z</time>
      </trkpt>
      <trkpt lat="44.71623" lon="7.08377">
        <ele>2683</ele>
        <time>2022-07-15T08:22:35Z</time>
      </trkpt>
      <trkpt lat="44.71627" lon="7.08377">
        <ele>2682</ele>
        <time>2022-07-15T08:22:41Z</time>
      </trkpt>
      <trkpt lat="44.71628" lon="7.08382">
        <ele>2682</ele>
        <time>2022-07-15T08:22:45Z</time>
      </trkpt>
      <trkpt lat="44.71628" lon="7.08386">
        <ele>2679</ele>
        <time>2022-07-15T08:22:48Z</time>
      </trkpt>
      <trkpt lat="44.71631" lon="7.08389">
        <ele>2678</ele>
        <time>2022-07-15T08:22:53Z</time>
      </trkpt>
      <trkpt lat="44.71638" lon="7.08394">
        <ele>2676</ele>
        <time>2022-07-15T08:22:59Z</time>
      </trkpt>
      <trkpt lat="44.71648" lon="7.08409">
        <ele>2675</ele>
        <time>2022-07-15T08:23:11Z</time>
      </trkpt>
      <trkpt lat="44.7165" lon="7.08414">
        <ele>2675</ele>
        <time>2022-07-15T08:23:14Z</time>
      </trkpt>
      <trkpt lat="44.7165" lon="7.08424">
        <ele>2675</ele>
        <time>2022-07-15T08:23:20Z</time>
      </trkpt>
      <trkpt lat="44.71651" lon="7.0843">
        <ele>2675</ele>
        <time>2022-07-15T08:23:24Z</time>
      </trkpt>
      <trkpt lat="44.71658" lon="7.08438">
        <ele>2675</ele>
        <time>2022-07-15T08:23:32Z</time>
      </trkpt>
      <trkpt lat="44.71663" lon="7.08447">
        <ele>2674</ele>
        <time>2022-07-15T08:23:40Z</time>
      </trkpt>
      <trkpt lat="44.71665" lon="7.08452">
        <ele>2674</ele>
        <time>2022-07-15T08:23:45Z</time>
      </trkpt>
      <trkpt lat="44.71667" lon="7.08457">
        <ele>2673</ele>
        <time>2022-07-15T08:23:50Z</time>
      </trkpt>
      <trkpt lat="44.71669" lon="7.08462">
        <ele>2673</ele>
        <time>2022-07-15T08:23:55Z</time>
      </trkpt>
      <trkpt lat="44.71674" lon="7.08469">
        <ele>2671</ele>
        <time>2022-07-15T08:24:03Z</time>
      </trkpt>
      <trkpt lat="44.71688" lon="7.085">
        <ele>2668</ele>
        <time>2022-07-15T08:24:31Z</time>
      </trkpt>
      <trkpt lat="44.71691" lon="7.08504">
        <ele>2669</ele>
        <time>2022-07-15T08:24:36Z</time>
      </trkpt>
      <trkpt lat="44.71697" lon="7.08519">
        <ele>2668</ele>
        <time>2022-07-15T08:24:50Z</time>
      </trkpt>
      <trkpt lat="44.71702" lon="7.08527">
        <ele>2667</ele>
        <time>2022-07-15T08:24:59Z</time>
      </trkpt>
      <trkpt lat="44.71706" lon="7.08542">
        <ele>2666</ele>
        <time>2022-07-15T08:25:14Z</time>
      </trkpt>
      <trkpt lat="44.71707" lon="7.08547">
        <ele>2665</ele>
        <time>2022-07-15T08:25:18Z</time>
      </trkpt>
      <trkpt lat="44.71708" lon="7.08553">
        <ele>2665</ele>
        <time>2022-07-15T08:25:25Z</time>
      </trkpt>
      <trkpt lat="44.71708" lon="7.08558">
        <ele>2664</ele>
        <time>2022-07-15T08:25:33Z</time>
      </trkpt>
      <trkpt lat="44.7171" lon="7.08562">
        <ele>2662</ele>
        <time>2022-07-15T08:25:38Z</time>
      </trkpt>
      <trkpt lat="44.71715" lon="7.08571">
        <ele>2661</ele>
        <time>2022-07-15T08:25:49Z</time>
      </trkpt>
      <trkpt lat="44.71717" lon="7.08575">
        <ele>2660</ele>
        <time>2022-07-15T08:25:54Z</time>
      </trkpt>
      <trkpt lat="44.71721" lon="7.08574">
        <ele>2658</ele>
        <time>2022-07-15T08:26:02Z</time>
      </trkpt>
      <trkpt lat="44.71726" lon="7.08567">
        <ele>2654</ele>
        <time>2022-07-15T08:26:12Z</time>
      </trkpt>
      <trkpt lat="44.7173" lon="7.08566">
        <ele>2653</ele>
        <time>2022-07-15T08:26:23Z</time>
      </trkpt>
      <trkpt lat="44.71737" lon="7.08573">
        <ele>2651</ele>
        <time>2022-07-15T08:26:32Z</time>
      </trkpt>
      <trkpt lat="44.71742" lon="7.08581">
        <ele>2649</ele>
        <time>2022-07-15T08:26:40Z</time>
      </trkpt>
      <trkpt lat="44.71742" lon="7.08587">
        <ele>2649</ele>
        <time>2022-07-15T08:26:44Z</time>
      </trkpt>
      <trkpt lat="44.71743" lon="7.08592">
        <ele>2649</ele>
        <time>2022-07-15T08:26:48Z</time>
      </trkpt>
      <trkpt lat="44.71747" lon="7.08591">
        <ele>2648</ele>
        <time>2022-07-15T08:27:59Z</time>
      </trkpt>
      <trkpt lat="44.7175" lon="7.08591">
        <ele>2646</ele>
        <time>2022-07-15T08:28:03Z</time>
      </trkpt>
      <trkpt lat="44.71754" lon="7.08591">
        <ele>2644</ele>
        <time>2022-07-15T08:28:09Z</time>
      </trkpt>
      <trkpt lat="44.71755" lon="7.08596">
        <ele>2643</ele>
        <time>2022-07-15T08:28:16Z</time>
      </trkpt>
      <trkpt lat="44.71755" lon="7.08602">
        <ele>2642</ele>
        <time>2022-07-15T08:28:22Z</time>
      </trkpt>
      <trkpt lat="44.71764" lon="7.08612">
        <ele>2639</ele>
        <time>2022-07-15T08:28:36Z</time>
      </trkpt>
      <trkpt lat="44.71766" lon="7.08608">
        <ele>2638</ele>
        <time>2022-07-15T08:28:43Z</time>
      </trkpt>
      <trkpt lat="44.71766" lon="7.08603">
        <ele>2637</ele>
        <time>2022-07-15T08:28:48Z</time>
      </trkpt>
      <trkpt lat="44.71768" lon="7.08597">
        <ele>2636</ele>
        <time>2022-07-15T08:28:54Z</time>
      </trkpt>
      <trkpt lat="44.71771" lon="7.086">
        <ele>2636</ele>
        <time>2022-07-15T08:28:59Z</time>
      </trkpt>
      <trkpt lat="44.71774" lon="7.08596">
        <ele>2634</ele>
        <time>2022-07-15T08:29:06Z</time>
      </trkpt>
      <trkpt lat="44.71776" lon="7.08591">
        <ele>2632</ele>
        <time>2022-07-15T08:29:12Z</time>
      </trkpt>
      <trkpt lat="44.71778" lon="7.08586">
        <ele>2631</ele>
        <time>2022-07-15T08:29:16Z</time>
      </trkpt>
      <trkpt lat="44.71783" lon="7.08577">
        <ele>2630</ele>
        <time>2022-07-15T08:29:26Z</time>
      </trkpt>
      <trkpt lat="44.71786" lon="7.08574">
        <ele>2628</ele>
        <time>2022-07-15T08:29:31Z</time>
      </trkpt>
      <trkpt lat="44.71793" lon="7.08568">
        <ele>2626</ele>
        <time>2022-07-15T08:29:40Z</time>
      </trkpt>
      <trkpt lat="44.71797" lon="7.08567">
        <ele>2626</ele>
        <time>2022-07-15T08:29:44Z</time>
      </trkpt>
      <trkpt lat="44.71825" lon="7.0857">
        <ele>2621</ele>
        <time>2022-07-15T08:30:15Z</time>
      </trkpt>
      <trkpt lat="44.71829" lon="7.08572">
        <ele>2620</ele>
        <time>2022-07-15T08:30:20Z</time>
      </trkpt>
      <trkpt lat="44.71832" lon="7.08576">
        <ele>2620</ele>
        <time>2022-07-15T08:30:24Z</time>
      </trkpt>
      <trkpt lat="44.71834" lon="7.08591">
        <ele>2619</ele>
        <time>2022-07-15T08:30:36Z</time>
      </trkpt>
      <trkpt lat="44.71835" lon="7.08597">
        <ele>2619</ele>
        <time>2022-07-15T08:30:41Z</time>
      </trkpt>
      <trkpt lat="44.71835" lon="7.08602">
        <ele>2619</ele>
        <time>2022-07-15T08:30:45Z</time>
      </trkpt>
      <trkpt lat="44.71837" lon="7.08613">
        <ele>2618</ele>
        <time>2022-07-15T08:30:53Z</time>
      </trkpt>
      <trkpt lat="44.71837" lon="7.08623">
        <ele>2618</ele>
        <time>2022-07-15T08:31:01Z</time>
      </trkpt>
      <trkpt lat="44.71839" lon="7.08628">
        <ele>2618</ele>
        <time>2022-07-15T08:31:06Z</time>
      </trkpt>
      <trkpt lat="44.71846" lon="7.08632">
        <ele>2617</ele>
        <time>2022-07-15T08:31:16Z</time>
      </trkpt>
      <trkpt lat="44.7185" lon="7.08636">
        <ele>2617</ele>
        <time>2022-07-15T08:31:21Z</time>
      </trkpt>
      <trkpt lat="44.71854" lon="7.08639">
        <ele>2616</ele>
        <time>2022-07-15T08:31:26Z</time>
      </trkpt>
      <trkpt lat="44.71861" lon="7.08638">
        <ele>2614</ele>
        <time>2022-07-15T08:31:34Z</time>
      </trkpt>
      <trkpt lat="44.71876" lon="7.08642">
        <ele>2613</ele>
        <time>2022-07-15T08:31:53Z</time>
      </trkpt>
      <trkpt lat="44.71884" lon="7.0864">
        <ele>2612</ele>
        <time>2022-07-15T08:32:01Z</time>
      </trkpt>
      <trkpt lat="44.71887" lon="7.08637">
        <ele>2612</ele>
        <time>2022-07-15T08:32:05Z</time>
      </trkpt>
      <trkpt lat="44.71895" lon="7.08633">
        <ele>2611</ele>
        <time>2022-07-15T08:32:14Z</time>
      </trkpt>
      <trkpt lat="44.7191" lon="7.08633">
        <ele>2608</ele>
        <time>2022-07-15T08:32:31Z</time>
      </trkpt>
      <trkpt lat="44.71914" lon="7.08633">
        <ele>2608</ele>
        <time>2022-07-15T08:32:36Z</time>
      </trkpt>
      <trkpt lat="44.71918" lon="7.08634">
        <ele>2607</ele>
        <time>2022-07-15T08:32:40Z</time>
      </trkpt>
      <trkpt lat="44.71922" lon="7.08634">
        <ele>2606</ele>
        <time>2022-07-15T08:32:45Z</time>
      </trkpt>
      <trkpt lat="44.71926" lon="7.08634">
        <ele>2606</ele>
        <time>2022-07-15T08:32:49Z</time>
      </trkpt>
      <trkpt lat="44.71932" lon="7.08628">
        <ele>2605</ele>
        <time>2022-07-15T08:32:58Z</time>
      </trkpt>
      <trkpt lat="44.71936" lon="7.08625">
        <ele>2605</ele>
        <time>2022-07-15T08:33:03Z</time>
      </trkpt>
      <trkpt lat="44.7194" lon="7.08624">
        <ele>2604</ele>
        <time>2022-07-15T08:33:08Z</time>
      </trkpt>
      <trkpt lat="44.71942" lon="7.0862">
        <ele>2603</ele>
        <time>2022-07-15T08:33:12Z</time>
      </trkpt>
      <trkpt lat="44.71945" lon="7.08616">
        <ele>2603</ele>
        <time>2022-07-15T08:33:18Z</time>
      </trkpt>
      <trkpt lat="44.71948" lon="7.08615">
        <ele>2603</ele>
        <time>2022-07-15T08:33:23Z</time>
      </trkpt>
      <trkpt lat="44.71952" lon="7.08615">
        <ele>2602</ele>
        <time>2022-07-15T08:33:29Z</time>
      </trkpt>
      <trkpt lat="44.71955" lon="7.08611">
        <ele>2601</ele>
        <time>2022-07-15T08:33:35Z</time>
      </trkpt>
      <trkpt lat="44.71956" lon="7.08607">
        <ele>2599</ele>
        <time>2022-07-15T08:33:40Z</time>
      </trkpt>
      <trkpt lat="44.71959" lon="7.08603">
        <ele>2599</ele>
        <time>2022-07-15T08:33:46Z</time>
      </trkpt>
      <trkpt lat="44.71961" lon="7.08599">
        <ele>2597</ele>
        <time>2022-07-15T08:33:51Z</time>
      </trkpt>
      <trkpt lat="44.71963" lon="7.08588">
        <ele>2595</ele>
        <time>2022-07-15T08:34:01Z</time>
      </trkpt>
      <trkpt lat="44.71965" lon="7.08585">
        <ele>2594</ele>
        <time>2022-07-15T08:34:06Z</time>
      </trkpt>
      <trkpt lat="44.71965" lon="7.08579">
        <ele>2593</ele>
        <time>2022-07-15T08:34:10Z</time>
      </trkpt>
      <trkpt lat="44.71964" lon="7.08574">
        <ele>2593</ele>
        <time>2022-07-15T08:34:14Z</time>
      </trkpt>
      <trkpt lat="44.71964" lon="7.08559">
        <ele>2593</ele>
        <time>2022-07-15T08:34:26Z</time>
      </trkpt>
      <trkpt lat="44.71966" lon="7.08554">
        <ele>2592</ele>
        <time>2022-07-15T08:34:30Z</time>
      </trkpt>
      <trkpt lat="44.71967" lon="7.08549">
        <ele>2593</ele>
        <time>2022-07-15T08:34:38Z</time>
      </trkpt>
      <trkpt lat="44.71963" lon="7.08541">
        <ele>2591</ele>
        <time>2022-07-15T08:34:56Z</time>
      </trkpt>
      <trkpt lat="44.71963" lon="7.08536">
        <ele>2591</ele>
        <time>2022-07-15T08:35:02Z</time>
      </trkpt>
      <trkpt lat="44.7196" lon="7.08532">
        <ele>2589</ele>
        <time>2022-07-15T08:35:15Z</time>
      </trkpt>
      <trkpt lat="44.71957" lon="7.08523">
        <ele>2587</ele>
        <time>2022-07-15T08:35:27Z</time>
      </trkpt>
      <trkpt lat="44.71955" lon="7.08508">
        <ele>2583</ele>
        <time>2022-07-15T08:35:43Z</time>
      </trkpt>
      <trkpt lat="44.71958" lon="7.08504">
        <ele>2582</ele>
        <time>2022-07-15T08:35:49Z</time>
      </trkpt>
      <trkpt lat="44.71964" lon="7.08506">
        <ele>2580</ele>
        <time>2022-07-15T08:36:03Z</time>
      </trkpt>
      <trkpt lat="44.71968" lon="7.08506">
        <ele>2580</ele>
        <time>2022-07-15T08:36:08Z</time>
      </trkpt>
      <trkpt lat="44.71972" lon="7.08507">
        <ele>2579</ele>
        <time>2022-07-15T08:36:13Z</time>
      </trkpt>
      <trkpt lat="44.71976" lon="7.08507">
        <ele>2578</ele>
        <time>2022-07-15T08:36:18Z</time>
      </trkpt>
      <trkpt lat="44.71979" lon="7.08504">
        <ele>2577</ele>
        <time>2022-07-15T08:36:24Z</time>
      </trkpt>
      <trkpt lat="44.7199" lon="7.08497">
        <ele>2573</ele>
        <time>2022-07-15T08:36:38Z</time>
      </trkpt>
      <trkpt lat="44.71998" lon="7.08485">
        <ele>2571</ele>
        <time>2022-07-15T08:36:52Z</time>
      </trkpt>
      <trkpt lat="44.72001" lon="7.08475">
        <ele>2570</ele>
        <time>2022-07-15T08:37:01Z</time>
      </trkpt>
      <trkpt lat="44.72001" lon="7.0847">
        <ele>2570</ele>
        <time>2022-07-15T08:37:06Z</time>
      </trkpt>
      <trkpt lat="44.72002" lon="7.08464">
        <ele>2569</ele>
        <time>2022-07-15T08:37:11Z</time>
      </trkpt>
      <trkpt lat="44.72003" lon="7.08459">
        <ele>2568</ele>
        <time>2022-07-15T08:37:16Z</time>
      </trkpt>
      <trkpt lat="44.72003" lon="7.08449">
        <ele>2565</ele>
        <time>2022-07-15T08:37:25Z</time>
      </trkpt>
      <trkpt lat="44.72" lon="7.08444">
        <ele>2563</ele>
        <time>2022-07-15T08:37:31Z</time>
      </trkpt>
      <trkpt lat="44.71999" lon="7.08439">
        <ele>2563</ele>
        <time>2022-07-15T08:37:36Z</time>
      </trkpt>
      <trkpt lat="44.72004" lon="7.08438">
        <ele>2563</ele>
        <time>2022-07-15T08:37:40Z</time>
      </trkpt>
      <trkpt lat="44.72005" lon="7.08437">
        <ele>2563</ele>
        <time>2022-07-15T08:38:22Z</time>
      </trkpt>
      <trkpt lat="44.72005" lon="7.08432">
        <ele>2562</ele>
        <time>2022-07-15T08:38:25Z</time>
      </trkpt>
      <trkpt lat="44.72006" lon="7.08427">
        <ele>2563</ele>
        <time>2022-07-15T08:38:27Z</time>
      </trkpt>
      <trkpt lat="44.72009" lon="7.08423">
        <ele>2563</ele>
        <time>2022-07-15T08:38:30Z</time>
      </trkpt>
      <trkpt lat="44.72014" lon="7.08416">
        <ele>2562</ele>
        <time>2022-07-15T08:38:36Z</time>
      </trkpt>
      <trkpt lat="44.72016" lon="7.08411">
        <ele>2562</ele>
        <time>2022-07-15T08:38:40Z</time>
      </trkpt>
      <trkpt lat="44.72026" lon="7.084">
        <ele>2562</ele>
        <time>2022-07-15T08:38:52Z</time>
      </trkpt>
      <trkpt lat="44.72029" lon="7.08398">
        <ele>2562</ele>
        <time>2022-07-15T08:38:56Z</time>
      </trkpt>
      <trkpt lat="44.72032" lon="7.08388">
        <ele>2560</ele>
        <time>2022-07-15T08:39:03Z</time>
      </trkpt>
      <trkpt lat="44.72033" lon="7.08383">
        <ele>2560</ele>
        <time>2022-07-15T08:39:07Z</time>
      </trkpt>
      <trkpt lat="44.72036" lon="7.08371">
        <ele>2560</ele>
        <time>2022-07-15T08:39:15Z</time>
      </trkpt>
      <trkpt lat="44.72035" lon="7.08349">
        <ele>2560</ele>
        <time>2022-07-15T08:39:32Z</time>
      </trkpt>
      <trkpt lat="44.72034" lon="7.08345">
        <ele>2561</ele>
        <time>2022-07-15T08:39:36Z</time>
      </trkpt>
      <trkpt lat="44.72033" lon="7.08339">
        <ele>2561</ele>
        <time>2022-07-15T08:39:40Z</time>
      </trkpt>
      <trkpt lat="44.72031" lon="7.08329">
        <ele>2562</ele>
        <time>2022-07-15T08:39:48Z</time>
      </trkpt>
      <trkpt lat="44.7203" lon="7.08324">
        <ele>2563</ele>
        <time>2022-07-15T08:39:52Z</time>
      </trkpt>
      <trkpt lat="44.72033" lon="7.08313">
        <ele>2562</ele>
        <time>2022-07-15T08:40:00Z</time>
      </trkpt>
      <trkpt lat="44.72035" lon="7.08309">
        <ele>2561</ele>
        <time>2022-07-15T08:40:04Z</time>
      </trkpt>
      <trkpt lat="44.72037" lon="7.08304">
        <ele>2560</ele>
        <time>2022-07-15T08:40:09Z</time>
      </trkpt>
      <trkpt lat="44.7204" lon="7.08302">
        <ele>2559</ele>
        <time>2022-07-15T08:40:13Z</time>
      </trkpt>
      <trkpt lat="44.72045" lon="7.08293">
        <ele>2557</ele>
        <time>2022-07-15T08:40:22Z</time>
      </trkpt>
      <trkpt lat="44.72046" lon="7.08277">
        <ele>2554</ele>
        <time>2022-07-15T08:40:37Z</time>
      </trkpt>
      <trkpt lat="44.72047" lon="7.08272">
        <ele>2553</ele>
        <time>2022-07-15T08:43:04Z</time>
      </trkpt>
      <trkpt lat="44.72048" lon="7.08268">
        <ele>2552</ele>
        <time>2022-07-15T08:43:09Z</time>
      </trkpt>
      <trkpt lat="44.72049" lon="7.08263">
        <ele>2551</ele>
        <time>2022-07-15T08:43:14Z</time>
      </trkpt>
      <trkpt lat="44.72055" lon="7.08247">
        <ele>2549</ele>
        <time>2022-07-15T08:43:26Z</time>
      </trkpt>
      <trkpt lat="44.72064" lon="7.08237">
        <ele>2547</ele>
        <time>2022-07-15T08:43:39Z</time>
      </trkpt>
      <trkpt lat="44.72066" lon="7.08232">
        <ele>2546</ele>
        <time>2022-07-15T08:43:43Z</time>
      </trkpt>
      <trkpt lat="44.72066" lon="7.08227">
        <ele>2545</ele>
        <time>2022-07-15T08:43:47Z</time>
      </trkpt>
      <trkpt lat="44.7208" lon="7.08198">
        <ele>2541</ele>
        <time>2022-07-15T08:44:17Z</time>
      </trkpt>
      <trkpt lat="44.72085" lon="7.08189">
        <ele>2540</ele>
        <time>2022-07-15T08:44:27Z</time>
      </trkpt>
      <trkpt lat="44.72088" lon="7.08177">
        <ele>2538</ele>
        <time>2022-07-15T08:44:37Z</time>
      </trkpt>
      <trkpt lat="44.72091" lon="7.08167">
        <ele>2538</ele>
        <time>2022-07-15T08:44:45Z</time>
      </trkpt>
      <trkpt lat="44.72093" lon="7.08163">
        <ele>2537</ele>
        <time>2022-07-15T08:44:49Z</time>
      </trkpt>
      <trkpt lat="44.72096" lon="7.0816">
        <ele>2536</ele>
        <time>2022-07-15T08:44:55Z</time>
      </trkpt>
      <trkpt lat="44.72099" lon="7.08158">
        <ele>2535</ele>
        <time>2022-07-15T08:45:00Z</time>
      </trkpt>
      <trkpt lat="44.72104" lon="7.08151">
        <ele>2534</ele>
        <time>2022-07-15T08:45:08Z</time>
      </trkpt>
      <trkpt lat="44.72108" lon="7.08148">
        <ele>2533</ele>
        <time>2022-07-15T08:45:13Z</time>
      </trkpt>
      <trkpt lat="44.72112" lon="7.08147">
        <ele>2532</ele>
        <time>2022-07-15T08:45:18Z</time>
      </trkpt>
      <trkpt lat="44.72115" lon="7.08145">
        <ele>2531</ele>
        <time>2022-07-15T08:45:22Z</time>
      </trkpt>
      <trkpt lat="44.72116" lon="7.0814">
        <ele>2529</ele>
        <time>2022-07-15T08:45:27Z</time>
      </trkpt>
      <trkpt lat="44.72115" lon="7.08135">
        <ele>2529</ele>
        <time>2022-07-15T08:45:31Z</time>
      </trkpt>
      <trkpt lat="44.72117" lon="7.0813">
        <ele>2528</ele>
        <time>2022-07-15T08:45:36Z</time>
      </trkpt>
      <trkpt lat="44.72119" lon="7.08126">
        <ele>2528</ele>
        <time>2022-07-15T08:45:41Z</time>
      </trkpt>
      <trkpt lat="44.72134" lon="7.08096">
        <ele>2529</ele>
        <time>2022-07-15T08:46:13Z</time>
      </trkpt>
      <trkpt lat="44.72135" lon="7.08091">
        <ele>2529</ele>
        <time>2022-07-15T08:46:18Z</time>
      </trkpt>
      <trkpt lat="44.72138" lon="7.08087">
        <ele>2528</ele>
        <time>2022-07-15T08:46:22Z</time>
      </trkpt>
      <trkpt lat="44.7214" lon="7.08083">
        <ele>2528</ele>
        <time>2022-07-15T08:46:26Z</time>
      </trkpt>
      <trkpt lat="44.72145" lon="7.08074">
        <ele>2527</ele>
        <time>2022-07-15T08:46:36Z</time>
      </trkpt>
      <trkpt lat="44.72148" lon="7.08065">
        <ele>2526</ele>
        <time>2022-07-15T08:46:44Z</time>
      </trkpt>
      <trkpt lat="44.72152" lon="7.08056">
        <ele>2527</ele>
        <time>2022-07-15T08:46:53Z</time>
      </trkpt>
      <trkpt lat="44.72154" lon="7.0805">
        <ele>2527</ele>
        <time>2022-07-15T08:46:58Z</time>
      </trkpt>
      <trkpt lat="44.72156" lon="7.08046">
        <ele>2528</ele>
        <time>2022-07-15T08:47:03Z</time>
      </trkpt>
      <trkpt lat="44.72159" lon="7.08042">
        <ele>2527</ele>
        <time>2022-07-15T08:47:08Z</time>
      </trkpt>
      <trkpt lat="44.7216" lon="7.08037">
        <ele>2527</ele>
        <time>2022-07-15T08:47:12Z</time>
      </trkpt>
      <trkpt lat="44.72166" lon="7.08029">
        <ele>2527</ele>
        <time>2022-07-15T08:47:22Z</time>
      </trkpt>
      <trkpt lat="44.7217" lon="7.08027">
        <ele>2527</ele>
        <time>2022-07-15T08:47:27Z</time>
      </trkpt>
      <trkpt lat="44.72175" lon="7.08021">
        <ele>2526</ele>
        <time>2022-07-15T08:47:35Z</time>
      </trkpt>
      <trkpt lat="44.72179" lon="7.08018">
        <ele>2526</ele>
        <time>2022-07-15T08:47:40Z</time>
      </trkpt>
      <trkpt lat="44.72192" lon="7.08006">
        <ele>2524</ele>
        <time>2022-07-15T08:47:57Z</time>
      </trkpt>
      <trkpt lat="44.72195" lon="7.08003">
        <ele>2524</ele>
        <time>2022-07-15T08:48:01Z</time>
      </trkpt>
      <trkpt lat="44.72202" lon="7.07997">
        <ele>2525</ele>
        <time>2022-07-15T08:48:11Z</time>
      </trkpt>
      <trkpt lat="44.72204" lon="7.07994">
        <ele>2524</ele>
        <time>2022-07-15T08:48:16Z</time>
      </trkpt>
      <trkpt lat="44.72207" lon="7.07991">
        <ele>2524</ele>
        <time>2022-07-15T08:48:21Z</time>
      </trkpt>
      <trkpt lat="44.7221" lon="7.07988">
        <ele>2524</ele>
        <time>2022-07-15T08:48:26Z</time>
      </trkpt>
      <trkpt lat="44.72213" lon="7.07985">
        <ele>2523</ele>
        <time>2022-07-15T08:48:31Z</time>
      </trkpt>
      <trkpt lat="44.72216" lon="7.07981">
        <ele>2523</ele>
        <time>2022-07-15T08:48:36Z</time>
      </trkpt>
      <trkpt lat="44.7222" lon="7.07979">
        <ele>2524</ele>
        <time>2022-07-15T08:48:41Z</time>
      </trkpt>
      <trkpt lat="44.72223" lon="7.07976">
        <ele>2524</ele>
        <time>2022-07-15T08:48:45Z</time>
      </trkpt>
      <trkpt lat="44.72229" lon="7.07969">
        <ele>2525</ele>
        <time>2022-07-15T08:48:55Z</time>
      </trkpt>
      <trkpt lat="44.72235" lon="7.07963">
        <ele>2526</ele>
        <time>2022-07-15T08:49:04Z</time>
      </trkpt>
      <trkpt lat="44.72239" lon="7.07961">
        <ele>2525</ele>
        <time>2022-07-15T08:49:09Z</time>
      </trkpt>
      <trkpt lat="44.72247" lon="7.07951">
        <ele>2523</ele>
        <time>2022-07-15T08:49:22Z</time>
      </trkpt>
      <trkpt lat="44.7225" lon="7.0795">
        <ele>2522</ele>
        <time>2022-07-15T08:49:28Z</time>
      </trkpt>
      <trkpt lat="44.72256" lon="7.07945">
        <ele>2519</ele>
        <time>2022-07-15T08:49:36Z</time>
      </trkpt>
      <trkpt lat="44.7226" lon="7.07945">
        <ele>2518</ele>
        <time>2022-07-15T08:49:43Z</time>
      </trkpt>
      <trkpt lat="44.72271" lon="7.07938">
        <ele>2517</ele>
        <time>2022-07-15T08:49:57Z</time>
      </trkpt>
      <trkpt lat="44.72279" lon="7.07938">
        <ele>2518</ele>
        <time>2022-07-15T08:50:07Z</time>
      </trkpt>
      <trkpt lat="44.72283" lon="7.07936">
        <ele>2517</ele>
        <time>2022-07-15T08:50:12Z</time>
      </trkpt>
      <trkpt lat="44.72291" lon="7.07934">
        <ele>2517</ele>
        <time>2022-07-15T08:50:20Z</time>
      </trkpt>
      <trkpt lat="44.72295" lon="7.07931">
        <ele>2518</ele>
        <time>2022-07-15T08:50:25Z</time>
      </trkpt>
      <trkpt lat="44.72301" lon="7.07923">
        <ele>2517</ele>
        <time>2022-07-15T08:50:35Z</time>
      </trkpt>
      <trkpt lat="44.72311" lon="7.07918">
        <ele>2516</ele>
        <time>2022-07-15T08:50:50Z</time>
      </trkpt>
      <trkpt lat="44.72326" lon="7.07916">
        <ele>2516</ele>
        <time>2022-07-15T08:51:07Z</time>
      </trkpt>
      <trkpt lat="44.72332" lon="7.07911">
        <ele>2517</ele>
        <time>2022-07-15T08:51:16Z</time>
      </trkpt>
      <trkpt lat="44.72336" lon="7.0791">
        <ele>2517</ele>
        <time>2022-07-15T08:51:21Z</time>
      </trkpt>
      <trkpt lat="44.72362" lon="7.07905">
        <ele>2518</ele>
        <time>2022-07-15T08:51:53Z</time>
      </trkpt>
      <trkpt lat="44.72369" lon="7.07901">
        <ele>2518</ele>
        <time>2022-07-15T08:52:03Z</time>
      </trkpt>
      <trkpt lat="44.72384" lon="7.07896">
        <ele>2520</ele>
        <time>2022-07-15T08:52:22Z</time>
      </trkpt>
      <trkpt lat="44.72387" lon="7.07894">
        <ele>2520</ele>
        <time>2022-07-15T08:52:26Z</time>
      </trkpt>
      <trkpt lat="44.72391" lon="7.07891">
        <ele>2520</ele>
        <time>2022-07-15T08:52:31Z</time>
      </trkpt>
      <trkpt lat="44.72394" lon="7.07887">
        <ele>2521</ele>
        <time>2022-07-15T08:52:36Z</time>
      </trkpt>
      <trkpt lat="44.72398" lon="7.07885">
        <ele>2521</ele>
        <time>2022-07-15T08:52:41Z</time>
      </trkpt>
      <trkpt lat="44.724" lon="7.07881">
        <ele>2522</ele>
        <time>2022-07-15T08:52:45Z</time>
      </trkpt>
      <trkpt lat="44.7241" lon="7.07873">
        <ele>2522</ele>
        <time>2022-07-15T08:52:57Z</time>
      </trkpt>
      <trkpt lat="44.72419" lon="7.07864">
        <ele>2523</ele>
        <time>2022-07-15T08:53:09Z</time>
      </trkpt>
      <trkpt lat="44.72423" lon="7.07862">
        <ele>2523</ele>
        <time>2022-07-15T08:53:13Z</time>
      </trkpt>
      <trkpt lat="44.7243" lon="7.07856">
        <ele>2524</ele>
        <time>2022-07-15T08:53:23Z</time>
      </trkpt>
      <trkpt lat="44.72433" lon="7.07854">
        <ele>2524</ele>
        <time>2022-07-15T08:53:27Z</time>
      </trkpt>
      <trkpt lat="44.72457" lon="7.07827">
        <ele>2526</ele>
        <time>2022-07-15T08:54:00Z</time>
      </trkpt>
      <trkpt lat="44.7248" lon="7.07807">
        <ele>2525</ele>
        <time>2022-07-15T08:54:31Z</time>
      </trkpt>
      <trkpt lat="44.72486" lon="7.07801">
        <ele>2523</ele>
        <time>2022-07-15T08:54:39Z</time>
      </trkpt>
      <trkpt lat="44.7249" lon="7.07798">
        <ele>2523</ele>
        <time>2022-07-15T08:54:43Z</time>
      </trkpt>
      <trkpt lat="44.72495" lon="7.07791">
        <ele>2521</ele>
        <time>2022-07-15T08:54:51Z</time>
      </trkpt>
      <trkpt lat="44.72498" lon="7.07789">
        <ele>2521</ele>
        <time>2022-07-15T08:54:55Z</time>
      </trkpt>
      <trkpt lat="44.72503" lon="7.07781">
        <ele>2519</ele>
        <time>2022-07-15T08:55:04Z</time>
      </trkpt>
      <trkpt lat="44.72506" lon="7.07777">
        <ele>2519</ele>
        <time>2022-07-15T08:55:11Z</time>
      </trkpt>
      <trkpt lat="44.72508" lon="7.07777">
        <ele>2518</ele>
        <time>2022-07-15T08:56:15Z</time>
      </trkpt>
      <trkpt lat="44.72523" lon="7.07743">
        <ele>2513</ele>
        <time>2022-07-15T08:56:45Z</time>
      </trkpt>
      <trkpt lat="44.72526" lon="7.07739">
        <ele>2513</ele>
        <time>2022-07-15T08:56:49Z</time>
      </trkpt>
      <trkpt lat="44.72529" lon="7.07736">
        <ele>2514</ele>
        <time>2022-07-15T08:56:53Z</time>
      </trkpt>
      <trkpt lat="44.72533" lon="7.07735">
        <ele>2514</ele>
        <time>2022-07-15T08:56:57Z</time>
      </trkpt>
      <trkpt lat="44.72536" lon="7.07732">
        <ele>2512</ele>
        <time>2022-07-15T08:57:02Z</time>
      </trkpt>
      <trkpt lat="44.72537" lon="7.07727">
        <ele>2512</ele>
        <time>2022-07-15T08:57:07Z</time>
      </trkpt>
      <trkpt lat="44.7254" lon="7.07718">
        <ele>2509</ele>
        <time>2022-07-15T08:57:16Z</time>
      </trkpt>
      <trkpt lat="44.72539" lon="7.07713">
        <ele>2506</ele>
        <time>2022-07-15T08:57:20Z</time>
      </trkpt>
      <trkpt lat="44.72542" lon="7.07709">
        <ele>2505</ele>
        <time>2022-07-15T08:57:27Z</time>
      </trkpt>
      <trkpt lat="44.72543" lon="7.07704">
        <ele>2503</ele>
        <time>2022-07-15T08:57:33Z</time>
      </trkpt>
      <trkpt lat="44.72546" lon="7.07701">
        <ele>2502</ele>
        <time>2022-07-15T08:57:39Z</time>
      </trkpt>
      <trkpt lat="44.7255" lon="7.07698">
        <ele>2502</ele>
        <time>2022-07-15T08:57:45Z</time>
      </trkpt>
      <trkpt lat="44.72555" lon="7.07691">
        <ele>2500</ele>
        <time>2022-07-15T08:57:56Z</time>
      </trkpt>
      <trkpt lat="44.72559" lon="7.07691">
        <ele>2500</ele>
        <time>2022-07-15T08:58:01Z</time>
      </trkpt>
      <trkpt lat="44.72563" lon="7.07691">
        <ele>2499</ele>
        <time>2022-07-15T08:58:06Z</time>
      </trkpt>
      <trkpt lat="44.72569" lon="7.07686">
        <ele>2498</ele>
        <time>2022-07-15T08:58:27Z</time>
      </trkpt>
      <trkpt lat="44.72572" lon="7.07682">
        <ele>2498</ele>
        <time>2022-07-15T08:58:33Z</time>
      </trkpt>
      <trkpt lat="44.72577" lon="7.07682">
        <ele>2497</ele>
        <time>2022-07-15T08:58:38Z</time>
      </trkpt>
      <trkpt lat="44.7258" lon="7.07681">
        <ele>2498</ele>
        <time>2022-07-15T08:58:42Z</time>
      </trkpt>
      <trkpt lat="44.72583" lon="7.07678">
        <ele>2497</ele>
        <time>2022-07-15T08:58:47Z</time>
      </trkpt>
      <trkpt lat="44.72584" lon="7.07673">
        <ele>2497</ele>
        <time>2022-07-15T08:58:51Z</time>
      </trkpt>
      <trkpt lat="44.72588" lon="7.07665">
        <ele>2495</ele>
        <time>2022-07-15T08:59:00Z</time>
      </trkpt>
      <trkpt lat="44.72592" lon="7.07662">
        <ele>2495</ele>
        <time>2022-07-15T08:59:05Z</time>
      </trkpt>
      <trkpt lat="44.72595" lon="7.0766">
        <ele>2494</ele>
        <time>2022-07-15T08:59:09Z</time>
      </trkpt>
      <trkpt lat="44.72616" lon="7.07648">
        <ele>2492</ele>
        <time>2022-07-15T08:59:36Z</time>
      </trkpt>
      <trkpt lat="44.7262" lon="7.07646">
        <ele>2492</ele>
        <time>2022-07-15T08:59:43Z</time>
      </trkpt>
      <trkpt lat="44.72622" lon="7.07641">
        <ele>2491</ele>
        <time>2022-07-15T08:59:49Z</time>
      </trkpt>
      <trkpt lat="44.72624" lon="7.07636">
        <ele>2488</ele>
        <time>2022-07-15T08:59:55Z</time>
      </trkpt>
      <trkpt lat="44.72628" lon="7.07634">
        <ele>2487</ele>
        <time>2022-07-15T09:00:01Z</time>
      </trkpt>
      <trkpt lat="44.72635" lon="7.07633">
        <ele>2486</ele>
        <time>2022-07-15T09:00:11Z</time>
      </trkpt>
      <trkpt lat="44.72638" lon="7.07631">
        <ele>2486</ele>
        <time>2022-07-15T09:00:16Z</time>
      </trkpt>
      <trkpt lat="44.72642" lon="7.07628">
        <ele>2486</ele>
        <time>2022-07-15T09:00:22Z</time>
      </trkpt>
      <trkpt lat="44.72645" lon="7.07626">
        <ele>2484</ele>
        <time>2022-07-15T09:00:26Z</time>
      </trkpt>
      <trkpt lat="44.72648" lon="7.07625">
        <ele>2485</ele>
        <time>2022-07-15T09:00:33Z</time>
      </trkpt>
      <trkpt lat="44.72652" lon="7.07624">
        <ele>2485</ele>
        <time>2022-07-15T09:00:38Z</time>
      </trkpt>
      <trkpt lat="44.7266" lon="7.07622">
        <ele>2485</ele>
        <time>2022-07-15T09:00:49Z</time>
      </trkpt>
      <trkpt lat="44.72662" lon="7.07627">
        <ele>2485</ele>
        <time>2022-07-15T09:00:54Z</time>
      </trkpt>
      <trkpt lat="44.72666" lon="7.07625">
        <ele>2483</ele>
        <time>2022-07-15T09:01:05Z</time>
      </trkpt>
      <trkpt lat="44.72672" lon="7.07619">
        <ele>2481</ele>
        <time>2022-07-15T09:01:14Z</time>
      </trkpt>
      <trkpt lat="44.72675" lon="7.07616">
        <ele>2480</ele>
        <time>2022-07-15T09:01:19Z</time>
      </trkpt>
      <trkpt lat="44.72679" lon="7.07615">
        <ele>2478</ele>
        <time>2022-07-15T09:01:25Z</time>
      </trkpt>
      <trkpt lat="44.72682" lon="7.07617">
        <ele>2477</ele>
        <time>2022-07-15T09:01:30Z</time>
      </trkpt>
      <trkpt lat="44.72685" lon="7.0762">
        <ele>2476</ele>
        <time>2022-07-15T09:01:36Z</time>
      </trkpt>
      <trkpt lat="44.72688" lon="7.07617">
        <ele>2475</ele>
        <time>2022-07-15T09:01:41Z</time>
      </trkpt>
      <trkpt lat="44.72692" lon="7.07618">
        <ele>2474</ele>
        <time>2022-07-15T09:01:46Z</time>
      </trkpt>
      <trkpt lat="44.72696" lon="7.07615">
        <ele>2474</ele>
        <time>2022-07-15T09:01:53Z</time>
      </trkpt>
      <trkpt lat="44.727" lon="7.07613">
        <ele>2472</ele>
        <time>2022-07-15T09:01:59Z</time>
      </trkpt>
      <trkpt lat="44.72706" lon="7.07608">
        <ele>2470</ele>
        <time>2022-07-15T09:02:10Z</time>
      </trkpt>
      <trkpt lat="44.7271" lon="7.07606">
        <ele>2469</ele>
        <time>2022-07-15T09:02:15Z</time>
      </trkpt>
      <trkpt lat="44.72716" lon="7.07601">
        <ele>2468</ele>
        <time>2022-07-15T09:02:24Z</time>
      </trkpt>
      <trkpt lat="44.7272" lon="7.076">
        <ele>2468</ele>
        <time>2022-07-15T09:02:29Z</time>
      </trkpt>
      <trkpt lat="44.72725" lon="7.07601">
        <ele>2468</ele>
        <time>2022-07-15T09:02:35Z</time>
      </trkpt>
      <trkpt lat="44.72729" lon="7.07599">
        <ele>2468</ele>
        <time>2022-07-15T09:02:39Z</time>
      </trkpt>
      <trkpt lat="44.72733" lon="7.07591">
        <ele>2468</ele>
        <time>2022-07-15T09:02:48Z</time>
      </trkpt>
      <trkpt lat="44.72736" lon="7.07587">
        <ele>2467</ele>
        <time>2022-07-15T09:02:53Z</time>
      </trkpt>
      <trkpt lat="44.72743" lon="7.07574">
        <ele>2463</ele>
        <time>2022-07-15T09:03:10Z</time>
      </trkpt>
      <trkpt lat="44.7275" lon="7.07569">
        <ele>2462</ele>
        <time>2022-07-15T09:03:21Z</time>
      </trkpt>
      <trkpt lat="44.7276" lon="7.07562">
        <ele>2460</ele>
        <time>2022-07-15T09:03:39Z</time>
      </trkpt>
      <trkpt lat="44.72763" lon="7.07559">
        <ele>2459</ele>
        <time>2022-07-15T09:03:45Z</time>
      </trkpt>
      <trkpt lat="44.72767" lon="7.07557">
        <ele>2458</ele>
        <time>2022-07-15T09:03:51Z</time>
      </trkpt>
      <trkpt lat="44.72775" lon="7.07547">
        <ele>2454</ele>
        <time>2022-07-15T09:04:06Z</time>
      </trkpt>
      <trkpt lat="44.72785" lon="7.07537">
        <ele>2452</ele>
        <time>2022-07-15T09:04:22Z</time>
      </trkpt>
      <trkpt lat="44.72793" lon="7.07526">
        <ele>2450</ele>
        <time>2022-07-15T09:04:35Z</time>
      </trkpt>
      <trkpt lat="44.72796" lon="7.07515">
        <ele>2448</ele>
        <time>2022-07-15T09:04:45Z</time>
      </trkpt>
      <trkpt lat="44.72799" lon="7.07512">
        <ele>2447</ele>
        <time>2022-07-15T09:04:49Z</time>
      </trkpt>
      <trkpt lat="44.72802" lon="7.0751">
        <ele>2447</ele>
        <time>2022-07-15T09:04:53Z</time>
      </trkpt>
      <trkpt lat="44.72806" lon="7.07508">
        <ele>2447</ele>
        <time>2022-07-15T09:04:57Z</time>
      </trkpt>
      <trkpt lat="44.72809" lon="7.07507">
        <ele>2446</ele>
        <time>2022-07-15T09:05:02Z</time>
      </trkpt>
      <trkpt lat="44.72813" lon="7.07504">
        <ele>2446</ele>
        <time>2022-07-15T09:05:15Z</time>
      </trkpt>
      <trkpt lat="44.72817" lon="7.07504">
        <ele>2444</ele>
        <time>2022-07-15T09:05:20Z</time>
      </trkpt>
      <trkpt lat="44.7282" lon="7.07503">
        <ele>2444</ele>
        <time>2022-07-15T09:05:24Z</time>
      </trkpt>
      <trkpt lat="44.72831" lon="7.075">
        <ele>2441</ele>
        <time>2022-07-15T09:05:37Z</time>
      </trkpt>
      <trkpt lat="44.72838" lon="7.07497">
        <ele>2438</ele>
        <time>2022-07-15T09:05:47Z</time>
      </trkpt>
      <trkpt lat="44.72842" lon="7.07496">
        <ele>2438</ele>
        <time>2022-07-15T09:05:52Z</time>
      </trkpt>
      <trkpt lat="44.72853" lon="7.0749">
        <ele>2435</ele>
        <time>2022-07-15T09:06:08Z</time>
      </trkpt>
      <trkpt lat="44.72857" lon="7.07493">
        <ele>2433</ele>
        <time>2022-07-15T09:06:13Z</time>
      </trkpt>
      <trkpt lat="44.7286" lon="7.07497">
        <ele>2432</ele>
        <time>2022-07-15T09:06:17Z</time>
      </trkpt>
      <trkpt lat="44.72862" lon="7.075">
        <ele>2431</ele>
        <time>2022-07-15T09:06:22Z</time>
      </trkpt>
      <trkpt lat="44.72866" lon="7.075">
        <ele>2431</ele>
        <time>2022-07-15T09:06:27Z</time>
      </trkpt>
      <trkpt lat="44.72873" lon="7.07496">
        <ele>2430</ele>
        <time>2022-07-15T09:06:36Z</time>
      </trkpt>
      <trkpt lat="44.72884" lon="7.07491">
        <ele>2428</ele>
        <time>2022-07-15T09:06:50Z</time>
      </trkpt>
      <trkpt lat="44.72886" lon="7.07488">
        <ele>2427</ele>
        <time>2022-07-15T09:06:57Z</time>
      </trkpt>
      <trkpt lat="44.7289" lon="7.0749">
        <ele>2426</ele>
        <time>2022-07-15T09:07:04Z</time>
      </trkpt>
      <trkpt lat="44.72893" lon="7.07487">
        <ele>2425</ele>
        <time>2022-07-15T09:07:13Z</time>
      </trkpt>
      <trkpt lat="44.72895" lon="7.07484">
        <ele>2423</ele>
        <time>2022-07-15T09:07:23Z</time>
      </trkpt>
      <trkpt lat="44.72898" lon="7.07487">
        <ele>2422</ele>
        <time>2022-07-15T09:07:29Z</time>
      </trkpt>
      <trkpt lat="44.729" lon="7.07492">
        <ele>2421</ele>
        <time>2022-07-15T09:07:34Z</time>
      </trkpt>
      <trkpt lat="44.72902" lon="7.07489">
        <ele>2420</ele>
        <time>2022-07-15T09:07:44Z</time>
      </trkpt>
      <trkpt lat="44.72903" lon="7.07484">
        <ele>2420</ele>
        <time>2022-07-15T09:07:50Z</time>
      </trkpt>
      <trkpt lat="44.72906" lon="7.07481">
        <ele>2417</ele>
        <time>2022-07-15T09:07:57Z</time>
      </trkpt>
      <trkpt lat="44.7291" lon="7.0748">
        <ele>2415</ele>
        <time>2022-07-15T09:08:05Z</time>
      </trkpt>
      <trkpt lat="44.72913" lon="7.07478">
        <ele>2415</ele>
        <time>2022-07-15T09:08:11Z</time>
      </trkpt>
      <trkpt lat="44.72914" lon="7.07473">
        <ele>2414</ele>
        <time>2022-07-15T09:08:20Z</time>
      </trkpt>
      <trkpt lat="44.72917" lon="7.07476">
        <ele>2412</ele>
        <time>2022-07-15T09:08:26Z</time>
      </trkpt>
      <trkpt lat="44.72921" lon="7.07477">
        <ele>2411</ele>
        <time>2022-07-15T09:08:31Z</time>
      </trkpt>
      <trkpt lat="44.72928" lon="7.07475">
        <ele>2409</ele>
        <time>2022-07-15T09:08:42Z</time>
      </trkpt>
      <trkpt lat="44.72932" lon="7.07472">
        <ele>2408</ele>
        <time>2022-07-15T09:08:48Z</time>
      </trkpt>
      <trkpt lat="44.72935" lon="7.07474">
        <ele>2407</ele>
        <time>2022-07-15T09:08:52Z</time>
      </trkpt>
      <trkpt lat="44.72939" lon="7.07473">
        <ele>2406</ele>
        <time>2022-07-15T09:08:57Z</time>
      </trkpt>
      <trkpt lat="44.72942" lon="7.0747">
        <ele>2405</ele>
        <time>2022-07-15T09:09:03Z</time>
      </trkpt>
      <trkpt lat="44.72945" lon="7.07467">
        <ele>2405</ele>
        <time>2022-07-15T09:09:11Z</time>
      </trkpt>
      <trkpt lat="44.72948" lon="7.07466">
        <ele>2405</ele>
        <time>2022-07-15T09:09:15Z</time>
      </trkpt>
      <trkpt lat="44.72954" lon="7.07468">
        <ele>2405</ele>
        <time>2022-07-15T09:09:23Z</time>
      </trkpt>
      <trkpt lat="44.72957" lon="7.07465">
        <ele>2405</ele>
        <time>2022-07-15T09:09:51Z</time>
      </trkpt>
      <trkpt lat="44.72954" lon="7.07462">
        <ele>2405</ele>
        <time>2022-07-15T09:10:07Z</time>
      </trkpt>
      <trkpt lat="44.72953" lon="7.07457">
        <ele>2405</ele>
        <time>2022-07-15T09:10:13Z</time>
      </trkpt>
      <trkpt lat="44.72939" lon="7.07434">
        <ele>2409</ele>
        <time>2022-07-15T09:10:48Z</time>
      </trkpt>
      <trkpt lat="44.72938" lon="7.07429">
        <ele>2409</ele>
        <time>2022-07-15T09:10:55Z</time>
      </trkpt>
      <trkpt lat="44.72938" lon="7.07424">
        <ele>2411</ele>
        <time>2022-07-15T09:11:02Z</time>
      </trkpt>
      <trkpt lat="44.72937" lon="7.07414">
        <ele>2413</ele>
        <time>2022-07-15T09:11:17Z</time>
      </trkpt>
      <trkpt lat="44.72939" lon="7.0741">
        <ele>2415</ele>
        <time>2022-07-15T09:11:27Z</time>
      </trkpt>
      <trkpt lat="44.72939" lon="7.07405">
        <ele>2417</ele>
        <time>2022-07-15T09:11:37Z</time>
      </trkpt>
      <trkpt lat="44.72938" lon="7.0739">
        <ele>2419</ele>
        <time>2022-07-15T09:11:56Z</time>
      </trkpt>
      <trkpt lat="44.72937" lon="7.0738">
        <ele>2421</ele>
        <time>2022-07-15T09:12:07Z</time>
      </trkpt>
      <trkpt lat="44.72937" lon="7.07376">
        <ele>2422</ele>
        <time>2022-07-15T09:12:14Z</time>
      </trkpt>
      <trkpt lat="44.72936" lon="7.07371">
        <ele>2423</ele>
        <time>2022-07-15T09:12:20Z</time>
      </trkpt>
      <trkpt lat="44.72938" lon="7.07361">
        <ele>2425</ele>
        <time>2022-07-15T09:12:36Z</time>
      </trkpt>
      <trkpt lat="44.72937" lon="7.07356">
        <ele>2426</ele>
        <time>2022-07-15T09:12:44Z</time>
      </trkpt>
      <trkpt lat="44.72939" lon="7.07352">
        <ele>2428</ele>
        <time>2022-07-15T09:12:52Z</time>
      </trkpt>
      <trkpt lat="44.72948" lon="7.07342">
        <ele>2434</ele>
        <time>2022-07-15T09:13:17Z</time>
      </trkpt>
      <trkpt lat="44.72953" lon="7.07335">
        <ele>2437</ele>
        <time>2022-07-15T09:13:34Z</time>
      </trkpt>
      <trkpt lat="44.72954" lon="7.07331">
        <ele>2438</ele>
        <time>2022-07-15T09:13:43Z</time>
      </trkpt>
      <trkpt lat="44.72958" lon="7.07328">
        <ele>2439</ele>
        <time>2022-07-15T09:13:48Z</time>
      </trkpt>
      <trkpt lat="44.72965" lon="7.07317">
        <ele>2440</ele>
        <time>2022-07-15T09:14:03Z</time>
      </trkpt>
      <trkpt lat="44.72967" lon="7.07312">
        <ele>2441</ele>
        <time>2022-07-15T09:14:10Z</time>
      </trkpt>
      <trkpt lat="44.72968" lon="7.07308">
        <ele>2441</ele>
        <time>2022-07-15T09:14:16Z</time>
      </trkpt>
      <trkpt lat="44.72965" lon="7.07305">
        <ele>2442</ele>
        <time>2022-07-15T09:14:28Z</time>
      </trkpt>
      <trkpt lat="44.72965" lon="7.073">
        <ele>2443</ele>
        <time>2022-07-15T09:14:33Z</time>
      </trkpt>
      <trkpt lat="44.72966" lon="7.07295">
        <ele>2443</ele>
        <time>2022-07-15T09:14:39Z</time>
      </trkpt>
      <trkpt lat="44.72966" lon="7.0729">
        <ele>2445</ele>
        <time>2022-07-15T09:14:47Z</time>
      </trkpt>
      <trkpt lat="44.72966" lon="7.07285">
        <ele>2445</ele>
        <time>2022-07-15T09:14:54Z</time>
      </trkpt>
      <trkpt lat="44.72964" lon="7.07281">
        <ele>2447</ele>
        <time>2022-07-15T09:15:01Z</time>
      </trkpt>
      <trkpt lat="44.7296" lon="7.07278">
        <ele>2448</ele>
        <time>2022-07-15T09:15:07Z</time>
      </trkpt>
      <trkpt lat="44.72958" lon="7.07269">
        <ele>2449</ele>
        <time>2022-07-15T09:15:16Z</time>
      </trkpt>
      <trkpt lat="44.72957" lon="7.07253">
        <ele>2447</ele>
        <time>2022-07-15T09:15:32Z</time>
      </trkpt>
      <trkpt lat="44.72959" lon="7.07247">
        <ele>2446</ele>
        <time>2022-07-15T09:15:36Z</time>
      </trkpt>
      <trkpt lat="44.7296" lon="7.07242">
        <ele>2445</ele>
        <time>2022-07-15T09:15:41Z</time>
      </trkpt>
      <trkpt lat="44.72958" lon="7.07237">
        <ele>2444</ele>
        <time>2022-07-15T09:15:54Z</time>
      </trkpt>
      <trkpt lat="44.72958" lon="7.07231">
        <ele>2443</ele>
        <time>2022-07-15T09:15:58Z</time>
      </trkpt>
      <trkpt lat="44.72959" lon="7.07226">
        <ele>2442</ele>
        <time>2022-07-15T09:16:03Z</time>
      </trkpt>
      <trkpt lat="44.72958" lon="7.07221">
        <ele>2442</ele>
        <time>2022-07-15T09:16:30Z</time>
      </trkpt>
      <trkpt lat="44.72957" lon="7.0721">
        <ele>2442</ele>
        <time>2022-07-15T09:16:37Z</time>
      </trkpt>
      <trkpt lat="44.72956" lon="7.07205">
        <ele>2442</ele>
        <time>2022-07-15T09:16:42Z</time>
      </trkpt>
      <trkpt lat="44.72958" lon="7.07194">
        <ele>2442</ele>
        <time>2022-07-15T09:16:51Z</time>
      </trkpt>
      <trkpt lat="44.72958" lon="7.07189">
        <ele>2443</ele>
        <time>2022-07-15T09:16:55Z</time>
      </trkpt>
      <trkpt lat="44.7296" lon="7.07184">
        <ele>2445</ele>
        <time>2022-07-15T09:17:01Z</time>
      </trkpt>
      <trkpt lat="44.72962" lon="7.07178">
        <ele>2447</ele>
        <time>2022-07-15T09:17:06Z</time>
      </trkpt>
      <trkpt lat="44.72961" lon="7.07173">
        <ele>2448</ele>
        <time>2022-07-15T09:17:11Z</time>
      </trkpt>
      <trkpt lat="44.7296" lon="7.07168">
        <ele>2448</ele>
        <time>2022-07-15T09:17:15Z</time>
      </trkpt>
      <trkpt lat="44.72959" lon="7.07163">
        <ele>2449</ele>
        <time>2022-07-15T09:17:20Z</time>
      </trkpt>
      <trkpt lat="44.72953" lon="7.07154">
        <ele>2449</ele>
        <time>2022-07-15T09:17:29Z</time>
      </trkpt>
      <trkpt lat="44.72952" lon="7.0715">
        <ele>2450</ele>
        <time>2022-07-15T09:17:34Z</time>
      </trkpt>
      <trkpt lat="44.7295" lon="7.07146">
        <ele>2451</ele>
        <time>2022-07-15T09:17:41Z</time>
      </trkpt>
      <trkpt lat="44.72948" lon="7.07142">
        <ele>2453</ele>
        <time>2022-07-15T09:17:46Z</time>
      </trkpt>
      <trkpt lat="44.72953" lon="7.07133">
        <ele>2453</ele>
        <time>2022-07-15T09:17:56Z</time>
      </trkpt>
      <trkpt lat="44.72954" lon="7.07128">
        <ele>2453</ele>
        <time>2022-07-15T09:18:01Z</time>
      </trkpt>
      <trkpt lat="44.72952" lon="7.07124">
        <ele>2454</ele>
        <time>2022-07-15T09:18:06Z</time>
      </trkpt>
      <trkpt lat="44.72949" lon="7.07121">
        <ele>2455</ele>
        <time>2022-07-15T09:18:11Z</time>
      </trkpt>
      <trkpt lat="44.72952" lon="7.07118">
        <ele>2455</ele>
        <time>2022-07-15T09:18:16Z</time>
      </trkpt>
      <trkpt lat="44.72955" lon="7.07115">
        <ele>2456</ele>
        <time>2022-07-15T09:18:21Z</time>
      </trkpt>
      <trkpt lat="44.72953" lon="7.07111">
        <ele>2456</ele>
        <time>2022-07-15T09:18:27Z</time>
      </trkpt>
      <trkpt lat="44.7295" lon="7.0711">
        <ele>2456</ele>
        <time>2022-07-15T09:18:33Z</time>
      </trkpt>
      <trkpt lat="44.72946" lon="7.07111">
        <ele>2457</ele>
        <time>2022-07-15T09:18:40Z</time>
      </trkpt>
      <trkpt lat="44.72943" lon="7.07107">
        <ele>2457</ele>
        <time>2022-07-15T09:18:46Z</time>
      </trkpt>
      <trkpt lat="44.72946" lon="7.07104">
        <ele>2458</ele>
        <time>2022-07-15T09:18:52Z</time>
      </trkpt>
      <trkpt lat="44.72947" lon="7.07099">
        <ele>2459</ele>
        <time>2022-07-15T09:18:59Z</time>
      </trkpt>
      <trkpt lat="44.72952" lon="7.07091">
        <ele>2461</ele>
        <time>2022-07-15T09:19:09Z</time>
      </trkpt>
      <trkpt lat="44.72956" lon="7.0709">
        <ele>2461</ele>
        <time>2022-07-15T09:19:14Z</time>
      </trkpt>
      <trkpt lat="44.72956" lon="7.07086">
        <ele>2463</ele>
        <time>2022-07-15T09:19:31Z</time>
      </trkpt>
      <trkpt lat="44.72952" lon="7.07084">
        <ele>2464</ele>
        <time>2022-07-15T09:20:59Z</time>
      </trkpt>
      <trkpt lat="44.72949" lon="7.07081">
        <ele>2463</ele>
        <time>2022-07-15T09:21:05Z</time>
      </trkpt>
      <trkpt lat="44.72946" lon="7.07077">
        <ele>2464</ele>
        <time>2022-07-15T09:21:10Z</time>
      </trkpt>
      <trkpt lat="44.72944" lon="7.07075">
        <ele>2465</ele>
        <time>2022-07-15T09:21:15Z</time>
      </trkpt>
      <trkpt lat="44.72943" lon="7.0707">
        <ele>2466</ele>
        <time>2022-07-15T09:21:22Z</time>
      </trkpt>
      <trkpt lat="44.72945" lon="7.07065">
        <ele>2467</ele>
        <time>2022-07-15T09:21:28Z</time>
      </trkpt>
      <trkpt lat="44.72941" lon="7.07062">
        <ele>2468</ele>
        <time>2022-07-15T09:21:36Z</time>
      </trkpt>
      <trkpt lat="44.72938" lon="7.0706">
        <ele>2469</ele>
        <time>2022-07-15T09:21:41Z</time>
      </trkpt>
      <trkpt lat="44.72936" lon="7.07056">
        <ele>2470</ele>
        <time>2022-07-15T09:21:47Z</time>
      </trkpt>
      <trkpt lat="44.72934" lon="7.07046">
        <ele>2472</ele>
        <time>2022-07-15T09:21:59Z</time>
      </trkpt>
      <trkpt lat="44.72937" lon="7.07041">
        <ele>2474</ele>
        <time>2022-07-15T09:22:05Z</time>
      </trkpt>
      <trkpt lat="44.72936" lon="7.07036">
        <ele>2475</ele>
        <time>2022-07-15T09:22:15Z</time>
      </trkpt>
      <trkpt lat="44.72932" lon="7.07034">
        <ele>2477</ele>
        <time>2022-07-15T09:22:22Z</time>
      </trkpt>
      <trkpt lat="44.72929" lon="7.07031">
        <ele>2478</ele>
        <time>2022-07-15T09:22:31Z</time>
      </trkpt>
      <trkpt lat="44.72927" lon="7.07028">
        <ele>2480</ele>
        <time>2022-07-15T09:22:37Z</time>
      </trkpt>
      <trkpt lat="44.72925" lon="7.07023">
        <ele>2482</ele>
        <time>2022-07-15T09:22:44Z</time>
      </trkpt>
      <trkpt lat="44.72925" lon="7.07018">
        <ele>2482</ele>
        <time>2022-07-15T09:22:51Z</time>
      </trkpt>
      <trkpt lat="44.72927" lon="7.07014">
        <ele>2483</ele>
        <time>2022-07-15T09:22:57Z</time>
      </trkpt>
      <trkpt lat="44.72924" lon="7.07011">
        <ele>2483</ele>
        <time>2022-07-15T09:23:04Z</time>
      </trkpt>
      <trkpt lat="44.72921" lon="7.07009">
        <ele>2485</ele>
        <time>2022-07-15T09:23:11Z</time>
      </trkpt>
      <trkpt lat="44.72919" lon="7.07005">
        <ele>2486</ele>
        <time>2022-07-15T09:23:17Z</time>
      </trkpt>
      <trkpt lat="44.72916" lon="7.07001">
        <ele>2487</ele>
        <time>2022-07-15T09:23:23Z</time>
      </trkpt>
      <trkpt lat="44.72912" lon="7.07">
        <ele>2488</ele>
        <time>2022-07-15T09:23:29Z</time>
      </trkpt>
      <trkpt lat="44.72909" lon="7.06998">
        <ele>2489</ele>
        <time>2022-07-15T09:23:35Z</time>
      </trkpt>
      <trkpt lat="44.72906" lon="7.06994">
        <ele>2490</ele>
        <time>2022-07-15T09:23:41Z</time>
      </trkpt>
      <trkpt lat="44.72905" lon="7.0699">
        <ele>2491</ele>
        <time>2022-07-15T09:23:47Z</time>
      </trkpt>
      <trkpt lat="44.72908" lon="7.06986">
        <ele>2491</ele>
        <time>2022-07-15T09:23:52Z</time>
      </trkpt>
      <trkpt lat="44.72905" lon="7.06982">
        <ele>2491</ele>
        <time>2022-07-15T09:23:59Z</time>
      </trkpt>
      <trkpt lat="44.72907" lon="7.06977">
        <ele>2491</ele>
        <time>2022-07-15T09:24:05Z</time>
      </trkpt>
      <trkpt lat="44.7291" lon="7.06974">
        <ele>2492</ele>
        <time>2022-07-15T09:24:10Z</time>
      </trkpt>
      <trkpt lat="44.72917" lon="7.06974">
        <ele>2493</ele>
        <time>2022-07-15T09:24:21Z</time>
      </trkpt>
      <trkpt lat="44.72916" lon="7.06969">
        <ele>2495</ele>
        <time>2022-07-15T09:24:29Z</time>
      </trkpt>
      <trkpt lat="44.72919" lon="7.06966">
        <ele>2496</ele>
        <time>2022-07-15T09:24:41Z</time>
      </trkpt>
      <trkpt lat="44.72917" lon="7.06962">
        <ele>2496</ele>
        <time>2022-07-15T09:24:52Z</time>
      </trkpt>
      <trkpt lat="44.7292" lon="7.06959">
        <ele>2497</ele>
        <time>2022-07-15T09:25:02Z</time>
      </trkpt>
      <trkpt lat="44.72919" lon="7.06954">
        <ele>2500</ele>
        <time>2022-07-15T09:25:16Z</time>
      </trkpt>
      <trkpt lat="44.72921" lon="7.06949">
        <ele>2502</ele>
        <time>2022-07-15T09:25:31Z</time>
      </trkpt>
      <trkpt lat="44.72924" lon="7.06946">
        <ele>2502</ele>
        <time>2022-07-15T09:25:38Z</time>
      </trkpt>
      <trkpt lat="44.72926" lon="7.06942">
        <ele>2504</ele>
        <time>2022-07-15T09:25:46Z</time>
      </trkpt>
      <trkpt lat="44.72929" lon="7.06939">
        <ele>2504</ele>
        <time>2022-07-15T09:25:55Z</time>
      </trkpt>
      <trkpt lat="44.72926" lon="7.06935">
        <ele>2506</ele>
        <time>2022-07-15T09:26:03Z</time>
      </trkpt>
      <trkpt lat="44.72919" lon="7.06935">
        <ele>2509</ele>
        <time>2022-07-15T09:26:14Z</time>
      </trkpt>
      <trkpt lat="44.72918" lon="7.0693">
        <ele>2510</ele>
        <time>2022-07-15T09:26:23Z</time>
      </trkpt>
      <trkpt lat="44.72925" lon="7.06925">
        <ele>2511</ele>
        <time>2022-07-15T09:26:37Z</time>
      </trkpt>
      <trkpt lat="44.72928" lon="7.06922">
        <ele>2512</ele>
        <time>2022-07-15T09:26:46Z</time>
      </trkpt>
      <trkpt lat="44.72925" lon="7.0692">
        <ele>2513</ele>
        <time>2022-07-15T09:26:54Z</time>
      </trkpt>
      <trkpt lat="44.72921" lon="7.0692">
        <ele>2514</ele>
        <time>2022-07-15T09:27:00Z</time>
      </trkpt>
      <trkpt lat="44.72918" lon="7.06921">
        <ele>2518</ele>
        <time>2022-07-15T09:27:06Z</time>
      </trkpt>
      <trkpt lat="44.72915" lon="7.06918">
        <ele>2520</ele>
        <time>2022-07-15T09:27:15Z</time>
      </trkpt>
      <trkpt lat="44.72916" lon="7.06913">
        <ele>2521</ele>
        <time>2022-07-15T09:27:24Z</time>
      </trkpt>
      <trkpt lat="44.72919" lon="7.06911">
        <ele>2523</ele>
        <time>2022-07-15T09:27:30Z</time>
      </trkpt>
      <trkpt lat="44.72921" lon="7.06907">
        <ele>2524</ele>
        <time>2022-07-15T09:27:38Z</time>
      </trkpt>
      <trkpt lat="44.72919" lon="7.06904">
        <ele>2525</ele>
        <time>2022-07-15T09:27:52Z</time>
      </trkpt>
      <trkpt lat="44.72922" lon="7.06902">
        <ele>2526</ele>
        <time>2022-07-15T09:28:00Z</time>
      </trkpt>
      <trkpt lat="44.7292" lon="7.06897">
        <ele>2527</ele>
        <time>2022-07-15T09:28:15Z</time>
      </trkpt>
      <trkpt lat="44.72921" lon="7.06892">
        <ele>2529</ele>
        <time>2022-07-15T09:28:26Z</time>
      </trkpt>
      <trkpt lat="44.72922" lon="7.06888">
        <ele>2533</ele>
        <time>2022-07-15T09:28:49Z</time>
      </trkpt>
      <trkpt lat="44.72923" lon="7.06883">
        <ele>2535</ele>
        <time>2022-07-15T09:29:00Z</time>
      </trkpt>
      <trkpt lat="44.72922" lon="7.06879">
        <ele>2538</ele>
        <time>2022-07-15T09:29:14Z</time>
      </trkpt>
      <trkpt lat="44.7292" lon="7.06874">
        <ele>2541</ele>
        <time>2022-07-15T09:29:30Z</time>
      </trkpt>
      <trkpt lat="44.72918" lon="7.0687">
        <ele>2543</ele>
        <time>2022-07-15T09:29:58Z</time>
      </trkpt>
      <trkpt lat="44.72918" lon="7.06865">
        <ele>2544</ele>
        <time>2022-07-15T09:30:12Z</time>
      </trkpt>
      <trkpt lat="44.72916" lon="7.06861">
        <ele>2549</ele>
        <time>2022-07-15T09:30:19Z</time>
      </trkpt>
      <trkpt lat="44.72916" lon="7.06857">
        <ele>2550</ele>
        <time>2022-07-15T09:30:30Z</time>
      </trkpt>
      <trkpt lat="44.72915" lon="7.06852">
        <ele>2553</ele>
        <time>2022-07-15T09:30:44Z</time>
      </trkpt>
      <trkpt lat="44.72917" lon="7.06848">
        <ele>2554</ele>
        <time>2022-07-15T09:30:54Z</time>
      </trkpt>
      <trkpt lat="44.7292" lon="7.06845">
        <ele>2556</ele>
        <time>2022-07-15T09:31:02Z</time>
      </trkpt>
      <trkpt lat="44.72923" lon="7.06841">
        <ele>2557</ele>
        <time>2022-07-15T09:31:11Z</time>
      </trkpt>
      <trkpt lat="44.7292" lon="7.06838">
        <ele>2558</ele>
        <time>2022-07-15T09:31:18Z</time>
      </trkpt>
      <trkpt lat="44.72917" lon="7.06836">
        <ele>2560</ele>
        <time>2022-07-15T09:31:28Z</time>
      </trkpt>
      <trkpt lat="44.72916" lon="7.06832">
        <ele>2562</ele>
        <time>2022-07-15T09:31:46Z</time>
      </trkpt>
      <trkpt lat="44.72917" lon="7.06828">
        <ele>2563</ele>
        <time>2022-07-15T09:31:56Z</time>
      </trkpt>
      <trkpt lat="44.72916" lon="7.06823">
        <ele>2568</ele>
        <time>2022-07-15T09:32:14Z</time>
      </trkpt>
      <trkpt lat="44.72919" lon="7.0682">
        <ele>2568</ele>
        <time>2022-07-15T09:32:21Z</time>
      </trkpt>
      <trkpt lat="44.72916" lon="7.06818">
        <ele>2571</ele>
        <time>2022-07-15T09:32:38Z</time>
      </trkpt>
      <trkpt lat="44.72916" lon="7.06813">
        <ele>2572</ele>
        <time>2022-07-15T09:32:49Z</time>
      </trkpt>
      <trkpt lat="44.72912" lon="7.06813">
        <ele>2576</ele>
        <time>2022-07-15T09:33:01Z</time>
      </trkpt>
      <trkpt lat="44.72909" lon="7.06812">
        <ele>2578</ele>
        <time>2022-07-15T09:33:12Z</time>
      </trkpt>
      <trkpt lat="44.72908" lon="7.06807">
        <ele>2579</ele>
        <time>2022-07-15T09:33:28Z</time>
      </trkpt>
      <trkpt lat="44.72904" lon="7.06809">
        <ele>2580</ele>
        <time>2022-07-15T09:33:39Z</time>
      </trkpt>
      <trkpt lat="44.72902" lon="7.06805">
        <ele>2583</ele>
        <time>2022-07-15T09:33:54Z</time>
      </trkpt>
      <trkpt lat="44.72898" lon="7.06805">
        <ele>2585</ele>
        <time>2022-07-15T09:34:06Z</time>
      </trkpt>
      <trkpt lat="44.72895" lon="7.06803">
        <ele>2588</ele>
        <time>2022-07-15T09:34:24Z</time>
      </trkpt>
      <trkpt lat="44.72891" lon="7.06802">
        <ele>2590</ele>
        <time>2022-07-15T09:34:37Z</time>
      </trkpt>
      <trkpt lat="44.72891" lon="7.06797">
        <ele>2591</ele>
        <time>2022-07-15T09:34:46Z</time>
      </trkpt>
      <trkpt lat="44.72893" lon="7.06792">
        <ele>2591</ele>
        <time>2022-07-15T09:34:54Z</time>
      </trkpt>
      <trkpt lat="44.72889" lon="7.06792">
        <ele>2592</ele>
        <time>2022-07-15T09:35:09Z</time>
      </trkpt>
      <trkpt lat="44.72882" lon="7.06794">
        <ele>2594</ele>
        <time>2022-07-15T09:35:19Z</time>
      </trkpt>
      <trkpt lat="44.72879" lon="7.06794">
        <ele>2595</ele>
        <time>2022-07-15T09:35:31Z</time>
      </trkpt>
      <trkpt lat="44.72879" lon="7.06789">
        <ele>2595</ele>
        <time>2022-07-15T09:35:42Z</time>
      </trkpt>
      <trkpt lat="44.72881" lon="7.06784">
        <ele>2595</ele>
        <time>2022-07-15T09:35:52Z</time>
      </trkpt>
      <trkpt lat="44.72879" lon="7.0678">
        <ele>2597</ele>
        <time>2022-07-15T09:36:06Z</time>
      </trkpt>
      <trkpt lat="44.72875" lon="7.06781">
        <ele>2600</ele>
        <time>2022-07-15T09:36:20Z</time>
      </trkpt>
      <trkpt lat="44.72872" lon="7.06778">
        <ele>2604</ele>
        <time>2022-07-15T09:36:34Z</time>
      </trkpt>
      <trkpt lat="44.72873" lon="7.06773">
        <ele>2606</ele>
        <time>2022-07-15T09:36:46Z</time>
      </trkpt>
      <trkpt lat="44.72871" lon="7.0677">
        <ele>2610</ele>
        <time>2022-07-15T09:37:06Z</time>
      </trkpt>
      <trkpt lat="44.72873" lon="7.06766">
        <ele>2611</ele>
        <time>2022-07-15T09:37:14Z</time>
      </trkpt>
      <trkpt lat="44.72875" lon="7.06763">
        <ele>2613</ele>
        <time>2022-07-15T09:37:20Z</time>
      </trkpt>
      <trkpt lat="44.72872" lon="7.0676">
        <ele>2617</ele>
        <time>2022-07-15T09:37:33Z</time>
      </trkpt>
      <trkpt lat="44.72868" lon="7.06761">
        <ele>2617</ele>
        <time>2022-07-15T09:37:44Z</time>
      </trkpt>
      <trkpt lat="44.72866" lon="7.06759">
        <ele>2617</ele>
        <time>2022-07-15T09:37:57Z</time>
      </trkpt>
      <trkpt lat="44.72862" lon="7.06758">
        <ele>2618</ele>
        <time>2022-07-15T09:38:10Z</time>
      </trkpt>
      <trkpt lat="44.72859" lon="7.06761">
        <ele>2621</ele>
        <time>2022-07-15T09:38:22Z</time>
      </trkpt>
      <trkpt lat="44.72855" lon="7.0676">
        <ele>2622</ele>
        <time>2022-07-15T09:38:41Z</time>
      </trkpt>
      <trkpt lat="44.72854" lon="7.06757">
        <ele>2624</ele>
        <time>2022-07-15T09:38:59Z</time>
      </trkpt>
      <trkpt lat="44.72851" lon="7.06755">
        <ele>2627</ele>
        <time>2022-07-15T09:39:24Z</time>
      </trkpt>
      <trkpt lat="44.72847" lon="7.06754">
        <ele>2632</ele>
        <time>2022-07-15T09:39:35Z</time>
      </trkpt>
      <trkpt lat="44.72844" lon="7.06753">
        <ele>2635</ele>
        <time>2022-07-15T09:39:52Z</time>
      </trkpt>
      <trkpt lat="44.72845" lon="7.06749">
        <ele>2636</ele>
        <time>2022-07-15T09:40:05Z</time>
      </trkpt>
      <trkpt lat="44.72847" lon="7.06745">
        <ele>2639</ele>
        <time>2022-07-15T09:40:12Z</time>
      </trkpt>
      <trkpt lat="44.72844" lon="7.06742">
        <ele>2643</ele>
        <time>2022-07-15T09:40:32Z</time>
      </trkpt>
      <trkpt lat="44.7284" lon="7.06742">
        <ele>2644</ele>
        <time>2022-07-15T09:40:41Z</time>
      </trkpt>
      <trkpt lat="44.72837" lon="7.06743">
        <ele>2645</ele>
        <time>2022-07-15T09:40:49Z</time>
      </trkpt>
      <trkpt lat="44.72834" lon="7.0674">
        <ele>2645</ele>
        <time>2022-07-15T09:41:18Z</time>
      </trkpt>
      <trkpt lat="44.72832" lon="7.06737">
        <ele>2648</ele>
        <time>2022-07-15T09:41:40Z</time>
      </trkpt>
      <trkpt lat="44.72829" lon="7.06736">
        <ele>2648</ele>
        <time>2022-07-15T09:41:47Z</time>
      </trkpt>
      <trkpt lat="44.72825" lon="7.06738">
        <ele>2651</ele>
        <time>2022-07-15T09:42:01Z</time>
      </trkpt>
      <trkpt lat="44.72822" lon="7.06741">
        <ele>2652</ele>
        <time>2022-07-15T09:42:12Z</time>
      </trkpt>
      <trkpt lat="44.72823" lon="7.06746">
        <ele>2657</ele>
        <time>2022-07-15T09:42:28Z</time>
      </trkpt>
      <trkpt lat="44.72822" lon="7.06751">
        <ele>2659</ele>
        <time>2022-07-15T09:42:45Z</time>
      </trkpt>
      <trkpt lat="44.72819" lon="7.06755">
        <ele>2665</ele>
        <time>2022-07-15T09:43:15Z</time>
      </trkpt>
      <trkpt lat="44.72818" lon="7.06759">
        <ele>2666</ele>
        <time>2022-07-15T09:43:23Z</time>
      </trkpt>
      <trkpt lat="44.72815" lon="7.06761">
        <ele>2669</ele>
        <time>2022-07-15T09:43:40Z</time>
      </trkpt>
      <trkpt lat="44.72812" lon="7.06765">
        <ele>2670</ele>
        <time>2022-07-15T09:43:57Z</time>
      </trkpt>
      <trkpt lat="44.72811" lon="7.0677">
        <ele>2672</ele>
        <time>2022-07-15T09:44:07Z</time>
      </trkpt>
      <trkpt lat="44.72807" lon="7.06779">
        <ele>2677</ele>
        <time>2022-07-15T09:44:27Z</time>
      </trkpt>
      <trkpt lat="44.72807" lon="7.06774">
        <ele>2678</ele>
        <time>2022-07-15T09:44:41Z</time>
      </trkpt>
      <trkpt lat="44.72803" lon="7.06776">
        <ele>2679</ele>
        <time>2022-07-15T09:44:56Z</time>
      </trkpt>
      <trkpt lat="44.728" lon="7.06779">
        <ele>2682</ele>
        <time>2022-07-15T09:45:08Z</time>
      </trkpt>
      <trkpt lat="44.72799" lon="7.06774">
        <ele>2683</ele>
        <time>2022-07-15T09:45:23Z</time>
      </trkpt>
      <trkpt lat="44.72795" lon="7.06775">
        <ele>2688</ele>
        <time>2022-07-15T09:45:45Z</time>
      </trkpt>
      <trkpt lat="44.72792" lon="7.06777">
        <ele>2690</ele>
        <time>2022-07-15T09:45:57Z</time>
      </trkpt>
      <trkpt lat="44.7279" lon="7.06773">
        <ele>2691</ele>
        <time>2022-07-15T09:46:13Z</time>
      </trkpt>
      <trkpt lat="44.72788" lon="7.0677">
        <ele>2693</ele>
        <time>2022-07-15T09:46:24Z</time>
      </trkpt>
      <trkpt lat="44.72786" lon="7.06766">
        <ele>2695</ele>
        <time>2022-07-15T09:46:36Z</time>
      </trkpt>
      <trkpt lat="44.72784" lon="7.06766">
        <ele>2697</ele>
        <time>2022-07-15T10:18:41Z</time>
      </trkpt>
      <trkpt lat="44.72778" lon="7.06772">
        <ele>2696</ele>
        <time>2022-07-15T10:19:03Z</time>
      </trkpt>
      <trkpt lat="44.7277" lon="7.06782">
        <ele>2693</ele>
        <time>2022-07-15T10:19:17Z</time>
      </trkpt>
      <trkpt lat="44.72769" lon="7.06787">
        <ele>2692</ele>
        <time>2022-07-15T10:20:11Z</time>
      </trkpt>
      <trkpt lat="44.72765" lon="7.06789">
        <ele>2692</ele>
        <time>2022-07-15T10:20:31Z</time>
      </trkpt>
      <trkpt lat="44.72767" lon="7.06798">
        <ele>2690</ele>
        <time>2022-07-15T10:25:01Z</time>
      </trkpt>
      <trkpt lat="44.72769" lon="7.06793">
        <ele>2690</ele>
        <time>2022-07-15T10:25:11Z</time>
      </trkpt>
      <trkpt lat="44.72768" lon="7.06788">
        <ele>2690</ele>
        <time>2022-07-15T10:43:32Z</time>
      </trkpt>
      <trkpt lat="44.7277" lon="7.06783">
        <ele>2690</ele>
        <time>2022-07-15T10:43:38Z</time>
      </trkpt>
      <trkpt lat="44.72771" lon="7.06778">
        <ele>2691</ele>
        <time>2022-07-15T10:43:54Z</time>
      </trkpt>
      <trkpt lat="44.7277" lon="7.06774">
        <ele>2691</ele>
        <time>2022-07-15T10:44:07Z</time>
      </trkpt>
      <trkpt lat="44.72767" lon="7.0677">
        <ele>2689</ele>
        <time>2022-07-15T10:44:17Z</time>
      </trkpt>
      <trkpt lat="44.72765" lon="7.06767">
        <ele>2688</ele>
        <time>2022-07-15T10:44:28Z</time>
      </trkpt>
      <trkpt lat="44.72758" lon="7.0677">
        <ele>2685</ele>
        <time>2022-07-15T10:44:44Z</time>
      </trkpt>
      <trkpt lat="44.72755" lon="7.06766">
        <ele>2683</ele>
        <time>2022-07-15T10:45:17Z</time>
      </trkpt>
      <trkpt lat="44.72753" lon="7.06762">
        <ele>2682</ele>
        <time>2022-07-15T10:45:32Z</time>
      </trkpt>
      <trkpt lat="44.7275" lon="7.06763">
        <ele>2681</ele>
        <time>2022-07-15T10:45:40Z</time>
      </trkpt>
      <trkpt lat="44.72746" lon="7.06763">
        <ele>2678</ele>
        <time>2022-07-15T10:45:51Z</time>
      </trkpt>
      <trkpt lat="44.72743" lon="7.06765">
        <ele>2677</ele>
        <time>2022-07-15T10:45:58Z</time>
      </trkpt>
      <trkpt lat="44.7274" lon="7.06765">
        <ele>2674</ele>
        <time>2022-07-15T10:46:04Z</time>
      </trkpt>
      <trkpt lat="44.72736" lon="7.06766">
        <ele>2673</ele>
        <time>2022-07-15T10:46:21Z</time>
      </trkpt>
      <trkpt lat="44.72733" lon="7.0677">
        <ele>2671</ele>
        <time>2022-07-15T10:46:27Z</time>
      </trkpt>
      <trkpt lat="44.72726" lon="7.06772">
        <ele>2669</ele>
        <time>2022-07-15T10:46:38Z</time>
      </trkpt>
      <trkpt lat="44.72723" lon="7.06774">
        <ele>2668</ele>
        <time>2022-07-15T10:46:44Z</time>
      </trkpt>
      <trkpt lat="44.72713" lon="7.06783">
        <ele>2664</ele>
        <time>2022-07-15T10:47:00Z</time>
      </trkpt>
      <trkpt lat="44.72712" lon="7.06787">
        <ele>2664</ele>
        <time>2022-07-15T10:47:06Z</time>
      </trkpt>
      <trkpt lat="44.72713" lon="7.0679">
        <ele>2661</ele>
        <time>2022-07-15T10:48:01Z</time>
      </trkpt>
      <trkpt lat="44.72712" lon="7.06796">
        <ele>2661</ele>
        <time>2022-07-15T10:48:05Z</time>
      </trkpt>
      <trkpt lat="44.72709" lon="7.06792">
        <ele>2661</ele>
        <time>2022-07-15T10:48:07Z</time>
      </trkpt>
      <trkpt lat="44.72707" lon="7.06787">
        <ele>2660</ele>
        <time>2022-07-15T10:48:10Z</time>
      </trkpt>
      <trkpt lat="44.72707" lon="7.06782">
        <ele>2660</ele>
        <time>2022-07-15T10:48:13Z</time>
      </trkpt>
      <trkpt lat="44.72708" lon="7.06776">
        <ele>2655</ele>
        <time>2022-07-15T10:48:17Z</time>
      </trkpt>
      <trkpt lat="44.72708" lon="7.06771">
        <ele>2654</ele>
        <time>2022-07-15T10:48:21Z</time>
      </trkpt>
      <trkpt lat="44.72707" lon="7.06766">
        <ele>2654</ele>
        <time>2022-07-15T10:48:39Z</time>
      </trkpt>
      <trkpt lat="44.72707" lon="7.06761">
        <ele>2654</ele>
        <time>2022-07-15T10:48:50Z</time>
      </trkpt>
      <trkpt lat="44.72709" lon="7.06757">
        <ele>2653</ele>
        <time>2022-07-15T10:48:57Z</time>
      </trkpt>
      <trkpt lat="44.72709" lon="7.06752">
        <ele>2653</ele>
        <time>2022-07-15T10:49:02Z</time>
      </trkpt>
      <trkpt lat="44.7271" lon="7.06746">
        <ele>2652</ele>
        <time>2022-07-15T10:49:08Z</time>
      </trkpt>
      <trkpt lat="44.72714" lon="7.06733">
        <ele>2651</ele>
        <time>2022-07-15T10:49:31Z</time>
      </trkpt>
      <trkpt lat="44.72716" lon="7.06723">
        <ele>2650</ele>
        <time>2022-07-15T10:50:01Z</time>
      </trkpt>
      <trkpt lat="44.72718" lon="7.06712">
        <ele>2648</ele>
        <time>2022-07-15T10:50:24Z</time>
      </trkpt>
      <trkpt lat="44.7272" lon="7.06708">
        <ele>2647</ele>
        <time>2022-07-15T10:50:30Z</time>
      </trkpt>
      <trkpt lat="44.72722" lon="7.06703">
        <ele>2646</ele>
        <time>2022-07-15T10:50:36Z</time>
      </trkpt>
      <trkpt lat="44.72723" lon="7.06698">
        <ele>2646</ele>
        <time>2022-07-15T10:50:41Z</time>
      </trkpt>
      <trkpt lat="44.72723" lon="7.06693">
        <ele>2645</ele>
        <time>2022-07-15T10:50:47Z</time>
      </trkpt>
      <trkpt lat="44.72725" lon="7.06688">
        <ele>2645</ele>
        <time>2022-07-15T10:50:53Z</time>
      </trkpt>
      <trkpt lat="44.72726" lon="7.06683">
        <ele>2644</ele>
        <time>2022-07-15T10:50:59Z</time>
      </trkpt>
      <trkpt lat="44.72727" lon="7.06678">
        <ele>2644</ele>
        <time>2022-07-15T10:51:04Z</time>
      </trkpt>
      <trkpt lat="44.72727" lon="7.06673">
        <ele>2643</ele>
        <time>2022-07-15T10:51:10Z</time>
      </trkpt>
      <trkpt lat="44.72727" lon="7.06668">
        <ele>2642</ele>
        <time>2022-07-15T10:51:16Z</time>
      </trkpt>
      <trkpt lat="44.72734" lon="7.06643">
        <ele>2641</ele>
        <time>2022-07-15T10:51:43Z</time>
      </trkpt>
      <trkpt lat="44.72735" lon="7.06632">
        <ele>2639</ele>
        <time>2022-07-15T10:51:54Z</time>
      </trkpt>
      <trkpt lat="44.72736" lon="7.06627">
        <ele>2639</ele>
        <time>2022-07-15T10:51:59Z</time>
      </trkpt>
      <trkpt lat="44.72736" lon="7.06622">
        <ele>2639</ele>
        <time>2022-07-15T10:52:04Z</time>
      </trkpt>
      <trkpt lat="44.72736" lon="7.06617">
        <ele>2638</ele>
        <time>2022-07-15T10:52:11Z</time>
      </trkpt>
      <trkpt lat="44.72737" lon="7.06612">
        <ele>2637</ele>
        <time>2022-07-15T10:52:28Z</time>
      </trkpt>
      <trkpt lat="44.72737" lon="7.06607">
        <ele>2638</ele>
        <time>2022-07-15T10:52:34Z</time>
      </trkpt>
      <trkpt lat="44.72738" lon="7.06596">
        <ele>2636</ele>
        <time>2022-07-15T10:52:47Z</time>
      </trkpt>
      <trkpt lat="44.72736" lon="7.06591">
        <ele>2635</ele>
        <time>2022-07-15T10:52:51Z</time>
      </trkpt>
      <trkpt lat="44.72736" lon="7.06586">
        <ele>2637</ele>
        <time>2022-07-15T10:52:56Z</time>
      </trkpt>
      <trkpt lat="44.72733" lon="7.06589">
        <ele>2636</ele>
        <time>2022-07-15T10:53:03Z</time>
      </trkpt>
      <trkpt lat="44.72729" lon="7.06598">
        <ele>2634</ele>
        <time>2022-07-15T10:53:13Z</time>
      </trkpt>
      <trkpt lat="44.72726" lon="7.06601">
        <ele>2633</ele>
        <time>2022-07-15T10:53:18Z</time>
      </trkpt>
      <trkpt lat="44.72724" lon="7.06606">
        <ele>2631</ele>
        <time>2022-07-15T10:53:26Z</time>
      </trkpt>
      <trkpt lat="44.72719" lon="7.06612">
        <ele>2628</ele>
        <time>2022-07-15T10:53:38Z</time>
      </trkpt>
      <trkpt lat="44.72713" lon="7.06627">
        <ele>2624</ele>
        <time>2022-07-15T10:54:03Z</time>
      </trkpt>
      <trkpt lat="44.72705" lon="7.06636">
        <ele>2621</ele>
        <time>2022-07-15T10:54:19Z</time>
      </trkpt>
      <trkpt lat="44.72701" lon="7.06646">
        <ele>2619</ele>
        <time>2022-07-15T10:54:28Z</time>
      </trkpt>
      <trkpt lat="44.727" lon="7.06651">
        <ele>2619</ele>
        <time>2022-07-15T10:54:32Z</time>
      </trkpt>
      <trkpt lat="44.72694" lon="7.06659">
        <ele>2618</ele>
        <time>2022-07-15T10:54:42Z</time>
      </trkpt>
      <trkpt lat="44.72691" lon="7.06662">
        <ele>2618</ele>
        <time>2022-07-15T10:54:47Z</time>
      </trkpt>
      <trkpt lat="44.72685" lon="7.06669">
        <ele>2616</ele>
        <time>2022-07-15T10:54:55Z</time>
      </trkpt>
      <trkpt lat="44.72683" lon="7.06673">
        <ele>2614</ele>
        <time>2022-07-15T10:54:59Z</time>
      </trkpt>
      <trkpt lat="44.7268" lon="7.06676">
        <ele>2613</ele>
        <time>2022-07-15T10:55:04Z</time>
      </trkpt>
      <trkpt lat="44.72677" lon="7.06679">
        <ele>2612</ele>
        <time>2022-07-15T10:55:08Z</time>
      </trkpt>
      <trkpt lat="44.72674" lon="7.06681">
        <ele>2611</ele>
        <time>2022-07-15T10:55:14Z</time>
      </trkpt>
      <trkpt lat="44.72667" lon="7.06686">
        <ele>2611</ele>
        <time>2022-07-15T10:55:25Z</time>
      </trkpt>
      <trkpt lat="44.72664" lon="7.0669">
        <ele>2610</ele>
        <time>2022-07-15T10:55:31Z</time>
      </trkpt>
      <trkpt lat="44.72662" lon="7.06694">
        <ele>2609</ele>
        <time>2022-07-15T10:55:36Z</time>
      </trkpt>
      <trkpt lat="44.72659" lon="7.06697">
        <ele>2609</ele>
        <time>2022-07-15T10:55:41Z</time>
      </trkpt>
      <trkpt lat="44.72647" lon="7.0671">
        <ele>2606</ele>
        <time>2022-07-15T10:56:01Z</time>
      </trkpt>
      <trkpt lat="44.72645" lon="7.06713">
        <ele>2604</ele>
        <time>2022-07-15T10:56:06Z</time>
      </trkpt>
      <trkpt lat="44.72642" lon="7.06717">
        <ele>2604</ele>
        <time>2022-07-15T10:56:11Z</time>
      </trkpt>
      <trkpt lat="44.72639" lon="7.0672">
        <ele>2605</ele>
        <time>2022-07-15T10:56:17Z</time>
      </trkpt>
      <trkpt lat="44.72638" lon="7.06715">
        <ele>2605</ele>
        <time>2022-07-15T10:56:27Z</time>
      </trkpt>
      <trkpt lat="44.7264" lon="7.06711">
        <ele>2604</ele>
        <time>2022-07-15T10:56:33Z</time>
      </trkpt>
      <trkpt lat="44.72642" lon="7.06707">
        <ele>2602</ele>
        <time>2022-07-15T10:56:38Z</time>
      </trkpt>
      <trkpt lat="44.72647" lon="7.06693">
        <ele>2600</ele>
        <time>2022-07-15T10:56:53Z</time>
      </trkpt>
      <trkpt lat="44.72646" lon="7.06688">
        <ele>2599</ele>
        <time>2022-07-15T10:57:00Z</time>
      </trkpt>
      <trkpt lat="44.72646" lon="7.06682">
        <ele>2599</ele>
        <time>2022-07-15T10:57:05Z</time>
      </trkpt>
      <trkpt lat="44.72647" lon="7.06677">
        <ele>2599</ele>
        <time>2022-07-15T10:57:10Z</time>
      </trkpt>
      <trkpt lat="44.72647" lon="7.06673">
        <ele>2598</ele>
        <time>2022-07-15T10:57:15Z</time>
      </trkpt>
      <trkpt lat="44.72648" lon="7.06668">
        <ele>2597</ele>
        <time>2022-07-15T10:57:19Z</time>
      </trkpt>
      <trkpt lat="44.72651" lon="7.06653">
        <ele>2595</ele>
        <time>2022-07-15T10:57:32Z</time>
      </trkpt>
      <trkpt lat="44.72651" lon="7.06648">
        <ele>2596</ele>
        <time>2022-07-15T10:58:02Z</time>
      </trkpt>
      <trkpt lat="44.72652" lon="7.06642">
        <ele>2595</ele>
        <time>2022-07-15T10:58:06Z</time>
      </trkpt>
      <trkpt lat="44.72655" lon="7.06632">
        <ele>2592</ele>
        <time>2022-07-15T10:58:16Z</time>
      </trkpt>
      <trkpt lat="44.72657" lon="7.06627">
        <ele>2592</ele>
        <time>2022-07-15T10:58:21Z</time>
      </trkpt>
      <trkpt lat="44.72658" lon="7.06621">
        <ele>2590</ele>
        <time>2022-07-15T10:58:26Z</time>
      </trkpt>
      <trkpt lat="44.72655" lon="7.06618">
        <ele>2589</ele>
        <time>2022-07-15T10:58:32Z</time>
      </trkpt>
      <trkpt lat="44.72654" lon="7.06596">
        <ele>2586</ele>
        <time>2022-07-15T10:58:51Z</time>
      </trkpt>
      <trkpt lat="44.7265" lon="7.06597">
        <ele>2585</ele>
        <time>2022-07-15T10:58:58Z</time>
      </trkpt>
      <trkpt lat="44.72647" lon="7.06597">
        <ele>2584</ele>
        <time>2022-07-15T10:59:03Z</time>
      </trkpt>
      <trkpt lat="44.7264" lon="7.0659">
        <ele>2581</ele>
        <time>2022-07-15T10:59:15Z</time>
      </trkpt>
      <trkpt lat="44.72637" lon="7.0659">
        <ele>2579</ele>
        <time>2022-07-15T10:59:20Z</time>
      </trkpt>
      <trkpt lat="44.72633" lon="7.06591">
        <ele>2578</ele>
        <time>2022-07-15T10:59:26Z</time>
      </trkpt>
      <trkpt lat="44.72625" lon="7.06593">
        <ele>2573</ele>
        <time>2022-07-15T10:59:38Z</time>
      </trkpt>
      <trkpt lat="44.72621" lon="7.06595">
        <ele>2572</ele>
        <time>2022-07-15T10:59:43Z</time>
      </trkpt>
      <trkpt lat="44.72618" lon="7.06598">
        <ele>2571</ele>
        <time>2022-07-15T10:59:47Z</time>
      </trkpt>
      <trkpt lat="44.72615" lon="7.06601">
        <ele>2570</ele>
        <time>2022-07-15T10:59:55Z</time>
      </trkpt>
      <trkpt lat="44.72608" lon="7.06601">
        <ele>2568</ele>
        <time>2022-07-15T11:00:03Z</time>
      </trkpt>
      <trkpt lat="44.72604" lon="7.06601">
        <ele>2566</ele>
        <time>2022-07-15T11:00:08Z</time>
      </trkpt>
      <trkpt lat="44.726" lon="7.066">
        <ele>2565</ele>
        <time>2022-07-15T11:00:13Z</time>
      </trkpt>
      <trkpt lat="44.72597" lon="7.066">
        <ele>2563</ele>
        <time>2022-07-15T11:00:17Z</time>
      </trkpt>
      <trkpt lat="44.72592" lon="7.066">
        <ele>2563</ele>
        <time>2022-07-15T11:00:22Z</time>
      </trkpt>
      <trkpt lat="44.72589" lon="7.06599">
        <ele>2562</ele>
        <time>2022-07-15T11:00:26Z</time>
      </trkpt>
      <trkpt lat="44.72585" lon="7.066">
        <ele>2561</ele>
        <time>2022-07-15T11:00:30Z</time>
      </trkpt>
      <trkpt lat="44.72582" lon="7.06601">
        <ele>2561</ele>
        <time>2022-07-15T11:00:34Z</time>
      </trkpt>
      <trkpt lat="44.7257" lon="7.06603">
        <ele>2561</ele>
        <time>2022-07-15T11:00:56Z</time>
      </trkpt>
      <trkpt lat="44.72566" lon="7.066">
        <ele>2559</ele>
        <time>2022-07-15T11:01:01Z</time>
      </trkpt>
      <trkpt lat="44.72559" lon="7.06597">
        <ele>2557</ele>
        <time>2022-07-15T11:01:09Z</time>
      </trkpt>
      <trkpt lat="44.72543" lon="7.06595">
        <ele>2554</ele>
        <time>2022-07-15T11:01:27Z</time>
      </trkpt>
      <trkpt lat="44.7254" lon="7.06594">
        <ele>2553</ele>
        <time>2022-07-15T11:01:31Z</time>
      </trkpt>
      <trkpt lat="44.72532" lon="7.06596">
        <ele>2554</ele>
        <time>2022-07-15T11:01:41Z</time>
      </trkpt>
      <trkpt lat="44.72535" lon="7.06592">
        <ele>2554</ele>
        <time>2022-07-15T11:01:50Z</time>
      </trkpt>
      <trkpt lat="44.72539" lon="7.06592">
        <ele>2554</ele>
        <time>2022-07-15T11:01:55Z</time>
      </trkpt>
      <trkpt lat="44.72543" lon="7.06591">
        <ele>2554</ele>
        <time>2022-07-15T11:01:59Z</time>
      </trkpt>
      <trkpt lat="44.72546" lon="7.06589">
        <ele>2553</ele>
        <time>2022-07-15T11:02:03Z</time>
      </trkpt>
      <trkpt lat="44.72553" lon="7.06585">
        <ele>2554</ele>
        <time>2022-07-15T11:02:12Z</time>
      </trkpt>
      <trkpt lat="44.72553" lon="7.06575">
        <ele>2554</ele>
        <time>2022-07-15T11:02:25Z</time>
      </trkpt>
      <trkpt lat="44.72551" lon="7.0657">
        <ele>2554</ele>
        <time>2022-07-15T11:02:35Z</time>
      </trkpt>
      <trkpt lat="44.72551" lon="7.06564">
        <ele>2557</ele>
        <time>2022-07-15T11:02:53Z</time>
      </trkpt>
      <trkpt lat="44.72553" lon="7.0656">
        <ele>2556</ele>
        <time>2022-07-15T11:03:16Z</time>
      </trkpt>
      <trkpt lat="44.72551" lon="7.0657">
        <ele>2556</ele>
        <time>2022-07-15T11:21:03Z</time>
      </trkpt>
      <trkpt lat="44.72555" lon="7.06572">
        <ele>2559</ele>
        <time>2022-07-15T11:34:59Z</time>
      </trkpt>
      <trkpt lat="44.72558" lon="7.06575">
        <ele>2562</ele>
        <time>2022-07-15T11:35:05Z</time>
      </trkpt>
      <trkpt lat="44.72558" lon="7.06581">
        <ele>2563</ele>
        <time>2022-07-15T11:35:10Z</time>
      </trkpt>
      <trkpt lat="44.7256" lon="7.06584">
        <ele>2563</ele>
        <time>2022-07-15T11:35:16Z</time>
      </trkpt>
      <trkpt lat="44.72564" lon="7.06587">
        <ele>2562</ele>
        <time>2022-07-15T11:35:22Z</time>
      </trkpt>
      <trkpt lat="44.72567" lon="7.06588">
        <ele>2562</ele>
        <time>2022-07-15T11:35:30Z</time>
      </trkpt>
      <trkpt lat="44.72574" lon="7.06592">
        <ele>2561</ele>
        <time>2022-07-15T11:35:43Z</time>
      </trkpt>
      <trkpt lat="44.72577" lon="7.06594">
        <ele>2561</ele>
        <time>2022-07-15T11:35:49Z</time>
      </trkpt>
      <trkpt lat="44.72589" lon="7.06595">
        <ele>2562</ele>
        <time>2022-07-15T11:36:09Z</time>
      </trkpt>
      <trkpt lat="44.72593" lon="7.06596">
        <ele>2562</ele>
        <time>2022-07-15T11:36:16Z</time>
      </trkpt>
      <trkpt lat="44.726" lon="7.06596">
        <ele>2564</ele>
        <time>2022-07-15T11:36:38Z</time>
      </trkpt>
      <trkpt lat="44.72603" lon="7.06593">
        <ele>2565</ele>
        <time>2022-07-15T11:36:45Z</time>
      </trkpt>
      <trkpt lat="44.72603" lon="7.06588">
        <ele>2565</ele>
        <time>2022-07-15T11:36:52Z</time>
      </trkpt>
      <trkpt lat="44.72605" lon="7.06583">
        <ele>2566</ele>
        <time>2022-07-15T11:36:57Z</time>
      </trkpt>
      <trkpt lat="44.72608" lon="7.0658">
        <ele>2567</ele>
        <time>2022-07-15T11:37:02Z</time>
      </trkpt>
      <trkpt lat="44.72611" lon="7.06577">
        <ele>2568</ele>
        <time>2022-07-15T11:37:08Z</time>
      </trkpt>
      <trkpt lat="44.72621" lon="7.06562">
        <ele>2570</ele>
        <time>2022-07-15T11:37:28Z</time>
      </trkpt>
      <trkpt lat="44.72622" lon="7.06558">
        <ele>2570</ele>
        <time>2022-07-15T11:37:40Z</time>
      </trkpt>
      <trkpt lat="44.72626" lon="7.0655">
        <ele>2570</ele>
        <time>2022-07-15T11:37:50Z</time>
      </trkpt>
      <trkpt lat="44.72629" lon="7.06546">
        <ele>2571</ele>
        <time>2022-07-15T11:37:56Z</time>
      </trkpt>
      <trkpt lat="44.72632" lon="7.06542">
        <ele>2572</ele>
        <time>2022-07-15T11:38:02Z</time>
      </trkpt>
      <trkpt lat="44.72631" lon="7.06536">
        <ele>2574</ele>
        <time>2022-07-15T11:38:25Z</time>
      </trkpt>
      <trkpt lat="44.72629" lon="7.06534">
        <ele>2574</ele>
        <time>2022-07-15T11:38:29Z</time>
      </trkpt>
      <trkpt lat="44.72632" lon="7.0653">
        <ele>2575</ele>
        <time>2022-07-15T11:38:35Z</time>
      </trkpt>
      <trkpt lat="44.72635" lon="7.06526">
        <ele>2575</ele>
        <time>2022-07-15T11:39:01Z</time>
      </trkpt>
      <trkpt lat="44.72637" lon="7.06523">
        <ele>2575</ele>
        <time>2022-07-15T11:39:06Z</time>
      </trkpt>
      <trkpt lat="44.72647" lon="7.06507">
        <ele>2575</ele>
        <time>2022-07-15T11:39:25Z</time>
      </trkpt>
      <trkpt lat="44.7265" lon="7.06497">
        <ele>2575</ele>
        <time>2022-07-15T11:39:35Z</time>
      </trkpt>
      <trkpt lat="44.72652" lon="7.06492">
        <ele>2575</ele>
        <time>2022-07-15T11:39:40Z</time>
      </trkpt>
      <trkpt lat="44.72654" lon="7.06471">
        <ele>2575</ele>
        <time>2022-07-15T11:40:06Z</time>
      </trkpt>
      <trkpt lat="44.72656" lon="7.06467">
        <ele>2575</ele>
        <time>2022-07-15T11:40:15Z</time>
      </trkpt>
      <trkpt lat="44.72659" lon="7.06464">
        <ele>2575</ele>
        <time>2022-07-15T11:40:25Z</time>
      </trkpt>
      <trkpt lat="44.7266" lon="7.06459">
        <ele>2576</ele>
        <time>2022-07-15T11:40:31Z</time>
      </trkpt>
      <trkpt lat="44.72659" lon="7.06454">
        <ele>2576</ele>
        <time>2022-07-15T11:40:37Z</time>
      </trkpt>
      <trkpt lat="44.72658" lon="7.06449">
        <ele>2579</ele>
        <time>2022-07-15T11:41:29Z</time>
      </trkpt>
      <trkpt lat="44.72659" lon="7.06444">
        <ele>2579</ele>
        <time>2022-07-15T11:41:35Z</time>
      </trkpt>
      <trkpt lat="44.72656" lon="7.06441">
        <ele>2579</ele>
        <time>2022-07-15T11:41:54Z</time>
      </trkpt>
      <trkpt lat="44.72653" lon="7.06437">
        <ele>2580</ele>
        <time>2022-07-15T11:42:00Z</time>
      </trkpt>
      <trkpt lat="44.72652" lon="7.06433">
        <ele>2581</ele>
        <time>2022-07-15T11:42:06Z</time>
      </trkpt>
      <trkpt lat="44.72652" lon="7.06428">
        <ele>2581</ele>
        <time>2022-07-15T11:42:12Z</time>
      </trkpt>
      <trkpt lat="44.72651" lon="7.06422">
        <ele>2581</ele>
        <time>2022-07-15T11:42:18Z</time>
      </trkpt>
      <trkpt lat="44.72654" lon="7.06407">
        <ele>2581</ele>
        <time>2022-07-15T11:42:35Z</time>
      </trkpt>
      <trkpt lat="44.72657" lon="7.06377">
        <ele>2584</ele>
        <time>2022-07-15T11:43:04Z</time>
      </trkpt>
      <trkpt lat="44.7266" lon="7.06368">
        <ele>2583</ele>
        <time>2022-07-15T11:43:14Z</time>
      </trkpt>
      <trkpt lat="44.72663" lon="7.06365">
        <ele>2581</ele>
        <time>2022-07-15T11:43:19Z</time>
      </trkpt>
      <trkpt lat="44.72665" lon="7.0636">
        <ele>2581</ele>
        <time>2022-07-15T11:43:37Z</time>
      </trkpt>
      <trkpt lat="44.72667" lon="7.06356">
        <ele>2581</ele>
        <time>2022-07-15T11:43:44Z</time>
      </trkpt>
      <trkpt lat="44.72669" lon="7.06346">
        <ele>2581</ele>
        <time>2022-07-15T11:43:58Z</time>
      </trkpt>
      <trkpt lat="44.72675" lon="7.06338">
        <ele>2581</ele>
        <time>2022-07-15T11:44:08Z</time>
      </trkpt>
      <trkpt lat="44.72672" lon="7.06334">
        <ele>2580</ele>
        <time>2022-07-15T11:44:16Z</time>
      </trkpt>
      <trkpt lat="44.72669" lon="7.06332">
        <ele>2580</ele>
        <time>2022-07-15T11:44:22Z</time>
      </trkpt>
      <trkpt lat="44.72667" lon="7.06327">
        <ele>2579</ele>
        <time>2022-07-15T11:44:27Z</time>
      </trkpt>
      <trkpt lat="44.72667" lon="7.06322">
        <ele>2578</ele>
        <time>2022-07-15T11:44:32Z</time>
      </trkpt>
      <trkpt lat="44.7267" lon="7.06318">
        <ele>2577</ele>
        <time>2022-07-15T11:44:37Z</time>
      </trkpt>
      <trkpt lat="44.7267" lon="7.06313">
        <ele>2576</ele>
        <time>2022-07-15T11:44:42Z</time>
      </trkpt>
      <trkpt lat="44.72669" lon="7.06308">
        <ele>2576</ele>
        <time>2022-07-15T11:44:47Z</time>
      </trkpt>
      <trkpt lat="44.72668" lon="7.06303">
        <ele>2576</ele>
        <time>2022-07-15T11:44:51Z</time>
      </trkpt>
      <trkpt lat="44.72658" lon="7.06276">
        <ele>2573</ele>
        <time>2022-07-15T11:45:18Z</time>
      </trkpt>
      <trkpt lat="44.72658" lon="7.06271">
        <ele>2572</ele>
        <time>2022-07-15T11:45:22Z</time>
      </trkpt>
      <trkpt lat="44.72661" lon="7.06261">
        <ele>2572</ele>
        <time>2022-07-15T11:45:36Z</time>
      </trkpt>
      <trkpt lat="44.72662" lon="7.06246">
        <ele>2572</ele>
        <time>2022-07-15T11:45:49Z</time>
      </trkpt>
      <trkpt lat="44.72662" lon="7.06241">
        <ele>2572</ele>
        <time>2022-07-15T11:45:54Z</time>
      </trkpt>
      <trkpt lat="44.72661" lon="7.06235">
        <ele>2572</ele>
        <time>2022-07-15T11:46:29Z</time>
      </trkpt>
      <trkpt lat="44.72658" lon="7.06233">
        <ele>2572</ele>
        <time>2022-07-15T11:46:35Z</time>
      </trkpt>
      <trkpt lat="44.72655" lon="7.06229">
        <ele>2572</ele>
        <time>2022-07-15T11:46:43Z</time>
      </trkpt>
      <trkpt lat="44.72654" lon="7.06224">
        <ele>2571</ele>
        <time>2022-07-15T11:46:57Z</time>
      </trkpt>
      <trkpt lat="44.72655" lon="7.06219">
        <ele>2570</ele>
        <time>2022-07-15T11:47:02Z</time>
      </trkpt>
      <trkpt lat="44.72657" lon="7.06214">
        <ele>2570</ele>
        <time>2022-07-15T11:47:06Z</time>
      </trkpt>
      <trkpt lat="44.72658" lon="7.0621">
        <ele>2569</ele>
        <time>2022-07-15T11:47:10Z</time>
      </trkpt>
      <trkpt lat="44.72658" lon="7.06204">
        <ele>2568</ele>
        <time>2022-07-15T11:47:16Z</time>
      </trkpt>
      <trkpt lat="44.72659" lon="7.062">
        <ele>2567</ele>
        <time>2022-07-15T11:47:20Z</time>
      </trkpt>
      <trkpt lat="44.7266" lon="7.06195">
        <ele>2566</ele>
        <time>2022-07-15T11:47:25Z</time>
      </trkpt>
      <trkpt lat="44.72659" lon="7.06189">
        <ele>2565</ele>
        <time>2022-07-15T11:47:32Z</time>
      </trkpt>
      <trkpt lat="44.72655" lon="7.06189">
        <ele>2564</ele>
        <time>2022-07-15T11:47:39Z</time>
      </trkpt>
      <trkpt lat="44.72653" lon="7.06185">
        <ele>2561</ele>
        <time>2022-07-15T11:47:52Z</time>
      </trkpt>
      <trkpt lat="44.72657" lon="7.06165">
        <ele>2558</ele>
        <time>2022-07-15T11:48:17Z</time>
      </trkpt>
      <trkpt lat="44.72655" lon="7.06161">
        <ele>2557</ele>
        <time>2022-07-15T11:48:24Z</time>
      </trkpt>
      <trkpt lat="44.72653" lon="7.06157">
        <ele>2556</ele>
        <time>2022-07-15T11:49:06Z</time>
      </trkpt>
      <trkpt lat="44.7265" lon="7.06157">
        <ele>2555</ele>
        <time>2022-07-15T11:50:24Z</time>
      </trkpt>
      <trkpt lat="44.72646" lon="7.06155">
        <ele>2554</ele>
        <time>2022-07-15T11:50:31Z</time>
      </trkpt>
      <trkpt lat="44.72643" lon="7.06152">
        <ele>2553</ele>
        <time>2022-07-15T11:50:37Z</time>
      </trkpt>
      <trkpt lat="44.72644" lon="7.06147">
        <ele>2552</ele>
        <time>2022-07-15T11:50:41Z</time>
      </trkpt>
      <trkpt lat="44.72648" lon="7.06145">
        <ele>2551</ele>
        <time>2022-07-15T11:50:45Z</time>
      </trkpt>
      <trkpt lat="44.7265" lon="7.06141">
        <ele>2550</ele>
        <time>2022-07-15T11:50:49Z</time>
      </trkpt>
      <trkpt lat="44.72653" lon="7.06137">
        <ele>2549</ele>
        <time>2022-07-15T11:50:54Z</time>
      </trkpt>
      <trkpt lat="44.72654" lon="7.06133">
        <ele>2548</ele>
        <time>2022-07-15T11:51:00Z</time>
      </trkpt>
      <trkpt lat="44.72652" lon="7.06129">
        <ele>2547</ele>
        <time>2022-07-15T11:51:05Z</time>
      </trkpt>
      <trkpt lat="44.72654" lon="7.06124">
        <ele>2546</ele>
        <time>2022-07-15T11:51:10Z</time>
      </trkpt>
      <trkpt lat="44.72654" lon="7.06119">
        <ele>2545</ele>
        <time>2022-07-15T11:51:14Z</time>
      </trkpt>
      <trkpt lat="44.72654" lon="7.06109">
        <ele>2544</ele>
        <time>2022-07-15T11:51:23Z</time>
      </trkpt>
      <trkpt lat="44.72654" lon="7.06103">
        <ele>2544</ele>
        <time>2022-07-15T11:51:27Z</time>
      </trkpt>
      <trkpt lat="44.72654" lon="7.06098">
        <ele>2544</ele>
        <time>2022-07-15T11:51:32Z</time>
      </trkpt>
      <trkpt lat="44.72654" lon="7.06093">
        <ele>2544</ele>
        <time>2022-07-15T11:51:35Z</time>
      </trkpt>
      <trkpt lat="44.72653" lon="7.06082">
        <ele>2545</ele>
        <time>2022-07-15T11:51:44Z</time>
      </trkpt>
      <trkpt lat="44.72651" lon="7.06051">
        <ele>2541</ele>
        <time>2022-07-15T11:52:08Z</time>
      </trkpt>
      <trkpt lat="44.72653" lon="7.06046">
        <ele>2541</ele>
        <time>2022-07-15T11:52:12Z</time>
      </trkpt>
      <trkpt lat="44.72654" lon="7.06041">
        <ele>2541</ele>
        <time>2022-07-15T11:52:16Z</time>
      </trkpt>
      <trkpt lat="44.72654" lon="7.06036">
        <ele>2540</ele>
        <time>2022-07-15T11:52:20Z</time>
      </trkpt>
      <trkpt lat="44.72656" lon="7.0603">
        <ele>2540</ele>
        <time>2022-07-15T11:52:24Z</time>
      </trkpt>
      <trkpt lat="44.72657" lon="7.06024">
        <ele>2541</ele>
        <time>2022-07-15T11:53:05Z</time>
      </trkpt>
      <trkpt lat="44.72659" lon="7.0602">
        <ele>2540</ele>
        <time>2022-07-15T11:53:09Z</time>
      </trkpt>
      <trkpt lat="44.72657" lon="7.06016">
        <ele>2539</ele>
        <time>2022-07-15T11:53:13Z</time>
      </trkpt>
      <trkpt lat="44.72655" lon="7.06012">
        <ele>2539</ele>
        <time>2022-07-15T11:53:18Z</time>
      </trkpt>
      <trkpt lat="44.72652" lon="7.05996">
        <ele>2537</ele>
        <time>2022-07-15T11:53:33Z</time>
      </trkpt>
      <trkpt lat="44.72652" lon="7.05985">
        <ele>2537</ele>
        <time>2022-07-15T11:53:42Z</time>
      </trkpt>
      <trkpt lat="44.72653" lon="7.05974">
        <ele>2536</ele>
        <time>2022-07-15T11:53:51Z</time>
      </trkpt>
      <trkpt lat="44.72652" lon="7.05959">
        <ele>2534</ele>
        <time>2022-07-15T11:54:03Z</time>
      </trkpt>
      <trkpt lat="44.72651" lon="7.05954">
        <ele>2533</ele>
        <time>2022-07-15T11:54:08Z</time>
      </trkpt>
      <trkpt lat="44.72648" lon="7.05945">
        <ele>2532</ele>
        <time>2022-07-15T11:54:16Z</time>
      </trkpt>
      <trkpt lat="44.72646" lon="7.0594">
        <ele>2532</ele>
        <time>2022-07-15T11:54:21Z</time>
      </trkpt>
      <trkpt lat="44.72645" lon="7.05935">
        <ele>2532</ele>
        <time>2022-07-15T11:54:26Z</time>
      </trkpt>
      <trkpt lat="44.72646" lon="7.0591">
        <ele>2530</ele>
        <time>2022-07-15T11:54:48Z</time>
      </trkpt>
      <trkpt lat="44.72647" lon="7.05905">
        <ele>2529</ele>
        <time>2022-07-15T11:54:54Z</time>
      </trkpt>
      <trkpt lat="44.72651" lon="7.0589">
        <ele>2528</ele>
        <time>2022-07-15T11:55:12Z</time>
      </trkpt>
      <trkpt lat="44.72651" lon="7.05886">
        <ele>2527</ele>
        <time>2022-07-15T11:55:16Z</time>
      </trkpt>
      <trkpt lat="44.72651" lon="7.05881">
        <ele>2527</ele>
        <time>2022-07-15T11:55:20Z</time>
      </trkpt>
      <trkpt lat="44.72653" lon="7.05871">
        <ele>2526</ele>
        <time>2022-07-15T11:55:28Z</time>
      </trkpt>
      <trkpt lat="44.72654" lon="7.05866">
        <ele>2524</ele>
        <time>2022-07-15T11:55:32Z</time>
      </trkpt>
      <trkpt lat="44.72656" lon="7.05856">
        <ele>2522</ele>
        <time>2022-07-15T11:55:40Z</time>
      </trkpt>
      <trkpt lat="44.72655" lon="7.0585">
        <ele>2522</ele>
        <time>2022-07-15T11:55:45Z</time>
      </trkpt>
      <trkpt lat="44.72656" lon="7.05845">
        <ele>2521</ele>
        <time>2022-07-15T11:55:49Z</time>
      </trkpt>
      <trkpt lat="44.72657" lon="7.0584">
        <ele>2520</ele>
        <time>2022-07-15T11:55:53Z</time>
      </trkpt>
      <trkpt lat="44.72663" lon="7.05804">
        <ele>2514</ele>
        <time>2022-07-15T11:56:22Z</time>
      </trkpt>
      <trkpt lat="44.72662" lon="7.05788">
        <ele>2515</ele>
        <time>2022-07-15T11:56:34Z</time>
      </trkpt>
      <trkpt lat="44.72661" lon="7.05783">
        <ele>2515</ele>
        <time>2022-07-15T11:56:40Z</time>
      </trkpt>
      <trkpt lat="44.72662" lon="7.05778">
        <ele>2514</ele>
        <time>2022-07-15T11:56:46Z</time>
      </trkpt>
      <trkpt lat="44.72664" lon="7.05768">
        <ele>2512</ele>
        <time>2022-07-15T11:57:14Z</time>
      </trkpt>
      <trkpt lat="44.72663" lon="7.05764">
        <ele>2512</ele>
        <time>2022-07-15T11:57:17Z</time>
      </trkpt>
      <trkpt lat="44.72669" lon="7.05751">
        <ele>2509</ele>
        <time>2022-07-15T11:57:31Z</time>
      </trkpt>
      <trkpt lat="44.72682" lon="7.05723">
        <ele>2504</ele>
        <time>2022-07-15T11:57:59Z</time>
      </trkpt>
      <trkpt lat="44.72682" lon="7.05718">
        <ele>2504</ele>
        <time>2022-07-15T11:58:04Z</time>
      </trkpt>
      <trkpt lat="44.72685" lon="7.05707">
        <ele>2504</ele>
        <time>2022-07-15T11:58:12Z</time>
      </trkpt>
      <trkpt lat="44.72691" lon="7.05694">
        <ele>2501</ele>
        <time>2022-07-15T11:58:25Z</time>
      </trkpt>
      <trkpt lat="44.72692" lon="7.05689">
        <ele>2501</ele>
        <time>2022-07-15T11:58:29Z</time>
      </trkpt>
      <trkpt lat="44.72694" lon="7.05674">
        <ele>2501</ele>
        <time>2022-07-15T11:58:41Z</time>
      </trkpt>
      <trkpt lat="44.72693" lon="7.05669">
        <ele>2501</ele>
        <time>2022-07-15T11:58:46Z</time>
      </trkpt>
      <trkpt lat="44.72691" lon="7.05664">
        <ele>2501</ele>
        <time>2022-07-15T11:58:51Z</time>
      </trkpt>
      <trkpt lat="44.7269" lon="7.0566">
        <ele>2502</ele>
        <time>2022-07-15T11:58:55Z</time>
      </trkpt>
      <trkpt lat="44.7269" lon="7.05655">
        <ele>2502</ele>
        <time>2022-07-15T11:59:00Z</time>
      </trkpt>
      <trkpt lat="44.72691" lon="7.0565">
        <ele>2502</ele>
        <time>2022-07-15T11:59:13Z</time>
      </trkpt>
      <trkpt lat="44.72693" lon="7.05646">
        <ele>2501</ele>
        <time>2022-07-15T11:59:21Z</time>
      </trkpt>
      <trkpt lat="44.72697" lon="7.05643">
        <ele>2501</ele>
        <time>2022-07-15T11:59:44Z</time>
      </trkpt>
      <trkpt lat="44.72698" lon="7.05637">
        <ele>2502</ele>
        <time>2022-07-15T11:59:50Z</time>
      </trkpt>
      <trkpt lat="44.727" lon="7.05633">
        <ele>2501</ele>
        <time>2022-07-15T12:00:00Z</time>
      </trkpt>
      <trkpt lat="44.727" lon="7.05628">
        <ele>2500</ele>
        <time>2022-07-15T12:00:05Z</time>
      </trkpt>
      <trkpt lat="44.72701" lon="7.05623">
        <ele>2499</ele>
        <time>2022-07-15T12:00:09Z</time>
      </trkpt>
      <trkpt lat="44.727" lon="7.05618">
        <ele>2499</ele>
        <time>2022-07-15T12:00:13Z</time>
      </trkpt>
      <trkpt lat="44.72703" lon="7.05613">
        <ele>2499</ele>
        <time>2022-07-15T12:00:17Z</time>
      </trkpt>
      <trkpt lat="44.72702" lon="7.05603">
        <ele>2498</ele>
        <time>2022-07-15T12:00:25Z</time>
      </trkpt>
      <trkpt lat="44.72704" lon="7.05586">
        <ele>2497</ele>
        <time>2022-07-15T12:00:37Z</time>
      </trkpt>
      <trkpt lat="44.72705" lon="7.05582">
        <ele>2496</ele>
        <time>2022-07-15T12:00:41Z</time>
      </trkpt>
      <trkpt lat="44.72707" lon="7.05571">
        <ele>2495</ele>
        <time>2022-07-15T12:00:49Z</time>
      </trkpt>
      <trkpt lat="44.72709" lon="7.05566">
        <ele>2495</ele>
        <time>2022-07-15T12:00:53Z</time>
      </trkpt>
      <trkpt lat="44.72712" lon="7.05562">
        <ele>2496</ele>
        <time>2022-07-15T12:00:58Z</time>
      </trkpt>
      <trkpt lat="44.72714" lon="7.05557">
        <ele>2496</ele>
        <time>2022-07-15T12:01:03Z</time>
      </trkpt>
      <trkpt lat="44.72715" lon="7.05552">
        <ele>2496</ele>
        <time>2022-07-15T12:01:08Z</time>
      </trkpt>
      <trkpt lat="44.72714" lon="7.05541">
        <ele>2497</ele>
        <time>2022-07-15T12:01:17Z</time>
      </trkpt>
      <trkpt lat="44.72719" lon="7.05511">
        <ele>2496</ele>
        <time>2022-07-15T12:01:41Z</time>
      </trkpt>
      <trkpt lat="44.72715" lon="7.05495">
        <ele>2495</ele>
        <time>2022-07-15T12:01:53Z</time>
      </trkpt>
      <trkpt lat="44.72715" lon="7.0549">
        <ele>2494</ele>
        <time>2022-07-15T12:02:07Z</time>
      </trkpt>
      <trkpt lat="44.72713" lon="7.0548">
        <ele>2495</ele>
        <time>2022-07-15T12:02:16Z</time>
      </trkpt>
      <trkpt lat="44.72713" lon="7.05475">
        <ele>2495</ele>
        <time>2022-07-15T12:02:22Z</time>
      </trkpt>
      <trkpt lat="44.72715" lon="7.05469">
        <ele>2496</ele>
        <time>2022-07-15T12:04:33Z</time>
      </trkpt>
      <trkpt lat="44.72714" lon="7.05443">
        <ele>2496</ele>
        <time>2022-07-15T12:04:58Z</time>
      </trkpt>
      <trkpt lat="44.72714" lon="7.05437">
        <ele>2496</ele>
        <time>2022-07-15T12:05:02Z</time>
      </trkpt>
      <trkpt lat="44.72716" lon="7.05433">
        <ele>2497</ele>
        <time>2022-07-15T12:05:20Z</time>
      </trkpt>
      <trkpt lat="44.72718" lon="7.05428">
        <ele>2497</ele>
        <time>2022-07-15T12:05:26Z</time>
      </trkpt>
      <trkpt lat="44.7272" lon="7.05425">
        <ele>2496</ele>
        <time>2022-07-15T12:05:31Z</time>
      </trkpt>
      <trkpt lat="44.72733" lon="7.05398">
        <ele>2495</ele>
        <time>2022-07-15T12:05:55Z</time>
      </trkpt>
      <trkpt lat="44.72736" lon="7.05395">
        <ele>2494</ele>
        <time>2022-07-15T12:05:59Z</time>
      </trkpt>
      <trkpt lat="44.72738" lon="7.05391">
        <ele>2494</ele>
        <time>2022-07-15T12:06:03Z</time>
      </trkpt>
      <trkpt lat="44.7274" lon="7.05386">
        <ele>2493</ele>
        <time>2022-07-15T12:06:07Z</time>
      </trkpt>
      <trkpt lat="44.72743" lon="7.05382">
        <ele>2493</ele>
        <time>2022-07-15T12:06:11Z</time>
      </trkpt>
      <trkpt lat="44.72746" lon="7.05381">
        <ele>2492</ele>
        <time>2022-07-15T12:06:15Z</time>
      </trkpt>
      <trkpt lat="44.72753" lon="7.05376">
        <ele>2491</ele>
        <time>2022-07-15T12:06:24Z</time>
      </trkpt>
      <trkpt lat="44.72756" lon="7.05371">
        <ele>2490</ele>
        <time>2022-07-15T12:06:29Z</time>
      </trkpt>
      <trkpt lat="44.72764" lon="7.05347">
        <ele>2487</ele>
        <time>2022-07-15T12:06:50Z</time>
      </trkpt>
      <trkpt lat="44.72767" lon="7.05344">
        <ele>2485</ele>
        <time>2022-07-15T12:07:21Z</time>
      </trkpt>
      <trkpt lat="44.72769" lon="7.05338">
        <ele>2485</ele>
        <time>2022-07-15T12:07:26Z</time>
      </trkpt>
      <trkpt lat="44.72769" lon="7.05323">
        <ele>2485</ele>
        <time>2022-07-15T12:07:40Z</time>
      </trkpt>
      <trkpt lat="44.72768" lon="7.05311">
        <ele>2484</ele>
        <time>2022-07-15T12:07:50Z</time>
      </trkpt>
      <trkpt lat="44.72768" lon="7.05306">
        <ele>2484</ele>
        <time>2022-07-15T12:07:55Z</time>
      </trkpt>
      <trkpt lat="44.72766" lon="7.05302">
        <ele>2484</ele>
        <time>2022-07-15T12:08:00Z</time>
      </trkpt>
      <trkpt lat="44.72764" lon="7.05297">
        <ele>2484</ele>
        <time>2022-07-15T12:08:05Z</time>
      </trkpt>
      <trkpt lat="44.72764" lon="7.05292">
        <ele>2483</ele>
        <time>2022-07-15T12:08:10Z</time>
      </trkpt>
      <trkpt lat="44.72765" lon="7.05287">
        <ele>2482</ele>
        <time>2022-07-15T12:08:15Z</time>
      </trkpt>
      <trkpt lat="44.72768" lon="7.05283">
        <ele>2481</ele>
        <time>2022-07-15T12:08:30Z</time>
      </trkpt>
      <trkpt lat="44.72767" lon="7.05277">
        <ele>2481</ele>
        <time>2022-07-15T12:08:36Z</time>
      </trkpt>
      <trkpt lat="44.72771" lon="7.05275">
        <ele>2479</ele>
        <time>2022-07-15T12:08:42Z</time>
      </trkpt>
      <trkpt lat="44.72775" lon="7.05274">
        <ele>2478</ele>
        <time>2022-07-15T12:08:48Z</time>
      </trkpt>
      <trkpt lat="44.72771" lon="7.05254">
        <ele>2474</ele>
        <time>2022-07-15T12:09:06Z</time>
      </trkpt>
      <trkpt lat="44.7277" lon="7.05249">
        <ele>2474</ele>
        <time>2022-07-15T12:09:11Z</time>
      </trkpt>
      <trkpt lat="44.72765" lon="7.05242">
        <ele>2473</ele>
        <time>2022-07-15T12:09:20Z</time>
      </trkpt>
      <trkpt lat="44.72762" lon="7.05238">
        <ele>2473</ele>
        <time>2022-07-15T12:09:26Z</time>
      </trkpt>
      <trkpt lat="44.72763" lon="7.05233">
        <ele>2472</ele>
        <time>2022-07-15T12:09:35Z</time>
      </trkpt>
      <trkpt lat="44.72772" lon="7.05223">
        <ele>2470</ele>
        <time>2022-07-15T12:09:50Z</time>
      </trkpt>
      <trkpt lat="44.72766" lon="7.05217">
        <ele>2469</ele>
        <time>2022-07-15T12:10:01Z</time>
      </trkpt>
      <trkpt lat="44.72768" lon="7.05213">
        <ele>2468</ele>
        <time>2022-07-15T12:10:09Z</time>
      </trkpt>
      <trkpt lat="44.72768" lon="7.05207">
        <ele>2466</ele>
        <time>2022-07-15T12:10:15Z</time>
      </trkpt>
      <trkpt lat="44.72765" lon="7.05207">
        <ele>2466</ele>
        <time>2022-07-15T12:10:20Z</time>
      </trkpt>
      <trkpt lat="44.72762" lon="7.05204">
        <ele>2465</ele>
        <time>2022-07-15T12:10:24Z</time>
      </trkpt>
      <trkpt lat="44.72762" lon="7.05199">
        <ele>2464</ele>
        <time>2022-07-15T12:10:28Z</time>
      </trkpt>
      <trkpt lat="44.72765" lon="7.05195">
        <ele>2463</ele>
        <time>2022-07-15T12:10:33Z</time>
      </trkpt>
      <trkpt lat="44.72764" lon="7.0519">
        <ele>2462</ele>
        <time>2022-07-15T12:10:46Z</time>
      </trkpt>
      <trkpt lat="44.72757" lon="7.05186">
        <ele>2460</ele>
        <time>2022-07-15T12:10:56Z</time>
      </trkpt>
      <trkpt lat="44.72755" lon="7.05183">
        <ele>2459</ele>
        <time>2022-07-15T12:11:01Z</time>
      </trkpt>
      <trkpt lat="44.72757" lon="7.05179">
        <ele>2458</ele>
        <time>2022-07-15T12:11:05Z</time>
      </trkpt>
      <trkpt lat="44.7276" lon="7.05169">
        <ele>2458</ele>
        <time>2022-07-15T12:11:15Z</time>
      </trkpt>
      <trkpt lat="44.72761" lon="7.05164">
        <ele>2457</ele>
        <time>2022-07-15T12:11:20Z</time>
      </trkpt>
      <trkpt lat="44.72764" lon="7.05161">
        <ele>2456</ele>
        <time>2022-07-15T12:11:25Z</time>
      </trkpt>
      <trkpt lat="44.72772" lon="7.05159">
        <ele>2455</ele>
        <time>2022-07-15T12:11:35Z</time>
      </trkpt>
      <trkpt lat="44.72774" lon="7.05155">
        <ele>2454</ele>
        <time>2022-07-15T12:11:40Z</time>
      </trkpt>
      <trkpt lat="44.72775" lon="7.0515">
        <ele>2452</ele>
        <time>2022-07-15T12:11:46Z</time>
      </trkpt>
      <trkpt lat="44.72786" lon="7.05145">
        <ele>2450</ele>
        <time>2022-07-15T12:12:01Z</time>
      </trkpt>
      <trkpt lat="44.72789" lon="7.05143">
        <ele>2450</ele>
        <time>2022-07-15T12:12:05Z</time>
      </trkpt>
      <trkpt lat="44.72789" lon="7.05138">
        <ele>2450</ele>
        <time>2022-07-15T12:12:10Z</time>
      </trkpt>
      <trkpt lat="44.72789" lon="7.05132">
        <ele>2449</ele>
        <time>2022-07-15T12:12:15Z</time>
      </trkpt>
      <trkpt lat="44.72791" lon="7.05127">
        <ele>2448</ele>
        <time>2022-07-15T12:12:20Z</time>
      </trkpt>
      <trkpt lat="44.72793" lon="7.05121">
        <ele>2447</ele>
        <time>2022-07-15T12:12:29Z</time>
      </trkpt>
      <trkpt lat="44.72796" lon="7.05121">
        <ele>2445</ele>
        <time>2022-07-15T12:12:35Z</time>
      </trkpt>
      <trkpt lat="44.728" lon="7.05117">
        <ele>2444</ele>
        <time>2022-07-15T12:12:41Z</time>
      </trkpt>
      <trkpt lat="44.72798" lon="7.05113">
        <ele>2444</ele>
        <time>2022-07-15T12:12:47Z</time>
      </trkpt>
      <trkpt lat="44.72795" lon="7.05114">
        <ele>2444</ele>
        <time>2022-07-15T12:12:52Z</time>
      </trkpt>
      <trkpt lat="44.72791" lon="7.05112">
        <ele>2443</ele>
        <time>2022-07-15T12:12:58Z</time>
      </trkpt>
      <trkpt lat="44.72792" lon="7.05107">
        <ele>2443</ele>
        <time>2022-07-15T12:13:03Z</time>
      </trkpt>
      <trkpt lat="44.72789" lon="7.05104">
        <ele>2440</ele>
        <time>2022-07-15T12:13:12Z</time>
      </trkpt>
      <trkpt lat="44.72786" lon="7.05107">
        <ele>2439</ele>
        <time>2022-07-15T12:13:16Z</time>
      </trkpt>
      <trkpt lat="44.72786" lon="7.05101">
        <ele>2439</ele>
        <time>2022-07-15T12:13:28Z</time>
      </trkpt>
      <trkpt lat="44.72787" lon="7.05096">
        <ele>2438</ele>
        <time>2022-07-15T12:13:32Z</time>
      </trkpt>
      <trkpt lat="44.7279" lon="7.05092">
        <ele>2437</ele>
        <time>2022-07-15T12:13:36Z</time>
      </trkpt>
      <trkpt lat="44.72789" lon="7.05081">
        <ele>2436</ele>
        <time>2022-07-15T12:13:44Z</time>
      </trkpt>
      <trkpt lat="44.72787" lon="7.0507">
        <ele>2436</ele>
        <time>2022-07-15T12:13:53Z</time>
      </trkpt>
      <trkpt lat="44.72786" lon="7.05065">
        <ele>2436</ele>
        <time>2022-07-15T12:13:58Z</time>
      </trkpt>
      <trkpt lat="44.72783" lon="7.05062">
        <ele>2434</ele>
        <time>2022-07-15T12:14:04Z</time>
      </trkpt>
      <trkpt lat="44.7278" lon="7.0506">
        <ele>2433</ele>
        <time>2022-07-15T12:14:09Z</time>
      </trkpt>
      <trkpt lat="44.7278" lon="7.05055">
        <ele>2432</ele>
        <time>2022-07-15T12:14:14Z</time>
      </trkpt>
      <trkpt lat="44.72783" lon="7.05051">
        <ele>2430</ele>
        <time>2022-07-15T12:14:18Z</time>
      </trkpt>
      <trkpt lat="44.72783" lon="7.05045">
        <ele>2429</ele>
        <time>2022-07-15T12:14:23Z</time>
      </trkpt>
      <trkpt lat="44.72777" lon="7.05039">
        <ele>2429</ele>
        <time>2022-07-15T12:14:33Z</time>
      </trkpt>
      <trkpt lat="44.72773" lon="7.05038">
        <ele>2428</ele>
        <time>2022-07-15T12:14:38Z</time>
      </trkpt>
      <trkpt lat="44.72774" lon="7.05033">
        <ele>2427</ele>
        <time>2022-07-15T12:14:43Z</time>
      </trkpt>
      <trkpt lat="44.72775" lon="7.05027">
        <ele>2426</ele>
        <time>2022-07-15T12:14:48Z</time>
      </trkpt>
      <trkpt lat="44.72773" lon="7.05022">
        <ele>2424</ele>
        <time>2022-07-15T12:14:53Z</time>
      </trkpt>
      <trkpt lat="44.72771" lon="7.05018">
        <ele>2423</ele>
        <time>2022-07-15T12:14:58Z</time>
      </trkpt>
      <trkpt lat="44.72767" lon="7.05018">
        <ele>2423</ele>
        <time>2022-07-15T12:15:03Z</time>
      </trkpt>
      <trkpt lat="44.72764" lon="7.05021">
        <ele>2422</ele>
        <time>2022-07-15T12:15:07Z</time>
      </trkpt>
      <trkpt lat="44.72761" lon="7.05019">
        <ele>2421</ele>
        <time>2022-07-15T12:15:11Z</time>
      </trkpt>
      <trkpt lat="44.72762" lon="7.05014">
        <ele>2420</ele>
        <time>2022-07-15T12:15:16Z</time>
      </trkpt>
      <trkpt lat="44.72761" lon="7.05009">
        <ele>2418</ele>
        <time>2022-07-15T12:15:21Z</time>
      </trkpt>
      <trkpt lat="44.72758" lon="7.05007">
        <ele>2418</ele>
        <time>2022-07-15T12:15:26Z</time>
      </trkpt>
      <trkpt lat="44.72754" lon="7.05003">
        <ele>2416</ele>
        <time>2022-07-15T12:15:31Z</time>
      </trkpt>
      <trkpt lat="44.72753" lon="7.04998">
        <ele>2416</ele>
        <time>2022-07-15T12:15:36Z</time>
      </trkpt>
      <trkpt lat="44.72758" lon="7.04989">
        <ele>2413</ele>
        <time>2022-07-15T12:15:46Z</time>
      </trkpt>
      <trkpt lat="44.72759" lon="7.04984">
        <ele>2412</ele>
        <time>2022-07-15T12:15:50Z</time>
      </trkpt>
      <trkpt lat="44.72759" lon="7.0498">
        <ele>2412</ele>
        <time>2022-07-15T12:15:54Z</time>
      </trkpt>
      <trkpt lat="44.72759" lon="7.04975">
        <ele>2411</ele>
        <time>2022-07-15T12:15:58Z</time>
      </trkpt>
      <trkpt lat="44.7276" lon="7.04969">
        <ele>2410</ele>
        <time>2022-07-15T12:16:03Z</time>
      </trkpt>
      <trkpt lat="44.7276" lon="7.04947">
        <ele>2407</ele>
        <time>2022-07-15T12:16:19Z</time>
      </trkpt>
      <trkpt lat="44.72758" lon="7.04941">
        <ele>2407</ele>
        <time>2022-07-15T12:16:24Z</time>
      </trkpt>
      <trkpt lat="44.72758" lon="7.04936">
        <ele>2407</ele>
        <time>2022-07-15T12:16:27Z</time>
      </trkpt>
      <trkpt lat="44.72761" lon="7.0492">
        <ele>2405</ele>
        <time>2022-07-15T12:16:39Z</time>
      </trkpt>
      <trkpt lat="44.72762" lon="7.04899">
        <ele>2407</ele>
        <time>2022-07-15T12:16:56Z</time>
      </trkpt>
      <trkpt lat="44.72759" lon="7.04877">
        <ele>2407</ele>
        <time>2022-07-15T12:17:12Z</time>
      </trkpt>
      <trkpt lat="44.72759" lon="7.04871">
        <ele>2407</ele>
        <time>2022-07-15T12:17:16Z</time>
      </trkpt>
      <trkpt lat="44.72759" lon="7.04866">
        <ele>2407</ele>
        <time>2022-07-15T12:17:20Z</time>
      </trkpt>
      <trkpt lat="44.72759" lon="7.04861">
        <ele>2407</ele>
        <time>2022-07-15T12:17:24Z</time>
      </trkpt>
      <trkpt lat="44.72759" lon="7.04855">
        <ele>2407</ele>
        <time>2022-07-15T12:17:28Z</time>
      </trkpt>
      <trkpt lat="44.72761" lon="7.04829">
        <ele>2406</ele>
        <time>2022-07-15T12:17:54Z</time>
      </trkpt>
      <trkpt lat="44.72762" lon="7.04824">
        <ele>2406</ele>
        <time>2022-07-15T12:17:58Z</time>
      </trkpt>
      <trkpt lat="44.72762" lon="7.04813">
        <ele>2405</ele>
        <time>2022-07-15T12:18:06Z</time>
      </trkpt>
      <trkpt lat="44.72762" lon="7.04802">
        <ele>2405</ele>
        <time>2022-07-15T12:18:14Z</time>
      </trkpt>
      <trkpt lat="44.72762" lon="7.04797">
        <ele>2405</ele>
        <time>2022-07-15T12:18:19Z</time>
      </trkpt>
      <trkpt lat="44.72763" lon="7.04792">
        <ele>2404</ele>
        <time>2022-07-15T12:18:25Z</time>
      </trkpt>
      <trkpt lat="44.72768" lon="7.04784">
        <ele>2402</ele>
        <time>2022-07-15T12:18:33Z</time>
      </trkpt>
      <trkpt lat="44.72766" lon="7.0478">
        <ele>2403</ele>
        <time>2022-07-15T12:18:41Z</time>
      </trkpt>
      <trkpt lat="44.72778" lon="7.04766">
        <ele>2400</ele>
        <time>2022-07-15T12:18:58Z</time>
      </trkpt>
      <trkpt lat="44.7278" lon="7.04761">
        <ele>2399</ele>
        <time>2022-07-15T12:19:03Z</time>
      </trkpt>
      <trkpt lat="44.72782" lon="7.04757">
        <ele>2398</ele>
        <time>2022-07-15T12:19:08Z</time>
      </trkpt>
      <trkpt lat="44.72785" lon="7.04747">
        <ele>2396</ele>
        <time>2022-07-15T12:19:17Z</time>
      </trkpt>
      <trkpt lat="44.72786" lon="7.04743">
        <ele>2395</ele>
        <time>2022-07-15T12:19:22Z</time>
      </trkpt>
      <trkpt lat="44.72787" lon="7.04731">
        <ele>2394</ele>
        <time>2022-07-15T12:19:32Z</time>
      </trkpt>
      <trkpt lat="44.72788" lon="7.04726">
        <ele>2393</ele>
        <time>2022-07-15T12:19:37Z</time>
      </trkpt>
      <trkpt lat="44.72789" lon="7.04721">
        <ele>2393</ele>
        <time>2022-07-15T12:19:42Z</time>
      </trkpt>
      <trkpt lat="44.7279" lon="7.04695">
        <ele>2391</ele>
        <time>2022-07-15T12:20:04Z</time>
      </trkpt>
      <trkpt lat="44.72789" lon="7.0469">
        <ele>2391</ele>
        <time>2022-07-15T12:20:08Z</time>
      </trkpt>
      <trkpt lat="44.7279" lon="7.04674">
        <ele>2387</ele>
        <time>2022-07-15T12:20:21Z</time>
      </trkpt>
      <trkpt lat="44.72787" lon="7.0466">
        <ele>2385</ele>
        <time>2022-07-15T12:20:35Z</time>
      </trkpt>
      <trkpt lat="44.72788" lon="7.04655">
        <ele>2383</ele>
        <time>2022-07-15T12:20:41Z</time>
      </trkpt>
      <trkpt lat="44.72788" lon="7.0465">
        <ele>2383</ele>
        <time>2022-07-15T12:20:46Z</time>
      </trkpt>
      <trkpt lat="44.72788" lon="7.04639">
        <ele>2380</ele>
        <time>2022-07-15T12:20:58Z</time>
      </trkpt>
      <trkpt lat="44.72787" lon="7.04635">
        <ele>2380</ele>
        <time>2022-07-15T12:21:02Z</time>
      </trkpt>
      <trkpt lat="44.72788" lon="7.0463">
        <ele>2379</ele>
        <time>2022-07-15T12:21:08Z</time>
      </trkpt>
      <trkpt lat="44.72787" lon="7.04619">
        <ele>2376</ele>
        <time>2022-07-15T12:21:18Z</time>
      </trkpt>
      <trkpt lat="44.72792" lon="7.04618">
        <ele>2376</ele>
        <time>2022-07-15T12:21:24Z</time>
      </trkpt>
      <trkpt lat="44.72797" lon="7.0461">
        <ele>2375</ele>
        <time>2022-07-15T12:21:32Z</time>
      </trkpt>
      <trkpt lat="44.72799" lon="7.04606">
        <ele>2376</ele>
        <time>2022-07-15T12:21:36Z</time>
      </trkpt>
      <trkpt lat="44.72799" lon="7.046">
        <ele>2376</ele>
        <time>2022-07-15T12:21:40Z</time>
      </trkpt>
      <trkpt lat="44.72799" lon="7.04595">
        <ele>2375</ele>
        <time>2022-07-15T12:21:45Z</time>
      </trkpt>
      <trkpt lat="44.728" lon="7.04591">
        <ele>2375</ele>
        <time>2022-07-15T12:21:50Z</time>
      </trkpt>
      <trkpt lat="44.728" lon="7.04586">
        <ele>2374</ele>
        <time>2022-07-15T12:21:55Z</time>
      </trkpt>
      <trkpt lat="44.72798" lon="7.04576">
        <ele>2374</ele>
        <time>2022-07-15T12:22:05Z</time>
      </trkpt>
      <trkpt lat="44.72797" lon="7.04571">
        <ele>2374</ele>
        <time>2022-07-15T12:22:10Z</time>
      </trkpt>
      <trkpt lat="44.72796" lon="7.04566">
        <ele>2374</ele>
        <time>2022-07-15T12:22:15Z</time>
      </trkpt>
      <trkpt lat="44.72796" lon="7.04555">
        <ele>2374</ele>
        <time>2022-07-15T12:22:23Z</time>
      </trkpt>
      <trkpt lat="44.72798" lon="7.04545">
        <ele>2375</ele>
        <time>2022-07-15T12:22:33Z</time>
      </trkpt>
      <trkpt lat="44.728" lon="7.0454">
        <ele>2375</ele>
        <time>2022-07-15T12:22:39Z</time>
      </trkpt>
      <trkpt lat="44.72803" lon="7.04536">
        <ele>2374</ele>
        <time>2022-07-15T12:22:43Z</time>
      </trkpt>
      <trkpt lat="44.72814" lon="7.04528">
        <ele>2373</ele>
        <time>2022-07-15T12:22:57Z</time>
      </trkpt>
      <trkpt lat="44.72812" lon="7.04522">
        <ele>2372</ele>
        <time>2022-07-15T12:23:12Z</time>
      </trkpt>
      <trkpt lat="44.72816" lon="7.04523">
        <ele>2372</ele>
        <time>2022-07-15T12:23:14Z</time>
      </trkpt>
    </trkseg>
  </trk>
  <trk>
    <name><![CDATA[16 juil. 2022]]></name>
    <desc><![CDATA[comment ...]]></desc>
    <extensions>
      <line xmlns="http://www.topografix.com/GPX/gpx_style/0/2">
        <color>FFFF00</color>
        <opacity>1</opacity>
        <width>2</width>
      </line>
    </extensions>
    <trkseg>
      <trkpt lat="44.72808" lon="7.0454">
        <ele>2370</ele>
        <time>2022-07-16T06:12:58Z</time>
      </trkpt>
      <trkpt lat="44.72807" lon="7.04539">
        <ele>2370</ele>
        <time>2022-07-16T06:12:59Z</time>
      </trkpt>
      <trkpt lat="44.72805" lon="7.04536">
        <ele>2371</ele>
        <time>2022-07-16T06:13:25Z</time>
      </trkpt>
      <trkpt lat="44.72801" lon="7.04538">
        <ele>2377</ele>
        <time>2022-07-16T06:13:29Z</time>
      </trkpt>
      <trkpt lat="44.72798" lon="7.04539">
        <ele>2379</ele>
        <time>2022-07-16T06:13:34Z</time>
      </trkpt>
      <trkpt lat="44.72794" lon="7.04541">
        <ele>2383</ele>
        <time>2022-07-16T06:13:40Z</time>
      </trkpt>
      <trkpt lat="44.72792" lon="7.04544">
        <ele>2383</ele>
        <time>2022-07-16T06:13:44Z</time>
      </trkpt>
      <trkpt lat="44.72786" lon="7.04551">
        <ele>2381</ele>
        <time>2022-07-16T06:13:56Z</time>
      </trkpt>
      <trkpt lat="44.72779" lon="7.04561">
        <ele>2379</ele>
        <time>2022-07-16T06:14:14Z</time>
      </trkpt>
      <trkpt lat="44.72772" lon="7.04565">
        <ele>2380</ele>
        <time>2022-07-16T06:14:25Z</time>
      </trkpt>
      <trkpt lat="44.72768" lon="7.04562">
        <ele>2380</ele>
        <time>2022-07-16T06:14:29Z</time>
      </trkpt>
      <trkpt lat="44.72765" lon="7.04559">
        <ele>2381</ele>
        <time>2022-07-16T06:14:35Z</time>
      </trkpt>
      <trkpt lat="44.72762" lon="7.04557">
        <ele>2381</ele>
        <time>2022-07-16T06:14:40Z</time>
      </trkpt>
      <trkpt lat="44.72762" lon="7.04552">
        <ele>2382</ele>
        <time>2022-07-16T06:14:45Z</time>
      </trkpt>
      <trkpt lat="44.72759" lon="7.04549">
        <ele>2384</ele>
        <time>2022-07-16T06:14:51Z</time>
      </trkpt>
      <trkpt lat="44.72756" lon="7.04548">
        <ele>2386</ele>
        <time>2022-07-16T06:14:56Z</time>
      </trkpt>
      <trkpt lat="44.72752" lon="7.04548">
        <ele>2387</ele>
        <time>2022-07-16T06:15:03Z</time>
      </trkpt>
      <trkpt lat="44.72749" lon="7.04547">
        <ele>2389</ele>
        <time>2022-07-16T06:15:16Z</time>
      </trkpt>
      <trkpt lat="44.72749" lon="7.04542">
        <ele>2389</ele>
        <time>2022-07-16T06:15:21Z</time>
      </trkpt>
      <trkpt lat="44.72746" lon="7.04537">
        <ele>2387</ele>
        <time>2022-07-16T06:15:28Z</time>
      </trkpt>
      <trkpt lat="44.72745" lon="7.04533">
        <ele>2386</ele>
        <time>2022-07-16T06:15:35Z</time>
      </trkpt>
      <trkpt lat="44.72742" lon="7.04528">
        <ele>2384</ele>
        <time>2022-07-16T06:15:42Z</time>
      </trkpt>
      <trkpt lat="44.72739" lon="7.04525">
        <ele>2383</ele>
        <time>2022-07-16T06:15:49Z</time>
      </trkpt>
      <trkpt lat="44.72738" lon="7.0452">
        <ele>2381</ele>
        <time>2022-07-16T06:15:54Z</time>
      </trkpt>
      <trkpt lat="44.72739" lon="7.04515">
        <ele>2380</ele>
        <time>2022-07-16T06:15:59Z</time>
      </trkpt>
      <trkpt lat="44.72741" lon="7.04499">
        <ele>2376</ele>
        <time>2022-07-16T06:16:14Z</time>
      </trkpt>
      <trkpt lat="44.72742" lon="7.04494">
        <ele>2375</ele>
        <time>2022-07-16T06:16:19Z</time>
      </trkpt>
      <trkpt lat="44.72746" lon="7.04483">
        <ele>2372</ele>
        <time>2022-07-16T06:16:29Z</time>
      </trkpt>
      <trkpt lat="44.72748" lon="7.04467">
        <ele>2365</ele>
        <time>2022-07-16T06:16:45Z</time>
      </trkpt>
      <trkpt lat="44.72745" lon="7.04465">
        <ele>2362</ele>
        <time>2022-07-16T06:17:05Z</time>
      </trkpt>
      <trkpt lat="44.72744" lon="7.04459">
        <ele>2358</ele>
        <time>2022-07-16T06:17:11Z</time>
      </trkpt>
      <trkpt lat="44.72744" lon="7.04454">
        <ele>2358</ele>
        <time>2022-07-16T06:17:16Z</time>
      </trkpt>
      <trkpt lat="44.72744" lon="7.04449">
        <ele>2357</ele>
        <time>2022-07-16T06:17:21Z</time>
      </trkpt>
      <trkpt lat="44.72741" lon="7.04446">
        <ele>2357</ele>
        <time>2022-07-16T06:17:26Z</time>
      </trkpt>
      <trkpt lat="44.72738" lon="7.04445">
        <ele>2358</ele>
        <time>2022-07-16T06:17:32Z</time>
      </trkpt>
      <trkpt lat="44.72735" lon="7.04441">
        <ele>2358</ele>
        <time>2022-07-16T06:17:39Z</time>
      </trkpt>
      <trkpt lat="44.72733" lon="7.04438">
        <ele>2359</ele>
        <time>2022-07-16T06:17:44Z</time>
      </trkpt>
      <trkpt lat="44.72729" lon="7.04439">
        <ele>2359</ele>
        <time>2022-07-16T06:17:49Z</time>
      </trkpt>
      <trkpt lat="44.72725" lon="7.04441">
        <ele>2354</ele>
        <time>2022-07-16T06:17:58Z</time>
      </trkpt>
      <trkpt lat="44.72721" lon="7.04441">
        <ele>2354</ele>
        <time>2022-07-16T06:18:03Z</time>
      </trkpt>
      <trkpt lat="44.72715" lon="7.04432">
        <ele>2354</ele>
        <time>2022-07-16T06:19:00Z</time>
      </trkpt>
      <trkpt lat="44.72699" lon="7.04434">
        <ele>2357</ele>
        <time>2022-07-16T06:19:15Z</time>
      </trkpt>
      <trkpt lat="44.72681" lon="7.04427">
        <ele>2358</ele>
        <time>2022-07-16T06:19:35Z</time>
      </trkpt>
      <trkpt lat="44.72672" lon="7.04418">
        <ele>2359</ele>
        <time>2022-07-16T06:20:11Z</time>
      </trkpt>
      <trkpt lat="44.72663" lon="7.04417">
        <ele>2358</ele>
        <time>2022-07-16T06:20:18Z</time>
      </trkpt>
      <trkpt lat="44.72656" lon="7.04422">
        <ele>2360</ele>
        <time>2022-07-16T06:20:37Z</time>
      </trkpt>
      <trkpt lat="44.72652" lon="7.04424">
        <ele>2361</ele>
        <time>2022-07-16T06:20:55Z</time>
      </trkpt>
      <trkpt lat="44.72648" lon="7.04425">
        <ele>2363</ele>
        <time>2022-07-16T06:20:58Z</time>
      </trkpt>
      <trkpt lat="44.72644" lon="7.04426">
        <ele>2364</ele>
        <time>2022-07-16T06:21:01Z</time>
      </trkpt>
      <trkpt lat="44.72641" lon="7.0443">
        <ele>2364</ele>
        <time>2022-07-16T06:21:08Z</time>
      </trkpt>
      <trkpt lat="44.72638" lon="7.04432">
        <ele>2364</ele>
        <time>2022-07-16T06:21:12Z</time>
      </trkpt>
      <trkpt lat="44.72633" lon="7.04431">
        <ele>2364</ele>
        <time>2022-07-16T06:21:17Z</time>
      </trkpt>
      <trkpt lat="44.72631" lon="7.04429">
        <ele>2364</ele>
        <time>2022-07-16T06:21:21Z</time>
      </trkpt>
      <trkpt lat="44.72628" lon="7.04425">
        <ele>2365</ele>
        <time>2022-07-16T06:21:26Z</time>
      </trkpt>
      <trkpt lat="44.72624" lon="7.04423">
        <ele>2366</ele>
        <time>2022-07-16T06:21:30Z</time>
      </trkpt>
      <trkpt lat="44.72614" lon="7.04427">
        <ele>2371</ele>
        <time>2022-07-16T06:21:45Z</time>
      </trkpt>
      <trkpt lat="44.7261" lon="7.04428">
        <ele>2371</ele>
        <time>2022-07-16T06:21:50Z</time>
      </trkpt>
      <trkpt lat="44.72606" lon="7.04426">
        <ele>2373</ele>
        <time>2022-07-16T06:21:55Z</time>
      </trkpt>
      <trkpt lat="44.72603" lon="7.04422">
        <ele>2374</ele>
        <time>2022-07-16T06:22:01Z</time>
      </trkpt>
      <trkpt lat="44.72601" lon="7.04418">
        <ele>2376</ele>
        <time>2022-07-16T06:22:07Z</time>
      </trkpt>
      <trkpt lat="44.72599" lon="7.04413">
        <ele>2377</ele>
        <time>2022-07-16T06:22:13Z</time>
      </trkpt>
      <trkpt lat="44.72593" lon="7.04408">
        <ele>2378</ele>
        <time>2022-07-16T06:22:24Z</time>
      </trkpt>
      <trkpt lat="44.72587" lon="7.04403">
        <ele>2379</ele>
        <time>2022-07-16T06:22:34Z</time>
      </trkpt>
      <trkpt lat="44.72571" lon="7.04408">
        <ele>2383</ele>
        <time>2022-07-16T06:22:56Z</time>
      </trkpt>
      <trkpt lat="44.72568" lon="7.04411">
        <ele>2383</ele>
        <time>2022-07-16T06:23:01Z</time>
      </trkpt>
      <trkpt lat="44.72561" lon="7.04414">
        <ele>2385</ele>
        <time>2022-07-16T06:23:11Z</time>
      </trkpt>
      <trkpt lat="44.72558" lon="7.04416">
        <ele>2386</ele>
        <time>2022-07-16T06:23:16Z</time>
      </trkpt>
      <trkpt lat="44.72554" lon="7.04419">
        <ele>2386</ele>
        <time>2022-07-16T06:23:22Z</time>
      </trkpt>
      <trkpt lat="44.72551" lon="7.04418">
        <ele>2385</ele>
        <time>2022-07-16T06:23:26Z</time>
      </trkpt>
      <trkpt lat="44.72548" lon="7.04421">
        <ele>2384</ele>
        <time>2022-07-16T06:23:32Z</time>
      </trkpt>
      <trkpt lat="44.72545" lon="7.04424">
        <ele>2384</ele>
        <time>2022-07-16T06:23:38Z</time>
      </trkpt>
      <trkpt lat="44.72539" lon="7.0443">
        <ele>2386</ele>
        <time>2022-07-16T06:23:52Z</time>
      </trkpt>
      <trkpt lat="44.72525" lon="7.04447">
        <ele>2391</ele>
        <time>2022-07-16T06:24:17Z</time>
      </trkpt>
      <trkpt lat="44.72522" lon="7.04449">
        <ele>2392</ele>
        <time>2022-07-16T06:24:21Z</time>
      </trkpt>
      <trkpt lat="44.72519" lon="7.04453">
        <ele>2393</ele>
        <time>2022-07-16T06:24:27Z</time>
      </trkpt>
      <trkpt lat="44.72513" lon="7.0446">
        <ele>2395</ele>
        <time>2022-07-16T06:24:40Z</time>
      </trkpt>
      <trkpt lat="44.72512" lon="7.04465">
        <ele>2396</ele>
        <time>2022-07-16T06:24:46Z</time>
      </trkpt>
      <trkpt lat="44.72504" lon="7.04475">
        <ele>2399</ele>
        <time>2022-07-16T06:25:05Z</time>
      </trkpt>
      <trkpt lat="44.72501" lon="7.04479">
        <ele>2401</ele>
        <time>2022-07-16T06:25:11Z</time>
      </trkpt>
      <trkpt lat="44.72498" lon="7.04482">
        <ele>2402</ele>
        <time>2022-07-16T06:25:18Z</time>
      </trkpt>
      <trkpt lat="44.72496" lon="7.04486">
        <ele>2404</ele>
        <time>2022-07-16T06:25:25Z</time>
      </trkpt>
      <trkpt lat="44.72493" lon="7.0449">
        <ele>2403</ele>
        <time>2022-07-16T06:25:33Z</time>
      </trkpt>
      <trkpt lat="44.72491" lon="7.04494">
        <ele>2405</ele>
        <time>2022-07-16T06:25:40Z</time>
      </trkpt>
      <trkpt lat="44.72491" lon="7.04499">
        <ele>2404</ele>
        <time>2022-07-16T06:25:48Z</time>
      </trkpt>
      <trkpt lat="44.72491" lon="7.04504">
        <ele>2405</ele>
        <time>2022-07-16T06:25:55Z</time>
      </trkpt>
      <trkpt lat="44.7249" lon="7.04509">
        <ele>2405</ele>
        <time>2022-07-16T06:26:02Z</time>
      </trkpt>
      <trkpt lat="44.72489" lon="7.04514">
        <ele>2408</ele>
        <time>2022-07-16T06:26:10Z</time>
      </trkpt>
      <trkpt lat="44.72488" lon="7.04518">
        <ele>2409</ele>
        <time>2022-07-16T06:26:17Z</time>
      </trkpt>
      <trkpt lat="44.72489" lon="7.04524">
        <ele>2411</ele>
        <time>2022-07-16T06:26:24Z</time>
      </trkpt>
      <trkpt lat="44.72487" lon="7.04528">
        <ele>2412</ele>
        <time>2022-07-16T06:26:31Z</time>
      </trkpt>
      <trkpt lat="44.72477" lon="7.0455">
        <ele>2419</ele>
        <time>2022-07-16T06:27:01Z</time>
      </trkpt>
      <trkpt lat="44.72474" lon="7.04554">
        <ele>2419</ele>
        <time>2022-07-16T06:27:07Z</time>
      </trkpt>
      <trkpt lat="44.72472" lon="7.04559">
        <ele>2420</ele>
        <time>2022-07-16T06:27:12Z</time>
      </trkpt>
      <trkpt lat="44.72473" lon="7.04564">
        <ele>2419</ele>
        <time>2022-07-16T06:27:18Z</time>
      </trkpt>
      <trkpt lat="44.7247" lon="7.04568">
        <ele>2420</ele>
        <time>2022-07-16T06:27:23Z</time>
      </trkpt>
      <trkpt lat="44.72466" lon="7.0457">
        <ele>2421</ele>
        <time>2022-07-16T06:27:29Z</time>
      </trkpt>
      <trkpt lat="44.72463" lon="7.0457">
        <ele>2422</ele>
        <time>2022-07-16T06:27:35Z</time>
      </trkpt>
      <trkpt lat="44.7246" lon="7.04574">
        <ele>2422</ele>
        <time>2022-07-16T06:27:42Z</time>
      </trkpt>
      <trkpt lat="44.72458" lon="7.04577">
        <ele>2423</ele>
        <time>2022-07-16T06:27:48Z</time>
      </trkpt>
      <trkpt lat="44.72454" lon="7.04579">
        <ele>2423</ele>
        <time>2022-07-16T06:27:53Z</time>
      </trkpt>
      <trkpt lat="44.72452" lon="7.04583">
        <ele>2424</ele>
        <time>2022-07-16T06:28:00Z</time>
      </trkpt>
      <trkpt lat="44.72448" lon="7.04584">
        <ele>2424</ele>
        <time>2022-07-16T06:28:08Z</time>
      </trkpt>
      <trkpt lat="44.72445" lon="7.0458">
        <ele>2424</ele>
        <time>2022-07-16T06:28:12Z</time>
      </trkpt>
      <trkpt lat="44.72442" lon="7.04579">
        <ele>2422</ele>
        <time>2022-07-16T06:28:17Z</time>
      </trkpt>
      <trkpt lat="44.72441" lon="7.04585">
        <ele>2422</ele>
        <time>2022-07-16T06:28:21Z</time>
      </trkpt>
      <trkpt lat="44.72443" lon="7.0459">
        <ele>2424</ele>
        <time>2022-07-16T06:28:26Z</time>
      </trkpt>
      <trkpt lat="44.7244" lon="7.04592">
        <ele>2425</ele>
        <time>2022-07-16T06:28:36Z</time>
      </trkpt>
      <trkpt lat="44.72441" lon="7.04597">
        <ele>2426</ele>
        <time>2022-07-16T06:28:41Z</time>
      </trkpt>
      <trkpt lat="44.72437" lon="7.04599">
        <ele>2428</ele>
        <time>2022-07-16T06:28:53Z</time>
      </trkpt>
      <trkpt lat="44.72437" lon="7.04604">
        <ele>2428</ele>
        <time>2022-07-16T06:29:04Z</time>
      </trkpt>
      <trkpt lat="44.72442" lon="7.04612">
        <ele>2437</ele>
        <time>2022-07-16T06:29:38Z</time>
      </trkpt>
      <trkpt lat="44.72443" lon="7.04617">
        <ele>2441</ele>
        <time>2022-07-16T06:29:45Z</time>
      </trkpt>
      <trkpt lat="44.72441" lon="7.04621">
        <ele>2441</ele>
        <time>2022-07-16T06:30:31Z</time>
      </trkpt>
      <trkpt lat="44.72438" lon="7.04621">
        <ele>2444</ele>
        <time>2022-07-16T06:30:41Z</time>
      </trkpt>
      <trkpt lat="44.72435" lon="7.04625">
        <ele>2445</ele>
        <time>2022-07-16T06:30:50Z</time>
      </trkpt>
      <trkpt lat="44.72433" lon="7.04629">
        <ele>2447</ele>
        <time>2022-07-16T06:30:59Z</time>
      </trkpt>
      <trkpt lat="44.72431" lon="7.04633">
        <ele>2448</ele>
        <time>2022-07-16T06:31:10Z</time>
      </trkpt>
      <trkpt lat="44.72429" lon="7.04638">
        <ele>2451</ele>
        <time>2022-07-16T06:31:19Z</time>
      </trkpt>
      <trkpt lat="44.72422" lon="7.0464">
        <ele>2457</ele>
        <time>2022-07-16T06:31:42Z</time>
      </trkpt>
      <trkpt lat="44.72422" lon="7.04646">
        <ele>2458</ele>
        <time>2022-07-16T06:31:53Z</time>
      </trkpt>
      <trkpt lat="44.72411" lon="7.0465">
        <ele>2465</ele>
        <time>2022-07-16T06:32:19Z</time>
      </trkpt>
      <trkpt lat="44.72409" lon="7.04654">
        <ele>2466</ele>
        <time>2022-07-16T06:32:27Z</time>
      </trkpt>
      <trkpt lat="44.72409" lon="7.04659">
        <ele>2468</ele>
        <time>2022-07-16T06:32:34Z</time>
      </trkpt>
      <trkpt lat="44.72407" lon="7.04664">
        <ele>2469</ele>
        <time>2022-07-16T06:32:43Z</time>
      </trkpt>
      <trkpt lat="44.72406" lon="7.04669">
        <ele>2471</ele>
        <time>2022-07-16T06:32:51Z</time>
      </trkpt>
      <trkpt lat="44.72403" lon="7.0467">
        <ele>2473</ele>
        <time>2022-07-16T06:33:01Z</time>
      </trkpt>
      <trkpt lat="44.724" lon="7.04672">
        <ele>2475</ele>
        <time>2022-07-16T06:33:15Z</time>
      </trkpt>
      <trkpt lat="44.72397" lon="7.04675">
        <ele>2476</ele>
        <time>2022-07-16T06:33:24Z</time>
      </trkpt>
      <trkpt lat="44.72395" lon="7.04679">
        <ele>2479</ele>
        <time>2022-07-16T06:33:33Z</time>
      </trkpt>
      <trkpt lat="44.72393" lon="7.04676">
        <ele>2479</ele>
        <time>2022-07-16T06:33:39Z</time>
      </trkpt>
      <trkpt lat="44.72389" lon="7.04676">
        <ele>2480</ele>
        <time>2022-07-16T06:33:51Z</time>
      </trkpt>
      <trkpt lat="44.72384" lon="7.04682">
        <ele>2483</ele>
        <time>2022-07-16T06:34:07Z</time>
      </trkpt>
      <trkpt lat="44.72381" lon="7.04681">
        <ele>2483</ele>
        <time>2022-07-16T06:34:21Z</time>
      </trkpt>
      <trkpt lat="44.72378" lon="7.04684">
        <ele>2484</ele>
        <time>2022-07-16T06:34:31Z</time>
      </trkpt>
      <trkpt lat="44.72375" lon="7.04686">
        <ele>2487</ele>
        <time>2022-07-16T06:34:39Z</time>
      </trkpt>
      <trkpt lat="44.72371" lon="7.04686">
        <ele>2489</ele>
        <time>2022-07-16T06:34:56Z</time>
      </trkpt>
      <trkpt lat="44.72368" lon="7.04689">
        <ele>2493</ele>
        <time>2022-07-16T06:35:05Z</time>
      </trkpt>
      <trkpt lat="44.72361" lon="7.04691">
        <ele>2498</ele>
        <time>2022-07-16T06:35:30Z</time>
      </trkpt>
      <trkpt lat="44.72358" lon="7.04692">
        <ele>2499</ele>
        <time>2022-07-16T06:35:44Z</time>
      </trkpt>
      <trkpt lat="44.72355" lon="7.04695">
        <ele>2502</ele>
        <time>2022-07-16T06:35:53Z</time>
      </trkpt>
      <trkpt lat="44.72352" lon="7.04695">
        <ele>2504</ele>
        <time>2022-07-16T06:36:09Z</time>
      </trkpt>
      <trkpt lat="44.72349" lon="7.04699">
        <ele>2507</ele>
        <time>2022-07-16T06:36:19Z</time>
      </trkpt>
      <trkpt lat="44.72347" lon="7.04702">
        <ele>2508</ele>
        <time>2022-07-16T06:36:29Z</time>
      </trkpt>
      <trkpt lat="44.72337" lon="7.04708">
        <ele>2514</ele>
        <time>2022-07-16T06:36:58Z</time>
      </trkpt>
      <trkpt lat="44.72333" lon="7.04708">
        <ele>2515</ele>
        <time>2022-07-16T06:37:12Z</time>
      </trkpt>
      <trkpt lat="44.7233" lon="7.04711">
        <ele>2517</ele>
        <time>2022-07-16T06:37:22Z</time>
      </trkpt>
      <trkpt lat="44.72326" lon="7.04712">
        <ele>2519</ele>
        <time>2022-07-16T06:37:33Z</time>
      </trkpt>
      <trkpt lat="44.72324" lon="7.04715">
        <ele>2520</ele>
        <time>2022-07-16T06:37:50Z</time>
      </trkpt>
      <trkpt lat="44.7232" lon="7.04716">
        <ele>2521</ele>
        <time>2022-07-16T06:37:58Z</time>
      </trkpt>
      <trkpt lat="44.72317" lon="7.04717">
        <ele>2523</ele>
        <time>2022-07-16T06:38:09Z</time>
      </trkpt>
      <trkpt lat="44.72313" lon="7.04717">
        <ele>2524</ele>
        <time>2022-07-16T06:38:20Z</time>
      </trkpt>
      <trkpt lat="44.72311" lon="7.04721">
        <ele>2525</ele>
        <time>2022-07-16T06:38:31Z</time>
      </trkpt>
      <trkpt lat="44.7231" lon="7.04726">
        <ele>2527</ele>
        <time>2022-07-16T06:38:44Z</time>
      </trkpt>
      <trkpt lat="44.7231" lon="7.04731">
        <ele>2530</ele>
        <time>2022-07-16T06:38:54Z</time>
      </trkpt>
      <trkpt lat="44.72307" lon="7.04733">
        <ele>2531</ele>
        <time>2022-07-16T06:39:09Z</time>
      </trkpt>
      <trkpt lat="44.72304" lon="7.04736">
        <ele>2535</ele>
        <time>2022-07-16T06:39:17Z</time>
      </trkpt>
      <trkpt lat="44.72303" lon="7.04741">
        <ele>2536</ele>
        <time>2022-07-16T06:39:29Z</time>
      </trkpt>
      <trkpt lat="44.72299" lon="7.04741">
        <ele>2539</ele>
        <time>2022-07-16T06:39:35Z</time>
      </trkpt>
      <trkpt lat="44.72291" lon="7.0474">
        <ele>2541</ele>
        <time>2022-07-16T06:39:47Z</time>
      </trkpt>
      <trkpt lat="44.72288" lon="7.0474">
        <ele>2541</ele>
        <time>2022-07-16T06:39:52Z</time>
      </trkpt>
      <trkpt lat="44.72281" lon="7.04737">
        <ele>2542</ele>
        <time>2022-07-16T06:40:04Z</time>
      </trkpt>
      <trkpt lat="44.72263" lon="7.04744">
        <ele>2545</ele>
        <time>2022-07-16T06:40:36Z</time>
      </trkpt>
      <trkpt lat="44.72259" lon="7.04746">
        <ele>2545</ele>
        <time>2022-07-16T06:40:42Z</time>
      </trkpt>
      <trkpt lat="44.72257" lon="7.0475">
        <ele>2545</ele>
        <time>2022-07-16T06:40:47Z</time>
      </trkpt>
      <trkpt lat="44.72253" lon="7.04752">
        <ele>2545</ele>
        <time>2022-07-16T06:40:53Z</time>
      </trkpt>
      <trkpt lat="44.7225" lon="7.04754">
        <ele>2546</ele>
        <time>2022-07-16T06:40:59Z</time>
      </trkpt>
      <trkpt lat="44.72244" lon="7.04759">
        <ele>2547</ele>
        <time>2022-07-16T06:41:11Z</time>
      </trkpt>
      <trkpt lat="44.72241" lon="7.0476">
        <ele>2547</ele>
        <time>2022-07-16T06:41:17Z</time>
      </trkpt>
      <trkpt lat="44.72235" lon="7.04766">
        <ele>2546</ele>
        <time>2022-07-16T06:41:30Z</time>
      </trkpt>
      <trkpt lat="44.72231" lon="7.04764">
        <ele>2546</ele>
        <time>2022-07-16T06:41:34Z</time>
      </trkpt>
      <trkpt lat="44.72228" lon="7.04764">
        <ele>2546</ele>
        <time>2022-07-16T06:41:38Z</time>
      </trkpt>
      <trkpt lat="44.72224" lon="7.04766">
        <ele>2544</ele>
        <time>2022-07-16T06:41:43Z</time>
      </trkpt>
      <trkpt lat="44.72221" lon="7.04768">
        <ele>2544</ele>
        <time>2022-07-16T06:41:50Z</time>
      </trkpt>
      <trkpt lat="44.72218" lon="7.04772">
        <ele>2547</ele>
        <time>2022-07-16T06:42:03Z</time>
      </trkpt>
      <trkpt lat="44.72215" lon="7.04774">
        <ele>2552</ele>
        <time>2022-07-16T06:42:22Z</time>
      </trkpt>
      <trkpt lat="44.72211" lon="7.04776">
        <ele>2556</ele>
        <time>2022-07-16T06:42:32Z</time>
      </trkpt>
      <trkpt lat="44.72209" lon="7.04779">
        <ele>2558</ele>
        <time>2022-07-16T06:42:43Z</time>
      </trkpt>
      <trkpt lat="44.72205" lon="7.04781">
        <ele>2560</ele>
        <time>2022-07-16T06:42:54Z</time>
      </trkpt>
      <trkpt lat="44.72203" lon="7.04785">
        <ele>2561</ele>
        <time>2022-07-16T06:43:01Z</time>
      </trkpt>
      <trkpt lat="44.72197" lon="7.0479">
        <ele>2563</ele>
        <time>2022-07-16T06:43:14Z</time>
      </trkpt>
      <trkpt lat="44.72187" lon="7.04798">
        <ele>2566</ele>
        <time>2022-07-16T06:43:33Z</time>
      </trkpt>
      <trkpt lat="44.72185" lon="7.04802">
        <ele>2567</ele>
        <time>2022-07-16T06:43:39Z</time>
      </trkpt>
      <trkpt lat="44.72181" lon="7.04804">
        <ele>2568</ele>
        <time>2022-07-16T06:43:47Z</time>
      </trkpt>
      <trkpt lat="44.72174" lon="7.04807">
        <ele>2570</ele>
        <time>2022-07-16T06:44:04Z</time>
      </trkpt>
      <trkpt lat="44.72171" lon="7.0481">
        <ele>2571</ele>
        <time>2022-07-16T06:44:12Z</time>
      </trkpt>
      <trkpt lat="44.72168" lon="7.04813">
        <ele>2572</ele>
        <time>2022-07-16T06:44:20Z</time>
      </trkpt>
      <trkpt lat="44.72154" lon="7.04817">
        <ele>2574</ele>
        <time>2022-07-16T06:44:48Z</time>
      </trkpt>
      <trkpt lat="44.72151" lon="7.04819">
        <ele>2576</ele>
        <time>2022-07-16T06:44:54Z</time>
      </trkpt>
      <trkpt lat="44.72147" lon="7.0482">
        <ele>2577</ele>
        <time>2022-07-16T06:45:02Z</time>
      </trkpt>
      <trkpt lat="44.72145" lon="7.04823">
        <ele>2578</ele>
        <time>2022-07-16T06:45:09Z</time>
      </trkpt>
      <trkpt lat="44.72141" lon="7.04823">
        <ele>2579</ele>
        <time>2022-07-16T06:45:21Z</time>
      </trkpt>
      <trkpt lat="44.72137" lon="7.04832">
        <ele>2580</ele>
        <time>2022-07-16T06:45:41Z</time>
      </trkpt>
      <trkpt lat="44.72131" lon="7.04838">
        <ele>2581</ele>
        <time>2022-07-16T06:45:57Z</time>
      </trkpt>
      <trkpt lat="44.72126" lon="7.04844">
        <ele>2581</ele>
        <time>2022-07-16T06:46:14Z</time>
      </trkpt>
      <trkpt lat="44.72122" lon="7.04846">
        <ele>2581</ele>
        <time>2022-07-16T06:46:20Z</time>
      </trkpt>
      <trkpt lat="44.7212" lon="7.0485">
        <ele>2581</ele>
        <time>2022-07-16T06:46:28Z</time>
      </trkpt>
      <trkpt lat="44.72119" lon="7.04855">
        <ele>2580</ele>
        <time>2022-07-16T06:46:33Z</time>
      </trkpt>
      <trkpt lat="44.72116" lon="7.04859">
        <ele>2580</ele>
        <time>2022-07-16T06:46:39Z</time>
      </trkpt>
      <trkpt lat="44.72109" lon="7.04863">
        <ele>2582</ele>
        <time>2022-07-16T06:46:53Z</time>
      </trkpt>
      <trkpt lat="44.72106" lon="7.04864">
        <ele>2583</ele>
        <time>2022-07-16T06:47:00Z</time>
      </trkpt>
      <trkpt lat="44.72104" lon="7.04869">
        <ele>2583</ele>
        <time>2022-07-16T06:47:06Z</time>
      </trkpt>
      <trkpt lat="44.72101" lon="7.04871">
        <ele>2584</ele>
        <time>2022-07-16T06:47:16Z</time>
      </trkpt>
      <trkpt lat="44.72099" lon="7.04875">
        <ele>2584</ele>
        <time>2022-07-16T06:47:24Z</time>
      </trkpt>
      <trkpt lat="44.72096" lon="7.04877">
        <ele>2586</ele>
        <time>2022-07-16T06:47:32Z</time>
      </trkpt>
      <trkpt lat="44.72087" lon="7.04887">
        <ele>2588</ele>
        <time>2022-07-16T06:47:57Z</time>
      </trkpt>
      <trkpt lat="44.72084" lon="7.04889">
        <ele>2589</ele>
        <time>2022-07-16T06:48:06Z</time>
      </trkpt>
      <trkpt lat="44.72082" lon="7.04892">
        <ele>2589</ele>
        <time>2022-07-16T06:48:15Z</time>
      </trkpt>
      <trkpt lat="44.72078" lon="7.04894">
        <ele>2590</ele>
        <time>2022-07-16T06:48:22Z</time>
      </trkpt>
      <trkpt lat="44.72067" lon="7.04906">
        <ele>2592</ele>
        <time>2022-07-16T06:48:52Z</time>
      </trkpt>
      <trkpt lat="44.72064" lon="7.04909">
        <ele>2593</ele>
        <time>2022-07-16T06:48:59Z</time>
      </trkpt>
      <trkpt lat="44.72059" lon="7.04916">
        <ele>2594</ele>
        <time>2022-07-16T06:49:14Z</time>
      </trkpt>
      <trkpt lat="44.72053" lon="7.04923">
        <ele>2597</ele>
        <time>2022-07-16T06:49:26Z</time>
      </trkpt>
      <trkpt lat="44.7205" lon="7.04926">
        <ele>2598</ele>
        <time>2022-07-16T06:49:32Z</time>
      </trkpt>
      <trkpt lat="44.72047" lon="7.04928">
        <ele>2600</ele>
        <time>2022-07-16T06:49:37Z</time>
      </trkpt>
      <trkpt lat="44.72044" lon="7.04929">
        <ele>2602</ele>
        <time>2022-07-16T06:49:43Z</time>
      </trkpt>
      <trkpt lat="44.7204" lon="7.04939">
        <ele>2604</ele>
        <time>2022-07-16T06:49:57Z</time>
      </trkpt>
      <trkpt lat="44.72033" lon="7.04946">
        <ele>2603</ele>
        <time>2022-07-16T06:50:11Z</time>
      </trkpt>
      <trkpt lat="44.72031" lon="7.04949">
        <ele>2604</ele>
        <time>2022-07-16T06:50:17Z</time>
      </trkpt>
      <trkpt lat="44.72029" lon="7.04954">
        <ele>2605</ele>
        <time>2022-07-16T06:50:23Z</time>
      </trkpt>
      <trkpt lat="44.72025" lon="7.04955">
        <ele>2606</ele>
        <time>2022-07-16T06:50:28Z</time>
      </trkpt>
      <trkpt lat="44.72023" lon="7.04959">
        <ele>2606</ele>
        <time>2022-07-16T06:50:34Z</time>
      </trkpt>
      <trkpt lat="44.72014" lon="7.04969">
        <ele>2608</ele>
        <time>2022-07-16T06:50:51Z</time>
      </trkpt>
      <trkpt lat="44.72014" lon="7.04974">
        <ele>2608</ele>
        <time>2022-07-16T06:50:56Z</time>
      </trkpt>
      <trkpt lat="44.72011" lon="7.04984">
        <ele>2609</ele>
        <time>2022-07-16T06:51:05Z</time>
      </trkpt>
      <trkpt lat="44.72009" lon="7.04987">
        <ele>2610</ele>
        <time>2022-07-16T06:51:11Z</time>
      </trkpt>
      <trkpt lat="44.72008" lon="7.04992">
        <ele>2611</ele>
        <time>2022-07-16T06:51:18Z</time>
      </trkpt>
      <trkpt lat="44.72005" lon="7.04991">
        <ele>2611</ele>
        <time>2022-07-16T06:51:23Z</time>
      </trkpt>
      <trkpt lat="44.72002" lon="7.04995">
        <ele>2612</ele>
        <time>2022-07-16T06:51:29Z</time>
      </trkpt>
      <trkpt lat="44.72002" lon="7.05">
        <ele>2612</ele>
        <time>2022-07-16T06:51:34Z</time>
      </trkpt>
      <trkpt lat="44.72" lon="7.0501">
        <ele>2614</ele>
        <time>2022-07-16T06:51:45Z</time>
      </trkpt>
      <trkpt lat="44.71998" lon="7.05014">
        <ele>2614</ele>
        <time>2022-07-16T06:51:50Z</time>
      </trkpt>
      <trkpt lat="44.71998" lon="7.0502">
        <ele>2614</ele>
        <time>2022-07-16T06:51:55Z</time>
      </trkpt>
      <trkpt lat="44.71996" lon="7.05023">
        <ele>2615</ele>
        <time>2022-07-16T06:52:00Z</time>
      </trkpt>
      <trkpt lat="44.71994" lon="7.05028">
        <ele>2616</ele>
        <time>2022-07-16T06:52:08Z</time>
      </trkpt>
      <trkpt lat="44.71993" lon="7.05033">
        <ele>2617</ele>
        <time>2022-07-16T06:52:14Z</time>
      </trkpt>
      <trkpt lat="44.71989" lon="7.05036">
        <ele>2616</ele>
        <time>2022-07-16T06:52:20Z</time>
      </trkpt>
      <trkpt lat="44.71986" lon="7.05037">
        <ele>2616</ele>
        <time>2022-07-16T06:52:27Z</time>
      </trkpt>
      <trkpt lat="44.71984" lon="7.05041">
        <ele>2616</ele>
        <time>2022-07-16T06:52:33Z</time>
      </trkpt>
      <trkpt lat="44.71981" lon="7.05044">
        <ele>2617</ele>
        <time>2022-07-16T06:52:40Z</time>
      </trkpt>
      <trkpt lat="44.71978" lon="7.05048">
        <ele>2617</ele>
        <time>2022-07-16T06:52:47Z</time>
      </trkpt>
      <trkpt lat="44.71978" lon="7.05053">
        <ele>2619</ele>
        <time>2022-07-16T06:52:53Z</time>
      </trkpt>
      <trkpt lat="44.71978" lon="7.05058">
        <ele>2619</ele>
        <time>2022-07-16T06:53:01Z</time>
      </trkpt>
      <trkpt lat="44.7198" lon="7.05063">
        <ele>2620</ele>
        <time>2022-07-16T06:53:37Z</time>
      </trkpt>
      <trkpt lat="44.71977" lon="7.05066">
        <ele>2620</ele>
        <time>2022-07-16T06:53:42Z</time>
      </trkpt>
      <trkpt lat="44.71974" lon="7.05061">
        <ele>2620</ele>
        <time>2022-07-16T06:53:48Z</time>
      </trkpt>
      <trkpt lat="44.71973" lon="7.05065">
        <ele>2617</ele>
        <time>2022-07-16T06:55:57Z</time>
      </trkpt>
      <trkpt lat="44.71969" lon="7.05068">
        <ele>2616</ele>
        <time>2022-07-16T06:56:02Z</time>
      </trkpt>
      <trkpt lat="44.71966" lon="7.0507">
        <ele>2614</ele>
        <time>2022-07-16T06:56:07Z</time>
      </trkpt>
      <trkpt lat="44.71964" lon="7.05075">
        <ele>2612</ele>
        <time>2022-07-16T06:56:13Z</time>
      </trkpt>
      <trkpt lat="44.7196" lon="7.05084">
        <ele>2614</ele>
        <time>2022-07-16T06:56:25Z</time>
      </trkpt>
      <trkpt lat="44.71962" lon="7.05097">
        <ele>2617</ele>
        <time>2022-07-16T06:56:38Z</time>
      </trkpt>
      <trkpt lat="44.71965" lon="7.05109">
        <ele>2625</ele>
        <time>2022-07-16T06:56:53Z</time>
      </trkpt>
      <trkpt lat="44.71959" lon="7.05119">
        <ele>2629</ele>
        <time>2022-07-16T06:57:19Z</time>
      </trkpt>
      <trkpt lat="44.71955" lon="7.05131">
        <ele>2631</ele>
        <time>2022-07-16T06:57:41Z</time>
      </trkpt>
      <trkpt lat="44.71957" lon="7.05143">
        <ele>2634</ele>
        <time>2022-07-16T06:58:11Z</time>
      </trkpt>
      <trkpt lat="44.71952" lon="7.05155">
        <ele>2639</ele>
        <time>2022-07-16T06:58:29Z</time>
      </trkpt>
      <trkpt lat="44.71942" lon="7.05176">
        <ele>2643</ele>
        <time>2022-07-16T06:59:01Z</time>
      </trkpt>
      <trkpt lat="44.7194" lon="7.05188">
        <ele>2645</ele>
        <time>2022-07-16T06:59:21Z</time>
      </trkpt>
      <trkpt lat="44.71932" lon="7.05196">
        <ele>2646</ele>
        <time>2022-07-16T06:59:39Z</time>
      </trkpt>
      <trkpt lat="44.71927" lon="7.05206">
        <ele>2647</ele>
        <time>2022-07-16T07:00:00Z</time>
      </trkpt>
      <trkpt lat="44.71919" lon="7.05213">
        <ele>2648</ele>
        <time>2022-07-16T07:00:19Z</time>
      </trkpt>
      <trkpt lat="44.71911" lon="7.05219">
        <ele>2650</ele>
        <time>2022-07-16T07:00:42Z</time>
      </trkpt>
      <trkpt lat="44.71904" lon="7.05227">
        <ele>2653</ele>
        <time>2022-07-16T07:01:01Z</time>
      </trkpt>
      <trkpt lat="44.71899" lon="7.05238">
        <ele>2657</ele>
        <time>2022-07-16T07:01:26Z</time>
      </trkpt>
      <trkpt lat="44.71891" lon="7.05245">
        <ele>2663</ele>
        <time>2022-07-16T07:01:48Z</time>
      </trkpt>
      <trkpt lat="44.71886" lon="7.05255">
        <ele>2668</ele>
        <time>2022-07-16T07:02:13Z</time>
      </trkpt>
      <trkpt lat="44.71879" lon="7.05279">
        <ele>2672</ele>
        <time>2022-07-16T07:03:02Z</time>
      </trkpt>
      <trkpt lat="44.71874" lon="7.05289">
        <ele>2678</ele>
        <time>2022-07-16T07:03:17Z</time>
      </trkpt>
      <trkpt lat="44.71871" lon="7.05296">
        <ele>2680</ele>
        <time>2022-07-16T07:03:27Z</time>
      </trkpt>
      <trkpt lat="44.71867" lon="7.05297">
        <ele>2682</ele>
        <time>2022-07-16T07:03:33Z</time>
      </trkpt>
      <trkpt lat="44.71868" lon="7.05303">
        <ele>2683</ele>
        <time>2022-07-16T07:03:38Z</time>
      </trkpt>
      <trkpt lat="44.71871" lon="7.05304">
        <ele>2683</ele>
        <time>2022-07-16T07:03:43Z</time>
      </trkpt>
      <trkpt lat="44.71872" lon="7.05308">
        <ele>2683</ele>
        <time>2022-07-16T07:03:56Z</time>
      </trkpt>
      <trkpt lat="44.71871" lon="7.05313">
        <ele>2684</ele>
        <time>2022-07-16T07:04:08Z</time>
      </trkpt>
      <trkpt lat="44.71869" lon="7.05317">
        <ele>2687</ele>
        <time>2022-07-16T07:04:16Z</time>
      </trkpt>
      <trkpt lat="44.71871" lon="7.0532">
        <ele>2686</ele>
        <time>2022-07-16T07:04:32Z</time>
      </trkpt>
      <trkpt lat="44.71869" lon="7.05334">
        <ele>2693</ele>
        <time>2022-07-16T07:04:58Z</time>
      </trkpt>
      <trkpt lat="44.71876" lon="7.05337">
        <ele>2693</ele>
        <time>2022-07-16T07:05:21Z</time>
      </trkpt>
      <trkpt lat="44.7188" lon="7.05338">
        <ele>2695</ele>
        <time>2022-07-16T07:05:31Z</time>
      </trkpt>
      <trkpt lat="44.71883" lon="7.05341">
        <ele>2697</ele>
        <time>2022-07-16T07:05:32Z</time>
      </trkpt>
      <trkpt lat="44.71884" lon="7.05346">
        <ele>2699</ele>
        <time>2022-07-16T07:05:40Z</time>
      </trkpt>
      <trkpt lat="44.71886" lon="7.05351">
        <ele>2698</ele>
        <time>2022-07-16T07:05:47Z</time>
      </trkpt>
      <trkpt lat="44.71889" lon="7.05354">
        <ele>2697</ele>
        <time>2022-07-16T07:05:54Z</time>
      </trkpt>
      <trkpt lat="44.71893" lon="7.05353">
        <ele>2698</ele>
        <time>2022-07-16T07:05:58Z</time>
      </trkpt>
      <trkpt lat="44.71896" lon="7.05355">
        <ele>2699</ele>
        <time>2022-07-16T07:06:03Z</time>
      </trkpt>
      <trkpt lat="44.71898" lon="7.05359">
        <ele>2699</ele>
        <time>2022-07-16T07:06:09Z</time>
      </trkpt>
      <trkpt lat="44.71899" lon="7.05365">
        <ele>2699</ele>
        <time>2022-07-16T07:06:17Z</time>
      </trkpt>
      <trkpt lat="44.71903" lon="7.05366">
        <ele>2700</ele>
        <time>2022-07-16T07:06:30Z</time>
      </trkpt>
      <trkpt lat="44.71902" lon="7.05371">
        <ele>2702</ele>
        <time>2022-07-16T07:06:34Z</time>
      </trkpt>
      <trkpt lat="44.71902" lon="7.05376">
        <ele>2702</ele>
        <time>2022-07-16T07:06:49Z</time>
      </trkpt>
      <trkpt lat="44.719" lon="7.0538">
        <ele>2705</ele>
        <time>2022-07-16T07:07:00Z</time>
      </trkpt>
      <trkpt lat="44.71902" lon="7.05384">
        <ele>2706</ele>
        <time>2022-07-16T07:07:08Z</time>
      </trkpt>
      <trkpt lat="44.71901" lon="7.05389">
        <ele>2707</ele>
        <time>2022-07-16T07:07:17Z</time>
      </trkpt>
      <trkpt lat="44.719" lon="7.05394">
        <ele>2708</ele>
        <time>2022-07-16T07:07:30Z</time>
      </trkpt>
      <trkpt lat="44.71897" lon="7.05392">
        <ele>2709</ele>
        <time>2022-07-16T07:07:38Z</time>
      </trkpt>
      <trkpt lat="44.71894" lon="7.05388">
        <ele>2710</ele>
        <time>2022-07-16T07:07:48Z</time>
      </trkpt>
      <trkpt lat="44.71892" lon="7.05392">
        <ele>2711</ele>
        <time>2022-07-16T07:07:55Z</time>
      </trkpt>
      <trkpt lat="44.71889" lon="7.05396">
        <ele>2711</ele>
        <time>2022-07-16T07:08:09Z</time>
      </trkpt>
      <trkpt lat="44.71891" lon="7.05399">
        <ele>2711</ele>
        <time>2022-07-16T07:08:15Z</time>
      </trkpt>
      <trkpt lat="44.71894" lon="7.05402">
        <ele>2714</ele>
        <time>2022-07-16T07:08:24Z</time>
      </trkpt>
      <trkpt lat="44.71896" lon="7.05407">
        <ele>2716</ele>
        <time>2022-07-16T07:08:31Z</time>
      </trkpt>
      <trkpt lat="44.71893" lon="7.05409">
        <ele>2717</ele>
        <time>2022-07-16T07:08:38Z</time>
      </trkpt>
      <trkpt lat="44.71892" lon="7.0541">
        <ele>2717</ele>
        <time>2022-07-16T07:08:53Z</time>
      </trkpt>
      <trkpt lat="44.71892" lon="7.05415">
        <ele>2719</ele>
        <time>2022-07-16T07:09:02Z</time>
      </trkpt>
      <trkpt lat="44.71889" lon="7.05418">
        <ele>2720</ele>
        <time>2022-07-16T07:09:10Z</time>
      </trkpt>
      <trkpt lat="44.71885" lon="7.05417">
        <ele>2724</ele>
        <time>2022-07-16T07:09:19Z</time>
      </trkpt>
      <trkpt lat="44.71882" lon="7.05427">
        <ele>2728</ele>
        <time>2022-07-16T07:09:44Z</time>
      </trkpt>
      <trkpt lat="44.71882" lon="7.05431">
        <ele>2728</ele>
        <time>2022-07-16T07:09:53Z</time>
      </trkpt>
      <trkpt lat="44.7188" lon="7.05436">
        <ele>2730</ele>
        <time>2022-07-16T07:10:00Z</time>
      </trkpt>
      <trkpt lat="44.7188" lon="7.05441">
        <ele>2730</ele>
        <time>2022-07-16T07:10:15Z</time>
      </trkpt>
      <trkpt lat="44.71882" lon="7.05445">
        <ele>2733</ele>
        <time>2022-07-16T07:10:22Z</time>
      </trkpt>
      <trkpt lat="44.71882" lon="7.0545">
        <ele>2733</ele>
        <time>2022-07-16T07:10:30Z</time>
      </trkpt>
      <trkpt lat="44.71883" lon="7.05455">
        <ele>2733</ele>
        <time>2022-07-16T07:10:38Z</time>
      </trkpt>
      <trkpt lat="44.71883" lon="7.0546">
        <ele>2735</ele>
        <time>2022-07-16T07:10:51Z</time>
      </trkpt>
      <trkpt lat="44.71879" lon="7.05457">
        <ele>2736</ele>
        <time>2022-07-16T07:11:09Z</time>
      </trkpt>
      <trkpt lat="44.71876" lon="7.05456">
        <ele>2738</ele>
        <time>2022-07-16T07:11:20Z</time>
      </trkpt>
      <trkpt lat="44.71875" lon="7.05462">
        <ele>2739</ele>
        <time>2022-07-16T07:11:25Z</time>
      </trkpt>
      <trkpt lat="44.71874" lon="7.05466">
        <ele>2740</ele>
        <time>2022-07-16T07:11:34Z</time>
      </trkpt>
      <trkpt lat="44.71872" lon="7.0547">
        <ele>2741</ele>
        <time>2022-07-16T07:11:42Z</time>
      </trkpt>
      <trkpt lat="44.71871" lon="7.0548">
        <ele>2744</ele>
        <time>2022-07-16T07:11:54Z</time>
      </trkpt>
      <trkpt lat="44.71869" lon="7.05484">
        <ele>2745</ele>
        <time>2022-07-16T07:12:01Z</time>
      </trkpt>
      <trkpt lat="44.71863" lon="7.05491">
        <ele>2746</ele>
        <time>2022-07-16T07:12:16Z</time>
      </trkpt>
      <trkpt lat="44.71861" lon="7.05495">
        <ele>2747</ele>
        <time>2022-07-16T07:12:24Z</time>
      </trkpt>
      <trkpt lat="44.71858" lon="7.05496">
        <ele>2748</ele>
        <time>2022-07-16T07:12:36Z</time>
      </trkpt>
      <trkpt lat="44.71851" lon="7.055">
        <ele>2750</ele>
        <time>2022-07-16T07:12:52Z</time>
      </trkpt>
      <trkpt lat="44.71848" lon="7.05502">
        <ele>2750</ele>
        <time>2022-07-16T07:12:59Z</time>
      </trkpt>
      <trkpt lat="44.71842" lon="7.05507">
        <ele>2748</ele>
        <time>2022-07-16T07:13:11Z</time>
      </trkpt>
      <trkpt lat="44.71839" lon="7.05511">
        <ele>2749</ele>
        <time>2022-07-16T07:13:16Z</time>
      </trkpt>
      <trkpt lat="44.71837" lon="7.05515">
        <ele>2751</ele>
        <time>2022-07-16T07:13:22Z</time>
      </trkpt>
      <trkpt lat="44.71833" lon="7.05515">
        <ele>2752</ele>
        <time>2022-07-16T07:13:27Z</time>
      </trkpt>
      <trkpt lat="44.7183" lon="7.05515">
        <ele>2752</ele>
        <time>2022-07-16T07:13:33Z</time>
      </trkpt>
      <trkpt lat="44.71827" lon="7.05518">
        <ele>2752</ele>
        <time>2022-07-16T07:13:41Z</time>
      </trkpt>
      <trkpt lat="44.71828" lon="7.05523">
        <ele>2753</ele>
        <time>2022-07-16T07:13:47Z</time>
      </trkpt>
      <trkpt lat="44.71826" lon="7.05528">
        <ele>2755</ele>
        <time>2022-07-16T07:13:54Z</time>
      </trkpt>
      <trkpt lat="44.71826" lon="7.05533">
        <ele>2759</ele>
        <time>2022-07-16T07:14:01Z</time>
      </trkpt>
      <trkpt lat="44.71828" lon="7.05537">
        <ele>2759</ele>
        <time>2022-07-16T07:14:07Z</time>
      </trkpt>
      <trkpt lat="44.71825" lon="7.05541">
        <ele>2759</ele>
        <time>2022-07-16T07:14:14Z</time>
      </trkpt>
      <trkpt lat="44.71821" lon="7.05541">
        <ele>2760</ele>
        <time>2022-07-16T07:14:22Z</time>
      </trkpt>
      <trkpt lat="44.71819" lon="7.05546">
        <ele>2760</ele>
        <time>2022-07-16T07:14:31Z</time>
      </trkpt>
      <trkpt lat="44.71815" lon="7.05545">
        <ele>2762</ele>
        <time>2022-07-16T07:14:38Z</time>
      </trkpt>
      <trkpt lat="44.71812" lon="7.05547">
        <ele>2761</ele>
        <time>2022-07-16T07:14:44Z</time>
      </trkpt>
      <trkpt lat="44.71809" lon="7.0555">
        <ele>2761</ele>
        <time>2022-07-16T07:14:50Z</time>
      </trkpt>
      <trkpt lat="44.71805" lon="7.05551">
        <ele>2761</ele>
        <time>2022-07-16T07:14:56Z</time>
      </trkpt>
      <trkpt lat="44.71801" lon="7.05551">
        <ele>2761</ele>
        <time>2022-07-16T07:15:02Z</time>
      </trkpt>
      <trkpt lat="44.71798" lon="7.05554">
        <ele>2760</ele>
        <time>2022-07-16T07:15:08Z</time>
      </trkpt>
      <trkpt lat="44.71795" lon="7.05558">
        <ele>2761</ele>
        <time>2022-07-16T07:15:16Z</time>
      </trkpt>
      <trkpt lat="44.71792" lon="7.05561">
        <ele>2764</ele>
        <time>2022-07-16T07:15:22Z</time>
      </trkpt>
      <trkpt lat="44.7179" lon="7.05564">
        <ele>2765</ele>
        <time>2022-07-16T07:15:28Z</time>
      </trkpt>
      <trkpt lat="44.71787" lon="7.05566">
        <ele>2764</ele>
        <time>2022-07-16T07:15:35Z</time>
      </trkpt>
      <trkpt lat="44.71784" lon="7.0557">
        <ele>2764</ele>
        <time>2022-07-16T07:15:41Z</time>
      </trkpt>
      <trkpt lat="44.71782" lon="7.05574">
        <ele>2766</ele>
        <time>2022-07-16T07:15:50Z</time>
      </trkpt>
      <trkpt lat="44.71778" lon="7.05574">
        <ele>2766</ele>
        <time>2022-07-16T07:15:55Z</time>
      </trkpt>
      <trkpt lat="44.71774" lon="7.05578">
        <ele>2768</ele>
        <time>2022-07-16T07:16:01Z</time>
      </trkpt>
      <trkpt lat="44.71773" lon="7.05583">
        <ele>2769</ele>
        <time>2022-07-16T07:16:06Z</time>
      </trkpt>
      <trkpt lat="44.71775" lon="7.05588">
        <ele>2772</ele>
        <time>2022-07-16T07:16:13Z</time>
      </trkpt>
      <trkpt lat="44.71772" lon="7.05592">
        <ele>2773</ele>
        <time>2022-07-16T07:16:19Z</time>
      </trkpt>
      <trkpt lat="44.71769" lon="7.05595">
        <ele>2775</ele>
        <time>2022-07-16T07:16:24Z</time>
      </trkpt>
      <trkpt lat="44.71768" lon="7.056">
        <ele>2775</ele>
        <time>2022-07-16T07:16:31Z</time>
      </trkpt>
      <trkpt lat="44.71766" lon="7.05604">
        <ele>2775</ele>
        <time>2022-07-16T07:16:38Z</time>
      </trkpt>
      <trkpt lat="44.7177" lon="7.05606">
        <ele>2774</ele>
        <time>2022-07-16T07:16:49Z</time>
      </trkpt>
      <trkpt lat="44.71768" lon="7.05611">
        <ele>2774</ele>
        <time>2022-07-16T07:16:58Z</time>
      </trkpt>
      <trkpt lat="44.71769" lon="7.05617">
        <ele>2773</ele>
        <time>2022-07-16T07:17:04Z</time>
      </trkpt>
      <trkpt lat="44.7177" lon="7.05622">
        <ele>2773</ele>
        <time>2022-07-16T07:17:10Z</time>
      </trkpt>
      <trkpt lat="44.71768" lon="7.05627">
        <ele>2775</ele>
        <time>2022-07-16T07:17:17Z</time>
      </trkpt>
      <trkpt lat="44.71769" lon="7.05637">
        <ele>2773</ele>
        <time>2022-07-16T07:17:35Z</time>
      </trkpt>
      <trkpt lat="44.71769" lon="7.05642">
        <ele>2772</ele>
        <time>2022-07-16T07:17:40Z</time>
      </trkpt>
      <trkpt lat="44.7177" lon="7.05647">
        <ele>2772</ele>
        <time>2022-07-16T07:17:45Z</time>
      </trkpt>
      <trkpt lat="44.71767" lon="7.0565">
        <ele>2772</ele>
        <time>2022-07-16T07:17:50Z</time>
      </trkpt>
      <trkpt lat="44.71765" lon="7.05654">
        <ele>2772</ele>
        <time>2022-07-16T07:17:55Z</time>
      </trkpt>
      <trkpt lat="44.71759" lon="7.0566">
        <ele>2771</ele>
        <time>2022-07-16T07:18:07Z</time>
      </trkpt>
      <trkpt lat="44.71758" lon="7.05666">
        <ele>2771</ele>
        <time>2022-07-16T07:18:13Z</time>
      </trkpt>
      <trkpt lat="44.71756" lon="7.0567">
        <ele>2774</ele>
        <time>2022-07-16T07:18:21Z</time>
      </trkpt>
      <trkpt lat="44.71756" lon="7.05675">
        <ele>2775</ele>
        <time>2022-07-16T07:18:27Z</time>
      </trkpt>
      <trkpt lat="44.71753" lon="7.05678">
        <ele>2777</ele>
        <time>2022-07-16T07:18:36Z</time>
      </trkpt>
      <trkpt lat="44.7175" lon="7.05676">
        <ele>2777</ele>
        <time>2022-07-16T07:18:42Z</time>
      </trkpt>
      <trkpt lat="44.71746" lon="7.05676">
        <ele>2779</ele>
        <time>2022-07-16T07:18:50Z</time>
      </trkpt>
      <trkpt lat="44.71743" lon="7.05674">
        <ele>2779</ele>
        <time>2022-07-16T07:19:01Z</time>
      </trkpt>
      <trkpt lat="44.71736" lon="7.05676">
        <ele>2781</ele>
        <time>2022-07-16T07:19:20Z</time>
      </trkpt>
      <trkpt lat="44.71735" lon="7.05682">
        <ele>2784</ele>
        <time>2022-07-16T07:19:29Z</time>
      </trkpt>
      <trkpt lat="44.71737" lon="7.05686">
        <ele>2785</ele>
        <time>2022-07-16T07:19:35Z</time>
      </trkpt>
      <trkpt lat="44.71735" lon="7.05689">
        <ele>2786</ele>
        <time>2022-07-16T07:19:43Z</time>
      </trkpt>
      <trkpt lat="44.71733" lon="7.05694">
        <ele>2786</ele>
        <time>2022-07-16T07:19:51Z</time>
      </trkpt>
      <trkpt lat="44.7173" lon="7.05694">
        <ele>2787</ele>
        <time>2022-07-16T07:19:58Z</time>
      </trkpt>
      <trkpt lat="44.71726" lon="7.05696">
        <ele>2788</ele>
        <time>2022-07-16T07:20:07Z</time>
      </trkpt>
      <trkpt lat="44.71724" lon="7.057">
        <ele>2790</ele>
        <time>2022-07-16T07:20:17Z</time>
      </trkpt>
      <trkpt lat="44.7172" lon="7.05697">
        <ele>2790</ele>
        <time>2022-07-16T07:20:27Z</time>
      </trkpt>
      <trkpt lat="44.71717" lon="7.057">
        <ele>2791</ele>
        <time>2022-07-16T07:20:35Z</time>
      </trkpt>
      <trkpt lat="44.71716" lon="7.05704">
        <ele>2794</ele>
        <time>2022-07-16T07:20:44Z</time>
      </trkpt>
      <trkpt lat="44.71711" lon="7.05712">
        <ele>2795</ele>
        <time>2022-07-16T07:21:05Z</time>
      </trkpt>
      <trkpt lat="44.71707" lon="7.05711">
        <ele>2795</ele>
        <time>2022-07-16T07:21:13Z</time>
      </trkpt>
      <trkpt lat="44.71704" lon="7.05712">
        <ele>2797</ele>
        <time>2022-07-16T07:21:21Z</time>
      </trkpt>
      <trkpt lat="44.71701" lon="7.05708">
        <ele>2797</ele>
        <time>2022-07-16T07:21:28Z</time>
      </trkpt>
      <trkpt lat="44.71695" lon="7.05713">
        <ele>2797</ele>
        <time>2022-07-16T07:21:40Z</time>
      </trkpt>
      <trkpt lat="44.71696" lon="7.05718">
        <ele>2800</ele>
        <time>2022-07-16T07:21:46Z</time>
      </trkpt>
      <trkpt lat="44.71695" lon="7.05722">
        <ele>2802</ele>
        <time>2022-07-16T07:21:55Z</time>
      </trkpt>
      <trkpt lat="44.71695" lon="7.05728">
        <ele>2804</ele>
        <time>2022-07-16T07:22:05Z</time>
      </trkpt>
      <trkpt lat="44.71695" lon="7.05733">
        <ele>2806</ele>
        <time>2022-07-16T07:22:20Z</time>
      </trkpt>
      <trkpt lat="44.71697" lon="7.05737">
        <ele>2808</ele>
        <time>2022-07-16T07:22:31Z</time>
      </trkpt>
      <trkpt lat="44.71698" lon="7.05743">
        <ele>2809</ele>
        <time>2022-07-16T07:22:38Z</time>
      </trkpt>
      <trkpt lat="44.71697" lon="7.05748">
        <ele>2810</ele>
        <time>2022-07-16T07:22:44Z</time>
      </trkpt>
      <trkpt lat="44.71695" lon="7.05751">
        <ele>2810</ele>
        <time>2022-07-16T07:22:53Z</time>
      </trkpt>
      <trkpt lat="44.71693" lon="7.05756">
        <ele>2810</ele>
        <time>2022-07-16T07:23:04Z</time>
      </trkpt>
      <trkpt lat="44.7169" lon="7.05758">
        <ele>2812</ele>
        <time>2022-07-16T07:23:12Z</time>
      </trkpt>
      <trkpt lat="44.71686" lon="7.05759">
        <ele>2813</ele>
        <time>2022-07-16T07:23:20Z</time>
      </trkpt>
      <trkpt lat="44.71683" lon="7.05763">
        <ele>2813</ele>
        <time>2022-07-16T07:23:29Z</time>
      </trkpt>
      <trkpt lat="44.71681" lon="7.05766">
        <ele>2815</ele>
        <time>2022-07-16T07:23:38Z</time>
      </trkpt>
      <trkpt lat="44.71683" lon="7.05777">
        <ele>2815</ele>
        <time>2022-07-16T07:23:50Z</time>
      </trkpt>
      <trkpt lat="44.71682" lon="7.05782">
        <ele>2816</ele>
        <time>2022-07-16T07:23:56Z</time>
      </trkpt>
      <trkpt lat="44.71685" lon="7.05786">
        <ele>2816</ele>
        <time>2022-07-16T07:24:03Z</time>
      </trkpt>
      <trkpt lat="44.71682" lon="7.05789">
        <ele>2817</ele>
        <time>2022-07-16T07:24:11Z</time>
      </trkpt>
      <trkpt lat="44.71684" lon="7.05794">
        <ele>2817</ele>
        <time>2022-07-16T07:24:19Z</time>
      </trkpt>
      <trkpt lat="44.71687" lon="7.05809">
        <ele>2822</ele>
        <time>2022-07-16T07:24:44Z</time>
      </trkpt>
      <trkpt lat="44.71686" lon="7.05814">
        <ele>2823</ele>
        <time>2022-07-16T07:24:50Z</time>
      </trkpt>
      <trkpt lat="44.71681" lon="7.05822">
        <ele>2825</ele>
        <time>2022-07-16T07:25:03Z</time>
      </trkpt>
      <trkpt lat="44.71679" lon="7.05825">
        <ele>2825</ele>
        <time>2022-07-16T07:25:09Z</time>
      </trkpt>
      <trkpt lat="44.71675" lon="7.05826">
        <ele>2825</ele>
        <time>2022-07-16T07:25:15Z</time>
      </trkpt>
      <trkpt lat="44.71672" lon="7.05829">
        <ele>2825</ele>
        <time>2022-07-16T07:25:20Z</time>
      </trkpt>
      <trkpt lat="44.71671" lon="7.05834">
        <ele>2826</ele>
        <time>2022-07-16T07:25:28Z</time>
      </trkpt>
      <trkpt lat="44.71668" lon="7.05837">
        <ele>2829</ele>
        <time>2022-07-16T07:25:35Z</time>
      </trkpt>
      <trkpt lat="44.71665" lon="7.05837">
        <ele>2829</ele>
        <time>2022-07-16T07:25:42Z</time>
      </trkpt>
      <trkpt lat="44.71663" lon="7.05842">
        <ele>2831</ele>
        <time>2022-07-16T07:25:55Z</time>
      </trkpt>
      <trkpt lat="44.7166" lon="7.05843">
        <ele>2831</ele>
        <time>2022-07-16T07:26:02Z</time>
      </trkpt>
      <trkpt lat="44.71657" lon="7.05846">
        <ele>2832</ele>
        <time>2022-07-16T07:26:10Z</time>
      </trkpt>
      <trkpt lat="44.71653" lon="7.05847">
        <ele>2833</ele>
        <time>2022-07-16T07:26:18Z</time>
      </trkpt>
      <trkpt lat="44.71649" lon="7.05849">
        <ele>2832</ele>
        <time>2022-07-16T07:26:25Z</time>
      </trkpt>
      <trkpt lat="44.71648" lon="7.05845">
        <ele>2832</ele>
        <time>2022-07-16T07:26:35Z</time>
      </trkpt>
      <trkpt lat="44.71645" lon="7.05847">
        <ele>2833</ele>
        <time>2022-07-16T07:26:45Z</time>
      </trkpt>
      <trkpt lat="44.71643" lon="7.05852">
        <ele>2832</ele>
        <time>2022-07-16T07:26:59Z</time>
      </trkpt>
      <trkpt lat="44.71632" lon="7.05854">
        <ele>2834</ele>
        <time>2022-07-16T07:27:22Z</time>
      </trkpt>
      <trkpt lat="44.71628" lon="7.05854">
        <ele>2835</ele>
        <time>2022-07-16T07:27:29Z</time>
      </trkpt>
      <trkpt lat="44.71625" lon="7.05855">
        <ele>2836</ele>
        <time>2022-07-16T07:27:35Z</time>
      </trkpt>
      <trkpt lat="44.71618" lon="7.05859">
        <ele>2837</ele>
        <time>2022-07-16T07:27:49Z</time>
      </trkpt>
      <trkpt lat="44.71616" lon="7.05863">
        <ele>2839</ele>
        <time>2022-07-16T07:27:59Z</time>
      </trkpt>
      <trkpt lat="44.71615" lon="7.05868">
        <ele>2843</ele>
        <time>2022-07-16T07:28:08Z</time>
      </trkpt>
      <trkpt lat="44.71611" lon="7.05869">
        <ele>2844</ele>
        <time>2022-07-16T07:28:20Z</time>
      </trkpt>
      <trkpt lat="44.71609" lon="7.05872">
        <ele>2845</ele>
        <time>2022-07-16T07:28:26Z</time>
      </trkpt>
      <trkpt lat="44.71608" lon="7.05877">
        <ele>2846</ele>
        <time>2022-07-16T07:28:32Z</time>
      </trkpt>
      <trkpt lat="44.71605" lon="7.05881">
        <ele>2847</ele>
        <time>2022-07-16T07:28:38Z</time>
      </trkpt>
      <trkpt lat="44.71602" lon="7.05885">
        <ele>2847</ele>
        <time>2022-07-16T07:28:45Z</time>
      </trkpt>
      <trkpt lat="44.71602" lon="7.05895">
        <ele>2849</ele>
        <time>2022-07-16T07:29:01Z</time>
      </trkpt>
      <trkpt lat="44.716" lon="7.05899">
        <ele>2852</ele>
        <time>2022-07-16T07:29:10Z</time>
      </trkpt>
      <trkpt lat="44.71598" lon="7.05903">
        <ele>2853</ele>
        <time>2022-07-16T07:29:18Z</time>
      </trkpt>
      <trkpt lat="44.71598" lon="7.05908">
        <ele>2854</ele>
        <time>2022-07-16T07:29:25Z</time>
      </trkpt>
      <trkpt lat="44.71599" lon="7.05913">
        <ele>2856</ele>
        <time>2022-07-16T07:29:35Z</time>
      </trkpt>
      <trkpt lat="44.71596" lon="7.05922">
        <ele>2858</ele>
        <time>2022-07-16T07:30:05Z</time>
      </trkpt>
      <trkpt lat="44.71594" lon="7.05926">
        <ele>2858</ele>
        <time>2022-07-16T07:30:12Z</time>
      </trkpt>
      <trkpt lat="44.71593" lon="7.05932">
        <ele>2857</ele>
        <time>2022-07-16T07:30:21Z</time>
      </trkpt>
      <trkpt lat="44.71594" lon="7.05937">
        <ele>2856</ele>
        <time>2022-07-16T07:30:31Z</time>
      </trkpt>
      <trkpt lat="44.71592" lon="7.05941">
        <ele>2857</ele>
        <time>2022-07-16T07:30:38Z</time>
      </trkpt>
      <trkpt lat="44.71591" lon="7.05946">
        <ele>2858</ele>
        <time>2022-07-16T07:30:46Z</time>
      </trkpt>
      <trkpt lat="44.71594" lon="7.05949">
        <ele>2860</ele>
        <time>2022-07-16T07:30:54Z</time>
      </trkpt>
      <trkpt lat="44.71593" lon="7.05953">
        <ele>2860</ele>
        <time>2022-07-16T07:31:00Z</time>
      </trkpt>
      <trkpt lat="44.71589" lon="7.05955">
        <ele>2861</ele>
        <time>2022-07-16T07:31:06Z</time>
      </trkpt>
      <trkpt lat="44.71588" lon="7.05959">
        <ele>2863</ele>
        <time>2022-07-16T07:31:15Z</time>
      </trkpt>
      <trkpt lat="44.71585" lon="7.05962">
        <ele>2863</ele>
        <time>2022-07-16T07:31:21Z</time>
      </trkpt>
      <trkpt lat="44.71583" lon="7.05966">
        <ele>2864</ele>
        <time>2022-07-16T07:31:27Z</time>
      </trkpt>
      <trkpt lat="44.71579" lon="7.05967">
        <ele>2864</ele>
        <time>2022-07-16T07:31:35Z</time>
      </trkpt>
      <trkpt lat="44.71577" lon="7.05972">
        <ele>2865</ele>
        <time>2022-07-16T07:31:43Z</time>
      </trkpt>
      <trkpt lat="44.71575" lon="7.05976">
        <ele>2866</ele>
        <time>2022-07-16T07:31:51Z</time>
      </trkpt>
      <trkpt lat="44.71571" lon="7.05984">
        <ele>2869</ele>
        <time>2022-07-16T07:32:06Z</time>
      </trkpt>
      <trkpt lat="44.71567" lon="7.05986">
        <ele>2868</ele>
        <time>2022-07-16T07:32:12Z</time>
      </trkpt>
      <trkpt lat="44.71564" lon="7.05989">
        <ele>2869</ele>
        <time>2022-07-16T07:32:20Z</time>
      </trkpt>
      <trkpt lat="44.71564" lon="7.05994">
        <ele>2870</ele>
        <time>2022-07-16T07:32:29Z</time>
      </trkpt>
      <trkpt lat="44.7156" lon="7.05994">
        <ele>2870</ele>
        <time>2022-07-16T07:32:38Z</time>
      </trkpt>
      <trkpt lat="44.71558" lon="7.05997">
        <ele>2871</ele>
        <time>2022-07-16T07:32:46Z</time>
      </trkpt>
      <trkpt lat="44.71557" lon="7.06002">
        <ele>2871</ele>
        <time>2022-07-16T07:32:53Z</time>
      </trkpt>
      <trkpt lat="44.71556" lon="7.06008">
        <ele>2871</ele>
        <time>2022-07-16T07:33:00Z</time>
      </trkpt>
      <trkpt lat="44.71554" lon="7.06012">
        <ele>2870</ele>
        <time>2022-07-16T07:33:09Z</time>
      </trkpt>
      <trkpt lat="44.71555" lon="7.06017">
        <ele>2871</ele>
        <time>2022-07-16T07:33:16Z</time>
      </trkpt>
      <trkpt lat="44.71555" lon="7.06022">
        <ele>2872</ele>
        <time>2022-07-16T07:33:24Z</time>
      </trkpt>
      <trkpt lat="44.71552" lon="7.06025">
        <ele>2872</ele>
        <time>2022-07-16T07:33:31Z</time>
      </trkpt>
      <trkpt lat="44.71552" lon="7.0603">
        <ele>2873</ele>
        <time>2022-07-16T07:33:38Z</time>
      </trkpt>
      <trkpt lat="44.7155" lon="7.06035">
        <ele>2874</ele>
        <time>2022-07-16T07:33:44Z</time>
      </trkpt>
      <trkpt lat="44.71547" lon="7.06039">
        <ele>2873</ele>
        <time>2022-07-16T07:33:50Z</time>
      </trkpt>
      <trkpt lat="44.71546" lon="7.06044">
        <ele>2874</ele>
        <time>2022-07-16T07:33:56Z</time>
      </trkpt>
      <trkpt lat="44.71545" lon="7.06048">
        <ele>2874</ele>
        <time>2022-07-16T07:34:02Z</time>
      </trkpt>
      <trkpt lat="44.71545" lon="7.06053">
        <ele>2874</ele>
        <time>2022-07-16T07:34:05Z</time>
      </trkpt>
      <trkpt lat="44.71548" lon="7.06057">
        <ele>2874</ele>
        <time>2022-07-16T07:34:10Z</time>
      </trkpt>
      <trkpt lat="44.71554" lon="7.06069">
        <ele>2874</ele>
        <time>2022-07-16T07:34:34Z</time>
      </trkpt>
      <trkpt lat="44.71557" lon="7.06073">
        <ele>2873</ele>
        <time>2022-07-16T07:34:40Z</time>
      </trkpt>
      <trkpt lat="44.7156" lon="7.06077">
        <ele>2874</ele>
        <time>2022-07-16T07:34:45Z</time>
      </trkpt>
      <trkpt lat="44.71561" lon="7.06088">
        <ele>2875</ele>
        <time>2022-07-16T07:34:56Z</time>
      </trkpt>
      <trkpt lat="44.7156" lon="7.06093">
        <ele>2874</ele>
        <time>2022-07-16T07:35:02Z</time>
      </trkpt>
      <trkpt lat="44.71557" lon="7.06096">
        <ele>2873</ele>
        <time>2022-07-16T07:35:07Z</time>
      </trkpt>
      <trkpt lat="44.71555" lon="7.061">
        <ele>2873</ele>
        <time>2022-07-16T07:35:14Z</time>
      </trkpt>
      <trkpt lat="44.71553" lon="7.06105">
        <ele>2874</ele>
        <time>2022-07-16T07:35:19Z</time>
      </trkpt>
      <trkpt lat="44.71554" lon="7.0611">
        <ele>2874</ele>
        <time>2022-07-16T07:35:25Z</time>
      </trkpt>
      <trkpt lat="44.71553" lon="7.0612">
        <ele>2875</ele>
        <time>2022-07-16T07:35:42Z</time>
      </trkpt>
      <trkpt lat="44.7155" lon="7.06123">
        <ele>2877</ele>
        <time>2022-07-16T07:35:48Z</time>
      </trkpt>
      <trkpt lat="44.71547" lon="7.06126">
        <ele>2878</ele>
        <time>2022-07-16T07:35:59Z</time>
      </trkpt>
      <trkpt lat="44.71546" lon="7.06131">
        <ele>2879</ele>
        <time>2022-07-16T07:36:10Z</time>
      </trkpt>
      <trkpt lat="44.71545" lon="7.06136">
        <ele>2882</ele>
        <time>2022-07-16T07:36:23Z</time>
      </trkpt>
      <trkpt lat="44.71543" lon="7.0614">
        <ele>2883</ele>
        <time>2022-07-16T07:36:32Z</time>
      </trkpt>
      <trkpt lat="44.71543" lon="7.06145">
        <ele>2884</ele>
        <time>2022-07-16T07:36:39Z</time>
      </trkpt>
      <trkpt lat="44.71542" lon="7.0615">
        <ele>2885</ele>
        <time>2022-07-16T07:36:44Z</time>
      </trkpt>
      <trkpt lat="44.71546" lon="7.06159">
        <ele>2884</ele>
        <time>2022-07-16T07:36:53Z</time>
      </trkpt>
      <trkpt lat="44.71542" lon="7.06167">
        <ele>2888</ele>
        <time>2022-07-16T07:37:10Z</time>
      </trkpt>
      <trkpt lat="44.71542" lon="7.06177">
        <ele>2889</ele>
        <time>2022-07-16T07:37:23Z</time>
      </trkpt>
      <trkpt lat="44.7154" lon="7.06182">
        <ele>2889</ele>
        <time>2022-07-16T07:37:29Z</time>
      </trkpt>
      <trkpt lat="44.71537" lon="7.06185">
        <ele>2892</ele>
        <time>2022-07-16T07:37:36Z</time>
      </trkpt>
      <trkpt lat="44.71534" lon="7.06188">
        <ele>2893</ele>
        <time>2022-07-16T07:37:43Z</time>
      </trkpt>
      <trkpt lat="44.71534" lon="7.06193">
        <ele>2895</ele>
        <time>2022-07-16T07:37:51Z</time>
      </trkpt>
      <trkpt lat="44.71535" lon="7.06198">
        <ele>2894</ele>
        <time>2022-07-16T07:37:59Z</time>
      </trkpt>
      <trkpt lat="44.71534" lon="7.06203">
        <ele>2895</ele>
        <time>2022-07-16T07:38:07Z</time>
      </trkpt>
      <trkpt lat="44.71536" lon="7.06208">
        <ele>2896</ele>
        <time>2022-07-16T07:38:16Z</time>
      </trkpt>
      <trkpt lat="44.71533" lon="7.06209">
        <ele>2896</ele>
        <time>2022-07-16T07:38:23Z</time>
      </trkpt>
      <trkpt lat="44.7153" lon="7.06213">
        <ele>2896</ele>
        <time>2022-07-16T07:38:32Z</time>
      </trkpt>
      <trkpt lat="44.71532" lon="7.06223">
        <ele>2896</ele>
        <time>2022-07-16T07:38:44Z</time>
      </trkpt>
      <trkpt lat="44.71534" lon="7.06228">
        <ele>2896</ele>
        <time>2022-07-16T07:39:05Z</time>
      </trkpt>
      <trkpt lat="44.71536" lon="7.06235">
        <ele>2894</ele>
        <time>2022-07-16T07:39:14Z</time>
      </trkpt>
      <trkpt lat="44.71537" lon="7.06241">
        <ele>2890</ele>
        <time>2022-07-16T07:39:26Z</time>
      </trkpt>
      <trkpt lat="44.71535" lon="7.06246">
        <ele>2890</ele>
        <time>2022-07-16T07:39:32Z</time>
      </trkpt>
      <trkpt lat="44.71533" lon="7.0625">
        <ele>2888</ele>
        <time>2022-07-16T07:39:42Z</time>
      </trkpt>
      <trkpt lat="44.71536" lon="7.06253">
        <ele>2888</ele>
        <time>2022-07-16T07:39:51Z</time>
      </trkpt>
      <trkpt lat="44.71536" lon="7.06258">
        <ele>2887</ele>
        <time>2022-07-16T07:39:54Z</time>
      </trkpt>
      <trkpt lat="44.71537" lon="7.06263">
        <ele>2886</ele>
        <time>2022-07-16T07:39:58Z</time>
      </trkpt>
      <trkpt lat="44.71536" lon="7.06269">
        <ele>2885</ele>
        <time>2022-07-16T07:40:04Z</time>
      </trkpt>
      <trkpt lat="44.71536" lon="7.06275">
        <ele>2885</ele>
        <time>2022-07-16T07:40:14Z</time>
      </trkpt>
      <trkpt lat="44.71535" lon="7.06288">
        <ele>2884</ele>
        <time>2022-07-16T07:40:28Z</time>
      </trkpt>
      <trkpt lat="44.71535" lon="7.06294">
        <ele>2882</ele>
        <time>2022-07-16T07:40:36Z</time>
      </trkpt>
      <trkpt lat="44.71534" lon="7.063">
        <ele>2881</ele>
        <time>2022-07-16T07:40:43Z</time>
      </trkpt>
      <trkpt lat="44.71534" lon="7.06307">
        <ele>2880</ele>
        <time>2022-07-16T07:40:50Z</time>
      </trkpt>
      <trkpt lat="44.71535" lon="7.06313">
        <ele>2879</ele>
        <time>2022-07-16T07:40:56Z</time>
      </trkpt>
      <trkpt lat="44.71536" lon="7.06318">
        <ele>2880</ele>
        <time>2022-07-16T07:41:03Z</time>
      </trkpt>
      <trkpt lat="44.71536" lon="7.06342">
        <ele>2880</ele>
        <time>2022-07-16T07:41:29Z</time>
      </trkpt>
      <trkpt lat="44.71534" lon="7.06349">
        <ele>2879</ele>
        <time>2022-07-16T07:41:37Z</time>
      </trkpt>
      <trkpt lat="44.71535" lon="7.06354">
        <ele>2882</ele>
        <time>2022-07-16T07:41:52Z</time>
      </trkpt>
      <trkpt lat="44.71536" lon="7.0636">
        <ele>2885</ele>
        <time>2022-07-16T07:42:02Z</time>
      </trkpt>
      <trkpt lat="44.71536" lon="7.06364">
        <ele>2891</ele>
        <time>2022-07-16T07:47:27Z</time>
      </trkpt>
      <trkpt lat="44.71536" lon="7.06373">
        <ele>2890</ele>
        <time>2022-07-16T07:48:07Z</time>
      </trkpt>
      <trkpt lat="44.71533" lon="7.06376">
        <ele>2889</ele>
        <time>2022-07-16T07:48:14Z</time>
      </trkpt>
      <trkpt lat="44.71534" lon="7.06381">
        <ele>2889</ele>
        <time>2022-07-16T07:48:23Z</time>
      </trkpt>
      <trkpt lat="44.71533" lon="7.06396">
        <ele>2891</ele>
        <time>2022-07-16T07:48:52Z</time>
      </trkpt>
      <trkpt lat="44.7153" lon="7.06398">
        <ele>2892</ele>
        <time>2022-07-16T07:49:00Z</time>
      </trkpt>
      <trkpt lat="44.71525" lon="7.06408">
        <ele>2894</ele>
        <time>2022-07-16T07:49:21Z</time>
      </trkpt>
      <trkpt lat="44.71527" lon="7.06421">
        <ele>2896</ele>
        <time>2022-07-16T07:50:00Z</time>
      </trkpt>
      <trkpt lat="44.71529" lon="7.06426">
        <ele>2901</ele>
        <time>2022-07-16T07:50:19Z</time>
      </trkpt>
      <trkpt lat="44.71528" lon="7.06431">
        <ele>2903</ele>
        <time>2022-07-16T07:50:34Z</time>
      </trkpt>
      <trkpt lat="44.71524" lon="7.06432">
        <ele>2903</ele>
        <time>2022-07-16T07:50:51Z</time>
      </trkpt>
      <trkpt lat="44.71518" lon="7.06439">
        <ele>2903</ele>
        <time>2022-07-16T07:51:28Z</time>
      </trkpt>
      <trkpt lat="44.71521" lon="7.0644">
        <ele>2907</ele>
        <time>2022-07-16T07:51:52Z</time>
      </trkpt>
      <trkpt lat="44.71521" lon="7.06446">
        <ele>2908</ele>
        <time>2022-07-16T07:52:07Z</time>
      </trkpt>
      <trkpt lat="44.71523" lon="7.06451">
        <ele>2911</ele>
        <time>2022-07-16T07:52:21Z</time>
      </trkpt>
      <trkpt lat="44.71523" lon="7.06456">
        <ele>2913</ele>
        <time>2022-07-16T07:53:16Z</time>
      </trkpt>
      <trkpt lat="44.71522" lon="7.06461">
        <ele>2915</ele>
        <time>2022-07-16T07:53:30Z</time>
      </trkpt>
      <trkpt lat="44.71524" lon="7.06465">
        <ele>2915</ele>
        <time>2022-07-16T07:54:30Z</time>
      </trkpt>
      <trkpt lat="44.71524" lon="7.0647">
        <ele>2918</ele>
        <time>2022-07-16T07:54:38Z</time>
      </trkpt>
      <trkpt lat="44.71525" lon="7.06475">
        <ele>2919</ele>
        <time>2022-07-16T07:54:47Z</time>
      </trkpt>
      <trkpt lat="44.71525" lon="7.0648">
        <ele>2923</ele>
        <time>2022-07-16T07:54:58Z</time>
      </trkpt>
      <trkpt lat="44.71526" lon="7.06485">
        <ele>2924</ele>
        <time>2022-07-16T07:55:10Z</time>
      </trkpt>
      <trkpt lat="44.71526" lon="7.0649">
        <ele>2929</ele>
        <time>2022-07-16T07:55:18Z</time>
      </trkpt>
      <trkpt lat="44.71526" lon="7.06494">
        <ele>2932</ele>
        <time>2022-07-16T07:55:32Z</time>
      </trkpt>
      <trkpt lat="44.71532" lon="7.06498">
        <ele>2941</ele>
        <time>2022-07-16T07:56:14Z</time>
      </trkpt>
      <trkpt lat="44.71533" lon="7.06503">
        <ele>2941</ele>
        <time>2022-07-16T07:56:22Z</time>
      </trkpt>
      <trkpt lat="44.71533" lon="7.06508">
        <ele>2942</ele>
        <time>2022-07-16T07:56:31Z</time>
      </trkpt>
      <trkpt lat="44.71535" lon="7.06513">
        <ele>2941</ele>
        <time>2022-07-16T07:56:42Z</time>
      </trkpt>
      <trkpt lat="44.71533" lon="7.06517">
        <ele>2941</ele>
        <time>2022-07-16T07:56:54Z</time>
      </trkpt>
      <trkpt lat="44.7153" lon="7.0652">
        <ele>2942</ele>
        <time>2022-07-16T07:57:11Z</time>
      </trkpt>
      <trkpt lat="44.71534" lon="7.06525">
        <ele>2942</ele>
        <time>2022-07-16T07:57:18Z</time>
      </trkpt>
      <trkpt lat="44.71533" lon="7.06531">
        <ele>2947</ele>
        <time>2022-07-16T07:57:34Z</time>
      </trkpt>
      <trkpt lat="44.71529" lon="7.06533">
        <ele>2948</ele>
        <time>2022-07-16T07:57:43Z</time>
      </trkpt>
      <trkpt lat="44.71532" lon="7.06537">
        <ele>2953</ele>
        <time>2022-07-16T07:58:10Z</time>
      </trkpt>
      <trkpt lat="44.71536" lon="7.06538">
        <ele>2955</ele>
        <time>2022-07-16T07:58:23Z</time>
      </trkpt>
      <trkpt lat="44.71534" lon="7.06543">
        <ele>2958</ele>
        <time>2022-07-16T07:58:37Z</time>
      </trkpt>
      <trkpt lat="44.71532" lon="7.06548">
        <ele>2961</ele>
        <time>2022-07-16T07:58:46Z</time>
      </trkpt>
      <trkpt lat="44.71535" lon="7.0655">
        <ele>2963</ele>
        <time>2022-07-16T07:59:02Z</time>
      </trkpt>
      <trkpt lat="44.7154" lon="7.06553">
        <ele>2966</ele>
        <time>2022-07-16T07:59:17Z</time>
      </trkpt>
      <trkpt lat="44.71537" lon="7.06557">
        <ele>2968</ele>
        <time>2022-07-16T07:59:22Z</time>
      </trkpt>
      <trkpt lat="44.71535" lon="7.06562">
        <ele>2966</ele>
        <time>2022-07-16T07:59:43Z</time>
      </trkpt>
      <trkpt lat="44.71539" lon="7.06563">
        <ele>2965</ele>
        <time>2022-07-16T08:00:13Z</time>
      </trkpt>
      <trkpt lat="44.71542" lon="7.06564">
        <ele>2972</ele>
        <time>2022-07-16T08:01:04Z</time>
      </trkpt>
      <trkpt lat="44.71543" lon="7.06569">
        <ele>2972</ele>
        <time>2022-07-16T08:01:11Z</time>
      </trkpt>
      <trkpt lat="44.71547" lon="7.06571">
        <ele>2976</ele>
        <time>2022-07-16T08:01:29Z</time>
      </trkpt>
      <trkpt lat="44.71549" lon="7.06574">
        <ele>2983</ele>
        <time>2022-07-16T08:01:54Z</time>
      </trkpt>
      <trkpt lat="44.71553" lon="7.06573">
        <ele>2989</ele>
        <time>2022-07-16T08:02:07Z</time>
      </trkpt>
      <trkpt lat="44.71554" lon="7.06578">
        <ele>2990</ele>
        <time>2022-07-16T08:02:12Z</time>
      </trkpt>
      <trkpt lat="44.71553" lon="7.06582">
        <ele>2991</ele>
        <time>2022-07-16T08:02:17Z</time>
      </trkpt>
      <trkpt lat="44.7155" lon="7.06584">
        <ele>2992</ele>
        <time>2022-07-16T08:02:21Z</time>
      </trkpt>
      <trkpt lat="44.7155" lon="7.06589">
        <ele>2991</ele>
        <time>2022-07-16T08:02:31Z</time>
      </trkpt>
      <trkpt lat="44.7155" lon="7.06594">
        <ele>2993</ele>
        <time>2022-07-16T08:02:54Z</time>
      </trkpt>
      <trkpt lat="44.71554" lon="7.06593">
        <ele>2997</ele>
        <time>2022-07-16T08:03:03Z</time>
      </trkpt>
      <trkpt lat="44.71557" lon="7.06595">
        <ele>2999</ele>
        <time>2022-07-16T08:03:19Z</time>
      </trkpt>
      <trkpt lat="44.7156" lon="7.06595">
        <ele>3001</ele>
        <time>2022-07-16T08:03:48Z</time>
      </trkpt>
      <trkpt lat="44.71564" lon="7.06599">
        <ele>3002</ele>
        <time>2022-07-16T08:04:00Z</time>
      </trkpt>
      <trkpt lat="44.71567" lon="7.06601">
        <ele>3001</ele>
        <time>2022-07-16T08:04:18Z</time>
      </trkpt>
      <trkpt lat="44.71565" lon="7.06605">
        <ele>3002</ele>
        <time>2022-07-16T08:04:26Z</time>
      </trkpt>
      <trkpt lat="44.71568" lon="7.06609">
        <ele>3006</ele>
        <time>2022-07-16T08:05:12Z</time>
      </trkpt>
      <trkpt lat="44.7157" lon="7.06612">
        <ele>3012</ele>
        <time>2022-07-16T08:05:40Z</time>
      </trkpt>
      <trkpt lat="44.71571" lon="7.06617">
        <ele>3012</ele>
        <time>2022-07-16T08:05:45Z</time>
      </trkpt>
      <trkpt lat="44.71565" lon="7.06621">
        <ele>3018</ele>
        <time>2022-07-16T08:06:02Z</time>
      </trkpt>
      <trkpt lat="44.71562" lon="7.06622">
        <ele>3021</ele>
        <time>2022-07-16T08:06:13Z</time>
      </trkpt>
      <trkpt lat="44.71563" lon="7.06627">
        <ele>3021</ele>
        <time>2022-07-16T08:06:39Z</time>
      </trkpt>
      <trkpt lat="44.71565" lon="7.06632">
        <ele>3025</ele>
        <time>2022-07-16T08:07:01Z</time>
      </trkpt>
      <trkpt lat="44.71567" lon="7.06636">
        <ele>3026</ele>
        <time>2022-07-16T08:07:11Z</time>
      </trkpt>
      <trkpt lat="44.71565" lon="7.06641">
        <ele>3026</ele>
        <time>2022-07-16T08:07:22Z</time>
      </trkpt>
      <trkpt lat="44.71563" lon="7.06644">
        <ele>3026</ele>
        <time>2022-07-16T08:07:39Z</time>
      </trkpt>
      <trkpt lat="44.71564" lon="7.06646">
        <ele>3031</ele>
        <time>2022-07-16T08:08:58Z</time>
      </trkpt>
      <trkpt lat="44.71568" lon="7.06649">
        <ele>3031</ele>
        <time>2022-07-16T08:11:49Z</time>
      </trkpt>
      <trkpt lat="44.71571" lon="7.06651">
        <ele>3041</ele>
        <time>2022-07-16T08:13:00Z</time>
      </trkpt>
      <trkpt lat="44.7157" lon="7.06656">
        <ele>3042</ele>
        <time>2022-07-16T08:13:21Z</time>
      </trkpt>
      <trkpt lat="44.7157" lon="7.06661">
        <ele>3046</ele>
        <time>2022-07-16T08:13:38Z</time>
      </trkpt>
      <trkpt lat="44.71573" lon="7.06664">
        <ele>3049</ele>
        <time>2022-07-16T08:14:17Z</time>
      </trkpt>
      <trkpt lat="44.71576" lon="7.06664">
        <ele>3052</ele>
        <time>2022-07-16T08:14:35Z</time>
      </trkpt>
      <trkpt lat="44.7158" lon="7.06666">
        <ele>3053</ele>
        <time>2022-07-16T08:14:44Z</time>
      </trkpt>
      <trkpt lat="44.71583" lon="7.0667">
        <ele>3057</ele>
        <time>2022-07-16T08:15:02Z</time>
      </trkpt>
      <trkpt lat="44.71585" lon="7.06674">
        <ele>3058</ele>
        <time>2022-07-16T08:15:13Z</time>
      </trkpt>
      <trkpt lat="44.71588" lon="7.06676">
        <ele>3060</ele>
        <time>2022-07-16T08:15:34Z</time>
      </trkpt>
      <trkpt lat="44.71592" lon="7.06675">
        <ele>3062</ele>
        <time>2022-07-16T08:15:53Z</time>
      </trkpt>
      <trkpt lat="44.71595" lon="7.06678">
        <ele>3067</ele>
        <time>2022-07-16T08:16:33Z</time>
      </trkpt>
      <trkpt lat="44.71596" lon="7.06682">
        <ele>3068</ele>
        <time>2022-07-16T08:16:49Z</time>
      </trkpt>
      <trkpt lat="44.71599" lon="7.06687">
        <ele>3071</ele>
        <time>2022-07-16T08:17:05Z</time>
      </trkpt>
      <trkpt lat="44.71602" lon="7.06688">
        <ele>3072</ele>
        <time>2022-07-16T08:17:27Z</time>
      </trkpt>
      <trkpt lat="44.71602" lon="7.06693">
        <ele>3075</ele>
        <time>2022-07-16T08:17:38Z</time>
      </trkpt>
      <trkpt lat="44.71605" lon="7.06692">
        <ele>3077</ele>
        <time>2022-07-16T08:17:53Z</time>
      </trkpt>
      <trkpt lat="44.71609" lon="7.06693">
        <ele>3080</ele>
        <time>2022-07-16T08:18:10Z</time>
      </trkpt>
      <trkpt lat="44.71612" lon="7.06694">
        <ele>3080</ele>
        <time>2022-07-16T08:18:23Z</time>
      </trkpt>
      <trkpt lat="44.71613" lon="7.06699">
        <ele>3082</ele>
        <time>2022-07-16T08:18:39Z</time>
      </trkpt>
      <trkpt lat="44.71614" lon="7.06704">
        <ele>3089</ele>
        <time>2022-07-16T08:19:37Z</time>
      </trkpt>
      <trkpt lat="44.71613" lon="7.06708">
        <ele>3090</ele>
        <time>2022-07-16T08:19:44Z</time>
      </trkpt>
      <trkpt lat="44.71617" lon="7.06708">
        <ele>3094</ele>
        <time>2022-07-16T08:20:11Z</time>
      </trkpt>
      <trkpt lat="44.71619" lon="7.06712">
        <ele>3096</ele>
        <time>2022-07-16T08:20:30Z</time>
      </trkpt>
      <trkpt lat="44.71622" lon="7.06714">
        <ele>3097</ele>
        <time>2022-07-16T08:21:04Z</time>
      </trkpt>
      <trkpt lat="44.71625" lon="7.06718">
        <ele>3100</ele>
        <time>2022-07-16T08:21:14Z</time>
      </trkpt>
      <trkpt lat="44.71625" lon="7.06723">
        <ele>3102</ele>
        <time>2022-07-16T08:22:53Z</time>
      </trkpt>
      <trkpt lat="44.71628" lon="7.06726">
        <ele>3111</ele>
        <time>2022-07-16T08:23:53Z</time>
      </trkpt>
      <trkpt lat="44.7163" lon="7.06729">
        <ele>3113</ele>
        <time>2022-07-16T08:24:48Z</time>
      </trkpt>
      <trkpt lat="44.71633" lon="7.06732">
        <ele>3115</ele>
        <time>2022-07-16T08:25:02Z</time>
      </trkpt>
      <trkpt lat="44.71636" lon="7.06735">
        <ele>3121</ele>
        <time>2022-07-16T08:25:35Z</time>
      </trkpt>
      <trkpt lat="44.71639" lon="7.06738">
        <ele>3125</ele>
        <time>2022-07-16T08:26:03Z</time>
      </trkpt>
      <trkpt lat="44.71643" lon="7.06735">
        <ele>3126</ele>
        <time>2022-07-16T08:26:30Z</time>
      </trkpt>
      <trkpt lat="44.71646" lon="7.06733">
        <ele>3127</ele>
        <time>2022-07-16T08:26:38Z</time>
      </trkpt>
      <trkpt lat="44.71646" lon="7.06735">
        <ele>3127</ele>
        <time>2022-07-16T08:26:49Z</time>
      </trkpt>
      <trkpt lat="44.71645" lon="7.0674">
        <ele>3130</ele>
        <time>2022-07-16T08:27:12Z</time>
      </trkpt>
      <trkpt lat="44.71648" lon="7.06743">
        <ele>3133</ele>
        <time>2022-07-16T08:27:23Z</time>
      </trkpt>
      <trkpt lat="44.71645" lon="7.06746">
        <ele>3135</ele>
        <time>2022-07-16T08:27:30Z</time>
      </trkpt>
      <trkpt lat="44.71648" lon="7.0675">
        <ele>3136</ele>
        <time>2022-07-16T08:27:41Z</time>
      </trkpt>
      <trkpt lat="44.7165" lon="7.06747">
        <ele>3137</ele>
        <time>2022-07-16T08:28:02Z</time>
      </trkpt>
      <trkpt lat="44.71653" lon="7.06749">
        <ele>3139</ele>
        <time>2022-07-16T08:28:08Z</time>
      </trkpt>
      <trkpt lat="44.71655" lon="7.06745">
        <ele>3139</ele>
        <time>2022-07-16T08:28:13Z</time>
      </trkpt>
      <trkpt lat="44.71655" lon="7.06739">
        <ele>3141</ele>
        <time>2022-07-16T08:28:17Z</time>
      </trkpt>
      <trkpt lat="44.71657" lon="7.06735">
        <ele>3142</ele>
        <time>2022-07-16T08:28:22Z</time>
      </trkpt>
      <trkpt lat="44.71651" lon="7.0673">
        <ele>3147</ele>
        <time>2022-07-16T08:28:33Z</time>
      </trkpt>
      <trkpt lat="44.71653" lon="7.06734">
        <ele>3146</ele>
        <time>2022-07-16T08:28:45Z</time>
      </trkpt>
      <trkpt lat="44.71655" lon="7.06739">
        <ele>3146</ele>
        <time>2022-07-16T08:28:50Z</time>
      </trkpt>
      <trkpt lat="44.71653" lon="7.06745">
        <ele>3145</ele>
        <time>2022-07-16T08:28:58Z</time>
      </trkpt>
      <trkpt lat="44.71655" lon="7.06746">
        <ele>3145</ele>
        <time>2022-07-16T08:29:18Z</time>
      </trkpt>
      <trkpt lat="44.71659" lon="7.06748">
        <ele>3146</ele>
        <time>2022-07-16T08:29:48Z</time>
      </trkpt>
      <trkpt lat="44.71666" lon="7.06744">
        <ele>3147</ele>
        <time>2022-07-16T08:30:06Z</time>
      </trkpt>
      <trkpt lat="44.71669" lon="7.06748">
        <ele>3147</ele>
        <time>2022-07-16T08:30:12Z</time>
      </trkpt>
      <trkpt lat="44.71673" lon="7.06746">
        <ele>3147</ele>
        <time>2022-07-16T08:30:17Z</time>
      </trkpt>
      <trkpt lat="44.71673" lon="7.06751">
        <ele>3148</ele>
        <time>2022-07-16T08:30:20Z</time>
      </trkpt>
      <trkpt lat="44.71673" lon="7.06757">
        <ele>3149</ele>
        <time>2022-07-16T08:30:31Z</time>
      </trkpt>
      <trkpt lat="44.71671" lon="7.06761">
        <ele>3151</ele>
        <time>2022-07-16T08:30:35Z</time>
      </trkpt>
      <trkpt lat="44.71669" lon="7.06765">
        <ele>3152</ele>
        <time>2022-07-16T08:30:45Z</time>
      </trkpt>
      <trkpt lat="44.71668" lon="7.06765">
        <ele>3159</ele>
        <time>2022-07-16T08:31:49Z</time>
      </trkpt>
      <trkpt lat="44.71667" lon="7.06761">
        <ele>3159</ele>
        <time>2022-07-16T08:31:54Z</time>
      </trkpt>
      <trkpt lat="44.71666" lon="7.06755">
        <ele>3160</ele>
        <time>2022-07-16T08:32:17Z</time>
      </trkpt>
      <trkpt lat="44.71669" lon="7.06756">
        <ele>3162</ele>
        <time>2022-07-16T08:32:31Z</time>
      </trkpt>
      <trkpt lat="44.71672" lon="7.06753">
        <ele>3163</ele>
        <time>2022-07-16T08:33:05Z</time>
      </trkpt>
      <trkpt lat="44.71674" lon="7.06748">
        <ele>3165</ele>
        <time>2022-07-16T08:33:10Z</time>
      </trkpt>
      <trkpt lat="44.71675" lon="7.06754">
        <ele>3165</ele>
        <time>2022-07-16T08:33:23Z</time>
      </trkpt>
      <trkpt lat="44.71679" lon="7.06753">
        <ele>3173</ele>
        <time>2022-07-16T08:35:24Z</time>
      </trkpt>
      <trkpt lat="44.71678" lon="7.06755">
        <ele>3176</ele>
        <time>2022-07-16T08:48:17Z</time>
      </trkpt>
      <trkpt lat="44.71675" lon="7.06754">
        <ele>3176</ele>
        <time>2022-07-16T08:48:51Z</time>
      </trkpt>
      <trkpt lat="44.71674" lon="7.06754">
        <ele>3175</ele>
        <time>2022-07-16T08:49:46Z</time>
      </trkpt>
      <trkpt lat="44.71672" lon="7.06758">
        <ele>3167</ele>
        <time>2022-07-16T08:50:30Z</time>
      </trkpt>
      <trkpt lat="44.71668" lon="7.06756">
        <ele>3166</ele>
        <time>2022-07-16T08:50:53Z</time>
      </trkpt>
      <trkpt lat="44.71665" lon="7.06759">
        <ele>3159</ele>
        <time>2022-07-16T08:51:42Z</time>
      </trkpt>
      <trkpt lat="44.71664" lon="7.06754">
        <ele>3158</ele>
        <time>2022-07-16T08:51:46Z</time>
      </trkpt>
      <trkpt lat="44.71662" lon="7.0675">
        <ele>3155</ele>
        <time>2022-07-16T08:51:58Z</time>
      </trkpt>
      <trkpt lat="44.71659" lon="7.06748">
        <ele>3153</ele>
        <time>2022-07-16T08:52:14Z</time>
      </trkpt>
      <trkpt lat="44.71657" lon="7.06752">
        <ele>3152</ele>
        <time>2022-07-16T08:52:50Z</time>
      </trkpt>
      <trkpt lat="44.71655" lon="7.06749">
        <ele>3151</ele>
        <time>2022-07-16T08:53:06Z</time>
      </trkpt>
      <trkpt lat="44.71652" lon="7.06746">
        <ele>3148</ele>
        <time>2022-07-16T08:55:43Z</time>
      </trkpt>
      <trkpt lat="44.71643" lon="7.06747">
        <ele>3146</ele>
        <time>2022-07-16T08:59:57Z</time>
      </trkpt>
      <trkpt lat="44.71639" lon="7.06747">
        <ele>3146</ele>
        <time>2022-07-16T09:00:09Z</time>
      </trkpt>
      <trkpt lat="44.71641" lon="7.06742">
        <ele>3144</ele>
        <time>2022-07-16T09:00:21Z</time>
      </trkpt>
      <trkpt lat="44.71638" lon="7.06738">
        <ele>3136</ele>
        <time>2022-07-16T09:01:25Z</time>
      </trkpt>
      <trkpt lat="44.71639" lon="7.06734">
        <ele>3134</ele>
        <time>2022-07-16T09:01:32Z</time>
      </trkpt>
      <trkpt lat="44.71636" lon="7.06735">
        <ele>3129</ele>
        <time>2022-07-16T09:01:59Z</time>
      </trkpt>
      <trkpt lat="44.71634" lon="7.06731">
        <ele>3128</ele>
        <time>2022-07-16T09:02:10Z</time>
      </trkpt>
      <trkpt lat="44.71632" lon="7.06735">
        <ele>3121</ele>
        <time>2022-07-16T09:02:24Z</time>
      </trkpt>
      <trkpt lat="44.71629" lon="7.06739">
        <ele>3122</ele>
        <time>2022-07-16T09:02:28Z</time>
      </trkpt>
      <trkpt lat="44.71626" lon="7.06737">
        <ele>3121</ele>
        <time>2022-07-16T09:02:36Z</time>
      </trkpt>
      <trkpt lat="44.71625" lon="7.06732">
        <ele>3121</ele>
        <time>2022-07-16T09:02:49Z</time>
      </trkpt>
      <trkpt lat="44.71625" lon="7.06727">
        <ele>3117</ele>
        <time>2022-07-16T09:03:59Z</time>
      </trkpt>
      <trkpt lat="44.71622" lon="7.06726">
        <ele>3116</ele>
        <time>2022-07-16T09:04:57Z</time>
      </trkpt>
      <trkpt lat="44.71618" lon="7.06724">
        <ele>3112</ele>
        <time>2022-07-16T09:05:18Z</time>
      </trkpt>
      <trkpt lat="44.71618" lon="7.06719">
        <ele>3112</ele>
        <time>2022-07-16T09:05:33Z</time>
      </trkpt>
      <trkpt lat="44.71616" lon="7.06715">
        <ele>3104</ele>
        <time>2022-07-16T09:06:59Z</time>
      </trkpt>
      <trkpt lat="44.71613" lon="7.06712">
        <ele>3103</ele>
        <time>2022-07-16T09:07:29Z</time>
      </trkpt>
      <trkpt lat="44.71611" lon="7.06708">
        <ele>3099</ele>
        <time>2022-07-16T09:07:43Z</time>
      </trkpt>
      <trkpt lat="44.71613" lon="7.06703">
        <ele>3098</ele>
        <time>2022-07-16T09:07:52Z</time>
      </trkpt>
      <trkpt lat="44.7161" lon="7.06701">
        <ele>3096</ele>
        <time>2022-07-16T09:08:14Z</time>
      </trkpt>
      <trkpt lat="44.71608" lon="7.06697">
        <ele>3087</ele>
        <time>2022-07-16T09:09:11Z</time>
      </trkpt>
      <trkpt lat="44.71608" lon="7.06691">
        <ele>3085</ele>
        <time>2022-07-16T09:09:21Z</time>
      </trkpt>
      <trkpt lat="44.71604" lon="7.06689">
        <ele>3083</ele>
        <time>2022-07-16T09:09:35Z</time>
      </trkpt>
      <trkpt lat="44.71601" lon="7.06692">
        <ele>3083</ele>
        <time>2022-07-16T09:09:47Z</time>
      </trkpt>
      <trkpt lat="44.71598" lon="7.06693">
        <ele>3079</ele>
        <time>2022-07-16T09:09:55Z</time>
      </trkpt>
      <trkpt lat="44.71595" lon="7.06689">
        <ele>3079</ele>
        <time>2022-07-16T09:10:01Z</time>
      </trkpt>
      <trkpt lat="44.71594" lon="7.06684">
        <ele>3078</ele>
        <time>2022-07-16T09:10:16Z</time>
      </trkpt>
      <trkpt lat="44.71593" lon="7.0668">
        <ele>3074</ele>
        <time>2022-07-16T09:10:43Z</time>
      </trkpt>
      <trkpt lat="44.71591" lon="7.06676">
        <ele>3072</ele>
        <time>2022-07-16T09:10:59Z</time>
      </trkpt>
      <trkpt lat="44.71587" lon="7.06675">
        <ele>3070</ele>
        <time>2022-07-16T09:11:19Z</time>
      </trkpt>
      <trkpt lat="44.71585" lon="7.06672">
        <ele>3065</ele>
        <time>2022-07-16T09:11:29Z</time>
      </trkpt>
      <trkpt lat="44.71581" lon="7.06671">
        <ele>3061</ele>
        <time>2022-07-16T09:12:37Z</time>
      </trkpt>
      <trkpt lat="44.71577" lon="7.06671">
        <ele>3056</ele>
        <time>2022-07-16T09:12:45Z</time>
      </trkpt>
      <trkpt lat="44.71576" lon="7.06667">
        <ele>3054</ele>
        <time>2022-07-16T09:12:53Z</time>
      </trkpt>
      <trkpt lat="44.71573" lon="7.06664">
        <ele>3051</ele>
        <time>2022-07-16T09:13:18Z</time>
      </trkpt>
      <trkpt lat="44.7157" lon="7.06665">
        <ele>3050</ele>
        <time>2022-07-16T09:13:26Z</time>
      </trkpt>
      <trkpt lat="44.71567" lon="7.06663">
        <ele>3049</ele>
        <time>2022-07-16T09:13:40Z</time>
      </trkpt>
      <trkpt lat="44.71563" lon="7.06661">
        <ele>3045</ele>
        <time>2022-07-16T09:14:33Z</time>
      </trkpt>
      <trkpt lat="44.7156" lon="7.06662">
        <ele>3045</ele>
        <time>2022-07-16T09:14:41Z</time>
      </trkpt>
      <trkpt lat="44.71557" lon="7.06663">
        <ele>3045</ele>
        <time>2022-07-16T09:14:46Z</time>
      </trkpt>
      <trkpt lat="44.71554" lon="7.0666">
        <ele>3045</ele>
        <time>2022-07-16T09:14:54Z</time>
      </trkpt>
      <trkpt lat="44.71551" lon="7.06656">
        <ele>3043</ele>
        <time>2022-07-16T09:15:22Z</time>
      </trkpt>
      <trkpt lat="44.71548" lon="7.06655">
        <ele>3042</ele>
        <time>2022-07-16T09:15:54Z</time>
      </trkpt>
      <trkpt lat="44.71545" lon="7.06652">
        <ele>3040</ele>
        <time>2022-07-16T09:16:02Z</time>
      </trkpt>
      <trkpt lat="44.71543" lon="7.06647">
        <ele>3039</ele>
        <time>2022-07-16T09:16:10Z</time>
      </trkpt>
      <trkpt lat="44.71546" lon="7.06645">
        <ele>3038</ele>
        <time>2022-07-16T09:17:28Z</time>
      </trkpt>
      <trkpt lat="44.71557" lon="7.0664">
        <ele>3034</ele>
        <time>2022-07-16T09:17:57Z</time>
      </trkpt>
      <trkpt lat="44.7156" lon="7.06637">
        <ele>3033</ele>
        <time>2022-07-16T09:18:14Z</time>
      </trkpt>
      <trkpt lat="44.71563" lon="7.06637">
        <ele>3032</ele>
        <time>2022-07-16T09:18:21Z</time>
      </trkpt>
      <trkpt lat="44.71562" lon="7.06633">
        <ele>3031</ele>
        <time>2022-07-16T09:18:37Z</time>
      </trkpt>
      <trkpt lat="44.71559" lon="7.06631">
        <ele>3031</ele>
        <time>2022-07-16T09:18:44Z</time>
      </trkpt>
      <trkpt lat="44.71559" lon="7.06626">
        <ele>3029</ele>
        <time>2022-07-16T09:18:55Z</time>
      </trkpt>
      <trkpt lat="44.7156" lon="7.06622">
        <ele>3027</ele>
        <time>2022-07-16T09:19:08Z</time>
      </trkpt>
      <trkpt lat="44.7156" lon="7.06617">
        <ele>3024</ele>
        <time>2022-07-16T09:19:23Z</time>
      </trkpt>
      <trkpt lat="44.71564" lon="7.06614">
        <ele>3024</ele>
        <time>2022-07-16T09:19:35Z</time>
      </trkpt>
      <trkpt lat="44.71565" lon="7.0661">
        <ele>3021</ele>
        <time>2022-07-16T09:20:04Z</time>
      </trkpt>
      <trkpt lat="44.71561" lon="7.0661">
        <ele>3020</ele>
        <time>2022-07-16T09:20:20Z</time>
      </trkpt>
      <trkpt lat="44.71563" lon="7.06605">
        <ele>3019</ele>
        <time>2022-07-16T09:20:30Z</time>
      </trkpt>
      <trkpt lat="44.7156" lon="7.06604">
        <ele>3015</ele>
        <time>2022-07-16T09:20:46Z</time>
      </trkpt>
      <trkpt lat="44.71561" lon="7.06599">
        <ele>3014</ele>
        <time>2022-07-16T09:20:55Z</time>
      </trkpt>
      <trkpt lat="44.71557" lon="7.06596">
        <ele>3013</ele>
        <time>2022-07-16T09:21:07Z</time>
      </trkpt>
      <trkpt lat="44.71557" lon="7.06591">
        <ele>3010</ele>
        <time>2022-07-16T09:21:33Z</time>
      </trkpt>
      <trkpt lat="44.71554" lon="7.06589">
        <ele>3007</ele>
        <time>2022-07-16T09:21:42Z</time>
      </trkpt>
      <trkpt lat="44.71551" lon="7.06587">
        <ele>3004</ele>
        <time>2022-07-16T09:21:58Z</time>
      </trkpt>
      <trkpt lat="44.7155" lon="7.06586">
        <ele>2999</ele>
        <time>2022-07-16T09:23:31Z</time>
      </trkpt>
      <trkpt lat="44.71548" lon="7.06582">
        <ele>2994</ele>
        <time>2022-07-16T09:23:55Z</time>
      </trkpt>
      <trkpt lat="44.7155" lon="7.06578">
        <ele>2994</ele>
        <time>2022-07-16T09:24:13Z</time>
      </trkpt>
      <trkpt lat="44.71552" lon="7.06573">
        <ele>2994</ele>
        <time>2022-07-16T09:24:24Z</time>
      </trkpt>
      <trkpt lat="44.71548" lon="7.06571">
        <ele>2994</ele>
        <time>2022-07-16T09:24:52Z</time>
      </trkpt>
      <trkpt lat="44.71546" lon="7.06566">
        <ele>2992</ele>
        <time>2022-07-16T09:25:13Z</time>
      </trkpt>
      <trkpt lat="44.71543" lon="7.06562">
        <ele>2991</ele>
        <time>2022-07-16T09:25:20Z</time>
      </trkpt>
      <trkpt lat="44.7154" lon="7.0656">
        <ele>2989</ele>
        <time>2022-07-16T09:25:36Z</time>
      </trkpt>
      <trkpt lat="44.71541" lon="7.06556">
        <ele>2987</ele>
        <time>2022-07-16T09:25:54Z</time>
      </trkpt>
      <trkpt lat="44.71537" lon="7.06556">
        <ele>2981</ele>
        <time>2022-07-16T09:26:37Z</time>
      </trkpt>
      <trkpt lat="44.71533" lon="7.06556">
        <ele>2980</ele>
        <time>2022-07-16T09:26:48Z</time>
      </trkpt>
      <trkpt lat="44.7153" lon="7.06554">
        <ele>2976</ele>
        <time>2022-07-16T09:26:57Z</time>
      </trkpt>
      <trkpt lat="44.71527" lon="7.06551">
        <ele>2974</ele>
        <time>2022-07-16T09:27:28Z</time>
      </trkpt>
      <trkpt lat="44.71525" lon="7.06546">
        <ele>2973</ele>
        <time>2022-07-16T09:27:35Z</time>
      </trkpt>
      <trkpt lat="44.71519" lon="7.06541">
        <ele>2969</ele>
        <time>2022-07-16T09:28:04Z</time>
      </trkpt>
      <trkpt lat="44.71517" lon="7.06537">
        <ele>2968</ele>
        <time>2022-07-16T09:28:10Z</time>
      </trkpt>
      <trkpt lat="44.71513" lon="7.06535">
        <ele>2967</ele>
        <time>2022-07-16T09:28:15Z</time>
      </trkpt>
      <trkpt lat="44.7151" lon="7.06532">
        <ele>2966</ele>
        <time>2022-07-16T09:28:28Z</time>
      </trkpt>
      <trkpt lat="44.71506" lon="7.06534">
        <ele>2966</ele>
        <time>2022-07-16T09:28:45Z</time>
      </trkpt>
      <trkpt lat="44.71501" lon="7.06535">
        <ele>2963</ele>
        <time>2022-07-16T09:28:56Z</time>
      </trkpt>
      <trkpt lat="44.71499" lon="7.06529">
        <ele>2962</ele>
        <time>2022-07-16T09:29:08Z</time>
      </trkpt>
      <trkpt lat="44.715" lon="7.06525">
        <ele>2961</ele>
        <time>2022-07-16T09:29:15Z</time>
      </trkpt>
      <trkpt lat="44.71495" lon="7.06524">
        <ele>2959</ele>
        <time>2022-07-16T09:29:29Z</time>
      </trkpt>
      <trkpt lat="44.71492" lon="7.06521">
        <ele>2955</ele>
        <time>2022-07-16T09:29:36Z</time>
      </trkpt>
      <trkpt lat="44.71488" lon="7.06518">
        <ele>2954</ele>
        <time>2022-07-16T09:29:44Z</time>
      </trkpt>
      <trkpt lat="44.71484" lon="7.06516">
        <ele>2951</ele>
        <time>2022-07-16T09:30:08Z</time>
      </trkpt>
      <trkpt lat="44.71482" lon="7.06514">
        <ele>2947</ele>
        <time>2022-07-16T09:33:33Z</time>
      </trkpt>
      <trkpt lat="44.71485" lon="7.06511">
        <ele>2947</ele>
        <time>2022-07-16T09:33:39Z</time>
      </trkpt>
      <trkpt lat="44.71488" lon="7.06509">
        <ele>2947</ele>
        <time>2022-07-16T09:33:44Z</time>
      </trkpt>
      <trkpt lat="44.71487" lon="7.06504">
        <ele>2939</ele>
        <time>2022-07-16T09:33:50Z</time>
      </trkpt>
      <trkpt lat="44.71476" lon="7.065">
        <ele>2940</ele>
        <time>2022-07-16T09:34:21Z</time>
      </trkpt>
      <trkpt lat="44.71472" lon="7.06501">
        <ele>2941</ele>
        <time>2022-07-16T09:34:29Z</time>
      </trkpt>
      <trkpt lat="44.71467" lon="7.06493">
        <ele>2936</ele>
        <time>2022-07-16T09:34:46Z</time>
      </trkpt>
      <trkpt lat="44.71464" lon="7.06491">
        <ele>2934</ele>
        <time>2022-07-16T09:35:02Z</time>
      </trkpt>
      <trkpt lat="44.71462" lon="7.06486">
        <ele>2931</ele>
        <time>2022-07-16T09:35:13Z</time>
      </trkpt>
      <trkpt lat="44.71459" lon="7.06486">
        <ele>2925</ele>
        <time>2022-07-16T09:35:46Z</time>
      </trkpt>
      <trkpt lat="44.71456" lon="7.06481">
        <ele>2923</ele>
        <time>2022-07-16T09:35:53Z</time>
      </trkpt>
      <trkpt lat="44.71452" lon="7.06484">
        <ele>2921</ele>
        <time>2022-07-16T09:36:02Z</time>
      </trkpt>
      <trkpt lat="44.71444" lon="7.06481">
        <ele>2917</ele>
        <time>2022-07-16T09:36:11Z</time>
      </trkpt>
      <trkpt lat="44.71442" lon="7.06477">
        <ele>2914</ele>
        <time>2022-07-16T09:36:20Z</time>
      </trkpt>
      <trkpt lat="44.7144" lon="7.06472">
        <ele>2910</ele>
        <time>2022-07-16T09:36:43Z</time>
      </trkpt>
      <trkpt lat="44.71432" lon="7.06468">
        <ele>2908</ele>
        <time>2022-07-16T09:37:10Z</time>
      </trkpt>
      <trkpt lat="44.7143" lon="7.06465">
        <ele>2912</ele>
        <time>2022-07-16T09:37:22Z</time>
      </trkpt>
      <trkpt lat="44.71427" lon="7.06461">
        <ele>2913</ele>
        <time>2022-07-16T09:37:33Z</time>
      </trkpt>
      <trkpt lat="44.7143" lon="7.06459">
        <ele>2912</ele>
        <time>2022-07-16T09:38:08Z</time>
      </trkpt>
      <trkpt lat="44.71431" lon="7.06454">
        <ele>2915</ele>
        <time>2022-07-16T09:39:25Z</time>
      </trkpt>
      <trkpt lat="44.71429" lon="7.06449">
        <ele>2915</ele>
        <time>2022-07-16T09:39:32Z</time>
      </trkpt>
      <trkpt lat="44.71432" lon="7.0644">
        <ele>2916</ele>
        <time>2022-07-16T09:39:47Z</time>
      </trkpt>
      <trkpt lat="44.71432" lon="7.06434">
        <ele>2916</ele>
        <time>2022-07-16T09:39:53Z</time>
      </trkpt>
      <trkpt lat="44.7143" lon="7.06429">
        <ele>2917</ele>
        <time>2022-07-16T09:40:02Z</time>
      </trkpt>
      <trkpt lat="44.71429" lon="7.06425">
        <ele>2918</ele>
        <time>2022-07-16T09:40:11Z</time>
      </trkpt>
      <trkpt lat="44.71426" lon="7.06421">
        <ele>2918</ele>
        <time>2022-07-16T09:40:30Z</time>
      </trkpt>
      <trkpt lat="44.71425" lon="7.06416">
        <ele>2921</ele>
        <time>2022-07-16T09:40:44Z</time>
      </trkpt>
      <trkpt lat="44.71423" lon="7.06412">
        <ele>2922</ele>
        <time>2022-07-16T09:40:51Z</time>
      </trkpt>
      <trkpt lat="44.71419" lon="7.06413">
        <ele>2923</ele>
        <time>2022-07-16T09:41:04Z</time>
      </trkpt>
      <trkpt lat="44.71416" lon="7.0641">
        <ele>2924</ele>
        <time>2022-07-16T09:41:10Z</time>
      </trkpt>
      <trkpt lat="44.71414" lon="7.06406">
        <ele>2927</ele>
        <time>2022-07-16T09:41:19Z</time>
      </trkpt>
      <trkpt lat="44.71411" lon="7.06402">
        <ele>2930</ele>
        <time>2022-07-16T09:42:17Z</time>
      </trkpt>
      <trkpt lat="44.71407" lon="7.06405">
        <ele>2931</ele>
        <time>2022-07-16T09:42:35Z</time>
      </trkpt>
      <trkpt lat="44.71403" lon="7.06402">
        <ele>2933</ele>
        <time>2022-07-16T09:42:45Z</time>
      </trkpt>
      <trkpt lat="44.714" lon="7.06406">
        <ele>2936</ele>
        <time>2022-07-16T09:42:53Z</time>
      </trkpt>
      <trkpt lat="44.714" lon="7.06404">
        <ele>2945</ele>
        <time>2022-07-16T09:51:49Z</time>
      </trkpt>
      <trkpt lat="44.714" lon="7.06399">
        <ele>2944</ele>
        <time>2022-07-16T09:52:01Z</time>
      </trkpt>
      <trkpt lat="44.71397" lon="7.06399">
        <ele>2944</ele>
        <time>2022-07-16T09:52:36Z</time>
      </trkpt>
      <trkpt lat="44.71393" lon="7.06397">
        <ele>2944</ele>
        <time>2022-07-16T09:52:50Z</time>
      </trkpt>
      <trkpt lat="44.71391" lon="7.06393">
        <ele>2944</ele>
        <time>2022-07-16T09:52:57Z</time>
      </trkpt>
      <trkpt lat="44.71388" lon="7.06392">
        <ele>2943</ele>
        <time>2022-07-16T09:53:15Z</time>
      </trkpt>
      <trkpt lat="44.71384" lon="7.0639">
        <ele>2941</ele>
        <time>2022-07-16T09:53:28Z</time>
      </trkpt>
      <trkpt lat="44.71382" lon="7.06387">
        <ele>2940</ele>
        <time>2022-07-16T09:53:51Z</time>
      </trkpt>
      <trkpt lat="44.71383" lon="7.06383">
        <ele>2940</ele>
        <time>2022-07-16T09:54:35Z</time>
      </trkpt>
      <trkpt lat="44.71379" lon="7.06378">
        <ele>2934</ele>
        <time>2022-07-16T09:55:39Z</time>
      </trkpt>
      <trkpt lat="44.71375" lon="7.06378">
        <ele>2928</ele>
        <time>2022-07-16T09:55:54Z</time>
      </trkpt>
      <trkpt lat="44.71367" lon="7.06368">
        <ele>2917</ele>
        <time>2022-07-16T09:56:38Z</time>
      </trkpt>
      <trkpt lat="44.71366" lon="7.06364">
        <ele>2916</ele>
        <time>2022-07-16T09:59:13Z</time>
      </trkpt>
      <trkpt lat="44.71365" lon="7.06359">
        <ele>2911</ele>
        <time>2022-07-16T09:59:22Z</time>
      </trkpt>
      <trkpt lat="44.71362" lon="7.06356">
        <ele>2908</ele>
        <time>2022-07-16T09:59:32Z</time>
      </trkpt>
      <trkpt lat="44.71361" lon="7.0635">
        <ele>2906</ele>
        <time>2022-07-16T09:59:44Z</time>
      </trkpt>
      <trkpt lat="44.71358" lon="7.06347">
        <ele>2904</ele>
        <time>2022-07-16T09:59:53Z</time>
      </trkpt>
      <trkpt lat="44.71356" lon="7.06343">
        <ele>2903</ele>
        <time>2022-07-16T10:00:05Z</time>
      </trkpt>
      <trkpt lat="44.71354" lon="7.06338">
        <ele>2899</ele>
        <time>2022-07-16T10:00:40Z</time>
      </trkpt>
      <trkpt lat="44.7135" lon="7.0634">
        <ele>2899</ele>
        <time>2022-07-16T10:00:48Z</time>
      </trkpt>
      <trkpt lat="44.71345" lon="7.06339">
        <ele>2897</ele>
        <time>2022-07-16T10:01:03Z</time>
      </trkpt>
      <trkpt lat="44.71342" lon="7.06343">
        <ele>2896</ele>
        <time>2022-07-16T10:01:21Z</time>
      </trkpt>
      <trkpt lat="44.71339" lon="7.06338">
        <ele>2886</ele>
        <time>2022-07-16T10:01:45Z</time>
      </trkpt>
      <trkpt lat="44.71337" lon="7.06342">
        <ele>2883</ele>
        <time>2022-07-16T10:02:08Z</time>
      </trkpt>
      <trkpt lat="44.71336" lon="7.06347">
        <ele>2882</ele>
        <time>2022-07-16T10:02:13Z</time>
      </trkpt>
      <trkpt lat="44.71336" lon="7.06352">
        <ele>2878</ele>
        <time>2022-07-16T10:02:17Z</time>
      </trkpt>
      <trkpt lat="44.71331" lon="7.0636">
        <ele>2873</ele>
        <time>2022-07-16T10:02:27Z</time>
      </trkpt>
      <trkpt lat="44.71323" lon="7.06376">
        <ele>2870</ele>
        <time>2022-07-16T10:02:46Z</time>
      </trkpt>
      <trkpt lat="44.71319" lon="7.06384">
        <ele>2869</ele>
        <time>2022-07-16T10:02:56Z</time>
      </trkpt>
      <trkpt lat="44.71316" lon="7.06387">
        <ele>2869</ele>
        <time>2022-07-16T10:03:00Z</time>
      </trkpt>
      <trkpt lat="44.71314" lon="7.06392">
        <ele>2868</ele>
        <time>2022-07-16T10:03:07Z</time>
      </trkpt>
      <trkpt lat="44.71311" lon="7.06395">
        <ele>2869</ele>
        <time>2022-07-16T10:03:13Z</time>
      </trkpt>
      <trkpt lat="44.71311" lon="7.064">
        <ele>2868</ele>
        <time>2022-07-16T10:03:19Z</time>
      </trkpt>
      <trkpt lat="44.71311" lon="7.06405">
        <ele>2868</ele>
        <time>2022-07-16T10:03:25Z</time>
      </trkpt>
      <trkpt lat="44.71312" lon="7.0641">
        <ele>2867</ele>
        <time>2022-07-16T10:03:31Z</time>
      </trkpt>
      <trkpt lat="44.71308" lon="7.06412">
        <ele>2862</ele>
        <time>2022-07-16T10:03:36Z</time>
      </trkpt>
      <trkpt lat="44.71305" lon="7.06409">
        <ele>2862</ele>
        <time>2022-07-16T10:03:42Z</time>
      </trkpt>
      <trkpt lat="44.71304" lon="7.06414">
        <ele>2864</ele>
        <time>2022-07-16T10:04:00Z</time>
      </trkpt>
      <trkpt lat="44.713" lon="7.06417">
        <ele>2864</ele>
        <time>2022-07-16T10:04:10Z</time>
      </trkpt>
      <trkpt lat="44.71299" lon="7.06423">
        <ele>2862</ele>
        <time>2022-07-16T10:04:16Z</time>
      </trkpt>
      <trkpt lat="44.71294" lon="7.06428">
        <ele>2862</ele>
        <time>2022-07-16T10:04:23Z</time>
      </trkpt>
      <trkpt lat="44.71291" lon="7.06432">
        <ele>2862</ele>
        <time>2022-07-16T10:04:31Z</time>
      </trkpt>
      <trkpt lat="44.71288" lon="7.06435">
        <ele>2863</ele>
        <time>2022-07-16T10:04:37Z</time>
      </trkpt>
      <trkpt lat="44.71286" lon="7.0644">
        <ele>2870</ele>
        <time>2022-07-16T10:04:47Z</time>
      </trkpt>
      <trkpt lat="44.71284" lon="7.06444">
        <ele>2870</ele>
        <time>2022-07-16T10:04:52Z</time>
      </trkpt>
      <trkpt lat="44.71283" lon="7.06449">
        <ele>2874</ele>
        <time>2022-07-16T10:04:58Z</time>
      </trkpt>
      <trkpt lat="44.7128" lon="7.06452">
        <ele>2874</ele>
        <time>2022-07-16T10:05:03Z</time>
      </trkpt>
      <trkpt lat="44.71277" lon="7.06455">
        <ele>2874</ele>
        <time>2022-07-16T10:05:07Z</time>
      </trkpt>
      <trkpt lat="44.71274" lon="7.06457">
        <ele>2874</ele>
        <time>2022-07-16T10:05:11Z</time>
      </trkpt>
      <trkpt lat="44.71271" lon="7.06459">
        <ele>2875</ele>
        <time>2022-07-16T10:05:15Z</time>
      </trkpt>
      <trkpt lat="44.71257" lon="7.06471">
        <ele>2874</ele>
        <time>2022-07-16T10:05:39Z</time>
      </trkpt>
      <trkpt lat="44.71254" lon="7.06472">
        <ele>2873</ele>
        <time>2022-07-16T10:05:44Z</time>
      </trkpt>
      <trkpt lat="44.7125" lon="7.06474">
        <ele>2872</ele>
        <time>2022-07-16T10:05:47Z</time>
      </trkpt>
      <trkpt lat="44.71247" lon="7.06477">
        <ele>2871</ele>
        <time>2022-07-16T10:05:51Z</time>
      </trkpt>
      <trkpt lat="44.71244" lon="7.06479">
        <ele>2871</ele>
        <time>2022-07-16T10:05:55Z</time>
      </trkpt>
      <trkpt lat="44.71238" lon="7.06486">
        <ele>2872</ele>
        <time>2022-07-16T10:06:09Z</time>
      </trkpt>
      <trkpt lat="44.71234" lon="7.06487">
        <ele>2874</ele>
        <time>2022-07-16T10:06:16Z</time>
      </trkpt>
      <trkpt lat="44.71231" lon="7.06488">
        <ele>2874</ele>
        <time>2022-07-16T10:06:22Z</time>
      </trkpt>
      <trkpt lat="44.71227" lon="7.06489">
        <ele>2872</ele>
        <time>2022-07-16T10:06:28Z</time>
      </trkpt>
      <trkpt lat="44.71227" lon="7.06495">
        <ele>2871</ele>
        <time>2022-07-16T10:06:38Z</time>
      </trkpt>
      <trkpt lat="44.71221" lon="7.06502">
        <ele>2870</ele>
        <time>2022-07-16T10:06:50Z</time>
      </trkpt>
      <trkpt lat="44.71218" lon="7.065">
        <ele>2869</ele>
        <time>2022-07-16T10:07:05Z</time>
      </trkpt>
      <trkpt lat="44.71211" lon="7.06503">
        <ele>2873</ele>
        <time>2022-07-16T10:07:15Z</time>
      </trkpt>
      <trkpt lat="44.71205" lon="7.06507">
        <ele>2876</ele>
        <time>2022-07-16T10:07:29Z</time>
      </trkpt>
      <trkpt lat="44.71203" lon="7.0651">
        <ele>2877</ele>
        <time>2022-07-16T10:07:37Z</time>
      </trkpt>
      <trkpt lat="44.71203" lon="7.06515">
        <ele>2876</ele>
        <time>2022-07-16T10:07:45Z</time>
      </trkpt>
      <trkpt lat="44.71206" lon="7.06516">
        <ele>2877</ele>
        <time>2022-07-16T10:07:52Z</time>
      </trkpt>
      <trkpt lat="44.7121" lon="7.06518">
        <ele>2877</ele>
        <time>2022-07-16T10:08:00Z</time>
      </trkpt>
      <trkpt lat="44.71214" lon="7.0652">
        <ele>2879</ele>
        <time>2022-07-16T10:08:08Z</time>
      </trkpt>
      <trkpt lat="44.71217" lon="7.0652">
        <ele>2880</ele>
        <time>2022-07-16T10:08:17Z</time>
      </trkpt>
      <trkpt lat="44.71211" lon="7.06533">
        <ele>2884</ele>
        <time>2022-07-16T10:08:40Z</time>
      </trkpt>
      <trkpt lat="44.71208" lon="7.06536">
        <ele>2884</ele>
        <time>2022-07-16T10:08:47Z</time>
      </trkpt>
      <trkpt lat="44.71208" lon="7.06541">
        <ele>2885</ele>
        <time>2022-07-16T10:08:53Z</time>
      </trkpt>
      <trkpt lat="44.71209" lon="7.06548">
        <ele>2886</ele>
        <time>2022-07-16T10:09:09Z</time>
      </trkpt>
      <trkpt lat="44.7121" lon="7.06554">
        <ele>2887</ele>
        <time>2022-07-16T10:11:29Z</time>
      </trkpt>
      <trkpt lat="44.71214" lon="7.06562">
        <ele>2887</ele>
        <time>2022-07-16T10:11:39Z</time>
      </trkpt>
      <trkpt lat="44.71218" lon="7.06596">
        <ele>2929</ele>
        <time>2022-07-16T10:12:12Z</time>
      </trkpt>
      <trkpt lat="44.71227" lon="7.06644">
        <ele>2902</ele>
        <time>2022-07-16T10:13:05Z</time>
      </trkpt>
      <trkpt lat="44.71225" lon="7.06657">
        <ele>2883</ele>
        <time>2022-07-16T10:13:33Z</time>
      </trkpt>
      <trkpt lat="44.7122" lon="7.0666">
        <ele>2889</ele>
        <time>2022-07-16T10:14:04Z</time>
      </trkpt>
      <trkpt lat="44.71223" lon="7.06667">
        <ele>2882</ele>
        <time>2022-07-16T10:19:19Z</time>
      </trkpt>
      <trkpt lat="44.71222" lon="7.06677">
        <ele>2882</ele>
        <time>2022-07-16T10:19:40Z</time>
      </trkpt>
      <trkpt lat="44.71223" lon="7.06685">
        <ele>2878</ele>
        <time>2022-07-16T10:19:49Z</time>
      </trkpt>
      <trkpt lat="44.71221" lon="7.06705">
        <ele>2871</ele>
        <time>2022-07-16T10:20:14Z</time>
      </trkpt>
      <trkpt lat="44.71219" lon="7.0671">
        <ele>2870</ele>
        <time>2022-07-16T10:20:20Z</time>
      </trkpt>
      <trkpt lat="44.7122" lon="7.06716">
        <ele>2866</ele>
        <time>2022-07-16T10:20:31Z</time>
      </trkpt>
      <trkpt lat="44.71217" lon="7.0672">
        <ele>2866</ele>
        <time>2022-07-16T10:20:39Z</time>
      </trkpt>
      <trkpt lat="44.71215" lon="7.06725">
        <ele>2867</ele>
        <time>2022-07-16T10:20:50Z</time>
      </trkpt>
      <trkpt lat="44.71211" lon="7.06726">
        <ele>2867</ele>
        <time>2022-07-16T10:20:56Z</time>
      </trkpt>
      <trkpt lat="44.71204" lon="7.06729">
        <ele>2868</ele>
        <time>2022-07-16T10:21:09Z</time>
      </trkpt>
      <trkpt lat="44.71201" lon="7.06731">
        <ele>2869</ele>
        <time>2022-07-16T10:21:16Z</time>
      </trkpt>
      <trkpt lat="44.712" lon="7.06736">
        <ele>2869</ele>
        <time>2022-07-16T10:21:21Z</time>
      </trkpt>
      <trkpt lat="44.71199" lon="7.06741">
        <ele>2870</ele>
        <time>2022-07-16T10:21:31Z</time>
      </trkpt>
      <trkpt lat="44.71193" lon="7.06753">
        <ele>2871</ele>
        <time>2022-07-16T10:21:55Z</time>
      </trkpt>
      <trkpt lat="44.7119" lon="7.06755">
        <ele>2870</ele>
        <time>2022-07-16T10:22:04Z</time>
      </trkpt>
      <trkpt lat="44.71187" lon="7.06758">
        <ele>2870</ele>
        <time>2022-07-16T10:22:13Z</time>
      </trkpt>
      <trkpt lat="44.71181" lon="7.06771">
        <ele>2868</ele>
        <time>2022-07-16T10:22:35Z</time>
      </trkpt>
      <trkpt lat="44.71175" lon="7.06784">
        <ele>2868</ele>
        <time>2022-07-16T10:22:56Z</time>
      </trkpt>
      <trkpt lat="44.71172" lon="7.06793">
        <ele>2869</ele>
        <time>2022-07-16T10:23:12Z</time>
      </trkpt>
      <trkpt lat="44.71169" lon="7.06797">
        <ele>2871</ele>
        <time>2022-07-16T10:23:19Z</time>
      </trkpt>
      <trkpt lat="44.71169" lon="7.06792">
        <ele>2872</ele>
        <time>2022-07-16T10:23:25Z</time>
      </trkpt>
      <trkpt lat="44.71168" lon="7.06786">
        <ele>2873</ele>
        <time>2022-07-16T10:23:31Z</time>
      </trkpt>
      <trkpt lat="44.71164" lon="7.06786">
        <ele>2874</ele>
        <time>2022-07-16T10:23:33Z</time>
      </trkpt>
      <trkpt lat="44.71162" lon="7.0679">
        <ele>2874</ele>
        <time>2022-07-16T10:23:36Z</time>
      </trkpt>
      <trkpt lat="44.71162" lon="7.06795">
        <ele>2876</ele>
        <time>2022-07-16T10:23:42Z</time>
      </trkpt>
      <trkpt lat="44.71156" lon="7.06801">
        <ele>2880</ele>
        <time>2022-07-16T10:24:01Z</time>
      </trkpt>
      <trkpt lat="44.71153" lon="7.06803">
        <ele>2881</ele>
        <time>2022-07-16T10:24:13Z</time>
      </trkpt>
      <trkpt lat="44.71151" lon="7.06798">
        <ele>2884</ele>
        <time>2022-07-16T10:24:22Z</time>
      </trkpt>
      <trkpt lat="44.71153" lon="7.06794">
        <ele>2886</ele>
        <time>2022-07-16T10:24:30Z</time>
      </trkpt>
      <trkpt lat="44.71154" lon="7.06789">
        <ele>2887</ele>
        <time>2022-07-16T10:24:38Z</time>
      </trkpt>
      <trkpt lat="44.71152" lon="7.0678">
        <ele>2889</ele>
        <time>2022-07-16T10:24:55Z</time>
      </trkpt>
      <trkpt lat="44.7115" lon="7.06784">
        <ele>2890</ele>
        <time>2022-07-16T10:25:03Z</time>
      </trkpt>
      <trkpt lat="44.71147" lon="7.06782">
        <ele>2891</ele>
        <time>2022-07-16T10:25:11Z</time>
      </trkpt>
      <trkpt lat="44.71148" lon="7.06771">
        <ele>2892</ele>
        <time>2022-07-16T10:25:22Z</time>
      </trkpt>
      <trkpt lat="44.71145" lon="7.06768">
        <ele>2893</ele>
        <time>2022-07-16T10:25:32Z</time>
      </trkpt>
      <trkpt lat="44.71143" lon="7.06764">
        <ele>2894</ele>
        <time>2022-07-16T10:25:40Z</time>
      </trkpt>
      <trkpt lat="44.71141" lon="7.06761">
        <ele>2895</ele>
        <time>2022-07-16T10:25:52Z</time>
      </trkpt>
      <trkpt lat="44.71139" lon="7.06759">
        <ele>2899</ele>
        <time>2022-07-16T10:26:27Z</time>
      </trkpt>
      <trkpt lat="44.71137" lon="7.06755">
        <ele>2900</ele>
        <time>2022-07-16T10:26:39Z</time>
      </trkpt>
      <trkpt lat="44.71136" lon="7.06751">
        <ele>2906</ele>
        <time>2022-07-16T10:26:49Z</time>
      </trkpt>
      <trkpt lat="44.71134" lon="7.06747">
        <ele>2908</ele>
        <time>2022-07-16T10:27:03Z</time>
      </trkpt>
      <trkpt lat="44.7113" lon="7.06739">
        <ele>2911</ele>
        <time>2022-07-16T10:27:20Z</time>
      </trkpt>
      <trkpt lat="44.71128" lon="7.06735">
        <ele>2912</ele>
        <time>2022-07-16T10:27:30Z</time>
      </trkpt>
      <trkpt lat="44.71127" lon="7.06729">
        <ele>2912</ele>
        <time>2022-07-16T10:27:37Z</time>
      </trkpt>
      <trkpt lat="44.71126" lon="7.06724">
        <ele>2913</ele>
        <time>2022-07-16T10:27:43Z</time>
      </trkpt>
      <trkpt lat="44.71126" lon="7.06719">
        <ele>2913</ele>
        <time>2022-07-16T10:27:51Z</time>
      </trkpt>
      <trkpt lat="44.71126" lon="7.06715">
        <ele>2914</ele>
        <time>2022-07-16T10:27:57Z</time>
      </trkpt>
      <trkpt lat="44.71124" lon="7.0671">
        <ele>2915</ele>
        <time>2022-07-16T10:28:04Z</time>
      </trkpt>
      <trkpt lat="44.71119" lon="7.06703">
        <ele>2918</ele>
        <time>2022-07-16T10:28:18Z</time>
      </trkpt>
      <trkpt lat="44.71123" lon="7.06702">
        <ele>2918</ele>
        <time>2022-07-16T10:28:27Z</time>
      </trkpt>
      <trkpt lat="44.71124" lon="7.06699">
        <ele>2920</ele>
        <time>2022-07-16T10:28:50Z</time>
      </trkpt>
      <trkpt lat="44.71121" lon="7.06697">
        <ele>2924</ele>
        <time>2022-07-16T10:28:58Z</time>
      </trkpt>
      <trkpt lat="44.71118" lon="7.06698">
        <ele>2926</ele>
        <time>2022-07-16T10:29:10Z</time>
      </trkpt>
      <trkpt lat="44.71115" lon="7.06694">
        <ele>2928</ele>
        <time>2022-07-16T10:29:19Z</time>
      </trkpt>
      <trkpt lat="44.71112" lon="7.06692">
        <ele>2929</ele>
        <time>2022-07-16T10:29:27Z</time>
      </trkpt>
      <trkpt lat="44.7111" lon="7.06688">
        <ele>2930</ele>
        <time>2022-07-16T10:29:34Z</time>
      </trkpt>
      <trkpt lat="44.71113" lon="7.06686">
        <ele>2930</ele>
        <time>2022-07-16T10:29:40Z</time>
      </trkpt>
      <trkpt lat="44.71116" lon="7.06685">
        <ele>2929</ele>
        <time>2022-07-16T10:29:49Z</time>
      </trkpt>
      <trkpt lat="44.71114" lon="7.06681">
        <ele>2930</ele>
        <time>2022-07-16T10:29:57Z</time>
      </trkpt>
      <trkpt lat="44.71111" lon="7.06678">
        <ele>2931</ele>
        <time>2022-07-16T10:30:05Z</time>
      </trkpt>
      <trkpt lat="44.71108" lon="7.06675">
        <ele>2933</ele>
        <time>2022-07-16T10:30:12Z</time>
      </trkpt>
      <trkpt lat="44.71105" lon="7.06671">
        <ele>2934</ele>
        <time>2022-07-16T10:30:20Z</time>
      </trkpt>
      <trkpt lat="44.71103" lon="7.06667">
        <ele>2935</ele>
        <time>2022-07-16T10:30:31Z</time>
      </trkpt>
      <trkpt lat="44.711" lon="7.06665">
        <ele>2938</ele>
        <time>2022-07-16T10:30:39Z</time>
      </trkpt>
      <trkpt lat="44.71096" lon="7.06665">
        <ele>2939</ele>
        <time>2022-07-16T10:30:48Z</time>
      </trkpt>
      <trkpt lat="44.71095" lon="7.06661">
        <ele>2939</ele>
        <time>2022-07-16T10:30:54Z</time>
      </trkpt>
      <trkpt lat="44.71094" lon="7.06656">
        <ele>2940</ele>
        <time>2022-07-16T10:31:04Z</time>
      </trkpt>
      <trkpt lat="44.71091" lon="7.06652">
        <ele>2941</ele>
        <time>2022-07-16T10:31:11Z</time>
      </trkpt>
      <trkpt lat="44.7109" lon="7.06647">
        <ele>2942</ele>
        <time>2022-07-16T10:31:19Z</time>
      </trkpt>
      <trkpt lat="44.71094" lon="7.06646">
        <ele>2942</ele>
        <time>2022-07-16T10:31:26Z</time>
      </trkpt>
      <trkpt lat="44.71095" lon="7.06641">
        <ele>2943</ele>
        <time>2022-07-16T10:31:39Z</time>
      </trkpt>
      <trkpt lat="44.7109" lon="7.06635">
        <ele>2947</ele>
        <time>2022-07-16T10:31:58Z</time>
      </trkpt>
      <trkpt lat="44.71089" lon="7.0663">
        <ele>2948</ele>
        <time>2022-07-16T10:32:07Z</time>
      </trkpt>
      <trkpt lat="44.71085" lon="7.06628">
        <ele>2949</ele>
        <time>2022-07-16T10:32:42Z</time>
      </trkpt>
      <trkpt lat="44.71082" lon="7.06627">
        <ele>2950</ele>
        <time>2022-07-16T10:33:00Z</time>
      </trkpt>
      <trkpt lat="44.71078" lon="7.06627">
        <ele>2952</ele>
        <time>2022-07-16T10:33:12Z</time>
      </trkpt>
      <trkpt lat="44.71075" lon="7.06629">
        <ele>2953</ele>
        <time>2022-07-16T10:33:20Z</time>
      </trkpt>
      <trkpt lat="44.71069" lon="7.06633">
        <ele>2958</ele>
        <time>2022-07-16T10:48:15Z</time>
      </trkpt>
      <trkpt lat="44.71071" lon="7.06629">
        <ele>2958</ele>
        <time>2022-07-16T10:55:31Z</time>
      </trkpt>
      <trkpt lat="44.71075" lon="7.06629">
        <ele>2956</ele>
        <time>2022-07-16T10:55:38Z</time>
      </trkpt>
      <trkpt lat="44.71079" lon="7.06629">
        <ele>2955</ele>
        <time>2022-07-16T10:55:43Z</time>
      </trkpt>
      <trkpt lat="44.71086" lon="7.06631">
        <ele>2953</ele>
        <time>2022-07-16T10:55:55Z</time>
      </trkpt>
      <trkpt lat="44.71089" lon="7.06634">
        <ele>2951</ele>
        <time>2022-07-16T10:55:59Z</time>
      </trkpt>
      <trkpt lat="44.71092" lon="7.0663">
        <ele>2950</ele>
        <time>2022-07-16T10:56:22Z</time>
      </trkpt>
      <trkpt lat="44.71094" lon="7.06626">
        <ele>2948</ele>
        <time>2022-07-16T10:56:30Z</time>
      </trkpt>
      <trkpt lat="44.71097" lon="7.06622">
        <ele>2947</ele>
        <time>2022-07-16T10:56:36Z</time>
      </trkpt>
      <trkpt lat="44.71098" lon="7.06617">
        <ele>2945</ele>
        <time>2022-07-16T10:56:42Z</time>
      </trkpt>
      <trkpt lat="44.71101" lon="7.06614">
        <ele>2944</ele>
        <time>2022-07-16T10:56:48Z</time>
      </trkpt>
      <trkpt lat="44.71118" lon="7.06607">
        <ele>2938</ele>
        <time>2022-07-16T10:57:19Z</time>
      </trkpt>
      <trkpt lat="44.71122" lon="7.06606">
        <ele>2938</ele>
        <time>2022-07-16T10:57:25Z</time>
      </trkpt>
      <trkpt lat="44.71125" lon="7.06604">
        <ele>2938</ele>
        <time>2022-07-16T10:57:32Z</time>
      </trkpt>
      <trkpt lat="44.71129" lon="7.06603">
        <ele>2936</ele>
        <time>2022-07-16T10:57:38Z</time>
      </trkpt>
      <trkpt lat="44.71132" lon="7.06604">
        <ele>2935</ele>
        <time>2022-07-16T10:57:44Z</time>
      </trkpt>
      <trkpt lat="44.71136" lon="7.06604">
        <ele>2934</ele>
        <time>2022-07-16T10:57:50Z</time>
      </trkpt>
      <trkpt lat="44.71139" lon="7.066">
        <ele>2934</ele>
        <time>2022-07-16T10:57:56Z</time>
      </trkpt>
      <trkpt lat="44.71142" lon="7.06597">
        <ele>2933</ele>
        <time>2022-07-16T10:58:03Z</time>
      </trkpt>
      <trkpt lat="44.71145" lon="7.06596">
        <ele>2932</ele>
        <time>2022-07-16T10:58:09Z</time>
      </trkpt>
      <trkpt lat="44.71144" lon="7.0659">
        <ele>2932</ele>
        <time>2022-07-16T10:58:18Z</time>
      </trkpt>
      <trkpt lat="44.71148" lon="7.06588">
        <ele>2928</ele>
        <time>2022-07-16T10:58:28Z</time>
      </trkpt>
      <trkpt lat="44.71151" lon="7.0659">
        <ele>2927</ele>
        <time>2022-07-16T10:58:34Z</time>
      </trkpt>
      <trkpt lat="44.71158" lon="7.06589">
        <ele>2926</ele>
        <time>2022-07-16T10:58:48Z</time>
      </trkpt>
      <trkpt lat="44.71166" lon="7.06586">
        <ele>2921</ele>
        <time>2022-07-16T10:58:59Z</time>
      </trkpt>
      <trkpt lat="44.71169" lon="7.06586">
        <ele>2920</ele>
        <time>2022-07-16T10:59:06Z</time>
      </trkpt>
      <trkpt lat="44.71179" lon="7.06585">
        <ele>2916</ele>
        <time>2022-07-16T10:59:48Z</time>
      </trkpt>
      <trkpt lat="44.71186" lon="7.06576">
        <ele>2914</ele>
        <time>2022-07-16T11:00:15Z</time>
      </trkpt>
      <trkpt lat="44.71183" lon="7.06565">
        <ele>2912</ele>
        <time>2022-07-16T11:00:33Z</time>
      </trkpt>
      <trkpt lat="44.71193" lon="7.06561">
        <ele>2911</ele>
        <time>2022-07-16T11:00:46Z</time>
      </trkpt>
      <trkpt lat="44.71202" lon="7.0656">
        <ele>2906</ele>
        <time>2022-07-16T11:00:59Z</time>
      </trkpt>
      <trkpt lat="44.71206" lon="7.06548">
        <ele>2905</ele>
        <time>2022-07-16T11:01:15Z</time>
      </trkpt>
      <trkpt lat="44.71198" lon="7.06541">
        <ele>2903</ele>
        <time>2022-07-16T11:01:30Z</time>
      </trkpt>
      <trkpt lat="44.71199" lon="7.06527">
        <ele>2896</ele>
        <time>2022-07-16T11:02:11Z</time>
      </trkpt>
      <trkpt lat="44.71209" lon="7.06526">
        <ele>2895</ele>
        <time>2022-07-16T11:02:21Z</time>
      </trkpt>
      <trkpt lat="44.71208" lon="7.06513">
        <ele>2891</ele>
        <time>2022-07-16T11:03:22Z</time>
      </trkpt>
      <trkpt lat="44.71203" lon="7.06505">
        <ele>2887</ele>
        <time>2022-07-16T11:03:31Z</time>
      </trkpt>
      <trkpt lat="44.71206" lon="7.06501">
        <ele>2885</ele>
        <time>2022-07-16T11:03:36Z</time>
      </trkpt>
      <trkpt lat="44.7122" lon="7.06491">
        <ele>2881</ele>
        <time>2022-07-16T11:03:51Z</time>
      </trkpt>
      <trkpt lat="44.71223" lon="7.0649">
        <ele>2880</ele>
        <time>2022-07-16T11:03:55Z</time>
      </trkpt>
      <trkpt lat="44.71227" lon="7.06489">
        <ele>2880</ele>
        <time>2022-07-16T11:04:16Z</time>
      </trkpt>
      <trkpt lat="44.7123" lon="7.06486">
        <ele>2879</ele>
        <time>2022-07-16T11:04:24Z</time>
      </trkpt>
      <trkpt lat="44.71239" lon="7.06479">
        <ele>2877</ele>
        <time>2022-07-16T11:04:46Z</time>
      </trkpt>
      <trkpt lat="44.71247" lon="7.06474">
        <ele>2874</ele>
        <time>2022-07-16T11:04:58Z</time>
      </trkpt>
      <trkpt lat="44.71254" lon="7.06464">
        <ele>2873</ele>
        <time>2022-07-16T11:05:07Z</time>
      </trkpt>
      <trkpt lat="44.71271" lon="7.06455">
        <ele>2873</ele>
        <time>2022-07-16T11:05:30Z</time>
      </trkpt>
      <trkpt lat="44.71279" lon="7.06448">
        <ele>2873</ele>
        <time>2022-07-16T11:05:41Z</time>
      </trkpt>
      <trkpt lat="44.71286" lon="7.06439">
        <ele>2873</ele>
        <time>2022-07-16T11:05:53Z</time>
      </trkpt>
      <trkpt lat="44.71288" lon="7.06426">
        <ele>2873</ele>
        <time>2022-07-16T11:06:04Z</time>
      </trkpt>
      <trkpt lat="44.71303" lon="7.06411">
        <ele>2873</ele>
        <time>2022-07-16T11:06:27Z</time>
      </trkpt>
      <trkpt lat="44.71309" lon="7.06401">
        <ele>2872</ele>
        <time>2022-07-16T11:06:45Z</time>
      </trkpt>
      <trkpt lat="44.71313" lon="7.06392">
        <ele>2875</ele>
        <time>2022-07-16T11:07:16Z</time>
      </trkpt>
      <trkpt lat="44.71315" lon="7.06388">
        <ele>2875</ele>
        <time>2022-07-16T11:07:22Z</time>
      </trkpt>
      <trkpt lat="44.71317" lon="7.06383">
        <ele>2874</ele>
        <time>2022-07-16T11:07:28Z</time>
      </trkpt>
      <trkpt lat="44.71324" lon="7.06371">
        <ele>2871</ele>
        <time>2022-07-16T11:07:42Z</time>
      </trkpt>
      <trkpt lat="44.71326" lon="7.06366">
        <ele>2872</ele>
        <time>2022-07-16T11:07:46Z</time>
      </trkpt>
      <trkpt lat="44.71328" lon="7.06362">
        <ele>2872</ele>
        <time>2022-07-16T11:07:50Z</time>
      </trkpt>
      <trkpt lat="44.71332" lon="7.06353">
        <ele>2874</ele>
        <time>2022-07-16T11:07:57Z</time>
      </trkpt>
      <trkpt lat="44.71333" lon="7.06348">
        <ele>2875</ele>
        <time>2022-07-16T11:08:01Z</time>
      </trkpt>
      <trkpt lat="44.71335" lon="7.06338">
        <ele>2876</ele>
        <time>2022-07-16T11:08:11Z</time>
      </trkpt>
      <trkpt lat="44.71334" lon="7.06327">
        <ele>2876</ele>
        <time>2022-07-16T11:08:22Z</time>
      </trkpt>
      <trkpt lat="44.71336" lon="7.06323">
        <ele>2875</ele>
        <time>2022-07-16T11:08:28Z</time>
      </trkpt>
      <trkpt lat="44.71337" lon="7.06318">
        <ele>2874</ele>
        <time>2022-07-16T11:08:32Z</time>
      </trkpt>
      <trkpt lat="44.71341" lon="7.06315">
        <ele>2874</ele>
        <time>2022-07-16T11:08:37Z</time>
      </trkpt>
      <trkpt lat="44.71347" lon="7.06296">
        <ele>2871</ele>
        <time>2022-07-16T11:08:55Z</time>
      </trkpt>
      <trkpt lat="44.7135" lon="7.06281">
        <ele>2868</ele>
        <time>2022-07-16T11:09:10Z</time>
      </trkpt>
      <trkpt lat="44.71349" lon="7.06276">
        <ele>2866</ele>
        <time>2022-07-16T11:09:16Z</time>
      </trkpt>
      <trkpt lat="44.71348" lon="7.06271">
        <ele>2864</ele>
        <time>2022-07-16T11:09:25Z</time>
      </trkpt>
      <trkpt lat="44.71346" lon="7.06268">
        <ele>2861</ele>
        <time>2022-07-16T11:09:32Z</time>
      </trkpt>
      <trkpt lat="44.71345" lon="7.06263">
        <ele>2860</ele>
        <time>2022-07-16T11:09:39Z</time>
      </trkpt>
      <trkpt lat="44.71346" lon="7.06257">
        <ele>2859</ele>
        <time>2022-07-16T11:09:45Z</time>
      </trkpt>
      <trkpt lat="44.71353" lon="7.06245">
        <ele>2858</ele>
        <time>2022-07-16T11:09:58Z</time>
      </trkpt>
      <trkpt lat="44.71354" lon="7.0624">
        <ele>2857</ele>
        <time>2022-07-16T11:10:04Z</time>
      </trkpt>
      <trkpt lat="44.71353" lon="7.06237">
        <ele>2855</ele>
        <time>2022-07-16T11:10:15Z</time>
      </trkpt>
      <trkpt lat="44.71353" lon="7.06232">
        <ele>2855</ele>
        <time>2022-07-16T11:10:33Z</time>
      </trkpt>
      <trkpt lat="44.71356" lon="7.06228">
        <ele>2854</ele>
        <time>2022-07-16T11:10:40Z</time>
      </trkpt>
      <trkpt lat="44.71356" lon="7.06223">
        <ele>2853</ele>
        <time>2022-07-16T11:10:49Z</time>
      </trkpt>
      <trkpt lat="44.71357" lon="7.06218">
        <ele>2850</ele>
        <time>2022-07-16T11:10:55Z</time>
      </trkpt>
      <trkpt lat="44.71355" lon="7.06213">
        <ele>2849</ele>
        <time>2022-07-16T11:11:04Z</time>
      </trkpt>
      <trkpt lat="44.71355" lon="7.06209">
        <ele>2846</ele>
        <time>2022-07-16T11:11:10Z</time>
      </trkpt>
      <trkpt lat="44.71354" lon="7.06204">
        <ele>2845</ele>
        <time>2022-07-16T11:11:16Z</time>
      </trkpt>
      <trkpt lat="44.71351" lon="7.06193">
        <ele>2842</ele>
        <time>2022-07-16T11:11:25Z</time>
      </trkpt>
      <trkpt lat="44.71349" lon="7.06182">
        <ele>2841</ele>
        <time>2022-07-16T11:11:34Z</time>
      </trkpt>
      <trkpt lat="44.71349" lon="7.06177">
        <ele>2841</ele>
        <time>2022-07-16T11:11:38Z</time>
      </trkpt>
      <trkpt lat="44.71349" lon="7.06172">
        <ele>2840</ele>
        <time>2022-07-16T11:11:43Z</time>
      </trkpt>
      <trkpt lat="44.7135" lon="7.06166">
        <ele>2839</ele>
        <time>2022-07-16T11:11:53Z</time>
      </trkpt>
      <trkpt lat="44.71351" lon="7.06162">
        <ele>2839</ele>
        <time>2022-07-16T11:11:58Z</time>
      </trkpt>
      <trkpt lat="44.71352" lon="7.06157">
        <ele>2838</ele>
        <time>2022-07-16T11:12:04Z</time>
      </trkpt>
      <trkpt lat="44.71352" lon="7.06147">
        <ele>2835</ele>
        <time>2022-07-16T11:12:24Z</time>
      </trkpt>
      <trkpt lat="44.71349" lon="7.06146">
        <ele>2834</ele>
        <time>2022-07-16T11:12:33Z</time>
      </trkpt>
      <trkpt lat="44.7135" lon="7.0613">
        <ele>2829</ele>
        <time>2022-07-16T11:12:47Z</time>
      </trkpt>
      <trkpt lat="44.71352" lon="7.06126">
        <ele>2828</ele>
        <time>2022-07-16T11:12:52Z</time>
      </trkpt>
      <trkpt lat="44.71354" lon="7.06115">
        <ele>2829</ele>
        <time>2022-07-16T11:13:04Z</time>
      </trkpt>
      <trkpt lat="44.71356" lon="7.0611">
        <ele>2829</ele>
        <time>2022-07-16T11:13:08Z</time>
      </trkpt>
      <trkpt lat="44.71359" lon="7.06108">
        <ele>2829</ele>
        <time>2022-07-16T11:13:13Z</time>
      </trkpt>
      <trkpt lat="44.71362" lon="7.06104">
        <ele>2829</ele>
        <time>2022-07-16T11:13:18Z</time>
      </trkpt>
      <trkpt lat="44.71363" lon="7.06099">
        <ele>2829</ele>
        <time>2022-07-16T11:13:22Z</time>
      </trkpt>
      <trkpt lat="44.71364" lon="7.06094">
        <ele>2829</ele>
        <time>2022-07-16T11:13:26Z</time>
      </trkpt>
      <trkpt lat="44.71369" lon="7.0608">
        <ele>2829</ele>
        <time>2022-07-16T11:13:44Z</time>
      </trkpt>
      <trkpt lat="44.7137" lon="7.06075">
        <ele>2826</ele>
        <time>2022-07-16T11:13:50Z</time>
      </trkpt>
      <trkpt lat="44.71369" lon="7.06071">
        <ele>2825</ele>
        <time>2022-07-16T11:13:58Z</time>
      </trkpt>
      <trkpt lat="44.71372" lon="7.06061">
        <ele>2820</ele>
        <time>2022-07-16T11:14:11Z</time>
      </trkpt>
      <trkpt lat="44.71373" lon="7.06056">
        <ele>2819</ele>
        <time>2022-07-16T11:14:16Z</time>
      </trkpt>
      <trkpt lat="44.71376" lon="7.06052">
        <ele>2819</ele>
        <time>2022-07-16T11:14:20Z</time>
      </trkpt>
      <trkpt lat="44.71376" lon="7.06047">
        <ele>2817</ele>
        <time>2022-07-16T11:14:27Z</time>
      </trkpt>
      <trkpt lat="44.71374" lon="7.06043">
        <ele>2816</ele>
        <time>2022-07-16T11:14:35Z</time>
      </trkpt>
      <trkpt lat="44.71376" lon="7.06038">
        <ele>2814</ele>
        <time>2022-07-16T11:14:41Z</time>
      </trkpt>
      <trkpt lat="44.71377" lon="7.06034">
        <ele>2813</ele>
        <time>2022-07-16T11:14:45Z</time>
      </trkpt>
      <trkpt lat="44.71377" lon="7.06029">
        <ele>2811</ele>
        <time>2022-07-16T11:14:52Z</time>
      </trkpt>
      <trkpt lat="44.71377" lon="7.06019">
        <ele>2810</ele>
        <time>2022-07-16T11:15:03Z</time>
      </trkpt>
      <trkpt lat="44.71382" lon="7.05999">
        <ele>2807</ele>
        <time>2022-07-16T11:15:23Z</time>
      </trkpt>
      <trkpt lat="44.71382" lon="7.05993">
        <ele>2806</ele>
        <time>2022-07-16T11:15:28Z</time>
      </trkpt>
      <trkpt lat="44.71379" lon="7.05978">
        <ele>2804</ele>
        <time>2022-07-16T11:15:45Z</time>
      </trkpt>
      <trkpt lat="44.71379" lon="7.05972">
        <ele>2803</ele>
        <time>2022-07-16T11:15:49Z</time>
      </trkpt>
      <trkpt lat="44.71379" lon="7.05961">
        <ele>2804</ele>
        <time>2022-07-16T11:15:59Z</time>
      </trkpt>
      <trkpt lat="44.7138" lon="7.05957">
        <ele>2803</ele>
        <time>2022-07-16T11:16:04Z</time>
      </trkpt>
      <trkpt lat="44.71378" lon="7.05952">
        <ele>2801</ele>
        <time>2022-07-16T11:16:10Z</time>
      </trkpt>
      <trkpt lat="44.71375" lon="7.0595">
        <ele>2801</ele>
        <time>2022-07-16T11:16:17Z</time>
      </trkpt>
      <trkpt lat="44.71374" lon="7.05944">
        <ele>2802</ele>
        <time>2022-07-16T11:16:26Z</time>
      </trkpt>
      <trkpt lat="44.71371" lon="7.05941">
        <ele>2801</ele>
        <time>2022-07-16T11:16:40Z</time>
      </trkpt>
      <trkpt lat="44.71369" lon="7.05938">
        <ele>2797</ele>
        <time>2022-07-16T11:16:47Z</time>
      </trkpt>
      <trkpt lat="44.71366" lon="7.05934">
        <ele>2796</ele>
        <time>2022-07-16T11:16:52Z</time>
      </trkpt>
      <trkpt lat="44.71367" lon="7.05928">
        <ele>2794</ele>
        <time>2022-07-16T11:16:56Z</time>
      </trkpt>
      <trkpt lat="44.71369" lon="7.05913">
        <ele>2793</ele>
        <time>2022-07-16T11:17:08Z</time>
      </trkpt>
      <trkpt lat="44.71366" lon="7.05904">
        <ele>2792</ele>
        <time>2022-07-16T11:17:18Z</time>
      </trkpt>
      <trkpt lat="44.71365" lon="7.05899">
        <ele>2792</ele>
        <time>2022-07-16T11:17:24Z</time>
      </trkpt>
      <trkpt lat="44.71362" lon="7.05896">
        <ele>2792</ele>
        <time>2022-07-16T11:17:29Z</time>
      </trkpt>
      <trkpt lat="44.7136" lon="7.05891">
        <ele>2790</ele>
        <time>2022-07-16T11:17:34Z</time>
      </trkpt>
      <trkpt lat="44.71359" lon="7.05885">
        <ele>2789</ele>
        <time>2022-07-16T11:17:39Z</time>
      </trkpt>
      <trkpt lat="44.71359" lon="7.0588">
        <ele>2786</ele>
        <time>2022-07-16T11:17:43Z</time>
      </trkpt>
      <trkpt lat="44.71357" lon="7.05876">
        <ele>2786</ele>
        <time>2022-07-16T11:17:48Z</time>
      </trkpt>
      <trkpt lat="44.71354" lon="7.05874">
        <ele>2785</ele>
        <time>2022-07-16T11:17:53Z</time>
      </trkpt>
      <trkpt lat="44.71354" lon="7.05868">
        <ele>2786</ele>
        <time>2022-07-16T11:17:57Z</time>
      </trkpt>
      <trkpt lat="44.71353" lon="7.05863">
        <ele>2784</ele>
        <time>2022-07-16T11:18:02Z</time>
      </trkpt>
      <trkpt lat="44.71352" lon="7.05857">
        <ele>2785</ele>
        <time>2022-07-16T11:18:07Z</time>
      </trkpt>
      <trkpt lat="44.71349" lon="7.05856">
        <ele>2785</ele>
        <time>2022-07-16T11:18:12Z</time>
      </trkpt>
      <trkpt lat="44.71345" lon="7.05854">
        <ele>2785</ele>
        <time>2022-07-16T11:18:17Z</time>
      </trkpt>
      <trkpt lat="44.71342" lon="7.05851">
        <ele>2785</ele>
        <time>2022-07-16T11:18:22Z</time>
      </trkpt>
      <trkpt lat="44.71339" lon="7.05851">
        <ele>2785</ele>
        <time>2022-07-16T11:18:25Z</time>
      </trkpt>
      <trkpt lat="44.71336" lon="7.05849">
        <ele>2785</ele>
        <time>2022-07-16T11:18:33Z</time>
      </trkpt>
      <trkpt lat="44.71328" lon="7.05849">
        <ele>2780</ele>
        <time>2022-07-16T11:18:44Z</time>
      </trkpt>
      <trkpt lat="44.71321" lon="7.05853">
        <ele>2777</ele>
        <time>2022-07-16T11:18:53Z</time>
      </trkpt>
      <trkpt lat="44.71317" lon="7.05853">
        <ele>2775</ele>
        <time>2022-07-16T11:19:05Z</time>
      </trkpt>
      <trkpt lat="44.71315" lon="7.05848">
        <ele>2773</ele>
        <time>2022-07-16T11:19:09Z</time>
      </trkpt>
      <trkpt lat="44.71312" lon="7.05849">
        <ele>2771</ele>
        <time>2022-07-16T11:19:16Z</time>
      </trkpt>
      <trkpt lat="44.71308" lon="7.0585">
        <ele>2771</ele>
        <time>2022-07-16T11:19:21Z</time>
      </trkpt>
      <trkpt lat="44.71305" lon="7.05851">
        <ele>2769</ele>
        <time>2022-07-16T11:19:26Z</time>
      </trkpt>
      <trkpt lat="44.71303" lon="7.05847">
        <ele>2768</ele>
        <time>2022-07-16T11:19:31Z</time>
      </trkpt>
      <trkpt lat="44.713" lon="7.05848">
        <ele>2768</ele>
        <time>2022-07-16T11:19:36Z</time>
      </trkpt>
      <trkpt lat="44.713" lon="7.05853">
        <ele>2767</ele>
        <time>2022-07-16T11:19:39Z</time>
      </trkpt>
      <trkpt lat="44.71305" lon="7.05876">
        <ele>2759</ele>
        <time>2022-07-16T11:19:55Z</time>
      </trkpt>
      <trkpt lat="44.71305" lon="7.05888">
        <ele>2757</ele>
        <time>2022-07-16T11:20:04Z</time>
      </trkpt>
      <trkpt lat="44.71303" lon="7.05893">
        <ele>2757</ele>
        <time>2022-07-16T11:20:08Z</time>
      </trkpt>
      <trkpt lat="44.71304" lon="7.05898">
        <ele>2755</ele>
        <time>2022-07-16T11:20:14Z</time>
      </trkpt>
      <trkpt lat="44.71303" lon="7.05903">
        <ele>2754</ele>
        <time>2022-07-16T11:20:21Z</time>
      </trkpt>
      <trkpt lat="44.71296" lon="7.05904">
        <ele>2752</ele>
        <time>2022-07-16T11:20:30Z</time>
      </trkpt>
      <trkpt lat="44.71292" lon="7.05902">
        <ele>2752</ele>
        <time>2022-07-16T11:20:35Z</time>
      </trkpt>
      <trkpt lat="44.71288" lon="7.05902">
        <ele>2752</ele>
        <time>2022-07-16T11:20:40Z</time>
      </trkpt>
      <trkpt lat="44.71286" lon="7.05898">
        <ele>2751</ele>
        <time>2022-07-16T11:20:45Z</time>
      </trkpt>
      <trkpt lat="44.71283" lon="7.05896">
        <ele>2750</ele>
        <time>2022-07-16T11:20:53Z</time>
      </trkpt>
      <trkpt lat="44.7128" lon="7.05894">
        <ele>2748</ele>
        <time>2022-07-16T11:20:59Z</time>
      </trkpt>
      <trkpt lat="44.71276" lon="7.05894">
        <ele>2748</ele>
        <time>2022-07-16T11:21:04Z</time>
      </trkpt>
      <trkpt lat="44.71272" lon="7.05895">
        <ele>2747</ele>
        <time>2022-07-16T11:21:09Z</time>
      </trkpt>
      <trkpt lat="44.7127" lon="7.05905">
        <ele>2746</ele>
        <time>2022-07-16T11:21:18Z</time>
      </trkpt>
      <trkpt lat="44.71268" lon="7.05909">
        <ele>2745</ele>
        <time>2022-07-16T11:21:22Z</time>
      </trkpt>
      <trkpt lat="44.71264" lon="7.05908">
        <ele>2744</ele>
        <time>2022-07-16T11:21:27Z</time>
      </trkpt>
      <trkpt lat="44.71261" lon="7.05909">
        <ele>2743</ele>
        <time>2022-07-16T11:21:31Z</time>
      </trkpt>
      <trkpt lat="44.71257" lon="7.0591">
        <ele>2743</ele>
        <time>2022-07-16T11:21:35Z</time>
      </trkpt>
      <trkpt lat="44.71253" lon="7.0591">
        <ele>2742</ele>
        <time>2022-07-16T11:21:40Z</time>
      </trkpt>
      <trkpt lat="44.7125" lon="7.05909">
        <ele>2741</ele>
        <time>2022-07-16T11:21:44Z</time>
      </trkpt>
      <trkpt lat="44.71246" lon="7.05911">
        <ele>2741</ele>
        <time>2022-07-16T11:21:50Z</time>
      </trkpt>
      <trkpt lat="44.71243" lon="7.05913">
        <ele>2739</ele>
        <time>2022-07-16T11:21:57Z</time>
      </trkpt>
      <trkpt lat="44.7124" lon="7.0591">
        <ele>2739</ele>
        <time>2022-07-16T11:22:01Z</time>
      </trkpt>
      <trkpt lat="44.71236" lon="7.05912">
        <ele>2739</ele>
        <time>2022-07-16T11:22:08Z</time>
      </trkpt>
      <trkpt lat="44.71233" lon="7.05915">
        <ele>2738</ele>
        <time>2022-07-16T11:22:14Z</time>
      </trkpt>
      <trkpt lat="44.71226" lon="7.0592">
        <ele>2738</ele>
        <time>2022-07-16T11:22:23Z</time>
      </trkpt>
      <trkpt lat="44.71223" lon="7.05919">
        <ele>2737</ele>
        <time>2022-07-16T11:22:28Z</time>
      </trkpt>
      <trkpt lat="44.71219" lon="7.05922">
        <ele>2735</ele>
        <time>2022-07-16T11:22:34Z</time>
      </trkpt>
      <trkpt lat="44.71216" lon="7.05926">
        <ele>2733</ele>
        <time>2022-07-16T11:22:39Z</time>
      </trkpt>
      <trkpt lat="44.71213" lon="7.05927">
        <ele>2732</ele>
        <time>2022-07-16T11:22:46Z</time>
      </trkpt>
      <trkpt lat="44.71205" lon="7.05921">
        <ele>2732</ele>
        <time>2022-07-16T11:23:00Z</time>
      </trkpt>
      <trkpt lat="44.71203" lon="7.05917">
        <ele>2734</ele>
        <time>2022-07-16T11:23:12Z</time>
      </trkpt>
      <trkpt lat="44.712" lon="7.05917">
        <ele>2734</ele>
        <time>2022-07-16T11:23:16Z</time>
      </trkpt>
      <trkpt lat="44.71197" lon="7.05922">
        <ele>2733</ele>
        <time>2022-07-16T11:23:20Z</time>
      </trkpt>
      <trkpt lat="44.71196" lon="7.05927">
        <ele>2733</ele>
        <time>2022-07-16T11:23:25Z</time>
      </trkpt>
      <trkpt lat="44.71192" lon="7.05929">
        <ele>2732</ele>
        <time>2022-07-16T11:23:36Z</time>
      </trkpt>
      <trkpt lat="44.71189" lon="7.05931">
        <ele>2732</ele>
        <time>2022-07-16T11:23:41Z</time>
      </trkpt>
      <trkpt lat="44.71185" lon="7.05933">
        <ele>2730</ele>
        <time>2022-07-16T11:23:50Z</time>
      </trkpt>
      <trkpt lat="44.71174" lon="7.05927">
        <ele>2727</ele>
        <time>2022-07-16T11:24:09Z</time>
      </trkpt>
      <trkpt lat="44.7117" lon="7.05927">
        <ele>2725</ele>
        <time>2022-07-16T11:24:16Z</time>
      </trkpt>
      <trkpt lat="44.71167" lon="7.05929">
        <ele>2724</ele>
        <time>2022-07-16T11:24:30Z</time>
      </trkpt>
      <trkpt lat="44.71164" lon="7.05926">
        <ele>2724</ele>
        <time>2022-07-16T11:24:38Z</time>
      </trkpt>
      <trkpt lat="44.71161" lon="7.05923">
        <ele>2724</ele>
        <time>2022-07-16T11:24:44Z</time>
      </trkpt>
      <trkpt lat="44.71157" lon="7.05922">
        <ele>2723</ele>
        <time>2022-07-16T11:24:50Z</time>
      </trkpt>
      <trkpt lat="44.71159" lon="7.05918">
        <ele>2723</ele>
        <time>2022-07-16T11:25:40Z</time>
      </trkpt>
      <trkpt lat="44.71158" lon="7.05913">
        <ele>2721</ele>
        <time>2022-07-16T11:25:50Z</time>
      </trkpt>
      <trkpt lat="44.71159" lon="7.05907">
        <ele>2719</ele>
        <time>2022-07-16T11:25:56Z</time>
      </trkpt>
      <trkpt lat="44.71159" lon="7.05902">
        <ele>2718</ele>
        <time>2022-07-16T11:26:00Z</time>
      </trkpt>
      <trkpt lat="44.7116" lon="7.05897">
        <ele>2718</ele>
        <time>2022-07-16T11:26:04Z</time>
      </trkpt>
      <trkpt lat="44.71161" lon="7.05892">
        <ele>2717</ele>
        <time>2022-07-16T11:26:09Z</time>
      </trkpt>
      <trkpt lat="44.71159" lon="7.05887">
        <ele>2717</ele>
        <time>2022-07-16T11:26:14Z</time>
      </trkpt>
      <trkpt lat="44.7116" lon="7.05882">
        <ele>2716</ele>
        <time>2022-07-16T11:26:18Z</time>
      </trkpt>
      <trkpt lat="44.71162" lon="7.05878">
        <ele>2716</ele>
        <time>2022-07-16T11:26:24Z</time>
      </trkpt>
      <trkpt lat="44.7116" lon="7.05873">
        <ele>2714</ele>
        <time>2022-07-16T11:26:32Z</time>
      </trkpt>
      <trkpt lat="44.7116" lon="7.05867">
        <ele>2714</ele>
        <time>2022-07-16T11:26:43Z</time>
      </trkpt>
      <trkpt lat="44.71159" lon="7.05862">
        <ele>2714</ele>
        <time>2022-07-16T11:26:56Z</time>
      </trkpt>
      <trkpt lat="44.71154" lon="7.05863">
        <ele>2713</ele>
        <time>2022-07-16T11:27:01Z</time>
      </trkpt>
      <trkpt lat="44.71153" lon="7.05858">
        <ele>2711</ele>
        <time>2022-07-16T11:27:09Z</time>
      </trkpt>
      <trkpt lat="44.7115" lon="7.05856">
        <ele>2709</ele>
        <time>2022-07-16T11:27:16Z</time>
      </trkpt>
      <trkpt lat="44.71146" lon="7.05854">
        <ele>2708</ele>
        <time>2022-07-16T11:27:20Z</time>
      </trkpt>
      <trkpt lat="44.71143" lon="7.05857">
        <ele>2708</ele>
        <time>2022-07-16T11:27:25Z</time>
      </trkpt>
      <trkpt lat="44.71136" lon="7.05859">
        <ele>2706</ele>
        <time>2022-07-16T11:27:35Z</time>
      </trkpt>
      <trkpt lat="44.71132" lon="7.05858">
        <ele>2704</ele>
        <time>2022-07-16T11:27:40Z</time>
      </trkpt>
      <trkpt lat="44.7113" lon="7.05854">
        <ele>2702</ele>
        <time>2022-07-16T11:27:44Z</time>
      </trkpt>
      <trkpt lat="44.71126" lon="7.05855">
        <ele>2702</ele>
        <time>2022-07-16T11:27:49Z</time>
      </trkpt>
      <trkpt lat="44.7112" lon="7.05859">
        <ele>2699</ele>
        <time>2022-07-16T11:28:03Z</time>
      </trkpt>
      <trkpt lat="44.71116" lon="7.0586">
        <ele>2697</ele>
        <time>2022-07-16T11:28:10Z</time>
      </trkpt>
      <trkpt lat="44.71113" lon="7.05863">
        <ele>2697</ele>
        <time>2022-07-16T11:28:16Z</time>
      </trkpt>
      <trkpt lat="44.7111" lon="7.0586">
        <ele>2694</ele>
        <time>2022-07-16T11:28:24Z</time>
      </trkpt>
      <trkpt lat="44.7111" lon="7.05855">
        <ele>2694</ele>
        <time>2022-07-16T11:28:28Z</time>
      </trkpt>
      <trkpt lat="44.7111" lon="7.0585">
        <ele>2694</ele>
        <time>2022-07-16T11:28:34Z</time>
      </trkpt>
      <trkpt lat="44.71109" lon="7.05845">
        <ele>2696</ele>
        <time>2022-07-16T11:28:45Z</time>
      </trkpt>
      <trkpt lat="44.71106" lon="7.05842">
        <ele>2696</ele>
        <time>2022-07-16T11:29:18Z</time>
      </trkpt>
      <trkpt lat="44.71107" lon="7.05837">
        <ele>2698</ele>
        <time>2022-07-16T11:30:09Z</time>
      </trkpt>
      <trkpt lat="44.71109" lon="7.05832">
        <ele>2701</ele>
        <time>2022-07-16T11:30:31Z</time>
      </trkpt>
      <trkpt lat="44.7111" lon="7.05828">
        <ele>2700</ele>
        <time>2022-07-16T11:30:39Z</time>
      </trkpt>
      <trkpt lat="44.71109" lon="7.05824">
        <ele>2695</ele>
        <time>2022-07-16T11:30:46Z</time>
      </trkpt>
      <trkpt lat="44.71109" lon="7.05819">
        <ele>2693</ele>
        <time>2022-07-16T11:30:51Z</time>
      </trkpt>
      <trkpt lat="44.71108" lon="7.05815">
        <ele>2691</ele>
        <time>2022-07-16T11:30:58Z</time>
      </trkpt>
      <trkpt lat="44.71104" lon="7.05816">
        <ele>2690</ele>
        <time>2022-07-16T11:31:04Z</time>
      </trkpt>
      <trkpt lat="44.711" lon="7.05817">
        <ele>2688</ele>
        <time>2022-07-16T11:31:09Z</time>
      </trkpt>
      <trkpt lat="44.71097" lon="7.05814">
        <ele>2687</ele>
        <time>2022-07-16T11:31:14Z</time>
      </trkpt>
      <trkpt lat="44.7109" lon="7.0581">
        <ele>2683</ele>
        <time>2022-07-16T11:31:23Z</time>
      </trkpt>
      <trkpt lat="44.71088" lon="7.05805">
        <ele>2681</ele>
        <time>2022-07-16T11:31:28Z</time>
      </trkpt>
      <trkpt lat="44.71089" lon="7.058">
        <ele>2680</ele>
        <time>2022-07-16T11:31:32Z</time>
      </trkpt>
      <trkpt lat="44.71083" lon="7.05794">
        <ele>2680</ele>
        <time>2022-07-16T11:31:43Z</time>
      </trkpt>
      <trkpt lat="44.71079" lon="7.0579">
        <ele>2678</ele>
        <time>2022-07-16T11:31:48Z</time>
      </trkpt>
      <trkpt lat="44.71076" lon="7.05788">
        <ele>2677</ele>
        <time>2022-07-16T11:31:53Z</time>
      </trkpt>
      <trkpt lat="44.71073" lon="7.05788">
        <ele>2676</ele>
        <time>2022-07-16T11:31:56Z</time>
      </trkpt>
      <trkpt lat="44.71069" lon="7.05789">
        <ele>2675</ele>
        <time>2022-07-16T11:32:00Z</time>
      </trkpt>
      <trkpt lat="44.71065" lon="7.05789">
        <ele>2674</ele>
        <time>2022-07-16T11:32:05Z</time>
      </trkpt>
      <trkpt lat="44.71057" lon="7.0579">
        <ele>2672</ele>
        <time>2022-07-16T11:32:14Z</time>
      </trkpt>
      <trkpt lat="44.71053" lon="7.0579">
        <ele>2671</ele>
        <time>2022-07-16T11:32:18Z</time>
      </trkpt>
      <trkpt lat="44.71035" lon="7.05791">
        <ele>2670</ele>
        <time>2022-07-16T11:32:40Z</time>
      </trkpt>
      <trkpt lat="44.71031" lon="7.05795">
        <ele>2670</ele>
        <time>2022-07-16T11:32:46Z</time>
      </trkpt>
      <trkpt lat="44.7103" lon="7.0579">
        <ele>2669</ele>
        <time>2022-07-16T11:32:54Z</time>
      </trkpt>
      <trkpt lat="44.71031" lon="7.05785">
        <ele>2669</ele>
        <time>2022-07-16T11:32:58Z</time>
      </trkpt>
      <trkpt lat="44.71031" lon="7.05779">
        <ele>2668</ele>
        <time>2022-07-16T11:33:03Z</time>
      </trkpt>
      <trkpt lat="44.71029" lon="7.05776">
        <ele>2669</ele>
        <time>2022-07-16T11:34:11Z</time>
      </trkpt>
      <trkpt lat="44.71025" lon="7.05779">
        <ele>2667</ele>
        <time>2022-07-16T11:34:16Z</time>
      </trkpt>
      <trkpt lat="44.71022" lon="7.0578">
        <ele>2665</ele>
        <time>2022-07-16T11:34:22Z</time>
      </trkpt>
      <trkpt lat="44.71018" lon="7.05782">
        <ele>2663</ele>
        <time>2022-07-16T11:34:28Z</time>
      </trkpt>
      <trkpt lat="44.71015" lon="7.0578">
        <ele>2663</ele>
        <time>2022-07-16T11:34:35Z</time>
      </trkpt>
      <trkpt lat="44.71012" lon="7.05779">
        <ele>2661</ele>
        <time>2022-07-16T11:34:45Z</time>
      </trkpt>
      <trkpt lat="44.71011" lon="7.05774">
        <ele>2661</ele>
        <time>2022-07-16T11:34:52Z</time>
      </trkpt>
      <trkpt lat="44.71007" lon="7.05773">
        <ele>2661</ele>
        <time>2022-07-16T11:34:58Z</time>
      </trkpt>
      <trkpt lat="44.71004" lon="7.05773">
        <ele>2660</ele>
        <time>2022-07-16T11:35:04Z</time>
      </trkpt>
      <trkpt lat="44.71" lon="7.05771">
        <ele>2659</ele>
        <time>2022-07-16T11:35:10Z</time>
      </trkpt>
      <trkpt lat="44.70998" lon="7.05768">
        <ele>2659</ele>
        <time>2022-07-16T11:35:43Z</time>
      </trkpt>
      <trkpt lat="44.70997" lon="7.05763">
        <ele>2660</ele>
        <time>2022-07-16T11:35:48Z</time>
      </trkpt>
      <trkpt lat="44.70994" lon="7.05761">
        <ele>2661</ele>
        <time>2022-07-16T11:35:53Z</time>
      </trkpt>
      <trkpt lat="44.70989" lon="7.05759">
        <ele>2660</ele>
        <time>2022-07-16T11:35:57Z</time>
      </trkpt>
      <trkpt lat="44.70986" lon="7.05761">
        <ele>2659</ele>
        <time>2022-07-16T11:36:02Z</time>
      </trkpt>
      <trkpt lat="44.70982" lon="7.0576">
        <ele>2658</ele>
        <time>2022-07-16T11:36:09Z</time>
      </trkpt>
      <trkpt lat="44.70979" lon="7.05759">
        <ele>2657</ele>
        <time>2022-07-16T11:36:15Z</time>
      </trkpt>
      <trkpt lat="44.70975" lon="7.05759">
        <ele>2656</ele>
        <time>2022-07-16T11:36:22Z</time>
      </trkpt>
      <trkpt lat="44.70972" lon="7.05757">
        <ele>2656</ele>
        <time>2022-07-16T11:36:26Z</time>
      </trkpt>
      <trkpt lat="44.70968" lon="7.05759">
        <ele>2656</ele>
        <time>2022-07-16T11:36:31Z</time>
      </trkpt>
      <trkpt lat="44.70965" lon="7.0576">
        <ele>2655</ele>
        <time>2022-07-16T11:36:35Z</time>
      </trkpt>
      <trkpt lat="44.70961" lon="7.05757">
        <ele>2654</ele>
        <time>2022-07-16T11:36:40Z</time>
      </trkpt>
      <trkpt lat="44.70959" lon="7.05753">
        <ele>2654</ele>
        <time>2022-07-16T11:36:46Z</time>
      </trkpt>
      <trkpt lat="44.70955" lon="7.05755">
        <ele>2653</ele>
        <time>2022-07-16T11:36:51Z</time>
      </trkpt>
      <trkpt lat="44.70954" lon="7.05751">
        <ele>2652</ele>
        <time>2022-07-16T11:36:56Z</time>
      </trkpt>
      <trkpt lat="44.70955" lon="7.05746">
        <ele>2652</ele>
        <time>2022-07-16T11:37:01Z</time>
      </trkpt>
      <trkpt lat="44.70957" lon="7.05741">
        <ele>2651</ele>
        <time>2022-07-16T11:37:07Z</time>
      </trkpt>
      <trkpt lat="44.70953" lon="7.05733">
        <ele>2652</ele>
        <time>2022-07-16T11:37:35Z</time>
      </trkpt>
      <trkpt lat="44.70955" lon="7.0573">
        <ele>2652</ele>
        <time>2022-07-16T11:37:44Z</time>
      </trkpt>
      <trkpt lat="44.70959" lon="7.05728">
        <ele>2649</ele>
        <time>2022-07-16T11:38:18Z</time>
      </trkpt>
      <trkpt lat="44.7096" lon="7.05724">
        <ele>2647</ele>
        <time>2022-07-16T11:38:27Z</time>
      </trkpt>
      <trkpt lat="44.7096" lon="7.05719">
        <ele>2648</ele>
        <time>2022-07-16T11:38:42Z</time>
      </trkpt>
      <trkpt lat="44.70956" lon="7.05717">
        <ele>2648</ele>
        <time>2022-07-16T11:38:50Z</time>
      </trkpt>
      <trkpt lat="44.70959" lon="7.05714">
        <ele>2647</ele>
        <time>2022-07-16T11:38:55Z</time>
      </trkpt>
      <trkpt lat="44.70955" lon="7.05714">
        <ele>2645</ele>
        <time>2022-07-16T11:39:10Z</time>
      </trkpt>
      <trkpt lat="44.70951" lon="7.05713">
        <ele>2640</ele>
        <time>2022-07-16T11:39:16Z</time>
      </trkpt>
      <trkpt lat="44.70948" lon="7.05715">
        <ele>2639</ele>
        <time>2022-07-16T11:39:35Z</time>
      </trkpt>
      <trkpt lat="44.70944" lon="7.05714">
        <ele>2637</ele>
        <time>2022-07-16T11:39:41Z</time>
      </trkpt>
      <trkpt lat="44.7094" lon="7.05713">
        <ele>2637</ele>
        <time>2022-07-16T11:39:47Z</time>
      </trkpt>
      <trkpt lat="44.70936" lon="7.05714">
        <ele>2634</ele>
        <time>2022-07-16T11:39:53Z</time>
      </trkpt>
      <trkpt lat="44.70934" lon="7.0571">
        <ele>2634</ele>
        <time>2022-07-16T11:39:58Z</time>
      </trkpt>
      <trkpt lat="44.70928" lon="7.05704">
        <ele>2632</ele>
        <time>2022-07-16T11:40:08Z</time>
      </trkpt>
      <trkpt lat="44.70925" lon="7.05694">
        <ele>2630</ele>
        <time>2022-07-16T11:40:18Z</time>
      </trkpt>
      <trkpt lat="44.70926" lon="7.05689">
        <ele>2629</ele>
        <time>2022-07-16T11:40:24Z</time>
      </trkpt>
      <trkpt lat="44.70929" lon="7.05686">
        <ele>2628</ele>
        <time>2022-07-16T11:40:33Z</time>
      </trkpt>
      <trkpt lat="44.70927" lon="7.05682">
        <ele>2627</ele>
        <time>2022-07-16T11:40:39Z</time>
      </trkpt>
      <trkpt lat="44.70924" lon="7.05682">
        <ele>2627</ele>
        <time>2022-07-16T11:40:43Z</time>
      </trkpt>
      <trkpt lat="44.70922" lon="7.05676">
        <ele>2625</ele>
        <time>2022-07-16T11:40:47Z</time>
      </trkpt>
      <trkpt lat="44.70923" lon="7.05671">
        <ele>2625</ele>
        <time>2022-07-16T11:40:51Z</time>
      </trkpt>
      <trkpt lat="44.70926" lon="7.05667">
        <ele>2624</ele>
        <time>2022-07-16T11:40:56Z</time>
      </trkpt>
      <trkpt lat="44.70927" lon="7.05662">
        <ele>2624</ele>
        <time>2022-07-16T11:41:00Z</time>
      </trkpt>
      <trkpt lat="44.70928" lon="7.05658">
        <ele>2624</ele>
        <time>2022-07-16T11:41:04Z</time>
      </trkpt>
      <trkpt lat="44.70929" lon="7.05642">
        <ele>2622</ele>
        <time>2022-07-16T11:41:18Z</time>
      </trkpt>
      <trkpt lat="44.70934" lon="7.05636">
        <ele>2620</ele>
        <time>2022-07-16T11:41:27Z</time>
      </trkpt>
      <trkpt lat="44.70938" lon="7.05635">
        <ele>2620</ele>
        <time>2022-07-16T11:41:32Z</time>
      </trkpt>
      <trkpt lat="44.70944" lon="7.0564">
        <ele>2619</ele>
        <time>2022-07-16T11:41:40Z</time>
      </trkpt>
      <trkpt lat="44.70948" lon="7.05642">
        <ele>2619</ele>
        <time>2022-07-16T11:41:45Z</time>
      </trkpt>
      <trkpt lat="44.70952" lon="7.05641">
        <ele>2618</ele>
        <time>2022-07-16T11:41:52Z</time>
      </trkpt>
      <trkpt lat="44.70952" lon="7.05635">
        <ele>2618</ele>
        <time>2022-07-16T11:41:56Z</time>
      </trkpt>
      <trkpt lat="44.7095" lon="7.05631">
        <ele>2618</ele>
        <time>2022-07-16T11:42:03Z</time>
      </trkpt>
      <trkpt lat="44.70947" lon="7.05629">
        <ele>2618</ele>
        <time>2022-07-16T11:42:08Z</time>
      </trkpt>
      <trkpt lat="44.70946" lon="7.05624">
        <ele>2616</ele>
        <time>2022-07-16T11:42:13Z</time>
      </trkpt>
      <trkpt lat="44.70945" lon="7.05619">
        <ele>2616</ele>
        <time>2022-07-16T11:42:19Z</time>
      </trkpt>
      <trkpt lat="44.70943" lon="7.05615">
        <ele>2615</ele>
        <time>2022-07-16T11:42:25Z</time>
      </trkpt>
      <trkpt lat="44.70939" lon="7.05612">
        <ele>2614</ele>
        <time>2022-07-16T11:42:33Z</time>
      </trkpt>
      <trkpt lat="44.7094" lon="7.05607">
        <ele>2613</ele>
        <time>2022-07-16T11:42:39Z</time>
      </trkpt>
      <trkpt lat="44.70942" lon="7.05604">
        <ele>2613</ele>
        <time>2022-07-16T11:42:45Z</time>
      </trkpt>
      <trkpt lat="44.70945" lon="7.05606">
        <ele>2610</ele>
        <time>2022-07-16T11:42:59Z</time>
      </trkpt>
      <trkpt lat="44.70949" lon="7.05603">
        <ele>2609</ele>
        <time>2022-07-16T11:43:08Z</time>
      </trkpt>
      <trkpt lat="44.70949" lon="7.05598">
        <ele>2608</ele>
        <time>2022-07-16T11:43:13Z</time>
      </trkpt>
      <trkpt lat="44.70953" lon="7.05601">
        <ele>2608</ele>
        <time>2022-07-16T11:43:19Z</time>
      </trkpt>
      <trkpt lat="44.70955" lon="7.05611">
        <ele>2605</ele>
        <time>2022-07-16T11:43:31Z</time>
      </trkpt>
      <trkpt lat="44.70961" lon="7.05617">
        <ele>2603</ele>
        <time>2022-07-16T11:43:41Z</time>
      </trkpt>
      <trkpt lat="44.7096" lon="7.05613">
        <ele>2603</ele>
        <time>2022-07-16T11:43:50Z</time>
      </trkpt>
      <trkpt lat="44.70956" lon="7.05611">
        <ele>2604</ele>
        <time>2022-07-16T11:43:54Z</time>
      </trkpt>
      <trkpt lat="44.70956" lon="7.05606">
        <ele>2603</ele>
        <time>2022-07-16T11:43:59Z</time>
      </trkpt>
      <trkpt lat="44.7096" lon="7.05606">
        <ele>2603</ele>
        <time>2022-07-16T11:44:04Z</time>
      </trkpt>
      <trkpt lat="44.70962" lon="7.05601">
        <ele>2599</ele>
        <time>2022-07-16T11:44:16Z</time>
      </trkpt>
      <trkpt lat="44.70962" lon="7.05596">
        <ele>2597</ele>
        <time>2022-07-16T11:44:24Z</time>
      </trkpt>
      <trkpt lat="44.70964" lon="7.05593">
        <ele>2595</ele>
        <time>2022-07-16T11:44:36Z</time>
      </trkpt>
      <trkpt lat="44.70962" lon="7.05588">
        <ele>2594</ele>
        <time>2022-07-16T11:44:40Z</time>
      </trkpt>
      <trkpt lat="44.70955" lon="7.05564">
        <ele>2590</ele>
        <time>2022-07-16T11:45:02Z</time>
      </trkpt>
      <trkpt lat="44.70955" lon="7.05559">
        <ele>2590</ele>
        <time>2022-07-16T11:45:06Z</time>
      </trkpt>
      <trkpt lat="44.70955" lon="7.05553">
        <ele>2589</ele>
        <time>2022-07-16T11:45:11Z</time>
      </trkpt>
      <trkpt lat="44.70953" lon="7.05548">
        <ele>2589</ele>
        <time>2022-07-16T11:45:16Z</time>
      </trkpt>
      <trkpt lat="44.70952" lon="7.05543">
        <ele>2588</ele>
        <time>2022-07-16T11:45:21Z</time>
      </trkpt>
      <trkpt lat="44.70952" lon="7.05538">
        <ele>2588</ele>
        <time>2022-07-16T11:45:25Z</time>
      </trkpt>
      <trkpt lat="44.70951" lon="7.05533">
        <ele>2587</ele>
        <time>2022-07-16T11:45:29Z</time>
      </trkpt>
      <trkpt lat="44.70951" lon="7.05527">
        <ele>2587</ele>
        <time>2022-07-16T11:45:34Z</time>
      </trkpt>
      <trkpt lat="44.7095" lon="7.05522">
        <ele>2586</ele>
        <time>2022-07-16T11:45:39Z</time>
      </trkpt>
      <trkpt lat="44.7095" lon="7.05517">
        <ele>2585</ele>
        <time>2022-07-16T11:45:43Z</time>
      </trkpt>
      <trkpt lat="44.70948" lon="7.05507">
        <ele>2584</ele>
        <time>2022-07-16T11:45:51Z</time>
      </trkpt>
      <trkpt lat="44.70949" lon="7.05497">
        <ele>2583</ele>
        <time>2022-07-16T11:46:01Z</time>
      </trkpt>
      <trkpt lat="44.70949" lon="7.05492">
        <ele>2583</ele>
        <time>2022-07-16T11:46:05Z</time>
      </trkpt>
      <trkpt lat="44.70943" lon="7.05485">
        <ele>2582</ele>
        <time>2022-07-16T11:46:15Z</time>
      </trkpt>
      <trkpt lat="44.70939" lon="7.05484">
        <ele>2582</ele>
        <time>2022-07-16T11:46:21Z</time>
      </trkpt>
      <trkpt lat="44.70936" lon="7.05486">
        <ele>2580</ele>
        <time>2022-07-16T11:46:27Z</time>
      </trkpt>
      <trkpt lat="44.70933" lon="7.05483">
        <ele>2580</ele>
        <time>2022-07-16T11:46:31Z</time>
      </trkpt>
      <trkpt lat="44.70933" lon="7.05478">
        <ele>2580</ele>
        <time>2022-07-16T11:46:35Z</time>
      </trkpt>
      <trkpt lat="44.70936" lon="7.05474">
        <ele>2580</ele>
        <time>2022-07-16T11:46:44Z</time>
      </trkpt>
      <trkpt lat="44.70934" lon="7.05469">
        <ele>2580</ele>
        <time>2022-07-16T11:46:50Z</time>
      </trkpt>
      <trkpt lat="44.70935" lon="7.05464">
        <ele>2579</ele>
        <time>2022-07-16T11:46:55Z</time>
      </trkpt>
      <trkpt lat="44.70932" lon="7.05462">
        <ele>2578</ele>
        <time>2022-07-16T11:46:59Z</time>
      </trkpt>
      <trkpt lat="44.70929" lon="7.05462">
        <ele>2577</ele>
        <time>2022-07-16T11:47:04Z</time>
      </trkpt>
      <trkpt lat="44.70926" lon="7.05465">
        <ele>2575</ele>
        <time>2022-07-16T11:47:11Z</time>
      </trkpt>
      <trkpt lat="44.70924" lon="7.05461">
        <ele>2574</ele>
        <time>2022-07-16T11:47:26Z</time>
      </trkpt>
      <trkpt lat="44.70923" lon="7.05456">
        <ele>2573</ele>
        <time>2022-07-16T11:47:32Z</time>
      </trkpt>
      <trkpt lat="44.70924" lon="7.05451">
        <ele>2572</ele>
        <time>2022-07-16T11:47:38Z</time>
      </trkpt>
      <trkpt lat="44.70925" lon="7.05446">
        <ele>2572</ele>
        <time>2022-07-16T11:47:43Z</time>
      </trkpt>
      <trkpt lat="44.70921" lon="7.05445">
        <ele>2571</ele>
        <time>2022-07-16T11:47:50Z</time>
      </trkpt>
      <trkpt lat="44.70921" lon="7.05439">
        <ele>2570</ele>
        <time>2022-07-16T11:47:55Z</time>
      </trkpt>
      <trkpt lat="44.70919" lon="7.05435">
        <ele>2568</ele>
        <time>2022-07-16T11:48:02Z</time>
      </trkpt>
      <trkpt lat="44.70916" lon="7.05432">
        <ele>2567</ele>
        <time>2022-07-16T11:48:10Z</time>
      </trkpt>
      <trkpt lat="44.70913" lon="7.05427">
        <ele>2565</ele>
        <time>2022-07-16T11:48:15Z</time>
      </trkpt>
      <trkpt lat="44.70911" lon="7.05418">
        <ele>2559</ele>
        <time>2022-07-16T11:48:34Z</time>
      </trkpt>
      <trkpt lat="44.70909" lon="7.05414">
        <ele>2559</ele>
        <time>2022-07-16T11:48:39Z</time>
      </trkpt>
      <trkpt lat="44.70906" lon="7.05416">
        <ele>2558</ele>
        <time>2022-07-16T11:48:47Z</time>
      </trkpt>
      <trkpt lat="44.70904" lon="7.05427">
        <ele>2556</ele>
        <time>2022-07-16T11:48:55Z</time>
      </trkpt>
      <trkpt lat="44.709" lon="7.05428">
        <ele>2555</ele>
        <time>2022-07-16T11:49:00Z</time>
      </trkpt>
      <trkpt lat="44.70896" lon="7.05429">
        <ele>2554</ele>
        <time>2022-07-16T11:49:05Z</time>
      </trkpt>
      <trkpt lat="44.70894" lon="7.05425">
        <ele>2553</ele>
        <time>2022-07-16T11:49:11Z</time>
      </trkpt>
      <trkpt lat="44.7089" lon="7.05425">
        <ele>2552</ele>
        <time>2022-07-16T11:49:15Z</time>
      </trkpt>
      <trkpt lat="44.70886" lon="7.05428">
        <ele>2551</ele>
        <time>2022-07-16T11:49:20Z</time>
      </trkpt>
      <trkpt lat="44.70882" lon="7.0543">
        <ele>2548</ele>
        <time>2022-07-16T11:49:25Z</time>
      </trkpt>
      <trkpt lat="44.70879" lon="7.05429">
        <ele>2547</ele>
        <time>2022-07-16T11:49:33Z</time>
      </trkpt>
      <trkpt lat="44.70876" lon="7.05432">
        <ele>2545</ele>
        <time>2022-07-16T11:49:38Z</time>
      </trkpt>
      <trkpt lat="44.70872" lon="7.05433">
        <ele>2545</ele>
        <time>2022-07-16T11:49:42Z</time>
      </trkpt>
      <trkpt lat="44.70868" lon="7.05432">
        <ele>2543</ele>
        <time>2022-07-16T11:49:47Z</time>
      </trkpt>
      <trkpt lat="44.70865" lon="7.0543">
        <ele>2542</ele>
        <time>2022-07-16T11:49:52Z</time>
      </trkpt>
      <trkpt lat="44.70861" lon="7.0543">
        <ele>2542</ele>
        <time>2022-07-16T11:49:57Z</time>
      </trkpt>
      <trkpt lat="44.70858" lon="7.05428">
        <ele>2541</ele>
        <time>2022-07-16T11:50:03Z</time>
      </trkpt>
      <trkpt lat="44.70855" lon="7.05425">
        <ele>2539</ele>
        <time>2022-07-16T11:50:09Z</time>
      </trkpt>
      <trkpt lat="44.70852" lon="7.05424">
        <ele>2538</ele>
        <time>2022-07-16T11:50:15Z</time>
      </trkpt>
      <trkpt lat="44.7085" lon="7.05419">
        <ele>2537</ele>
        <time>2022-07-16T11:50:21Z</time>
      </trkpt>
      <trkpt lat="44.70849" lon="7.05414">
        <ele>2537</ele>
        <time>2022-07-16T11:50:27Z</time>
      </trkpt>
      <trkpt lat="44.70848" lon="7.0541">
        <ele>2536</ele>
        <time>2022-07-16T11:50:31Z</time>
      </trkpt>
      <trkpt lat="44.70847" lon="7.05405">
        <ele>2536</ele>
        <time>2022-07-16T11:50:37Z</time>
      </trkpt>
      <trkpt lat="44.70844" lon="7.05403">
        <ele>2534</ele>
        <time>2022-07-16T11:50:42Z</time>
      </trkpt>
      <trkpt lat="44.70841" lon="7.05401">
        <ele>2534</ele>
        <time>2022-07-16T11:50:46Z</time>
      </trkpt>
      <trkpt lat="44.70838" lon="7.05391">
        <ele>2533</ele>
        <time>2022-07-16T11:50:55Z</time>
      </trkpt>
      <trkpt lat="44.70836" lon="7.05387">
        <ele>2534</ele>
        <time>2022-07-16T11:51:00Z</time>
      </trkpt>
      <trkpt lat="44.70835" lon="7.05381">
        <ele>2534</ele>
        <time>2022-07-16T11:51:05Z</time>
      </trkpt>
      <trkpt lat="44.70833" lon="7.05377">
        <ele>2536</ele>
        <time>2022-07-16T11:51:10Z</time>
      </trkpt>
      <trkpt lat="44.7083" lon="7.05374">
        <ele>2536</ele>
        <time>2022-07-16T11:51:15Z</time>
      </trkpt>
      <trkpt lat="44.70829" lon="7.05369">
        <ele>2535</ele>
        <time>2022-07-16T11:51:20Z</time>
      </trkpt>
      <trkpt lat="44.70828" lon="7.05363">
        <ele>2535</ele>
        <time>2022-07-16T11:51:25Z</time>
      </trkpt>
      <trkpt lat="44.70828" lon="7.05358">
        <ele>2535</ele>
        <time>2022-07-16T11:51:31Z</time>
      </trkpt>
      <trkpt lat="44.70828" lon="7.05353">
        <ele>2535</ele>
        <time>2022-07-16T11:51:36Z</time>
      </trkpt>
      <trkpt lat="44.70826" lon="7.05348">
        <ele>2535</ele>
        <time>2022-07-16T11:51:41Z</time>
      </trkpt>
      <trkpt lat="44.70822" lon="7.05346">
        <ele>2534</ele>
        <time>2022-07-16T11:51:44Z</time>
      </trkpt>
      <trkpt lat="44.70819" lon="7.05332">
        <ele>2533</ele>
        <time>2022-07-16T11:52:02Z</time>
      </trkpt>
      <trkpt lat="44.70819" lon="7.05327">
        <ele>2533</ele>
        <time>2022-07-16T11:52:07Z</time>
      </trkpt>
      <trkpt lat="44.70821" lon="7.05317">
        <ele>2532</ele>
        <time>2022-07-16T11:52:17Z</time>
      </trkpt>
      <trkpt lat="44.70819" lon="7.05313">
        <ele>2532</ele>
        <time>2022-07-16T11:52:23Z</time>
      </trkpt>
      <trkpt lat="44.70818" lon="7.05307">
        <ele>2531</ele>
        <time>2022-07-16T11:52:29Z</time>
      </trkpt>
      <trkpt lat="44.70818" lon="7.05302">
        <ele>2531</ele>
        <time>2022-07-16T11:52:36Z</time>
      </trkpt>
      <trkpt lat="44.70817" lon="7.05297">
        <ele>2530</ele>
        <time>2022-07-16T11:52:42Z</time>
      </trkpt>
      <trkpt lat="44.70816" lon="7.05292">
        <ele>2529</ele>
        <time>2022-07-16T11:52:48Z</time>
      </trkpt>
      <trkpt lat="44.70816" lon="7.05287">
        <ele>2528</ele>
        <time>2022-07-16T11:52:54Z</time>
      </trkpt>
      <trkpt lat="44.70815" lon="7.05282">
        <ele>2528</ele>
        <time>2022-07-16T11:52:59Z</time>
      </trkpt>
      <trkpt lat="44.70813" lon="7.05277">
        <ele>2530</ele>
        <time>2022-07-16T11:53:03Z</time>
      </trkpt>
      <trkpt lat="44.70812" lon="7.05272">
        <ele>2530</ele>
        <time>2022-07-16T11:53:08Z</time>
      </trkpt>
      <trkpt lat="44.70811" lon="7.05269">
        <ele>2531</ele>
        <time>2022-07-16T11:53:17Z</time>
      </trkpt>
      <trkpt lat="44.70812" lon="7.05265">
        <ele>2530</ele>
        <time>2022-07-16T11:53:26Z</time>
      </trkpt>
      <trkpt lat="44.70815" lon="7.05263">
        <ele>2529</ele>
        <time>2022-07-16T11:53:32Z</time>
      </trkpt>
      <trkpt lat="44.70816" lon="7.05258">
        <ele>2526</ele>
        <time>2022-07-16T11:53:40Z</time>
      </trkpt>
      <trkpt lat="44.70818" lon="7.05254">
        <ele>2524</ele>
        <time>2022-07-16T11:53:47Z</time>
      </trkpt>
      <trkpt lat="44.70816" lon="7.05251">
        <ele>2523</ele>
        <time>2022-07-16T11:53:56Z</time>
      </trkpt>
      <trkpt lat="44.70815" lon="7.0524">
        <ele>2519</ele>
        <time>2022-07-16T11:54:08Z</time>
      </trkpt>
      <trkpt lat="44.7081" lon="7.05232">
        <ele>2514</ele>
        <time>2022-07-16T11:54:20Z</time>
      </trkpt>
      <trkpt lat="44.70807" lon="7.05229">
        <ele>2511</ele>
        <time>2022-07-16T11:54:26Z</time>
      </trkpt>
      <trkpt lat="44.7081" lon="7.05225">
        <ele>2511</ele>
        <time>2022-07-16T11:54:31Z</time>
      </trkpt>
      <trkpt lat="44.70812" lon="7.05221">
        <ele>2509</ele>
        <time>2022-07-16T11:54:37Z</time>
      </trkpt>
      <trkpt lat="44.70815" lon="7.05218">
        <ele>2508</ele>
        <time>2022-07-16T11:54:43Z</time>
      </trkpt>
      <trkpt lat="44.70817" lon="7.05213">
        <ele>2507</ele>
        <time>2022-07-16T11:54:50Z</time>
      </trkpt>
      <trkpt lat="44.7082" lon="7.0521">
        <ele>2507</ele>
        <time>2022-07-16T11:54:57Z</time>
      </trkpt>
      <trkpt lat="44.7082" lon="7.05204">
        <ele>2505</ele>
        <time>2022-07-16T11:55:03Z</time>
      </trkpt>
      <trkpt lat="44.70817" lon="7.052">
        <ele>2505</ele>
        <time>2022-07-16T11:55:13Z</time>
      </trkpt>
      <trkpt lat="44.70814" lon="7.05198">
        <ele>2504</ele>
        <time>2022-07-16T11:55:17Z</time>
      </trkpt>
      <trkpt lat="44.70812" lon="7.05194">
        <ele>2503</ele>
        <time>2022-07-16T11:55:22Z</time>
      </trkpt>
      <trkpt lat="44.70812" lon="7.05189">
        <ele>2501</ele>
        <time>2022-07-16T11:55:28Z</time>
      </trkpt>
      <trkpt lat="44.70814" lon="7.05185">
        <ele>2501</ele>
        <time>2022-07-16T11:55:32Z</time>
      </trkpt>
      <trkpt lat="44.70816" lon="7.05174">
        <ele>2500</ele>
        <time>2022-07-16T11:55:41Z</time>
      </trkpt>
      <trkpt lat="44.70817" lon="7.05169">
        <ele>2498</ele>
        <time>2022-07-16T11:55:48Z</time>
      </trkpt>
      <trkpt lat="44.70814" lon="7.05166">
        <ele>2498</ele>
        <time>2022-07-16T11:55:53Z</time>
      </trkpt>
      <trkpt lat="44.70811" lon="7.05162">
        <ele>2496</ele>
        <time>2022-07-16T11:55:58Z</time>
      </trkpt>
      <trkpt lat="44.70809" lon="7.05157">
        <ele>2496</ele>
        <time>2022-07-16T11:56:03Z</time>
      </trkpt>
      <trkpt lat="44.70811" lon="7.05152">
        <ele>2495</ele>
        <time>2022-07-16T11:56:08Z</time>
      </trkpt>
      <trkpt lat="44.70812" lon="7.05147">
        <ele>2495</ele>
        <time>2022-07-16T11:56:13Z</time>
      </trkpt>
      <trkpt lat="44.70817" lon="7.05138">
        <ele>2494</ele>
        <time>2022-07-16T11:56:22Z</time>
      </trkpt>
      <trkpt lat="44.70818" lon="7.05134">
        <ele>2493</ele>
        <time>2022-07-16T11:56:27Z</time>
      </trkpt>
      <trkpt lat="44.70823" lon="7.05125">
        <ele>2491</ele>
        <time>2022-07-16T11:56:39Z</time>
      </trkpt>
      <trkpt lat="44.70827" lon="7.05125">
        <ele>2490</ele>
        <time>2022-07-16T11:56:44Z</time>
      </trkpt>
      <trkpt lat="44.7083" lon="7.05122">
        <ele>2490</ele>
        <time>2022-07-16T11:56:48Z</time>
      </trkpt>
      <trkpt lat="44.70834" lon="7.05119">
        <ele>2488</ele>
        <time>2022-07-16T11:56:54Z</time>
      </trkpt>
      <trkpt lat="44.70834" lon="7.05114">
        <ele>2488</ele>
        <time>2022-07-16T11:56:59Z</time>
      </trkpt>
      <trkpt lat="44.70824" lon="7.05106">
        <ele>2486</ele>
        <time>2022-07-16T11:57:14Z</time>
      </trkpt>
      <trkpt lat="44.70822" lon="7.05102">
        <ele>2485</ele>
        <time>2022-07-16T11:57:19Z</time>
      </trkpt>
      <trkpt lat="44.70814" lon="7.0509">
        <ele>2484</ele>
        <time>2022-07-16T11:57:32Z</time>
      </trkpt>
      <trkpt lat="44.70812" lon="7.05086">
        <ele>2484</ele>
        <time>2022-07-16T11:57:36Z</time>
      </trkpt>
      <trkpt lat="44.70807" lon="7.05078">
        <ele>2483</ele>
        <time>2022-07-16T11:57:57Z</time>
      </trkpt>
      <trkpt lat="44.70806" lon="7.05074">
        <ele>2482</ele>
        <time>2022-07-16T11:58:01Z</time>
      </trkpt>
      <trkpt lat="44.70804" lon="7.05069">
        <ele>2482</ele>
        <time>2022-07-16T11:58:06Z</time>
      </trkpt>
      <trkpt lat="44.70807" lon="7.05065">
        <ele>2481</ele>
        <time>2022-07-16T11:58:11Z</time>
      </trkpt>
      <trkpt lat="44.70807" lon="7.0506">
        <ele>2481</ele>
        <time>2022-07-16T11:58:15Z</time>
      </trkpt>
      <trkpt lat="44.7081" lon="7.05056">
        <ele>2481</ele>
        <time>2022-07-16T11:58:19Z</time>
      </trkpt>
      <trkpt lat="44.7081" lon="7.0505">
        <ele>2481</ele>
        <time>2022-07-16T11:58:23Z</time>
      </trkpt>
      <trkpt lat="44.70808" lon="7.05046">
        <ele>2480</ele>
        <time>2022-07-16T11:58:27Z</time>
      </trkpt>
      <trkpt lat="44.70807" lon="7.05041">
        <ele>2479</ele>
        <time>2022-07-16T11:58:32Z</time>
      </trkpt>
      <trkpt lat="44.7081" lon="7.0502">
        <ele>2477</ele>
        <time>2022-07-16T11:58:54Z</time>
      </trkpt>
      <trkpt lat="44.70808" lon="7.05016">
        <ele>2475</ele>
        <time>2022-07-16T11:59:00Z</time>
      </trkpt>
      <trkpt lat="44.70809" lon="7.0501">
        <ele>2472</ele>
        <time>2022-07-16T12:00:01Z</time>
      </trkpt>
      <trkpt lat="44.70809" lon="7.05005">
        <ele>2470</ele>
        <time>2022-07-16T12:00:05Z</time>
      </trkpt>
      <trkpt lat="44.70808" lon="7.05">
        <ele>2470</ele>
        <time>2022-07-16T12:00:09Z</time>
      </trkpt>
      <trkpt lat="44.70808" lon="7.04973">
        <ele>2466</ele>
        <time>2022-07-16T12:00:27Z</time>
      </trkpt>
      <trkpt lat="44.70811" lon="7.04962">
        <ele>2466</ele>
        <time>2022-07-16T12:00:50Z</time>
      </trkpt>
      <trkpt lat="44.70809" lon="7.04957">
        <ele>2466</ele>
        <time>2022-07-16T12:00:54Z</time>
      </trkpt>
      <trkpt lat="44.708" lon="7.04947">
        <ele>2464</ele>
        <time>2022-07-16T12:01:04Z</time>
      </trkpt>
      <trkpt lat="44.70798" lon="7.04942">
        <ele>2463</ele>
        <time>2022-07-16T12:01:08Z</time>
      </trkpt>
      <trkpt lat="44.70789" lon="7.04932">
        <ele>2462</ele>
        <time>2022-07-16T12:01:19Z</time>
      </trkpt>
      <trkpt lat="44.70787" lon="7.04928">
        <ele>2461</ele>
        <time>2022-07-16T12:01:23Z</time>
      </trkpt>
      <trkpt lat="44.70784" lon="7.04925">
        <ele>2461</ele>
        <time>2022-07-16T12:01:28Z</time>
      </trkpt>
      <trkpt lat="44.70782" lon="7.04922">
        <ele>2460</ele>
        <time>2022-07-16T12:01:33Z</time>
      </trkpt>
      <trkpt lat="44.70776" lon="7.04915">
        <ele>2458</ele>
        <time>2022-07-16T12:01:41Z</time>
      </trkpt>
      <trkpt lat="44.70766" lon="7.0491">
        <ele>2456</ele>
        <time>2022-07-16T12:01:53Z</time>
      </trkpt>
      <trkpt lat="44.70754" lon="7.04913">
        <ele>2455</ele>
        <time>2022-07-16T12:02:06Z</time>
      </trkpt>
      <trkpt lat="44.70751" lon="7.04915">
        <ele>2454</ele>
        <time>2022-07-16T12:02:10Z</time>
      </trkpt>
      <trkpt lat="44.70747" lon="7.04916">
        <ele>2453</ele>
        <time>2022-07-16T12:02:14Z</time>
      </trkpt>
      <trkpt lat="44.70735" lon="7.04919">
        <ele>2452</ele>
        <time>2022-07-16T12:02:26Z</time>
      </trkpt>
      <trkpt lat="44.70732" lon="7.0492">
        <ele>2451</ele>
        <time>2022-07-16T12:02:37Z</time>
      </trkpt>
      <trkpt lat="44.70728" lon="7.04917">
        <ele>2450</ele>
        <time>2022-07-16T12:02:42Z</time>
      </trkpt>
      <trkpt lat="44.70725" lon="7.04909">
        <ele>2449</ele>
        <time>2022-07-16T12:02:49Z</time>
      </trkpt>
      <trkpt lat="44.70723" lon="7.04903">
        <ele>2449</ele>
        <time>2022-07-16T12:02:53Z</time>
      </trkpt>
      <trkpt lat="44.70719" lon="7.04888">
        <ele>2448</ele>
        <time>2022-07-16T12:03:05Z</time>
      </trkpt>
      <trkpt lat="44.70717" lon="7.04877">
        <ele>2448</ele>
        <time>2022-07-16T12:03:13Z</time>
      </trkpt>
      <trkpt lat="44.70711" lon="7.04863">
        <ele>2446</ele>
        <time>2022-07-16T12:03:25Z</time>
      </trkpt>
      <trkpt lat="44.70708" lon="7.04852">
        <ele>2445</ele>
        <time>2022-07-16T12:03:33Z</time>
      </trkpt>
      <trkpt lat="44.70705" lon="7.04849">
        <ele>2445</ele>
        <time>2022-07-16T12:03:41Z</time>
      </trkpt>
      <trkpt lat="44.70701" lon="7.04839">
        <ele>2443</ele>
        <time>2022-07-16T12:03:49Z</time>
      </trkpt>
      <trkpt lat="44.70695" lon="7.04815">
        <ele>2441</ele>
        <time>2022-07-16T12:04:09Z</time>
      </trkpt>
      <trkpt lat="44.70692" lon="7.04813">
        <ele>2440</ele>
        <time>2022-07-16T12:04:13Z</time>
      </trkpt>
      <trkpt lat="44.7069" lon="7.04809">
        <ele>2440</ele>
        <time>2022-07-16T12:04:18Z</time>
      </trkpt>
      <trkpt lat="44.70691" lon="7.04803">
        <ele>2439</ele>
        <time>2022-07-16T12:04:23Z</time>
      </trkpt>
      <trkpt lat="44.70687" lon="7.04789">
        <ele>2437</ele>
        <time>2022-07-16T12:04:37Z</time>
      </trkpt>
      <trkpt lat="44.70687" lon="7.04784">
        <ele>2437</ele>
        <time>2022-07-16T12:04:44Z</time>
      </trkpt>
      <trkpt lat="44.70689" lon="7.04773">
        <ele>2435</ele>
        <time>2022-07-16T12:04:55Z</time>
      </trkpt>
      <trkpt lat="44.70691" lon="7.04769">
        <ele>2434</ele>
        <time>2022-07-16T12:05:00Z</time>
      </trkpt>
      <trkpt lat="44.7069" lon="7.04764">
        <ele>2433</ele>
        <time>2022-07-16T12:05:05Z</time>
      </trkpt>
      <trkpt lat="44.70691" lon="7.04758">
        <ele>2432</ele>
        <time>2022-07-16T12:05:10Z</time>
      </trkpt>
      <trkpt lat="44.70691" lon="7.04754">
        <ele>2431</ele>
        <time>2022-07-16T12:05:15Z</time>
      </trkpt>
      <trkpt lat="44.7069" lon="7.04749">
        <ele>2430</ele>
        <time>2022-07-16T12:05:19Z</time>
      </trkpt>
      <trkpt lat="44.70694" lon="7.04733">
        <ele>2427</ele>
        <time>2022-07-16T12:05:34Z</time>
      </trkpt>
      <trkpt lat="44.70692" lon="7.04729">
        <ele>2427</ele>
        <time>2022-07-16T12:05:39Z</time>
      </trkpt>
      <trkpt lat="44.70688" lon="7.04731">
        <ele>2427</ele>
        <time>2022-07-16T12:05:44Z</time>
      </trkpt>
      <trkpt lat="44.70686" lon="7.04727">
        <ele>2425</ele>
        <time>2022-07-16T12:05:49Z</time>
      </trkpt>
      <trkpt lat="44.70687" lon="7.04722">
        <ele>2424</ele>
        <time>2022-07-16T12:05:54Z</time>
      </trkpt>
      <trkpt lat="44.70689" lon="7.04717">
        <ele>2422</ele>
        <time>2022-07-16T12:05:58Z</time>
      </trkpt>
      <trkpt lat="44.70691" lon="7.04713">
        <ele>2422</ele>
        <time>2022-07-16T12:06:03Z</time>
      </trkpt>
      <trkpt lat="44.70694" lon="7.0471">
        <ele>2421</ele>
        <time>2022-07-16T12:06:08Z</time>
      </trkpt>
      <trkpt lat="44.707" lon="7.04703">
        <ele>2420</ele>
        <time>2022-07-16T12:06:18Z</time>
      </trkpt>
      <trkpt lat="44.70703" lon="7.04699">
        <ele>2419</ele>
        <time>2022-07-16T12:06:22Z</time>
      </trkpt>
      <trkpt lat="44.707" lon="7.04696">
        <ele>2419</ele>
        <time>2022-07-16T12:06:28Z</time>
      </trkpt>
      <trkpt lat="44.70688" lon="7.04698">
        <ele>2416</ele>
        <time>2022-07-16T12:06:42Z</time>
      </trkpt>
      <trkpt lat="44.70684" lon="7.04697">
        <ele>2416</ele>
        <time>2022-07-16T12:06:47Z</time>
      </trkpt>
      <trkpt lat="44.70684" lon="7.04692">
        <ele>2415</ele>
        <time>2022-07-16T12:06:51Z</time>
      </trkpt>
      <trkpt lat="44.70692" lon="7.0468">
        <ele>2412</ele>
        <time>2022-07-16T12:07:06Z</time>
      </trkpt>
      <trkpt lat="44.70694" lon="7.04676">
        <ele>2411</ele>
        <time>2022-07-16T12:07:11Z</time>
      </trkpt>
      <trkpt lat="44.70695" lon="7.04671">
        <ele>2410</ele>
        <time>2022-07-16T12:07:16Z</time>
      </trkpt>
      <trkpt lat="44.70696" lon="7.04666">
        <ele>2409</ele>
        <time>2022-07-16T12:07:21Z</time>
      </trkpt>
      <trkpt lat="44.70699" lon="7.04663">
        <ele>2408</ele>
        <time>2022-07-16T12:07:26Z</time>
      </trkpt>
      <trkpt lat="44.7071" lon="7.04657">
        <ele>2405</ele>
        <time>2022-07-16T12:07:41Z</time>
      </trkpt>
      <trkpt lat="44.70714" lon="7.04657">
        <ele>2404</ele>
        <time>2022-07-16T12:07:45Z</time>
      </trkpt>
      <trkpt lat="44.70718" lon="7.04659">
        <ele>2403</ele>
        <time>2022-07-16T12:07:49Z</time>
      </trkpt>
      <trkpt lat="44.70721" lon="7.0466">
        <ele>2403</ele>
        <time>2022-07-16T12:07:53Z</time>
      </trkpt>
      <trkpt lat="44.70724" lon="7.04657">
        <ele>2403</ele>
        <time>2022-07-16T12:07:57Z</time>
      </trkpt>
      <trkpt lat="44.70728" lon="7.04655">
        <ele>2402</ele>
        <time>2022-07-16T12:08:02Z</time>
      </trkpt>
      <trkpt lat="44.70734" lon="7.04648">
        <ele>2401</ele>
        <time>2022-07-16T12:08:12Z</time>
      </trkpt>
      <trkpt lat="44.70737" lon="7.04645">
        <ele>2400</ele>
        <time>2022-07-16T12:08:17Z</time>
      </trkpt>
      <trkpt lat="44.70751" lon="7.04626">
        <ele>2394</ele>
        <time>2022-07-16T12:08:51Z</time>
      </trkpt>
      <trkpt lat="44.70748" lon="7.04622">
        <ele>2394</ele>
        <time>2022-07-16T12:08:56Z</time>
      </trkpt>
      <trkpt lat="44.70741" lon="7.04618">
        <ele>2393</ele>
        <time>2022-07-16T12:09:04Z</time>
      </trkpt>
      <trkpt lat="44.70737" lon="7.04616">
        <ele>2392</ele>
        <time>2022-07-16T12:09:09Z</time>
      </trkpt>
      <trkpt lat="44.70733" lon="7.04616">
        <ele>2391</ele>
        <time>2022-07-16T12:09:13Z</time>
      </trkpt>
      <trkpt lat="44.7073" lon="7.04614">
        <ele>2390</ele>
        <time>2022-07-16T12:09:17Z</time>
      </trkpt>
      <trkpt lat="44.70728" lon="7.0461">
        <ele>2390</ele>
        <time>2022-07-16T12:09:21Z</time>
      </trkpt>
      <trkpt lat="44.70727" lon="7.04605">
        <ele>2389</ele>
        <time>2022-07-16T12:09:25Z</time>
      </trkpt>
      <trkpt lat="44.70724" lon="7.04603">
        <ele>2388</ele>
        <time>2022-07-16T12:09:29Z</time>
      </trkpt>
      <trkpt lat="44.70721" lon="7.04599">
        <ele>2387</ele>
        <time>2022-07-16T12:09:33Z</time>
      </trkpt>
      <trkpt lat="44.70718" lon="7.04596">
        <ele>2386</ele>
        <time>2022-07-16T12:09:37Z</time>
      </trkpt>
      <trkpt lat="44.70717" lon="7.04591">
        <ele>2385</ele>
        <time>2022-07-16T12:09:41Z</time>
      </trkpt>
      <trkpt lat="44.70716" lon="7.04586">
        <ele>2385</ele>
        <time>2022-07-16T12:09:45Z</time>
      </trkpt>
      <trkpt lat="44.70711" lon="7.04579">
        <ele>2384</ele>
        <time>2022-07-16T12:09:54Z</time>
      </trkpt>
      <trkpt lat="44.70714" lon="7.04575">
        <ele>2383</ele>
        <time>2022-07-16T12:10:01Z</time>
      </trkpt>
      <trkpt lat="44.7072" lon="7.0457">
        <ele>2380</ele>
        <time>2022-07-16T12:10:10Z</time>
      </trkpt>
      <trkpt lat="44.70724" lon="7.04568">
        <ele>2378</ele>
        <time>2022-07-16T12:10:16Z</time>
      </trkpt>
      <trkpt lat="44.70728" lon="7.04566">
        <ele>2377</ele>
        <time>2022-07-16T12:10:21Z</time>
      </trkpt>
      <trkpt lat="44.70726" lon="7.04561">
        <ele>2377</ele>
        <time>2022-07-16T12:10:26Z</time>
      </trkpt>
      <trkpt lat="44.70722" lon="7.04552">
        <ele>2375</ele>
        <time>2022-07-16T12:10:36Z</time>
      </trkpt>
      <trkpt lat="44.70724" lon="7.04543">
        <ele>2373</ele>
        <time>2022-07-16T12:10:46Z</time>
      </trkpt>
      <trkpt lat="44.70726" lon="7.04538">
        <ele>2371</ele>
        <time>2022-07-16T12:10:51Z</time>
      </trkpt>
      <trkpt lat="44.70727" lon="7.04533">
        <ele>2371</ele>
        <time>2022-07-16T12:10:56Z</time>
      </trkpt>
      <trkpt lat="44.70726" lon="7.04528">
        <ele>2369</ele>
        <time>2022-07-16T12:11:01Z</time>
      </trkpt>
      <trkpt lat="44.70725" lon="7.04523">
        <ele>2369</ele>
        <time>2022-07-16T12:11:06Z</time>
      </trkpt>
      <trkpt lat="44.70728" lon="7.04491">
        <ele>2363</ele>
        <time>2022-07-16T12:11:33Z</time>
      </trkpt>
      <trkpt lat="44.7074" lon="7.04464">
        <ele>2358</ele>
        <time>2022-07-16T12:11:58Z</time>
      </trkpt>
      <trkpt lat="44.70742" lon="7.04454">
        <ele>2357</ele>
        <time>2022-07-16T12:12:07Z</time>
      </trkpt>
      <trkpt lat="44.70744" lon="7.04444">
        <ele>2356</ele>
        <time>2022-07-16T12:12:39Z</time>
      </trkpt>
      <trkpt lat="44.70749" lon="7.04435">
        <ele>2355</ele>
        <time>2022-07-16T12:12:48Z</time>
      </trkpt>
      <trkpt lat="44.7075" lon="7.0443">
        <ele>2354</ele>
        <time>2022-07-16T12:12:54Z</time>
      </trkpt>
      <trkpt lat="44.70752" lon="7.04426">
        <ele>2352</ele>
        <time>2022-07-16T12:12:59Z</time>
      </trkpt>
      <trkpt lat="44.70752" lon="7.04415">
        <ele>2350</ele>
        <time>2022-07-16T12:13:09Z</time>
      </trkpt>
      <trkpt lat="44.70753" lon="7.0441">
        <ele>2350</ele>
        <time>2022-07-16T12:13:13Z</time>
      </trkpt>
      <trkpt lat="44.70755" lon="7.04404">
        <ele>2349</ele>
        <time>2022-07-16T12:13:18Z</time>
      </trkpt>
      <trkpt lat="44.70755" lon="7.04399">
        <ele>2348</ele>
        <time>2022-07-16T12:13:23Z</time>
      </trkpt>
      <trkpt lat="44.7076" lon="7.04384">
        <ele>2345</ele>
        <time>2022-07-16T12:13:38Z</time>
      </trkpt>
      <trkpt lat="44.70763" lon="7.04381">
        <ele>2343</ele>
        <time>2022-07-16T12:13:42Z</time>
      </trkpt>
      <trkpt lat="44.70769" lon="7.04368">
        <ele>2340</ele>
        <time>2022-07-16T12:13:54Z</time>
      </trkpt>
      <trkpt lat="44.70772" lon="7.04352">
        <ele>2338</ele>
        <time>2022-07-16T12:14:07Z</time>
      </trkpt>
      <trkpt lat="44.70774" lon="7.04348">
        <ele>2338</ele>
        <time>2022-07-16T12:14:12Z</time>
      </trkpt>
      <trkpt lat="44.70775" lon="7.04342">
        <ele>2337</ele>
        <time>2022-07-16T12:14:17Z</time>
      </trkpt>
      <trkpt lat="44.70775" lon="7.04337">
        <ele>2336</ele>
        <time>2022-07-16T12:14:21Z</time>
      </trkpt>
      <trkpt lat="44.70778" lon="7.04333">
        <ele>2335</ele>
        <time>2022-07-16T12:14:26Z</time>
      </trkpt>
      <trkpt lat="44.7078" lon="7.04328">
        <ele>2334</ele>
        <time>2022-07-16T12:14:31Z</time>
      </trkpt>
      <trkpt lat="44.70781" lon="7.04323">
        <ele>2334</ele>
        <time>2022-07-16T12:14:35Z</time>
      </trkpt>
      <trkpt lat="44.70781" lon="7.04318">
        <ele>2334</ele>
        <time>2022-07-16T12:14:40Z</time>
      </trkpt>
      <trkpt lat="44.70784" lon="7.04313">
        <ele>2333</ele>
        <time>2022-07-16T12:14:44Z</time>
      </trkpt>
      <trkpt lat="44.70784" lon="7.04308">
        <ele>2332</ele>
        <time>2022-07-16T12:14:48Z</time>
      </trkpt>
      <trkpt lat="44.70785" lon="7.04303">
        <ele>2331</ele>
        <time>2022-07-16T12:14:53Z</time>
      </trkpt>
      <trkpt lat="44.70786" lon="7.04298">
        <ele>2331</ele>
        <time>2022-07-16T12:14:57Z</time>
      </trkpt>
      <trkpt lat="44.70787" lon="7.04293">
        <ele>2330</ele>
        <time>2022-07-16T12:15:02Z</time>
      </trkpt>
      <trkpt lat="44.70786" lon="7.04283">
        <ele>2328</ele>
        <time>2022-07-16T12:15:11Z</time>
      </trkpt>
      <trkpt lat="44.70786" lon="7.04278">
        <ele>2328</ele>
        <time>2022-07-16T12:15:15Z</time>
      </trkpt>
      <trkpt lat="44.70791" lon="7.04259">
        <ele>2324</ele>
        <time>2022-07-16T12:15:32Z</time>
      </trkpt>
      <trkpt lat="44.70791" lon="7.04253">
        <ele>2322</ele>
        <time>2022-07-16T12:15:37Z</time>
      </trkpt>
      <trkpt lat="44.70793" lon="7.04248">
        <ele>2322</ele>
        <time>2022-07-16T12:15:42Z</time>
      </trkpt>
      <trkpt lat="44.70794" lon="7.04244">
        <ele>2321</ele>
        <time>2022-07-16T12:15:46Z</time>
      </trkpt>
      <trkpt lat="44.70797" lon="7.0424">
        <ele>2320</ele>
        <time>2022-07-16T12:15:51Z</time>
      </trkpt>
      <trkpt lat="44.70799" lon="7.04235">
        <ele>2319</ele>
        <time>2022-07-16T12:15:56Z</time>
      </trkpt>
      <trkpt lat="44.70801" lon="7.04231">
        <ele>2318</ele>
        <time>2022-07-16T12:16:01Z</time>
      </trkpt>
      <trkpt lat="44.70803" lon="7.04226">
        <ele>2317</ele>
        <time>2022-07-16T12:16:06Z</time>
      </trkpt>
      <trkpt lat="44.70802" lon="7.0422">
        <ele>2316</ele>
        <time>2022-07-16T12:16:11Z</time>
      </trkpt>
      <trkpt lat="44.708" lon="7.04216">
        <ele>2315</ele>
        <time>2022-07-16T12:16:16Z</time>
      </trkpt>
      <trkpt lat="44.70797" lon="7.04212">
        <ele>2314</ele>
        <time>2022-07-16T12:16:20Z</time>
      </trkpt>
      <trkpt lat="44.7079" lon="7.04199">
        <ele>2312</ele>
        <time>2022-07-16T12:16:35Z</time>
      </trkpt>
      <trkpt lat="44.70788" lon="7.04195">
        <ele>2311</ele>
        <time>2022-07-16T12:16:39Z</time>
      </trkpt>
      <trkpt lat="44.70785" lon="7.04192">
        <ele>2310</ele>
        <time>2022-07-16T12:16:44Z</time>
      </trkpt>
      <trkpt lat="44.70783" lon="7.04188">
        <ele>2309</ele>
        <time>2022-07-16T12:16:49Z</time>
      </trkpt>
      <trkpt lat="44.70782" lon="7.04182">
        <ele>2308</ele>
        <time>2022-07-16T12:16:54Z</time>
      </trkpt>
      <trkpt lat="44.70783" lon="7.04176">
        <ele>2307</ele>
        <time>2022-07-16T12:16:59Z</time>
      </trkpt>
      <trkpt lat="44.70782" lon="7.04172">
        <ele>2306</ele>
        <time>2022-07-16T12:17:04Z</time>
      </trkpt>
      <trkpt lat="44.70786" lon="7.04163">
        <ele>2304</ele>
        <time>2022-07-16T12:17:14Z</time>
      </trkpt>
      <trkpt lat="44.70787" lon="7.04159">
        <ele>2303</ele>
        <time>2022-07-16T12:17:19Z</time>
      </trkpt>
      <trkpt lat="44.70786" lon="7.04154">
        <ele>2302</ele>
        <time>2022-07-16T12:17:23Z</time>
      </trkpt>
      <trkpt lat="44.70783" lon="7.04129">
        <ele>2299</ele>
        <time>2022-07-16T12:17:44Z</time>
      </trkpt>
      <trkpt lat="44.7078" lon="7.04119">
        <ele>2299</ele>
        <time>2022-07-16T12:17:52Z</time>
      </trkpt>
      <trkpt lat="44.70778" lon="7.04116">
        <ele>2298</ele>
        <time>2022-07-16T12:17:56Z</time>
      </trkpt>
      <trkpt lat="44.70776" lon="7.0411">
        <ele>2297</ele>
        <time>2022-07-16T12:18:01Z</time>
      </trkpt>
      <trkpt lat="44.70777" lon="7.04105">
        <ele>2297</ele>
        <time>2022-07-16T12:18:05Z</time>
      </trkpt>
      <trkpt lat="44.70777" lon="7.041">
        <ele>2296</ele>
        <time>2022-07-16T12:18:10Z</time>
      </trkpt>
      <trkpt lat="44.70783" lon="7.04078">
        <ele>2292</ele>
        <time>2022-07-16T12:18:30Z</time>
      </trkpt>
      <trkpt lat="44.70786" lon="7.04075">
        <ele>2291</ele>
        <time>2022-07-16T12:18:33Z</time>
      </trkpt>
      <trkpt lat="44.70787" lon="7.04071">
        <ele>2291</ele>
        <time>2022-07-16T12:18:48Z</time>
      </trkpt>
      <trkpt lat="44.70789" lon="7.04055">
        <ele>2289</ele>
        <time>2022-07-16T12:19:01Z</time>
      </trkpt>
      <trkpt lat="44.70788" lon="7.0405">
        <ele>2288</ele>
        <time>2022-07-16T12:19:06Z</time>
      </trkpt>
      <trkpt lat="44.70786" lon="7.04046">
        <ele>2287</ele>
        <time>2022-07-16T12:19:10Z</time>
      </trkpt>
      <trkpt lat="44.70782" lon="7.04045">
        <ele>2286</ele>
        <time>2022-07-16T12:19:15Z</time>
      </trkpt>
      <trkpt lat="44.70779" lon="7.04043">
        <ele>2286</ele>
        <time>2022-07-16T12:19:20Z</time>
      </trkpt>
      <trkpt lat="44.70775" lon="7.04043">
        <ele>2285</ele>
        <time>2022-07-16T12:19:25Z</time>
      </trkpt>
      <trkpt lat="44.70772" lon="7.04041">
        <ele>2285</ele>
        <time>2022-07-16T12:19:29Z</time>
      </trkpt>
      <trkpt lat="44.70763" lon="7.0403">
        <ele>2283</ele>
        <time>2022-07-16T12:19:41Z</time>
      </trkpt>
      <trkpt lat="44.70761" lon="7.04025">
        <ele>2281</ele>
        <time>2022-07-16T12:19:46Z</time>
      </trkpt>
      <trkpt lat="44.7076" lon="7.0402">
        <ele>2281</ele>
        <time>2022-07-16T12:19:50Z</time>
      </trkpt>
      <trkpt lat="44.70763" lon="7.04005">
        <ele>2279</ele>
        <time>2022-07-16T12:20:04Z</time>
      </trkpt>
      <trkpt lat="44.70767" lon="7.03984">
        <ele>2277</ele>
        <time>2022-07-16T12:20:22Z</time>
      </trkpt>
      <trkpt lat="44.70769" lon="7.03979">
        <ele>2276</ele>
        <time>2022-07-16T12:20:26Z</time>
      </trkpt>
      <trkpt lat="44.70771" lon="7.03976">
        <ele>2275</ele>
        <time>2022-07-16T12:20:30Z</time>
      </trkpt>
      <trkpt lat="44.70774" lon="7.03972">
        <ele>2274</ele>
        <time>2022-07-16T12:20:35Z</time>
      </trkpt>
      <trkpt lat="44.70775" lon="7.03967">
        <ele>2273</ele>
        <time>2022-07-16T12:20:39Z</time>
      </trkpt>
      <trkpt lat="44.70775" lon="7.03961">
        <ele>2272</ele>
        <time>2022-07-16T12:20:44Z</time>
      </trkpt>
      <trkpt lat="44.70777" lon="7.03957">
        <ele>2271</ele>
        <time>2022-07-16T12:20:48Z</time>
      </trkpt>
      <trkpt lat="44.70781" lon="7.03954">
        <ele>2270</ele>
        <time>2022-07-16T12:20:53Z</time>
      </trkpt>
      <trkpt lat="44.70784" lon="7.03951">
        <ele>2269</ele>
        <time>2022-07-16T12:20:58Z</time>
      </trkpt>
      <trkpt lat="44.70787" lon="7.03941">
        <ele>2268</ele>
        <time>2022-07-16T12:21:07Z</time>
      </trkpt>
      <trkpt lat="44.70788" lon="7.03936">
        <ele>2267</ele>
        <time>2022-07-16T12:21:12Z</time>
      </trkpt>
      <trkpt lat="44.70789" lon="7.0393">
        <ele>2266</ele>
        <time>2022-07-16T12:21:17Z</time>
      </trkpt>
      <trkpt lat="44.70798" lon="7.03912">
        <ele>2264</ele>
        <time>2022-07-16T12:21:33Z</time>
      </trkpt>
      <trkpt lat="44.708" lon="7.03908">
        <ele>2262</ele>
        <time>2022-07-16T12:21:37Z</time>
      </trkpt>
      <trkpt lat="44.70805" lon="7.03901">
        <ele>2260</ele>
        <time>2022-07-16T12:21:45Z</time>
      </trkpt>
      <trkpt lat="44.70808" lon="7.03898">
        <ele>2259</ele>
        <time>2022-07-16T12:21:49Z</time>
      </trkpt>
      <trkpt lat="44.70811" lon="7.03894">
        <ele>2258</ele>
        <time>2022-07-16T12:21:53Z</time>
      </trkpt>
      <trkpt lat="44.70816" lon="7.03888">
        <ele>2257</ele>
        <time>2022-07-16T12:22:01Z</time>
      </trkpt>
      <trkpt lat="44.70821" lon="7.0388">
        <ele>2256</ele>
        <time>2022-07-16T12:22:09Z</time>
      </trkpt>
      <trkpt lat="44.70824" lon="7.03876">
        <ele>2255</ele>
        <time>2022-07-16T12:22:13Z</time>
      </trkpt>
      <trkpt lat="44.70827" lon="7.03873">
        <ele>2255</ele>
        <time>2022-07-16T12:22:17Z</time>
      </trkpt>
      <trkpt lat="44.70829" lon="7.03869">
        <ele>2255</ele>
        <time>2022-07-16T12:22:21Z</time>
      </trkpt>
      <trkpt lat="44.7083" lon="7.03864">
        <ele>2255</ele>
        <time>2022-07-16T12:22:25Z</time>
      </trkpt>
      <trkpt lat="44.70833" lon="7.03853">
        <ele>2254</ele>
        <time>2022-07-16T12:22:33Z</time>
      </trkpt>
      <trkpt lat="44.70841" lon="7.0384">
        <ele>2252</ele>
        <time>2022-07-16T12:22:45Z</time>
      </trkpt>
      <trkpt lat="44.70842" lon="7.03834">
        <ele>2252</ele>
        <time>2022-07-16T12:22:49Z</time>
      </trkpt>
      <trkpt lat="44.70841" lon="7.03824">
        <ele>2253</ele>
        <time>2022-07-16T12:22:57Z</time>
      </trkpt>
      <trkpt lat="44.7085" lon="7.03795">
        <ele>2252</ele>
        <time>2022-07-16T12:23:21Z</time>
      </trkpt>
      <trkpt lat="44.70851" lon="7.03784">
        <ele>2252</ele>
        <time>2022-07-16T12:23:29Z</time>
      </trkpt>
      <trkpt lat="44.70849" lon="7.03779">
        <ele>2252</ele>
        <time>2022-07-16T12:23:37Z</time>
      </trkpt>
      <trkpt lat="44.70849" lon="7.03774">
        <ele>2252</ele>
        <time>2022-07-16T12:23:41Z</time>
      </trkpt>
      <trkpt lat="44.70851" lon="7.0377">
        <ele>2252</ele>
        <time>2022-07-16T12:23:45Z</time>
      </trkpt>
      <trkpt lat="44.70858" lon="7.03766">
        <ele>2251</ele>
        <time>2022-07-16T12:23:53Z</time>
      </trkpt>
      <trkpt lat="44.70863" lon="7.03759">
        <ele>2249</ele>
        <time>2022-07-16T12:24:01Z</time>
      </trkpt>
      <trkpt lat="44.70866" lon="7.03748">
        <ele>2247</ele>
        <time>2022-07-16T12:24:12Z</time>
      </trkpt>
      <trkpt lat="44.70868" lon="7.03745">
        <ele>2246</ele>
        <time>2022-07-16T12:24:16Z</time>
      </trkpt>
      <trkpt lat="44.7087" lon="7.03741">
        <ele>2245</ele>
        <time>2022-07-16T12:24:20Z</time>
      </trkpt>
      <trkpt lat="44.70872" lon="7.03736">
        <ele>2244</ele>
        <time>2022-07-16T12:24:24Z</time>
      </trkpt>
      <trkpt lat="44.70874" lon="7.03731">
        <ele>2243</ele>
        <time>2022-07-16T12:24:28Z</time>
      </trkpt>
      <trkpt lat="44.70886" lon="7.03708">
        <ele>2238</ele>
        <time>2022-07-16T12:24:53Z</time>
      </trkpt>
      <trkpt lat="44.70888" lon="7.03698">
        <ele>2237</ele>
        <time>2022-07-16T12:25:01Z</time>
      </trkpt>
      <trkpt lat="44.70889" lon="7.03693">
        <ele>2236</ele>
        <time>2022-07-16T12:25:06Z</time>
      </trkpt>
      <trkpt lat="44.70891" lon="7.03679">
        <ele>2236</ele>
        <time>2022-07-16T12:25:18Z</time>
      </trkpt>
      <trkpt lat="44.7089" lon="7.03674">
        <ele>2235</ele>
        <time>2022-07-16T12:25:23Z</time>
      </trkpt>
      <trkpt lat="44.70887" lon="7.03676">
        <ele>2235</ele>
        <time>2022-07-16T12:25:27Z</time>
      </trkpt>
      <trkpt lat="44.70882" lon="7.03685">
        <ele>2233</ele>
        <time>2022-07-16T12:25:36Z</time>
      </trkpt>
      <trkpt lat="44.70879" lon="7.03688">
        <ele>2233</ele>
        <time>2022-07-16T12:25:40Z</time>
      </trkpt>
      <trkpt lat="44.70877" lon="7.03692">
        <ele>2232</ele>
        <time>2022-07-16T12:25:44Z</time>
      </trkpt>
      <trkpt lat="44.70875" lon="7.03697">
        <ele>2231</ele>
        <time>2022-07-16T12:25:48Z</time>
      </trkpt>
      <trkpt lat="44.70871" lon="7.03701">
        <ele>2231</ele>
        <time>2022-07-16T12:25:52Z</time>
      </trkpt>
      <trkpt lat="44.70868" lon="7.03699">
        <ele>2230</ele>
        <time>2022-07-16T12:25:58Z</time>
      </trkpt>
      <trkpt lat="44.70869" lon="7.03694">
        <ele>2230</ele>
        <time>2022-07-16T12:26:02Z</time>
      </trkpt>
      <trkpt lat="44.70869" lon="7.03689">
        <ele>2229</ele>
        <time>2022-07-16T12:26:06Z</time>
      </trkpt>
      <trkpt lat="44.70869" lon="7.03683">
        <ele>2229</ele>
        <time>2022-07-16T12:26:10Z</time>
      </trkpt>
      <trkpt lat="44.70869" lon="7.03678">
        <ele>2227</ele>
        <time>2022-07-16T12:26:14Z</time>
      </trkpt>
      <trkpt lat="44.7087" lon="7.03668">
        <ele>2226</ele>
        <time>2022-07-16T12:26:22Z</time>
      </trkpt>
      <trkpt lat="44.70872" lon="7.03663">
        <ele>2225</ele>
        <time>2022-07-16T12:26:26Z</time>
      </trkpt>
      <trkpt lat="44.70873" lon="7.03658">
        <ele>2224</ele>
        <time>2022-07-16T12:26:30Z</time>
      </trkpt>
      <trkpt lat="44.70872" lon="7.03653">
        <ele>2223</ele>
        <time>2022-07-16T12:26:34Z</time>
      </trkpt>
      <trkpt lat="44.70873" lon="7.03648">
        <ele>2222</ele>
        <time>2022-07-16T12:26:39Z</time>
      </trkpt>
      <trkpt lat="44.70877" lon="7.03644">
        <ele>2222</ele>
        <time>2022-07-16T12:26:44Z</time>
      </trkpt>
      <trkpt lat="44.70875" lon="7.03634">
        <ele>2221</ele>
        <time>2022-07-16T12:26:52Z</time>
      </trkpt>
      <trkpt lat="44.70876" lon="7.03624">
        <ele>2219</ele>
        <time>2022-07-16T12:27:02Z</time>
      </trkpt>
      <trkpt lat="44.70878" lon="7.03613">
        <ele>2216</ele>
        <time>2022-07-16T12:27:11Z</time>
      </trkpt>
      <trkpt lat="44.70882" lon="7.03584">
        <ele>2213</ele>
        <time>2022-07-16T12:27:35Z</time>
      </trkpt>
      <trkpt lat="44.70881" lon="7.03578">
        <ele>2212</ele>
        <time>2022-07-16T12:27:39Z</time>
      </trkpt>
      <trkpt lat="44.70876" lon="7.03544">
        <ele>2209</ele>
        <time>2022-07-16T12:28:03Z</time>
      </trkpt>
      <trkpt lat="44.70874" lon="7.03528">
        <ele>2206</ele>
        <time>2022-07-16T12:28:15Z</time>
      </trkpt>
      <trkpt lat="44.70876" lon="7.03518">
        <ele>2205</ele>
        <time>2022-07-16T12:28:23Z</time>
      </trkpt>
      <trkpt lat="44.70878" lon="7.03513">
        <ele>2204</ele>
        <time>2022-07-16T12:28:27Z</time>
      </trkpt>
      <trkpt lat="44.70885" lon="7.035">
        <ele>2202</ele>
        <time>2022-07-16T12:28:39Z</time>
      </trkpt>
      <trkpt lat="44.70888" lon="7.03496">
        <ele>2201</ele>
        <time>2022-07-16T12:28:43Z</time>
      </trkpt>
      <trkpt lat="44.70891" lon="7.03491">
        <ele>2200</ele>
        <time>2022-07-16T12:28:48Z</time>
      </trkpt>
      <trkpt lat="44.70893" lon="7.03487">
        <ele>2199</ele>
        <time>2022-07-16T12:28:52Z</time>
      </trkpt>
      <trkpt lat="44.70896" lon="7.03482">
        <ele>2199</ele>
        <time>2022-07-16T12:28:57Z</time>
      </trkpt>
      <trkpt lat="44.70902" lon="7.03456">
        <ele>2196</ele>
        <time>2022-07-16T12:29:17Z</time>
      </trkpt>
      <trkpt lat="44.70905" lon="7.03412">
        <ele>2196</ele>
        <time>2022-07-16T12:29:49Z</time>
      </trkpt>
      <trkpt lat="44.70904" lon="7.03397">
        <ele>2196</ele>
        <time>2022-07-16T12:30:01Z</time>
      </trkpt>
      <trkpt lat="44.70904" lon="7.03391">
        <ele>2196</ele>
        <time>2022-07-16T12:30:05Z</time>
      </trkpt>
      <trkpt lat="44.709" lon="7.03349">
        <ele>2193</ele>
        <time>2022-07-16T12:30:37Z</time>
      </trkpt>
      <trkpt lat="44.70899" lon="7.03339">
        <ele>2191</ele>
        <time>2022-07-16T12:30:46Z</time>
      </trkpt>
      <trkpt lat="44.70899" lon="7.03334">
        <ele>2191</ele>
        <time>2022-07-16T12:30:51Z</time>
      </trkpt>
      <trkpt lat="44.70897" lon="7.0333">
        <ele>2190</ele>
        <time>2022-07-16T12:30:56Z</time>
      </trkpt>
      <trkpt lat="44.70896" lon="7.03325">
        <ele>2189</ele>
        <time>2022-07-16T12:31:01Z</time>
      </trkpt>
      <trkpt lat="44.70895" lon="7.0332">
        <ele>2188</ele>
        <time>2022-07-16T12:31:07Z</time>
      </trkpt>
      <trkpt lat="44.70894" lon="7.03315">
        <ele>2186</ele>
        <time>2022-07-16T12:31:14Z</time>
      </trkpt>
      <trkpt lat="44.70893" lon="7.0331">
        <ele>2183</ele>
        <time>2022-07-16T12:31:21Z</time>
      </trkpt>
      <trkpt lat="44.70894" lon="7.03305">
        <ele>2183</ele>
        <time>2022-07-16T12:31:26Z</time>
      </trkpt>
      <trkpt lat="44.70895" lon="7.03301">
        <ele>2182</ele>
        <time>2022-07-16T12:31:31Z</time>
      </trkpt>
      <trkpt lat="44.70896" lon="7.03296">
        <ele>2181</ele>
        <time>2022-07-16T12:31:36Z</time>
      </trkpt>
      <trkpt lat="44.70889" lon="7.03299">
        <ele>2181</ele>
        <time>2022-07-16T12:31:47Z</time>
      </trkpt>
      <trkpt lat="44.70887" lon="7.03294">
        <ele>2179</ele>
        <time>2022-07-16T12:31:54Z</time>
      </trkpt>
      <trkpt lat="44.70888" lon="7.0329">
        <ele>2179</ele>
        <time>2022-07-16T12:31:58Z</time>
      </trkpt>
      <trkpt lat="44.7089" lon="7.03285">
        <ele>2178</ele>
        <time>2022-07-16T12:32:03Z</time>
      </trkpt>
      <trkpt lat="44.70895" lon="7.03279">
        <ele>2178</ele>
        <time>2022-07-16T12:33:12Z</time>
      </trkpt>
      <trkpt lat="44.70897" lon="7.03275">
        <ele>2178</ele>
        <time>2022-07-16T12:33:16Z</time>
      </trkpt>
      <trkpt lat="44.70901" lon="7.03261">
        <ele>2176</ele>
        <time>2022-07-16T12:33:29Z</time>
      </trkpt>
      <trkpt lat="44.70908" lon="7.03249">
        <ele>2174</ele>
        <time>2022-07-16T12:33:41Z</time>
      </trkpt>
      <trkpt lat="44.7091" lon="7.03245">
        <ele>2173</ele>
        <time>2022-07-16T12:33:47Z</time>
      </trkpt>
      <trkpt lat="44.70915" lon="7.03236">
        <ele>2172</ele>
        <time>2022-07-16T12:34:03Z</time>
      </trkpt>
      <trkpt lat="44.70913" lon="7.03231">
        <ele>2171</ele>
        <time>2022-07-16T12:34:08Z</time>
      </trkpt>
      <trkpt lat="44.70909" lon="7.0323">
        <ele>2169</ele>
        <time>2022-07-16T12:34:12Z</time>
      </trkpt>
      <trkpt lat="44.70905" lon="7.03232">
        <ele>2168</ele>
        <time>2022-07-16T12:34:16Z</time>
      </trkpt>
      <trkpt lat="44.70901" lon="7.03232">
        <ele>2168</ele>
        <time>2022-07-16T12:34:20Z</time>
      </trkpt>
      <trkpt lat="44.70894" lon="7.03233">
        <ele>2166</ele>
        <time>2022-07-16T12:34:29Z</time>
      </trkpt>
      <trkpt lat="44.70894" lon="7.03228">
        <ele>2165</ele>
        <time>2022-07-16T12:34:34Z</time>
      </trkpt>
      <trkpt lat="44.70898" lon="7.03218">
        <ele>2164</ele>
        <time>2022-07-16T12:34:44Z</time>
      </trkpt>
      <trkpt lat="44.70903" lon="7.03203">
        <ele>2161</ele>
        <time>2022-07-16T12:34:59Z</time>
      </trkpt>
      <trkpt lat="44.70905" lon="7.03198">
        <ele>2160</ele>
        <time>2022-07-16T12:35:03Z</time>
      </trkpt>
      <trkpt lat="44.70907" lon="7.03194">
        <ele>2159</ele>
        <time>2022-07-16T12:35:07Z</time>
      </trkpt>
      <trkpt lat="44.7091" lon="7.0319">
        <ele>2159</ele>
        <time>2022-07-16T12:35:12Z</time>
      </trkpt>
      <trkpt lat="44.70917" lon="7.03178">
        <ele>2157</ele>
        <time>2022-07-16T12:35:27Z</time>
      </trkpt>
      <trkpt lat="44.70919" lon="7.03169">
        <ele>2155</ele>
        <time>2022-07-16T12:35:37Z</time>
      </trkpt>
      <trkpt lat="44.70918" lon="7.03163">
        <ele>2155</ele>
        <time>2022-07-16T12:35:42Z</time>
      </trkpt>
      <trkpt lat="44.70919" lon="7.03158">
        <ele>2153</ele>
        <time>2022-07-16T12:35:47Z</time>
      </trkpt>
      <trkpt lat="44.70918" lon="7.03148">
        <ele>2151</ele>
        <time>2022-07-16T12:35:57Z</time>
      </trkpt>
      <trkpt lat="44.70916" lon="7.03144">
        <ele>2149</ele>
        <time>2022-07-16T12:36:02Z</time>
      </trkpt>
      <trkpt lat="44.70901" lon="7.03144">
        <ele>2149</ele>
        <time>2022-07-16T12:36:25Z</time>
      </trkpt>
      <trkpt lat="44.70897" lon="7.03146">
        <ele>2148</ele>
        <time>2022-07-16T12:36:30Z</time>
      </trkpt>
      <trkpt lat="44.70893" lon="7.03147">
        <ele>2148</ele>
        <time>2022-07-16T12:36:35Z</time>
      </trkpt>
      <trkpt lat="44.7089" lon="7.03148">
        <ele>2145</ele>
        <time>2022-07-16T12:39:21Z</time>
      </trkpt>
      <trkpt lat="44.70887" lon="7.03144">
        <ele>2145</ele>
        <time>2022-07-16T12:39:30Z</time>
      </trkpt>
      <trkpt lat="44.70885" lon="7.03139">
        <ele>2143</ele>
        <time>2022-07-16T12:39:34Z</time>
      </trkpt>
      <trkpt lat="44.70886" lon="7.03134">
        <ele>2142</ele>
        <time>2022-07-16T12:39:38Z</time>
      </trkpt>
      <trkpt lat="44.70886" lon="7.03128">
        <ele>2141</ele>
        <time>2022-07-16T12:39:42Z</time>
      </trkpt>
      <trkpt lat="44.70886" lon="7.03118">
        <ele>2140</ele>
        <time>2022-07-16T12:39:50Z</time>
      </trkpt>
      <trkpt lat="44.70888" lon="7.03108">
        <ele>2139</ele>
        <time>2022-07-16T12:39:58Z</time>
      </trkpt>
      <trkpt lat="44.70887" lon="7.03102">
        <ele>2138</ele>
        <time>2022-07-16T12:40:03Z</time>
      </trkpt>
      <trkpt lat="44.70883" lon="7.03101">
        <ele>2137</ele>
        <time>2022-07-16T12:40:08Z</time>
      </trkpt>
      <trkpt lat="44.70882" lon="7.03096">
        <ele>2135</ele>
        <time>2022-07-16T12:40:13Z</time>
      </trkpt>
      <trkpt lat="44.70883" lon="7.0309">
        <ele>2134</ele>
        <time>2022-07-16T12:40:17Z</time>
      </trkpt>
      <trkpt lat="44.70882" lon="7.03085">
        <ele>2132</ele>
        <time>2022-07-16T12:40:22Z</time>
      </trkpt>
      <trkpt lat="44.70879" lon="7.03081">
        <ele>2130</ele>
        <time>2022-07-16T12:40:26Z</time>
      </trkpt>
      <trkpt lat="44.70878" lon="7.03076">
        <ele>2127</ele>
        <time>2022-07-16T12:40:30Z</time>
      </trkpt>
      <trkpt lat="44.70879" lon="7.0307">
        <ele>2126</ele>
        <time>2022-07-16T12:40:36Z</time>
      </trkpt>
      <trkpt lat="44.70879" lon="7.0306">
        <ele>2124</ele>
        <time>2022-07-16T12:40:49Z</time>
      </trkpt>
      <trkpt lat="44.70878" lon="7.03054">
        <ele>2125</ele>
        <time>2022-07-16T12:40:55Z</time>
      </trkpt>
      <trkpt lat="44.7088" lon="7.03049">
        <ele>2125</ele>
        <time>2022-07-16T12:41:01Z</time>
      </trkpt>
      <trkpt lat="44.70882" lon="7.03039">
        <ele>2122</ele>
        <time>2022-07-16T12:41:13Z</time>
      </trkpt>
      <trkpt lat="44.7088" lon="7.03034">
        <ele>2121</ele>
        <time>2022-07-16T12:41:18Z</time>
      </trkpt>
      <trkpt lat="44.70881" lon="7.03029">
        <ele>2120</ele>
        <time>2022-07-16T12:41:23Z</time>
      </trkpt>
      <trkpt lat="44.70882" lon="7.03018">
        <ele>2118</ele>
        <time>2022-07-16T12:41:33Z</time>
      </trkpt>
      <trkpt lat="44.70884" lon="7.03013">
        <ele>2115</ele>
        <time>2022-07-16T12:41:38Z</time>
      </trkpt>
      <trkpt lat="44.70886" lon="7.03003">
        <ele>2114</ele>
        <time>2022-07-16T12:41:47Z</time>
      </trkpt>
      <trkpt lat="44.70888" lon="7.02988">
        <ele>2111</ele>
        <time>2022-07-16T12:42:00Z</time>
      </trkpt>
      <trkpt lat="44.70892" lon="7.02978">
        <ele>2108</ele>
        <time>2022-07-16T12:42:09Z</time>
      </trkpt>
      <trkpt lat="44.70894" lon="7.02974">
        <ele>2108</ele>
        <time>2022-07-16T12:42:13Z</time>
      </trkpt>
      <trkpt lat="44.70896" lon="7.0297">
        <ele>2108</ele>
        <time>2022-07-16T12:42:17Z</time>
      </trkpt>
      <trkpt lat="44.70899" lon="7.02959">
        <ele>2106</ele>
        <time>2022-07-16T12:42:25Z</time>
      </trkpt>
      <trkpt lat="44.709" lon="7.02954">
        <ele>2105</ele>
        <time>2022-07-16T12:42:29Z</time>
      </trkpt>
      <trkpt lat="44.70901" lon="7.02949">
        <ele>2103</ele>
        <time>2022-07-16T12:42:33Z</time>
      </trkpt>
      <trkpt lat="44.70902" lon="7.02943">
        <ele>2102</ele>
        <time>2022-07-16T12:42:37Z</time>
      </trkpt>
      <trkpt lat="44.70903" lon="7.02937">
        <ele>2101</ele>
        <time>2022-07-16T12:42:41Z</time>
      </trkpt>
      <trkpt lat="44.70905" lon="7.02933">
        <ele>2102</ele>
        <time>2022-07-16T12:42:45Z</time>
      </trkpt>
      <trkpt lat="44.70905" lon="7.02928">
        <ele>2101</ele>
        <time>2022-07-16T12:42:50Z</time>
      </trkpt>
      <trkpt lat="44.7091" lon="7.02914">
        <ele>2101</ele>
        <time>2022-07-16T12:43:05Z</time>
      </trkpt>
      <trkpt lat="44.70909" lon="7.02909">
        <ele>2101</ele>
        <time>2022-07-16T12:43:10Z</time>
      </trkpt>
      <trkpt lat="44.70908" lon="7.02904">
        <ele>2100</ele>
        <time>2022-07-16T12:43:17Z</time>
      </trkpt>
      <trkpt lat="44.70909" lon="7.02899">
        <ele>2100</ele>
        <time>2022-07-16T12:43:22Z</time>
      </trkpt>
      <trkpt lat="44.70909" lon="7.02894">
        <ele>2097</ele>
        <time>2022-07-16T12:43:28Z</time>
      </trkpt>
      <trkpt lat="44.70912" lon="7.02892">
        <ele>2096</ele>
        <time>2022-07-16T12:43:32Z</time>
      </trkpt>
      <trkpt lat="44.70909" lon="7.02893">
        <ele>2095</ele>
        <time>2022-07-16T12:43:44Z</time>
      </trkpt>
      <trkpt lat="44.70907" lon="7.02891">
        <ele>2091</ele>
        <time>2022-07-16T12:43:57Z</time>
      </trkpt>
      <trkpt lat="44.7091" lon="7.02887">
        <ele>2091</ele>
        <time>2022-07-16T12:44:02Z</time>
      </trkpt>
      <trkpt lat="44.70912" lon="7.02883">
        <ele>2088</ele>
        <time>2022-07-16T12:44:07Z</time>
      </trkpt>
      <trkpt lat="44.70913" lon="7.02878">
        <ele>2087</ele>
        <time>2022-07-16T12:44:11Z</time>
      </trkpt>
      <trkpt lat="44.70913" lon="7.02872">
        <ele>2087</ele>
        <time>2022-07-16T12:44:13Z</time>
      </trkpt>
      <trkpt lat="44.70908" lon="7.02873">
        <ele>2087</ele>
        <time>2022-07-16T12:44:15Z</time>
      </trkpt>
      <trkpt lat="44.70905" lon="7.02875">
        <ele>2085</ele>
        <time>2022-07-16T12:44:18Z</time>
      </trkpt>
      <trkpt lat="44.70906" lon="7.02869">
        <ele>2086</ele>
        <time>2022-07-16T12:44:23Z</time>
      </trkpt>
      <trkpt lat="44.7091" lon="7.02868">
        <ele>2085</ele>
        <time>2022-07-16T12:44:28Z</time>
      </trkpt>
      <trkpt lat="44.70914" lon="7.02865">
        <ele>2086</ele>
        <time>2022-07-16T12:44:33Z</time>
      </trkpt>
      <trkpt lat="44.70917" lon="7.02862">
        <ele>2088</ele>
        <time>2022-07-16T12:44:38Z</time>
      </trkpt>
      <trkpt lat="44.7092" lon="7.02859">
        <ele>2090</ele>
        <time>2022-07-16T12:44:44Z</time>
      </trkpt>
      <trkpt lat="44.7092" lon="7.02854">
        <ele>2089</ele>
        <time>2022-07-16T12:44:49Z</time>
      </trkpt>
      <trkpt lat="44.70917" lon="7.02856">
        <ele>2087</ele>
        <time>2022-07-16T12:44:53Z</time>
      </trkpt>
      <trkpt lat="44.70914" lon="7.02853">
        <ele>2083</ele>
        <time>2022-07-16T12:44:57Z</time>
      </trkpt>
      <trkpt lat="44.7092" lon="7.02846">
        <ele>2078</ele>
        <time>2022-07-16T12:45:06Z</time>
      </trkpt>
      <trkpt lat="44.70921" lon="7.02841">
        <ele>2078</ele>
        <time>2022-07-16T12:45:11Z</time>
      </trkpt>
      <trkpt lat="44.70923" lon="7.02837">
        <ele>2076</ele>
        <time>2022-07-16T12:45:15Z</time>
      </trkpt>
      <trkpt lat="44.7093" lon="7.02818">
        <ele>2067</ele>
        <time>2022-07-16T12:45:32Z</time>
      </trkpt>
      <trkpt lat="44.70938" lon="7.02805">
        <ele>2064</ele>
        <time>2022-07-16T12:45:43Z</time>
      </trkpt>
      <trkpt lat="44.70941" lon="7.02802">
        <ele>2065</ele>
        <time>2022-07-16T12:45:47Z</time>
      </trkpt>
      <trkpt lat="44.70945" lon="7.02803">
        <ele>2066</ele>
        <time>2022-07-16T12:45:51Z</time>
      </trkpt>
      <trkpt lat="44.70957" lon="7.02789">
        <ele>2066</ele>
        <time>2022-07-16T12:46:07Z</time>
      </trkpt>
      <trkpt lat="44.7096" lon="7.02786">
        <ele>2065</ele>
        <time>2022-07-16T12:46:11Z</time>
      </trkpt>
      <trkpt lat="44.70962" lon="7.02783">
        <ele>2065</ele>
        <time>2022-07-16T12:46:15Z</time>
      </trkpt>
      <trkpt lat="44.70965" lon="7.02778">
        <ele>2063</ele>
        <time>2022-07-16T12:46:19Z</time>
      </trkpt>
      <trkpt lat="44.70967" lon="7.02773">
        <ele>2063</ele>
        <time>2022-07-16T12:46:23Z</time>
      </trkpt>
      <trkpt lat="44.7097" lon="7.02763">
        <ele>2062</ele>
        <time>2022-07-16T12:46:31Z</time>
      </trkpt>
      <trkpt lat="44.70972" lon="7.02758">
        <ele>2061</ele>
        <time>2022-07-16T12:46:35Z</time>
      </trkpt>
      <trkpt lat="44.70975" lon="7.02753">
        <ele>2061</ele>
        <time>2022-07-16T12:46:39Z</time>
      </trkpt>
      <trkpt lat="44.70979" lon="7.02742">
        <ele>2056</ele>
        <time>2022-07-16T12:46:47Z</time>
      </trkpt>
      <trkpt lat="44.70985" lon="7.02734">
        <ele>2056</ele>
        <time>2022-07-16T12:46:55Z</time>
      </trkpt>
      <trkpt lat="44.70989" lon="7.02732">
        <ele>2056</ele>
        <time>2022-07-16T12:46:59Z</time>
      </trkpt>
      <trkpt lat="44.70998" lon="7.02721">
        <ele>2055</ele>
        <time>2022-07-16T12:47:10Z</time>
      </trkpt>
      <trkpt lat="44.71" lon="7.02715">
        <ele>2054</ele>
        <time>2022-07-16T12:47:14Z</time>
      </trkpt>
      <trkpt lat="44.71002" lon="7.02712">
        <ele>2054</ele>
        <time>2022-07-16T12:47:17Z</time>
      </trkpt>
      <trkpt lat="44.71006" lon="7.0271">
        <ele>2055</ele>
        <time>2022-07-16T12:47:21Z</time>
      </trkpt>
      <trkpt lat="44.71012" lon="7.02702">
        <ele>2059</ele>
        <time>2022-07-16T12:47:28Z</time>
      </trkpt>
      <trkpt lat="44.71015" lon="7.02698">
        <ele>2060</ele>
        <time>2022-07-16T12:47:32Z</time>
      </trkpt>
      <trkpt lat="44.71017" lon="7.02694">
        <ele>2060</ele>
        <time>2022-07-16T12:47:36Z</time>
      </trkpt>
      <trkpt lat="44.71018" lon="7.0269">
        <ele>2060</ele>
        <time>2022-07-16T12:47:40Z</time>
      </trkpt>
      <trkpt lat="44.7102" lon="7.02685">
        <ele>2060</ele>
        <time>2022-07-16T12:47:44Z</time>
      </trkpt>
      <trkpt lat="44.71023" lon="7.02679">
        <ele>2061</ele>
        <time>2022-07-16T12:47:48Z</time>
      </trkpt>
      <trkpt lat="44.71026" lon="7.02677">
        <ele>2062</ele>
        <time>2022-07-16T12:47:51Z</time>
      </trkpt>
      <trkpt lat="44.71029" lon="7.02673">
        <ele>2062</ele>
        <time>2022-07-16T12:47:55Z</time>
      </trkpt>
      <trkpt lat="44.71032" lon="7.02669">
        <ele>2064</ele>
        <time>2022-07-16T12:47:59Z</time>
      </trkpt>
      <trkpt lat="44.71032" lon="7.02665">
        <ele>2064</ele>
        <time>2022-07-16T12:48:02Z</time>
      </trkpt>
      <trkpt lat="44.71036" lon="7.02654">
        <ele>2063</ele>
        <time>2022-07-16T12:48:08Z</time>
      </trkpt>
      <trkpt lat="44.71039" lon="7.0265">
        <ele>2063</ele>
        <time>2022-07-16T12:48:11Z</time>
      </trkpt>
      <trkpt lat="44.71041" lon="7.02645">
        <ele>2061</ele>
        <time>2022-07-16T12:48:15Z</time>
      </trkpt>
      <trkpt lat="44.71042" lon="7.02641">
        <ele>2060</ele>
        <time>2022-07-16T12:48:19Z</time>
      </trkpt>
      <trkpt lat="44.71048" lon="7.02633">
        <ele>2057</ele>
        <time>2022-07-16T12:48:27Z</time>
      </trkpt>
      <trkpt lat="44.71051" lon="7.0263">
        <ele>2056</ele>
        <time>2022-07-16T12:48:31Z</time>
      </trkpt>
      <trkpt lat="44.71054" lon="7.02626">
        <ele>2056</ele>
        <time>2022-07-16T12:48:35Z</time>
      </trkpt>
      <trkpt lat="44.71053" lon="7.02621">
        <ele>2057</ele>
        <time>2022-07-16T12:48:40Z</time>
      </trkpt>
      <trkpt lat="44.71057" lon="7.02618">
        <ele>2058</ele>
        <time>2022-07-16T12:48:43Z</time>
      </trkpt>
      <trkpt lat="44.71067" lon="7.0261">
        <ele>2057</ele>
        <time>2022-07-16T12:48:55Z</time>
      </trkpt>
      <trkpt lat="44.71071" lon="7.02609">
        <ele>2056</ele>
        <time>2022-07-16T12:48:59Z</time>
      </trkpt>
      <trkpt lat="44.71074" lon="7.02607">
        <ele>2055</ele>
        <time>2022-07-16T12:49:03Z</time>
      </trkpt>
      <trkpt lat="44.71077" lon="7.02604">
        <ele>2054</ele>
        <time>2022-07-16T12:49:07Z</time>
      </trkpt>
      <trkpt lat="44.71081" lon="7.02605">
        <ele>2053</ele>
        <time>2022-07-16T12:49:11Z</time>
      </trkpt>
      <trkpt lat="44.71085" lon="7.02603">
        <ele>2052</ele>
        <time>2022-07-16T12:49:15Z</time>
      </trkpt>
      <trkpt lat="44.71089" lon="7.02604">
        <ele>2051</ele>
        <time>2022-07-16T12:49:19Z</time>
      </trkpt>
      <trkpt lat="44.71093" lon="7.02602">
        <ele>2052</ele>
        <time>2022-07-16T12:49:24Z</time>
      </trkpt>
      <trkpt lat="44.71097" lon="7.026">
        <ele>2051</ele>
        <time>2022-07-16T12:49:30Z</time>
      </trkpt>
      <trkpt lat="44.71096" lon="7.02595">
        <ele>2051</ele>
        <time>2022-07-16T12:49:35Z</time>
      </trkpt>
      <trkpt lat="44.71098" lon="7.0259">
        <ele>2050</ele>
        <time>2022-07-16T12:49:39Z</time>
      </trkpt>
      <trkpt lat="44.71106" lon="7.02578">
        <ele>2046</ele>
        <time>2022-07-16T12:50:02Z</time>
      </trkpt>
      <trkpt lat="44.71102" lon="7.02578">
        <ele>2042</ele>
        <time>2022-07-16T12:50:09Z</time>
      </trkpt>
      <trkpt lat="44.71098" lon="7.02579">
        <ele>2041</ele>
        <time>2022-07-16T12:50:14Z</time>
      </trkpt>
      <trkpt lat="44.71095" lon="7.02581">
        <ele>2041</ele>
        <time>2022-07-16T12:50:18Z</time>
      </trkpt>
      <trkpt lat="44.71092" lon="7.02577">
        <ele>2040</ele>
        <time>2022-07-16T12:50:22Z</time>
      </trkpt>
      <trkpt lat="44.71089" lon="7.02575">
        <ele>2039</ele>
        <time>2022-07-16T12:50:26Z</time>
      </trkpt>
      <trkpt lat="44.71081" lon="7.02575">
        <ele>2036</ele>
        <time>2022-07-16T12:50:36Z</time>
      </trkpt>
      <trkpt lat="44.71083" lon="7.02579">
        <ele>2033</ele>
        <time>2022-07-16T12:50:47Z</time>
      </trkpt>
      <trkpt lat="44.71085" lon="7.02574">
        <ele>2034</ele>
        <time>2022-07-16T13:00:50Z</time>
      </trkpt>
      <trkpt lat="44.71089" lon="7.02573">
        <ele>2035</ele>
        <time>2022-07-16T13:00:55Z</time>
      </trkpt>
      <trkpt lat="44.71092" lon="7.02573">
        <ele>2035</ele>
        <time>2022-07-16T13:00:59Z</time>
      </trkpt>
      <trkpt lat="44.71098" lon="7.0258">
        <ele>2038</ele>
        <time>2022-07-16T13:01:11Z</time>
      </trkpt>
      <trkpt lat="44.71102" lon="7.02581">
        <ele>2038</ele>
        <time>2022-07-16T13:01:17Z</time>
      </trkpt>
      <trkpt lat="44.71105" lon="7.0258">
        <ele>2039</ele>
        <time>2022-07-16T13:01:23Z</time>
      </trkpt>
      <trkpt lat="44.71112" lon="7.02574">
        <ele>2037</ele>
        <time>2022-07-16T13:01:33Z</time>
      </trkpt>
      <trkpt lat="44.71116" lon="7.02573">
        <ele>2037</ele>
        <time>2022-07-16T13:01:37Z</time>
      </trkpt>
      <trkpt lat="44.71123" lon="7.02568">
        <ele>2037</ele>
        <time>2022-07-16T13:01:45Z</time>
      </trkpt>
      <trkpt lat="44.71125" lon="7.02564">
        <ele>2036</ele>
        <time>2022-07-16T13:01:49Z</time>
      </trkpt>
      <trkpt lat="44.71127" lon="7.02559">
        <ele>2037</ele>
        <time>2022-07-16T13:02:00Z</time>
      </trkpt>
      <trkpt lat="44.71133" lon="7.02552">
        <ele>2037</ele>
        <time>2022-07-16T13:02:09Z</time>
      </trkpt>
      <trkpt lat="44.71135" lon="7.02548">
        <ele>2036</ele>
        <time>2022-07-16T13:02:13Z</time>
      </trkpt>
      <trkpt lat="44.71145" lon="7.02542">
        <ele>2034</ele>
        <time>2022-07-16T13:02:25Z</time>
      </trkpt>
      <trkpt lat="44.71154" lon="7.0253">
        <ele>2030</ele>
        <time>2022-07-16T13:02:37Z</time>
      </trkpt>
      <trkpt lat="44.71161" lon="7.02523">
        <ele>2028</ele>
        <time>2022-07-16T13:02:45Z</time>
      </trkpt>
      <trkpt lat="44.71167" lon="7.02515">
        <ele>2027</ele>
        <time>2022-07-16T13:02:53Z</time>
      </trkpt>
      <trkpt lat="44.7117" lon="7.02512">
        <ele>2027</ele>
        <time>2022-07-16T13:02:57Z</time>
      </trkpt>
      <trkpt lat="44.71171" lon="7.02506">
        <ele>2027</ele>
        <time>2022-07-16T13:03:01Z</time>
      </trkpt>
      <trkpt lat="44.71174" lon="7.02504">
        <ele>2027</ele>
        <time>2022-07-16T13:03:05Z</time>
      </trkpt>
      <trkpt lat="44.71181" lon="7.02491">
        <ele>2027</ele>
        <time>2022-07-16T13:03:17Z</time>
      </trkpt>
      <trkpt lat="44.71182" lon="7.02485">
        <ele>2027</ele>
        <time>2022-07-16T13:03:21Z</time>
      </trkpt>
      <trkpt lat="44.71187" lon="7.02469">
        <ele>2027</ele>
        <time>2022-07-16T13:03:33Z</time>
      </trkpt>
      <trkpt lat="44.71189" lon="7.02459">
        <ele>2026</ele>
        <time>2022-07-16T13:03:41Z</time>
      </trkpt>
      <trkpt lat="44.71191" lon="7.02455">
        <ele>2026</ele>
        <time>2022-07-16T13:03:45Z</time>
      </trkpt>
      <trkpt lat="44.71193" lon="7.0245">
        <ele>2026</ele>
        <time>2022-07-16T13:03:50Z</time>
      </trkpt>
      <trkpt lat="44.71205" lon="7.02408">
        <ele>2025</ele>
        <time>2022-07-16T13:04:20Z</time>
      </trkpt>
      <trkpt lat="44.71223" lon="7.02368">
        <ele>2023</ele>
        <time>2022-07-16T13:04:51Z</time>
      </trkpt>
      <trkpt lat="44.71243" lon="7.02329">
        <ele>2022</ele>
        <time>2022-07-16T13:05:23Z</time>
      </trkpt>
      <trkpt lat="44.71246" lon="7.02324">
        <ele>2023</ele>
        <time>2022-07-16T13:05:27Z</time>
      </trkpt>
      <trkpt lat="44.71264" lon="7.02285">
        <ele>2021</ele>
        <time>2022-07-16T13:05:58Z</time>
      </trkpt>
      <trkpt lat="44.71281" lon="7.02244">
        <ele>2021</ele>
        <time>2022-07-16T13:06:29Z</time>
      </trkpt>
      <trkpt lat="44.71284" lon="7.02234">
        <ele>2021</ele>
        <time>2022-07-16T13:06:36Z</time>
      </trkpt>
      <trkpt lat="44.71289" lon="7.02225">
        <ele>2021</ele>
        <time>2022-07-16T13:06:44Z</time>
      </trkpt>
      <trkpt lat="44.71295" lon="7.02216">
        <ele>2022</ele>
        <time>2022-07-16T13:06:52Z</time>
      </trkpt>
      <trkpt lat="44.71307" lon="7.02208">
        <ele>2022</ele>
        <time>2022-07-16T13:07:04Z</time>
      </trkpt>
      <trkpt lat="44.71329" lon="7.02204">
        <ele>2022</ele>
        <time>2022-07-16T13:07:24Z</time>
      </trkpt>
      <trkpt lat="44.71346" lon="7.02205">
        <ele>2022</ele>
        <time>2022-07-16T13:07:39Z</time>
      </trkpt>
      <trkpt lat="44.71379" lon="7.02197">
        <ele>2021</ele>
        <time>2022-07-16T13:08:10Z</time>
      </trkpt>
      <trkpt lat="44.71392" lon="7.02192">
        <ele>2020</ele>
        <time>2022-07-16T13:08:22Z</time>
      </trkpt>
      <trkpt lat="44.71396" lon="7.02191">
        <ele>2019</ele>
        <time>2022-07-16T13:08:26Z</time>
      </trkpt>
      <trkpt lat="44.7142" lon="7.02181">
        <ele>2016</ele>
        <time>2022-07-16T13:08:49Z</time>
      </trkpt>
      <trkpt lat="44.71451" lon="7.02157">
        <ele>2015</ele>
        <time>2022-07-16T13:09:20Z</time>
      </trkpt>
      <trkpt lat="44.71454" lon="7.02154">
        <ele>2015</ele>
        <time>2022-07-16T13:09:23Z</time>
      </trkpt>
      <trkpt lat="44.71469" lon="7.02135">
        <ele>2014</ele>
        <time>2022-07-16T13:09:41Z</time>
      </trkpt>
      <trkpt lat="44.71473" lon="7.02131">
        <ele>2014</ele>
        <time>2022-07-16T13:09:45Z</time>
      </trkpt>
      <trkpt lat="44.71491" lon="7.02104">
        <ele>2014</ele>
        <time>2022-07-16T13:10:08Z</time>
      </trkpt>
      <trkpt lat="44.71501" lon="7.02095">
        <ele>2013</ele>
        <time>2022-07-16T13:10:19Z</time>
      </trkpt>
      <trkpt lat="44.71534" lon="7.02078">
        <ele>2015</ele>
        <time>2022-07-16T13:10:52Z</time>
      </trkpt>
      <trkpt lat="44.71563" lon="7.0206">
        <ele>2016</ele>
        <time>2022-07-16T13:11:20Z</time>
      </trkpt>
      <trkpt lat="44.71567" lon="7.02057">
        <ele>2016</ele>
        <time>2022-07-16T13:11:24Z</time>
      </trkpt>
      <trkpt lat="44.71573" lon="7.02051">
        <ele>2016</ele>
        <time>2022-07-16T13:11:31Z</time>
      </trkpt>
      <trkpt lat="44.71579" lon="7.02044">
        <ele>2016</ele>
        <time>2022-07-16T13:11:39Z</time>
      </trkpt>
      <trkpt lat="44.71582" lon="7.0204">
        <ele>2015</ele>
        <time>2022-07-16T13:11:43Z</time>
      </trkpt>
      <trkpt lat="44.71586" lon="7.02031">
        <ele>2015</ele>
        <time>2022-07-16T13:11:50Z</time>
      </trkpt>
      <trkpt lat="44.716" lon="7.01988">
        <ele>2014</ele>
        <time>2022-07-16T13:12:21Z</time>
      </trkpt>
      <trkpt lat="44.71602" lon="7.01983">
        <ele>2013</ele>
        <time>2022-07-16T13:12:25Z</time>
      </trkpt>
      <trkpt lat="44.71611" lon="7.01975">
        <ele>2013</ele>
        <time>2022-07-16T13:12:34Z</time>
      </trkpt>
      <trkpt lat="44.71633" lon="7.01941">
        <ele>2016</ele>
        <time>2022-07-16T13:13:05Z</time>
      </trkpt>
      <trkpt lat="44.71652" lon="7.01904">
        <ele>2014</ele>
        <time>2022-07-16T13:13:35Z</time>
      </trkpt>
      <trkpt lat="44.71659" lon="7.0189">
        <ele>2014</ele>
        <time>2022-07-16T13:13:46Z</time>
      </trkpt>
      <trkpt lat="44.71663" lon="7.01881">
        <ele>2013</ele>
        <time>2022-07-16T13:13:53Z</time>
      </trkpt>
      <trkpt lat="44.71664" lon="7.01875">
        <ele>2013</ele>
        <time>2022-07-16T13:13:57Z</time>
      </trkpt>
      <trkpt lat="44.71677" lon="7.01848">
        <ele>2013</ele>
        <time>2022-07-16T13:14:19Z</time>
      </trkpt>
      <trkpt lat="44.7168" lon="7.01838">
        <ele>2013</ele>
        <time>2022-07-16T13:14:27Z</time>
      </trkpt>
      <trkpt lat="44.71681" lon="7.01832">
        <ele>2013</ele>
        <time>2022-07-16T13:14:31Z</time>
      </trkpt>
      <trkpt lat="44.71699" lon="7.01788">
        <ele>2014</ele>
        <time>2022-07-16T13:15:03Z</time>
      </trkpt>
      <trkpt lat="44.71711" lon="7.01768">
        <ele>2012</ele>
        <time>2022-07-16T13:15:22Z</time>
      </trkpt>
      <trkpt lat="44.71714" lon="7.01765">
        <ele>2012</ele>
        <time>2022-07-16T13:15:26Z</time>
      </trkpt>
      <trkpt lat="44.71721" lon="7.01759">
        <ele>2011</ele>
        <time>2022-07-16T13:15:34Z</time>
      </trkpt>
      <trkpt lat="44.71727" lon="7.0175">
        <ele>2011</ele>
        <time>2022-07-16T13:15:42Z</time>
      </trkpt>
      <trkpt lat="44.71751" lon="7.0172">
        <ele>2011</ele>
        <time>2022-07-16T13:16:12Z</time>
      </trkpt>
      <trkpt lat="44.7178" lon="7.01697">
        <ele>2009</ele>
        <time>2022-07-16T13:16:43Z</time>
      </trkpt>
      <trkpt lat="44.71791" lon="7.01686">
        <ele>2008</ele>
        <time>2022-07-16T13:16:55Z</time>
      </trkpt>
      <trkpt lat="44.71812" lon="7.01649">
        <ele>2005</ele>
        <time>2022-07-16T13:17:27Z</time>
      </trkpt>
      <trkpt lat="44.71815" lon="7.01644">
        <ele>2005</ele>
        <time>2022-07-16T13:17:31Z</time>
      </trkpt>
      <trkpt lat="44.71841" lon="7.0161">
        <ele>2000</ele>
        <time>2022-07-16T13:18:04Z</time>
      </trkpt>
      <trkpt lat="44.71868" lon="7.01586">
        <ele>1998</ele>
        <time>2022-07-16T13:18:34Z</time>
      </trkpt>
      <trkpt lat="44.71888" lon="7.01568">
        <ele>1996</ele>
        <time>2022-07-16T13:18:57Z</time>
      </trkpt>
      <trkpt lat="44.71907" lon="7.01536">
        <ele>1992</ele>
        <time>2022-07-16T13:19:25Z</time>
      </trkpt>
      <trkpt lat="44.71917" lon="7.01517">
        <ele>1990</ele>
        <time>2022-07-16T13:19:41Z</time>
      </trkpt>
      <trkpt lat="44.71926" lon="7.01505">
        <ele>1990</ele>
        <time>2022-07-16T13:19:53Z</time>
      </trkpt>
      <trkpt lat="44.71928" lon="7.015">
        <ele>1989</ele>
        <time>2022-07-16T13:19:57Z</time>
      </trkpt>
      <trkpt lat="44.71955" lon="7.01468">
        <ele>1988</ele>
        <time>2022-07-16T13:20:27Z</time>
      </trkpt>
      <trkpt lat="44.71962" lon="7.01462">
        <ele>1988</ele>
        <time>2022-07-16T13:20:34Z</time>
      </trkpt>
      <trkpt lat="44.71966" lon="7.0146">
        <ele>1988</ele>
        <time>2022-07-16T13:20:38Z</time>
      </trkpt>
      <trkpt lat="44.71986" lon="7.01451">
        <ele>1989</ele>
        <time>2022-07-16T13:21:10Z</time>
      </trkpt>
      <trkpt lat="44.72017" lon="7.01432">
        <ele>1989</ele>
        <time>2022-07-16T13:21:42Z</time>
      </trkpt>
      <trkpt lat="44.72041" lon="7.01418">
        <ele>1990</ele>
        <time>2022-07-16T13:22:06Z</time>
      </trkpt>
      <trkpt lat="44.72043" lon="7.01415">
        <ele>1991</ele>
        <time>2022-07-16T13:22:09Z</time>
      </trkpt>
      <trkpt lat="44.72071" lon="7.0139">
        <ele>1993</ele>
        <time>2022-07-16T13:22:41Z</time>
      </trkpt>
      <trkpt lat="44.72083" lon="7.01385">
        <ele>1994</ele>
        <time>2022-07-16T13:22:53Z</time>
      </trkpt>
      <trkpt lat="44.721" lon="7.01373">
        <ele>1993</ele>
        <time>2022-07-16T13:23:10Z</time>
      </trkpt>
      <trkpt lat="44.72124" lon="7.01361">
        <ele>1993</ele>
        <time>2022-07-16T13:23:34Z</time>
      </trkpt>
      <trkpt lat="44.72135" lon="7.01347">
        <ele>1992</ele>
        <time>2022-07-16T13:23:46Z</time>
      </trkpt>
      <trkpt lat="44.72154" lon="7.01324">
        <ele>1991</ele>
        <time>2022-07-16T13:24:09Z</time>
      </trkpt>
      <trkpt lat="44.72157" lon="7.01319">
        <ele>1990</ele>
        <time>2022-07-16T13:24:13Z</time>
      </trkpt>
      <trkpt lat="44.72167" lon="7.0131">
        <ele>1989</ele>
        <time>2022-07-16T13:24:25Z</time>
      </trkpt>
      <trkpt lat="44.72179" lon="7.01304">
        <ele>1990</ele>
        <time>2022-07-16T13:24:37Z</time>
      </trkpt>
      <trkpt lat="44.72183" lon="7.01302">
        <ele>1990</ele>
        <time>2022-07-16T13:24:41Z</time>
      </trkpt>
      <trkpt lat="44.72212" lon="7.01291">
        <ele>1989</ele>
        <time>2022-07-16T13:25:08Z</time>
      </trkpt>
      <trkpt lat="44.72238" lon="7.01265">
        <ele>1986</ele>
        <time>2022-07-16T13:25:38Z</time>
      </trkpt>
      <trkpt lat="44.72266" lon="7.01239">
        <ele>1983</ele>
        <time>2022-07-16T13:26:08Z</time>
      </trkpt>
      <trkpt lat="44.72275" lon="7.01228">
        <ele>1981</ele>
        <time>2022-07-16T13:26:20Z</time>
      </trkpt>
      <trkpt lat="44.72283" lon="7.01221">
        <ele>1981</ele>
        <time>2022-07-16T13:26:28Z</time>
      </trkpt>
      <trkpt lat="44.7231" lon="7.01193">
        <ele>1981</ele>
        <time>2022-07-16T13:26:59Z</time>
      </trkpt>
      <trkpt lat="44.72338" lon="7.01171">
        <ele>1980</ele>
        <time>2022-07-16T13:27:28Z</time>
      </trkpt>
      <trkpt lat="44.72344" lon="7.01167">
        <ele>1979</ele>
        <time>2022-07-16T13:27:35Z</time>
      </trkpt>
      <trkpt lat="44.72347" lon="7.01164">
        <ele>1980</ele>
        <time>2022-07-16T13:27:38Z</time>
      </trkpt>
      <trkpt lat="44.72351" lon="7.01161">
        <ele>1980</ele>
        <time>2022-07-16T13:27:42Z</time>
      </trkpt>
      <trkpt lat="44.72357" lon="7.01154">
        <ele>1978</ele>
        <time>2022-07-16T13:27:49Z</time>
      </trkpt>
      <trkpt lat="44.72369" lon="7.01111">
        <ele>1974</ele>
        <time>2022-07-16T13:28:21Z</time>
      </trkpt>
      <trkpt lat="44.72385" lon="7.01067">
        <ele>1974</ele>
        <time>2022-07-16T13:28:52Z</time>
      </trkpt>
      <trkpt lat="44.72387" lon="7.01063">
        <ele>1974</ele>
        <time>2022-07-16T13:28:55Z</time>
      </trkpt>
      <trkpt lat="44.72402" lon="7.01017">
        <ele>1974</ele>
        <time>2022-07-16T13:29:28Z</time>
      </trkpt>
      <trkpt lat="44.72419" lon="7.00975">
        <ele>1974</ele>
        <time>2022-07-16T13:29:59Z</time>
      </trkpt>
      <trkpt lat="44.72429" lon="7.0095">
        <ele>1974</ele>
        <time>2022-07-16T13:30:18Z</time>
      </trkpt>
      <trkpt lat="44.72445" lon="7.00912">
        <ele>1977</ele>
        <time>2022-07-16T13:30:48Z</time>
      </trkpt>
      <trkpt lat="44.72447" lon="7.00907">
        <ele>1977</ele>
        <time>2022-07-16T13:30:52Z</time>
      </trkpt>
      <trkpt lat="44.72455" lon="7.00895">
        <ele>1978</ele>
        <time>2022-07-16T13:31:02Z</time>
      </trkpt>
      <trkpt lat="44.72458" lon="7.00892">
        <ele>1978</ele>
        <time>2022-07-16T13:31:05Z</time>
      </trkpt>
      <trkpt lat="44.72471" lon="7.00875">
        <ele>1976</ele>
        <time>2022-07-16T13:31:20Z</time>
      </trkpt>
      <trkpt lat="44.72475" lon="7.00866">
        <ele>1975</ele>
        <time>2022-07-16T13:31:27Z</time>
      </trkpt>
      <trkpt lat="44.72476" lon="7.00861">
        <ele>1974</ele>
        <time>2022-07-16T13:31:31Z</time>
      </trkpt>
      <trkpt lat="44.72476" lon="7.0085">
        <ele>1972</ele>
        <time>2022-07-16T13:31:39Z</time>
      </trkpt>
      <trkpt lat="44.72478" lon="7.00844">
        <ele>1972</ele>
        <time>2022-07-16T13:31:43Z</time>
      </trkpt>
      <trkpt lat="44.72478" lon="7.00816">
        <ele>1972</ele>
        <time>2022-07-16T13:32:03Z</time>
      </trkpt>
      <trkpt lat="44.72481" lon="7.00795">
        <ele>1972</ele>
        <time>2022-07-16T13:32:18Z</time>
      </trkpt>
      <trkpt lat="44.72484" lon="7.0079">
        <ele>1973</ele>
        <time>2022-07-16T13:32:22Z</time>
      </trkpt>
      <trkpt lat="44.7249" lon="7.00783">
        <ele>1973</ele>
        <time>2022-07-16T13:32:30Z</time>
      </trkpt>
      <trkpt lat="44.72507" lon="7.00779">
        <ele>1973</ele>
        <time>2022-07-16T13:32:45Z</time>
      </trkpt>
      <trkpt lat="44.7251" lon="7.00777">
        <ele>1973</ele>
        <time>2022-07-16T13:32:48Z</time>
      </trkpt>
      <trkpt lat="44.72521" lon="7.00759">
        <ele>1971</ele>
        <time>2022-07-16T13:33:04Z</time>
      </trkpt>
      <trkpt lat="44.72536" lon="7.00732">
        <ele>1971</ele>
        <time>2022-07-16T13:33:28Z</time>
      </trkpt>
      <trkpt lat="44.72539" lon="7.00729">
        <ele>1971</ele>
        <time>2022-07-16T13:33:31Z</time>
      </trkpt>
      <trkpt lat="44.72561" lon="7.00715">
        <ele>1971</ele>
        <time>2022-07-16T13:33:52Z</time>
      </trkpt>
      <trkpt lat="44.72569" lon="7.00713">
        <ele>1971</ele>
        <time>2022-07-16T13:33:59Z</time>
      </trkpt>
      <trkpt lat="44.72578" lon="7.00713">
        <ele>1971</ele>
        <time>2022-07-16T13:34:07Z</time>
      </trkpt>
      <trkpt lat="44.72593" lon="7.00717">
        <ele>1972</ele>
        <time>2022-07-16T13:34:21Z</time>
      </trkpt>
      <trkpt lat="44.72602" lon="7.00716">
        <ele>1972</ele>
        <time>2022-07-16T13:34:29Z</time>
      </trkpt>
      <trkpt lat="44.72605" lon="7.00711">
        <ele>1972</ele>
        <time>2022-07-16T13:34:33Z</time>
      </trkpt>
      <trkpt lat="44.72612" lon="7.00686">
        <ele>1971</ele>
        <time>2022-07-16T13:34:53Z</time>
      </trkpt>
      <trkpt lat="44.72618" lon="7.00667">
        <ele>1970</ele>
        <time>2022-07-16T13:35:09Z</time>
      </trkpt>
      <trkpt lat="44.72623" lon="7.00656">
        <ele>1969</ele>
        <time>2022-07-16T13:35:17Z</time>
      </trkpt>
      <trkpt lat="44.72625" lon="7.00651">
        <ele>1968</ele>
        <time>2022-07-16T13:35:21Z</time>
      </trkpt>
      <trkpt lat="44.72628" lon="7.00646">
        <ele>1967</ele>
        <time>2022-07-16T13:35:25Z</time>
      </trkpt>
      <trkpt lat="44.7263" lon="7.00641">
        <ele>1967</ele>
        <time>2022-07-16T13:35:29Z</time>
      </trkpt>
      <trkpt lat="44.72632" lon="7.00638">
        <ele>1966</ele>
        <time>2022-07-16T13:35:32Z</time>
      </trkpt>
      <trkpt lat="44.72645" lon="7.00625">
        <ele>1963</ele>
        <time>2022-07-16T13:35:47Z</time>
      </trkpt>
      <trkpt lat="44.72653" lon="7.00621">
        <ele>1962</ele>
        <time>2022-07-16T13:35:55Z</time>
      </trkpt>
      <trkpt lat="44.72666" lon="7.00622">
        <ele>1961</ele>
        <time>2022-07-16T13:36:07Z</time>
      </trkpt>
      <trkpt lat="44.7267" lon="7.00623">
        <ele>1960</ele>
        <time>2022-07-16T13:36:11Z</time>
      </trkpt>
      <trkpt lat="44.72674" lon="7.00625">
        <ele>1961</ele>
        <time>2022-07-16T13:36:14Z</time>
      </trkpt>
      <trkpt lat="44.72681" lon="7.0063">
        <ele>1960</ele>
        <time>2022-07-16T13:36:21Z</time>
      </trkpt>
      <trkpt lat="44.72685" lon="7.00632">
        <ele>1960</ele>
        <time>2022-07-16T13:36:25Z</time>
      </trkpt>
      <trkpt lat="44.72693" lon="7.00629">
        <ele>1960</ele>
        <time>2022-07-16T13:36:33Z</time>
      </trkpt>
      <trkpt lat="44.72696" lon="7.00627">
        <ele>1960</ele>
        <time>2022-07-16T13:36:37Z</time>
      </trkpt>
      <trkpt lat="44.7271" lon="7.00616">
        <ele>1961</ele>
        <time>2022-07-16T13:36:53Z</time>
      </trkpt>
      <trkpt lat="44.72713" lon="7.00613">
        <ele>1961</ele>
        <time>2022-07-16T13:36:57Z</time>
      </trkpt>
      <trkpt lat="44.72716" lon="7.0061">
        <ele>1961</ele>
        <time>2022-07-16T13:37:00Z</time>
      </trkpt>
      <trkpt lat="44.72722" lon="7.00603">
        <ele>1960</ele>
        <time>2022-07-16T13:37:08Z</time>
      </trkpt>
      <trkpt lat="44.72734" lon="7.00599">
        <ele>1959</ele>
        <time>2022-07-16T13:37:19Z</time>
      </trkpt>
      <trkpt lat="44.72741" lon="7.00596">
        <ele>1958</ele>
        <time>2022-07-16T13:37:26Z</time>
      </trkpt>
      <trkpt lat="44.72756" lon="7.00575">
        <ele>1957</ele>
        <time>2022-07-16T13:37:46Z</time>
      </trkpt>
      <trkpt lat="44.72762" lon="7.00562">
        <ele>1954</ele>
        <time>2022-07-16T13:37:56Z</time>
      </trkpt>
      <trkpt lat="44.72765" lon="7.00557">
        <ele>1953</ele>
        <time>2022-07-16T13:38:00Z</time>
      </trkpt>
      <trkpt lat="44.72767" lon="7.00552">
        <ele>1953</ele>
        <time>2022-07-16T13:38:04Z</time>
      </trkpt>
      <trkpt lat="44.72779" lon="7.00537">
        <ele>1951</ele>
        <time>2022-07-16T13:38:18Z</time>
      </trkpt>
      <trkpt lat="44.72789" lon="7.00527">
        <ele>1951</ele>
        <time>2022-07-16T13:38:30Z</time>
      </trkpt>
      <trkpt lat="44.7281" lon="7.00497">
        <ele>1949</ele>
        <time>2022-07-16T13:38:58Z</time>
      </trkpt>
      <trkpt lat="44.72813" lon="7.00494">
        <ele>1948</ele>
        <time>2022-07-16T13:39:02Z</time>
      </trkpt>
      <trkpt lat="44.72822" lon="7.00476">
        <ele>1946</ele>
        <time>2022-07-16T13:39:18Z</time>
      </trkpt>
      <trkpt lat="44.72827" lon="7.00466">
        <ele>1945</ele>
        <time>2022-07-16T13:39:26Z</time>
      </trkpt>
      <trkpt lat="44.72835" lon="7.00454">
        <ele>1944</ele>
        <time>2022-07-16T13:39:38Z</time>
      </trkpt>
      <trkpt lat="44.72861" lon="7.00425">
        <ele>1942</ele>
        <time>2022-07-16T13:40:10Z</time>
      </trkpt>
      <trkpt lat="44.72885" lon="7.00395">
        <ele>1938</ele>
        <time>2022-07-16T13:40:41Z</time>
      </trkpt>
      <trkpt lat="44.72908" lon="7.00364">
        <ele>1937</ele>
        <time>2022-07-16T13:41:12Z</time>
      </trkpt>
      <trkpt lat="44.72914" lon="7.00357">
        <ele>1937</ele>
        <time>2022-07-16T13:41:20Z</time>
      </trkpt>
      <trkpt lat="44.72916" lon="7.00352">
        <ele>1936</ele>
        <time>2022-07-16T13:41:24Z</time>
      </trkpt>
      <trkpt lat="44.72916" lon="7.00346">
        <ele>1936</ele>
        <time>2022-07-16T13:41:29Z</time>
      </trkpt>
      <trkpt lat="44.72912" lon="7.00346">
        <ele>1937</ele>
        <time>2022-07-16T13:41:43Z</time>
      </trkpt>
      <trkpt lat="44.72909" lon="7.00344">
        <ele>1936</ele>
        <time>2022-07-16T13:41:47Z</time>
      </trkpt>
      <trkpt lat="44.72909" lon="7.00339">
        <ele>1935</ele>
        <time>2022-07-16T13:41:50Z</time>
      </trkpt>
      <trkpt lat="44.72911" lon="7.00334">
        <ele>1932</ele>
        <time>2022-07-16T13:41:53Z</time>
      </trkpt>
      <trkpt lat="44.72911" lon="7.0033">
        <ele>1931</ele>
        <time>2022-07-16T13:41:56Z</time>
      </trkpt>
      <trkpt lat="44.72906" lon="7.00321">
        <ele>1928</ele>
        <time>2022-07-16T13:42:03Z</time>
      </trkpt>
      <trkpt lat="44.72906" lon="7.00316">
        <ele>1926</ele>
        <time>2022-07-16T13:42:07Z</time>
      </trkpt>
      <trkpt lat="44.72903" lon="7.00311">
        <ele>1925</ele>
        <time>2022-07-16T13:42:11Z</time>
      </trkpt>
      <trkpt lat="44.729" lon="7.00309">
        <ele>1924</ele>
        <time>2022-07-16T13:42:15Z</time>
      </trkpt>
      <trkpt lat="44.729" lon="7.00303">
        <ele>1924</ele>
        <time>2022-07-16T13:42:19Z</time>
      </trkpt>
      <trkpt lat="44.72902" lon="7.00291">
        <ele>1922</ele>
        <time>2022-07-16T13:42:27Z</time>
      </trkpt>
      <trkpt lat="44.7291" lon="7.00272">
        <ele>1917</ele>
        <time>2022-07-16T13:42:40Z</time>
      </trkpt>
      <trkpt lat="44.72912" lon="7.00267">
        <ele>1916</ele>
        <time>2022-07-16T13:42:44Z</time>
      </trkpt>
      <trkpt lat="44.72932" lon="7.0023">
        <ele>1914</ele>
        <time>2022-07-16T13:43:13Z</time>
      </trkpt>
      <trkpt lat="44.72931" lon="7.00225">
        <ele>1912</ele>
        <time>2022-07-16T13:43:16Z</time>
      </trkpt>
      <trkpt lat="44.72927" lon="7.00225">
        <ele>1911</ele>
        <time>2022-07-16T13:43:19Z</time>
      </trkpt>
      <trkpt lat="44.72924" lon="7.00224">
        <ele>1911</ele>
        <time>2022-07-16T13:43:21Z</time>
      </trkpt>
      <trkpt lat="44.72923" lon="7.00217">
        <ele>1911</ele>
        <time>2022-07-16T13:43:23Z</time>
      </trkpt>
      <trkpt lat="44.72926" lon="7.00212">
        <ele>1912</ele>
        <time>2022-07-16T13:43:25Z</time>
      </trkpt>
      <trkpt lat="44.72928" lon="7.00207">
        <ele>1911</ele>
        <time>2022-07-16T13:43:28Z</time>
      </trkpt>
      <trkpt lat="44.72929" lon="7.00203">
        <ele>1908</ele>
        <time>2022-07-16T13:43:31Z</time>
      </trkpt>
      <trkpt lat="44.72932" lon="7.00199">
        <ele>1907</ele>
        <time>2022-07-16T13:43:35Z</time>
      </trkpt>
      <trkpt lat="44.72936" lon="7.00188">
        <ele>1902</ele>
        <time>2022-07-16T13:43:42Z</time>
      </trkpt>
      <trkpt lat="44.72938" lon="7.00183">
        <ele>1901</ele>
        <time>2022-07-16T13:43:45Z</time>
      </trkpt>
      <trkpt lat="44.72945" lon="7.0018">
        <ele>1900</ele>
        <time>2022-07-16T13:43:51Z</time>
      </trkpt>
      <trkpt lat="44.72948" lon="7.00177">
        <ele>1901</ele>
        <time>2022-07-16T13:43:54Z</time>
      </trkpt>
      <trkpt lat="44.72951" lon="7.00173">
        <ele>1902</ele>
        <time>2022-07-16T13:43:58Z</time>
      </trkpt>
      <trkpt lat="44.72962" lon="7.00167">
        <ele>1901</ele>
        <time>2022-07-16T13:44:11Z</time>
      </trkpt>
      <trkpt lat="44.72965" lon="7.00164">
        <ele>1900</ele>
        <time>2022-07-16T13:44:15Z</time>
      </trkpt>
      <trkpt lat="44.72969" lon="7.00165">
        <ele>1899</ele>
        <time>2022-07-16T13:44:20Z</time>
      </trkpt>
      <trkpt lat="44.72977" lon="7.00163">
        <ele>1899</ele>
        <time>2022-07-16T13:44:28Z</time>
      </trkpt>
      <trkpt lat="44.72992" lon="7.00159">
        <ele>1900</ele>
        <time>2022-07-16T13:44:44Z</time>
      </trkpt>
      <trkpt lat="44.72995" lon="7.00157">
        <ele>1899</ele>
        <time>2022-07-16T13:44:47Z</time>
      </trkpt>
      <trkpt lat="44.72996" lon="7.00156">
        <ele>1903</ele>
        <time>2022-07-16T13:44:52Z</time>
      </trkpt>
      <trkpt lat="44.72992" lon="7.00154">
        <ele>1902</ele>
        <time>2022-07-16T13:44:56Z</time>
      </trkpt>
      <trkpt lat="44.72989" lon="7.00149">
        <ele>1902</ele>
        <time>2022-07-16T13:44:59Z</time>
      </trkpt>
      <trkpt lat="44.72985" lon="7.00148">
        <ele>1904</ele>
        <time>2022-07-16T13:45:02Z</time>
      </trkpt>
      <trkpt lat="44.72982" lon="7.00147">
        <ele>1905</ele>
        <time>2022-07-16T13:45:14Z</time>
      </trkpt>
      <trkpt lat="44.72979" lon="7.00144">
        <ele>1901</ele>
        <time>2022-07-16T13:45:20Z</time>
      </trkpt>
      <trkpt lat="44.72978" lon="7.00139">
        <ele>1900</ele>
        <time>2022-07-16T13:45:25Z</time>
      </trkpt>
      <trkpt lat="44.72975" lon="7.00141">
        <ele>1901</ele>
        <time>2022-07-16T13:45:35Z</time>
      </trkpt>
      <trkpt lat="44.72972" lon="7.00137">
        <ele>1901</ele>
        <time>2022-07-16T13:45:41Z</time>
      </trkpt>
      <trkpt lat="44.72976" lon="7.00128">
        <ele>1901</ele>
        <time>2022-07-16T13:45:49Z</time>
      </trkpt>
      <trkpt lat="44.72987" lon="7.00114">
        <ele>1901</ele>
        <time>2022-07-16T13:46:07Z</time>
      </trkpt>
      <trkpt lat="44.72995" lon="7.00109">
        <ele>1900</ele>
        <time>2022-07-16T13:46:16Z</time>
      </trkpt>
      <trkpt lat="44.73006" lon="7.00102">
        <ele>1900</ele>
        <time>2022-07-16T13:46:28Z</time>
      </trkpt>
      <trkpt lat="44.73009" lon="7.00103">
        <ele>1900</ele>
        <time>2022-07-16T13:46:32Z</time>
      </trkpt>
      <trkpt lat="44.73013" lon="7.00104">
        <ele>1901</ele>
        <time>2022-07-16T13:46:37Z</time>
      </trkpt>
      <trkpt lat="44.73024" lon="7.00098">
        <ele>1902</ele>
        <time>2022-07-16T13:46:52Z</time>
      </trkpt>
      <trkpt lat="44.73036" lon="7.00084">
        <ele>1901</ele>
        <time>2022-07-16T13:47:08Z</time>
      </trkpt>
      <trkpt lat="44.73039" lon="7.00073">
        <ele>1900</ele>
        <time>2022-07-16T13:47:16Z</time>
      </trkpt>
      <trkpt lat="44.7304" lon="7.00067">
        <ele>1900</ele>
        <time>2022-07-16T13:47:20Z</time>
      </trkpt>
      <trkpt lat="44.7304" lon="7.00062">
        <ele>1900</ele>
        <time>2022-07-16T13:47:24Z</time>
      </trkpt>
      <trkpt lat="44.73044" lon="7.00042">
        <ele>1899</ele>
        <time>2022-07-16T13:47:38Z</time>
      </trkpt>
      <trkpt lat="44.73046" lon="7.00036">
        <ele>1899</ele>
        <time>2022-07-16T13:47:42Z</time>
      </trkpt>
      <trkpt lat="44.73048" lon="7.00031">
        <ele>1899</ele>
        <time>2022-07-16T13:47:46Z</time>
      </trkpt>
      <trkpt lat="44.73052" lon="7.00029">
        <ele>1898</ele>
        <time>2022-07-16T13:47:49Z</time>
      </trkpt>
      <trkpt lat="44.73057" lon="7.00021">
        <ele>1897</ele>
        <time>2022-07-16T13:47:57Z</time>
      </trkpt>
      <trkpt lat="44.73071" lon="7.00008">
        <ele>1896</ele>
        <time>2022-07-16T13:48:12Z</time>
      </trkpt>
      <trkpt lat="44.73084" lon="6.99994">
        <ele>1896</ele>
        <time>2022-07-16T13:48:27Z</time>
      </trkpt>
      <trkpt lat="44.73096" lon="6.99986">
        <ele>1896</ele>
        <time>2022-07-16T13:48:39Z</time>
      </trkpt>
      <trkpt lat="44.73104" lon="6.99984">
        <ele>1896</ele>
        <time>2022-07-16T13:48:47Z</time>
      </trkpt>
      <trkpt lat="44.73111" lon="6.99978">
        <ele>1896</ele>
        <time>2022-07-16T13:48:55Z</time>
      </trkpt>
      <trkpt lat="44.73113" lon="6.99973">
        <ele>1896</ele>
        <time>2022-07-16T13:48:59Z</time>
      </trkpt>
      <trkpt lat="44.73117" lon="6.9997">
        <ele>1897</ele>
        <time>2022-07-16T13:49:04Z</time>
      </trkpt>
      <trkpt lat="44.73121" lon="6.9997">
        <ele>1897</ele>
        <time>2022-07-16T13:49:08Z</time>
      </trkpt>
      <trkpt lat="44.73129" lon="6.9997">
        <ele>1897</ele>
        <time>2022-07-16T13:49:16Z</time>
      </trkpt>
      <trkpt lat="44.73141" lon="6.99964">
        <ele>1896</ele>
        <time>2022-07-16T13:49:28Z</time>
      </trkpt>
      <trkpt lat="44.73167" lon="6.99936">
        <ele>1897</ele>
        <time>2022-07-16T13:50:00Z</time>
      </trkpt>
      <trkpt lat="44.7317" lon="6.99932">
        <ele>1897</ele>
        <time>2022-07-16T13:50:04Z</time>
      </trkpt>
      <trkpt lat="44.73171" lon="6.99927">
        <ele>1897</ele>
        <time>2022-07-16T13:50:08Z</time>
      </trkpt>
      <trkpt lat="44.73173" lon="6.99923">
        <ele>1897</ele>
        <time>2022-07-16T13:50:13Z</time>
      </trkpt>
      <trkpt lat="44.73176" lon="6.99919">
        <ele>1894</ele>
        <time>2022-07-16T13:50:22Z</time>
      </trkpt>
      <trkpt lat="44.73177" lon="6.99914">
        <ele>1893</ele>
        <time>2022-07-16T13:50:26Z</time>
      </trkpt>
      <trkpt lat="44.73179" lon="6.99909">
        <ele>1892</ele>
        <time>2022-07-16T13:50:29Z</time>
      </trkpt>
      <trkpt lat="44.73181" lon="6.99905">
        <ele>1890</ele>
        <time>2022-07-16T13:50:32Z</time>
      </trkpt>
      <trkpt lat="44.73188" lon="6.99901">
        <ele>1891</ele>
        <time>2022-07-16T13:50:39Z</time>
      </trkpt>
      <trkpt lat="44.73192" lon="6.999">
        <ele>1890</ele>
        <time>2022-07-16T13:50:43Z</time>
      </trkpt>
      <trkpt lat="44.73204" lon="6.99901">
        <ele>1889</ele>
        <time>2022-07-16T13:50:55Z</time>
      </trkpt>
      <trkpt lat="44.73212" lon="6.99906">
        <ele>1890</ele>
        <time>2022-07-16T13:51:03Z</time>
      </trkpt>
      <trkpt lat="44.73216" lon="6.99905">
        <ele>1890</ele>
        <time>2022-07-16T13:51:07Z</time>
      </trkpt>
      <trkpt lat="44.7322" lon="6.99906">
        <ele>1889</ele>
        <time>2022-07-16T13:51:11Z</time>
      </trkpt>
      <trkpt lat="44.73224" lon="6.99906">
        <ele>1888</ele>
        <time>2022-07-16T13:51:14Z</time>
      </trkpt>
      <trkpt lat="44.73227" lon="6.99909">
        <ele>1888</ele>
        <time>2022-07-16T13:51:17Z</time>
      </trkpt>
      <trkpt lat="44.7323" lon="6.99912">
        <ele>1888</ele>
        <time>2022-07-16T13:51:20Z</time>
      </trkpt>
      <trkpt lat="44.73233" lon="6.99916">
        <ele>1888</ele>
        <time>2022-07-16T13:51:23Z</time>
      </trkpt>
      <trkpt lat="44.73249" lon="6.99917">
        <ele>1887</ele>
        <time>2022-07-16T13:51:37Z</time>
      </trkpt>
      <trkpt lat="44.73252" lon="6.99915">
        <ele>1888</ele>
        <time>2022-07-16T13:51:41Z</time>
      </trkpt>
      <trkpt lat="44.73255" lon="6.99911">
        <ele>1890</ele>
        <time>2022-07-16T13:51:44Z</time>
      </trkpt>
      <trkpt lat="44.73258" lon="6.99911">
        <ele>1890</ele>
        <time>2022-07-16T13:51:48Z</time>
      </trkpt>
      <trkpt lat="44.73262" lon="6.99911">
        <ele>1890</ele>
        <time>2022-07-16T13:51:52Z</time>
      </trkpt>
      <trkpt lat="44.73261" lon="6.99906">
        <ele>1890</ele>
        <time>2022-07-16T13:51:55Z</time>
      </trkpt>
      <trkpt lat="44.73259" lon="6.99901">
        <ele>1888</ele>
        <time>2022-07-16T13:51:57Z</time>
      </trkpt>
      <trkpt lat="44.73263" lon="6.99893">
        <ele>1889</ele>
        <time>2022-07-16T13:52:06Z</time>
      </trkpt>
      <trkpt lat="44.7326" lon="6.9989">
        <ele>1888</ele>
        <time>2022-07-16T13:52:12Z</time>
      </trkpt>
      <trkpt lat="44.73255" lon="6.99891">
        <ele>1885</ele>
        <time>2022-07-16T13:52:15Z</time>
      </trkpt>
      <trkpt lat="44.73255" lon="6.99885">
        <ele>1884</ele>
        <time>2022-07-16T13:52:18Z</time>
      </trkpt>
      <trkpt lat="44.73259" lon="6.99884">
        <ele>1885</ele>
        <time>2022-07-16T13:52:21Z</time>
      </trkpt>
      <trkpt lat="44.73263" lon="6.99884">
        <ele>1888</ele>
        <time>2022-07-16T13:52:25Z</time>
      </trkpt>
      <trkpt lat="44.73264" lon="6.99877">
        <ele>1887</ele>
        <time>2022-07-16T13:52:29Z</time>
      </trkpt>
      <trkpt lat="44.73261" lon="6.99876">
        <ele>1886</ele>
        <time>2022-07-16T13:52:32Z</time>
      </trkpt>
      <trkpt lat="44.73254" lon="6.99878">
        <ele>1880</ele>
        <time>2022-07-16T13:52:38Z</time>
      </trkpt>
      <trkpt lat="44.7325" lon="6.99877">
        <ele>1878</ele>
        <time>2022-07-16T13:52:42Z</time>
      </trkpt>
      <trkpt lat="44.73248" lon="6.99872">
        <ele>1879</ele>
        <time>2022-07-16T13:52:47Z</time>
      </trkpt>
      <trkpt lat="44.73244" lon="6.99869">
        <ele>1880</ele>
        <time>2022-07-16T13:52:51Z</time>
      </trkpt>
      <trkpt lat="44.73247" lon="6.99864">
        <ele>1881</ele>
        <time>2022-07-16T13:52:55Z</time>
      </trkpt>
      <trkpt lat="44.73248" lon="6.99854">
        <ele>1874</ele>
        <time>2022-07-16T13:53:07Z</time>
      </trkpt>
      <trkpt lat="44.73253" lon="6.99846">
        <ele>1862</ele>
        <time>2022-07-16T13:53:22Z</time>
      </trkpt>
      <trkpt lat="44.73264" lon="6.99857">
        <ele>1862</ele>
        <time>2022-07-16T13:53:34Z</time>
      </trkpt>
      <trkpt lat="44.73273" lon="6.99859">
        <ele>1862</ele>
        <time>2022-07-16T13:53:45Z</time>
      </trkpt>
      <trkpt lat="44.73283" lon="6.99856">
        <ele>1862</ele>
        <time>2022-07-16T13:53:55Z</time>
      </trkpt>
      <trkpt lat="44.73291" lon="6.99863">
        <ele>1860</ele>
        <time>2022-07-16T13:54:06Z</time>
      </trkpt>
      <trkpt lat="44.73298" lon="6.99874">
        <ele>1860</ele>
        <time>2022-07-16T13:54:20Z</time>
      </trkpt>
      <trkpt lat="44.73298" lon="6.9988">
        <ele>1864</ele>
        <time>2022-07-16T13:54:27Z</time>
      </trkpt>
      <trkpt lat="44.73303" lon="6.9988">
        <ele>1865</ele>
        <time>2022-07-16T13:54:31Z</time>
      </trkpt>
      <trkpt lat="44.7331" lon="6.99885">
        <ele>1866</ele>
        <time>2022-07-16T13:54:39Z</time>
      </trkpt>
      <trkpt lat="44.73312" lon="6.99889">
        <ele>1863</ele>
        <time>2022-07-16T13:54:44Z</time>
      </trkpt>
      <trkpt lat="44.73316" lon="6.9989">
        <ele>1861</ele>
        <time>2022-07-16T13:54:49Z</time>
      </trkpt>
      <trkpt lat="44.7332" lon="6.99886">
        <ele>1858</ele>
        <time>2022-07-16T13:54:53Z</time>
      </trkpt>
      <trkpt lat="44.73325" lon="6.99881">
        <ele>1855</ele>
        <time>2022-07-16T13:55:01Z</time>
      </trkpt>
      <trkpt lat="44.73331" lon="6.99873">
        <ele>1854</ele>
        <time>2022-07-16T13:55:09Z</time>
      </trkpt>
      <trkpt lat="44.73334" lon="6.99852">
        <ele>1852</ele>
        <time>2022-07-16T13:55:28Z</time>
      </trkpt>
      <trkpt lat="44.73337" lon="6.99846">
        <ele>1850</ele>
        <time>2022-07-16T13:55:32Z</time>
      </trkpt>
      <trkpt lat="44.73339" lon="6.99842">
        <ele>1848</ele>
        <time>2022-07-16T13:55:36Z</time>
      </trkpt>
      <trkpt lat="44.73345" lon="6.99834">
        <ele>1847</ele>
        <time>2022-07-16T13:55:44Z</time>
      </trkpt>
      <trkpt lat="44.73347" lon="6.99829">
        <ele>1849</ele>
        <time>2022-07-16T13:55:48Z</time>
      </trkpt>
      <trkpt lat="44.73364" lon="6.99818">
        <ele>1848</ele>
        <time>2022-07-16T13:56:08Z</time>
      </trkpt>
      <trkpt lat="44.73371" lon="6.99813">
        <ele>1848</ele>
        <time>2022-07-16T13:56:16Z</time>
      </trkpt>
      <trkpt lat="44.73374" lon="6.99809">
        <ele>1849</ele>
        <time>2022-07-16T13:56:21Z</time>
      </trkpt>
      <trkpt lat="44.73378" lon="6.99808">
        <ele>1849</ele>
        <time>2022-07-16T13:56:25Z</time>
      </trkpt>
      <trkpt lat="44.73382" lon="6.99806">
        <ele>1850</ele>
        <time>2022-07-16T13:56:29Z</time>
      </trkpt>
      <trkpt lat="44.73386" lon="6.99804">
        <ele>1851</ele>
        <time>2022-07-16T13:56:33Z</time>
      </trkpt>
      <trkpt lat="44.73405" lon="6.99786">
        <ele>1850</ele>
        <time>2022-07-16T13:57:01Z</time>
      </trkpt>
      <trkpt lat="44.73411" lon="6.99778">
        <ele>1849</ele>
        <time>2022-07-16T13:57:10Z</time>
      </trkpt>
      <trkpt lat="44.73417" lon="6.99773">
        <ele>1847</ele>
        <time>2022-07-16T13:57:18Z</time>
      </trkpt>
      <trkpt lat="44.7342" lon="6.99772">
        <ele>1846</ele>
        <time>2022-07-16T13:57:22Z</time>
      </trkpt>
      <trkpt lat="44.73432" lon="6.99776">
        <ele>1837</ele>
        <time>2022-07-16T13:57:39Z</time>
      </trkpt>
      <trkpt lat="44.73436" lon="6.99778">
        <ele>1834</ele>
        <time>2022-07-16T13:57:46Z</time>
      </trkpt>
      <trkpt lat="44.73446" lon="6.99781">
        <ele>1826</ele>
        <time>2022-07-16T13:57:58Z</time>
      </trkpt>
      <trkpt lat="44.7345" lon="6.9978">
        <ele>1825</ele>
        <time>2022-07-16T13:58:02Z</time>
      </trkpt>
      <trkpt lat="44.73454" lon="6.99779">
        <ele>1823</ele>
        <time>2022-07-16T13:58:06Z</time>
      </trkpt>
      <trkpt lat="44.73481" lon="6.9977">
        <ele>1819</ele>
        <time>2022-07-16T13:58:34Z</time>
      </trkpt>
      <trkpt lat="44.73485" lon="6.9977">
        <ele>1819</ele>
        <time>2022-07-16T13:58:38Z</time>
      </trkpt>
      <trkpt lat="44.73489" lon="6.99769">
        <ele>1818</ele>
        <time>2022-07-16T13:58:42Z</time>
      </trkpt>
      <trkpt lat="44.73493" lon="6.99767">
        <ele>1817</ele>
        <time>2022-07-16T13:58:46Z</time>
      </trkpt>
      <trkpt lat="44.735" lon="6.99762">
        <ele>1815</ele>
        <time>2022-07-16T13:58:54Z</time>
      </trkpt>
      <trkpt lat="44.73503" lon="6.99759">
        <ele>1815</ele>
        <time>2022-07-16T13:58:58Z</time>
      </trkpt>
      <trkpt lat="44.73506" lon="6.99758">
        <ele>1815</ele>
        <time>2022-07-16T13:59:02Z</time>
      </trkpt>
      <trkpt lat="44.73509" lon="6.99754">
        <ele>1814</ele>
        <time>2022-07-16T13:59:06Z</time>
      </trkpt>
      <trkpt lat="44.73532" lon="6.99727">
        <ele>1811</ele>
        <time>2022-07-16T13:59:38Z</time>
      </trkpt>
      <trkpt lat="44.73536" lon="6.99724">
        <ele>1811</ele>
        <time>2022-07-16T13:59:42Z</time>
      </trkpt>
      <trkpt lat="44.73538" lon="6.9972">
        <ele>1811</ele>
        <time>2022-07-16T13:59:46Z</time>
      </trkpt>
      <trkpt lat="44.7355" lon="6.99719">
        <ele>1807</ele>
        <time>2022-07-16T14:00:00Z</time>
      </trkpt>
      <trkpt lat="44.73554" lon="6.99718">
        <ele>1805</ele>
        <time>2022-07-16T14:00:05Z</time>
      </trkpt>
      <trkpt lat="44.73557" lon="6.99718">
        <ele>1805</ele>
        <time>2022-07-16T14:00:09Z</time>
      </trkpt>
      <trkpt lat="44.73561" lon="6.99718">
        <ele>1804</ele>
        <time>2022-07-16T14:00:13Z</time>
      </trkpt>
      <trkpt lat="44.73567" lon="6.99723">
        <ele>1803</ele>
        <time>2022-07-16T14:00:22Z</time>
      </trkpt>
      <trkpt lat="44.73571" lon="6.99725">
        <ele>1802</ele>
        <time>2022-07-16T14:00:26Z</time>
      </trkpt>
      <trkpt lat="44.73575" lon="6.99723">
        <ele>1801</ele>
        <time>2022-07-16T14:00:31Z</time>
      </trkpt>
      <trkpt lat="44.73577" lon="6.99719">
        <ele>1800</ele>
        <time>2022-07-16T14:00:35Z</time>
      </trkpt>
      <trkpt lat="44.73585" lon="6.99715">
        <ele>1799</ele>
        <time>2022-07-16T14:00:45Z</time>
      </trkpt>
      <trkpt lat="44.73588" lon="6.99714">
        <ele>1799</ele>
        <time>2022-07-16T14:00:49Z</time>
      </trkpt>
      <trkpt lat="44.7359" lon="6.9971">
        <ele>1799</ele>
        <time>2022-07-16T14:00:54Z</time>
      </trkpt>
      <trkpt lat="44.73594" lon="6.99707">
        <ele>1799</ele>
        <time>2022-07-16T14:00:59Z</time>
      </trkpt>
      <trkpt lat="44.73597" lon="6.99709">
        <ele>1798</ele>
        <time>2022-07-16T14:01:04Z</time>
      </trkpt>
      <trkpt lat="44.736" lon="6.99705">
        <ele>1797</ele>
        <time>2022-07-16T14:01:09Z</time>
      </trkpt>
      <trkpt lat="44.73605" lon="6.99705">
        <ele>1796</ele>
        <time>2022-07-16T14:01:16Z</time>
      </trkpt>
      <trkpt lat="44.73608" lon="6.99701">
        <ele>1797</ele>
        <time>2022-07-16T14:01:20Z</time>
      </trkpt>
      <trkpt lat="44.73615" lon="6.99687">
        <ele>1794</ele>
        <time>2022-07-16T14:01:33Z</time>
      </trkpt>
      <trkpt lat="44.73618" lon="6.99685">
        <ele>1794</ele>
        <time>2022-07-16T14:01:37Z</time>
      </trkpt>
      <trkpt lat="44.73626" lon="6.99688">
        <ele>1793</ele>
        <time>2022-07-16T14:01:46Z</time>
      </trkpt>
      <trkpt lat="44.73629" lon="6.99692">
        <ele>1792</ele>
        <time>2022-07-16T14:01:50Z</time>
      </trkpt>
    </trkseg>
  </trk>
</gpx>